<?xml version="1.0" encoding="UTF-8" standalone="no" ?>
<gpx xmlns="http://www.topografix.com/GPX/1/1" xmlns:xsi="http://www.w3.org/2001/XMLSchema-instance" xsi:schemaLocation="http://www.topografix.com/GPX/1/1 http://www.topografix.com/GPX/1/1/gpx.xsd" version="1.1" creator="VisuGPX - https://www.visugpx.com">
  <metadata>
    <name>6171789-traversée de l'ardeche en vtt (GTA)</name>
    <desc><![CDATA[en cour de préparation]]></desc>
  </metadata>
  <trk>
    <name><![CDATA[6171789-traversée de l'ardeche en vtt (GTA)]]></name>
    <trkseg>
      <trkpt lat="45.27056" lon="4.64895">
        <ele>414</ele>
        <time>2020-06-08T06:03:08Z</time>
      </trkpt>
      <trkpt lat="45.27037" lon="4.64786">
        <ele>410</ele>
      </trkpt>
      <trkpt lat="45.26975" lon="4.64632">
        <ele>415.7</ele>
      </trkpt>
      <trkpt lat="45.26993" lon="4.64574">
        <ele>416</ele>
        <time>2020-06-08T06:04:06Z</time>
      </trkpt>
      <trkpt lat="45.2695" lon="4.645">
        <ele>422</ele>
        <time>2020-06-08T06:04:21Z</time>
      </trkpt>
      <trkpt lat="45.26939" lon="4.64478">
        <ele>423</ele>
        <time>2020-06-08T06:04:26Z</time>
      </trkpt>
      <trkpt lat="45.26919" lon="4.64471">
        <ele>422</ele>
        <time>2020-06-08T06:04:31Z</time>
      </trkpt>
      <trkpt lat="45.26919" lon="4.64608">
        <ele>418</ele>
        <time>2020-06-08T06:04:53Z</time>
      </trkpt>
      <trkpt lat="45.26784" lon="4.64853">
        <ele>451</ele>
        <time>2020-06-08T06:05:45Z</time>
      </trkpt>
      <trkpt lat="45.26764" lon="4.649">
        <ele>453</ele>
        <time>2020-06-08T06:05:54Z</time>
      </trkpt>
      <trkpt lat="45.26757" lon="4.64933">
        <ele>453</ele>
        <time>2020-06-08T06:05:59Z</time>
      </trkpt>
      <trkpt lat="45.26753" lon="4.65009">
        <ele>443.2</ele>
      </trkpt>
      <trkpt lat="45.26766" lon="4.65046">
        <ele>440</ele>
        <time>2020-06-08T06:06:18Z</time>
      </trkpt>
      <trkpt lat="45.26762" lon="4.65069">
        <ele>441</ele>
        <time>2020-06-08T06:06:22Z</time>
      </trkpt>
      <trkpt lat="45.2668" lon="4.6514">
        <ele>445</ele>
        <time>2020-06-08T06:06:45Z</time>
      </trkpt>
      <trkpt lat="45.26605" lon="4.6518">
        <ele>446</ele>
        <time>2020-06-08T06:07:03Z</time>
      </trkpt>
      <trkpt lat="45.2654" lon="4.6519">
        <ele>449</ele>
        <time>2020-06-08T06:07:19Z</time>
      </trkpt>
      <trkpt lat="45.26429" lon="4.65202">
        <ele>452</ele>
        <time>2020-06-08T06:07:45Z</time>
      </trkpt>
      <trkpt lat="45.26391" lon="4.65197">
        <ele>454</ele>
        <time>2020-06-08T06:07:54Z</time>
      </trkpt>
      <trkpt lat="45.26383" lon="4.65206">
        <ele>453</ele>
        <time>2020-06-08T06:07:56Z</time>
      </trkpt>
      <trkpt lat="45.26389" lon="4.65224">
        <ele>451</ele>
        <time>2020-06-08T06:07:59Z</time>
      </trkpt>
      <trkpt lat="45.26491" lon="4.65438">
        <ele>448</ele>
        <time>2020-06-08T06:08:42Z</time>
      </trkpt>
      <trkpt lat="45.26499" lon="4.65466">
        <ele>449</ele>
        <time>2020-06-08T06:08:47Z</time>
      </trkpt>
      <trkpt lat="45.26498" lon="4.65488">
        <ele>450</ele>
        <time>2020-06-08T06:08:50Z</time>
      </trkpt>
      <trkpt lat="45.26478" lon="4.65515">
        <ele>455</ele>
        <time>2020-06-08T06:08:57Z</time>
      </trkpt>
      <trkpt lat="45.26439" lon="4.65583">
        <ele>462.6</ele>
      </trkpt>
      <trkpt lat="45.26375" lon="4.65637">
        <ele>471</ele>
        <time>2020-06-08T06:09:29Z</time>
      </trkpt>
      <trkpt lat="45.26307" lon="4.65666">
        <ele>477.1</ele>
      </trkpt>
      <trkpt lat="45.2628" lon="4.65842">
        <ele>474</ele>
        <time>2020-06-08T06:10:14Z</time>
      </trkpt>
      <trkpt lat="45.26259" lon="4.65887">
        <ele>472.1</ele>
      </trkpt>
      <trkpt lat="45.26141" lon="4.6597">
        <ele>466</ele>
        <time>2020-06-08T06:10:55Z</time>
      </trkpt>
      <trkpt lat="45.26092" lon="4.65991">
        <ele>464.6</ele>
      </trkpt>
      <trkpt lat="45.26063" lon="4.6602">
        <ele>463</ele>
        <time>2020-06-08T06:11:16Z</time>
      </trkpt>
      <trkpt lat="45.25999" lon="4.66112">
        <ele>463.8</ele>
      </trkpt>
      <trkpt lat="45.25956" lon="4.66066">
        <ele>468</ele>
      </trkpt>
      <trkpt lat="45.259" lon="4.65907">
        <ele>478</ele>
        <time>2020-06-08T06:12:16Z</time>
      </trkpt>
      <trkpt lat="45.25764" lon="4.65927">
        <ele>479</ele>
      </trkpt>
      <trkpt lat="45.25717" lon="4.65925">
        <ele>477</ele>
      </trkpt>
      <trkpt lat="45.25698" lon="4.65882">
        <ele>478.2</ele>
      </trkpt>
      <trkpt lat="45.25452" lon="4.65579">
        <ele>499.3</ele>
      </trkpt>
      <trkpt lat="45.25344" lon="4.65455">
        <ele>503</ele>
        <time>2020-06-08T06:14:55Z</time>
      </trkpt>
      <trkpt lat="45.25278" lon="4.65382">
        <ele>504</ele>
        <time>2020-06-08T06:15:15Z</time>
      </trkpt>
      <trkpt lat="45.25215" lon="4.65265">
        <ele>508.8</ele>
      </trkpt>
      <trkpt lat="45.2516" lon="4.65164">
        <ele>515.1</ele>
      </trkpt>
      <trkpt lat="45.25104" lon="4.65034">
        <ele>521</ele>
        <time>2020-06-08T06:16:25Z</time>
      </trkpt>
      <trkpt lat="45.25043" lon="4.64955">
        <ele>517.5</ele>
      </trkpt>
      <trkpt lat="45.24986" lon="4.64859">
        <ele>515</ele>
        <time>2020-06-08T06:17:05Z</time>
      </trkpt>
      <trkpt lat="45.24938" lon="4.64722">
        <ele>520.1</ele>
      </trkpt>
      <trkpt lat="45.24894" lon="4.64645">
        <ele>516</ele>
        <time>2020-06-08T06:17:47Z</time>
      </trkpt>
      <trkpt lat="45.24851" lon="4.64578">
        <ele>520</ele>
        <time>2020-06-08T06:18:02Z</time>
      </trkpt>
      <trkpt lat="45.2476" lon="4.64546">
        <ele>518</ele>
        <time>2020-06-08T06:18:23Z</time>
      </trkpt>
      <trkpt lat="45.2473" lon="4.64524">
        <ele>519</ele>
        <time>2020-06-08T06:18:31Z</time>
      </trkpt>
      <trkpt lat="45.24682" lon="4.64439">
        <ele>528</ele>
        <time>2020-06-08T06:18:49Z</time>
      </trkpt>
      <trkpt lat="45.24558" lon="4.64273">
        <ele>530.6</ele>
      </trkpt>
      <trkpt lat="45.24522" lon="4.64142">
        <ele>533</ele>
        <time>2020-06-08T06:19:52Z</time>
      </trkpt>
      <trkpt lat="45.24455" lon="4.64054">
        <ele>525.4</ele>
      </trkpt>
      <trkpt lat="45.24438" lon="4.63991">
        <ele>520.4</ele>
      </trkpt>
      <trkpt lat="45.24537" lon="4.63994">
        <ele>523.6</ele>
      </trkpt>
      <trkpt lat="45.24555" lon="4.63974">
        <ele>524</ele>
        <time>2020-06-08T06:20:49Z</time>
      </trkpt>
      <trkpt lat="45.24598" lon="4.63932">
        <ele>522</ele>
        <time>2020-06-08T06:21:01Z</time>
      </trkpt>
      <trkpt lat="45.24648" lon="4.63869">
        <ele>519</ele>
        <time>2020-06-08T06:21:17Z</time>
      </trkpt>
      <trkpt lat="45.24671" lon="4.6385">
        <ele>517</ele>
        <time>2020-06-08T06:21:23Z</time>
      </trkpt>
      <trkpt lat="45.24679" lon="4.63846">
        <ele>516</ele>
        <time>2020-06-08T06:21:25Z</time>
      </trkpt>
      <trkpt lat="45.24704" lon="4.63848">
        <ele>514</ele>
        <time>2020-06-08T06:21:31Z</time>
      </trkpt>
      <trkpt lat="45.2474" lon="4.63847">
        <ele>511</ele>
        <time>2020-06-08T06:21:40Z</time>
      </trkpt>
      <trkpt lat="45.24775" lon="4.63837">
        <ele>510</ele>
        <time>2020-06-08T06:21:48Z</time>
      </trkpt>
      <trkpt lat="45.24797" lon="4.63855">
        <ele>512</ele>
        <time>2020-06-08T06:21:54Z</time>
      </trkpt>
      <trkpt lat="45.24825" lon="4.63862">
        <ele>513</ele>
        <time>2020-06-08T06:22:00Z</time>
      </trkpt>
      <trkpt lat="45.24843" lon="4.63811">
        <ele>511</ele>
        <time>2020-06-08T06:22:10Z</time>
      </trkpt>
      <trkpt lat="45.24837" lon="4.63758">
        <ele>509</ele>
        <time>2020-06-08T06:22:19Z</time>
      </trkpt>
      <trkpt lat="45.24823" lon="4.6371">
        <ele>507</ele>
        <time>2020-06-08T06:22:27Z</time>
      </trkpt>
      <trkpt lat="45.24824" lon="4.63645">
        <ele>507</ele>
        <time>2020-06-08T06:22:38Z</time>
      </trkpt>
      <trkpt lat="45.24818" lon="4.63621">
        <ele>507</ele>
        <time>2020-06-08T06:22:42Z</time>
      </trkpt>
      <trkpt lat="45.24765" lon="4.63556">
        <ele>504</ele>
        <time>2020-06-08T06:22:58Z</time>
      </trkpt>
      <trkpt lat="45.24738" lon="4.63516">
        <ele>505</ele>
        <time>2020-06-08T06:23:07Z</time>
      </trkpt>
      <trkpt lat="45.24726" lon="4.63487">
        <ele>506</ele>
        <time>2020-06-08T06:23:13Z</time>
      </trkpt>
      <trkpt lat="45.24652" lon="4.63363">
        <ele>508</ele>
        <time>2020-06-08T06:23:40Z</time>
      </trkpt>
      <trkpt lat="45.24633" lon="4.63339">
        <ele>508</ele>
        <time>2020-06-08T06:23:46Z</time>
      </trkpt>
      <trkpt lat="45.24616" lon="4.63328">
        <ele>508</ele>
        <time>2020-06-08T06:23:50Z</time>
      </trkpt>
      <trkpt lat="45.24498" lon="4.63285">
        <ele>499</ele>
        <time>2020-06-08T06:24:19Z</time>
      </trkpt>
      <trkpt lat="45.24467" lon="4.63289">
        <ele>495</ele>
        <time>2020-06-08T06:24:26Z</time>
      </trkpt>
      <trkpt lat="45.24425" lon="4.63269">
        <ele>493</ele>
        <time>2020-06-08T06:24:36Z</time>
      </trkpt>
      <trkpt lat="45.24367" lon="4.63257">
        <ele>488</ele>
        <time>2020-06-08T06:24:50Z</time>
      </trkpt>
      <trkpt lat="45.24362" lon="4.63249">
        <ele>489</ele>
        <time>2020-06-08T06:24:52Z</time>
      </trkpt>
      <trkpt lat="45.24343" lon="4.63246">
        <ele>487</ele>
        <time>2020-06-08T06:24:56Z</time>
      </trkpt>
      <trkpt lat="45.24325" lon="4.63246">
        <ele>486</ele>
        <time>2020-06-08T06:25:00Z</time>
      </trkpt>
      <trkpt lat="45.24277" lon="4.63255">
        <ele>480</ele>
        <time>2020-06-08T06:25:12Z</time>
      </trkpt>
      <trkpt lat="45.24198" lon="4.63256">
        <ele>473</ele>
        <time>2020-06-08T06:25:30Z</time>
      </trkpt>
      <trkpt lat="45.24172" lon="4.6325">
        <ele>471</ele>
        <time>2020-06-08T06:25:36Z</time>
      </trkpt>
      <trkpt lat="45.24138" lon="4.63235">
        <ele>469</ele>
        <time>2020-06-08T06:25:44Z</time>
      </trkpt>
      <trkpt lat="45.24123" lon="4.63231">
        <ele>466</ele>
        <time>2020-06-08T06:25:48Z</time>
      </trkpt>
      <trkpt lat="45.24091" lon="4.63254">
        <ele>460</ele>
        <time>2020-06-08T06:25:56Z</time>
      </trkpt>
      <trkpt lat="45.24075" lon="4.63221">
        <ele>458</ele>
        <time>2020-06-08T06:26:03Z</time>
      </trkpt>
      <trkpt lat="45.24065" lon="4.63142">
        <ele>461</ele>
        <time>2020-06-08T06:26:16Z</time>
      </trkpt>
      <trkpt lat="45.24054" lon="4.63081">
        <ele>461</ele>
        <time>2020-06-08T06:26:27Z</time>
      </trkpt>
      <trkpt lat="45.24035" lon="4.63036">
        <ele>461</ele>
        <time>2020-06-08T06:26:35Z</time>
      </trkpt>
      <trkpt lat="45.24004" lon="4.62982">
        <ele>457</ele>
        <time>2020-06-08T06:26:47Z</time>
      </trkpt>
      <trkpt lat="45.23987" lon="4.62958">
        <ele>455</ele>
        <time>2020-06-08T06:26:52Z</time>
      </trkpt>
      <trkpt lat="45.23966" lon="4.62911">
        <ele>455</ele>
        <time>2020-06-08T06:27:01Z</time>
      </trkpt>
      <trkpt lat="45.23947" lon="4.62851">
        <ele>453</ele>
        <time>2020-06-08T06:27:12Z</time>
      </trkpt>
      <trkpt lat="45.23923" lon="4.62805">
        <ele>448</ele>
        <time>2020-06-08T06:27:22Z</time>
      </trkpt>
      <trkpt lat="45.23916" lon="4.62783">
        <ele>446</ele>
        <time>2020-06-08T06:27:26Z</time>
      </trkpt>
      <trkpt lat="45.23917" lon="4.62756">
        <ele>446</ele>
        <time>2020-06-08T06:27:30Z</time>
      </trkpt>
      <trkpt lat="45.23924" lon="4.62721">
        <ele>442</ele>
        <time>2020-06-08T06:27:36Z</time>
      </trkpt>
      <trkpt lat="45.23941" lon="4.62673">
        <ele>436</ele>
        <time>2020-06-08T06:27:45Z</time>
      </trkpt>
      <trkpt lat="45.23954" lon="4.62656">
        <ele>434</ele>
        <time>2020-06-08T06:27:49Z</time>
      </trkpt>
      <trkpt lat="45.23981" lon="4.62637">
        <ele>434</ele>
        <time>2020-06-08T06:27:56Z</time>
      </trkpt>
      <trkpt lat="45.24035" lon="4.62618">
        <ele>427</ele>
        <time>2020-06-08T06:28:09Z</time>
      </trkpt>
      <trkpt lat="45.24146" lon="4.62673">
        <ele>434</ele>
        <time>2020-06-08T06:28:36Z</time>
      </trkpt>
      <trkpt lat="45.24151" lon="4.62674">
        <ele>434</ele>
        <time>2020-06-08T06:28:38Z</time>
      </trkpt>
      <trkpt lat="45.24155" lon="4.62671">
        <ele>433</ele>
        <time>2020-06-08T06:28:39Z</time>
      </trkpt>
      <trkpt lat="45.24159" lon="4.6266">
        <ele>432</ele>
        <time>2020-06-08T06:28:41Z</time>
      </trkpt>
      <trkpt lat="45.24162" lon="4.62631">
        <ele>428</ele>
        <time>2020-06-08T06:28:46Z</time>
      </trkpt>
      <trkpt lat="45.24158" lon="4.62561">
        <ele>419</ele>
        <time>2020-06-08T06:28:57Z</time>
      </trkpt>
      <trkpt lat="45.24171" lon="4.6252">
        <ele>417</ele>
        <time>2020-06-08T06:29:04Z</time>
      </trkpt>
      <trkpt lat="45.24193" lon="4.62495">
        <ele>421</ele>
        <time>2020-06-08T06:29:11Z</time>
      </trkpt>
      <trkpt lat="45.2422" lon="4.62473">
        <ele>427</ele>
        <time>2020-06-08T06:29:18Z</time>
      </trkpt>
      <trkpt lat="45.24227" lon="4.6246">
        <ele>427</ele>
        <time>2020-06-08T06:29:21Z</time>
      </trkpt>
      <trkpt lat="45.24227" lon="4.62445">
        <ele>427</ele>
        <time>2020-06-08T06:29:23Z</time>
      </trkpt>
      <trkpt lat="45.2422" lon="4.62434">
        <ele>426</ele>
        <time>2020-06-08T06:29:26Z</time>
      </trkpt>
      <trkpt lat="45.24208" lon="4.62432">
        <ele>426</ele>
        <time>2020-06-08T06:29:29Z</time>
      </trkpt>
      <trkpt lat="45.24177" lon="4.6244">
        <ele>426</ele>
        <time>2020-06-08T06:29:36Z</time>
      </trkpt>
      <trkpt lat="45.24134" lon="4.6246">
        <ele>418</ele>
        <time>2020-06-08T06:29:47Z</time>
      </trkpt>
      <trkpt lat="45.24115" lon="4.62459">
        <ele>416</ele>
        <time>2020-06-08T06:29:51Z</time>
      </trkpt>
      <trkpt lat="45.24086" lon="4.62412">
        <ele>425</ele>
        <time>2020-06-08T06:30:01Z</time>
      </trkpt>
      <trkpt lat="45.2406" lon="4.62397">
        <ele>426</ele>
        <time>2020-06-08T06:30:08Z</time>
      </trkpt>
      <trkpt lat="45.24041" lon="4.62381">
        <ele>428</ele>
        <time>2020-06-08T06:30:13Z</time>
      </trkpt>
      <trkpt lat="45.24027" lon="4.62378">
        <ele>426</ele>
        <time>2020-06-08T06:30:16Z</time>
      </trkpt>
      <trkpt lat="45.23965" lon="4.62354">
        <ele>423</ele>
        <time>2020-06-08T06:30:31Z</time>
      </trkpt>
      <trkpt lat="45.23932" lon="4.62328">
        <ele>424</ele>
        <time>2020-06-08T06:30:40Z</time>
      </trkpt>
      <trkpt lat="45.23923" lon="4.62316">
        <ele>424</ele>
        <time>2020-06-08T06:30:43Z</time>
      </trkpt>
      <trkpt lat="45.23906" lon="4.62276">
        <ele>425</ele>
        <time>2020-06-08T06:30:51Z</time>
      </trkpt>
      <trkpt lat="45.239" lon="4.62255">
        <ele>426</ele>
        <time>2020-06-08T06:30:55Z</time>
      </trkpt>
      <trkpt lat="45.23838" lon="4.62134">
        <ele>426</ele>
        <time>2020-06-08T06:31:19Z</time>
      </trkpt>
      <trkpt lat="45.23833" lon="4.6212">
        <ele>427</ele>
        <time>2020-06-08T06:31:22Z</time>
      </trkpt>
      <trkpt lat="45.23829" lon="4.621">
        <ele>428</ele>
        <time>2020-06-08T06:31:25Z</time>
      </trkpt>
      <trkpt lat="45.2383" lon="4.6204">
        <ele>433</ele>
        <time>2020-06-08T06:31:35Z</time>
      </trkpt>
      <trkpt lat="45.23821" lon="4.61981">
        <ele>433</ele>
        <time>2020-06-08T06:31:45Z</time>
      </trkpt>
      <trkpt lat="45.23826" lon="4.61918">
        <ele>435</ele>
        <time>2020-06-08T06:31:55Z</time>
      </trkpt>
      <trkpt lat="45.23818" lon="4.61876">
        <ele>436</ele>
        <time>2020-06-08T06:32:03Z</time>
      </trkpt>
      <trkpt lat="45.23803" lon="4.61848">
        <ele>434</ele>
        <time>2020-06-08T06:32:08Z</time>
      </trkpt>
      <trkpt lat="45.23765" lon="4.61802">
        <ele>428</ele>
        <time>2020-06-08T06:32:20Z</time>
      </trkpt>
      <trkpt lat="45.23757" lon="4.61789">
        <ele>427</ele>
        <time>2020-06-08T06:32:23Z</time>
      </trkpt>
      <trkpt lat="45.23724" lon="4.61695">
        <ele>418</ele>
        <time>2020-06-08T06:32:40Z</time>
      </trkpt>
      <trkpt lat="45.23724" lon="4.61679">
        <ele>418</ele>
        <time>2020-06-08T06:32:43Z</time>
      </trkpt>
      <trkpt lat="45.23731" lon="4.6166">
        <ele>419</ele>
        <time>2020-06-08T06:32:46Z</time>
      </trkpt>
      <trkpt lat="45.23743" lon="4.61643">
        <ele>419</ele>
        <time>2020-06-08T06:32:50Z</time>
      </trkpt>
      <trkpt lat="45.23753" lon="4.61636">
        <ele>420</ele>
        <time>2020-06-08T06:32:53Z</time>
      </trkpt>
      <trkpt lat="45.23761" lon="4.61633">
        <ele>419</ele>
        <time>2020-06-08T06:32:55Z</time>
      </trkpt>
      <trkpt lat="45.23825" lon="4.61629">
        <ele>420</ele>
        <time>2020-06-08T06:33:10Z</time>
      </trkpt>
      <trkpt lat="45.23873" lon="4.61611">
        <ele>417</ele>
        <time>2020-06-08T06:33:21Z</time>
      </trkpt>
      <trkpt lat="45.23913" lon="4.61587">
        <ele>413</ele>
        <time>2020-06-08T06:33:31Z</time>
      </trkpt>
      <trkpt lat="45.23928" lon="4.61566">
        <ele>416</ele>
        <time>2020-06-08T06:33:36Z</time>
      </trkpt>
      <trkpt lat="45.23933" lon="4.61555">
        <ele>418</ele>
        <time>2020-06-08T06:33:38Z</time>
      </trkpt>
      <trkpt lat="45.2392" lon="4.61546">
        <ele>417</ele>
        <time>2020-06-08T06:33:42Z</time>
      </trkpt>
      <trkpt lat="45.23832" lon="4.61537">
        <ele>413</ele>
        <time>2020-06-08T06:34:02Z</time>
      </trkpt>
      <trkpt lat="45.23795" lon="4.61521">
        <ele>411</ele>
        <time>2020-06-08T06:34:11Z</time>
      </trkpt>
      <trkpt lat="45.23736" lon="4.61478">
        <ele>409</ele>
        <time>2020-06-08T06:34:27Z</time>
      </trkpt>
      <trkpt lat="45.2372" lon="4.61472">
        <ele>408</ele>
        <time>2020-06-08T06:34:31Z</time>
      </trkpt>
      <trkpt lat="45.23705" lon="4.61457">
        <ele>408</ele>
        <time>2020-06-08T06:34:35Z</time>
      </trkpt>
      <trkpt lat="45.23707" lon="4.61454">
        <ele>408</ele>
        <time>2020-06-08T06:34:36Z</time>
      </trkpt>
      <trkpt lat="45.23714" lon="4.61459">
        <ele>408</ele>
        <time>2020-06-08T06:34:38Z</time>
      </trkpt>
      <trkpt lat="45.23742" lon="4.61468">
        <ele>410</ele>
        <time>2020-06-08T06:34:44Z</time>
      </trkpt>
      <trkpt lat="45.23764" lon="4.6148">
        <ele>411</ele>
        <time>2020-06-08T06:34:50Z</time>
      </trkpt>
      <trkpt lat="45.23771" lon="4.6148">
        <ele>412</ele>
        <time>2020-06-08T06:34:51Z</time>
      </trkpt>
      <trkpt lat="45.23834" lon="4.61425">
        <ele>428</ele>
        <time>2020-06-08T06:35:09Z</time>
      </trkpt>
      <trkpt lat="45.23857" lon="4.61412">
        <ele>432</ele>
        <time>2020-06-08T06:35:15Z</time>
      </trkpt>
      <trkpt lat="45.23871" lon="4.61399">
        <ele>435</ele>
        <time>2020-06-08T06:35:18Z</time>
      </trkpt>
      <trkpt lat="45.2391" lon="4.61344">
        <ele>447</ele>
        <time>2020-06-08T06:35:31Z</time>
      </trkpt>
      <trkpt lat="45.23959" lon="4.61299">
        <ele>453</ele>
        <time>2020-06-08T06:35:45Z</time>
      </trkpt>
      <trkpt lat="45.23998" lon="4.61242">
        <ele>462</ele>
        <time>2020-06-08T06:35:58Z</time>
      </trkpt>
      <trkpt lat="45.24015" lon="4.61215">
        <ele>464</ele>
        <time>2020-06-08T06:36:04Z</time>
      </trkpt>
      <trkpt lat="45.24057" lon="4.61114">
        <ele>476</ele>
        <time>2020-06-08T06:36:23Z</time>
      </trkpt>
      <trkpt lat="45.24078" lon="4.61082">
        <ele>481</ele>
        <time>2020-06-08T06:36:30Z</time>
      </trkpt>
      <trkpt lat="45.24112" lon="4.61055">
        <ele>485</ele>
        <time>2020-06-08T06:36:40Z</time>
      </trkpt>
      <trkpt lat="45.24122" lon="4.61052">
        <ele>486</ele>
        <time>2020-06-08T06:36:42Z</time>
      </trkpt>
      <trkpt lat="45.24129" lon="4.61042">
        <ele>488</ele>
        <time>2020-06-08T06:36:44Z</time>
      </trkpt>
      <trkpt lat="45.24129" lon="4.61033">
        <ele>489</ele>
        <time>2020-06-08T06:36:46Z</time>
      </trkpt>
      <trkpt lat="45.2412" lon="4.61007">
        <ele>491</ele>
        <time>2020-06-08T06:36:50Z</time>
      </trkpt>
      <trkpt lat="45.24118" lon="4.60991">
        <ele>492</ele>
        <time>2020-06-08T06:36:53Z</time>
      </trkpt>
      <trkpt lat="45.24118" lon="4.60966">
        <ele>493</ele>
        <time>2020-06-08T06:36:57Z</time>
      </trkpt>
      <trkpt lat="45.24123" lon="4.60932">
        <ele>496</ele>
        <time>2020-06-08T06:37:03Z</time>
      </trkpt>
      <trkpt lat="45.2412" lon="4.6091">
        <ele>497</ele>
        <time>2020-06-08T06:37:07Z</time>
      </trkpt>
      <trkpt lat="45.24111" lon="4.60875">
        <ele>495</ele>
        <time>2020-06-08T06:37:13Z</time>
      </trkpt>
      <trkpt lat="45.24076" lon="4.6079">
        <ele>491</ele>
        <time>2020-06-08T06:37:29Z</time>
      </trkpt>
      <trkpt lat="45.2406" lon="4.60767">
        <ele>490</ele>
        <time>2020-06-08T06:37:34Z</time>
      </trkpt>
      <trkpt lat="45.2405" lon="4.60742">
        <ele>490</ele>
        <time>2020-06-08T06:37:39Z</time>
      </trkpt>
      <trkpt lat="45.24054" lon="4.60734">
        <ele>489</ele>
        <time>2020-06-08T06:37:41Z</time>
      </trkpt>
      <trkpt lat="45.24061" lon="4.60728">
        <ele>489</ele>
        <time>2020-06-08T06:37:43Z</time>
      </trkpt>
      <trkpt lat="45.24078" lon="4.60721">
        <ele>490</ele>
        <time>2020-06-08T06:37:47Z</time>
      </trkpt>
      <trkpt lat="45.24104" lon="4.60696">
        <ele>490</ele>
        <time>2020-06-08T06:37:54Z</time>
      </trkpt>
      <trkpt lat="45.24136" lon="4.60654">
        <ele>493</ele>
        <time>2020-06-08T06:38:04Z</time>
      </trkpt>
      <trkpt lat="45.24143" lon="4.60552">
        <ele>493</ele>
        <time>2020-06-08T06:38:21Z</time>
      </trkpt>
      <trkpt lat="45.24132" lon="4.60477">
        <ele>487</ele>
        <time>2020-06-08T06:38:34Z</time>
      </trkpt>
      <trkpt lat="45.24122" lon="4.60447">
        <ele>483</ele>
        <time>2020-06-08T06:38:39Z</time>
      </trkpt>
      <trkpt lat="45.24108" lon="4.60421">
        <ele>479</ele>
        <time>2020-06-08T06:38:44Z</time>
      </trkpt>
      <trkpt lat="45.24085" lon="4.60396">
        <ele>472</ele>
        <time>2020-06-08T06:38:51Z</time>
      </trkpt>
      <trkpt lat="45.24076" lon="4.60389">
        <ele>470</ele>
        <time>2020-06-08T06:38:54Z</time>
      </trkpt>
      <trkpt lat="45.24065" lon="4.60387">
        <ele>467</ele>
        <time>2020-06-08T06:38:56Z</time>
      </trkpt>
      <trkpt lat="45.24052" lon="4.6038">
        <ele>464</ele>
        <time>2020-06-08T06:38:59Z</time>
      </trkpt>
      <trkpt lat="45.24008" lon="4.60335">
        <ele>454</ele>
        <time>2020-06-08T06:39:12Z</time>
      </trkpt>
      <trkpt lat="45.23989" lon="4.6032">
        <ele>451</ele>
        <time>2020-06-08T06:39:17Z</time>
      </trkpt>
      <trkpt lat="45.23965" lon="4.60308">
        <ele>446</ele>
        <time>2020-06-08T06:39:23Z</time>
      </trkpt>
      <trkpt lat="45.23945" lon="4.60304">
        <ele>443</ele>
        <time>2020-06-08T06:39:28Z</time>
      </trkpt>
      <trkpt lat="45.23924" lon="4.60296">
        <ele>439</ele>
        <time>2020-06-08T06:39:33Z</time>
      </trkpt>
      <trkpt lat="45.23901" lon="4.60281">
        <ele>433</ele>
        <time>2020-06-08T06:39:39Z</time>
      </trkpt>
      <trkpt lat="45.23886" lon="4.60268">
        <ele>430</ele>
        <time>2020-06-08T06:39:43Z</time>
      </trkpt>
      <trkpt lat="45.23889" lon="4.60233">
        <ele>431</ele>
        <time>2020-06-08T06:39:49Z</time>
      </trkpt>
      <trkpt lat="45.23865" lon="4.60249">
        <ele>425</ele>
        <time>2020-06-08T06:39:55Z</time>
      </trkpt>
      <trkpt lat="45.23849" lon="4.60285">
        <ele>423</ele>
        <time>2020-06-08T06:40:02Z</time>
      </trkpt>
      <trkpt lat="45.23817" lon="4.60312">
        <ele>421</ele>
        <time>2020-06-08T06:40:11Z</time>
      </trkpt>
      <trkpt lat="45.23836" lon="4.6028">
        <ele>420</ele>
        <time>2020-06-08T06:40:18Z</time>
      </trkpt>
      <trkpt lat="45.23852" lon="4.60202">
        <ele>425</ele>
        <time>2020-06-08T06:40:31Z</time>
      </trkpt>
      <trkpt lat="45.23853" lon="4.60151">
        <ele>428</ele>
        <time>2020-06-08T06:40:39Z</time>
      </trkpt>
      <trkpt lat="45.23859" lon="4.60122">
        <ele>430</ele>
        <time>2020-06-08T06:40:44Z</time>
      </trkpt>
      <trkpt lat="45.23878" lon="4.60088">
        <ele>433</ele>
        <time>2020-06-08T06:40:51Z</time>
      </trkpt>
      <trkpt lat="45.2387" lon="4.60065">
        <ele>433</ele>
        <time>2020-06-08T06:40:56Z</time>
      </trkpt>
      <trkpt lat="45.23859" lon="4.60059">
        <ele>434</ele>
        <time>2020-06-08T06:40:58Z</time>
      </trkpt>
      <trkpt lat="45.23836" lon="4.60079">
        <ele>431</ele>
        <time>2020-06-08T06:41:05Z</time>
      </trkpt>
      <trkpt lat="45.23795" lon="4.60175">
        <ele>429</ele>
        <time>2020-06-08T06:41:23Z</time>
      </trkpt>
      <trkpt lat="45.23778" lon="4.6023">
        <ele>426</ele>
        <time>2020-06-08T06:41:33Z</time>
      </trkpt>
      <trkpt lat="45.23775" lon="4.60248">
        <ele>425</ele>
        <time>2020-06-08T06:41:36Z</time>
      </trkpt>
      <trkpt lat="45.23764" lon="4.60273">
        <ele>423</ele>
        <time>2020-06-08T06:41:41Z</time>
      </trkpt>
      <trkpt lat="45.23751" lon="4.6028">
        <ele>423</ele>
        <time>2020-06-08T06:41:44Z</time>
      </trkpt>
      <trkpt lat="45.23704" lon="4.6029">
        <ele>425</ele>
        <time>2020-06-08T06:41:55Z</time>
      </trkpt>
      <trkpt lat="45.23725" lon="4.60263">
        <ele>427</ele>
        <time>2020-06-08T06:42:02Z</time>
      </trkpt>
      <trkpt lat="45.23736" lon="4.60244">
        <ele>429</ele>
        <time>2020-06-08T06:42:06Z</time>
      </trkpt>
      <trkpt lat="45.2374" lon="4.60228">
        <ele>431</ele>
        <time>2020-06-08T06:42:09Z</time>
      </trkpt>
      <trkpt lat="45.2374" lon="4.60202">
        <ele>434</ele>
        <time>2020-06-08T06:42:13Z</time>
      </trkpt>
      <trkpt lat="45.23736" lon="4.60174">
        <ele>437</ele>
        <time>2020-06-08T06:42:18Z</time>
      </trkpt>
      <trkpt lat="45.23723" lon="4.6013">
        <ele>441</ele>
        <time>2020-06-08T06:42:25Z</time>
      </trkpt>
      <trkpt lat="45.23727" lon="4.60101">
        <ele>444</ele>
        <time>2020-06-08T06:42:30Z</time>
      </trkpt>
      <trkpt lat="45.23737" lon="4.60068">
        <ele>447</ele>
        <time>2020-06-08T06:42:36Z</time>
      </trkpt>
      <trkpt lat="45.23754" lon="4.60038">
        <ele>451</ele>
        <time>2020-06-08T06:42:43Z</time>
      </trkpt>
      <trkpt lat="45.23771" lon="4.59991">
        <ele>455</ele>
        <time>2020-06-08T06:42:51Z</time>
      </trkpt>
      <trkpt lat="45.23789" lon="4.59916">
        <ele>465</ele>
        <time>2020-06-08T06:43:04Z</time>
      </trkpt>
      <trkpt lat="45.23795" lon="4.59859">
        <ele>471</ele>
        <time>2020-06-08T06:43:14Z</time>
      </trkpt>
      <trkpt lat="45.23802" lon="4.59839">
        <ele>474</ele>
        <time>2020-06-08T06:43:17Z</time>
      </trkpt>
      <trkpt lat="45.23805" lon="4.59812">
        <ele>478</ele>
        <time>2020-06-08T06:43:22Z</time>
      </trkpt>
      <trkpt lat="45.23812" lon="4.59789">
        <ele>482</ele>
        <time>2020-06-08T06:43:26Z</time>
      </trkpt>
      <trkpt lat="45.23836" lon="4.59738">
        <ele>493</ele>
        <time>2020-06-08T06:43:36Z</time>
      </trkpt>
      <trkpt lat="45.23844" lon="4.59712">
        <ele>497</ele>
        <time>2020-06-08T06:43:41Z</time>
      </trkpt>
      <trkpt lat="45.23845" lon="4.59674">
        <ele>502</ele>
        <time>2020-06-08T06:43:47Z</time>
      </trkpt>
      <trkpt lat="45.23835" lon="4.5966">
        <ele>502</ele>
        <time>2020-06-08T06:43:50Z</time>
      </trkpt>
      <trkpt lat="45.23823" lon="4.59652">
        <ele>501</ele>
        <time>2020-06-08T06:43:53Z</time>
      </trkpt>
      <trkpt lat="45.23767" lon="4.59624">
        <ele>498</ele>
        <time>2020-06-08T06:44:07Z</time>
      </trkpt>
      <trkpt lat="45.23751" lon="4.59528">
        <ele>513</ele>
        <time>2020-06-08T06:44:24Z</time>
      </trkpt>
      <trkpt lat="45.23739" lon="4.59512">
        <ele>515</ele>
        <time>2020-06-08T06:44:27Z</time>
      </trkpt>
      <trkpt lat="45.23732" lon="4.59513">
        <ele>515</ele>
        <time>2020-06-08T06:44:29Z</time>
      </trkpt>
      <trkpt lat="45.23716" lon="4.59523">
        <ele>513</ele>
        <time>2020-06-08T06:44:33Z</time>
      </trkpt>
      <trkpt lat="45.23699" lon="4.59525">
        <ele>513</ele>
        <time>2020-06-08T06:44:37Z</time>
      </trkpt>
      <trkpt lat="45.23655" lon="4.59502">
        <ele>515</ele>
        <time>2020-06-08T06:44:48Z</time>
      </trkpt>
      <trkpt lat="45.23621" lon="4.59462">
        <ele>519</ele>
        <time>2020-06-08T06:44:58Z</time>
      </trkpt>
      <trkpt lat="45.23584" lon="4.59429">
        <ele>524</ele>
        <time>2020-06-08T06:45:09Z</time>
      </trkpt>
      <trkpt lat="45.23552" lon="4.59373">
        <ele>529</ele>
        <time>2020-06-08T06:45:20Z</time>
      </trkpt>
      <trkpt lat="45.23539" lon="4.59362">
        <ele>529</ele>
        <time>2020-06-08T06:45:24Z</time>
      </trkpt>
      <trkpt lat="45.23527" lon="4.59357">
        <ele>528</ele>
        <time>2020-06-08T06:45:27Z</time>
      </trkpt>
      <trkpt lat="45.23495" lon="4.59351">
        <ele>525</ele>
        <time>2020-06-08T06:45:34Z</time>
      </trkpt>
      <trkpt lat="45.23474" lon="4.59344">
        <ele>523</ele>
        <time>2020-06-08T06:45:39Z</time>
      </trkpt>
      <trkpt lat="45.2346" lon="4.59331">
        <ele>523</ele>
        <time>2020-06-08T06:45:43Z</time>
      </trkpt>
      <trkpt lat="45.23446" lon="4.59312">
        <ele>524</ele>
        <time>2020-06-08T06:45:48Z</time>
      </trkpt>
      <trkpt lat="45.23429" lon="4.59264">
        <ele>529</ele>
        <time>2020-06-08T06:45:57Z</time>
      </trkpt>
      <trkpt lat="45.23409" lon="4.59219">
        <ele>529</ele>
        <time>2020-06-08T06:46:05Z</time>
      </trkpt>
      <trkpt lat="45.23404" lon="4.5914">
        <ele>533</ele>
        <time>2020-06-08T06:46:19Z</time>
      </trkpt>
      <trkpt lat="45.23408" lon="4.59058">
        <ele>543</ele>
        <time>2020-06-08T06:46:32Z</time>
      </trkpt>
      <trkpt lat="45.23406" lon="4.59051">
        <ele>544</ele>
        <time>2020-06-08T06:46:33Z</time>
      </trkpt>
      <trkpt lat="45.23401" lon="4.59045">
        <ele>544</ele>
        <time>2020-06-08T06:46:35Z</time>
      </trkpt>
      <trkpt lat="45.23395" lon="4.59043">
        <ele>543</ele>
        <time>2020-06-08T06:46:36Z</time>
      </trkpt>
      <trkpt lat="45.23377" lon="4.59044">
        <ele>538</ele>
        <time>2020-06-08T06:46:40Z</time>
      </trkpt>
      <trkpt lat="45.23364" lon="4.5904">
        <ele>536</ele>
        <time>2020-06-08T06:46:44Z</time>
      </trkpt>
      <trkpt lat="45.23357" lon="4.59033">
        <ele>537</ele>
        <time>2020-06-08T06:46:46Z</time>
      </trkpt>
      <trkpt lat="45.23351" lon="4.59018">
        <ele>540</ele>
        <time>2020-06-08T06:46:48Z</time>
      </trkpt>
      <trkpt lat="45.2334" lon="4.59007">
        <ele>542</ele>
        <time>2020-06-08T06:46:52Z</time>
      </trkpt>
      <trkpt lat="45.23312" lon="4.58994">
        <ele>542</ele>
        <time>2020-06-08T06:46:58Z</time>
      </trkpt>
      <trkpt lat="45.23255" lon="4.58955">
        <ele>543</ele>
        <time>2020-06-08T06:47:13Z</time>
      </trkpt>
      <trkpt lat="45.23253" lon="4.58938">
        <ele>545</ele>
        <time>2020-06-08T06:47:16Z</time>
      </trkpt>
      <trkpt lat="45.23255" lon="4.58924">
        <ele>548</ele>
        <time>2020-06-08T06:47:18Z</time>
      </trkpt>
      <trkpt lat="45.23254" lon="4.58907">
        <ele>549</ele>
        <time>2020-06-08T06:47:21Z</time>
      </trkpt>
      <trkpt lat="45.23242" lon="4.5887">
        <ele>549</ele>
        <time>2020-06-08T06:47:28Z</time>
      </trkpt>
      <trkpt lat="45.23229" lon="4.58806">
        <ele>551</ele>
        <time>2020-06-08T06:47:39Z</time>
      </trkpt>
      <trkpt lat="45.23223" lon="4.58785">
        <ele>551</ele>
        <time>2020-06-08T06:47:43Z</time>
      </trkpt>
      <trkpt lat="45.23182" lon="4.58705">
        <ele>549</ele>
        <time>2020-06-08T06:47:59Z</time>
      </trkpt>
      <trkpt lat="45.23167" lon="4.58684">
        <ele>546</ele>
        <time>2020-06-08T06:48:04Z</time>
      </trkpt>
      <trkpt lat="45.23157" lon="4.58654">
        <ele>545</ele>
        <time>2020-06-08T06:48:09Z</time>
      </trkpt>
      <trkpt lat="45.23145" lon="4.58603">
        <ele>543</ele>
        <time>2020-06-08T06:48:18Z</time>
      </trkpt>
      <trkpt lat="45.23144" lon="4.58553">
        <ele>542</ele>
        <time>2020-06-08T06:48:26Z</time>
      </trkpt>
      <trkpt lat="45.23117" lon="4.58581">
        <ele>535</ele>
        <time>2020-06-08T06:48:34Z</time>
      </trkpt>
      <trkpt lat="45.231" lon="4.58626">
        <ele>532</ele>
        <time>2020-06-08T06:48:42Z</time>
      </trkpt>
      <trkpt lat="45.23084" lon="4.58644">
        <ele>529</ele>
        <time>2020-06-08T06:48:47Z</time>
      </trkpt>
      <trkpt lat="45.23078" lon="4.58666">
        <ele>529</ele>
        <time>2020-06-08T06:48:51Z</time>
      </trkpt>
      <trkpt lat="45.23066" lon="4.58682">
        <ele>527</ele>
        <time>2020-06-08T06:48:55Z</time>
      </trkpt>
      <trkpt lat="45.23063" lon="4.58697">
        <ele>526</ele>
        <time>2020-06-08T06:48:58Z</time>
      </trkpt>
      <trkpt lat="45.23043" lon="4.58701">
        <ele>522</ele>
        <time>2020-06-08T06:49:02Z</time>
      </trkpt>
      <trkpt lat="45.23038" lon="4.58711">
        <ele>521</ele>
        <time>2020-06-08T06:49:04Z</time>
      </trkpt>
      <trkpt lat="45.23014" lon="4.58712">
        <ele>516</ele>
        <time>2020-06-08T06:49:10Z</time>
      </trkpt>
      <trkpt lat="45.23001" lon="4.58692">
        <ele>513</ele>
        <time>2020-06-08T06:49:14Z</time>
      </trkpt>
      <trkpt lat="45.22997" lon="4.5867">
        <ele>512</ele>
        <time>2020-06-08T06:49:18Z</time>
      </trkpt>
      <trkpt lat="45.22993" lon="4.58604">
        <ele>509</ele>
        <time>2020-06-08T06:49:29Z</time>
      </trkpt>
      <trkpt lat="45.22986" lon="4.58577">
        <ele>508</ele>
        <time>2020-06-08T06:49:34Z</time>
      </trkpt>
      <trkpt lat="45.22977" lon="4.58568">
        <ele>508</ele>
        <time>2020-06-08T06:49:36Z</time>
      </trkpt>
      <trkpt lat="45.22969" lon="4.58573">
        <ele>506</ele>
        <time>2020-06-08T06:49:38Z</time>
      </trkpt>
      <trkpt lat="45.22962" lon="4.58592">
        <ele>504</ele>
        <time>2020-06-08T06:49:42Z</time>
      </trkpt>
      <trkpt lat="45.22952" lon="4.58643">
        <ele>501</ele>
        <time>2020-06-08T06:49:51Z</time>
      </trkpt>
      <trkpt lat="45.22941" lon="4.58667">
        <ele>497</ele>
        <time>2020-06-08T06:49:55Z</time>
      </trkpt>
      <trkpt lat="45.22919" lon="4.587">
        <ele>492</ele>
        <time>2020-06-08T06:50:03Z</time>
      </trkpt>
      <trkpt lat="45.2289" lon="4.58728">
        <ele>488</ele>
        <time>2020-06-08T06:50:11Z</time>
      </trkpt>
      <trkpt lat="45.22867" lon="4.58738">
        <ele>485</ele>
        <time>2020-06-08T06:50:17Z</time>
      </trkpt>
      <trkpt lat="45.22849" lon="4.58743">
        <ele>482</ele>
        <time>2020-06-08T06:50:21Z</time>
      </trkpt>
      <trkpt lat="45.22829" lon="4.58742">
        <ele>478</ele>
        <time>2020-06-08T06:50:26Z</time>
      </trkpt>
      <trkpt lat="45.22812" lon="4.58723">
        <ele>475</ele>
        <time>2020-06-08T06:50:31Z</time>
      </trkpt>
      <trkpt lat="45.22798" lon="4.58716">
        <ele>473</ele>
        <time>2020-06-08T06:50:34Z</time>
      </trkpt>
      <trkpt lat="45.2277" lon="4.58712">
        <ele>469</ele>
        <time>2020-06-08T06:50:41Z</time>
      </trkpt>
      <trkpt lat="45.2271" lon="4.5868">
        <ele>460</ele>
        <time>2020-06-08T06:50:56Z</time>
      </trkpt>
      <trkpt lat="45.22675" lon="4.58669">
        <ele>455</ele>
        <time>2020-06-08T06:51:04Z</time>
      </trkpt>
      <trkpt lat="45.22691" lon="4.58618">
        <ele>455</ele>
        <time>2020-06-08T06:51:13Z</time>
      </trkpt>
      <trkpt lat="45.22714" lon="4.58517">
        <ele>463</ele>
        <time>2020-06-08T06:51:31Z</time>
      </trkpt>
      <trkpt lat="45.22716" lon="4.58467">
        <ele>468</ele>
        <time>2020-06-08T06:51:39Z</time>
      </trkpt>
      <trkpt lat="45.22707" lon="4.58415">
        <ele>469</ele>
        <time>2020-06-08T06:51:48Z</time>
      </trkpt>
      <trkpt lat="45.22708" lon="4.58365">
        <ele>472</ele>
        <time>2020-06-08T06:51:56Z</time>
      </trkpt>
      <trkpt lat="45.22711" lon="4.58335">
        <ele>474</ele>
        <time>2020-06-08T06:52:01Z</time>
      </trkpt>
      <trkpt lat="45.22723" lon="4.58299">
        <ele>479</ele>
        <time>2020-06-08T06:52:07Z</time>
      </trkpt>
      <trkpt lat="45.22743" lon="4.58269">
        <ele>486</ele>
        <time>2020-06-08T06:52:14Z</time>
      </trkpt>
      <trkpt lat="45.22765" lon="4.58222">
        <ele>492</ele>
        <time>2020-06-08T06:52:23Z</time>
      </trkpt>
      <trkpt lat="45.22799" lon="4.58177">
        <ele>498</ele>
        <time>2020-06-08T06:52:34Z</time>
      </trkpt>
      <trkpt lat="45.22834" lon="4.58107">
        <ele>502</ele>
        <time>2020-06-08T06:52:48Z</time>
      </trkpt>
      <trkpt lat="45.22852" lon="4.58089">
        <ele>504</ele>
        <time>2020-06-08T06:52:54Z</time>
      </trkpt>
      <trkpt lat="45.22906" lon="4.58012">
        <ele>505</ele>
        <time>2020-06-08T06:53:11Z</time>
      </trkpt>
      <trkpt lat="45.22924" lon="4.57972">
        <ele>503</ele>
        <time>2020-06-08T06:53:19Z</time>
      </trkpt>
      <trkpt lat="45.22942" lon="4.57941">
        <ele>501</ele>
        <time>2020-06-08T06:53:26Z</time>
      </trkpt>
      <trkpt lat="45.22962" lon="4.57925">
        <ele>504</ele>
        <time>2020-06-08T06:53:31Z</time>
      </trkpt>
      <trkpt lat="45.22984" lon="4.57885">
        <ele>502</ele>
        <time>2020-06-08T06:53:40Z</time>
      </trkpt>
      <trkpt lat="45.23003" lon="4.57842">
        <ele>497</ele>
        <time>2020-06-08T06:53:48Z</time>
      </trkpt>
      <trkpt lat="45.23044" lon="4.57805">
        <ele>501</ele>
        <time>2020-06-08T06:53:59Z</time>
      </trkpt>
      <trkpt lat="45.23065" lon="4.5779">
        <ele>503</ele>
        <time>2020-06-08T06:54:05Z</time>
      </trkpt>
      <trkpt lat="45.23084" lon="4.57769">
        <ele>502</ele>
        <time>2020-06-08T06:54:10Z</time>
      </trkpt>
      <trkpt lat="45.23122" lon="4.57696">
        <ele>506</ele>
        <time>2020-06-08T06:54:25Z</time>
      </trkpt>
      <trkpt lat="45.23131" lon="4.57691">
        <ele>506</ele>
        <time>2020-06-08T06:54:28Z</time>
      </trkpt>
      <trkpt lat="45.23182" lon="4.57636">
        <ele>511</ele>
        <time>2020-06-08T06:54:43Z</time>
      </trkpt>
      <trkpt lat="45.23195" lon="4.57628">
        <ele>514</ele>
        <time>2020-06-08T06:54:46Z</time>
      </trkpt>
      <trkpt lat="45.23205" lon="4.57617">
        <ele>516</ele>
        <time>2020-06-08T06:54:49Z</time>
      </trkpt>
      <trkpt lat="45.23258" lon="4.57532">
        <ele>521</ele>
        <time>2020-06-08T06:55:07Z</time>
      </trkpt>
      <trkpt lat="45.23268" lon="4.57505">
        <ele>522</ele>
        <time>2020-06-08T06:55:12Z</time>
      </trkpt>
      <trkpt lat="45.23286" lon="4.57496">
        <ele>526</ele>
        <time>2020-06-08T06:55:17Z</time>
      </trkpt>
      <trkpt lat="45.23289" lon="4.57485">
        <ele>527</ele>
        <time>2020-06-08T06:55:19Z</time>
      </trkpt>
      <trkpt lat="45.23282" lon="4.57463">
        <ele>526</ele>
        <time>2020-06-08T06:55:23Z</time>
      </trkpt>
      <trkpt lat="45.23277" lon="4.57417">
        <ele>526</ele>
        <time>2020-06-08T06:55:30Z</time>
      </trkpt>
      <trkpt lat="45.23287" lon="4.57325">
        <ele>532</ele>
        <time>2020-06-08T06:55:46Z</time>
      </trkpt>
      <trkpt lat="45.23305" lon="4.57274">
        <ele>536</ele>
        <time>2020-06-08T06:55:55Z</time>
      </trkpt>
      <trkpt lat="45.23342" lon="4.57198">
        <ele>537</ele>
        <time>2020-06-08T06:56:10Z</time>
      </trkpt>
      <trkpt lat="45.23376" lon="4.57137">
        <ele>545</ele>
        <time>2020-06-08T06:56:23Z</time>
      </trkpt>
      <trkpt lat="45.23386" lon="4.57109">
        <ele>546</ele>
        <time>2020-06-08T06:56:28Z</time>
      </trkpt>
      <trkpt lat="45.23394" lon="4.57078">
        <ele>545</ele>
        <time>2020-06-08T06:56:34Z</time>
      </trkpt>
      <trkpt lat="45.23404" lon="4.5698">
        <ele>544</ele>
        <time>2020-06-08T06:56:50Z</time>
      </trkpt>
      <trkpt lat="45.2341" lon="4.56949">
        <ele>543</ele>
        <time>2020-06-08T06:56:55Z</time>
      </trkpt>
      <trkpt lat="45.23415" lon="4.56939">
        <ele>543</ele>
        <time>2020-06-08T06:56:57Z</time>
      </trkpt>
      <trkpt lat="45.23428" lon="4.56923">
        <ele>546</ele>
        <time>2020-06-08T06:57:01Z</time>
      </trkpt>
      <trkpt lat="45.23454" lon="4.56902">
        <ele>551</ele>
        <time>2020-06-08T06:57:08Z</time>
      </trkpt>
      <trkpt lat="45.23479" lon="4.5689">
        <ele>554</ele>
        <time>2020-06-08T06:57:15Z</time>
      </trkpt>
      <trkpt lat="45.23513" lon="4.56858">
        <ele>557</ele>
        <time>2020-06-08T06:57:24Z</time>
      </trkpt>
      <trkpt lat="45.23529" lon="4.56823">
        <ele>558</ele>
        <time>2020-06-08T06:57:31Z</time>
      </trkpt>
      <trkpt lat="45.23532" lon="4.56792">
        <ele>559</ele>
        <time>2020-06-08T06:57:36Z</time>
      </trkpt>
      <trkpt lat="45.23531" lon="4.56759">
        <ele>559</ele>
        <time>2020-06-08T06:57:41Z</time>
      </trkpt>
      <trkpt lat="45.23523" lon="4.56712">
        <ele>559</ele>
        <time>2020-06-08T06:57:49Z</time>
      </trkpt>
      <trkpt lat="45.23524" lon="4.56686">
        <ele>561</ele>
        <time>2020-06-08T06:57:54Z</time>
      </trkpt>
      <trkpt lat="45.23541" lon="4.56589">
        <ele>567</ele>
        <time>2020-06-08T06:58:10Z</time>
      </trkpt>
      <trkpt lat="45.23551" lon="4.5655">
        <ele>570</ele>
        <time>2020-06-08T06:58:17Z</time>
      </trkpt>
      <trkpt lat="45.23546" lon="4.56536">
        <ele>571</ele>
        <time>2020-06-08T06:58:20Z</time>
      </trkpt>
      <trkpt lat="45.23545" lon="4.56507">
        <ele>573</ele>
        <time>2020-06-08T06:58:24Z</time>
      </trkpt>
      <trkpt lat="45.23536" lon="4.56495">
        <ele>573</ele>
        <time>2020-06-08T06:58:27Z</time>
      </trkpt>
      <trkpt lat="45.23529" lon="4.56494">
        <ele>573</ele>
        <time>2020-06-08T06:58:29Z</time>
      </trkpt>
      <trkpt lat="45.23519" lon="4.56498">
        <ele>573</ele>
        <time>2020-06-08T06:58:31Z</time>
      </trkpt>
      <trkpt lat="45.23478" lon="4.56524">
        <ele>574</ele>
        <time>2020-06-08T06:58:42Z</time>
      </trkpt>
      <trkpt lat="45.23457" lon="4.56531">
        <ele>577</ele>
        <time>2020-06-08T06:58:47Z</time>
      </trkpt>
      <trkpt lat="45.23431" lon="4.56532">
        <ele>581</ele>
        <time>2020-06-08T06:58:53Z</time>
      </trkpt>
      <trkpt lat="45.23424" lon="4.56527">
        <ele>582</ele>
        <time>2020-06-08T06:58:55Z</time>
      </trkpt>
      <trkpt lat="45.23423" lon="4.56518">
        <ele>584</ele>
        <time>2020-06-08T06:58:56Z</time>
      </trkpt>
      <trkpt lat="45.23427" lon="4.56507">
        <ele>584</ele>
        <time>2020-06-08T06:58:58Z</time>
      </trkpt>
      <trkpt lat="45.23429" lon="4.56488">
        <ele>586</ele>
        <time>2020-06-08T06:59:01Z</time>
      </trkpt>
      <trkpt lat="45.23418" lon="4.56426">
        <ele>592</ele>
        <time>2020-06-08T06:59:12Z</time>
      </trkpt>
      <trkpt lat="45.23396" lon="4.56351">
        <ele>596</ele>
        <time>2020-06-08T06:59:25Z</time>
      </trkpt>
      <trkpt lat="45.23359" lon="4.56287">
        <ele>600</ele>
        <time>2020-06-08T06:59:39Z</time>
      </trkpt>
      <trkpt lat="45.23357" lon="4.56275">
        <ele>600</ele>
        <time>2020-06-08T06:59:41Z</time>
      </trkpt>
      <trkpt lat="45.23361" lon="4.56184">
        <ele>603</ele>
        <time>2020-06-08T06:59:56Z</time>
      </trkpt>
      <trkpt lat="45.23228" lon="4.56174">
        <ele>603</ele>
        <time>2020-06-08T07:00:27Z</time>
      </trkpt>
      <trkpt lat="45.23184" lon="4.561">
        <ele>609</ele>
        <time>2020-06-08T07:00:43Z</time>
      </trkpt>
      <trkpt lat="45.23145" lon="4.56044">
        <ele>610</ele>
        <time>2020-06-08T07:00:56Z</time>
      </trkpt>
      <trkpt lat="45.23086" lon="4.55974">
        <ele>606</ele>
        <time>2020-06-08T07:01:14Z</time>
      </trkpt>
      <trkpt lat="45.23071" lon="4.55948">
        <ele>607</ele>
        <time>2020-06-08T07:01:19Z</time>
      </trkpt>
      <trkpt lat="45.23006" lon="4.55875">
        <ele>605</ele>
        <time>2020-06-08T07:01:39Z</time>
      </trkpt>
      <trkpt lat="45.2299" lon="4.5585">
        <ele>606</ele>
        <time>2020-06-08T07:01:44Z</time>
      </trkpt>
      <trkpt lat="45.22972" lon="4.55829">
        <ele>607</ele>
        <time>2020-06-08T07:01:50Z</time>
      </trkpt>
      <trkpt lat="45.22927" lon="4.55812">
        <ele>607</ele>
        <time>2020-06-08T07:02:01Z</time>
      </trkpt>
      <trkpt lat="45.22904" lon="4.5582">
        <ele>605</ele>
        <time>2020-06-08T07:02:06Z</time>
      </trkpt>
      <trkpt lat="45.2289" lon="4.55831">
        <ele>604</ele>
        <time>2020-06-08T07:02:10Z</time>
      </trkpt>
      <trkpt lat="45.22861" lon="4.55847">
        <ele>603</ele>
        <time>2020-06-08T07:02:17Z</time>
      </trkpt>
      <trkpt lat="45.22835" lon="4.55856">
        <ele>603</ele>
        <time>2020-06-08T07:02:23Z</time>
      </trkpt>
      <trkpt lat="45.22792" lon="4.55856">
        <ele>602</ele>
        <time>2020-06-08T07:02:33Z</time>
      </trkpt>
      <trkpt lat="45.22779" lon="4.55848">
        <ele>603</ele>
        <time>2020-06-08T07:02:37Z</time>
      </trkpt>
      <trkpt lat="45.22768" lon="4.55839">
        <ele>603</ele>
        <time>2020-06-08T07:02:40Z</time>
      </trkpt>
      <trkpt lat="45.22765" lon="4.5579">
        <ele>607</ele>
        <time>2020-06-08T07:02:48Z</time>
      </trkpt>
      <trkpt lat="45.22759" lon="4.55759">
        <ele>609</ele>
        <time>2020-06-08T07:02:53Z</time>
      </trkpt>
      <trkpt lat="45.22747" lon="4.55725">
        <ele>609</ele>
        <time>2020-06-08T07:02:59Z</time>
      </trkpt>
      <trkpt lat="45.22736" lon="4.55707">
        <ele>609</ele>
        <time>2020-06-08T07:03:03Z</time>
      </trkpt>
      <trkpt lat="45.22724" lon="4.55693">
        <ele>608</ele>
        <time>2020-06-08T07:03:07Z</time>
      </trkpt>
      <trkpt lat="45.22713" lon="4.55666">
        <ele>609</ele>
        <time>2020-06-08T07:03:12Z</time>
      </trkpt>
      <trkpt lat="45.22703" lon="4.55663">
        <ele>608</ele>
        <time>2020-06-08T07:03:14Z</time>
      </trkpt>
      <trkpt lat="45.22691" lon="4.55666">
        <ele>607</ele>
        <time>2020-06-08T07:03:17Z</time>
      </trkpt>
      <trkpt lat="45.22674" lon="4.55658">
        <ele>607</ele>
        <time>2020-06-08T07:03:21Z</time>
      </trkpt>
      <trkpt lat="45.2266" lon="4.55646">
        <ele>607</ele>
        <time>2020-06-08T07:03:25Z</time>
      </trkpt>
      <trkpt lat="45.22636" lon="4.55605">
        <ele>607</ele>
        <time>2020-06-08T07:03:34Z</time>
      </trkpt>
      <trkpt lat="45.22626" lon="4.55593">
        <ele>607</ele>
        <time>2020-06-08T07:03:37Z</time>
      </trkpt>
      <trkpt lat="45.22617" lon="4.55589">
        <ele>606</ele>
        <time>2020-06-08T07:03:39Z</time>
      </trkpt>
      <trkpt lat="45.22581" lon="4.55609">
        <ele>602</ele>
        <time>2020-06-08T07:03:48Z</time>
      </trkpt>
      <trkpt lat="45.22566" lon="4.55634">
        <ele>599</ele>
        <time>2020-06-08T07:03:54Z</time>
      </trkpt>
      <trkpt lat="45.22557" lon="4.55644">
        <ele>598</ele>
        <time>2020-06-08T07:03:56Z</time>
      </trkpt>
      <trkpt lat="45.22526" lon="4.55653">
        <ele>595</ele>
        <time>2020-06-08T07:04:04Z</time>
      </trkpt>
      <trkpt lat="45.22511" lon="4.55663">
        <ele>593</ele>
        <time>2020-06-08T07:04:08Z</time>
      </trkpt>
      <trkpt lat="45.22498" lon="4.55667">
        <ele>592</ele>
        <time>2020-06-08T07:04:11Z</time>
      </trkpt>
      <trkpt lat="45.22484" lon="4.55663">
        <ele>591</ele>
        <time>2020-06-08T07:04:14Z</time>
      </trkpt>
      <trkpt lat="45.22477" lon="4.55613">
        <ele>594</ele>
        <time>2020-06-08T07:04:22Z</time>
      </trkpt>
      <trkpt lat="45.22475" lon="4.55556">
        <ele>598</ele>
        <time>2020-06-08T07:04:32Z</time>
      </trkpt>
      <trkpt lat="45.22475" lon="4.55479">
        <ele>603</ele>
        <time>2020-06-08T07:04:45Z</time>
      </trkpt>
      <trkpt lat="45.22485" lon="4.55399">
        <ele>610</ele>
        <time>2020-06-08T07:04:58Z</time>
      </trkpt>
      <trkpt lat="45.22483" lon="4.55361">
        <ele>613</ele>
        <time>2020-06-08T07:05:04Z</time>
      </trkpt>
      <trkpt lat="45.22486" lon="4.55332">
        <ele>616</ele>
        <time>2020-06-08T07:05:09Z</time>
      </trkpt>
      <trkpt lat="45.22484" lon="4.55306">
        <ele>619</ele>
        <time>2020-06-08T07:05:13Z</time>
      </trkpt>
      <trkpt lat="45.22469" lon="4.55245">
        <ele>623</ele>
        <time>2020-06-08T07:05:24Z</time>
      </trkpt>
      <trkpt lat="45.22457" lon="4.55175">
        <ele>632</ele>
        <time>2020-06-08T07:05:36Z</time>
      </trkpt>
      <trkpt lat="45.22448" lon="4.55083">
        <ele>644</ele>
        <time>2020-06-08T07:05:51Z</time>
      </trkpt>
      <trkpt lat="45.22436" lon="4.55064">
        <ele>645</ele>
        <time>2020-06-08T07:05:55Z</time>
      </trkpt>
      <trkpt lat="45.22427" lon="4.55008">
        <ele>650</ele>
        <time>2020-06-08T07:06:05Z</time>
      </trkpt>
      <trkpt lat="45.2243" lon="4.54974">
        <ele>653</ele>
        <time>2020-06-08T07:06:10Z</time>
      </trkpt>
      <trkpt lat="45.2244" lon="4.54935">
        <ele>658</ele>
        <time>2020-06-08T07:06:17Z</time>
      </trkpt>
      <trkpt lat="45.22444" lon="4.54894">
        <ele>663</ele>
        <time>2020-06-08T07:06:24Z</time>
      </trkpt>
      <trkpt lat="45.22439" lon="4.54852">
        <ele>666</ele>
        <time>2020-06-08T07:06:31Z</time>
      </trkpt>
      <trkpt lat="45.22442" lon="4.54819">
        <ele>668</ele>
        <time>2020-06-08T07:06:36Z</time>
      </trkpt>
      <trkpt lat="45.22423" lon="4.54794">
        <ele>666</ele>
        <time>2020-06-08T07:06:42Z</time>
      </trkpt>
      <trkpt lat="45.22412" lon="4.54762">
        <ele>664</ele>
        <time>2020-06-08T07:06:48Z</time>
      </trkpt>
      <trkpt lat="45.22414" lon="4.54722">
        <ele>662</ele>
        <time>2020-06-08T07:06:55Z</time>
      </trkpt>
      <trkpt lat="45.22402" lon="4.54696">
        <ele>657</ele>
        <time>2020-06-08T07:07:00Z</time>
      </trkpt>
      <trkpt lat="45.22408" lon="4.54636">
        <ele>651</ele>
        <time>2020-06-08T07:07:10Z</time>
      </trkpt>
      <trkpt lat="45.22443" lon="4.54501">
        <ele>642</ele>
        <time>2020-06-08T07:07:34Z</time>
      </trkpt>
      <trkpt lat="45.22443" lon="4.54446">
        <ele>638</ele>
        <time>2020-06-08T07:07:43Z</time>
      </trkpt>
      <trkpt lat="45.22449" lon="4.54368">
        <ele>637</ele>
        <time>2020-06-08T07:07:56Z</time>
      </trkpt>
      <trkpt lat="45.2244" lon="4.54352">
        <ele>635</ele>
        <time>2020-06-08T07:07:59Z</time>
      </trkpt>
      <trkpt lat="45.22435" lon="4.5437">
        <ele>634</ele>
        <time>2020-06-08T07:08:02Z</time>
      </trkpt>
      <trkpt lat="45.22413" lon="4.54387">
        <ele>630</ele>
        <time>2020-06-08T07:08:08Z</time>
      </trkpt>
      <trkpt lat="45.22396" lon="4.54396">
        <ele>627</ele>
        <time>2020-06-08T07:08:12Z</time>
      </trkpt>
      <trkpt lat="45.22374" lon="4.54448">
        <ele>626</ele>
        <time>2020-06-08T07:08:22Z</time>
      </trkpt>
      <trkpt lat="45.22336" lon="4.54493">
        <ele>622</ele>
        <time>2020-06-08T07:08:34Z</time>
      </trkpt>
      <trkpt lat="45.22322" lon="4.54469">
        <ele>620</ele>
        <time>2020-06-08T07:08:39Z</time>
      </trkpt>
      <trkpt lat="45.22308" lon="4.54436">
        <ele>617</ele>
        <time>2020-06-08T07:08:45Z</time>
      </trkpt>
      <trkpt lat="45.22303" lon="4.54346">
        <ele>615</ele>
        <time>2020-06-08T07:09:00Z</time>
      </trkpt>
      <trkpt lat="45.22292" lon="4.54305">
        <ele>616</ele>
        <time>2020-06-08T07:09:07Z</time>
      </trkpt>
      <trkpt lat="45.22287" lon="4.54269">
        <ele>617</ele>
        <time>2020-06-08T07:09:13Z</time>
      </trkpt>
      <trkpt lat="45.22276" lon="4.54248">
        <ele>618</ele>
        <time>2020-06-08T07:09:18Z</time>
      </trkpt>
      <trkpt lat="45.22256" lon="4.5426">
        <ele>618</ele>
        <time>2020-06-08T07:09:23Z</time>
      </trkpt>
      <trkpt lat="45.22225" lon="4.54285">
        <ele>621</ele>
        <time>2020-06-08T07:09:31Z</time>
      </trkpt>
      <trkpt lat="45.22181" lon="4.54296">
        <ele>625</ele>
        <time>2020-06-08T07:09:41Z</time>
      </trkpt>
      <trkpt lat="45.22119" lon="4.54271">
        <ele>633</ele>
        <time>2020-06-08T07:09:57Z</time>
      </trkpt>
      <trkpt lat="45.22078" lon="4.54271">
        <ele>632</ele>
        <time>2020-06-08T07:10:06Z</time>
      </trkpt>
      <trkpt lat="45.2206" lon="4.54251">
        <ele>636</ele>
        <time>2020-06-08T07:10:11Z</time>
      </trkpt>
      <trkpt lat="45.22028" lon="4.54206">
        <ele>645</ele>
        <time>2020-06-08T07:10:22Z</time>
      </trkpt>
      <trkpt lat="45.21987" lon="4.54157">
        <ele>651</ele>
        <time>2020-06-08T07:10:34Z</time>
      </trkpt>
      <trkpt lat="45.21963" lon="4.54116">
        <ele>657</ele>
        <time>2020-06-08T07:10:43Z</time>
      </trkpt>
      <trkpt lat="45.21923" lon="4.54065">
        <ele>660</ele>
        <time>2020-06-08T07:10:56Z</time>
      </trkpt>
      <trkpt lat="45.21879" lon="4.53993">
        <ele>670</ele>
        <time>2020-06-08T07:11:11Z</time>
      </trkpt>
      <trkpt lat="45.21854" lon="4.53959">
        <ele>672</ele>
        <time>2020-06-08T07:11:20Z</time>
      </trkpt>
      <trkpt lat="45.21837" lon="4.53947">
        <ele>670</ele>
        <time>2020-06-08T07:11:24Z</time>
      </trkpt>
      <trkpt lat="45.21791" lon="4.53814">
        <ele>682</ele>
        <time>2020-06-08T07:11:48Z</time>
      </trkpt>
      <trkpt lat="45.21781" lon="4.5376">
        <ele>688</ele>
        <time>2020-06-08T07:11:58Z</time>
      </trkpt>
      <trkpt lat="45.21769" lon="4.53648">
        <ele>700</ele>
        <time>2020-06-08T07:12:16Z</time>
      </trkpt>
      <trkpt lat="45.2175" lon="4.53584">
        <ele>705</ele>
        <time>2020-06-08T07:12:28Z</time>
      </trkpt>
      <trkpt lat="45.21729" lon="4.53526">
        <ele>706</ele>
        <time>2020-06-08T07:12:38Z</time>
      </trkpt>
      <trkpt lat="45.21654" lon="4.53388">
        <ele>706</ele>
        <time>2020-06-08T07:13:07Z</time>
      </trkpt>
      <trkpt lat="45.21637" lon="4.53329">
        <ele>713</ele>
        <time>2020-06-08T07:13:18Z</time>
      </trkpt>
      <trkpt lat="45.21622" lon="4.53264">
        <ele>720</ele>
        <time>2020-06-08T07:13:29Z</time>
      </trkpt>
      <trkpt lat="45.21561" lon="4.53208">
        <ele>721</ele>
        <time>2020-06-08T07:13:46Z</time>
      </trkpt>
      <trkpt lat="45.21524" lon="4.53162">
        <ele>725</ele>
        <time>2020-06-08T07:13:57Z</time>
      </trkpt>
      <trkpt lat="45.21519" lon="4.531">
        <ele>733</ele>
        <time>2020-06-08T07:14:07Z</time>
      </trkpt>
      <trkpt lat="45.21523" lon="4.53027">
        <ele>738</ele>
        <time>2020-06-08T07:14:20Z</time>
      </trkpt>
      <trkpt lat="45.21531" lon="4.5295">
        <ele>746</ele>
        <time>2020-06-08T07:14:32Z</time>
      </trkpt>
      <trkpt lat="45.21522" lon="4.5291">
        <ele>750</ele>
        <time>2020-06-08T07:14:39Z</time>
      </trkpt>
      <trkpt lat="45.21482" lon="4.52923">
        <ele>745</ele>
        <time>2020-06-08T07:14:49Z</time>
      </trkpt>
      <trkpt lat="45.21435" lon="4.52967">
        <ele>737</ele>
        <time>2020-06-08T07:15:02Z</time>
      </trkpt>
      <trkpt lat="45.21402" lon="4.52968">
        <ele>734</ele>
        <time>2020-06-08T07:15:10Z</time>
      </trkpt>
      <trkpt lat="45.21369" lon="4.52939">
        <ele>736</ele>
        <time>2020-06-08T07:15:19Z</time>
      </trkpt>
      <trkpt lat="45.21317" lon="4.52873">
        <ele>741</ele>
        <time>2020-06-08T07:15:35Z</time>
      </trkpt>
      <trkpt lat="45.21288" lon="4.52825">
        <ele>744</ele>
        <time>2020-06-08T07:15:45Z</time>
      </trkpt>
      <trkpt lat="45.21169" lon="4.52683">
        <ele>749</ele>
        <time>2020-06-08T07:16:22Z</time>
      </trkpt>
      <trkpt lat="45.21087" lon="4.5262">
        <ele>748</ele>
        <time>2020-06-08T07:16:44Z</time>
      </trkpt>
      <trkpt lat="45.21074" lon="4.52574">
        <ele>754</ele>
        <time>2020-06-08T07:16:52Z</time>
      </trkpt>
      <trkpt lat="45.2104" lon="4.52495">
        <ele>763</ele>
        <time>2020-06-08T07:17:07Z</time>
      </trkpt>
      <trkpt lat="45.21016" lon="4.52479">
        <ele>764</ele>
        <time>2020-06-08T07:17:13Z</time>
      </trkpt>
      <trkpt lat="45.21004" lon="4.52499">
        <ele>761</ele>
        <time>2020-06-08T07:17:17Z</time>
      </trkpt>
      <trkpt lat="45.21016" lon="4.52609">
        <ele>759</ele>
        <time>2020-06-08T07:17:36Z</time>
      </trkpt>
      <trkpt lat="45.21014" lon="4.52761">
        <ele>753</ele>
        <time>2020-06-08T07:18:01Z</time>
      </trkpt>
      <trkpt lat="45.21003" lon="4.52793">
        <ele>753</ele>
        <time>2020-06-08T07:18:07Z</time>
      </trkpt>
      <trkpt lat="45.20997" lon="4.52839">
        <ele>752</ele>
        <time>2020-06-08T07:18:14Z</time>
      </trkpt>
      <trkpt lat="45.20991" lon="4.52965">
        <ele>761</ele>
        <time>2020-06-08T07:18:35Z</time>
      </trkpt>
      <trkpt lat="45.21003" lon="4.53032">
        <ele>763</ele>
        <time>2020-06-08T07:18:46Z</time>
      </trkpt>
      <trkpt lat="45.21002" lon="4.53078">
        <ele>766</ele>
        <time>2020-06-08T07:18:54Z</time>
      </trkpt>
      <trkpt lat="45.2106" lon="4.53409">
        <ele>769</ele>
        <time>2020-06-08T07:19:50Z</time>
      </trkpt>
      <trkpt lat="45.21095" lon="4.53571">
        <ele>779</ele>
        <time>2020-06-08T07:20:18Z</time>
      </trkpt>
      <trkpt lat="45.21107" lon="4.53673">
        <ele>786</ele>
        <time>2020-06-08T07:20:35Z</time>
      </trkpt>
      <trkpt lat="45.21108" lon="4.53712">
        <ele>786</ele>
        <time>2020-06-08T07:20:41Z</time>
      </trkpt>
      <trkpt lat="45.21079" lon="4.53892">
        <ele>792</ele>
        <time>2020-06-08T07:21:12Z</time>
      </trkpt>
      <trkpt lat="45.21077" lon="4.53995">
        <ele>795</ele>
        <time>2020-06-08T07:21:29Z</time>
      </trkpt>
      <trkpt lat="45.21091" lon="4.54083">
        <ele>800</ele>
        <time>2020-06-08T07:21:44Z</time>
      </trkpt>
      <trkpt lat="45.21096" lon="4.54157">
        <ele>800</ele>
        <time>2020-06-08T07:21:56Z</time>
      </trkpt>
      <trkpt lat="45.21114" lon="4.5433">
        <ele>803</ele>
        <time>2020-06-08T07:22:25Z</time>
      </trkpt>
      <trkpt lat="45.21108" lon="4.54362">
        <ele>806</ele>
        <time>2020-06-08T07:22:30Z</time>
      </trkpt>
      <trkpt lat="45.21065" lon="4.54312">
        <ele>813</ele>
        <time>2020-06-08T07:22:43Z</time>
      </trkpt>
      <trkpt lat="45.21031" lon="4.54258">
        <ele>816</ele>
        <time>2020-06-08T07:22:55Z</time>
      </trkpt>
      <trkpt lat="45.21008" lon="4.54207">
        <ele>819</ele>
        <time>2020-06-08T07:23:05Z</time>
      </trkpt>
      <trkpt lat="45.20986" lon="4.54169">
        <ele>824</ele>
        <time>2020-06-08T07:23:13Z</time>
      </trkpt>
      <trkpt lat="45.20976" lon="4.54148">
        <ele>825</ele>
        <time>2020-06-08T07:23:17Z</time>
      </trkpt>
      <trkpt lat="45.20956" lon="4.54087">
        <ele>826</ele>
        <time>2020-06-08T07:23:28Z</time>
      </trkpt>
      <trkpt lat="45.2093" lon="4.54026">
        <ele>832</ele>
        <time>2020-06-08T07:23:40Z</time>
      </trkpt>
      <trkpt lat="45.20891" lon="4.53896">
        <ele>846</ele>
        <time>2020-06-08T07:24:03Z</time>
      </trkpt>
      <trkpt lat="45.20851" lon="4.53806">
        <ele>858</ele>
        <time>2020-06-08T07:24:21Z</time>
      </trkpt>
      <trkpt lat="45.20776" lon="4.53676">
        <ele>867</ele>
        <time>2020-06-08T07:24:48Z</time>
      </trkpt>
      <trkpt lat="45.20711" lon="4.53628">
        <ele>869</ele>
        <time>2020-06-08T07:25:06Z</time>
      </trkpt>
      <trkpt lat="45.20677" lon="4.5362">
        <ele>868</ele>
        <time>2020-06-08T07:25:14Z</time>
      </trkpt>
      <trkpt lat="45.20662" lon="4.53608">
        <ele>869</ele>
        <time>2020-06-08T07:25:18Z</time>
      </trkpt>
      <trkpt lat="45.20628" lon="4.53563">
        <ele>873</ele>
        <time>2020-06-08T07:25:28Z</time>
      </trkpt>
      <trkpt lat="45.20618" lon="4.53556">
        <ele>873</ele>
        <time>2020-06-08T07:25:31Z</time>
      </trkpt>
      <trkpt lat="45.20601" lon="4.53547">
        <ele>874</ele>
        <time>2020-06-08T07:25:35Z</time>
      </trkpt>
      <trkpt lat="45.20556" lon="4.53534">
        <ele>873</ele>
        <time>2020-06-08T07:25:46Z</time>
      </trkpt>
      <trkpt lat="45.20508" lon="4.53527">
        <ele>868</ele>
        <time>2020-06-08T07:25:57Z</time>
      </trkpt>
      <trkpt lat="45.2046" lon="4.53526">
        <ele>866</ele>
        <time>2020-06-08T07:26:08Z</time>
      </trkpt>
      <trkpt lat="45.20433" lon="4.53534">
        <ele>862</ele>
        <time>2020-06-08T07:26:15Z</time>
      </trkpt>
      <trkpt lat="45.20398" lon="4.5354">
        <ele>859</ele>
        <time>2020-06-08T07:26:23Z</time>
      </trkpt>
      <trkpt lat="45.20361" lon="4.53534">
        <ele>862</ele>
        <time>2020-06-08T07:26:32Z</time>
      </trkpt>
      <trkpt lat="45.20342" lon="4.53528">
        <ele>865</ele>
        <time>2020-06-08T07:26:36Z</time>
      </trkpt>
      <trkpt lat="45.20294" lon="4.53529">
        <ele>863</ele>
        <time>2020-06-08T07:26:48Z</time>
      </trkpt>
      <trkpt lat="45.20231" lon="4.53516">
        <ele>860</ele>
        <time>2020-06-08T07:27:02Z</time>
      </trkpt>
      <trkpt lat="45.20206" lon="4.53519">
        <ele>852</ele>
        <time>2020-06-08T07:27:08Z</time>
      </trkpt>
      <trkpt lat="45.20186" lon="4.5351">
        <ele>849</ele>
        <time>2020-06-08T07:27:13Z</time>
      </trkpt>
      <trkpt lat="45.20169" lon="4.53496">
        <ele>848</ele>
        <time>2020-06-08T07:27:18Z</time>
      </trkpt>
      <trkpt lat="45.20147" lon="4.5346">
        <ele>845</ele>
        <time>2020-06-08T07:27:26Z</time>
      </trkpt>
      <trkpt lat="45.20103" lon="4.53399">
        <ele>835</ele>
        <time>2020-06-08T07:27:40Z</time>
      </trkpt>
      <trkpt lat="45.20076" lon="4.53357">
        <ele>831</ele>
        <time>2020-06-08T07:27:49Z</time>
      </trkpt>
      <trkpt lat="45.20059" lon="4.53336">
        <ele>830</ele>
        <time>2020-06-08T07:27:55Z</time>
      </trkpt>
      <trkpt lat="45.2003" lon="4.53306">
        <ele>827</ele>
        <time>2020-06-08T07:28:03Z</time>
      </trkpt>
      <trkpt lat="45.2" lon="4.53289">
        <ele>822</ele>
        <time>2020-06-08T07:28:11Z</time>
      </trkpt>
      <trkpt lat="45.19989" lon="4.5328">
        <ele>822</ele>
        <time>2020-06-08T07:28:14Z</time>
      </trkpt>
      <trkpt lat="45.19962" lon="4.53244">
        <ele>823</ele>
        <time>2020-06-08T07:28:22Z</time>
      </trkpt>
      <trkpt lat="45.19918" lon="4.53218">
        <ele>817</ele>
        <time>2020-06-08T07:28:33Z</time>
      </trkpt>
      <trkpt lat="45.19897" lon="4.53216">
        <ele>817</ele>
        <time>2020-06-08T07:28:38Z</time>
      </trkpt>
      <trkpt lat="45.19883" lon="4.53189">
        <ele>819</ele>
        <time>2020-06-08T07:28:44Z</time>
      </trkpt>
      <trkpt lat="45.19864" lon="4.53173">
        <ele>818</ele>
        <time>2020-06-08T07:28:49Z</time>
      </trkpt>
      <trkpt lat="45.1986" lon="4.53152">
        <ele>817</ele>
        <time>2020-06-08T07:28:52Z</time>
      </trkpt>
      <trkpt lat="45.19835" lon="4.53134">
        <ele>813</ele>
        <time>2020-06-08T07:28:59Z</time>
      </trkpt>
      <trkpt lat="45.19829" lon="4.5312">
        <ele>811</ele>
        <time>2020-06-08T07:29:02Z</time>
      </trkpt>
      <trkpt lat="45.19828" lon="4.53039">
        <ele>807</ele>
        <time>2020-06-08T07:29:15Z</time>
      </trkpt>
      <trkpt lat="45.19838" lon="4.52977">
        <ele>808</ele>
        <time>2020-06-08T07:29:26Z</time>
      </trkpt>
      <trkpt lat="45.19838" lon="4.52956">
        <ele>808</ele>
        <time>2020-06-08T07:29:29Z</time>
      </trkpt>
      <trkpt lat="45.19835" lon="4.52932">
        <ele>807</ele>
        <time>2020-06-08T07:29:33Z</time>
      </trkpt>
      <trkpt lat="45.19816" lon="4.52864">
        <ele>802</ele>
        <time>2020-06-08T07:29:45Z</time>
      </trkpt>
      <trkpt lat="45.19811" lon="4.52806">
        <ele>807</ele>
        <time>2020-06-08T07:29:55Z</time>
      </trkpt>
      <trkpt lat="45.19803" lon="4.52784">
        <ele>808</ele>
        <time>2020-06-08T07:29:59Z</time>
      </trkpt>
      <trkpt lat="45.19768" lon="4.52719">
        <ele>810</ele>
        <time>2020-06-08T07:30:12Z</time>
      </trkpt>
      <trkpt lat="45.19757" lon="4.52705">
        <ele>811</ele>
        <time>2020-06-08T07:30:16Z</time>
      </trkpt>
      <trkpt lat="45.19726" lon="4.52683">
        <ele>809</ele>
        <time>2020-06-08T07:30:24Z</time>
      </trkpt>
      <trkpt lat="45.19707" lon="4.52662">
        <ele>810</ele>
        <time>2020-06-08T07:30:29Z</time>
      </trkpt>
      <trkpt lat="45.19689" lon="4.52616">
        <ele>811</ele>
        <time>2020-06-08T07:30:38Z</time>
      </trkpt>
      <trkpt lat="45.19687" lon="4.52572">
        <ele>814</ele>
        <time>2020-06-08T07:30:45Z</time>
      </trkpt>
      <trkpt lat="45.19693" lon="4.52538">
        <ele>815</ele>
        <time>2020-06-08T07:30:51Z</time>
      </trkpt>
      <trkpt lat="45.19718" lon="4.52487">
        <ele>821</ele>
        <time>2020-06-08T07:31:01Z</time>
      </trkpt>
      <trkpt lat="45.19747" lon="4.52393">
        <ele>819</ele>
        <time>2020-06-08T07:31:18Z</time>
      </trkpt>
      <trkpt lat="45.19769" lon="4.52346">
        <ele>821</ele>
        <time>2020-06-08T07:31:27Z</time>
      </trkpt>
      <trkpt lat="45.19758" lon="4.52327">
        <ele>815</ele>
        <time>2020-06-08T07:31:31Z</time>
      </trkpt>
      <trkpt lat="45.19736" lon="4.52312">
        <ele>809</ele>
        <time>2020-06-08T07:31:37Z</time>
      </trkpt>
      <trkpt lat="45.19714" lon="4.52281">
        <ele>804</ele>
        <time>2020-06-08T07:31:44Z</time>
      </trkpt>
      <trkpt lat="45.19685" lon="4.52206">
        <ele>798</ele>
        <time>2020-06-08T07:31:59Z</time>
      </trkpt>
      <trkpt lat="45.19658" lon="4.52111">
        <ele>788</ele>
        <time>2020-06-08T07:32:15Z</time>
      </trkpt>
      <trkpt lat="45.1965" lon="4.5204">
        <ele>782</ele>
        <time>2020-06-08T07:32:27Z</time>
      </trkpt>
      <trkpt lat="45.1965" lon="4.51967">
        <ele>779</ele>
        <time>2020-06-08T07:32:39Z</time>
      </trkpt>
      <trkpt lat="45.19655" lon="4.51893">
        <ele>779</ele>
        <time>2020-06-08T07:32:51Z</time>
      </trkpt>
      <trkpt lat="45.19652" lon="4.51812">
        <ele>772</ele>
        <time>2020-06-08T07:33:05Z</time>
      </trkpt>
      <trkpt lat="45.19654" lon="4.51742">
        <ele>768</ele>
        <time>2020-06-08T07:33:16Z</time>
      </trkpt>
      <trkpt lat="45.19664" lon="4.51674">
        <ele>765</ele>
        <time>2020-06-08T07:33:28Z</time>
      </trkpt>
      <trkpt lat="45.19668" lon="4.51619">
        <ele>762</ele>
        <time>2020-06-08T07:33:37Z</time>
      </trkpt>
      <trkpt lat="45.19677" lon="4.51581">
        <ele>763</ele>
        <time>2020-06-08T07:33:43Z</time>
      </trkpt>
      <trkpt lat="45.19684" lon="4.51525">
        <ele>759</ele>
        <time>2020-06-08T07:33:53Z</time>
      </trkpt>
      <trkpt lat="45.19686" lon="4.5147">
        <ele>752</ele>
        <time>2020-06-08T07:34:02Z</time>
      </trkpt>
      <trkpt lat="45.19704" lon="4.51402">
        <ele>754</ele>
        <time>2020-06-08T07:34:14Z</time>
      </trkpt>
      <trkpt lat="45.19707" lon="4.5136">
        <ele>749</ele>
        <time>2020-06-08T07:34:21Z</time>
      </trkpt>
      <trkpt lat="45.19733" lon="4.51247">
        <ele>747</ele>
        <time>2020-06-08T07:34:40Z</time>
      </trkpt>
      <trkpt lat="45.1974" lon="4.51207">
        <ele>744</ele>
        <time>2020-06-08T07:34:47Z</time>
      </trkpt>
      <trkpt lat="45.19751" lon="4.51167">
        <ele>742</ele>
        <time>2020-06-08T07:34:54Z</time>
      </trkpt>
      <trkpt lat="45.19757" lon="4.5116">
        <ele>744</ele>
        <time>2020-06-08T07:34:56Z</time>
      </trkpt>
      <trkpt lat="45.1976" lon="4.51148">
        <ele>744</ele>
        <time>2020-06-08T07:34:58Z</time>
      </trkpt>
      <trkpt lat="45.19759" lon="4.51134">
        <ele>741</ele>
        <time>2020-06-08T07:35:00Z</time>
      </trkpt>
      <trkpt lat="45.19765" lon="4.51085">
        <ele>738</ele>
        <time>2020-06-08T07:35:09Z</time>
      </trkpt>
      <trkpt lat="45.19771" lon="4.50982">
        <ele>739</ele>
        <time>2020-06-08T07:35:26Z</time>
      </trkpt>
      <trkpt lat="45.19787" lon="4.50912">
        <ele>744</ele>
        <time>2020-06-08T07:35:38Z</time>
      </trkpt>
      <trkpt lat="45.19812" lon="4.50782">
        <ele>748</ele>
        <time>2020-06-08T07:36:00Z</time>
      </trkpt>
      <trkpt lat="45.19826" lon="4.50741">
        <ele>748</ele>
        <time>2020-06-08T07:36:07Z</time>
      </trkpt>
      <trkpt lat="45.19829" lon="4.50714">
        <ele>751</ele>
        <time>2020-06-08T07:36:12Z</time>
      </trkpt>
      <trkpt lat="45.1982" lon="4.50696">
        <ele>756</ele>
        <time>2020-06-08T07:36:16Z</time>
      </trkpt>
      <trkpt lat="45.19797" lon="4.50697">
        <ele>763</ele>
        <time>2020-06-08T07:36:21Z</time>
      </trkpt>
      <trkpt lat="45.19781" lon="4.5072">
        <ele>762</ele>
        <time>2020-06-08T07:36:26Z</time>
      </trkpt>
      <trkpt lat="45.1967" lon="4.50924">
        <ele>753</ele>
        <time>2020-06-08T07:37:09Z</time>
      </trkpt>
      <trkpt lat="45.19644" lon="4.50955">
        <ele>755</ele>
        <time>2020-06-08T07:37:17Z</time>
      </trkpt>
      <trkpt lat="45.196" lon="4.50979">
        <ele>765</ele>
        <time>2020-06-08T07:37:28Z</time>
      </trkpt>
      <trkpt lat="45.19578" lon="4.51007">
        <ele>768</ele>
        <time>2020-06-08T07:37:34Z</time>
      </trkpt>
      <trkpt lat="45.19553" lon="4.51057">
        <ele>772</ele>
        <time>2020-06-08T07:37:45Z</time>
      </trkpt>
      <trkpt lat="45.19527" lon="4.51079">
        <ele>779</ele>
        <time>2020-06-08T07:37:52Z</time>
      </trkpt>
      <trkpt lat="45.19494" lon="4.51099">
        <ele>789</ele>
        <time>2020-06-08T07:38:00Z</time>
      </trkpt>
      <trkpt lat="45.19445" lon="4.51119">
        <ele>802</ele>
        <time>2020-06-08T07:38:12Z</time>
      </trkpt>
      <trkpt lat="45.19434" lon="4.51131">
        <ele>803</ele>
        <time>2020-06-08T07:38:15Z</time>
      </trkpt>
      <trkpt lat="45.19418" lon="4.51155">
        <ele>803</ele>
        <time>2020-06-08T07:38:21Z</time>
      </trkpt>
      <trkpt lat="45.19405" lon="4.51165">
        <ele>804</ele>
        <time>2020-06-08T07:38:24Z</time>
      </trkpt>
      <trkpt lat="45.19393" lon="4.51167">
        <ele>808</ele>
        <time>2020-06-08T07:38:27Z</time>
      </trkpt>
      <trkpt lat="45.1938" lon="4.51164">
        <ele>813</ele>
        <time>2020-06-08T07:38:30Z</time>
      </trkpt>
      <trkpt lat="45.19368" lon="4.51166">
        <ele>817</ele>
        <time>2020-06-08T07:38:33Z</time>
      </trkpt>
      <trkpt lat="45.19361" lon="4.51175">
        <ele>816</ele>
        <time>2020-06-08T07:38:35Z</time>
      </trkpt>
      <trkpt lat="45.19342" lon="4.51225">
        <ele>810</ele>
        <time>2020-06-08T07:38:44Z</time>
      </trkpt>
      <trkpt lat="45.19307" lon="4.51258">
        <ele>814</ele>
        <time>2020-06-08T07:38:54Z</time>
      </trkpt>
      <trkpt lat="45.19282" lon="4.51296">
        <ele>816</ele>
        <time>2020-06-08T07:39:03Z</time>
      </trkpt>
      <trkpt lat="45.19256" lon="4.51325">
        <ele>819</ele>
        <time>2020-06-08T07:39:10Z</time>
      </trkpt>
      <trkpt lat="45.19223" lon="4.51344">
        <ele>825</ele>
        <time>2020-06-08T07:39:19Z</time>
      </trkpt>
      <trkpt lat="45.19211" lon="4.51365">
        <ele>825</ele>
        <time>2020-06-08T07:39:23Z</time>
      </trkpt>
      <trkpt lat="45.1919" lon="4.51366">
        <ele>830</ele>
        <time>2020-06-08T07:39:28Z</time>
      </trkpt>
      <trkpt lat="45.19182" lon="4.51389">
        <ele>829</ele>
        <time>2020-06-08T07:39:32Z</time>
      </trkpt>
      <trkpt lat="45.19174" lon="4.51432">
        <ele>828</ele>
        <time>2020-06-08T07:39:40Z</time>
      </trkpt>
      <trkpt lat="45.19173" lon="4.51476">
        <ele>827</ele>
        <time>2020-06-08T07:39:47Z</time>
      </trkpt>
      <trkpt lat="45.19176" lon="4.51508">
        <ele>825</ele>
        <time>2020-06-08T07:39:52Z</time>
      </trkpt>
      <trkpt lat="45.19172" lon="4.51517">
        <ele>826</ele>
        <time>2020-06-08T07:39:54Z</time>
      </trkpt>
      <trkpt lat="45.19141" lon="4.51458">
        <ele>829</ele>
        <time>2020-06-08T07:40:06Z</time>
      </trkpt>
      <trkpt lat="45.19115" lon="4.51425">
        <ele>829</ele>
        <time>2020-06-08T07:40:14Z</time>
      </trkpt>
      <trkpt lat="45.19116" lon="4.51407">
        <ele>830</ele>
        <time>2020-06-08T07:40:17Z</time>
      </trkpt>
      <trkpt lat="45.19122" lon="4.51381">
        <ele>833</ele>
        <time>2020-06-08T07:40:22Z</time>
      </trkpt>
      <trkpt lat="45.19122" lon="4.51361">
        <ele>835</ele>
        <time>2020-06-08T07:40:25Z</time>
      </trkpt>
      <trkpt lat="45.19111" lon="4.51343">
        <ele>836</ele>
        <time>2020-06-08T07:40:29Z</time>
      </trkpt>
      <trkpt lat="45.19082" lon="4.51317">
        <ele>837</ele>
        <time>2020-06-08T07:40:37Z</time>
      </trkpt>
      <trkpt lat="45.19065" lon="4.51288">
        <ele>837</ele>
        <time>2020-06-08T07:40:43Z</time>
      </trkpt>
      <trkpt lat="45.19116" lon="4.51314">
        <ele>840</ele>
        <time>2020-06-08T07:40:56Z</time>
      </trkpt>
      <trkpt lat="45.1913" lon="4.51308">
        <ele>842</ele>
        <time>2020-06-08T07:40:59Z</time>
      </trkpt>
      <trkpt lat="45.19144" lon="4.5126">
        <ele>850</ele>
        <time>2020-06-08T07:41:08Z</time>
      </trkpt>
      <trkpt lat="45.19142" lon="4.51237">
        <ele>854</ele>
        <time>2020-06-08T07:41:12Z</time>
      </trkpt>
      <trkpt lat="45.19099" lon="4.51195">
        <ele>861</ele>
        <time>2020-06-08T07:41:24Z</time>
      </trkpt>
      <trkpt lat="45.19039" lon="4.51128">
        <ele>865</ele>
        <time>2020-06-08T07:41:42Z</time>
      </trkpt>
      <trkpt lat="45.19001" lon="4.51108">
        <ele>862</ele>
        <time>2020-06-08T07:41:51Z</time>
      </trkpt>
      <trkpt lat="45.18994" lon="4.51096">
        <ele>864</ele>
        <time>2020-06-08T07:41:54Z</time>
      </trkpt>
      <trkpt lat="45.18991" lon="4.51075">
        <ele>868</ele>
        <time>2020-06-08T07:41:57Z</time>
      </trkpt>
      <trkpt lat="45.18966" lon="4.51014">
        <ele>875</ele>
        <time>2020-06-08T07:42:09Z</time>
      </trkpt>
      <trkpt lat="45.18957" lon="4.51006">
        <ele>874</ele>
        <time>2020-06-08T07:42:11Z</time>
      </trkpt>
      <trkpt lat="45.18938" lon="4.50976">
        <ele>874</ele>
        <time>2020-06-08T07:42:18Z</time>
      </trkpt>
      <trkpt lat="45.18915" lon="4.50892">
        <ele>879</ele>
        <time>2020-06-08T07:42:33Z</time>
      </trkpt>
      <trkpt lat="45.18888" lon="4.50769">
        <ele>892</ele>
        <time>2020-06-08T07:42:54Z</time>
      </trkpt>
      <trkpt lat="45.18859" lon="4.50752">
        <ele>886</ele>
        <time>2020-06-08T07:43:01Z</time>
      </trkpt>
      <trkpt lat="45.18787" lon="4.50722">
        <ele>874</ele>
        <time>2020-06-08T07:43:19Z</time>
      </trkpt>
      <trkpt lat="45.18762" lon="4.50703">
        <ele>872</ele>
        <time>2020-06-08T07:43:25Z</time>
      </trkpt>
      <trkpt lat="45.18736" lon="4.5066">
        <ele>869</ele>
        <time>2020-06-08T07:43:35Z</time>
      </trkpt>
      <trkpt lat="45.18742" lon="4.50593">
        <ele>873</ele>
        <time>2020-06-08T07:43:46Z</time>
      </trkpt>
      <trkpt lat="45.18778" lon="4.50505">
        <ele>887</ele>
        <time>2020-06-08T07:44:03Z</time>
      </trkpt>
      <trkpt lat="45.18792" lon="4.50463">
        <ele>895</ele>
        <time>2020-06-08T07:44:10Z</time>
      </trkpt>
      <trkpt lat="45.18794" lon="4.50421">
        <ele>896</ele>
        <time>2020-06-08T07:44:17Z</time>
      </trkpt>
      <trkpt lat="45.18791" lon="4.50399">
        <ele>898</ele>
        <time>2020-06-08T07:44:21Z</time>
      </trkpt>
      <trkpt lat="45.18772" lon="4.5039">
        <ele>892</ele>
        <time>2020-06-08T07:44:25Z</time>
      </trkpt>
      <trkpt lat="45.18709" lon="4.50384">
        <ele>880</ele>
        <time>2020-06-08T07:44:40Z</time>
      </trkpt>
      <trkpt lat="45.18665" lon="4.50385">
        <ele>874</ele>
        <time>2020-06-08T07:44:50Z</time>
      </trkpt>
      <trkpt lat="45.18633" lon="4.50391">
        <ele>871</ele>
        <time>2020-06-08T07:44:58Z</time>
      </trkpt>
      <trkpt lat="45.18589" lon="4.5041">
        <ele>863</ele>
        <time>2020-06-08T07:45:09Z</time>
      </trkpt>
      <trkpt lat="45.18546" lon="4.50433">
        <ele>852</ele>
        <time>2020-06-08T07:45:19Z</time>
      </trkpt>
      <trkpt lat="45.18516" lon="4.50426">
        <ele>852</ele>
        <time>2020-06-08T07:45:27Z</time>
      </trkpt>
      <trkpt lat="45.18479" lon="4.50402">
        <ele>849</ele>
        <time>2020-06-08T07:45:36Z</time>
      </trkpt>
      <trkpt lat="45.18453" lon="4.50357">
        <ele>848</ele>
        <time>2020-06-08T07:45:46Z</time>
      </trkpt>
      <trkpt lat="45.18429" lon="4.50292">
        <ele>851</ele>
        <time>2020-06-08T07:45:58Z</time>
      </trkpt>
      <trkpt lat="45.18416" lon="4.50269">
        <ele>852</ele>
        <time>2020-06-08T07:46:03Z</time>
      </trkpt>
      <trkpt lat="45.1837" lon="4.50269">
        <ele>841</ele>
        <time>2020-06-08T07:46:13Z</time>
      </trkpt>
      <trkpt lat="45.18351" lon="4.50256">
        <ele>839</ele>
        <time>2020-06-08T07:46:18Z</time>
      </trkpt>
      <trkpt lat="45.18328" lon="4.50222">
        <ele>842</ele>
        <time>2020-06-08T07:46:26Z</time>
      </trkpt>
      <trkpt lat="45.18303" lon="4.50175">
        <ele>844</ele>
        <time>2020-06-08T07:46:36Z</time>
      </trkpt>
      <trkpt lat="45.18251" lon="4.50022">
        <ele>869</ele>
        <time>2020-06-08T07:47:04Z</time>
      </trkpt>
      <trkpt lat="45.18225" lon="4.50028">
        <ele>863</ele>
        <time>2020-06-08T07:47:10Z</time>
      </trkpt>
      <trkpt lat="45.18198" lon="4.50048">
        <ele>853</ele>
        <time>2020-06-08T07:47:17Z</time>
      </trkpt>
      <trkpt lat="45.18181" lon="4.50076">
        <ele>843</ele>
        <time>2020-06-08T07:47:23Z</time>
      </trkpt>
      <trkpt lat="45.18155" lon="4.50078">
        <ele>837</ele>
        <time>2020-06-08T07:47:29Z</time>
      </trkpt>
      <trkpt lat="45.1812" lon="4.50029">
        <ele>834</ele>
        <time>2020-06-08T07:47:41Z</time>
      </trkpt>
      <trkpt lat="45.18089" lon="4.49914">
        <ele>841</ele>
        <time>2020-06-08T07:48:01Z</time>
      </trkpt>
      <trkpt lat="45.18065" lon="4.49867">
        <ele>839</ele>
        <time>2020-06-08T07:48:10Z</time>
      </trkpt>
      <trkpt lat="45.18041" lon="4.49845">
        <ele>831</ele>
        <time>2020-06-08T07:48:17Z</time>
      </trkpt>
      <trkpt lat="45.18013" lon="4.49812">
        <ele>825</ele>
        <time>2020-06-08T07:48:26Z</time>
      </trkpt>
      <trkpt lat="45.17987" lon="4.49766">
        <ele>825</ele>
        <time>2020-06-08T07:48:35Z</time>
      </trkpt>
      <trkpt lat="45.1796" lon="4.49733">
        <ele>819</ele>
        <time>2020-06-08T07:48:44Z</time>
      </trkpt>
      <trkpt lat="45.17937" lon="4.4968">
        <ele>813</ele>
        <time>2020-06-08T07:48:54Z</time>
      </trkpt>
      <trkpt lat="45.17948" lon="4.49606">
        <ele>808</ele>
        <time>2020-06-08T07:49:06Z</time>
      </trkpt>
      <trkpt lat="45.17982" lon="4.49528">
        <ele>804</ele>
        <time>2020-06-08T07:49:21Z</time>
      </trkpt>
      <trkpt lat="45.18014" lon="4.4949">
        <ele>806</ele>
        <time>2020-06-08T07:49:31Z</time>
      </trkpt>
      <trkpt lat="45.17988" lon="4.49501">
        <ele>798</ele>
        <time>2020-06-08T07:49:37Z</time>
      </trkpt>
      <trkpt lat="45.17943" lon="4.49544">
        <ele>792</ele>
        <time>2020-06-08T07:49:50Z</time>
      </trkpt>
      <trkpt lat="45.17883" lon="4.49619">
        <ele>785</ele>
        <time>2020-06-08T07:50:09Z</time>
      </trkpt>
      <trkpt lat="45.17839" lon="4.49653">
        <ele>779</ele>
        <time>2020-06-08T07:50:21Z</time>
      </trkpt>
      <trkpt lat="45.17802" lon="4.49677">
        <ele>775</ele>
        <time>2020-06-08T07:50:30Z</time>
      </trkpt>
      <trkpt lat="45.17704" lon="4.49677">
        <ele>757</ele>
        <time>2020-06-08T07:50:53Z</time>
      </trkpt>
      <trkpt lat="45.17698" lon="4.49656">
        <ele>754</ele>
        <time>2020-06-08T07:50:57Z</time>
      </trkpt>
      <trkpt lat="45.17689" lon="4.49641">
        <ele>750</ele>
        <time>2020-06-08T07:51:00Z</time>
      </trkpt>
      <trkpt lat="45.17668" lon="4.4964">
        <ele>748</ele>
        <time>2020-06-08T07:51:05Z</time>
      </trkpt>
      <trkpt lat="45.1766" lon="4.49665">
        <ele>748</ele>
        <time>2020-06-08T07:51:09Z</time>
      </trkpt>
      <trkpt lat="45.17659" lon="4.497">
        <ele>747</ele>
        <time>2020-06-08T07:51:15Z</time>
      </trkpt>
      <trkpt lat="45.17672" lon="4.49772">
        <ele>745</ele>
        <time>2020-06-08T07:51:27Z</time>
      </trkpt>
      <trkpt lat="45.17703" lon="4.49831">
        <ele>742</ele>
        <time>2020-06-08T07:51:39Z</time>
      </trkpt>
      <trkpt lat="45.17722" lon="4.49853">
        <ele>743</ele>
        <time>2020-06-08T07:51:45Z</time>
      </trkpt>
      <trkpt lat="45.17743" lon="4.49888">
        <ele>741</ele>
        <time>2020-06-08T07:51:53Z</time>
      </trkpt>
      <trkpt lat="45.1775" lon="4.49912">
        <ele>738</ele>
        <time>2020-06-08T07:51:57Z</time>
      </trkpt>
      <trkpt lat="45.17758" lon="4.49956">
        <ele>731</ele>
        <time>2020-06-08T07:52:04Z</time>
      </trkpt>
      <trkpt lat="45.1777" lon="4.49983">
        <ele>727</ele>
        <time>2020-06-08T07:52:10Z</time>
      </trkpt>
      <trkpt lat="45.17779" lon="4.49994">
        <ele>725</ele>
        <time>2020-06-08T07:52:13Z</time>
      </trkpt>
      <trkpt lat="45.17788" lon="4.49996">
        <ele>726</ele>
        <time>2020-06-08T07:52:15Z</time>
      </trkpt>
      <trkpt lat="45.17828" lon="4.49993">
        <ele>730</ele>
        <time>2020-06-08T07:52:24Z</time>
      </trkpt>
      <trkpt lat="45.17863" lon="4.49974">
        <ele>741</ele>
        <time>2020-06-08T07:52:33Z</time>
      </trkpt>
      <trkpt lat="45.17877" lon="4.49983">
        <ele>741</ele>
        <time>2020-06-08T07:52:36Z</time>
      </trkpt>
      <trkpt lat="45.17887" lon="4.50007">
        <ele>737</ele>
        <time>2020-06-08T07:52:41Z</time>
      </trkpt>
      <trkpt lat="45.179" lon="4.50014">
        <ele>738</ele>
        <time>2020-06-08T07:52:44Z</time>
      </trkpt>
      <trkpt lat="45.17904" lon="4.50021">
        <ele>738</ele>
        <time>2020-06-08T07:52:46Z</time>
      </trkpt>
      <trkpt lat="45.17886" lon="4.50099">
        <ele>721</ele>
        <time>2020-06-08T07:52:59Z</time>
      </trkpt>
      <trkpt lat="45.17885" lon="4.50133">
        <ele>714</ele>
        <time>2020-06-08T07:53:05Z</time>
      </trkpt>
      <trkpt lat="45.17877" lon="4.50111">
        <ele>715</ele>
        <time>2020-06-08T07:53:09Z</time>
      </trkpt>
      <trkpt lat="45.17882" lon="4.50039">
        <ele>730</ele>
        <time>2020-06-08T07:53:21Z</time>
      </trkpt>
      <trkpt lat="45.17863" lon="4.50031">
        <ele>727</ele>
        <time>2020-06-08T07:53:25Z</time>
      </trkpt>
      <trkpt lat="45.17835" lon="4.50047">
        <ele>715</ele>
        <time>2020-06-08T07:53:32Z</time>
      </trkpt>
      <trkpt lat="45.17794" lon="4.50064">
        <ele>708</ele>
        <time>2020-06-08T07:53:42Z</time>
      </trkpt>
      <trkpt lat="45.17745" lon="4.50098">
        <ele>695</ele>
        <time>2020-06-08T07:53:55Z</time>
      </trkpt>
      <trkpt lat="45.17724" lon="4.50119">
        <ele>684</ele>
        <time>2020-06-08T07:54:01Z</time>
      </trkpt>
      <trkpt lat="45.17703" lon="4.5011">
        <ele>680</ele>
        <time>2020-06-08T07:54:06Z</time>
      </trkpt>
      <trkpt lat="45.17661" lon="4.50062">
        <ele>679</ele>
        <time>2020-06-08T07:54:19Z</time>
      </trkpt>
      <trkpt lat="45.17644" lon="4.50024">
        <ele>683</ele>
        <time>2020-06-08T07:54:26Z</time>
      </trkpt>
      <trkpt lat="45.17644" lon="4.49984">
        <ele>692</ele>
        <time>2020-06-08T07:54:33Z</time>
      </trkpt>
      <trkpt lat="45.17633" lon="4.49967">
        <ele>693</ele>
        <time>2020-06-08T07:54:37Z</time>
      </trkpt>
      <trkpt lat="45.17591" lon="4.49984">
        <ele>678</ele>
        <time>2020-06-08T07:54:47Z</time>
      </trkpt>
      <trkpt lat="45.1752" lon="4.49965">
        <ele>669</ele>
        <time>2020-06-08T07:55:04Z</time>
      </trkpt>
      <trkpt lat="45.17515" lon="4.49882">
        <ele>679</ele>
        <time>2020-06-08T07:55:17Z</time>
      </trkpt>
      <trkpt lat="45.17503" lon="4.49871">
        <ele>676</ele>
        <time>2020-06-08T07:55:21Z</time>
      </trkpt>
      <trkpt lat="45.1749" lon="4.49853">
        <ele>676</ele>
        <time>2020-06-08T07:55:25Z</time>
      </trkpt>
      <trkpt lat="45.17492" lon="4.49824">
        <ele>679</ele>
        <time>2020-06-08T07:55:30Z</time>
      </trkpt>
      <trkpt lat="45.17503" lon="4.49749">
        <ele>683</ele>
        <time>2020-06-08T07:55:42Z</time>
      </trkpt>
      <trkpt lat="45.17503" lon="4.49723">
        <ele>685</ele>
        <time>2020-06-08T07:55:47Z</time>
      </trkpt>
      <trkpt lat="45.17492" lon="4.4967">
        <ele>688</ele>
        <time>2020-06-08T07:55:56Z</time>
      </trkpt>
      <trkpt lat="45.17495" lon="4.4965">
        <ele>689</ele>
        <time>2020-06-08T07:55:59Z</time>
      </trkpt>
      <trkpt lat="45.17503" lon="4.49625">
        <ele>691</ele>
        <time>2020-06-08T07:56:04Z</time>
      </trkpt>
      <trkpt lat="45.17505" lon="4.49603">
        <ele>693</ele>
        <time>2020-06-08T07:56:07Z</time>
      </trkpt>
      <trkpt lat="45.17494" lon="4.49594">
        <ele>692</ele>
        <time>2020-06-08T07:56:10Z</time>
      </trkpt>
      <trkpt lat="45.17482" lon="4.49605">
        <ele>692</ele>
        <time>2020-06-08T07:56:14Z</time>
      </trkpt>
      <trkpt lat="45.17472" lon="4.49643">
        <ele>689</ele>
        <time>2020-06-08T07:56:20Z</time>
      </trkpt>
      <trkpt lat="45.17468" lon="4.49704">
        <ele>685</ele>
        <time>2020-06-08T07:56:30Z</time>
      </trkpt>
      <trkpt lat="45.17459" lon="4.49721">
        <ele>683</ele>
        <time>2020-06-08T07:56:34Z</time>
      </trkpt>
      <trkpt lat="45.17444" lon="4.49705">
        <ele>684</ele>
        <time>2020-06-08T07:56:38Z</time>
      </trkpt>
      <trkpt lat="45.1743" lon="4.49657">
        <ele>687</ele>
        <time>2020-06-08T07:56:47Z</time>
      </trkpt>
      <trkpt lat="45.17408" lon="4.49632">
        <ele>688</ele>
        <time>2020-06-08T07:56:53Z</time>
      </trkpt>
      <trkpt lat="45.1736" lon="4.49472">
        <ele>695</ele>
        <time>2020-06-08T07:57:22Z</time>
      </trkpt>
      <trkpt lat="45.17349" lon="4.49406">
        <ele>700</ele>
        <time>2020-06-08T07:57:33Z</time>
      </trkpt>
      <trkpt lat="45.17354" lon="4.49369">
        <ele>710</ele>
        <time>2020-06-08T07:57:39Z</time>
      </trkpt>
      <trkpt lat="45.17345" lon="4.49361">
        <ele>709</ele>
        <time>2020-06-08T07:57:42Z</time>
      </trkpt>
      <trkpt lat="45.17317" lon="4.49355">
        <ele>701</ele>
        <time>2020-06-08T07:57:49Z</time>
      </trkpt>
      <trkpt lat="45.17267" lon="4.49248">
        <ele>704</ele>
        <time>2020-06-08T07:58:10Z</time>
      </trkpt>
      <trkpt lat="45.17252" lon="4.49203">
        <ele>705</ele>
        <time>2020-06-08T07:58:18Z</time>
      </trkpt>
      <trkpt lat="45.17207" lon="4.49108">
        <ele>712</ele>
        <time>2020-06-08T07:58:37Z</time>
      </trkpt>
      <trkpt lat="45.17137" lon="4.49002">
        <ele>714</ele>
        <time>2020-06-08T07:59:01Z</time>
      </trkpt>
      <trkpt lat="45.17124" lon="4.48975">
        <ele>716</ele>
        <time>2020-06-08T07:59:06Z</time>
      </trkpt>
      <trkpt lat="45.17104" lon="4.48945">
        <ele>715</ele>
        <time>2020-06-08T07:59:13Z</time>
      </trkpt>
      <trkpt lat="45.17093" lon="4.48916">
        <ele>718</ele>
        <time>2020-06-08T07:59:18Z</time>
      </trkpt>
      <trkpt lat="45.17065" lon="4.48868">
        <ele>720</ele>
        <time>2020-06-08T07:59:28Z</time>
      </trkpt>
      <trkpt lat="45.17052" lon="4.48833">
        <ele>723</ele>
        <time>2020-06-08T07:59:35Z</time>
      </trkpt>
      <trkpt lat="45.17034" lon="4.48812">
        <ele>723</ele>
        <time>2020-06-08T07:59:40Z</time>
      </trkpt>
      <trkpt lat="45.17006" lon="4.48771">
        <ele>722</ele>
        <time>2020-06-08T07:59:50Z</time>
      </trkpt>
      <trkpt lat="45.16984" lon="4.48726">
        <ele>726</ele>
        <time>2020-06-08T07:59:59Z</time>
      </trkpt>
      <trkpt lat="45.16976" lon="4.48699">
        <ele>729</ele>
        <time>2020-06-08T08:00:04Z</time>
      </trkpt>
      <trkpt lat="45.1696" lon="4.48685">
        <ele>727</ele>
        <time>2020-06-08T08:00:08Z</time>
      </trkpt>
      <trkpt lat="45.1694" lon="4.48662">
        <ele>726</ele>
        <time>2020-06-08T08:00:14Z</time>
      </trkpt>
      <trkpt lat="45.16935" lon="4.48641">
        <ele>730</ele>
        <time>2020-06-08T08:00:18Z</time>
      </trkpt>
      <trkpt lat="45.16935" lon="4.48621">
        <ele>734</ele>
        <time>2020-06-08T08:00:21Z</time>
      </trkpt>
      <trkpt lat="45.16939" lon="4.48605">
        <ele>739</ele>
        <time>2020-06-08T08:00:24Z</time>
      </trkpt>
      <trkpt lat="45.16941" lon="4.48581">
        <ele>745</ele>
        <time>2020-06-08T08:00:28Z</time>
      </trkpt>
      <trkpt lat="45.16932" lon="4.4857">
        <ele>745</ele>
        <time>2020-06-08T08:00:31Z</time>
      </trkpt>
      <trkpt lat="45.16905" lon="4.48597">
        <ele>734</ele>
        <time>2020-06-08T08:00:38Z</time>
      </trkpt>
      <trkpt lat="45.16868" lon="4.48622">
        <ele>725</ele>
        <time>2020-06-08T08:00:48Z</time>
      </trkpt>
      <trkpt lat="45.16854" lon="4.48617">
        <ele>725</ele>
        <time>2020-06-08T08:00:51Z</time>
      </trkpt>
      <trkpt lat="45.16784" lon="4.48536">
        <ele>735</ele>
        <time>2020-06-08T08:01:12Z</time>
      </trkpt>
      <trkpt lat="45.16764" lon="4.48483">
        <ele>741</ele>
        <time>2020-06-08T08:01:22Z</time>
      </trkpt>
      <trkpt lat="45.16751" lon="4.48437">
        <ele>746</ele>
        <time>2020-06-08T08:01:30Z</time>
      </trkpt>
      <trkpt lat="45.16708" lon="4.48357">
        <ele>744</ele>
        <time>2020-06-08T08:01:47Z</time>
      </trkpt>
      <trkpt lat="45.16707" lon="4.4833">
        <ele>748</ele>
        <time>2020-06-08T08:01:51Z</time>
      </trkpt>
      <trkpt lat="45.16702" lon="4.48307">
        <ele>750</ele>
        <time>2020-06-08T08:01:55Z</time>
      </trkpt>
      <trkpt lat="45.16677" lon="4.48282">
        <ele>747</ele>
        <time>2020-06-08T08:02:02Z</time>
      </trkpt>
      <trkpt lat="45.16652" lon="4.48235">
        <ele>752</ele>
        <time>2020-06-08T08:02:12Z</time>
      </trkpt>
      <trkpt lat="45.166" lon="4.48154">
        <ele>753</ele>
        <time>2020-06-08T08:02:30Z</time>
      </trkpt>
      <trkpt lat="45.16578" lon="4.48104">
        <ele>752</ele>
        <time>2020-06-08T08:02:40Z</time>
      </trkpt>
      <trkpt lat="45.1657" lon="4.48071">
        <ele>753</ele>
        <time>2020-06-08T08:02:46Z</time>
      </trkpt>
      <trkpt lat="45.16584" lon="4.48056">
        <ele>758</ele>
        <time>2020-06-08T08:02:50Z</time>
      </trkpt>
      <trkpt lat="45.16606" lon="4.48046">
        <ele>767</ele>
        <time>2020-06-08T08:02:55Z</time>
      </trkpt>
      <trkpt lat="45.16612" lon="4.48034">
        <ele>770</ele>
        <time>2020-06-08T08:02:58Z</time>
      </trkpt>
      <trkpt lat="45.16605" lon="4.48022">
        <ele>768</ele>
        <time>2020-06-08T08:03:00Z</time>
      </trkpt>
      <trkpt lat="45.16582" lon="4.48014">
        <ele>761</ele>
        <time>2020-06-08T08:03:06Z</time>
      </trkpt>
      <trkpt lat="45.16564" lon="4.47997">
        <ele>757</ele>
        <time>2020-06-08T08:03:11Z</time>
      </trkpt>
      <trkpt lat="45.16552" lon="4.47968">
        <ele>756</ele>
        <time>2020-06-08T08:03:16Z</time>
      </trkpt>
      <trkpt lat="45.16549" lon="4.47939">
        <ele>757</ele>
        <time>2020-06-08T08:03:21Z</time>
      </trkpt>
      <trkpt lat="45.16554" lon="4.47905">
        <ele>763</ele>
        <time>2020-06-08T08:03:27Z</time>
      </trkpt>
      <trkpt lat="45.16539" lon="4.47839">
        <ele>770</ele>
        <time>2020-06-08T08:03:38Z</time>
      </trkpt>
      <trkpt lat="45.16497" lon="4.47777">
        <ele>771</ele>
        <time>2020-06-08T08:03:52Z</time>
      </trkpt>
      <trkpt lat="45.16464" lon="4.47754">
        <ele>769</ele>
        <time>2020-06-08T08:04:01Z</time>
      </trkpt>
      <trkpt lat="45.1641" lon="4.47689">
        <ele>770</ele>
        <time>2020-06-08T08:04:18Z</time>
      </trkpt>
      <trkpt lat="45.16398" lon="4.4764">
        <ele>779</ele>
        <time>2020-06-08T08:04:26Z</time>
      </trkpt>
      <trkpt lat="45.16386" lon="4.4764">
        <ele>777</ele>
        <time>2020-06-08T08:04:29Z</time>
      </trkpt>
      <trkpt lat="45.16364" lon="4.47654">
        <ele>770</ele>
        <time>2020-06-08T08:04:34Z</time>
      </trkpt>
      <trkpt lat="45.16342" lon="4.47651">
        <ele>767</ele>
        <time>2020-06-08T08:04:40Z</time>
      </trkpt>
      <trkpt lat="45.16329" lon="4.4763">
        <ele>770</ele>
        <time>2020-06-08T08:04:44Z</time>
      </trkpt>
      <trkpt lat="45.16273" lon="4.47507">
        <ele>781</ele>
        <time>2020-06-08T08:05:08Z</time>
      </trkpt>
      <trkpt lat="45.16251" lon="4.4748">
        <ele>780</ele>
        <time>2020-06-08T08:05:15Z</time>
      </trkpt>
      <trkpt lat="45.16175" lon="4.47416">
        <ele>779</ele>
        <time>2020-06-08T08:05:36Z</time>
      </trkpt>
      <trkpt lat="45.16059" lon="4.473">
        <ele>790</ele>
        <time>2020-06-08T08:06:09Z</time>
      </trkpt>
      <trkpt lat="45.15979" lon="4.47229">
        <ele>789</ele>
        <time>2020-06-08T08:06:31Z</time>
      </trkpt>
      <trkpt lat="45.15966" lon="4.47201">
        <ele>791</ele>
        <time>2020-06-08T08:06:36Z</time>
      </trkpt>
      <trkpt lat="45.15961" lon="4.47181">
        <ele>792</ele>
        <time>2020-06-08T08:06:40Z</time>
      </trkpt>
      <trkpt lat="45.15975" lon="4.47069">
        <ele>796</ele>
        <time>2020-06-08T08:06:59Z</time>
      </trkpt>
      <trkpt lat="45.15984" lon="4.47027">
        <ele>797</ele>
        <time>2020-06-08T08:07:06Z</time>
      </trkpt>
      <trkpt lat="45.15977" lon="4.47009">
        <ele>797</ele>
        <time>2020-06-08T08:07:09Z</time>
      </trkpt>
      <trkpt lat="45.15958" lon="4.47011">
        <ele>798</ele>
        <time>2020-06-08T08:07:14Z</time>
      </trkpt>
      <trkpt lat="45.15938" lon="4.47031">
        <ele>796</ele>
        <time>2020-06-08T08:07:19Z</time>
      </trkpt>
      <trkpt lat="45.15904" lon="4.47032">
        <ele>795</ele>
        <time>2020-06-08T08:07:27Z</time>
      </trkpt>
      <trkpt lat="45.15875" lon="4.47027">
        <ele>796</ele>
        <time>2020-06-08T08:07:34Z</time>
      </trkpt>
      <trkpt lat="45.15813" lon="4.47005">
        <ele>798</ele>
        <time>2020-06-08T08:07:49Z</time>
      </trkpt>
      <trkpt lat="45.15796" lon="4.46989">
        <ele>801</ele>
        <time>2020-06-08T08:07:54Z</time>
      </trkpt>
      <trkpt lat="45.15776" lon="4.46961">
        <ele>806</ele>
        <time>2020-06-08T08:08:01Z</time>
      </trkpt>
      <trkpt lat="45.15752" lon="4.46944">
        <ele>807</ele>
        <time>2020-06-08T08:08:07Z</time>
      </trkpt>
      <trkpt lat="45.15717" lon="4.46907">
        <ele>811</ele>
        <time>2020-06-08T08:08:17Z</time>
      </trkpt>
      <trkpt lat="45.15674" lon="4.46888">
        <ele>809</ele>
        <time>2020-06-08T08:08:27Z</time>
      </trkpt>
      <trkpt lat="45.15633" lon="4.46861">
        <ele>813</ele>
        <time>2020-06-08T08:08:38Z</time>
      </trkpt>
      <trkpt lat="45.15561" lon="4.46789">
        <ele>818</ele>
        <time>2020-06-08T08:08:59Z</time>
      </trkpt>
      <trkpt lat="45.15509" lon="4.46717">
        <ele>819</ele>
        <time>2020-06-08T08:09:16Z</time>
      </trkpt>
      <trkpt lat="45.15488" lon="4.46672">
        <ele>824</ele>
        <time>2020-06-08T08:09:24Z</time>
      </trkpt>
      <trkpt lat="45.15426" lon="4.46591">
        <ele>826</ele>
        <time>2020-06-08T08:09:44Z</time>
      </trkpt>
      <trkpt lat="45.154" lon="4.46494">
        <ele>837</ele>
        <time>2020-06-08T08:10:01Z</time>
      </trkpt>
      <trkpt lat="45.1539" lon="4.46448">
        <ele>841</ele>
        <time>2020-06-08T08:10:09Z</time>
      </trkpt>
      <trkpt lat="45.15372" lon="4.464">
        <ele>841</ele>
        <time>2020-06-08T08:10:18Z</time>
      </trkpt>
      <trkpt lat="45.15345" lon="4.46379">
        <ele>835</ele>
        <time>2020-06-08T08:10:25Z</time>
      </trkpt>
      <trkpt lat="45.1533" lon="4.46352">
        <ele>835</ele>
        <time>2020-06-08T08:10:31Z</time>
      </trkpt>
      <trkpt lat="45.15314" lon="4.46316">
        <ele>841</ele>
        <time>2020-06-08T08:10:38Z</time>
      </trkpt>
      <trkpt lat="45.15283" lon="4.4627">
        <ele>844</ele>
        <time>2020-06-08T08:10:48Z</time>
      </trkpt>
      <trkpt lat="45.15223" lon="4.462">
        <ele>841</ele>
        <time>2020-06-08T08:11:07Z</time>
      </trkpt>
      <trkpt lat="45.15218" lon="4.46171">
        <ele>844</ele>
        <time>2020-06-08T08:11:12Z</time>
      </trkpt>
      <trkpt lat="45.15226" lon="4.46134">
        <ele>847</ele>
        <time>2020-06-08T08:11:18Z</time>
      </trkpt>
      <trkpt lat="45.15235" lon="4.46106">
        <ele>850</ele>
        <time>2020-06-08T08:11:23Z</time>
      </trkpt>
      <trkpt lat="45.15229" lon="4.46092">
        <ele>849</ele>
        <time>2020-06-08T08:11:26Z</time>
      </trkpt>
      <trkpt lat="45.15214" lon="4.46096">
        <ele>846</ele>
        <time>2020-06-08T08:11:29Z</time>
      </trkpt>
      <trkpt lat="45.15196" lon="4.46089">
        <ele>842</ele>
        <time>2020-06-08T08:11:34Z</time>
      </trkpt>
      <trkpt lat="45.15179" lon="4.46073">
        <ele>841</ele>
        <time>2020-06-08T08:11:38Z</time>
      </trkpt>
      <trkpt lat="45.15159" lon="4.46017">
        <ele>848</ele>
        <time>2020-06-08T08:11:49Z</time>
      </trkpt>
      <trkpt lat="45.15129" lon="4.4596">
        <ele>858</ele>
        <time>2020-06-08T08:12:00Z</time>
      </trkpt>
      <trkpt lat="45.151" lon="4.45914">
        <ele>859</ele>
        <time>2020-06-08T08:12:11Z</time>
      </trkpt>
      <trkpt lat="45.15075" lon="4.45847">
        <ele>865</ele>
        <time>2020-06-08T08:12:23Z</time>
      </trkpt>
      <trkpt lat="45.15054" lon="4.45833">
        <ele>865</ele>
        <time>2020-06-08T08:12:28Z</time>
      </trkpt>
      <trkpt lat="45.15033" lon="4.45803">
        <ele>867</ele>
        <time>2020-06-08T08:12:35Z</time>
      </trkpt>
      <trkpt lat="45.15005" lon="4.4577">
        <ele>863</ele>
        <time>2020-06-08T08:12:44Z</time>
      </trkpt>
      <trkpt lat="45.14986" lon="4.45742">
        <ele>864</ele>
        <time>2020-06-08T08:12:50Z</time>
      </trkpt>
      <trkpt lat="45.14974" lon="4.45704">
        <ele>871</ele>
        <time>2020-06-08T08:12:57Z</time>
      </trkpt>
      <trkpt lat="45.14958" lon="4.45667">
        <ele>874</ele>
        <time>2020-06-08T08:13:04Z</time>
      </trkpt>
      <trkpt lat="45.1493" lon="4.45653">
        <ele>874</ele>
        <time>2020-06-08T08:13:11Z</time>
      </trkpt>
      <trkpt lat="45.14906" lon="4.45634">
        <ele>877</ele>
        <time>2020-06-08T08:13:18Z</time>
      </trkpt>
      <trkpt lat="45.14893" lon="4.45612">
        <ele>882</ele>
        <time>2020-06-08T08:13:22Z</time>
      </trkpt>
      <trkpt lat="45.14879" lon="4.45616">
        <ele>884</ele>
        <time>2020-06-08T08:13:26Z</time>
      </trkpt>
      <trkpt lat="45.14878" lon="4.45628">
        <ele>884</ele>
        <time>2020-06-08T08:13:28Z</time>
      </trkpt>
      <trkpt lat="45.14901" lon="4.45685">
        <ele>875</ele>
        <time>2020-06-08T08:13:39Z</time>
      </trkpt>
      <trkpt lat="45.14926" lon="4.45757">
        <ele>873</ele>
        <time>2020-06-08T08:13:52Z</time>
      </trkpt>
      <trkpt lat="45.14936" lon="4.45819">
        <ele>879</ele>
        <time>2020-06-08T08:14:02Z</time>
      </trkpt>
      <trkpt lat="45.14958" lon="4.45854">
        <ele>879</ele>
        <time>2020-06-08T08:14:10Z</time>
      </trkpt>
      <trkpt lat="45.14974" lon="4.4589">
        <ele>883</ele>
        <time>2020-06-08T08:14:17Z</time>
      </trkpt>
      <trkpt lat="45.1499" lon="4.45994">
        <ele>894</ele>
        <time>2020-06-08T08:14:35Z</time>
      </trkpt>
      <trkpt lat="45.15002" lon="4.46044">
        <ele>894</ele>
        <time>2020-06-08T08:14:43Z</time>
      </trkpt>
      <trkpt lat="45.15008" lon="4.46088">
        <ele>895</ele>
        <time>2020-06-08T08:14:51Z</time>
      </trkpt>
      <trkpt lat="45.15002" lon="4.46119">
        <ele>898</ele>
        <time>2020-06-08T08:14:56Z</time>
      </trkpt>
      <trkpt lat="45.14988" lon="4.4617">
        <ele>905</ele>
        <time>2020-06-08T08:15:05Z</time>
      </trkpt>
      <trkpt lat="45.14983" lon="4.4621">
        <ele>909</ele>
        <time>2020-06-08T08:15:12Z</time>
      </trkpt>
      <trkpt lat="45.14983" lon="4.46265">
        <ele>910</ele>
        <time>2020-06-08T08:15:21Z</time>
      </trkpt>
      <trkpt lat="45.14977" lon="4.46302">
        <ele>909</ele>
        <time>2020-06-08T08:15:27Z</time>
      </trkpt>
      <trkpt lat="45.14975" lon="4.46254">
        <ele>914</ele>
        <time>2020-06-08T08:15:35Z</time>
      </trkpt>
      <trkpt lat="45.14965" lon="4.46209">
        <ele>917</ele>
        <time>2020-06-08T08:15:43Z</time>
      </trkpt>
      <trkpt lat="45.14961" lon="4.46143">
        <ele>916</ele>
        <time>2020-06-08T08:15:54Z</time>
      </trkpt>
      <trkpt lat="45.1494" lon="4.46086">
        <ele>923</ele>
        <time>2020-06-08T08:16:04Z</time>
      </trkpt>
      <trkpt lat="45.14911" lon="4.46058">
        <ele>933</ele>
        <time>2020-06-08T08:16:12Z</time>
      </trkpt>
      <trkpt lat="45.149" lon="4.46006">
        <ele>934</ele>
        <time>2020-06-08T08:16:21Z</time>
      </trkpt>
      <trkpt lat="45.14889" lon="4.45978">
        <ele>933</ele>
        <time>2020-06-08T08:16:27Z</time>
      </trkpt>
      <trkpt lat="45.14809" lon="4.45875">
        <ele>943</ele>
        <time>2020-06-08T08:16:52Z</time>
      </trkpt>
      <trkpt lat="45.14761" lon="4.45843">
        <ele>955</ele>
        <time>2020-06-08T08:17:04Z</time>
      </trkpt>
      <trkpt lat="45.14726" lon="4.45787">
        <ele>957</ele>
        <time>2020-06-08T08:17:16Z</time>
      </trkpt>
      <trkpt lat="45.14658" lon="4.4575">
        <ele>967</ele>
        <time>2020-06-08T08:17:33Z</time>
      </trkpt>
      <trkpt lat="45.14639" lon="4.45724">
        <ele>967</ele>
        <time>2020-06-08T08:17:40Z</time>
      </trkpt>
      <trkpt lat="45.14612" lon="4.45708">
        <ele>972</ele>
        <time>2020-06-08T08:17:46Z</time>
      </trkpt>
      <trkpt lat="45.14595" lon="4.45685">
        <ele>970</ele>
        <time>2020-06-08T08:17:52Z</time>
      </trkpt>
      <trkpt lat="45.14571" lon="4.45661">
        <ele>969</ele>
        <time>2020-06-08T08:17:59Z</time>
      </trkpt>
      <trkpt lat="45.14545" lon="4.45657">
        <ele>972</ele>
        <time>2020-06-08T08:18:05Z</time>
      </trkpt>
      <trkpt lat="45.14515" lon="4.45663">
        <ele>979</ele>
        <time>2020-06-08T08:18:12Z</time>
      </trkpt>
      <trkpt lat="45.14485" lon="4.45663">
        <ele>985</ele>
        <time>2020-06-08T08:18:19Z</time>
      </trkpt>
      <trkpt lat="45.14452" lon="4.45647">
        <ele>990</ele>
        <time>2020-06-08T08:18:27Z</time>
      </trkpt>
      <trkpt lat="45.14408" lon="4.4561">
        <ele>996</ele>
        <time>2020-06-08T08:18:39Z</time>
      </trkpt>
      <trkpt lat="45.14391" lon="4.45569">
        <ele>999</ele>
        <time>2020-06-08T08:18:47Z</time>
      </trkpt>
      <trkpt lat="45.14384" lon="4.45505">
        <ele>999</ele>
        <time>2020-06-08T08:18:58Z</time>
      </trkpt>
      <trkpt lat="45.14368" lon="4.45437">
        <ele>1007</ele>
        <time>2020-06-08T08:19:09Z</time>
      </trkpt>
      <trkpt lat="45.14373" lon="4.45378">
        <ele>1006</ele>
        <time>2020-06-08T08:19:19Z</time>
      </trkpt>
      <trkpt lat="45.14368" lon="4.45328">
        <ele>1008</ele>
        <time>2020-06-08T08:19:28Z</time>
      </trkpt>
      <trkpt lat="45.14349" lon="4.45304">
        <ele>1012</ele>
        <time>2020-06-08T08:19:33Z</time>
      </trkpt>
      <trkpt lat="45.14314" lon="4.45279">
        <ele>1020</ele>
        <time>2020-06-08T08:19:43Z</time>
      </trkpt>
      <trkpt lat="45.14267" lon="4.45259">
        <ele>1032</ele>
        <time>2020-06-08T08:19:54Z</time>
      </trkpt>
      <trkpt lat="45.14239" lon="4.45228">
        <ele>1037</ele>
        <time>2020-06-08T08:20:02Z</time>
      </trkpt>
      <trkpt lat="45.14201" lon="4.45196">
        <ele>1047</ele>
        <time>2020-06-08T08:20:13Z</time>
      </trkpt>
      <trkpt lat="45.14204" lon="4.45157">
        <ele>1045</ele>
        <time>2020-06-08T08:20:19Z</time>
      </trkpt>
      <trkpt lat="45.14257" lon="4.4504">
        <ele>1047</ele>
        <time>2020-06-08T08:20:42Z</time>
      </trkpt>
      <trkpt lat="45.14264" lon="4.45003">
        <ele>1051</ele>
        <time>2020-06-08T08:20:48Z</time>
      </trkpt>
      <trkpt lat="45.14263" lon="4.44978">
        <ele>1054</ele>
        <time>2020-06-08T08:20:52Z</time>
      </trkpt>
      <trkpt lat="45.14238" lon="4.44823">
        <ele>1068</ele>
        <time>2020-06-08T08:21:19Z</time>
      </trkpt>
      <trkpt lat="45.14178" lon="4.44686">
        <ele>1073</ele>
        <time>2020-06-08T08:21:45Z</time>
      </trkpt>
      <trkpt lat="45.14168" lon="4.44638">
        <ele>1073</ele>
        <time>2020-06-08T08:21:53Z</time>
      </trkpt>
      <trkpt lat="45.14167" lon="4.44589">
        <ele>1075</ele>
        <time>2020-06-08T08:22:02Z</time>
      </trkpt>
      <trkpt lat="45.14202" lon="4.44565">
        <ele>1073</ele>
        <time>2020-06-08T08:22:11Z</time>
      </trkpt>
      <trkpt lat="45.14225" lon="4.44507">
        <ele>1083</ele>
        <time>2020-06-08T08:22:22Z</time>
      </trkpt>
      <trkpt lat="45.14221" lon="4.44478">
        <ele>1087</ele>
        <time>2020-06-08T08:22:26Z</time>
      </trkpt>
      <trkpt lat="45.14202" lon="4.44432">
        <ele>1091</ele>
        <time>2020-06-08T08:22:35Z</time>
      </trkpt>
      <trkpt lat="45.14193" lon="4.44397">
        <ele>1093</ele>
        <time>2020-06-08T08:22:41Z</time>
      </trkpt>
      <trkpt lat="45.1421" lon="4.44348">
        <ele>1097</ele>
        <time>2020-06-08T08:22:50Z</time>
      </trkpt>
      <trkpt lat="45.14253" lon="4.44362">
        <ele>1102</ele>
        <time>2020-06-08T08:23:01Z</time>
      </trkpt>
      <trkpt lat="45.14265" lon="4.44358">
        <ele>1105</ele>
        <time>2020-06-08T08:23:04Z</time>
      </trkpt>
      <trkpt lat="45.14281" lon="4.44328">
        <ele>1111</ele>
        <time>2020-06-08T08:23:10Z</time>
      </trkpt>
      <trkpt lat="45.14302" lon="4.4427">
        <ele>1114</ele>
        <time>2020-06-08T08:23:21Z</time>
      </trkpt>
      <trkpt lat="45.14335" lon="4.44091">
        <ele>1111</ele>
        <time>2020-06-08T08:23:51Z</time>
      </trkpt>
      <trkpt lat="45.14354" lon="4.43944">
        <ele>1106</ele>
        <time>2020-06-08T08:24:16Z</time>
      </trkpt>
      <trkpt lat="45.1435" lon="4.43894">
        <ele>1106</ele>
        <time>2020-06-08T08:24:24Z</time>
      </trkpt>
      <trkpt lat="45.14337" lon="4.4385">
        <ele>1106</ele>
        <time>2020-06-08T08:24:32Z</time>
      </trkpt>
      <trkpt lat="45.14335" lon="4.43834">
        <ele>1107</ele>
        <time>2020-06-08T08:24:34Z</time>
      </trkpt>
      <trkpt lat="45.14287" lon="4.43675">
        <ele>1113</ele>
        <time>2020-06-08T08:25:03Z</time>
      </trkpt>
      <trkpt lat="45.14262" lon="4.43608">
        <ele>1115</ele>
        <time>2020-06-08T08:25:15Z</time>
      </trkpt>
      <trkpt lat="45.14244" lon="4.43601">
        <ele>1115</ele>
        <time>2020-06-08T08:25:20Z</time>
      </trkpt>
      <trkpt lat="45.14212" lon="4.43526">
        <ele>1118</ele>
        <time>2020-06-08T08:25:34Z</time>
      </trkpt>
      <trkpt lat="45.14199" lon="4.43536">
        <ele>1119</ele>
        <time>2020-06-08T08:25:38Z</time>
      </trkpt>
      <trkpt lat="45.14174" lon="4.4352">
        <ele>1121</ele>
        <time>2020-06-08T08:25:44Z</time>
      </trkpt>
      <trkpt lat="45.14103" lon="4.43461">
        <ele>1129</ele>
        <time>2020-06-08T08:26:03Z</time>
      </trkpt>
      <trkpt lat="45.14036" lon="4.43397">
        <ele>1135</ele>
        <time>2020-06-08T08:26:22Z</time>
      </trkpt>
      <trkpt lat="45.1392" lon="4.4333">
        <ele>1137</ele>
        <time>2020-06-08T08:26:51Z</time>
      </trkpt>
      <trkpt lat="45.1385" lon="4.43294">
        <ele>1139</ele>
        <time>2020-06-08T08:27:09Z</time>
      </trkpt>
      <trkpt lat="45.13802" lon="4.43278">
        <ele>1138</ele>
        <time>2020-06-08T08:27:20Z</time>
      </trkpt>
      <trkpt lat="45.13708" lon="4.43264">
        <ele>1138</ele>
        <time>2020-06-08T08:27:42Z</time>
      </trkpt>
      <trkpt lat="45.13646" lon="4.4325">
        <ele>1141</ele>
        <time>2020-06-08T08:27:57Z</time>
      </trkpt>
      <trkpt lat="45.1359" lon="4.43248">
        <ele>1145</ele>
        <time>2020-06-08T08:28:10Z</time>
      </trkpt>
      <trkpt lat="45.1349" lon="4.43162">
        <ele>1146</ele>
        <time>2020-06-08T08:28:37Z</time>
      </trkpt>
      <trkpt lat="45.13429" lon="4.43118">
        <ele>1143</ele>
        <time>2020-06-08T08:28:53Z</time>
      </trkpt>
      <trkpt lat="45.13409" lon="4.43107">
        <ele>1142</ele>
        <time>2020-06-08T08:28:58Z</time>
      </trkpt>
      <trkpt lat="45.13397" lon="4.43093">
        <ele>1141</ele>
        <time>2020-06-08T08:29:02Z</time>
      </trkpt>
      <trkpt lat="45.13365" lon="4.42959">
        <ele>1134</ele>
        <time>2020-06-08T08:29:25Z</time>
      </trkpt>
      <trkpt lat="45.13353" lon="4.42882">
        <ele>1130</ele>
        <time>2020-06-08T08:29:38Z</time>
      </trkpt>
      <trkpt lat="45.13399" lon="4.42815">
        <ele>1133</ele>
        <time>2020-06-08T08:29:54Z</time>
      </trkpt>
      <trkpt lat="45.13421" lon="4.4277">
        <ele>1136</ele>
        <time>2020-06-08T08:30:03Z</time>
      </trkpt>
      <trkpt lat="45.13467" lon="4.42553">
        <ele>1142</ele>
        <time>2020-06-08T08:30:40Z</time>
      </trkpt>
      <trkpt lat="45.13356" lon="4.424">
        <ele>1146</ele>
        <time>2020-06-08T08:31:16Z</time>
      </trkpt>
      <trkpt lat="45.13313" lon="4.42335">
        <ele>1148</ele>
        <time>2020-06-08T08:31:31Z</time>
      </trkpt>
      <trkpt lat="45.13298" lon="4.42297">
        <ele>1148</ele>
        <time>2020-06-08T08:31:38Z</time>
      </trkpt>
      <trkpt lat="45.13286" lon="4.42221">
        <ele>1150</ele>
        <time>2020-06-08T08:31:51Z</time>
      </trkpt>
      <trkpt lat="45.1328" lon="4.42128">
        <ele>1156</ele>
        <time>2020-06-08T08:32:06Z</time>
      </trkpt>
      <trkpt lat="45.13285" lon="4.42065">
        <ele>1159</ele>
        <time>2020-06-08T08:32:17Z</time>
      </trkpt>
      <trkpt lat="45.13283" lon="4.41937">
        <ele>1164</ele>
        <time>2020-06-08T08:32:38Z</time>
      </trkpt>
      <trkpt lat="45.13306" lon="4.41776">
        <ele>1173</ele>
        <time>2020-06-08T08:33:05Z</time>
      </trkpt>
      <trkpt lat="45.13347" lon="4.41614">
        <ele>1179</ele>
        <time>2020-06-08T08:33:33Z</time>
      </trkpt>
      <trkpt lat="45.13396" lon="4.41386">
        <ele>1167</ele>
        <time>2020-06-08T08:34:13Z</time>
      </trkpt>
      <trkpt lat="45.13389" lon="4.41325">
        <ele>1164</ele>
        <time>2020-06-08T08:34:23Z</time>
      </trkpt>
      <trkpt lat="45.1337" lon="4.4129">
        <ele>1165</ele>
        <time>2020-06-08T08:34:30Z</time>
      </trkpt>
      <trkpt lat="45.13318" lon="4.41268">
        <ele>1165</ele>
        <time>2020-06-08T08:34:43Z</time>
      </trkpt>
      <trkpt lat="45.13281" lon="4.4124">
        <ele>1170</ele>
        <time>2020-06-08T08:34:52Z</time>
      </trkpt>
      <trkpt lat="45.13258" lon="4.41228">
        <ele>1171</ele>
        <time>2020-06-08T08:34:58Z</time>
      </trkpt>
      <trkpt lat="45.1322" lon="4.4122">
        <ele>1171</ele>
        <time>2020-06-08T08:35:07Z</time>
      </trkpt>
      <trkpt lat="45.13179" lon="4.41206">
        <ele>1173</ele>
        <time>2020-06-08T08:35:17Z</time>
      </trkpt>
      <trkpt lat="45.13101" lon="4.412">
        <ele>1175</ele>
        <time>2020-06-08T08:35:35Z</time>
      </trkpt>
      <trkpt lat="45.13028" lon="4.41204">
        <ele>1175</ele>
        <time>2020-06-08T08:35:52Z</time>
      </trkpt>
      <trkpt lat="45.12982" lon="4.41203">
        <ele>1174</ele>
        <time>2020-06-08T08:36:03Z</time>
      </trkpt>
      <trkpt lat="45.12957" lon="4.41194">
        <ele>1172</ele>
        <time>2020-06-08T08:36:09Z</time>
      </trkpt>
      <trkpt lat="45.12932" lon="4.4117">
        <ele>1171</ele>
        <time>2020-06-08T08:36:16Z</time>
      </trkpt>
      <trkpt lat="45.129" lon="4.41101">
        <ele>1167</ele>
        <time>2020-06-08T08:36:30Z</time>
      </trkpt>
      <trkpt lat="45.1288" lon="4.41021">
        <ele>1164</ele>
        <time>2020-06-08T08:36:44Z</time>
      </trkpt>
      <trkpt lat="45.12853" lon="4.40874">
        <ele>1154</ele>
        <time>2020-06-08T08:37:09Z</time>
      </trkpt>
      <trkpt lat="45.12867" lon="4.40786">
        <ele>1151</ele>
        <time>2020-06-08T08:37:24Z</time>
      </trkpt>
      <trkpt lat="45.12882" lon="4.4074">
        <ele>1150</ele>
        <time>2020-06-08T08:37:32Z</time>
      </trkpt>
      <trkpt lat="45.12877" lon="4.40708">
        <ele>1151</ele>
        <time>2020-06-08T08:37:37Z</time>
      </trkpt>
      <trkpt lat="45.12839" lon="4.40697">
        <ele>1147</ele>
        <time>2020-06-08T08:37:46Z</time>
      </trkpt>
      <trkpt lat="45.12786" lon="4.40693">
        <ele>1143</ele>
        <time>2020-06-08T08:37:59Z</time>
      </trkpt>
      <trkpt lat="45.12738" lon="4.40686">
        <ele>1140</ele>
        <time>2020-06-08T08:38:10Z</time>
      </trkpt>
      <trkpt lat="45.12692" lon="4.40675">
        <ele>1139</ele>
        <time>2020-06-08T08:38:21Z</time>
      </trkpt>
      <trkpt lat="45.12642" lon="4.40652">
        <ele>1137</ele>
        <time>2020-06-08T08:38:33Z</time>
      </trkpt>
      <trkpt lat="45.12603" lon="4.4062">
        <ele>1137</ele>
        <time>2020-06-08T08:38:44Z</time>
      </trkpt>
      <trkpt lat="45.12542" lon="4.4055">
        <ele>1134</ele>
        <time>2020-06-08T08:39:02Z</time>
      </trkpt>
      <trkpt lat="45.12465" lon="4.40496">
        <ele>1126</ele>
        <time>2020-06-08T08:39:22Z</time>
      </trkpt>
      <trkpt lat="45.12387" lon="4.40433">
        <ele>1121</ele>
        <time>2020-06-08T08:39:43Z</time>
      </trkpt>
      <trkpt lat="45.12315" lon="4.40383">
        <ele>1119</ele>
        <time>2020-06-08T08:40:02Z</time>
      </trkpt>
      <trkpt lat="45.12151" lon="4.40258">
        <ele>1115</ele>
        <time>2020-06-08T08:40:45Z</time>
      </trkpt>
      <trkpt lat="45.12038" lon="4.40182">
        <ele>1118</ele>
        <time>2020-06-08T08:41:15Z</time>
      </trkpt>
      <trkpt lat="45.11937" lon="4.40128">
        <ele>1123</ele>
        <time>2020-06-08T08:41:40Z</time>
      </trkpt>
      <trkpt lat="45.11888" lon="4.40092">
        <ele>1125</ele>
        <time>2020-06-08T08:41:53Z</time>
      </trkpt>
      <trkpt lat="45.11806" lon="4.4005">
        <ele>1127</ele>
        <time>2020-06-08T08:42:13Z</time>
      </trkpt>
      <trkpt lat="45.1177" lon="4.40035">
        <ele>1129</ele>
        <time>2020-06-08T08:42:22Z</time>
      </trkpt>
      <trkpt lat="45.11739" lon="4.40026">
        <ele>1131</ele>
        <time>2020-06-08T08:42:29Z</time>
      </trkpt>
      <trkpt lat="45.1171" lon="4.40037">
        <ele>1131</ele>
        <time>2020-06-08T08:42:36Z</time>
      </trkpt>
      <trkpt lat="45.11624" lon="4.4003">
        <ele>1136</ele>
        <time>2020-06-08T08:42:56Z</time>
      </trkpt>
      <trkpt lat="45.11532" lon="4.40034">
        <ele>1141</ele>
        <time>2020-06-08T08:43:18Z</time>
      </trkpt>
      <trkpt lat="45.11487" lon="4.40033">
        <ele>1142</ele>
        <time>2020-06-08T08:43:28Z</time>
      </trkpt>
      <trkpt lat="45.11446" lon="4.40005">
        <ele>1138</ele>
        <time>2020-06-08T08:43:39Z</time>
      </trkpt>
      <trkpt lat="45.11431" lon="4.40001">
        <ele>1137</ele>
        <time>2020-06-08T08:43:42Z</time>
      </trkpt>
      <trkpt lat="45.1141" lon="4.3999">
        <ele>1136</ele>
        <time>2020-06-08T08:43:48Z</time>
      </trkpt>
      <trkpt lat="45.11375" lon="4.39979">
        <ele>1134</ele>
        <time>2020-06-08T08:43:56Z</time>
      </trkpt>
      <trkpt lat="45.11335" lon="4.39983">
        <ele>1130</ele>
        <time>2020-06-08T08:44:05Z</time>
      </trkpt>
      <trkpt lat="45.11305" lon="4.4">
        <ele>1131</ele>
        <time>2020-06-08T08:44:13Z</time>
      </trkpt>
      <trkpt lat="45.11252" lon="4.40043">
        <ele>1135</ele>
        <time>2020-06-08T08:44:27Z</time>
      </trkpt>
      <trkpt lat="45.11244" lon="4.40089">
        <ele>1135</ele>
        <time>2020-06-08T08:44:35Z</time>
      </trkpt>
      <trkpt lat="45.11234" lon="4.40124">
        <ele>1132</ele>
        <time>2020-06-08T08:44:41Z</time>
      </trkpt>
      <trkpt lat="45.11207" lon="4.40197">
        <ele>1126</ele>
        <time>2020-06-08T08:44:55Z</time>
      </trkpt>
      <trkpt lat="45.11163" lon="4.40295">
        <ele>1120</ele>
        <time>2020-06-08T08:45:14Z</time>
      </trkpt>
      <trkpt lat="45.11141" lon="4.40406">
        <ele>1119</ele>
        <time>2020-06-08T08:45:33Z</time>
      </trkpt>
      <trkpt lat="45.11136" lon="4.40481">
        <ele>1116</ele>
        <time>2020-06-08T08:45:45Z</time>
      </trkpt>
      <trkpt lat="45.11115" lon="4.40561">
        <ele>1113</ele>
        <time>2020-06-08T08:46:00Z</time>
      </trkpt>
      <trkpt lat="45.11081" lon="4.40567">
        <ele>1113</ele>
        <time>2020-06-08T08:46:08Z</time>
      </trkpt>
      <trkpt lat="45.11037" lon="4.40588">
        <ele>1117</ele>
        <time>2020-06-08T08:46:18Z</time>
      </trkpt>
      <trkpt lat="45.10983" lon="4.40603">
        <ele>1123</ele>
        <time>2020-06-08T08:46:31Z</time>
      </trkpt>
      <trkpt lat="45.10968" lon="4.40613">
        <ele>1124</ele>
        <time>2020-06-08T08:46:35Z</time>
      </trkpt>
      <trkpt lat="45.10824" lon="4.40673">
        <ele>1131</ele>
        <time>2020-06-08T08:47:10Z</time>
      </trkpt>
      <trkpt lat="45.10682" lon="4.40714">
        <ele>1139</ele>
        <time>2020-06-08T08:47:44Z</time>
      </trkpt>
      <trkpt lat="45.10584" lon="4.40699">
        <ele>1145</ele>
        <time>2020-06-08T08:48:07Z</time>
      </trkpt>
      <trkpt lat="45.10527" lon="4.40679">
        <ele>1148</ele>
        <time>2020-06-08T08:48:21Z</time>
      </trkpt>
      <trkpt lat="45.10329" lon="4.40565">
        <ele>1156</ele>
        <time>2020-06-08T08:49:11Z</time>
      </trkpt>
      <trkpt lat="45.10276" lon="4.40537">
        <ele>1157</ele>
        <time>2020-06-08T08:49:24Z</time>
      </trkpt>
      <trkpt lat="45.10243" lon="4.40516">
        <ele>1159</ele>
        <time>2020-06-08T08:49:32Z</time>
      </trkpt>
      <trkpt lat="45.10187" lon="4.40471">
        <ele>1162</ele>
        <time>2020-06-08T08:49:47Z</time>
      </trkpt>
      <trkpt lat="45.10143" lon="4.40441">
        <ele>1163</ele>
        <time>2020-06-08T08:49:59Z</time>
      </trkpt>
      <trkpt lat="45.10024" lon="4.40386">
        <ele>1161</ele>
        <time>2020-06-08T08:50:28Z</time>
      </trkpt>
      <trkpt lat="45.09786" lon="4.4026">
        <ele>1166</ele>
        <time>2020-06-08T08:51:27Z</time>
      </trkpt>
      <trkpt lat="45.0976" lon="4.40252">
        <ele>1164</ele>
        <time>2020-06-08T08:51:33Z</time>
      </trkpt>
      <trkpt lat="45.09673" lon="4.40182">
        <ele>1162</ele>
        <time>2020-06-08T08:51:57Z</time>
      </trkpt>
      <trkpt lat="45.09646" lon="4.40145">
        <ele>1162</ele>
        <time>2020-06-08T08:52:06Z</time>
      </trkpt>
      <trkpt lat="45.09619" lon="4.401">
        <ele>1163</ele>
        <time>2020-06-08T08:52:15Z</time>
      </trkpt>
      <trkpt lat="45.09536" lon="4.3995">
        <ele>1167</ele>
        <time>2020-06-08T08:52:47Z</time>
      </trkpt>
      <trkpt lat="45.09343" lon="4.39592">
        <ele>1178</ele>
        <time>2020-06-08T08:54:01Z</time>
      </trkpt>
      <trkpt lat="45.09302" lon="4.39522">
        <ele>1182</ele>
        <time>2020-06-08T08:54:16Z</time>
      </trkpt>
      <trkpt lat="45.09254" lon="4.39425">
        <ele>1185</ele>
        <time>2020-06-08T08:54:36Z</time>
      </trkpt>
      <trkpt lat="45.09057" lon="4.39056">
        <ele>1197</ele>
        <time>2020-06-08T08:55:52Z</time>
      </trkpt>
      <trkpt lat="45.09033" lon="4.39003">
        <ele>1201</ele>
        <time>2020-06-08T08:56:02Z</time>
      </trkpt>
      <trkpt lat="45.08959" lon="4.38721">
        <ele>1204</ele>
        <time>2020-06-08T08:56:52Z</time>
      </trkpt>
      <trkpt lat="45.08918" lon="4.38584">
        <ele>1200</ele>
        <time>2020-06-08T08:57:16Z</time>
      </trkpt>
      <trkpt lat="45.08904" lon="4.38557">
        <ele>1201</ele>
        <time>2020-06-08T08:57:22Z</time>
      </trkpt>
      <trkpt lat="45.08864" lon="4.38508">
        <ele>1202</ele>
        <time>2020-06-08T08:57:34Z</time>
      </trkpt>
      <trkpt lat="45.0877" lon="4.38443">
        <ele>1198</ele>
        <time>2020-06-08T08:57:59Z</time>
      </trkpt>
      <trkpt lat="45.08717" lon="4.38419">
        <ele>1196</ele>
        <time>2020-06-08T08:58:12Z</time>
      </trkpt>
      <trkpt lat="45.0856" lon="4.38363">
        <ele>1192</ele>
        <time>2020-06-08T08:58:49Z</time>
      </trkpt>
      <trkpt lat="45.08491" lon="4.38359">
        <ele>1191</ele>
        <time>2020-06-08T08:59:06Z</time>
      </trkpt>
      <trkpt lat="45.08312" lon="4.38443">
        <ele>1199</ele>
        <time>2020-06-08T08:59:50Z</time>
      </trkpt>
      <trkpt lat="45.08227" lon="4.38466">
        <ele>1201</ele>
        <time>2020-06-08T09:00:10Z</time>
      </trkpt>
      <trkpt lat="45.08167" lon="4.38468">
        <ele>1201</ele>
        <time>2020-06-08T09:00:24Z</time>
      </trkpt>
      <trkpt lat="45.08076" lon="4.38482">
        <ele>1201</ele>
        <time>2020-06-08T09:00:45Z</time>
      </trkpt>
      <trkpt lat="45.08056" lon="4.38506">
        <ele>1201</ele>
        <time>2020-06-08T09:00:51Z</time>
      </trkpt>
      <trkpt lat="45.08043" lon="4.38509">
        <ele>1201</ele>
        <time>2020-06-08T09:00:54Z</time>
      </trkpt>
      <trkpt lat="45.07978" lon="4.38551">
        <ele>1201</ele>
        <time>2020-06-08T09:01:11Z</time>
      </trkpt>
      <trkpt lat="45.07887" lon="4.38631">
        <ele>1197</ele>
        <time>2020-06-08T09:01:36Z</time>
      </trkpt>
      <trkpt lat="45.07819" lon="4.38681">
        <ele>1194</ele>
        <time>2020-06-08T09:01:54Z</time>
      </trkpt>
      <trkpt lat="45.07773" lon="4.38702">
        <ele>1194</ele>
        <time>2020-06-08T09:02:05Z</time>
      </trkpt>
      <trkpt lat="45.07699" lon="4.38741">
        <ele>1195</ele>
        <time>2020-06-08T09:02:24Z</time>
      </trkpt>
      <trkpt lat="45.07084" lon="4.39023">
        <ele>1176</ele>
        <time>2020-06-08T09:04:55Z</time>
      </trkpt>
      <trkpt lat="45.07055" lon="4.39029">
        <ele>1175</ele>
        <time>2020-06-08T09:05:02Z</time>
      </trkpt>
      <trkpt lat="45.07012" lon="4.38989">
        <ele>1173</ele>
        <time>2020-06-08T09:05:14Z</time>
      </trkpt>
      <trkpt lat="45.06975" lon="4.38961">
        <ele>1171</ele>
        <time>2020-06-08T09:05:23Z</time>
      </trkpt>
      <trkpt lat="45.0691" lon="4.38922">
        <ele>1164</ele>
        <time>2020-06-08T09:05:40Z</time>
      </trkpt>
      <trkpt lat="45.06842" lon="4.38912">
        <ele>1160</ele>
        <time>2020-06-08T09:05:56Z</time>
      </trkpt>
      <trkpt lat="45.06851" lon="4.38877">
        <ele>1157</ele>
        <time>2020-06-08T09:06:02Z</time>
      </trkpt>
      <trkpt lat="45.0685" lon="4.3882">
        <ele>1152</ele>
        <time>2020-06-08T09:06:11Z</time>
      </trkpt>
      <trkpt lat="45.06816" lon="4.38783">
        <ele>1147</ele>
        <time>2020-06-08T09:06:21Z</time>
      </trkpt>
      <trkpt lat="45.06808" lon="4.38784">
        <ele>1147</ele>
        <time>2020-06-08T09:06:23Z</time>
      </trkpt>
      <trkpt lat="45.06785" lon="4.38672">
        <ele>1138</ele>
        <time>2020-06-08T09:06:42Z</time>
      </trkpt>
      <trkpt lat="45.06803" lon="4.38622">
        <ele>1138</ele>
        <time>2020-06-08T09:06:52Z</time>
      </trkpt>
      <trkpt lat="45.06811" lon="4.38587">
        <ele>1139</ele>
        <time>2020-06-08T09:06:58Z</time>
      </trkpt>
      <trkpt lat="45.06807" lon="4.38563">
        <ele>1139</ele>
        <time>2020-06-08T09:07:02Z</time>
      </trkpt>
      <trkpt lat="45.06762" lon="4.38477">
        <ele>1134</ele>
        <time>2020-06-08T09:07:20Z</time>
      </trkpt>
      <trkpt lat="45.0674" lon="4.38415">
        <ele>1134</ele>
        <time>2020-06-08T09:07:31Z</time>
      </trkpt>
      <trkpt lat="45.06735" lon="4.38381">
        <ele>1134</ele>
        <time>2020-06-08T09:07:37Z</time>
      </trkpt>
      <trkpt lat="45.06711" lon="4.38281">
        <ele>1132</ele>
        <time>2020-06-08T09:07:54Z</time>
      </trkpt>
      <trkpt lat="45.06715" lon="4.38222">
        <ele>1131</ele>
        <time>2020-06-08T09:08:04Z</time>
      </trkpt>
      <trkpt lat="45.06707" lon="4.38187">
        <ele>1131</ele>
        <time>2020-06-08T09:08:10Z</time>
      </trkpt>
      <trkpt lat="45.06694" lon="4.38162">
        <ele>1130</ele>
        <time>2020-06-08T09:08:15Z</time>
      </trkpt>
      <trkpt lat="45.06626" lon="4.38091">
        <ele>1128</ele>
        <time>2020-06-08T09:08:35Z</time>
      </trkpt>
      <trkpt lat="45.06602" lon="4.38055">
        <ele>1129</ele>
        <time>2020-06-08T09:08:43Z</time>
      </trkpt>
      <trkpt lat="45.06572" lon="4.38017">
        <ele>1127</ele>
        <time>2020-06-08T09:08:52Z</time>
      </trkpt>
      <trkpt lat="45.06547" lon="4.37975">
        <ele>1124</ele>
        <time>2020-06-08T09:09:01Z</time>
      </trkpt>
      <trkpt lat="45.06532" lon="4.37933">
        <ele>1122</ele>
        <time>2020-06-08T09:09:09Z</time>
      </trkpt>
      <trkpt lat="45.06525" lon="4.37905">
        <ele>1122</ele>
        <time>2020-06-08T09:09:14Z</time>
      </trkpt>
      <trkpt lat="45.06518" lon="4.3789">
        <ele>1122</ele>
        <time>2020-06-08T09:09:17Z</time>
      </trkpt>
      <trkpt lat="45.06525" lon="4.37823">
        <ele>1127</ele>
        <time>2020-06-08T09:09:28Z</time>
      </trkpt>
      <trkpt lat="45.06527" lon="4.37761">
        <ele>1130</ele>
        <time>2020-06-08T09:09:38Z</time>
      </trkpt>
      <trkpt lat="45.06536" lon="4.37691">
        <ele>1130</ele>
        <time>2020-06-08T09:09:50Z</time>
      </trkpt>
      <trkpt lat="45.0656" lon="4.3756">
        <ele>1121</ele>
        <time>2020-06-08T09:10:13Z</time>
      </trkpt>
      <trkpt lat="45.06558" lon="4.37534">
        <ele>1117</ele>
        <time>2020-06-08T09:10:17Z</time>
      </trkpt>
      <trkpt lat="45.06566" lon="4.37522">
        <ele>1115</ele>
        <time>2020-06-08T09:10:20Z</time>
      </trkpt>
      <trkpt lat="45.06594" lon="4.37515">
        <ele>1113</ele>
        <time>2020-06-08T09:10:26Z</time>
      </trkpt>
      <trkpt lat="45.06654" lon="4.37515">
        <ele>1113</ele>
        <time>2020-06-08T09:10:40Z</time>
      </trkpt>
      <trkpt lat="45.06684" lon="4.37478">
        <ele>1112</ele>
        <time>2020-06-08T09:10:50Z</time>
      </trkpt>
      <trkpt lat="45.06632" lon="4.37402">
        <ele>1107</ele>
        <time>2020-06-08T09:11:07Z</time>
      </trkpt>
      <trkpt lat="45.06599" lon="4.37315">
        <ele>1105</ele>
        <time>2020-06-08T09:11:23Z</time>
      </trkpt>
      <trkpt lat="45.06587" lon="4.37227">
        <ele>1103</ele>
        <time>2020-06-08T09:11:38Z</time>
      </trkpt>
      <trkpt lat="45.06592" lon="4.37183">
        <ele>1101</ele>
        <time>2020-06-08T09:11:45Z</time>
      </trkpt>
      <trkpt lat="45.06548" lon="4.3702">
        <ele>1089</ele>
        <time>2020-06-08T09:12:14Z</time>
      </trkpt>
      <trkpt lat="45.06519" lon="4.37061">
        <ele>1087</ele>
        <time>2020-06-08T09:12:24Z</time>
      </trkpt>
      <trkpt lat="45.06502" lon="4.3707">
        <ele>1086</ele>
        <time>2020-06-08T09:12:28Z</time>
      </trkpt>
      <trkpt lat="45.06469" lon="4.3708">
        <ele>1082</ele>
        <time>2020-06-08T09:12:36Z</time>
      </trkpt>
      <trkpt lat="45.06417" lon="4.37102">
        <ele>1075</ele>
        <time>2020-06-08T09:12:49Z</time>
      </trkpt>
      <trkpt lat="45.06394" lon="4.37092">
        <ele>1073</ele>
        <time>2020-06-08T09:12:54Z</time>
      </trkpt>
      <trkpt lat="45.06388" lon="4.37072">
        <ele>1072</ele>
        <time>2020-06-08T09:12:58Z</time>
      </trkpt>
      <trkpt lat="45.06388" lon="4.37019">
        <ele>1070</ele>
        <time>2020-06-08T09:13:06Z</time>
      </trkpt>
      <trkpt lat="45.06385" lon="4.37003">
        <ele>1069</ele>
        <time>2020-06-08T09:13:09Z</time>
      </trkpt>
      <trkpt lat="45.06376" lon="4.36999">
        <ele>1068</ele>
        <time>2020-06-08T09:13:11Z</time>
      </trkpt>
      <trkpt lat="45.06362" lon="4.37011">
        <ele>1068</ele>
        <time>2020-06-08T09:13:15Z</time>
      </trkpt>
      <trkpt lat="45.06358" lon="4.37029">
        <ele>1068</ele>
        <time>2020-06-08T09:13:18Z</time>
      </trkpt>
      <trkpt lat="45.06352" lon="4.37039">
        <ele>1068</ele>
        <time>2020-06-08T09:13:21Z</time>
      </trkpt>
      <trkpt lat="45.06344" lon="4.37043">
        <ele>1067</ele>
        <time>2020-06-08T09:13:23Z</time>
      </trkpt>
      <trkpt lat="45.06335" lon="4.37026">
        <ele>1066</ele>
        <time>2020-06-08T09:13:26Z</time>
      </trkpt>
      <trkpt lat="45.0632" lon="4.36976">
        <ele>1067</ele>
        <time>2020-06-08T09:13:35Z</time>
      </trkpt>
      <trkpt lat="45.06303" lon="4.36966">
        <ele>1069</ele>
        <time>2020-06-08T09:13:39Z</time>
      </trkpt>
      <trkpt lat="45.0628" lon="4.36962">
        <ele>1071</ele>
        <time>2020-06-08T09:13:45Z</time>
      </trkpt>
      <trkpt lat="45.06236" lon="4.36965">
        <ele>1075</ele>
        <time>2020-06-08T09:13:55Z</time>
      </trkpt>
      <trkpt lat="45.06219" lon="4.36972">
        <ele>1077</ele>
        <time>2020-06-08T09:13:59Z</time>
      </trkpt>
      <trkpt lat="45.06105" lon="4.37076">
        <ele>1084</ele>
        <time>2020-06-08T09:14:31Z</time>
      </trkpt>
      <trkpt lat="45.0609" lon="4.37083">
        <ele>1086</ele>
        <time>2020-06-08T09:14:34Z</time>
      </trkpt>
      <trkpt lat="45.0601" lon="4.37081">
        <ele>1090</ele>
        <time>2020-06-08T09:14:53Z</time>
      </trkpt>
      <trkpt lat="45.05958" lon="4.3712">
        <ele>1090</ele>
        <time>2020-06-08T09:15:07Z</time>
      </trkpt>
      <trkpt lat="45.05845" lon="4.37269">
        <ele>1092</ele>
        <time>2020-06-08T09:15:43Z</time>
      </trkpt>
      <trkpt lat="45.05828" lon="4.37309">
        <ele>1091</ele>
        <time>2020-06-08T09:15:51Z</time>
      </trkpt>
      <trkpt lat="45.05811" lon="4.37363">
        <ele>1092</ele>
        <time>2020-06-08T09:16:00Z</time>
      </trkpt>
      <trkpt lat="45.058" lon="4.37381">
        <ele>1093</ele>
        <time>2020-06-08T09:16:04Z</time>
      </trkpt>
      <trkpt lat="45.05762" lon="4.37412">
        <ele>1095</ele>
        <time>2020-06-08T09:16:15Z</time>
      </trkpt>
      <trkpt lat="45.05709" lon="4.37442">
        <ele>1097</ele>
        <time>2020-06-08T09:16:28Z</time>
      </trkpt>
      <trkpt lat="45.0569" lon="4.37461">
        <ele>1098</ele>
        <time>2020-06-08T09:16:33Z</time>
      </trkpt>
      <trkpt lat="45.05662" lon="4.37513">
        <ele>1100</ele>
        <time>2020-06-08T09:16:44Z</time>
      </trkpt>
      <trkpt lat="45.05498" lon="4.37755">
        <ele>1099</ele>
        <time>2020-06-08T09:17:39Z</time>
      </trkpt>
      <trkpt lat="45.0547" lon="4.37775">
        <ele>1097</ele>
        <time>2020-06-08T09:17:47Z</time>
      </trkpt>
      <trkpt lat="45.05284" lon="4.3789">
        <ele>1098</ele>
        <time>2020-06-08T09:18:34Z</time>
      </trkpt>
      <trkpt lat="45.05262" lon="4.3793">
        <ele>1098</ele>
        <time>2020-06-08T09:18:43Z</time>
      </trkpt>
      <trkpt lat="45.05234" lon="4.37973">
        <ele>1100</ele>
        <time>2020-06-08T09:18:52Z</time>
      </trkpt>
      <trkpt lat="45.05231" lon="4.37996">
        <ele>1100</ele>
        <time>2020-06-08T09:18:56Z</time>
      </trkpt>
      <trkpt lat="45.05217" lon="4.38037">
        <ele>1101</ele>
        <time>2020-06-08T09:19:04Z</time>
      </trkpt>
      <trkpt lat="45.05192" lon="4.38076">
        <ele>1103</ele>
        <time>2020-06-08T09:19:12Z</time>
      </trkpt>
      <trkpt lat="45.0516" lon="4.38109">
        <ele>1105</ele>
        <time>2020-06-08T09:19:21Z</time>
      </trkpt>
      <trkpt lat="45.05115" lon="4.38146">
        <ele>1104</ele>
        <time>2020-06-08T09:19:34Z</time>
      </trkpt>
      <trkpt lat="45.05066" lon="4.38174">
        <ele>1103</ele>
        <time>2020-06-08T09:19:46Z</time>
      </trkpt>
      <trkpt lat="45.05036" lon="4.382">
        <ele>1098</ele>
        <time>2020-06-08T09:19:54Z</time>
      </trkpt>
      <trkpt lat="45.0502" lon="4.38201">
        <ele>1098</ele>
        <time>2020-06-08T09:19:58Z</time>
      </trkpt>
      <trkpt lat="45.04995" lon="4.38218">
        <ele>1097</ele>
        <time>2020-06-08T09:20:04Z</time>
      </trkpt>
      <trkpt lat="45.04966" lon="4.38265">
        <ele>1095</ele>
        <time>2020-06-08T09:20:15Z</time>
      </trkpt>
      <trkpt lat="45.04948" lon="4.38326">
        <ele>1091</ele>
        <time>2020-06-08T09:20:26Z</time>
      </trkpt>
      <trkpt lat="45.04934" lon="4.38345">
        <ele>1091</ele>
        <time>2020-06-08T09:20:30Z</time>
      </trkpt>
      <trkpt lat="45.04824" lon="4.38403">
        <ele>1096</ele>
        <time>2020-06-08T09:20:58Z</time>
      </trkpt>
      <trkpt lat="45.04657" lon="4.3847">
        <ele>1095</ele>
        <time>2020-06-08T09:21:38Z</time>
      </trkpt>
      <trkpt lat="45.04657" lon="4.38551">
        <ele>1090</ele>
        <time>2020-06-08T09:21:51Z</time>
      </trkpt>
      <trkpt lat="45.04661" lon="4.38591">
        <ele>1089</ele>
        <time>2020-06-08T09:21:58Z</time>
      </trkpt>
      <trkpt lat="45.04672" lon="4.38627">
        <ele>1091</ele>
        <time>2020-06-08T09:22:05Z</time>
      </trkpt>
      <trkpt lat="45.0472" lon="4.3874">
        <ele>1094</ele>
        <time>2020-06-08T09:22:26Z</time>
      </trkpt>
      <trkpt lat="45.04767" lon="4.38998">
        <ele>1083</ele>
        <time>2020-06-08T09:23:10Z</time>
      </trkpt>
      <trkpt lat="45.04768" lon="4.39024">
        <ele>1082</ele>
        <time>2020-06-08T09:23:15Z</time>
      </trkpt>
      <trkpt lat="45.04762" lon="4.39051">
        <ele>1080</ele>
        <time>2020-06-08T09:23:19Z</time>
      </trkpt>
      <trkpt lat="45.0475" lon="4.39069">
        <ele>1080</ele>
        <time>2020-06-08T09:23:23Z</time>
      </trkpt>
      <trkpt lat="45.04734" lon="4.3908">
        <ele>1080</ele>
        <time>2020-06-08T09:23:28Z</time>
      </trkpt>
      <trkpt lat="45.04705" lon="4.39087">
        <ele>1081</ele>
        <time>2020-06-08T09:23:34Z</time>
      </trkpt>
      <trkpt lat="45.04689" lon="4.39095">
        <ele>1081</ele>
        <time>2020-06-08T09:23:38Z</time>
      </trkpt>
      <trkpt lat="45.04686" lon="4.39136">
        <ele>1077</ele>
        <time>2020-06-08T09:23:45Z</time>
      </trkpt>
      <trkpt lat="45.0468" lon="4.39393">
        <ele>1078</ele>
        <time>2020-06-08T09:24:28Z</time>
      </trkpt>
      <trkpt lat="45.04704" lon="4.39398">
        <ele>1079</ele>
        <time>2020-06-08T09:24:33Z</time>
      </trkpt>
      <trkpt lat="45.04752" lon="4.39426">
        <ele>1083</ele>
        <time>2020-06-08T09:24:45Z</time>
      </trkpt>
      <trkpt lat="45.04778" lon="4.39433">
        <ele>1085</ele>
        <time>2020-06-08T09:24:52Z</time>
      </trkpt>
      <trkpt lat="45.04869" lon="4.39429">
        <ele>1084</ele>
        <time>2020-06-08T09:25:13Z</time>
      </trkpt>
      <trkpt lat="45.04895" lon="4.39425">
        <ele>1083</ele>
        <time>2020-06-08T09:25:19Z</time>
      </trkpt>
      <trkpt lat="45.04929" lon="4.39427">
        <ele>1082</ele>
        <time>2020-06-08T09:25:27Z</time>
      </trkpt>
      <trkpt lat="45.04943" lon="4.39447">
        <ele>1081</ele>
        <time>2020-06-08T09:25:32Z</time>
      </trkpt>
      <trkpt lat="45.04946" lon="4.3947">
        <ele>1082</ele>
        <time>2020-06-08T09:25:35Z</time>
      </trkpt>
      <trkpt lat="45.0495" lon="4.39514">
        <ele>1083</ele>
        <time>2020-06-08T09:25:43Z</time>
      </trkpt>
      <trkpt lat="45.04947" lon="4.39587">
        <ele>1083</ele>
        <time>2020-06-08T09:25:55Z</time>
      </trkpt>
      <trkpt lat="45.04918" lon="4.39558">
        <ele>1087</ele>
        <time>2020-06-08T09:26:03Z</time>
      </trkpt>
      <trkpt lat="45.04889" lon="4.39534">
        <ele>1090</ele>
        <time>2020-06-08T09:26:11Z</time>
      </trkpt>
      <trkpt lat="45.04872" lon="4.39546">
        <ele>1092</ele>
        <time>2020-06-08T09:26:15Z</time>
      </trkpt>
      <trkpt lat="45.04856" lon="4.39576">
        <ele>1095</ele>
        <time>2020-06-08T09:26:22Z</time>
      </trkpt>
      <trkpt lat="45.04845" lon="4.39625">
        <ele>1097</ele>
        <time>2020-06-08T09:26:30Z</time>
      </trkpt>
      <trkpt lat="45.04819" lon="4.39672">
        <ele>1100</ele>
        <time>2020-06-08T09:26:40Z</time>
      </trkpt>
      <trkpt lat="45.04798" lon="4.39753">
        <ele>1103</ele>
        <time>2020-06-08T09:26:54Z</time>
      </trkpt>
      <trkpt lat="45.04778" lon="4.398">
        <ele>1104</ele>
        <time>2020-06-08T09:27:03Z</time>
      </trkpt>
      <trkpt lat="45.04749" lon="4.39852">
        <ele>1106</ele>
        <time>2020-06-08T09:27:14Z</time>
      </trkpt>
      <trkpt lat="45.04672" lon="4.39974">
        <ele>1102</ele>
        <time>2020-06-08T09:27:41Z</time>
      </trkpt>
      <trkpt lat="45.04587" lon="4.40088">
        <ele>1098</ele>
        <time>2020-06-08T09:28:08Z</time>
      </trkpt>
      <trkpt lat="45.04529" lon="4.40193">
        <ele>1099</ele>
        <time>2020-06-08T09:28:30Z</time>
      </trkpt>
      <trkpt lat="45.04496" lon="4.40272">
        <ele>1103</ele>
        <time>2020-06-08T09:28:46Z</time>
      </trkpt>
      <trkpt lat="45.04474" lon="4.40309">
        <ele>1103</ele>
        <time>2020-06-08T09:28:54Z</time>
      </trkpt>
      <trkpt lat="45.04453" lon="4.40353">
        <ele>1104</ele>
        <time>2020-06-08T09:29:02Z</time>
      </trkpt>
      <trkpt lat="45.04427" lon="4.40398">
        <ele>1106</ele>
        <time>2020-06-08T09:29:12Z</time>
      </trkpt>
      <trkpt lat="45.04404" lon="4.40452">
        <ele>1107</ele>
        <time>2020-06-08T09:29:22Z</time>
      </trkpt>
      <trkpt lat="45.04388" lon="4.40519">
        <ele>1107</ele>
        <time>2020-06-08T09:29:34Z</time>
      </trkpt>
      <trkpt lat="45.04384" lon="4.40592">
        <ele>1103</ele>
        <time>2020-06-08T09:29:46Z</time>
      </trkpt>
      <trkpt lat="45.04373" lon="4.40595">
        <ele>1102</ele>
        <time>2020-06-08T09:29:49Z</time>
      </trkpt>
      <trkpt lat="45.04355" lon="4.40578">
        <ele>1102</ele>
        <time>2020-06-08T09:29:54Z</time>
      </trkpt>
      <trkpt lat="45.04328" lon="4.4058">
        <ele>1101</ele>
        <time>2020-06-08T09:30:00Z</time>
      </trkpt>
      <trkpt lat="45.04128" lon="4.40663">
        <ele>1103</ele>
        <time>2020-06-08T09:30:49Z</time>
      </trkpt>
      <trkpt lat="45.04059" lon="4.40675">
        <ele>1110</ele>
        <time>2020-06-08T09:31:05Z</time>
      </trkpt>
      <trkpt lat="45.03992" lon="4.40677">
        <ele>1112</ele>
        <time>2020-06-08T09:31:21Z</time>
      </trkpt>
      <trkpt lat="45.03947" lon="4.40675">
        <ele>1113</ele>
        <time>2020-06-08T09:31:31Z</time>
      </trkpt>
      <trkpt lat="45.03842" lon="4.40682">
        <ele>1113</ele>
        <time>2020-06-08T09:31:56Z</time>
      </trkpt>
      <trkpt lat="45.03794" lon="4.4068">
        <ele>1111</ele>
        <time>2020-06-08T09:32:07Z</time>
      </trkpt>
      <trkpt lat="45.03744" lon="4.40673">
        <ele>1108</ele>
        <time>2020-06-08T09:32:19Z</time>
      </trkpt>
      <trkpt lat="45.03569" lon="4.40632">
        <ele>1103</ele>
        <time>2020-06-08T09:33:00Z</time>
      </trkpt>
      <trkpt lat="45.033" lon="4.40654">
        <ele>1088</ele>
        <time>2020-06-08T09:34:03Z</time>
      </trkpt>
      <trkpt lat="45.03098" lon="4.40679">
        <ele>1075</ele>
        <time>2020-06-08T09:34:50Z</time>
      </trkpt>
      <trkpt lat="45.03073" lon="4.40668">
        <ele>1074</ele>
        <time>2020-06-08T09:34:56Z</time>
      </trkpt>
      <trkpt lat="45.03024" lon="4.40662">
        <ele>1072</ele>
        <time>2020-06-08T09:35:08Z</time>
      </trkpt>
      <trkpt lat="45.02961" lon="4.40629">
        <ele>1069</ele>
        <time>2020-06-08T09:35:24Z</time>
      </trkpt>
      <trkpt lat="45.02848" lon="4.4055">
        <ele>1063</ele>
        <time>2020-06-08T09:35:53Z</time>
      </trkpt>
      <trkpt lat="45.02784" lon="4.40498">
        <ele>1060</ele>
        <time>2020-06-08T09:36:10Z</time>
      </trkpt>
      <trkpt lat="45.02757" lon="4.40435">
        <ele>1062</ele>
        <time>2020-06-08T09:36:22Z</time>
      </trkpt>
      <trkpt lat="45.02778" lon="4.40403">
        <ele>1062</ele>
        <time>2020-06-08T09:36:30Z</time>
      </trkpt>
      <trkpt lat="45.02781" lon="4.40324">
        <ele>1066</ele>
        <time>2020-06-08T09:36:43Z</time>
      </trkpt>
      <trkpt lat="45.02731" lon="4.40115">
        <ele>1062</ele>
        <time>2020-06-08T09:37:19Z</time>
      </trkpt>
      <trkpt lat="45.02731" lon="4.4003">
        <ele>1057</ele>
        <time>2020-06-08T09:37:33Z</time>
      </trkpt>
      <trkpt lat="45.02683" lon="4.39835">
        <ele>1049</ele>
        <time>2020-06-08T09:38:07Z</time>
      </trkpt>
      <trkpt lat="45.02669" lon="4.39822">
        <ele>1049</ele>
        <time>2020-06-08T09:38:11Z</time>
      </trkpt>
      <trkpt lat="45.0265" lon="4.39815">
        <ele>1047</ele>
        <time>2020-06-08T09:38:16Z</time>
      </trkpt>
      <trkpt lat="45.02555" lon="4.39828">
        <ele>1041</ele>
        <time>2020-06-08T09:38:38Z</time>
      </trkpt>
      <trkpt lat="45.02534" lon="4.39843">
        <ele>1041</ele>
        <time>2020-06-08T09:38:43Z</time>
      </trkpt>
      <trkpt lat="45.02514" lon="4.39842">
        <ele>1041</ele>
        <time>2020-06-08T09:38:48Z</time>
      </trkpt>
      <trkpt lat="45.02497" lon="4.39819">
        <ele>1039</ele>
        <time>2020-06-08T09:38:54Z</time>
      </trkpt>
      <trkpt lat="45.02481" lon="4.39775">
        <ele>1036</ele>
        <time>2020-06-08T09:39:02Z</time>
      </trkpt>
      <trkpt lat="45.02474" lon="4.3972">
        <ele>1031</ele>
        <time>2020-06-08T09:39:11Z</time>
      </trkpt>
      <trkpt lat="45.02433" lon="4.39657">
        <ele>1025</ele>
        <time>2020-06-08T09:39:25Z</time>
      </trkpt>
      <trkpt lat="45.02426" lon="4.39629">
        <ele>1023</ele>
        <time>2020-06-08T09:39:30Z</time>
      </trkpt>
      <trkpt lat="45.02413" lon="4.39518">
        <ele>1023</ele>
        <time>2020-06-08T09:39:49Z</time>
      </trkpt>
      <trkpt lat="45.02418" lon="4.3941">
        <ele>1027</ele>
        <time>2020-06-08T09:40:07Z</time>
      </trkpt>
      <trkpt lat="45.02435" lon="4.39288">
        <ele>1035</ele>
        <time>2020-06-08T09:40:27Z</time>
      </trkpt>
      <trkpt lat="45.02351" lon="4.3929">
        <ele>1031</ele>
        <time>2020-06-08T09:40:47Z</time>
      </trkpt>
      <trkpt lat="45.02322" lon="4.393">
        <ele>1030</ele>
        <time>2020-06-08T09:40:54Z</time>
      </trkpt>
      <trkpt lat="45.02313" lon="4.39328">
        <ele>1031</ele>
        <time>2020-06-08T09:40:59Z</time>
      </trkpt>
      <trkpt lat="45.02288" lon="4.39364">
        <ele>1029</ele>
        <time>2020-06-08T09:41:07Z</time>
      </trkpt>
      <trkpt lat="45.02244" lon="4.39397">
        <ele>1027</ele>
        <time>2020-06-08T09:41:19Z</time>
      </trkpt>
      <trkpt lat="45.02242" lon="4.39447">
        <ele>1024</ele>
        <time>2020-06-08T09:41:27Z</time>
      </trkpt>
      <trkpt lat="45.02222" lon="4.3946">
        <ele>1024</ele>
        <time>2020-06-08T09:41:32Z</time>
      </trkpt>
      <trkpt lat="45.02198" lon="4.39454">
        <ele>1024</ele>
        <time>2020-06-08T09:41:38Z</time>
      </trkpt>
      <trkpt lat="45.02156" lon="4.39461">
        <ele>1024</ele>
        <time>2020-06-08T09:41:48Z</time>
      </trkpt>
      <trkpt lat="45.02111" lon="4.39513">
        <ele>1021</ele>
        <time>2020-06-08T09:42:01Z</time>
      </trkpt>
      <trkpt lat="45.02078" lon="4.39523">
        <ele>1023</ele>
        <time>2020-06-08T09:42:09Z</time>
      </trkpt>
      <trkpt lat="45.02058" lon="4.3952">
        <ele>1026</ele>
        <time>2020-06-08T09:42:14Z</time>
      </trkpt>
      <trkpt lat="45.02038" lon="4.3951">
        <ele>1028</ele>
        <time>2020-06-08T09:42:19Z</time>
      </trkpt>
      <trkpt lat="45.02014" lon="4.39489">
        <ele>1031</ele>
        <time>2020-06-08T09:42:25Z</time>
      </trkpt>
      <trkpt lat="45.01901" lon="4.3949">
        <ele>1053</ele>
        <time>2020-06-08T09:42:52Z</time>
      </trkpt>
      <trkpt lat="45.01852" lon="4.39512">
        <ele>1060</ele>
        <time>2020-06-08T09:43:04Z</time>
      </trkpt>
      <trkpt lat="45.01828" lon="4.39541">
        <ele>1064</ele>
        <time>2020-06-08T09:43:11Z</time>
      </trkpt>
      <trkpt lat="45.0178" lon="4.39554">
        <ele>1068</ele>
        <time>2020-06-08T09:43:23Z</time>
      </trkpt>
      <trkpt lat="45.01747" lon="4.39573">
        <ele>1073</ele>
        <time>2020-06-08T09:43:31Z</time>
      </trkpt>
      <trkpt lat="45.01705" lon="4.3959">
        <ele>1072</ele>
        <time>2020-06-08T09:43:41Z</time>
      </trkpt>
      <trkpt lat="45.0167" lon="4.39617">
        <ele>1074</ele>
        <time>2020-06-08T09:43:50Z</time>
      </trkpt>
      <trkpt lat="45.01638" lon="4.39655">
        <ele>1077</ele>
        <time>2020-06-08T09:44:00Z</time>
      </trkpt>
      <trkpt lat="45.01587" lon="4.39728">
        <ele>1076</ele>
        <time>2020-06-08T09:44:17Z</time>
      </trkpt>
      <trkpt lat="45.01559" lon="4.39744">
        <ele>1079</ele>
        <time>2020-06-08T09:44:24Z</time>
      </trkpt>
      <trkpt lat="45.0152" lon="4.39735">
        <ele>1083</ele>
        <time>2020-06-08T09:44:33Z</time>
      </trkpt>
      <trkpt lat="45.01511" lon="4.39737">
        <ele>1084</ele>
        <time>2020-06-08T09:44:35Z</time>
      </trkpt>
      <trkpt lat="45.01509" lon="4.39729">
        <ele>1085</ele>
        <time>2020-06-08T09:44:37Z</time>
      </trkpt>
      <trkpt lat="45.01486" lon="4.39713">
        <ele>1088</ele>
        <time>2020-06-08T09:44:43Z</time>
      </trkpt>
      <trkpt lat="45.01344" lon="4.39685">
        <ele>1106</ele>
        <time>2020-06-08T09:45:16Z</time>
      </trkpt>
      <trkpt lat="45.01324" lon="4.3968">
        <ele>1108</ele>
        <time>2020-06-08T09:45:21Z</time>
      </trkpt>
      <trkpt lat="45.01315" lon="4.39674">
        <ele>1109</ele>
        <time>2020-06-08T09:45:23Z</time>
      </trkpt>
      <trkpt lat="45.01329" lon="4.39667">
        <ele>1111</ele>
        <time>2020-06-08T09:45:27Z</time>
      </trkpt>
      <trkpt lat="45.01376" lon="4.39615">
        <ele>1114</ele>
        <time>2020-06-08T09:45:41Z</time>
      </trkpt>
      <trkpt lat="45.01391" lon="4.39585">
        <ele>1116</ele>
        <time>2020-06-08T09:45:47Z</time>
      </trkpt>
      <trkpt lat="45.01402" lon="4.39548">
        <ele>1116</ele>
        <time>2020-06-08T09:45:53Z</time>
      </trkpt>
      <trkpt lat="45.014" lon="4.39503">
        <ele>1117</ele>
        <time>2020-06-08T09:46:01Z</time>
      </trkpt>
      <trkpt lat="45.01394" lon="4.39482">
        <ele>1115</ele>
        <time>2020-06-08T09:46:05Z</time>
      </trkpt>
      <trkpt lat="45.01385" lon="4.39467">
        <ele>1113</ele>
        <time>2020-06-08T09:46:08Z</time>
      </trkpt>
      <trkpt lat="45.01367" lon="4.39452">
        <ele>1112</ele>
        <time>2020-06-08T09:46:13Z</time>
      </trkpt>
      <trkpt lat="45.01347" lon="4.39446">
        <ele>1113</ele>
        <time>2020-06-08T09:46:18Z</time>
      </trkpt>
      <trkpt lat="45.01306" lon="4.39449">
        <ele>1112</ele>
        <time>2020-06-08T09:46:27Z</time>
      </trkpt>
      <trkpt lat="45.01279" lon="4.39466">
        <ele>1111</ele>
        <time>2020-06-08T09:46:34Z</time>
      </trkpt>
      <trkpt lat="45.01264" lon="4.39507">
        <ele>1115</ele>
        <time>2020-06-08T09:46:42Z</time>
      </trkpt>
      <trkpt lat="45.01235" lon="4.39549">
        <ele>1111</ele>
        <time>2020-06-08T09:46:51Z</time>
      </trkpt>
      <trkpt lat="45.0123" lon="4.39567">
        <ele>1110</ele>
        <time>2020-06-08T09:46:55Z</time>
      </trkpt>
      <trkpt lat="45.01216" lon="4.39578">
        <ele>1107</ele>
        <time>2020-06-08T09:46:58Z</time>
      </trkpt>
      <trkpt lat="45.01205" lon="4.39605">
        <ele>1104</ele>
        <time>2020-06-08T09:47:03Z</time>
      </trkpt>
      <trkpt lat="45.01207" lon="4.39635">
        <ele>1104</ele>
        <time>2020-06-08T09:47:08Z</time>
      </trkpt>
      <trkpt lat="45.01192" lon="4.3966">
        <ele>1101</ele>
        <time>2020-06-08T09:47:14Z</time>
      </trkpt>
      <trkpt lat="45.01189" lon="4.39658">
        <ele>1101</ele>
        <time>2020-06-08T09:47:15Z</time>
      </trkpt>
      <trkpt lat="45.01176" lon="4.39676">
        <ele>1098</ele>
        <time>2020-06-08T09:47:19Z</time>
      </trkpt>
      <trkpt lat="45.01152" lon="4.39694">
        <ele>1093</ele>
        <time>2020-06-08T09:47:25Z</time>
      </trkpt>
      <trkpt lat="45.01084" lon="4.39704">
        <ele>1084</ele>
        <time>2020-06-08T09:47:41Z</time>
      </trkpt>
      <trkpt lat="45.01079" lon="4.3969">
        <ele>1082</ele>
        <time>2020-06-08T09:47:44Z</time>
      </trkpt>
      <trkpt lat="45.01069" lon="4.39676">
        <ele>1080</ele>
        <time>2020-06-08T09:47:47Z</time>
      </trkpt>
      <trkpt lat="45.01048" lon="4.39659">
        <ele>1076</ele>
        <time>2020-06-08T09:47:53Z</time>
      </trkpt>
      <trkpt lat="45.01035" lon="4.3959">
        <ele>1071</ele>
        <time>2020-06-08T09:48:04Z</time>
      </trkpt>
      <trkpt lat="45.01024" lon="4.39568">
        <ele>1069</ele>
        <time>2020-06-08T09:48:09Z</time>
      </trkpt>
      <trkpt lat="45.01014" lon="4.39528">
        <ele>1068</ele>
        <time>2020-06-08T09:48:16Z</time>
      </trkpt>
      <trkpt lat="45.01031" lon="4.39469">
        <ele>1068</ele>
        <time>2020-06-08T09:48:26Z</time>
      </trkpt>
      <trkpt lat="45.01088" lon="4.39342">
        <ele>1062</ele>
        <time>2020-06-08T09:48:51Z</time>
      </trkpt>
      <trkpt lat="45.01155" lon="4.39208">
        <ele>1060</ele>
        <time>2020-06-08T09:49:18Z</time>
      </trkpt>
      <trkpt lat="45.01248" lon="4.39116">
        <ele>1059</ele>
        <time>2020-06-08T09:49:45Z</time>
      </trkpt>
      <trkpt lat="45.01285" lon="4.39083">
        <ele>1057</ele>
        <time>2020-06-08T09:49:55Z</time>
      </trkpt>
      <trkpt lat="45.0131" lon="4.39066">
        <ele>1057</ele>
        <time>2020-06-08T09:50:02Z</time>
      </trkpt>
      <trkpt lat="45.01332" lon="4.3904">
        <ele>1056</ele>
        <time>2020-06-08T09:50:08Z</time>
      </trkpt>
      <trkpt lat="45.01353" lon="4.39004">
        <ele>1055</ele>
        <time>2020-06-08T09:50:16Z</time>
      </trkpt>
      <trkpt lat="45.01383" lon="4.38929">
        <ele>1054</ele>
        <time>2020-06-08T09:50:30Z</time>
      </trkpt>
      <trkpt lat="45.01405" lon="4.38881">
        <ele>1054</ele>
        <time>2020-06-08T09:50:40Z</time>
      </trkpt>
      <trkpt lat="45.01429" lon="4.38844">
        <ele>1053</ele>
        <time>2020-06-08T09:50:48Z</time>
      </trkpt>
      <trkpt lat="45.01464" lon="4.38797">
        <ele>1051</ele>
        <time>2020-06-08T09:50:59Z</time>
      </trkpt>
      <trkpt lat="45.01472" lon="4.3879">
        <ele>1051</ele>
        <time>2020-06-08T09:51:01Z</time>
      </trkpt>
      <trkpt lat="45.01473" lon="4.38779">
        <ele>1051</ele>
        <time>2020-06-08T09:51:03Z</time>
      </trkpt>
      <trkpt lat="45.01477" lon="4.38775">
        <ele>1050</ele>
        <time>2020-06-08T09:51:04Z</time>
      </trkpt>
      <trkpt lat="45.01475" lon="4.38761">
        <ele>1050</ele>
        <time>2020-06-08T09:51:07Z</time>
      </trkpt>
      <trkpt lat="45.01487" lon="4.38714">
        <ele>1049</ele>
        <time>2020-06-08T09:51:15Z</time>
      </trkpt>
      <trkpt lat="45.01506" lon="4.38612">
        <ele>1046</ele>
        <time>2020-06-08T09:51:32Z</time>
      </trkpt>
      <trkpt lat="45.01506" lon="4.38569">
        <ele>1045</ele>
        <time>2020-06-08T09:51:40Z</time>
      </trkpt>
      <trkpt lat="45.01518" lon="4.38528">
        <ele>1044</ele>
        <time>2020-06-08T09:51:47Z</time>
      </trkpt>
      <trkpt lat="45.0152" lon="4.38497">
        <ele>1043</ele>
        <time>2020-06-08T09:51:52Z</time>
      </trkpt>
      <trkpt lat="45.01535" lon="4.38444">
        <ele>1043</ele>
        <time>2020-06-08T09:52:01Z</time>
      </trkpt>
      <trkpt lat="45.01537" lon="4.38386">
        <ele>1043</ele>
        <time>2020-06-08T09:52:11Z</time>
      </trkpt>
      <trkpt lat="45.01553" lon="4.3827">
        <ele>1035</ele>
        <time>2020-06-08T09:52:30Z</time>
      </trkpt>
      <trkpt lat="45.01574" lon="4.38257">
        <ele>1032</ele>
        <time>2020-06-08T09:52:36Z</time>
      </trkpt>
      <trkpt lat="45.01591" lon="4.38211">
        <ele>1026</ele>
        <time>2020-06-08T09:52:44Z</time>
      </trkpt>
      <trkpt lat="45.01675" lon="4.38075">
        <ele>1001</ele>
        <time>2020-06-08T09:53:14Z</time>
      </trkpt>
      <trkpt lat="45.01687" lon="4.3805">
        <ele>1004</ele>
        <time>2020-06-08T09:53:19Z</time>
      </trkpt>
      <trkpt lat="45.01689" lon="4.38036">
        <ele>1006</ele>
        <time>2020-06-08T09:53:22Z</time>
      </trkpt>
      <trkpt lat="45.0167" lon="4.38021">
        <ele>1006</ele>
        <time>2020-06-08T09:53:27Z</time>
      </trkpt>
      <trkpt lat="45.01661" lon="4.37991">
        <ele>1009</ele>
        <time>2020-06-08T09:53:32Z</time>
      </trkpt>
      <trkpt lat="45.01633" lon="4.37974">
        <ele>1012</ele>
        <time>2020-06-08T09:53:39Z</time>
      </trkpt>
      <trkpt lat="45.01608" lon="4.37953">
        <ele>1017</ele>
        <time>2020-06-08T09:53:46Z</time>
      </trkpt>
      <trkpt lat="45.01598" lon="4.37919">
        <ele>1024</ele>
        <time>2020-06-08T09:53:52Z</time>
      </trkpt>
      <trkpt lat="45.01595" lon="4.3788">
        <ele>1025</ele>
        <time>2020-06-08T09:53:58Z</time>
      </trkpt>
      <trkpt lat="45.01604" lon="4.37809">
        <ele>1022</ele>
        <time>2020-06-08T09:54:10Z</time>
      </trkpt>
      <trkpt lat="45.01636" lon="4.37821">
        <ele>1020</ele>
        <time>2020-06-08T09:54:18Z</time>
      </trkpt>
      <trkpt lat="45.01684" lon="4.37859">
        <ele>1019</ele>
        <time>2020-06-08T09:54:31Z</time>
      </trkpt>
      <trkpt lat="45.01703" lon="4.37868">
        <ele>1019</ele>
        <time>2020-06-08T09:54:36Z</time>
      </trkpt>
      <trkpt lat="45.01707" lon="4.37898">
        <ele>1021</ele>
        <time>2020-06-08T09:54:41Z</time>
      </trkpt>
      <trkpt lat="45.01721" lon="4.37896">
        <ele>1021</ele>
        <time>2020-06-08T09:54:44Z</time>
      </trkpt>
      <trkpt lat="45.01732" lon="4.37887">
        <ele>1021</ele>
        <time>2020-06-08T09:54:47Z</time>
      </trkpt>
      <trkpt lat="45.01791" lon="4.37808">
        <ele>1018</ele>
        <time>2020-06-08T09:55:06Z</time>
      </trkpt>
      <trkpt lat="45.01808" lon="4.37796">
        <ele>1019</ele>
        <time>2020-06-08T09:55:10Z</time>
      </trkpt>
      <trkpt lat="45.01818" lon="4.37774">
        <ele>1018</ele>
        <time>2020-06-08T09:55:15Z</time>
      </trkpt>
      <trkpt lat="45.01837" lon="4.3775">
        <ele>1017</ele>
        <time>2020-06-08T09:55:21Z</time>
      </trkpt>
      <trkpt lat="45.01839" lon="4.37712">
        <ele>1019</ele>
        <time>2020-06-08T09:55:27Z</time>
      </trkpt>
      <trkpt lat="45.01834" lon="4.37701">
        <ele>1019</ele>
        <time>2020-06-08T09:55:29Z</time>
      </trkpt>
      <trkpt lat="45.01793" lon="4.37678">
        <ele>1017</ele>
        <time>2020-06-08T09:55:39Z</time>
      </trkpt>
      <trkpt lat="45.01754" lon="4.37573">
        <ele>1021</ele>
        <time>2020-06-08T09:55:59Z</time>
      </trkpt>
      <trkpt lat="45.01754" lon="4.37522">
        <ele>1022</ele>
        <time>2020-06-08T09:56:07Z</time>
      </trkpt>
      <trkpt lat="45.01768" lon="4.3748">
        <ele>1023</ele>
        <time>2020-06-08T09:56:15Z</time>
      </trkpt>
      <trkpt lat="45.0177" lon="4.37446">
        <ele>1023</ele>
        <time>2020-06-08T09:56:21Z</time>
      </trkpt>
      <trkpt lat="45.01757" lon="4.37423">
        <ele>1022</ele>
        <time>2020-06-08T09:56:26Z</time>
      </trkpt>
      <trkpt lat="45.01689" lon="4.37397">
        <ele>1017</ele>
        <time>2020-06-08T09:56:42Z</time>
      </trkpt>
      <trkpt lat="45.01674" lon="4.37361">
        <ele>1016</ele>
        <time>2020-06-08T09:56:49Z</time>
      </trkpt>
      <trkpt lat="45.01656" lon="4.37301">
        <ele>1013</ele>
        <time>2020-06-08T09:57:00Z</time>
      </trkpt>
      <trkpt lat="45.01657" lon="4.37251">
        <ele>1010</ele>
        <time>2020-06-08T09:57:08Z</time>
      </trkpt>
      <trkpt lat="45.01651" lon="4.37178">
        <ele>1008</ele>
        <time>2020-06-08T09:57:20Z</time>
      </trkpt>
      <trkpt lat="45.01663" lon="4.37075">
        <ele>1009</ele>
        <time>2020-06-08T09:57:37Z</time>
      </trkpt>
      <trkpt lat="45.01672" lon="4.36957">
        <ele>1011</ele>
        <time>2020-06-08T09:57:57Z</time>
      </trkpt>
      <trkpt lat="45.01671" lon="4.3689">
        <ele>1011</ele>
        <time>2020-06-08T09:58:08Z</time>
      </trkpt>
      <trkpt lat="45.01667" lon="4.3684">
        <ele>1009</ele>
        <time>2020-06-08T09:58:16Z</time>
      </trkpt>
      <trkpt lat="45.01675" lon="4.36805">
        <ele>1009</ele>
        <time>2020-06-08T09:58:22Z</time>
      </trkpt>
      <trkpt lat="45.0168" lon="4.36731">
        <ele>1009</ele>
        <time>2020-06-08T09:58:35Z</time>
      </trkpt>
      <trkpt lat="45.01661" lon="4.36673">
        <ele>1013</ele>
        <time>2020-06-08T09:58:45Z</time>
      </trkpt>
      <trkpt lat="45.01673" lon="4.3661">
        <ele>1021</ele>
        <time>2020-06-08T09:58:56Z</time>
      </trkpt>
      <trkpt lat="45.01714" lon="4.36566">
        <ele>1023</ele>
        <time>2020-06-08T09:59:08Z</time>
      </trkpt>
      <trkpt lat="45.01809" lon="4.36437">
        <ele>1030</ele>
        <time>2020-06-08T09:59:39Z</time>
      </trkpt>
      <trkpt lat="45.0183" lon="4.36396">
        <ele>1031</ele>
        <time>2020-06-08T09:59:47Z</time>
      </trkpt>
      <trkpt lat="45.01839" lon="4.36366">
        <ele>1032</ele>
        <time>2020-06-08T09:59:52Z</time>
      </trkpt>
      <trkpt lat="45.01867" lon="4.36305">
        <ele>1033</ele>
        <time>2020-06-08T10:00:04Z</time>
      </trkpt>
      <trkpt lat="45.01861" lon="4.36292">
        <ele>1033</ele>
        <time>2020-06-08T10:00:07Z</time>
      </trkpt>
      <trkpt lat="45.01847" lon="4.36283">
        <ele>1033</ele>
        <time>2020-06-08T10:00:11Z</time>
      </trkpt>
      <trkpt lat="45.01829" lon="4.36264">
        <ele>1033</ele>
        <time>2020-06-08T10:00:16Z</time>
      </trkpt>
      <trkpt lat="45.01815" lon="4.36234">
        <ele>1033</ele>
        <time>2020-06-08T10:00:22Z</time>
      </trkpt>
      <trkpt lat="45.01795" lon="4.36212">
        <ele>1033</ele>
        <time>2020-06-08T10:00:28Z</time>
      </trkpt>
      <trkpt lat="45.0179" lon="4.36162">
        <ele>1032</ele>
        <time>2020-06-08T10:00:36Z</time>
      </trkpt>
      <trkpt lat="45.0177" lon="4.36079">
        <ele>1028</ele>
        <time>2020-06-08T10:00:50Z</time>
      </trkpt>
      <trkpt lat="45.0175" lon="4.36012">
        <ele>1030</ele>
        <time>2020-06-08T10:01:02Z</time>
      </trkpt>
      <trkpt lat="45.01707" lon="4.35891">
        <ele>1028</ele>
        <time>2020-06-08T10:01:25Z</time>
      </trkpt>
      <trkpt lat="45.01671" lon="4.35777">
        <ele>1029</ele>
        <time>2020-06-08T10:01:45Z</time>
      </trkpt>
      <trkpt lat="45.01625" lon="4.35692">
        <ele>1025</ele>
        <time>2020-06-08T10:02:03Z</time>
      </trkpt>
      <trkpt lat="45.01496" lon="4.35766">
        <ele>1018</ele>
        <time>2020-06-08T10:02:36Z</time>
      </trkpt>
      <trkpt lat="45.01474" lon="4.35764">
        <ele>1016</ele>
        <time>2020-06-08T10:02:41Z</time>
      </trkpt>
      <trkpt lat="45.01463" lon="4.35676">
        <ele>1019</ele>
        <time>2020-06-08T10:02:56Z</time>
      </trkpt>
      <trkpt lat="45.01461" lon="4.35583">
        <ele>1020</ele>
        <time>2020-06-08T10:03:11Z</time>
      </trkpt>
      <trkpt lat="45.01519" lon="4.35471">
        <ele>1022</ele>
        <time>2020-06-08T10:03:34Z</time>
      </trkpt>
      <trkpt lat="45.01555" lon="4.3542">
        <ele>1024</ele>
        <time>2020-06-08T10:03:46Z</time>
      </trkpt>
      <trkpt lat="45.016" lon="4.35402">
        <ele>1027</ele>
        <time>2020-06-08T10:03:57Z</time>
      </trkpt>
      <trkpt lat="45.01655" lon="4.35398">
        <ele>1028</ele>
        <time>2020-06-08T10:04:09Z</time>
      </trkpt>
      <trkpt lat="45.0171" lon="4.3538">
        <ele>1030</ele>
        <time>2020-06-08T10:04:23Z</time>
      </trkpt>
      <trkpt lat="45.0175" lon="4.35343">
        <ele>1031</ele>
        <time>2020-06-08T10:04:34Z</time>
      </trkpt>
      <trkpt lat="45.01788" lon="4.35294">
        <ele>1034</ele>
        <time>2020-06-08T10:04:46Z</time>
      </trkpt>
      <trkpt lat="45.01799" lon="4.35259">
        <ele>1034</ele>
        <time>2020-06-08T10:04:52Z</time>
      </trkpt>
      <trkpt lat="45.01737" lon="4.35151">
        <ele>1028</ele>
        <time>2020-06-08T10:05:15Z</time>
      </trkpt>
      <trkpt lat="45.01647" lon="4.34942">
        <ele>1023</ele>
        <time>2020-06-08T10:05:56Z</time>
      </trkpt>
      <trkpt lat="45.01584" lon="4.34778">
        <ele>1015</ele>
        <time>2020-06-08T10:06:26Z</time>
      </trkpt>
      <trkpt lat="45.01571" lon="4.34772">
        <ele>1016</ele>
        <time>2020-06-08T10:06:30Z</time>
      </trkpt>
      <trkpt lat="45.0157" lon="4.34764">
        <ele>1016</ele>
        <time>2020-06-08T10:06:31Z</time>
      </trkpt>
      <trkpt lat="45.01574" lon="4.34755">
        <ele>1016</ele>
        <time>2020-06-08T10:06:33Z</time>
      </trkpt>
      <trkpt lat="45.01575" lon="4.34743">
        <ele>1016</ele>
        <time>2020-06-08T10:06:35Z</time>
      </trkpt>
      <trkpt lat="45.01573" lon="4.3472">
        <ele>1018</ele>
        <time>2020-06-08T10:06:38Z</time>
      </trkpt>
      <trkpt lat="45.01567" lon="4.34694">
        <ele>1020</ele>
        <time>2020-06-08T10:06:43Z</time>
      </trkpt>
      <trkpt lat="45.01531" lon="4.34626">
        <ele>1029</ele>
        <time>2020-06-08T10:06:57Z</time>
      </trkpt>
      <trkpt lat="45.01544" lon="4.34561">
        <ele>1031</ele>
        <time>2020-06-08T10:07:08Z</time>
      </trkpt>
      <trkpt lat="45.01545" lon="4.34529">
        <ele>1032</ele>
        <time>2020-06-08T10:07:13Z</time>
      </trkpt>
      <trkpt lat="45.01539" lon="4.34467">
        <ele>1035</ele>
        <time>2020-06-08T10:07:24Z</time>
      </trkpt>
      <trkpt lat="45.01535" lon="4.34448">
        <ele>1036</ele>
        <time>2020-06-08T10:07:27Z</time>
      </trkpt>
      <trkpt lat="45.015" lon="4.34366">
        <ele>1041</ele>
        <time>2020-06-08T10:07:43Z</time>
      </trkpt>
      <trkpt lat="45.01431" lon="4.34153">
        <ele>1044</ele>
        <time>2020-06-08T10:08:22Z</time>
      </trkpt>
      <trkpt lat="45.01431" lon="4.34136">
        <ele>1045</ele>
        <time>2020-06-08T10:08:24Z</time>
      </trkpt>
      <trkpt lat="45.01402" lon="4.34042">
        <ele>1046</ele>
        <time>2020-06-08T10:08:41Z</time>
      </trkpt>
      <trkpt lat="45.0137" lon="4.33997">
        <ele>1045</ele>
        <time>2020-06-08T10:08:52Z</time>
      </trkpt>
      <trkpt lat="45.01325" lon="4.33949">
        <ele>1044</ele>
        <time>2020-06-08T10:09:05Z</time>
      </trkpt>
      <trkpt lat="45.01297" lon="4.3391">
        <ele>1044</ele>
        <time>2020-06-08T10:09:14Z</time>
      </trkpt>
      <trkpt lat="45.01262" lon="4.33841">
        <ele>1042</ele>
        <time>2020-06-08T10:09:28Z</time>
      </trkpt>
      <trkpt lat="45.01232" lon="4.33715">
        <ele>1042</ele>
        <time>2020-06-08T10:09:50Z</time>
      </trkpt>
      <trkpt lat="45.01214" lon="4.33671">
        <ele>1041</ele>
        <time>2020-06-08T10:09:59Z</time>
      </trkpt>
      <trkpt lat="45.01207" lon="4.33634">
        <ele>1041</ele>
        <time>2020-06-08T10:10:05Z</time>
      </trkpt>
      <trkpt lat="45.01202" lon="4.33584">
        <ele>1041</ele>
        <time>2020-06-08T10:10:13Z</time>
      </trkpt>
      <trkpt lat="45.01195" lon="4.33568">
        <ele>1041</ele>
        <time>2020-06-08T10:10:16Z</time>
      </trkpt>
      <trkpt lat="45.01171" lon="4.33532">
        <ele>1042</ele>
        <time>2020-06-08T10:10:24Z</time>
      </trkpt>
      <trkpt lat="45.01155" lon="4.33503">
        <ele>1045</ele>
        <time>2020-06-08T10:10:31Z</time>
      </trkpt>
      <trkpt lat="45.01145" lon="4.3348">
        <ele>1047</ele>
        <time>2020-06-08T10:10:35Z</time>
      </trkpt>
      <trkpt lat="45.01141" lon="4.33462">
        <ele>1048</ele>
        <time>2020-06-08T10:10:38Z</time>
      </trkpt>
      <trkpt lat="45.01142" lon="4.33422">
        <ele>1050</ele>
        <time>2020-06-08T10:10:45Z</time>
      </trkpt>
      <trkpt lat="45.01137" lon="4.33401">
        <ele>1052</ele>
        <time>2020-06-08T10:10:48Z</time>
      </trkpt>
      <trkpt lat="45.01114" lon="4.33345">
        <ele>1059</ele>
        <time>2020-06-08T10:10:59Z</time>
      </trkpt>
      <trkpt lat="45.01091" lon="4.33273">
        <ele>1067</ele>
        <time>2020-06-08T10:11:12Z</time>
      </trkpt>
      <trkpt lat="45.01063" lon="4.33245">
        <ele>1072</ele>
        <time>2020-06-08T10:11:20Z</time>
      </trkpt>
      <trkpt lat="45.01027" lon="4.33228">
        <ele>1075</ele>
        <time>2020-06-08T10:11:29Z</time>
      </trkpt>
      <trkpt lat="45.00981" lon="4.33225">
        <ele>1079</ele>
        <time>2020-06-08T10:11:40Z</time>
      </trkpt>
      <trkpt lat="45.00936" lon="4.33186">
        <ele>1083</ele>
        <time>2020-06-08T10:11:52Z</time>
      </trkpt>
      <trkpt lat="45.00877" lon="4.331">
        <ele>1082</ele>
        <time>2020-06-08T10:12:12Z</time>
      </trkpt>
      <trkpt lat="45.00875" lon="4.33091">
        <ele>1082</ele>
        <time>2020-06-08T10:12:13Z</time>
      </trkpt>
      <trkpt lat="45.00871" lon="4.3309">
        <ele>1082</ele>
        <time>2020-06-08T10:12:14Z</time>
      </trkpt>
      <trkpt lat="45.00852" lon="4.33061">
        <ele>1083</ele>
        <time>2020-06-08T10:12:21Z</time>
      </trkpt>
      <trkpt lat="45.00827" lon="4.33031">
        <ele>1084</ele>
        <time>2020-06-08T10:12:29Z</time>
      </trkpt>
      <trkpt lat="45.00784" lon="4.32948">
        <ele>1082</ele>
        <time>2020-06-08T10:12:46Z</time>
      </trkpt>
      <trkpt lat="45.00761" lon="4.32916">
        <ele>1080</ele>
        <time>2020-06-08T10:12:53Z</time>
      </trkpt>
      <trkpt lat="45.00742" lon="4.32868">
        <ele>1078</ele>
        <time>2020-06-08T10:13:02Z</time>
      </trkpt>
      <trkpt lat="45.00735" lon="4.32844">
        <ele>1078</ele>
        <time>2020-06-08T10:13:06Z</time>
      </trkpt>
      <trkpt lat="45.00723" lon="4.3282">
        <ele>1077</ele>
        <time>2020-06-08T10:13:11Z</time>
      </trkpt>
      <trkpt lat="45.00713" lon="4.32791">
        <ele>1076</ele>
        <time>2020-06-08T10:13:17Z</time>
      </trkpt>
      <trkpt lat="45.0069" lon="4.32684">
        <ele>1077</ele>
        <time>2020-06-08T10:13:35Z</time>
      </trkpt>
      <trkpt lat="45.00655" lon="4.32584">
        <ele>1079</ele>
        <time>2020-06-08T10:13:53Z</time>
      </trkpt>
      <trkpt lat="45.00629" lon="4.32538">
        <ele>1081</ele>
        <time>2020-06-08T10:14:03Z</time>
      </trkpt>
      <trkpt lat="45.00572" lon="4.32417">
        <ele>1081</ele>
        <time>2020-06-08T10:14:27Z</time>
      </trkpt>
      <trkpt lat="45.00479" lon="4.32247">
        <ele>1084</ele>
        <time>2020-06-08T10:15:03Z</time>
      </trkpt>
      <trkpt lat="45.00462" lon="4.32195">
        <ele>1082</ele>
        <time>2020-06-08T10:15:12Z</time>
      </trkpt>
      <trkpt lat="45.00446" lon="4.32157">
        <ele>1082</ele>
        <time>2020-06-08T10:15:19Z</time>
      </trkpt>
      <trkpt lat="45.0042" lon="4.3212">
        <ele>1082</ele>
        <time>2020-06-08T10:15:28Z</time>
      </trkpt>
      <trkpt lat="45.00389" lon="4.32061">
        <ele>1083</ele>
        <time>2020-06-08T10:15:40Z</time>
      </trkpt>
      <trkpt lat="45.00347" lon="4.3197">
        <ele>1087</ele>
        <time>2020-06-08T10:15:58Z</time>
      </trkpt>
      <trkpt lat="45.00276" lon="4.31835">
        <ele>1088</ele>
        <time>2020-06-08T10:16:26Z</time>
      </trkpt>
      <trkpt lat="45.00183" lon="4.31611">
        <ele>1093</ele>
        <time>2020-06-08T10:17:09Z</time>
      </trkpt>
      <trkpt lat="45.00163" lon="4.31545">
        <ele>1095</ele>
        <time>2020-06-08T10:17:21Z</time>
      </trkpt>
      <trkpt lat="45.00142" lon="4.31405">
        <ele>1096</ele>
        <time>2020-06-08T10:17:44Z</time>
      </trkpt>
      <trkpt lat="45.00105" lon="4.31248">
        <ele>1095</ele>
        <time>2020-06-08T10:18:12Z</time>
      </trkpt>
      <trkpt lat="45.00085" lon="4.31126">
        <ele>1096</ele>
        <time>2020-06-08T10:18:32Z</time>
      </trkpt>
      <trkpt lat="45.00015" lon="4.3081">
        <ele>1098</ele>
        <time>2020-06-08T10:19:27Z</time>
      </trkpt>
      <trkpt lat="44.9989" lon="4.30606">
        <ele>1103</ele>
        <time>2020-06-08T10:20:12Z</time>
      </trkpt>
      <trkpt lat="44.99885" lon="4.30587">
        <ele>1104</ele>
        <time>2020-06-08T10:20:15Z</time>
      </trkpt>
      <trkpt lat="44.99884" lon="4.30545">
        <ele>1105</ele>
        <time>2020-06-08T10:20:22Z</time>
      </trkpt>
      <trkpt lat="44.99877" lon="4.30509">
        <ele>1107</ele>
        <time>2020-06-08T10:20:28Z</time>
      </trkpt>
      <trkpt lat="44.99861" lon="4.30476">
        <ele>1108</ele>
        <time>2020-06-08T10:20:35Z</time>
      </trkpt>
      <trkpt lat="44.99846" lon="4.30455">
        <ele>1110</ele>
        <time>2020-06-08T10:20:40Z</time>
      </trkpt>
      <trkpt lat="44.99832" lon="4.30446">
        <ele>1111</ele>
        <time>2020-06-08T10:20:43Z</time>
      </trkpt>
      <trkpt lat="44.99787" lon="4.3043">
        <ele>1113</ele>
        <time>2020-06-08T10:20:54Z</time>
      </trkpt>
      <trkpt lat="44.99775" lon="4.30413">
        <ele>1114</ele>
        <time>2020-06-08T10:20:58Z</time>
      </trkpt>
      <trkpt lat="44.99696" lon="4.30184">
        <ele>1129</ele>
        <time>2020-06-08T10:21:40Z</time>
      </trkpt>
      <trkpt lat="44.99691" lon="4.30132">
        <ele>1129</ele>
        <time>2020-06-08T10:21:49Z</time>
      </trkpt>
      <trkpt lat="44.99692" lon="4.30096">
        <ele>1129</ele>
        <time>2020-06-08T10:21:55Z</time>
      </trkpt>
      <trkpt lat="44.99682" lon="4.30021">
        <ele>1130</ele>
        <time>2020-06-08T10:22:07Z</time>
      </trkpt>
      <trkpt lat="44.99682" lon="4.30003">
        <ele>1130</ele>
        <time>2020-06-08T10:22:10Z</time>
      </trkpt>
      <trkpt lat="44.9969" lon="4.29943">
        <ele>1126</ele>
        <time>2020-06-08T10:22:20Z</time>
      </trkpt>
      <trkpt lat="44.99689" lon="4.29918">
        <ele>1125</ele>
        <time>2020-06-08T10:22:24Z</time>
      </trkpt>
      <trkpt lat="44.99682" lon="4.29891">
        <ele>1124</ele>
        <time>2020-06-08T10:22:29Z</time>
      </trkpt>
      <trkpt lat="44.99674" lon="4.29877">
        <ele>1124</ele>
        <time>2020-06-08T10:22:32Z</time>
      </trkpt>
      <trkpt lat="44.99657" lon="4.29859">
        <ele>1124</ele>
        <time>2020-06-08T10:22:37Z</time>
      </trkpt>
      <trkpt lat="44.99647" lon="4.29844">
        <ele>1124</ele>
        <time>2020-06-08T10:22:41Z</time>
      </trkpt>
      <trkpt lat="44.99638" lon="4.29825">
        <ele>1124</ele>
        <time>2020-06-08T10:22:44Z</time>
      </trkpt>
      <trkpt lat="44.9962" lon="4.29772">
        <ele>1122</ele>
        <time>2020-06-08T10:22:54Z</time>
      </trkpt>
      <trkpt lat="44.99603" lon="4.29756">
        <ele>1123</ele>
        <time>2020-06-08T10:22:59Z</time>
      </trkpt>
      <trkpt lat="44.99581" lon="4.29728">
        <ele>1123</ele>
        <time>2020-06-08T10:23:06Z</time>
      </trkpt>
      <trkpt lat="44.99574" lon="4.29714">
        <ele>1122</ele>
        <time>2020-06-08T10:23:09Z</time>
      </trkpt>
      <trkpt lat="44.99542" lon="4.29796">
        <ele>1129</ele>
        <time>2020-06-08T10:23:24Z</time>
      </trkpt>
      <trkpt lat="44.99535" lon="4.29838">
        <ele>1133</ele>
        <time>2020-06-08T10:23:31Z</time>
      </trkpt>
      <trkpt lat="44.99518" lon="4.29893">
        <ele>1136</ele>
        <time>2020-06-08T10:23:41Z</time>
      </trkpt>
      <trkpt lat="44.99514" lon="4.29915">
        <ele>1137</ele>
        <time>2020-06-08T10:23:45Z</time>
      </trkpt>
      <trkpt lat="44.99502" lon="4.29876">
        <ele>1136</ele>
        <time>2020-06-08T10:23:52Z</time>
      </trkpt>
      <trkpt lat="44.99494" lon="4.29859">
        <ele>1136</ele>
        <time>2020-06-08T10:23:55Z</time>
      </trkpt>
      <trkpt lat="44.99464" lon="4.29813">
        <ele>1132</ele>
        <time>2020-06-08T10:24:06Z</time>
      </trkpt>
      <trkpt lat="44.99447" lon="4.29797">
        <ele>1130</ele>
        <time>2020-06-08T10:24:10Z</time>
      </trkpt>
      <trkpt lat="44.99431" lon="4.29792">
        <ele>1129</ele>
        <time>2020-06-08T10:24:14Z</time>
      </trkpt>
      <trkpt lat="44.99411" lon="4.29795">
        <ele>1129</ele>
        <time>2020-06-08T10:24:19Z</time>
      </trkpt>
      <trkpt lat="44.99392" lon="4.2981">
        <ele>1129</ele>
        <time>2020-06-08T10:24:24Z</time>
      </trkpt>
      <trkpt lat="44.99376" lon="4.29804">
        <ele>1127</ele>
        <time>2020-06-08T10:24:28Z</time>
      </trkpt>
      <trkpt lat="44.99367" lon="4.29792">
        <ele>1126</ele>
        <time>2020-06-08T10:24:31Z</time>
      </trkpt>
      <trkpt lat="44.99341" lon="4.29707">
        <ele>1121</ele>
        <time>2020-06-08T10:24:46Z</time>
      </trkpt>
      <trkpt lat="44.99326" lon="4.29676">
        <ele>1120</ele>
        <time>2020-06-08T10:24:52Z</time>
      </trkpt>
      <trkpt lat="44.99203" lon="4.29493">
        <ele>1116</ele>
        <time>2020-06-08T10:25:34Z</time>
      </trkpt>
      <trkpt lat="44.99173" lon="4.29441">
        <ele>1116</ele>
        <time>2020-06-08T10:25:45Z</time>
      </trkpt>
      <trkpt lat="44.99151" lon="4.29408">
        <ele>1116</ele>
        <time>2020-06-08T10:25:52Z</time>
      </trkpt>
      <trkpt lat="44.9912" lon="4.29388">
        <ele>1117</ele>
        <time>2020-06-08T10:26:00Z</time>
      </trkpt>
      <trkpt lat="44.99083" lon="4.29347">
        <ele>1119</ele>
        <time>2020-06-08T10:26:11Z</time>
      </trkpt>
      <trkpt lat="44.9907" lon="4.29339">
        <ele>1120</ele>
        <time>2020-06-08T10:26:15Z</time>
      </trkpt>
      <trkpt lat="44.99007" lon="4.29275">
        <ele>1125</ele>
        <time>2020-06-08T10:26:33Z</time>
      </trkpt>
      <trkpt lat="44.98987" lon="4.29261">
        <ele>1126</ele>
        <time>2020-06-08T10:26:38Z</time>
      </trkpt>
      <trkpt lat="44.98964" lon="4.29233">
        <ele>1127</ele>
        <time>2020-06-08T10:26:45Z</time>
      </trkpt>
      <trkpt lat="44.98902" lon="4.29118">
        <ele>1130</ele>
        <time>2020-06-08T10:27:09Z</time>
      </trkpt>
      <trkpt lat="44.9881" lon="4.28995">
        <ele>1129</ele>
        <time>2020-06-08T10:27:39Z</time>
      </trkpt>
      <trkpt lat="44.98775" lon="4.2894">
        <ele>1129</ele>
        <time>2020-06-08T10:27:51Z</time>
      </trkpt>
      <trkpt lat="44.98685" lon="4.28812">
        <ele>1126</ele>
        <time>2020-06-08T10:28:21Z</time>
      </trkpt>
      <trkpt lat="44.98653" lon="4.28755">
        <ele>1130</ele>
        <time>2020-06-08T10:28:33Z</time>
      </trkpt>
      <trkpt lat="44.98613" lon="4.28672">
        <ele>1131</ele>
        <time>2020-06-08T10:28:49Z</time>
      </trkpt>
      <trkpt lat="44.98593" lon="4.28648">
        <ele>1131</ele>
        <time>2020-06-08T10:28:55Z</time>
      </trkpt>
      <trkpt lat="44.98555" lon="4.28568">
        <ele>1128</ele>
        <time>2020-06-08T10:29:11Z</time>
      </trkpt>
      <trkpt lat="44.98513" lon="4.28536">
        <ele>1131</ele>
        <time>2020-06-08T10:29:22Z</time>
      </trkpt>
      <trkpt lat="44.98516" lon="4.28466">
        <ele>1130</ele>
        <time>2020-06-08T10:29:34Z</time>
      </trkpt>
      <trkpt lat="44.98503" lon="4.28438">
        <ele>1131</ele>
        <time>2020-06-08T10:29:39Z</time>
      </trkpt>
      <trkpt lat="44.98481" lon="4.28402">
        <ele>1131</ele>
        <time>2020-06-08T10:29:47Z</time>
      </trkpt>
      <trkpt lat="44.98441" lon="4.2831">
        <ele>1129</ele>
        <time>2020-06-08T10:30:05Z</time>
      </trkpt>
      <trkpt lat="44.98379" lon="4.282">
        <ele>1126</ele>
        <time>2020-06-08T10:30:28Z</time>
      </trkpt>
      <trkpt lat="44.98302" lon="4.28021">
        <ele>1131</ele>
        <time>2020-06-08T10:31:03Z</time>
      </trkpt>
      <trkpt lat="44.98297" lon="4.27977">
        <ele>1132</ele>
        <time>2020-06-08T10:31:10Z</time>
      </trkpt>
      <trkpt lat="44.98297" lon="4.27955">
        <ele>1133</ele>
        <time>2020-06-08T10:31:14Z</time>
      </trkpt>
      <trkpt lat="44.98307" lon="4.27871">
        <ele>1137</ele>
        <time>2020-06-08T10:31:28Z</time>
      </trkpt>
      <trkpt lat="44.9831" lon="4.27817">
        <ele>1139</ele>
        <time>2020-06-08T10:31:37Z</time>
      </trkpt>
      <trkpt lat="44.98332" lon="4.27707">
        <ele>1140</ele>
        <time>2020-06-08T10:31:56Z</time>
      </trkpt>
      <trkpt lat="44.98342" lon="4.27668">
        <ele>1138</ele>
        <time>2020-06-08T10:32:03Z</time>
      </trkpt>
      <trkpt lat="44.98343" lon="4.27648">
        <ele>1138</ele>
        <time>2020-06-08T10:32:06Z</time>
      </trkpt>
      <trkpt lat="44.98341" lon="4.27632">
        <ele>1138</ele>
        <time>2020-06-08T10:32:09Z</time>
      </trkpt>
      <trkpt lat="44.98345" lon="4.2759">
        <ele>1136</ele>
        <time>2020-06-08T10:32:16Z</time>
      </trkpt>
      <trkpt lat="44.98345" lon="4.27529">
        <ele>1136</ele>
        <time>2020-06-08T10:32:26Z</time>
      </trkpt>
      <trkpt lat="44.98342" lon="4.27489">
        <ele>1136</ele>
        <time>2020-06-08T10:32:32Z</time>
      </trkpt>
      <trkpt lat="44.98345" lon="4.27471">
        <ele>1136</ele>
        <time>2020-06-08T10:32:36Z</time>
      </trkpt>
      <trkpt lat="44.98381" lon="4.274">
        <ele>1135</ele>
        <time>2020-06-08T10:32:50Z</time>
      </trkpt>
      <trkpt lat="44.98505" lon="4.27239">
        <ele>1137</ele>
        <time>2020-06-08T10:33:29Z</time>
      </trkpt>
      <trkpt lat="44.9852" lon="4.27231">
        <ele>1136</ele>
        <time>2020-06-08T10:33:33Z</time>
      </trkpt>
      <trkpt lat="44.98537" lon="4.27214">
        <ele>1135</ele>
        <time>2020-06-08T10:33:38Z</time>
      </trkpt>
      <trkpt lat="44.98561" lon="4.27181">
        <ele>1135</ele>
        <time>2020-06-08T10:33:46Z</time>
      </trkpt>
      <trkpt lat="44.98581" lon="4.27148">
        <ele>1135</ele>
        <time>2020-06-08T10:33:53Z</time>
      </trkpt>
      <trkpt lat="44.98648" lon="4.2703">
        <ele>1136</ele>
        <time>2020-06-08T10:34:18Z</time>
      </trkpt>
      <trkpt lat="44.98659" lon="4.2702">
        <ele>1135</ele>
        <time>2020-06-08T10:34:21Z</time>
      </trkpt>
      <trkpt lat="44.98673" lon="4.27014">
        <ele>1135</ele>
        <time>2020-06-08T10:34:24Z</time>
      </trkpt>
      <trkpt lat="44.9868" lon="4.27004">
        <ele>1135</ele>
        <time>2020-06-08T10:34:27Z</time>
      </trkpt>
      <trkpt lat="44.98696" lon="4.2696">
        <ele>1135</ele>
        <time>2020-06-08T10:34:35Z</time>
      </trkpt>
      <trkpt lat="44.98759" lon="4.26819">
        <ele>1135</ele>
        <time>2020-06-08T10:35:02Z</time>
      </trkpt>
      <trkpt lat="44.98767" lon="4.26781">
        <ele>1135</ele>
        <time>2020-06-08T10:35:09Z</time>
      </trkpt>
      <trkpt lat="44.98783" lon="4.26601">
        <ele>1137</ele>
        <time>2020-06-08T10:35:39Z</time>
      </trkpt>
      <trkpt lat="44.98785" lon="4.26546">
        <ele>1137</ele>
        <time>2020-06-08T10:35:48Z</time>
      </trkpt>
      <trkpt lat="44.98757" lon="4.26332">
        <ele>1137</ele>
        <time>2020-06-08T10:36:24Z</time>
      </trkpt>
      <trkpt lat="44.98742" lon="4.26309">
        <ele>1138</ele>
        <time>2020-06-08T10:36:29Z</time>
      </trkpt>
      <trkpt lat="44.98726" lon="4.26277">
        <ele>1137</ele>
        <time>2020-06-08T10:36:36Z</time>
      </trkpt>
      <trkpt lat="44.9871" lon="4.26208">
        <ele>1134</ele>
        <time>2020-06-08T10:36:48Z</time>
      </trkpt>
      <trkpt lat="44.98728" lon="4.26072">
        <ele>1124</ele>
        <time>2020-06-08T10:37:10Z</time>
      </trkpt>
      <trkpt lat="44.98746" lon="4.25977">
        <ele>1118</ele>
        <time>2020-06-08T10:37:27Z</time>
      </trkpt>
      <trkpt lat="44.98752" lon="4.25959">
        <ele>1117</ele>
        <time>2020-06-08T10:37:30Z</time>
      </trkpt>
      <trkpt lat="44.98735" lon="4.2585">
        <ele>1114</ele>
        <time>2020-06-08T10:37:48Z</time>
      </trkpt>
      <trkpt lat="44.98778" lon="4.25708">
        <ele>1112</ele>
        <time>2020-06-08T10:38:14Z</time>
      </trkpt>
      <trkpt lat="44.98782" lon="4.25677">
        <ele>1114</ele>
        <time>2020-06-08T10:38:19Z</time>
      </trkpt>
      <trkpt lat="44.98782" lon="4.25435">
        <ele>1125</ele>
        <time>2020-06-08T10:38:59Z</time>
      </trkpt>
      <trkpt lat="44.98792" lon="4.25372">
        <ele>1128</ele>
        <time>2020-06-08T10:39:10Z</time>
      </trkpt>
      <trkpt lat="44.98844" lon="4.25206">
        <ele>1137</ele>
        <time>2020-06-08T10:39:40Z</time>
      </trkpt>
      <trkpt lat="44.98865" lon="4.25182">
        <ele>1137</ele>
        <time>2020-06-08T10:39:46Z</time>
      </trkpt>
      <trkpt lat="44.98882" lon="4.25129">
        <ele>1139</ele>
        <time>2020-06-08T10:39:56Z</time>
      </trkpt>
      <trkpt lat="44.9889" lon="4.25112">
        <ele>1139</ele>
        <time>2020-06-08T10:39:59Z</time>
      </trkpt>
      <trkpt lat="44.98897" lon="4.25107">
        <ele>1139</ele>
        <time>2020-06-08T10:40:01Z</time>
      </trkpt>
      <trkpt lat="44.98889" lon="4.25085">
        <ele>1141</ele>
        <time>2020-06-08T10:40:05Z</time>
      </trkpt>
      <trkpt lat="44.98864" lon="4.25069">
        <ele>1142</ele>
        <time>2020-06-08T10:40:11Z</time>
      </trkpt>
      <trkpt lat="44.98849" lon="4.25066">
        <ele>1142</ele>
        <time>2020-06-08T10:40:15Z</time>
      </trkpt>
      <trkpt lat="44.98845" lon="4.25062">
        <ele>1143</ele>
        <time>2020-06-08T10:40:16Z</time>
      </trkpt>
      <trkpt lat="44.98838" lon="4.24994">
        <ele>1146</ele>
        <time>2020-06-08T10:40:27Z</time>
      </trkpt>
      <trkpt lat="44.98839" lon="4.24957">
        <ele>1147</ele>
        <time>2020-06-08T10:40:34Z</time>
      </trkpt>
      <trkpt lat="44.98837" lon="4.24924">
        <ele>1148</ele>
        <time>2020-06-08T10:40:39Z</time>
      </trkpt>
      <trkpt lat="44.98826" lon="4.24852">
        <ele>1151</ele>
        <time>2020-06-08T10:40:51Z</time>
      </trkpt>
      <trkpt lat="44.98826" lon="4.24827">
        <ele>1153</ele>
        <time>2020-06-08T10:40:55Z</time>
      </trkpt>
      <trkpt lat="44.98829" lon="4.24807">
        <ele>1153</ele>
        <time>2020-06-08T10:40:59Z</time>
      </trkpt>
      <trkpt lat="44.98829" lon="4.24752">
        <ele>1154</ele>
        <time>2020-06-08T10:41:08Z</time>
      </trkpt>
      <trkpt lat="44.98834" lon="4.24706">
        <ele>1155</ele>
        <time>2020-06-08T10:41:15Z</time>
      </trkpt>
      <trkpt lat="44.98833" lon="4.24659">
        <ele>1155</ele>
        <time>2020-06-08T10:41:23Z</time>
      </trkpt>
      <trkpt lat="44.98827" lon="4.24632">
        <ele>1156</ele>
        <time>2020-06-08T10:41:28Z</time>
      </trkpt>
      <trkpt lat="44.98819" lon="4.24611">
        <ele>1157</ele>
        <time>2020-06-08T10:41:32Z</time>
      </trkpt>
      <trkpt lat="44.988" lon="4.24543">
        <ele>1156</ele>
        <time>2020-06-08T10:41:44Z</time>
      </trkpt>
      <trkpt lat="44.9879" lon="4.245">
        <ele>1156</ele>
        <time>2020-06-08T10:41:51Z</time>
      </trkpt>
      <trkpt lat="44.98779" lon="4.24371">
        <ele>1148</ele>
        <time>2020-06-08T10:42:13Z</time>
      </trkpt>
      <trkpt lat="44.98784" lon="4.24288">
        <ele>1138</ele>
        <time>2020-06-08T10:42:27Z</time>
      </trkpt>
      <trkpt lat="44.98795" lon="4.24255">
        <ele>1131</ele>
        <time>2020-06-08T10:42:33Z</time>
      </trkpt>
      <trkpt lat="44.98791" lon="4.24216">
        <ele>1126</ele>
        <time>2020-06-08T10:42:39Z</time>
      </trkpt>
      <trkpt lat="44.98791" lon="4.24186">
        <ele>1121</ele>
        <time>2020-06-08T10:42:44Z</time>
      </trkpt>
      <trkpt lat="44.98779" lon="4.24126">
        <ele>1114</ele>
        <time>2020-06-08T10:42:54Z</time>
      </trkpt>
      <trkpt lat="44.9875" lon="4.24041">
        <ele>1105</ele>
        <time>2020-06-08T10:43:10Z</time>
      </trkpt>
      <trkpt lat="44.98751" lon="4.24007">
        <ele>1100</ele>
        <time>2020-06-08T10:43:16Z</time>
      </trkpt>
      <trkpt lat="44.98756" lon="4.2398">
        <ele>1097</ele>
        <time>2020-06-08T10:43:20Z</time>
      </trkpt>
      <trkpt lat="44.98761" lon="4.23906">
        <ele>1092</ele>
        <time>2020-06-08T10:43:32Z</time>
      </trkpt>
      <trkpt lat="44.98772" lon="4.23845">
        <ele>1087</ele>
        <time>2020-06-08T10:43:43Z</time>
      </trkpt>
      <trkpt lat="44.98772" lon="4.23825">
        <ele>1086</ele>
        <time>2020-06-08T10:43:46Z</time>
      </trkpt>
      <trkpt lat="44.98785" lon="4.23738">
        <ele>1085</ele>
        <time>2020-06-08T10:44:01Z</time>
      </trkpt>
      <trkpt lat="44.98785" lon="4.23543">
        <ele>1090</ele>
        <time>2020-06-08T10:44:33Z</time>
      </trkpt>
      <trkpt lat="44.98792" lon="4.23454">
        <ele>1094</ele>
        <time>2020-06-08T10:44:48Z</time>
      </trkpt>
      <trkpt lat="44.98785" lon="4.23447">
        <ele>1095</ele>
        <time>2020-06-08T10:44:50Z</time>
      </trkpt>
      <trkpt lat="44.98764" lon="4.23448">
        <ele>1096</ele>
        <time>2020-06-08T10:44:55Z</time>
      </trkpt>
      <trkpt lat="44.98751" lon="4.23438">
        <ele>1097</ele>
        <time>2020-06-08T10:44:58Z</time>
      </trkpt>
      <trkpt lat="44.9874" lon="4.23423">
        <ele>1098</ele>
        <time>2020-06-08T10:45:02Z</time>
      </trkpt>
      <trkpt lat="44.98708" lon="4.2324">
        <ele>1110</ele>
        <time>2020-06-08T10:45:33Z</time>
      </trkpt>
      <trkpt lat="44.98706" lon="4.23197">
        <ele>1113</ele>
        <time>2020-06-08T10:45:40Z</time>
      </trkpt>
      <trkpt lat="44.98699" lon="4.23133">
        <ele>1119</ele>
        <time>2020-06-08T10:45:51Z</time>
      </trkpt>
      <trkpt lat="44.987" lon="4.23083">
        <ele>1125</ele>
        <time>2020-06-08T10:45:59Z</time>
      </trkpt>
      <trkpt lat="44.98696" lon="4.23035">
        <ele>1132</ele>
        <time>2020-06-08T10:46:07Z</time>
      </trkpt>
      <trkpt lat="44.98697" lon="4.2302">
        <ele>1134</ele>
        <time>2020-06-08T10:46:09Z</time>
      </trkpt>
      <trkpt lat="44.98704" lon="4.23011">
        <ele>1135</ele>
        <time>2020-06-08T10:46:12Z</time>
      </trkpt>
      <trkpt lat="44.98714" lon="4.23009">
        <ele>1136</ele>
        <time>2020-06-08T10:46:14Z</time>
      </trkpt>
      <trkpt lat="44.98705" lon="4.22982">
        <ele>1141</ele>
        <time>2020-06-08T10:46:19Z</time>
      </trkpt>
      <trkpt lat="44.98686" lon="4.2295">
        <ele>1147</ele>
        <time>2020-06-08T10:46:26Z</time>
      </trkpt>
      <trkpt lat="44.98658" lon="4.2284">
        <ele>1165</ele>
        <time>2020-06-08T10:46:45Z</time>
      </trkpt>
      <trkpt lat="44.98637" lon="4.22793">
        <ele>1170</ele>
        <time>2020-06-08T10:46:54Z</time>
      </trkpt>
      <trkpt lat="44.98627" lon="4.22762">
        <ele>1174</ele>
        <time>2020-06-08T10:47:00Z</time>
      </trkpt>
      <trkpt lat="44.9864" lon="4.22695">
        <ele>1179</ele>
        <time>2020-06-08T10:47:11Z</time>
      </trkpt>
      <trkpt lat="44.98637" lon="4.22623">
        <ele>1180</ele>
        <time>2020-06-08T10:47:23Z</time>
      </trkpt>
      <trkpt lat="44.98629" lon="4.22623">
        <ele>1180</ele>
        <time>2020-06-08T10:47:25Z</time>
      </trkpt>
      <trkpt lat="44.98631" lon="4.22613">
        <ele>1180</ele>
        <time>2020-06-08T10:47:27Z</time>
      </trkpt>
      <trkpt lat="44.98615" lon="4.22606">
        <ele>1181</ele>
        <time>2020-06-08T10:47:31Z</time>
      </trkpt>
      <trkpt lat="44.98591" lon="4.22607">
        <ele>1181</ele>
        <time>2020-06-08T10:47:36Z</time>
      </trkpt>
      <trkpt lat="44.98545" lon="4.22617">
        <ele>1182</ele>
        <time>2020-06-08T10:47:47Z</time>
      </trkpt>
      <trkpt lat="44.98498" lon="4.22635">
        <ele>1184</ele>
        <time>2020-06-08T10:47:59Z</time>
      </trkpt>
      <trkpt lat="44.98494" lon="4.22618">
        <ele>1183</ele>
        <time>2020-06-08T10:48:02Z</time>
      </trkpt>
      <trkpt lat="44.98436" lon="4.22557">
        <ele>1184</ele>
        <time>2020-06-08T10:48:19Z</time>
      </trkpt>
      <trkpt lat="44.98406" lon="4.22517">
        <ele>1181</ele>
        <time>2020-06-08T10:48:28Z</time>
      </trkpt>
      <trkpt lat="44.98315" lon="4.22433">
        <ele>1179</ele>
        <time>2020-06-08T10:48:54Z</time>
      </trkpt>
      <trkpt lat="44.98282" lon="4.22366">
        <ele>1175</ele>
        <time>2020-06-08T10:49:07Z</time>
      </trkpt>
      <trkpt lat="44.98207" lon="4.22228">
        <ele>1167</ele>
        <time>2020-06-08T10:49:36Z</time>
      </trkpt>
      <trkpt lat="44.98189" lon="4.22218">
        <ele>1169</ele>
        <time>2020-06-08T10:49:40Z</time>
      </trkpt>
      <trkpt lat="44.9816" lon="4.22179">
        <ele>1167</ele>
        <time>2020-06-08T10:49:50Z</time>
      </trkpt>
      <trkpt lat="44.98075" lon="4.22108">
        <ele>1157</ele>
        <time>2020-06-08T10:50:13Z</time>
      </trkpt>
      <trkpt lat="44.97976" lon="4.22067">
        <ele>1147</ele>
        <time>2020-06-08T10:50:37Z</time>
      </trkpt>
      <trkpt lat="44.9795" lon="4.22049">
        <ele>1142</ele>
        <time>2020-06-08T10:50:44Z</time>
      </trkpt>
      <trkpt lat="44.97921" lon="4.22038">
        <ele>1137</ele>
        <time>2020-06-08T10:50:51Z</time>
      </trkpt>
      <trkpt lat="44.97919" lon="4.22031">
        <ele>1136</ele>
        <time>2020-06-08T10:50:52Z</time>
      </trkpt>
      <trkpt lat="44.97812" lon="4.21985">
        <ele>1128</ele>
        <time>2020-06-08T10:51:18Z</time>
      </trkpt>
      <trkpt lat="44.97795" lon="4.21972">
        <ele>1127</ele>
        <time>2020-06-08T10:51:22Z</time>
      </trkpt>
      <trkpt lat="44.97787" lon="4.21958">
        <ele>1126</ele>
        <time>2020-06-08T10:51:25Z</time>
      </trkpt>
      <trkpt lat="44.97776" lon="4.21958">
        <ele>1127</ele>
        <time>2020-06-08T10:51:28Z</time>
      </trkpt>
      <trkpt lat="44.97759" lon="4.21952">
        <ele>1127</ele>
        <time>2020-06-08T10:51:32Z</time>
      </trkpt>
      <trkpt lat="44.97704" lon="4.21916">
        <ele>1127</ele>
        <time>2020-06-08T10:51:46Z</time>
      </trkpt>
      <trkpt lat="44.97651" lon="4.21872">
        <ele>1126</ele>
        <time>2020-06-08T10:52:01Z</time>
      </trkpt>
      <trkpt lat="44.97628" lon="4.2183">
        <ele>1123</ele>
        <time>2020-06-08T10:52:09Z</time>
      </trkpt>
      <trkpt lat="44.97586" lon="4.21797">
        <ele>1124</ele>
        <time>2020-06-08T10:52:21Z</time>
      </trkpt>
      <trkpt lat="44.97562" lon="4.21758">
        <ele>1125</ele>
        <time>2020-06-08T10:52:29Z</time>
      </trkpt>
      <trkpt lat="44.97543" lon="4.2175">
        <ele>1125</ele>
        <time>2020-06-08T10:52:34Z</time>
      </trkpt>
      <trkpt lat="44.9751" lon="4.21751">
        <ele>1127</ele>
        <time>2020-06-08T10:52:41Z</time>
      </trkpt>
      <trkpt lat="44.97494" lon="4.21741">
        <ele>1128</ele>
        <time>2020-06-08T10:52:46Z</time>
      </trkpt>
      <trkpt lat="44.97458" lon="4.21704">
        <ele>1132</ele>
        <time>2020-06-08T10:52:56Z</time>
      </trkpt>
      <trkpt lat="44.97426" lon="4.21663">
        <ele>1136</ele>
        <time>2020-06-08T10:53:06Z</time>
      </trkpt>
      <trkpt lat="44.97411" lon="4.21635">
        <ele>1139</ele>
        <time>2020-06-08T10:53:12Z</time>
      </trkpt>
      <trkpt lat="44.97386" lon="4.21607">
        <ele>1141</ele>
        <time>2020-06-08T10:53:19Z</time>
      </trkpt>
      <trkpt lat="44.97361" lon="4.21572">
        <ele>1142</ele>
        <time>2020-06-08T10:53:28Z</time>
      </trkpt>
      <trkpt lat="44.97347" lon="4.2154">
        <ele>1144</ele>
        <time>2020-06-08T10:53:34Z</time>
      </trkpt>
      <trkpt lat="44.97332" lon="4.21526">
        <ele>1145</ele>
        <time>2020-06-08T10:53:38Z</time>
      </trkpt>
      <trkpt lat="44.97275" lon="4.21494">
        <ele>1148</ele>
        <time>2020-06-08T10:53:52Z</time>
      </trkpt>
      <trkpt lat="44.97247" lon="4.21483">
        <ele>1150</ele>
        <time>2020-06-08T10:53:59Z</time>
      </trkpt>
      <trkpt lat="44.97207" lon="4.21472">
        <ele>1153</ele>
        <time>2020-06-08T10:54:09Z</time>
      </trkpt>
      <trkpt lat="44.97187" lon="4.2146">
        <ele>1155</ele>
        <time>2020-06-08T10:54:14Z</time>
      </trkpt>
      <trkpt lat="44.97168" lon="4.21442">
        <ele>1158</ele>
        <time>2020-06-08T10:54:19Z</time>
      </trkpt>
      <trkpt lat="44.97143" lon="4.21404">
        <ele>1162</ele>
        <time>2020-06-08T10:54:28Z</time>
      </trkpt>
      <trkpt lat="44.97094" lon="4.21303">
        <ele>1167</ele>
        <time>2020-06-08T10:54:48Z</time>
      </trkpt>
      <trkpt lat="44.97059" lon="4.21263">
        <ele>1167</ele>
        <time>2020-06-08T10:54:58Z</time>
      </trkpt>
      <trkpt lat="44.96956" lon="4.21176">
        <ele>1165</ele>
        <time>2020-06-08T10:55:26Z</time>
      </trkpt>
      <trkpt lat="44.96951" lon="4.21167">
        <ele>1165</ele>
        <time>2020-06-08T10:55:28Z</time>
      </trkpt>
      <trkpt lat="44.96941" lon="4.21126">
        <ele>1166</ele>
        <time>2020-06-08T10:55:35Z</time>
      </trkpt>
      <trkpt lat="44.96929" lon="4.21104">
        <ele>1166</ele>
        <time>2020-06-08T10:55:40Z</time>
      </trkpt>
      <trkpt lat="44.96916" lon="4.21091">
        <ele>1166</ele>
        <time>2020-06-08T10:55:44Z</time>
      </trkpt>
      <trkpt lat="44.96901" lon="4.21082">
        <ele>1166</ele>
        <time>2020-06-08T10:55:47Z</time>
      </trkpt>
      <trkpt lat="44.96862" lon="4.2108">
        <ele>1167</ele>
        <time>2020-06-08T10:55:57Z</time>
      </trkpt>
      <trkpt lat="44.96854" lon="4.21075">
        <ele>1168</ele>
        <time>2020-06-08T10:55:59Z</time>
      </trkpt>
      <trkpt lat="44.96849" lon="4.21086">
        <ele>1168</ele>
        <time>2020-06-08T10:56:01Z</time>
      </trkpt>
      <trkpt lat="44.96787" lon="4.21146">
        <ele>1167</ele>
        <time>2020-06-08T10:56:18Z</time>
      </trkpt>
      <trkpt lat="44.96633" lon="4.21284">
        <ele>1173</ele>
        <time>2020-06-08T10:57:01Z</time>
      </trkpt>
      <trkpt lat="44.96587" lon="4.21322">
        <ele>1175</ele>
        <time>2020-06-08T10:57:13Z</time>
      </trkpt>
      <trkpt lat="44.96541" lon="4.21356">
        <ele>1178</ele>
        <time>2020-06-08T10:57:25Z</time>
      </trkpt>
      <trkpt lat="44.96507" lon="4.21397">
        <ele>1178</ele>
        <time>2020-06-08T10:57:36Z</time>
      </trkpt>
      <trkpt lat="44.96481" lon="4.21416">
        <ele>1179</ele>
        <time>2020-06-08T10:57:43Z</time>
      </trkpt>
      <trkpt lat="44.9639" lon="4.21496">
        <ele>1186</ele>
        <time>2020-06-08T10:58:08Z</time>
      </trkpt>
      <trkpt lat="44.96361" lon="4.21482">
        <ele>1192</ele>
        <time>2020-06-08T10:58:15Z</time>
      </trkpt>
      <trkpt lat="44.96351" lon="4.21481">
        <ele>1193</ele>
        <time>2020-06-08T10:58:17Z</time>
      </trkpt>
      <trkpt lat="44.96251" lon="4.21573">
        <ele>1204</ele>
        <time>2020-06-08T10:58:45Z</time>
      </trkpt>
      <trkpt lat="44.96231" lon="4.2158">
        <ele>1206</ele>
        <time>2020-06-08T10:58:50Z</time>
      </trkpt>
      <trkpt lat="44.96214" lon="4.21582">
        <ele>1208</ele>
        <time>2020-06-08T10:58:54Z</time>
      </trkpt>
      <trkpt lat="44.96127" lon="4.21574">
        <ele>1219</ele>
        <time>2020-06-08T10:59:14Z</time>
      </trkpt>
      <trkpt lat="44.96119" lon="4.21564">
        <ele>1221</ele>
        <time>2020-06-08T10:59:17Z</time>
      </trkpt>
      <trkpt lat="44.96092" lon="4.21333">
        <ele>1243</ele>
        <time>2020-06-08T10:59:55Z</time>
      </trkpt>
      <trkpt lat="44.96073" lon="4.21352">
        <ele>1245</ele>
        <time>2020-06-08T11:00:01Z</time>
      </trkpt>
      <trkpt lat="44.95874" lon="4.21582">
        <ele>1251</ele>
        <time>2020-06-08T11:01:01Z</time>
      </trkpt>
      <trkpt lat="44.95805" lon="4.21695">
        <ele>1250</ele>
        <time>2020-06-08T11:01:26Z</time>
      </trkpt>
      <trkpt lat="44.95766" lon="4.21767">
        <ele>1251</ele>
        <time>2020-06-08T11:01:41Z</time>
      </trkpt>
      <trkpt lat="44.95739" lon="4.21811">
        <ele>1254</ele>
        <time>2020-06-08T11:01:50Z</time>
      </trkpt>
      <trkpt lat="44.95704" lon="4.21854">
        <ele>1257</ele>
        <time>2020-06-08T11:02:01Z</time>
      </trkpt>
      <trkpt lat="44.95657" lon="4.21905">
        <ele>1261</ele>
        <time>2020-06-08T11:02:15Z</time>
      </trkpt>
      <trkpt lat="44.95617" lon="4.21962">
        <ele>1262</ele>
        <time>2020-06-08T11:02:28Z</time>
      </trkpt>
      <trkpt lat="44.95595" lon="4.22005">
        <ele>1260</ele>
        <time>2020-06-08T11:02:37Z</time>
      </trkpt>
      <trkpt lat="44.95582" lon="4.22044">
        <ele>1263</ele>
        <time>2020-06-08T11:02:44Z</time>
      </trkpt>
      <trkpt lat="44.95583" lon="4.2205">
        <ele>1263</ele>
        <time>2020-06-08T11:02:45Z</time>
      </trkpt>
      <trkpt lat="44.95602" lon="4.22059">
        <ele>1259</ele>
        <time>2020-06-08T11:02:50Z</time>
      </trkpt>
      <trkpt lat="44.95643" lon="4.22094">
        <ele>1250</ele>
        <time>2020-06-08T11:03:01Z</time>
      </trkpt>
      <trkpt lat="44.95659" lon="4.22115">
        <ele>1249</ele>
        <time>2020-06-08T11:03:06Z</time>
      </trkpt>
      <trkpt lat="44.95669" lon="4.22135">
        <ele>1249</ele>
        <time>2020-06-08T11:03:10Z</time>
      </trkpt>
      <trkpt lat="44.95673" lon="4.22156">
        <ele>1250</ele>
        <time>2020-06-08T11:03:14Z</time>
      </trkpt>
      <trkpt lat="44.95675" lon="4.22197">
        <ele>1253</ele>
        <time>2020-06-08T11:03:20Z</time>
      </trkpt>
      <trkpt lat="44.95668" lon="4.22285">
        <ele>1260</ele>
        <time>2020-06-08T11:03:35Z</time>
      </trkpt>
      <trkpt lat="44.95663" lon="4.2231">
        <ele>1262</ele>
        <time>2020-06-08T11:03:39Z</time>
      </trkpt>
      <trkpt lat="44.95654" lon="4.22323">
        <ele>1264</ele>
        <time>2020-06-08T11:03:42Z</time>
      </trkpt>
      <trkpt lat="44.95621" lon="4.22344">
        <ele>1267</ele>
        <time>2020-06-08T11:03:51Z</time>
      </trkpt>
      <trkpt lat="44.9555" lon="4.2231">
        <ele>1274</ele>
        <time>2020-06-08T11:04:08Z</time>
      </trkpt>
      <trkpt lat="44.95507" lon="4.22286">
        <ele>1278</ele>
        <time>2020-06-08T11:04:19Z</time>
      </trkpt>
      <trkpt lat="44.95482" lon="4.22261">
        <ele>1281</ele>
        <time>2020-06-08T11:04:26Z</time>
      </trkpt>
      <trkpt lat="44.95452" lon="4.22215">
        <ele>1285</ele>
        <time>2020-06-08T11:04:37Z</time>
      </trkpt>
      <trkpt lat="44.95409" lon="4.22141">
        <ele>1289</ele>
        <time>2020-06-08T11:04:52Z</time>
      </trkpt>
      <trkpt lat="44.95396" lon="4.22136">
        <ele>1290</ele>
        <time>2020-06-08T11:04:56Z</time>
      </trkpt>
      <trkpt lat="44.95388" lon="4.2213">
        <ele>1291</ele>
        <time>2020-06-08T11:04:58Z</time>
      </trkpt>
      <trkpt lat="44.95381" lon="4.22101">
        <ele>1292</ele>
        <time>2020-06-08T11:05:03Z</time>
      </trkpt>
      <trkpt lat="44.95384" lon="4.22085">
        <ele>1292</ele>
        <time>2020-06-08T11:05:06Z</time>
      </trkpt>
      <trkpt lat="44.9538" lon="4.22057">
        <ele>1294</ele>
        <time>2020-06-08T11:05:10Z</time>
      </trkpt>
      <trkpt lat="44.95355" lon="4.22043">
        <ele>1297</ele>
        <time>2020-06-08T11:05:17Z</time>
      </trkpt>
      <trkpt lat="44.95342" lon="4.22042">
        <ele>1298</ele>
        <time>2020-06-08T11:05:20Z</time>
      </trkpt>
      <trkpt lat="44.95315" lon="4.22057">
        <ele>1299</ele>
        <time>2020-06-08T11:05:26Z</time>
      </trkpt>
      <trkpt lat="44.95302" lon="4.22061">
        <ele>1300</ele>
        <time>2020-06-08T11:05:29Z</time>
      </trkpt>
      <trkpt lat="44.95291" lon="4.22057">
        <ele>1301</ele>
        <time>2020-06-08T11:05:32Z</time>
      </trkpt>
      <trkpt lat="44.95266" lon="4.22021">
        <ele>1304</ele>
        <time>2020-06-08T11:05:40Z</time>
      </trkpt>
      <trkpt lat="44.95245" lon="4.22004">
        <ele>1307</ele>
        <time>2020-06-08T11:05:46Z</time>
      </trkpt>
      <trkpt lat="44.95148" lon="4.21874">
        <ele>1321</ele>
        <time>2020-06-08T11:06:17Z</time>
      </trkpt>
      <trkpt lat="44.95127" lon="4.21839">
        <ele>1325</ele>
        <time>2020-06-08T11:06:25Z</time>
      </trkpt>
      <trkpt lat="44.95108" lon="4.21829">
        <ele>1327</ele>
        <time>2020-06-08T11:06:30Z</time>
      </trkpt>
      <trkpt lat="44.95096" lon="4.21817">
        <ele>1328</ele>
        <time>2020-06-08T11:06:33Z</time>
      </trkpt>
      <trkpt lat="44.95088" lon="4.21796">
        <ele>1330</ele>
        <time>2020-06-08T11:06:37Z</time>
      </trkpt>
      <trkpt lat="44.95073" lon="4.21772">
        <ele>1332</ele>
        <time>2020-06-08T11:06:42Z</time>
      </trkpt>
      <trkpt lat="44.95018" lon="4.21709">
        <ele>1340</ele>
        <time>2020-06-08T11:06:59Z</time>
      </trkpt>
      <trkpt lat="44.94995" lon="4.21697">
        <ele>1342</ele>
        <time>2020-06-08T11:07:05Z</time>
      </trkpt>
      <trkpt lat="44.94971" lon="4.21692">
        <ele>1343</ele>
        <time>2020-06-08T11:07:10Z</time>
      </trkpt>
      <trkpt lat="44.94966" lon="4.21685">
        <ele>1343</ele>
        <time>2020-06-08T11:07:12Z</time>
      </trkpt>
      <trkpt lat="44.94884" lon="4.21447">
        <ele>1359</ele>
        <time>2020-06-08T11:07:56Z</time>
      </trkpt>
      <trkpt lat="44.94851" lon="4.21344">
        <ele>1366</ele>
        <time>2020-06-08T11:08:14Z</time>
      </trkpt>
      <trkpt lat="44.94844" lon="4.21301">
        <ele>1367</ele>
        <time>2020-06-08T11:08:22Z</time>
      </trkpt>
      <trkpt lat="44.94824" lon="4.21225">
        <ele>1367</ele>
        <time>2020-06-08T11:08:35Z</time>
      </trkpt>
      <trkpt lat="44.94813" lon="4.21213">
        <ele>1366</ele>
        <time>2020-06-08T11:08:38Z</time>
      </trkpt>
      <trkpt lat="44.94802" lon="4.21239">
        <ele>1367</ele>
        <time>2020-06-08T11:08:43Z</time>
      </trkpt>
      <trkpt lat="44.94797" lon="4.21243">
        <ele>1368</ele>
        <time>2020-06-08T11:08:45Z</time>
      </trkpt>
      <trkpt lat="44.94786" lon="4.21242">
        <ele>1368</ele>
        <time>2020-06-08T11:08:47Z</time>
      </trkpt>
      <trkpt lat="44.94704" lon="4.21212">
        <ele>1368</ele>
        <time>2020-06-08T11:09:07Z</time>
      </trkpt>
      <trkpt lat="44.94682" lon="4.21207">
        <ele>1368</ele>
        <time>2020-06-08T11:09:12Z</time>
      </trkpt>
      <trkpt lat="44.94546" lon="4.21204">
        <ele>1368</ele>
        <time>2020-06-08T11:09:44Z</time>
      </trkpt>
      <trkpt lat="44.94413" lon="4.21081">
        <ele>1371</ele>
        <time>2020-06-08T11:10:21Z</time>
      </trkpt>
      <trkpt lat="44.94346" lon="4.21015">
        <ele>1371</ele>
        <time>2020-06-08T11:10:40Z</time>
      </trkpt>
      <trkpt lat="44.9429" lon="4.20949">
        <ele>1371</ele>
        <time>2020-06-08T11:10:57Z</time>
      </trkpt>
      <trkpt lat="44.94222" lon="4.2085">
        <ele>1368</ele>
        <time>2020-06-08T11:11:20Z</time>
      </trkpt>
      <trkpt lat="44.94113" lon="4.20728">
        <ele>1358</ele>
        <time>2020-06-08T11:11:52Z</time>
      </trkpt>
      <trkpt lat="44.94067" lon="4.20585">
        <ele>1347</ele>
        <time>2020-06-08T11:12:18Z</time>
      </trkpt>
      <trkpt lat="44.94025" lon="4.20478">
        <ele>1334</ele>
        <time>2020-06-08T11:12:39Z</time>
      </trkpt>
      <trkpt lat="44.94007" lon="4.20448">
        <ele>1331</ele>
        <time>2020-06-08T11:12:45Z</time>
      </trkpt>
      <trkpt lat="44.9392" lon="4.20408">
        <ele>1325</ele>
        <time>2020-06-08T11:13:06Z</time>
      </trkpt>
      <trkpt lat="44.9388" lon="4.20395">
        <ele>1324</ele>
        <time>2020-06-08T11:13:16Z</time>
      </trkpt>
      <trkpt lat="44.9375" lon="4.2042">
        <ele>1333</ele>
        <time>2020-06-08T11:13:47Z</time>
      </trkpt>
      <trkpt lat="44.93735" lon="4.20419">
        <ele>1335</ele>
        <time>2020-06-08T11:13:50Z</time>
      </trkpt>
      <trkpt lat="44.93717" lon="4.20413">
        <ele>1338</ele>
        <time>2020-06-08T11:13:55Z</time>
      </trkpt>
      <trkpt lat="44.93697" lon="4.20399">
        <ele>1341</ele>
        <time>2020-06-08T11:14:00Z</time>
      </trkpt>
      <trkpt lat="44.93685" lon="4.20377">
        <ele>1343</ele>
        <time>2020-06-08T11:14:04Z</time>
      </trkpt>
      <trkpt lat="44.9368" lon="4.2034">
        <ele>1345</ele>
        <time>2020-06-08T11:14:11Z</time>
      </trkpt>
      <trkpt lat="44.93677" lon="4.20291">
        <ele>1347</ele>
        <time>2020-06-08T11:14:19Z</time>
      </trkpt>
      <trkpt lat="44.9367" lon="4.20242">
        <ele>1348</ele>
        <time>2020-06-08T11:14:27Z</time>
      </trkpt>
      <trkpt lat="44.93659" lon="4.20196">
        <ele>1348</ele>
        <time>2020-06-08T11:14:35Z</time>
      </trkpt>
      <trkpt lat="44.93642" lon="4.2015">
        <ele>1349</ele>
        <time>2020-06-08T11:14:44Z</time>
      </trkpt>
      <trkpt lat="44.9363" lon="4.20108">
        <ele>1348</ele>
        <time>2020-06-08T11:14:51Z</time>
      </trkpt>
      <trkpt lat="44.93622" lon="4.20069">
        <ele>1347</ele>
        <time>2020-06-08T11:14:58Z</time>
      </trkpt>
      <trkpt lat="44.93613" lon="4.20004">
        <ele>1347</ele>
        <time>2020-06-08T11:15:09Z</time>
      </trkpt>
      <trkpt lat="44.93615" lon="4.19828">
        <ele>1356</ele>
        <time>2020-06-08T11:15:38Z</time>
      </trkpt>
      <trkpt lat="44.93605" lon="4.19767">
        <ele>1360</ele>
        <time>2020-06-08T11:15:48Z</time>
      </trkpt>
      <trkpt lat="44.93548" lon="4.19639">
        <ele>1373</ele>
        <time>2020-06-08T11:16:13Z</time>
      </trkpt>
      <trkpt lat="44.93518" lon="4.19513">
        <ele>1382</ele>
        <time>2020-06-08T11:16:35Z</time>
      </trkpt>
      <trkpt lat="44.93506" lon="4.1943">
        <ele>1386</ele>
        <time>2020-06-08T11:16:49Z</time>
      </trkpt>
      <trkpt lat="44.93485" lon="4.19352">
        <ele>1389</ele>
        <time>2020-06-08T11:17:03Z</time>
      </trkpt>
      <trkpt lat="44.93369" lon="4.19084">
        <ele>1405</ele>
        <time>2020-06-08T11:17:55Z</time>
      </trkpt>
      <trkpt lat="44.93356" lon="4.19077">
        <ele>1407</ele>
        <time>2020-06-08T11:17:58Z</time>
      </trkpt>
      <trkpt lat="44.93344" lon="4.19081">
        <ele>1408</ele>
        <time>2020-06-08T11:18:01Z</time>
      </trkpt>
      <trkpt lat="44.93245" lon="4.19144">
        <ele>1416</ele>
        <time>2020-06-08T11:18:26Z</time>
      </trkpt>
      <trkpt lat="44.93224" lon="4.19151">
        <ele>1418</ele>
        <time>2020-06-08T11:18:31Z</time>
      </trkpt>
      <trkpt lat="44.93214" lon="4.1915">
        <ele>1418</ele>
        <time>2020-06-08T11:18:34Z</time>
      </trkpt>
      <trkpt lat="44.93202" lon="4.19136">
        <ele>1420</ele>
        <time>2020-06-08T11:18:37Z</time>
      </trkpt>
      <trkpt lat="44.93154" lon="4.19004">
        <ele>1432</ele>
        <time>2020-06-08T11:19:02Z</time>
      </trkpt>
      <trkpt lat="44.93145" lon="4.1899">
        <ele>1434</ele>
        <time>2020-06-08T11:19:05Z</time>
      </trkpt>
      <trkpt lat="44.9313" lon="4.18994">
        <ele>1436</ele>
        <time>2020-06-08T11:19:09Z</time>
      </trkpt>
      <trkpt lat="44.92999" lon="4.19123">
        <ele>1445</ele>
        <time>2020-06-08T11:19:46Z</time>
      </trkpt>
      <trkpt lat="44.92979" lon="4.19138">
        <ele>1445</ele>
        <time>2020-06-08T11:19:51Z</time>
      </trkpt>
      <trkpt lat="44.92962" lon="4.19126">
        <ele>1447</ele>
        <time>2020-06-08T11:19:56Z</time>
      </trkpt>
      <trkpt lat="44.92933" lon="4.19007">
        <ele>1456</ele>
        <time>2020-06-08T11:20:16Z</time>
      </trkpt>
      <trkpt lat="44.92913" lon="4.19008">
        <ele>1457</ele>
        <time>2020-06-08T11:20:21Z</time>
      </trkpt>
      <trkpt lat="44.92829" lon="4.19063">
        <ele>1461</ele>
        <time>2020-06-08T11:20:43Z</time>
      </trkpt>
      <trkpt lat="44.92779" lon="4.1908">
        <ele>1463</ele>
        <time>2020-06-08T11:20:55Z</time>
      </trkpt>
      <trkpt lat="44.92679" lon="4.19107">
        <ele>1467</ele>
        <time>2020-06-08T11:21:19Z</time>
      </trkpt>
      <trkpt lat="44.92648" lon="4.19108">
        <ele>1470</ele>
        <time>2020-06-08T11:21:26Z</time>
      </trkpt>
      <trkpt lat="44.92636" lon="4.19129">
        <ele>1468</ele>
        <time>2020-06-08T11:21:30Z</time>
      </trkpt>
      <trkpt lat="44.92601" lon="4.19147">
        <ele>1469</ele>
        <time>2020-06-08T11:21:39Z</time>
      </trkpt>
      <trkpt lat="44.92592" lon="4.19157">
        <ele>1468</ele>
        <time>2020-06-08T11:21:42Z</time>
      </trkpt>
      <trkpt lat="44.92591" lon="4.19167">
        <ele>1466</ele>
        <time>2020-06-08T11:21:43Z</time>
      </trkpt>
      <trkpt lat="44.92538" lon="4.19335">
        <ele>1466</ele>
        <time>2020-06-08T11:22:14Z</time>
      </trkpt>
      <trkpt lat="44.92543" lon="4.19344">
        <ele>1465</ele>
        <time>2020-06-08T11:22:16Z</time>
      </trkpt>
      <trkpt lat="44.92558" lon="4.19349">
        <ele>1462</ele>
        <time>2020-06-08T11:22:19Z</time>
      </trkpt>
      <trkpt lat="44.92552" lon="4.19369">
        <ele>1463</ele>
        <time>2020-06-08T11:22:23Z</time>
      </trkpt>
      <trkpt lat="44.92507" lon="4.19413">
        <ele>1473</ele>
        <time>2020-06-08T11:22:36Z</time>
      </trkpt>
      <trkpt lat="44.92459" lon="4.19426">
        <ele>1481</ele>
        <time>2020-06-08T11:22:47Z</time>
      </trkpt>
      <trkpt lat="44.92457" lon="4.19434">
        <ele>1482</ele>
        <time>2020-06-08T11:22:48Z</time>
      </trkpt>
      <trkpt lat="44.92419" lon="4.1945">
        <ele>1487</ele>
        <time>2020-06-08T11:22:58Z</time>
      </trkpt>
      <trkpt lat="44.9239" lon="4.19478">
        <ele>1490</ele>
        <time>2020-06-08T11:23:06Z</time>
      </trkpt>
      <trkpt lat="44.92367" lon="4.1949">
        <ele>1491</ele>
        <time>2020-06-08T11:23:12Z</time>
      </trkpt>
      <trkpt lat="44.92339" lon="4.19529">
        <ele>1492</ele>
        <time>2020-06-08T11:23:21Z</time>
      </trkpt>
      <trkpt lat="44.92339" lon="4.19555">
        <ele>1493</ele>
        <time>2020-06-08T11:23:25Z</time>
      </trkpt>
      <trkpt lat="44.92329" lon="4.19557">
        <ele>1493</ele>
        <time>2020-06-08T11:23:27Z</time>
      </trkpt>
      <trkpt lat="44.92323" lon="4.19591">
        <ele>1495</ele>
        <time>2020-06-08T11:23:33Z</time>
      </trkpt>
      <trkpt lat="44.92327" lon="4.19615">
        <ele>1497</ele>
        <time>2020-06-08T11:23:37Z</time>
      </trkpt>
      <trkpt lat="44.92324" lon="4.19627">
        <ele>1498</ele>
        <time>2020-06-08T11:23:39Z</time>
      </trkpt>
      <trkpt lat="44.92303" lon="4.19652">
        <ele>1501</ele>
        <time>2020-06-08T11:23:46Z</time>
      </trkpt>
      <trkpt lat="44.92297" lon="4.19669">
        <ele>1502</ele>
        <time>2020-06-08T11:23:49Z</time>
      </trkpt>
      <trkpt lat="44.92323" lon="4.19704">
        <ele>1503</ele>
        <time>2020-06-08T11:23:57Z</time>
      </trkpt>
      <trkpt lat="44.92337" lon="4.19743">
        <ele>1505</ele>
        <time>2020-06-08T11:24:05Z</time>
      </trkpt>
      <trkpt lat="44.92295" lon="4.19765">
        <ele>1506</ele>
        <time>2020-06-08T11:24:15Z</time>
      </trkpt>
      <trkpt lat="44.92272" lon="4.19811">
        <ele>1508</ele>
        <time>2020-06-08T11:24:24Z</time>
      </trkpt>
      <trkpt lat="44.92262" lon="4.1982">
        <ele>1509</ele>
        <time>2020-06-08T11:24:27Z</time>
      </trkpt>
      <trkpt lat="44.92222" lon="4.19829">
        <ele>1512</ele>
        <time>2020-06-08T11:24:37Z</time>
      </trkpt>
      <trkpt lat="44.922" lon="4.19844">
        <ele>1514</ele>
        <time>2020-06-08T11:24:42Z</time>
      </trkpt>
      <trkpt lat="44.92184" lon="4.19848">
        <ele>1515</ele>
        <time>2020-06-08T11:24:46Z</time>
      </trkpt>
      <trkpt lat="44.92153" lon="4.19843">
        <ele>1518</ele>
        <time>2020-06-08T11:24:53Z</time>
      </trkpt>
      <trkpt lat="44.92127" lon="4.19867">
        <ele>1523</ele>
        <time>2020-06-08T11:25:01Z</time>
      </trkpt>
      <trkpt lat="44.92077" lon="4.19897">
        <ele>1530</ele>
        <time>2020-06-08T11:25:13Z</time>
      </trkpt>
      <trkpt lat="44.92051" lon="4.1991">
        <ele>1533</ele>
        <time>2020-06-08T11:25:20Z</time>
      </trkpt>
      <trkpt lat="44.92039" lon="4.19905">
        <ele>1534</ele>
        <time>2020-06-08T11:25:23Z</time>
      </trkpt>
      <trkpt lat="44.92031" lon="4.1988">
        <ele>1535</ele>
        <time>2020-06-08T11:25:27Z</time>
      </trkpt>
      <trkpt lat="44.92026" lon="4.19852">
        <ele>1536</ele>
        <time>2020-06-08T11:25:32Z</time>
      </trkpt>
      <trkpt lat="44.92026" lon="4.19806">
        <ele>1539</ele>
        <time>2020-06-08T11:25:40Z</time>
      </trkpt>
      <trkpt lat="44.92016" lon="4.19779">
        <ele>1543</ele>
        <time>2020-06-08T11:25:45Z</time>
      </trkpt>
      <trkpt lat="44.92011" lon="4.19754">
        <ele>1546</ele>
        <time>2020-06-08T11:25:49Z</time>
      </trkpt>
      <trkpt lat="44.9202" lon="4.1971">
        <ele>1548</ele>
        <time>2020-06-08T11:25:56Z</time>
      </trkpt>
      <trkpt lat="44.92052" lon="4.19613">
        <ele>1549</ele>
        <time>2020-06-08T11:26:14Z</time>
      </trkpt>
      <trkpt lat="44.92049" lon="4.19469">
        <ele>1555</ele>
        <time>2020-06-08T11:26:38Z</time>
      </trkpt>
      <trkpt lat="44.92035" lon="4.19366">
        <ele>1557</ele>
        <time>2020-06-08T11:26:55Z</time>
      </trkpt>
      <trkpt lat="44.91979" lon="4.19198">
        <ele>1557</ele>
        <time>2020-06-08T11:27:26Z</time>
      </trkpt>
      <trkpt lat="44.91939" lon="4.19011">
        <ele>1554</ele>
        <time>2020-06-08T11:27:58Z</time>
      </trkpt>
      <trkpt lat="44.91915" lon="4.18964">
        <ele>1559</ele>
        <time>2020-06-08T11:28:08Z</time>
      </trkpt>
      <trkpt lat="44.91897" lon="4.18864">
        <ele>1561</ele>
        <time>2020-06-08T11:28:25Z</time>
      </trkpt>
      <trkpt lat="44.91866" lon="4.18773">
        <ele>1561</ele>
        <time>2020-06-08T11:28:42Z</time>
      </trkpt>
      <trkpt lat="44.91804" lon="4.1867">
        <ele>1566</ele>
        <time>2020-06-08T11:29:04Z</time>
      </trkpt>
      <trkpt lat="44.9176" lon="4.1859">
        <ele>1568</ele>
        <time>2020-06-08T11:29:21Z</time>
      </trkpt>
      <trkpt lat="44.9174" lon="4.18524">
        <ele>1567</ele>
        <time>2020-06-08T11:29:33Z</time>
      </trkpt>
      <trkpt lat="44.91703" lon="4.18443">
        <ele>1571</ele>
        <time>2020-06-08T11:29:49Z</time>
      </trkpt>
      <trkpt lat="44.91675" lon="4.1837">
        <ele>1573</ele>
        <time>2020-06-08T11:30:02Z</time>
      </trkpt>
      <trkpt lat="44.91612" lon="4.18175">
        <ele>1576</ele>
        <time>2020-06-08T11:30:38Z</time>
      </trkpt>
      <trkpt lat="44.91593" lon="4.18043">
        <ele>1575</ele>
        <time>2020-06-08T11:31:00Z</time>
      </trkpt>
      <trkpt lat="44.91591" lon="4.17907">
        <ele>1571</ele>
        <time>2020-06-08T11:31:23Z</time>
      </trkpt>
      <trkpt lat="44.91594" lon="4.17862">
        <ele>1569</ele>
        <time>2020-06-08T11:31:30Z</time>
      </trkpt>
      <trkpt lat="44.91582" lon="4.17868">
        <ele>1571</ele>
        <time>2020-06-08T11:31:33Z</time>
      </trkpt>
      <trkpt lat="44.91503" lon="4.17968">
        <ele>1580</ele>
        <time>2020-06-08T11:31:58Z</time>
      </trkpt>
      <trkpt lat="44.91379" lon="4.18192">
        <ele>1596</ele>
        <time>2020-06-08T11:32:45Z</time>
      </trkpt>
      <trkpt lat="44.91368" lon="4.18216">
        <ele>1598</ele>
        <time>2020-06-08T11:32:49Z</time>
      </trkpt>
      <trkpt lat="44.91288" lon="4.18115">
        <ele>1587</ele>
        <time>2020-06-08T11:33:15Z</time>
      </trkpt>
      <trkpt lat="44.91277" lon="4.18113">
        <ele>1586</ele>
        <time>2020-06-08T11:33:17Z</time>
      </trkpt>
      <trkpt lat="44.91262" lon="4.18115">
        <ele>1586</ele>
        <time>2020-06-08T11:33:21Z</time>
      </trkpt>
      <trkpt lat="44.91237" lon="4.1813">
        <ele>1587</ele>
        <time>2020-06-08T11:33:27Z</time>
      </trkpt>
      <trkpt lat="44.91171" lon="4.18198">
        <ele>1592</ele>
        <time>2020-06-08T11:33:46Z</time>
      </trkpt>
      <trkpt lat="44.91158" lon="4.18216">
        <ele>1594</ele>
        <time>2020-06-08T11:33:50Z</time>
      </trkpt>
      <trkpt lat="44.91139" lon="4.18235">
        <ele>1596</ele>
        <time>2020-06-08T11:33:56Z</time>
      </trkpt>
      <trkpt lat="44.91057" lon="4.18288">
        <ele>1600</ele>
        <time>2020-06-08T11:34:17Z</time>
      </trkpt>
      <trkpt lat="44.9104" lon="4.18308">
        <ele>1602</ele>
        <time>2020-06-08T11:34:22Z</time>
      </trkpt>
      <trkpt lat="44.90997" lon="4.18329">
        <ele>1601</ele>
        <time>2020-06-08T11:34:33Z</time>
      </trkpt>
      <trkpt lat="44.90962" lon="4.18331">
        <ele>1599</ele>
        <time>2020-06-08T11:34:41Z</time>
      </trkpt>
      <trkpt lat="44.90944" lon="4.18342">
        <ele>1599</ele>
        <time>2020-06-08T11:34:45Z</time>
      </trkpt>
      <trkpt lat="44.90886" lon="4.18389">
        <ele>1599</ele>
        <time>2020-06-08T11:35:01Z</time>
      </trkpt>
      <trkpt lat="44.90874" lon="4.18418">
        <ele>1601</ele>
        <time>2020-06-08T11:35:07Z</time>
      </trkpt>
      <trkpt lat="44.90861" lon="4.18437">
        <ele>1601</ele>
        <time>2020-06-08T11:35:11Z</time>
      </trkpt>
      <trkpt lat="44.90831" lon="4.18456">
        <ele>1601</ele>
        <time>2020-06-08T11:35:19Z</time>
      </trkpt>
      <trkpt lat="44.90658" lon="4.18488">
        <ele>1587</ele>
        <time>2020-06-08T11:35:59Z</time>
      </trkpt>
      <trkpt lat="44.90635" lon="4.18489">
        <ele>1585</ele>
        <time>2020-06-08T11:36:05Z</time>
      </trkpt>
      <trkpt lat="44.90619" lon="4.18481">
        <ele>1582</ele>
        <time>2020-06-08T11:36:09Z</time>
      </trkpt>
      <trkpt lat="44.90598" lon="4.1848">
        <ele>1579</ele>
        <time>2020-06-08T11:36:14Z</time>
      </trkpt>
      <trkpt lat="44.90455" lon="4.18534">
        <ele>1566</ele>
        <time>2020-06-08T11:36:48Z</time>
      </trkpt>
      <trkpt lat="44.90373" lon="4.18553">
        <ele>1557</ele>
        <time>2020-06-08T11:37:08Z</time>
      </trkpt>
      <trkpt lat="44.90334" lon="4.18553">
        <ele>1551</ele>
        <time>2020-06-08T11:37:17Z</time>
      </trkpt>
      <trkpt lat="44.90274" lon="4.18526">
        <ele>1543</ele>
        <time>2020-06-08T11:37:31Z</time>
      </trkpt>
      <trkpt lat="44.90183" lon="4.18509">
        <ele>1533</ele>
        <time>2020-06-08T11:37:53Z</time>
      </trkpt>
      <trkpt lat="44.90062" lon="4.18465">
        <ele>1520</ele>
        <time>2020-06-08T11:38:22Z</time>
      </trkpt>
      <trkpt lat="44.90037" lon="4.18448">
        <ele>1517</ele>
        <time>2020-06-08T11:38:28Z</time>
      </trkpt>
      <trkpt lat="44.90017" lon="4.18452">
        <ele>1515</ele>
        <time>2020-06-08T11:38:33Z</time>
      </trkpt>
      <trkpt lat="44.89974" lon="4.18499">
        <ele>1515</ele>
        <time>2020-06-08T11:38:46Z</time>
      </trkpt>
      <trkpt lat="44.89942" lon="4.18524">
        <ele>1513</ele>
        <time>2020-06-08T11:38:54Z</time>
      </trkpt>
      <trkpt lat="44.89932" lon="4.18493">
        <ele>1514</ele>
        <time>2020-06-08T11:39:00Z</time>
      </trkpt>
      <trkpt lat="44.899" lon="4.18491">
        <ele>1515</ele>
        <time>2020-06-08T11:39:08Z</time>
      </trkpt>
      <trkpt lat="44.89848" lon="4.18461">
        <ele>1519</ele>
        <time>2020-06-08T11:39:21Z</time>
      </trkpt>
      <trkpt lat="44.89737" lon="4.1842">
        <ele>1531</ele>
        <time>2020-06-08T11:39:47Z</time>
      </trkpt>
      <trkpt lat="44.89566" lon="4.1839">
        <ele>1545</ele>
        <time>2020-06-08T11:40:28Z</time>
      </trkpt>
      <trkpt lat="44.89553" lon="4.18372">
        <ele>1548</ele>
        <time>2020-06-08T11:40:32Z</time>
      </trkpt>
      <trkpt lat="44.8954" lon="4.18362">
        <ele>1550</ele>
        <time>2020-06-08T11:40:35Z</time>
      </trkpt>
      <trkpt lat="44.89519" lon="4.18366">
        <ele>1551</ele>
        <time>2020-06-08T11:40:40Z</time>
      </trkpt>
      <trkpt lat="44.89484" lon="4.18383">
        <ele>1550</ele>
        <time>2020-06-08T11:40:49Z</time>
      </trkpt>
      <trkpt lat="44.89454" lon="4.18386">
        <ele>1552</ele>
        <time>2020-06-08T11:40:56Z</time>
      </trkpt>
      <trkpt lat="44.89443" lon="4.18384">
        <ele>1554</ele>
        <time>2020-06-08T11:40:59Z</time>
      </trkpt>
      <trkpt lat="44.89431" lon="4.18368">
        <ele>1558</ele>
        <time>2020-06-08T11:41:02Z</time>
      </trkpt>
      <trkpt lat="44.89419" lon="4.18358">
        <ele>1562</ele>
        <time>2020-06-08T11:41:06Z</time>
      </trkpt>
      <trkpt lat="44.89395" lon="4.18357">
        <ele>1564</ele>
        <time>2020-06-08T11:41:11Z</time>
      </trkpt>
      <trkpt lat="44.89378" lon="4.18347">
        <ele>1567</ele>
        <time>2020-06-08T11:41:16Z</time>
      </trkpt>
      <trkpt lat="44.89338" lon="4.1827">
        <ele>1575</ele>
        <time>2020-06-08T11:41:31Z</time>
      </trkpt>
      <trkpt lat="44.89269" lon="4.18214">
        <ele>1576</ele>
        <time>2020-06-08T11:41:50Z</time>
      </trkpt>
      <trkpt lat="44.89119" lon="4.18103">
        <ele>1571</ele>
        <time>2020-06-08T11:42:30Z</time>
      </trkpt>
      <trkpt lat="44.89038" lon="4.18052">
        <ele>1566</ele>
        <time>2020-06-08T11:42:50Z</time>
      </trkpt>
      <trkpt lat="44.88965" lon="4.1801">
        <ele>1561</ele>
        <time>2020-06-08T11:43:09Z</time>
      </trkpt>
      <trkpt lat="44.88643" lon="4.17857">
        <ele>1527</ele>
        <time>2020-06-08T11:44:28Z</time>
      </trkpt>
      <trkpt lat="44.8863" lon="4.17867">
        <ele>1526</ele>
        <time>2020-06-08T11:44:31Z</time>
      </trkpt>
      <trkpt lat="44.88683" lon="4.18096">
        <ele>1523</ele>
        <time>2020-06-08T11:45:11Z</time>
      </trkpt>
      <trkpt lat="44.88676" lon="4.18115">
        <ele>1521</ele>
        <time>2020-06-08T11:45:15Z</time>
      </trkpt>
      <trkpt lat="44.88668" lon="4.18119">
        <ele>1520</ele>
        <time>2020-06-08T11:45:17Z</time>
      </trkpt>
      <trkpt lat="44.88641" lon="4.18117">
        <ele>1518</ele>
        <time>2020-06-08T11:45:23Z</time>
      </trkpt>
      <trkpt lat="44.88564" lon="4.18159">
        <ele>1510</ele>
        <time>2020-06-08T11:45:42Z</time>
      </trkpt>
      <trkpt lat="44.88557" lon="4.18175">
        <ele>1508</ele>
        <time>2020-06-08T11:45:46Z</time>
      </trkpt>
      <trkpt lat="44.88555" lon="4.18189">
        <ele>1506</ele>
        <time>2020-06-08T11:45:48Z</time>
      </trkpt>
      <trkpt lat="44.88498" lon="4.18219">
        <ele>1497</ele>
        <time>2020-06-08T11:46:02Z</time>
      </trkpt>
      <trkpt lat="44.88474" lon="4.18227">
        <ele>1495</ele>
        <time>2020-06-08T11:46:08Z</time>
      </trkpt>
      <trkpt lat="44.88449" lon="4.18232">
        <ele>1493</ele>
        <time>2020-06-08T11:46:14Z</time>
      </trkpt>
      <trkpt lat="44.88424" lon="4.18231">
        <ele>1492</ele>
        <time>2020-06-08T11:46:20Z</time>
      </trkpt>
      <trkpt lat="44.88392" lon="4.18227">
        <ele>1489</ele>
        <time>2020-06-08T11:46:27Z</time>
      </trkpt>
      <trkpt lat="44.88346" lon="4.18211">
        <ele>1486</ele>
        <time>2020-06-08T11:46:38Z</time>
      </trkpt>
      <trkpt lat="44.88255" lon="4.18169">
        <ele>1477</ele>
        <time>2020-06-08T11:47:01Z</time>
      </trkpt>
      <trkpt lat="44.88132" lon="4.18063">
        <ele>1466</ele>
        <time>2020-06-08T11:47:34Z</time>
      </trkpt>
      <trkpt lat="44.88004" lon="4.17975">
        <ele>1457</ele>
        <time>2020-06-08T11:48:07Z</time>
      </trkpt>
      <trkpt lat="44.87973" lon="4.17971">
        <ele>1455</ele>
        <time>2020-06-08T11:48:15Z</time>
      </trkpt>
      <trkpt lat="44.87946" lon="4.17978">
        <ele>1452</ele>
        <time>2020-06-08T11:48:21Z</time>
      </trkpt>
      <trkpt lat="44.87912" lon="4.17971">
        <ele>1450</ele>
        <time>2020-06-08T11:48:29Z</time>
      </trkpt>
      <trkpt lat="44.87828" lon="4.17939">
        <ele>1438</ele>
        <time>2020-06-08T11:48:50Z</time>
      </trkpt>
      <trkpt lat="44.87814" lon="4.17938">
        <ele>1436</ele>
        <time>2020-06-08T11:48:53Z</time>
      </trkpt>
      <trkpt lat="44.87809" lon="4.17947">
        <ele>1434</ele>
        <time>2020-06-08T11:48:55Z</time>
      </trkpt>
      <trkpt lat="44.87815" lon="4.17969">
        <ele>1433</ele>
        <time>2020-06-08T11:48:59Z</time>
      </trkpt>
      <trkpt lat="44.87845" lon="4.18032">
        <ele>1431</ele>
        <time>2020-06-08T11:49:11Z</time>
      </trkpt>
      <trkpt lat="44.87896" lon="4.18171">
        <ele>1420</ele>
        <time>2020-06-08T11:49:37Z</time>
      </trkpt>
      <trkpt lat="44.87933" lon="4.18264">
        <ele>1406</ele>
        <time>2020-06-08T11:49:55Z</time>
      </trkpt>
      <trkpt lat="44.87929" lon="4.18272">
        <ele>1404</ele>
        <time>2020-06-08T11:49:56Z</time>
      </trkpt>
      <trkpt lat="44.87913" lon="4.18269">
        <ele>1405</ele>
        <time>2020-06-08T11:50:00Z</time>
      </trkpt>
      <trkpt lat="44.87897" lon="4.18255">
        <ele>1406</ele>
        <time>2020-06-08T11:50:04Z</time>
      </trkpt>
      <trkpt lat="44.87875" lon="4.18225">
        <ele>1408</ele>
        <time>2020-06-08T11:50:12Z</time>
      </trkpt>
      <trkpt lat="44.87868" lon="4.1823">
        <ele>1406</ele>
        <time>2020-06-08T11:50:13Z</time>
      </trkpt>
      <trkpt lat="44.87871" lon="4.18247">
        <ele>1404</ele>
        <time>2020-06-08T11:50:16Z</time>
      </trkpt>
      <trkpt lat="44.87885" lon="4.18283">
        <ele>1400</ele>
        <time>2020-06-08T11:50:23Z</time>
      </trkpt>
      <trkpt lat="44.87884" lon="4.18295">
        <ele>1398</ele>
        <time>2020-06-08T11:50:25Z</time>
      </trkpt>
      <trkpt lat="44.87871" lon="4.18293">
        <ele>1397</ele>
        <time>2020-06-08T11:50:28Z</time>
      </trkpt>
      <trkpt lat="44.87857" lon="4.18284">
        <ele>1398</ele>
        <time>2020-06-08T11:50:32Z</time>
      </trkpt>
      <trkpt lat="44.87844" lon="4.18283">
        <ele>1397</ele>
        <time>2020-06-08T11:50:35Z</time>
      </trkpt>
      <trkpt lat="44.87835" lon="4.1829">
        <ele>1395</ele>
        <time>2020-06-08T11:50:37Z</time>
      </trkpt>
      <trkpt lat="44.87826" lon="4.18351">
        <ele>1389</ele>
        <time>2020-06-08T11:50:48Z</time>
      </trkpt>
      <trkpt lat="44.87811" lon="4.18383">
        <ele>1385</ele>
        <time>2020-06-08T11:50:54Z</time>
      </trkpt>
      <trkpt lat="44.8779" lon="4.18408">
        <ele>1384</ele>
        <time>2020-06-08T11:51:00Z</time>
      </trkpt>
      <trkpt lat="44.87778" lon="4.18414">
        <ele>1383</ele>
        <time>2020-06-08T11:51:03Z</time>
      </trkpt>
      <trkpt lat="44.87717" lon="4.18471">
        <ele>1385</ele>
        <time>2020-06-08T11:51:20Z</time>
      </trkpt>
      <trkpt lat="44.87647" lon="4.18514">
        <ele>1391</ele>
        <time>2020-06-08T11:51:38Z</time>
      </trkpt>
      <trkpt lat="44.87556" lon="4.18595">
        <ele>1408</ele>
        <time>2020-06-08T11:52:03Z</time>
      </trkpt>
      <trkpt lat="44.87522" lon="4.18605">
        <ele>1413</ele>
        <time>2020-06-08T11:52:11Z</time>
      </trkpt>
      <trkpt lat="44.87479" lon="4.18598">
        <ele>1416</ele>
        <time>2020-06-08T11:52:22Z</time>
      </trkpt>
      <trkpt lat="44.87451" lon="4.18607">
        <ele>1420</ele>
        <time>2020-06-08T11:52:28Z</time>
      </trkpt>
      <trkpt lat="44.8745" lon="4.18615">
        <ele>1422</ele>
        <time>2020-06-08T11:52:30Z</time>
      </trkpt>
      <trkpt lat="44.87404" lon="4.18619">
        <ele>1426</ele>
        <time>2020-06-08T11:52:40Z</time>
      </trkpt>
      <trkpt lat="44.87384" lon="4.18639">
        <ele>1430</ele>
        <time>2020-06-08T11:52:46Z</time>
      </trkpt>
      <trkpt lat="44.87354" lon="4.18657">
        <ele>1434</ele>
        <time>2020-06-08T11:52:54Z</time>
      </trkpt>
      <trkpt lat="44.87339" lon="4.18676">
        <ele>1438</ele>
        <time>2020-06-08T11:52:58Z</time>
      </trkpt>
      <trkpt lat="44.87308" lon="4.18693">
        <ele>1440</ele>
        <time>2020-06-08T11:53:06Z</time>
      </trkpt>
      <trkpt lat="44.87282" lon="4.18744">
        <ele>1448</ele>
        <time>2020-06-08T11:53:17Z</time>
      </trkpt>
      <trkpt lat="44.87263" lon="4.18748">
        <ele>1448</ele>
        <time>2020-06-08T11:53:21Z</time>
      </trkpt>
      <trkpt lat="44.87146" lon="4.18747">
        <ele>1452</ele>
        <time>2020-06-08T11:53:48Z</time>
      </trkpt>
      <trkpt lat="44.87073" lon="4.18713">
        <ele>1458</ele>
        <time>2020-06-08T11:54:06Z</time>
      </trkpt>
      <trkpt lat="44.86986" lon="4.18649">
        <ele>1459</ele>
        <time>2020-06-08T11:54:29Z</time>
      </trkpt>
      <trkpt lat="44.86952" lon="4.18636">
        <ele>1458</ele>
        <time>2020-06-08T11:54:37Z</time>
      </trkpt>
      <trkpt lat="44.86927" lon="4.18635">
        <ele>1458</ele>
        <time>2020-06-08T11:54:43Z</time>
      </trkpt>
      <trkpt lat="44.86837" lon="4.18877">
        <ele>1471</ele>
        <time>2020-06-08T11:55:29Z</time>
      </trkpt>
      <trkpt lat="44.86821" lon="4.18926">
        <ele>1469</ele>
        <time>2020-06-08T11:55:37Z</time>
      </trkpt>
      <trkpt lat="44.86678" lon="4.193">
        <ele>1421</ele>
        <time>2020-06-08T11:56:48Z</time>
      </trkpt>
      <trkpt lat="44.8665" lon="4.19357">
        <ele>1411</ele>
        <time>2020-06-08T11:56:59Z</time>
      </trkpt>
      <trkpt lat="44.86617" lon="4.19396">
        <ele>1406</ele>
        <time>2020-06-08T11:57:09Z</time>
      </trkpt>
      <trkpt lat="44.8659" lon="4.19457">
        <ele>1403</ele>
        <time>2020-06-08T11:57:21Z</time>
      </trkpt>
      <trkpt lat="44.86586" lon="4.19473">
        <ele>1403</ele>
        <time>2020-06-08T11:57:24Z</time>
      </trkpt>
      <trkpt lat="44.86569" lon="4.19497">
        <ele>1402</ele>
        <time>2020-06-08T11:57:30Z</time>
      </trkpt>
      <trkpt lat="44.86383" lon="4.1964">
        <ele>1397</ele>
        <time>2020-06-08T11:58:19Z</time>
      </trkpt>
      <trkpt lat="44.86314" lon="4.19674">
        <ele>1397</ele>
        <time>2020-06-08T11:58:36Z</time>
      </trkpt>
      <trkpt lat="44.86277" lon="4.19689">
        <ele>1395</ele>
        <time>2020-06-08T11:58:45Z</time>
      </trkpt>
      <trkpt lat="44.8622" lon="4.19722">
        <ele>1394</ele>
        <time>2020-06-08T11:59:00Z</time>
      </trkpt>
      <trkpt lat="44.86184" lon="4.19738">
        <ele>1393</ele>
        <time>2020-06-08T11:59:08Z</time>
      </trkpt>
      <trkpt lat="44.86122" lon="4.1974">
        <ele>1393</ele>
        <time>2020-06-08T11:59:23Z</time>
      </trkpt>
      <trkpt lat="44.86079" lon="4.19744">
        <ele>1393</ele>
        <time>2020-06-08T11:59:33Z</time>
      </trkpt>
      <trkpt lat="44.86044" lon="4.19763">
        <ele>1394</ele>
        <time>2020-06-08T11:59:42Z</time>
      </trkpt>
      <trkpt lat="44.86025" lon="4.19783">
        <ele>1395</ele>
        <time>2020-06-08T11:59:47Z</time>
      </trkpt>
      <trkpt lat="44.85986" lon="4.19837">
        <ele>1394</ele>
        <time>2020-06-08T12:00:00Z</time>
      </trkpt>
      <trkpt lat="44.85963" lon="4.19863">
        <ele>1392</ele>
        <time>2020-06-08T12:00:07Z</time>
      </trkpt>
      <trkpt lat="44.85898" lon="4.19888">
        <ele>1383</ele>
        <time>2020-06-08T12:00:23Z</time>
      </trkpt>
      <trkpt lat="44.85875" lon="4.19918">
        <ele>1381</ele>
        <time>2020-06-08T12:00:30Z</time>
      </trkpt>
      <trkpt lat="44.85837" lon="4.19941">
        <ele>1378</ele>
        <time>2020-06-08T12:00:40Z</time>
      </trkpt>
      <trkpt lat="44.85768" lon="4.19999">
        <ele>1379</ele>
        <time>2020-06-08T12:00:58Z</time>
      </trkpt>
      <trkpt lat="44.85736" lon="4.20045">
        <ele>1379</ele>
        <time>2020-06-08T12:01:09Z</time>
      </trkpt>
      <trkpt lat="44.85688" lon="4.20076">
        <ele>1381</ele>
        <time>2020-06-08T12:01:21Z</time>
      </trkpt>
      <trkpt lat="44.85658" lon="4.20085">
        <ele>1382</ele>
        <time>2020-06-08T12:01:28Z</time>
      </trkpt>
      <trkpt lat="44.85623" lon="4.20193">
        <ele>1384</ele>
        <time>2020-06-08T12:01:48Z</time>
      </trkpt>
      <trkpt lat="44.85597" lon="4.20261">
        <ele>1386</ele>
        <time>2020-06-08T12:02:01Z</time>
      </trkpt>
      <trkpt lat="44.85563" lon="4.20362">
        <ele>1377</ele>
        <time>2020-06-08T12:02:19Z</time>
      </trkpt>
      <trkpt lat="44.85551" lon="4.20387">
        <ele>1374</ele>
        <time>2020-06-08T12:02:24Z</time>
      </trkpt>
      <trkpt lat="44.85515" lon="4.20436">
        <ele>1368</ele>
        <time>2020-06-08T12:02:36Z</time>
      </trkpt>
      <trkpt lat="44.85491" lon="4.2046">
        <ele>1364</ele>
        <time>2020-06-08T12:02:43Z</time>
      </trkpt>
      <trkpt lat="44.85479" lon="4.20474">
        <ele>1362</ele>
        <time>2020-06-08T12:02:47Z</time>
      </trkpt>
      <trkpt lat="44.85476" lon="4.20481">
        <ele>1361</ele>
        <time>2020-06-08T12:02:48Z</time>
      </trkpt>
      <trkpt lat="44.85467" lon="4.20481">
        <ele>1360</ele>
        <time>2020-06-08T12:02:50Z</time>
      </trkpt>
      <trkpt lat="44.85448" lon="4.20487">
        <ele>1359</ele>
        <time>2020-06-08T12:02:55Z</time>
      </trkpt>
      <trkpt lat="44.85434" lon="4.205">
        <ele>1358</ele>
        <time>2020-06-08T12:02:59Z</time>
      </trkpt>
      <trkpt lat="44.85422" lon="4.20516">
        <ele>1357</ele>
        <time>2020-06-08T12:03:02Z</time>
      </trkpt>
      <trkpt lat="44.85401" lon="4.20534">
        <ele>1356</ele>
        <time>2020-06-08T12:03:08Z</time>
      </trkpt>
      <trkpt lat="44.85357" lon="4.20555">
        <ele>1355</ele>
        <time>2020-06-08T12:03:19Z</time>
      </trkpt>
      <trkpt lat="44.85333" lon="4.20552">
        <ele>1356</ele>
        <time>2020-06-08T12:03:25Z</time>
      </trkpt>
      <trkpt lat="44.8515" lon="4.20495">
        <ele>1356</ele>
        <time>2020-06-08T12:04:08Z</time>
      </trkpt>
      <trkpt lat="44.85132" lon="4.20485">
        <ele>1358</ele>
        <time>2020-06-08T12:04:13Z</time>
      </trkpt>
      <trkpt lat="44.85109" lon="4.20494">
        <ele>1360</ele>
        <time>2020-06-08T12:04:18Z</time>
      </trkpt>
      <trkpt lat="44.85063" lon="4.20489">
        <ele>1365</ele>
        <time>2020-06-08T12:04:29Z</time>
      </trkpt>
      <trkpt lat="44.85019" lon="4.20502">
        <ele>1370</ele>
        <time>2020-06-08T12:04:40Z</time>
      </trkpt>
      <trkpt lat="44.84964" lon="4.20508">
        <ele>1376</ele>
        <time>2020-06-08T12:04:53Z</time>
      </trkpt>
      <trkpt lat="44.84914" lon="4.20571">
        <ele>1380</ele>
        <time>2020-06-08T12:05:08Z</time>
      </trkpt>
      <trkpt lat="44.849" lon="4.20603">
        <ele>1380</ele>
        <time>2020-06-08T12:05:15Z</time>
      </trkpt>
      <trkpt lat="44.84869" lon="4.20691">
        <ele>1383</ele>
        <time>2020-06-08T12:05:31Z</time>
      </trkpt>
      <trkpt lat="44.84852" lon="4.2071">
        <ele>1383</ele>
        <time>2020-06-08T12:05:36Z</time>
      </trkpt>
      <trkpt lat="44.84822" lon="4.20723">
        <ele>1385</ele>
        <time>2020-06-08T12:05:43Z</time>
      </trkpt>
      <trkpt lat="44.84775" lon="4.20813">
        <ele>1388</ele>
        <time>2020-06-08T12:06:02Z</time>
      </trkpt>
      <trkpt lat="44.84759" lon="4.20865">
        <ele>1390</ele>
        <time>2020-06-08T12:06:11Z</time>
      </trkpt>
      <trkpt lat="44.84754" lon="4.2093">
        <ele>1393</ele>
        <time>2020-06-08T12:06:22Z</time>
      </trkpt>
      <trkpt lat="44.84743" lon="4.20987">
        <ele>1395</ele>
        <time>2020-06-08T12:06:32Z</time>
      </trkpt>
      <trkpt lat="44.84731" lon="4.20996">
        <ele>1396</ele>
        <time>2020-06-08T12:06:35Z</time>
      </trkpt>
      <trkpt lat="44.84722" lon="4.21023">
        <ele>1398</ele>
        <time>2020-06-08T12:06:40Z</time>
      </trkpt>
      <trkpt lat="44.84719" lon="4.21046">
        <ele>1400</ele>
        <time>2020-06-08T12:06:44Z</time>
      </trkpt>
      <trkpt lat="44.84694" lon="4.21085">
        <ele>1403</ele>
        <time>2020-06-08T12:06:52Z</time>
      </trkpt>
      <trkpt lat="44.84675" lon="4.21111">
        <ele>1404</ele>
        <time>2020-06-08T12:06:59Z</time>
      </trkpt>
      <trkpt lat="44.84644" lon="4.21137">
        <ele>1405</ele>
        <time>2020-06-08T12:07:07Z</time>
      </trkpt>
      <trkpt lat="44.846" lon="4.21167">
        <ele>1406</ele>
        <time>2020-06-08T12:07:18Z</time>
      </trkpt>
      <trkpt lat="44.84473" lon="4.21243">
        <ele>1411</ele>
        <time>2020-06-08T12:07:51Z</time>
      </trkpt>
      <trkpt lat="44.84453" lon="4.21262">
        <ele>1412</ele>
        <time>2020-06-08T12:07:56Z</time>
      </trkpt>
      <trkpt lat="44.84436" lon="4.21312">
        <ele>1413</ele>
        <time>2020-06-08T12:08:05Z</time>
      </trkpt>
      <trkpt lat="44.84414" lon="4.21357">
        <ele>1413</ele>
        <time>2020-06-08T12:08:14Z</time>
      </trkpt>
      <trkpt lat="44.84386" lon="4.21473">
        <ele>1415</ele>
        <time>2020-06-08T12:08:35Z</time>
      </trkpt>
      <trkpt lat="44.84357" lon="4.21551">
        <ele>1414</ele>
        <time>2020-06-08T12:08:49Z</time>
      </trkpt>
      <trkpt lat="44.8433" lon="4.21604">
        <ele>1414</ele>
        <time>2020-06-08T12:09:00Z</time>
      </trkpt>
      <trkpt lat="44.84259" lon="4.21501">
        <ele>1404</ele>
        <time>2020-06-08T12:09:24Z</time>
      </trkpt>
      <trkpt lat="44.84199" lon="4.21423">
        <ele>1391</ele>
        <time>2020-06-08T12:09:43Z</time>
      </trkpt>
      <trkpt lat="44.84154" lon="4.21376">
        <ele>1383</ele>
        <time>2020-06-08T12:09:56Z</time>
      </trkpt>
      <trkpt lat="44.84111" lon="4.21288">
        <ele>1372</ele>
        <time>2020-06-08T12:10:14Z</time>
      </trkpt>
      <trkpt lat="44.84047" lon="4.21293">
        <ele>1363</ele>
        <time>2020-06-08T12:10:29Z</time>
      </trkpt>
      <trkpt lat="44.83987" lon="4.21374">
        <ele>1359</ele>
        <time>2020-06-08T12:10:48Z</time>
      </trkpt>
      <trkpt lat="44.83944" lon="4.21518">
        <ele>1361</ele>
        <time>2020-06-08T12:11:14Z</time>
      </trkpt>
      <trkpt lat="44.83894" lon="4.21641">
        <ele>1363</ele>
        <time>2020-06-08T12:11:37Z</time>
      </trkpt>
      <trkpt lat="44.83801" lon="4.21729">
        <ele>1359</ele>
        <time>2020-06-08T12:12:04Z</time>
      </trkpt>
      <trkpt lat="44.83734" lon="4.21802">
        <ele>1359</ele>
        <time>2020-06-08T12:12:23Z</time>
      </trkpt>
      <trkpt lat="44.8366" lon="4.219">
        <ele>1367</ele>
        <time>2020-06-08T12:12:47Z</time>
      </trkpt>
      <trkpt lat="44.83636" lon="4.22001">
        <ele>1374</ele>
        <time>2020-06-08T12:13:05Z</time>
      </trkpt>
      <trkpt lat="44.8363" lon="4.22061">
        <ele>1379</ele>
        <time>2020-06-08T12:13:15Z</time>
      </trkpt>
      <trkpt lat="44.836" lon="4.2212">
        <ele>1385</ele>
        <time>2020-06-08T12:13:27Z</time>
      </trkpt>
      <trkpt lat="44.83566" lon="4.22136">
        <ele>1390</ele>
        <time>2020-06-08T12:13:35Z</time>
      </trkpt>
      <trkpt lat="44.83519" lon="4.2213">
        <ele>1397</ele>
        <time>2020-06-08T12:13:46Z</time>
      </trkpt>
      <trkpt lat="44.83489" lon="4.22037">
        <ele>1397</ele>
        <time>2020-06-08T12:14:03Z</time>
      </trkpt>
      <trkpt lat="44.83499" lon="4.22194">
        <ele>1404</ele>
        <time>2020-06-08T12:14:29Z</time>
      </trkpt>
      <trkpt lat="44.8346" lon="4.22157">
        <ele>1407</ele>
        <time>2020-06-08T12:14:40Z</time>
      </trkpt>
      <trkpt lat="44.83456" lon="4.22227">
        <ele>1409</ele>
        <time>2020-06-08T12:14:52Z</time>
      </trkpt>
      <trkpt lat="44.83426" lon="4.22196">
        <ele>1412</ele>
        <time>2020-06-08T12:15:01Z</time>
      </trkpt>
      <trkpt lat="44.834" lon="4.22233">
        <ele>1416</ele>
        <time>2020-06-08T12:15:09Z</time>
      </trkpt>
      <trkpt lat="44.83347" lon="4.2224">
        <ele>1422</ele>
        <time>2020-06-08T12:15:22Z</time>
      </trkpt>
      <trkpt lat="44.83266" lon="4.22276">
        <ele>1432</ele>
        <time>2020-06-08T12:15:41Z</time>
      </trkpt>
      <trkpt lat="44.83223" lon="4.22277">
        <ele>1436</ele>
        <time>2020-06-08T12:15:51Z</time>
      </trkpt>
      <trkpt lat="44.83183" lon="4.22241">
        <ele>1439</ele>
        <time>2020-06-08T12:16:03Z</time>
      </trkpt>
      <trkpt lat="44.83083" lon="4.22212">
        <ele>1446</ele>
        <time>2020-06-08T12:16:26Z</time>
      </trkpt>
      <trkpt lat="44.8302" lon="4.22079">
        <ele>1449</ele>
        <time>2020-06-08T12:16:53Z</time>
      </trkpt>
      <trkpt lat="44.82979" lon="4.22147">
        <ele>1452</ele>
        <time>2020-06-08T12:17:08Z</time>
      </trkpt>
      <trkpt lat="44.82902" lon="4.22381">
        <ele>1452</ele>
        <time>2020-06-08T12:17:50Z</time>
      </trkpt>
      <trkpt lat="44.82877" lon="4.22633">
        <ele>1448</ele>
        <time>2020-06-08T12:18:33Z</time>
      </trkpt>
      <trkpt lat="44.82753" lon="4.22408">
        <ele>1444</ele>
        <time>2020-06-08T12:19:20Z</time>
      </trkpt>
      <trkpt lat="44.8271" lon="4.22315">
        <ele>1448</ele>
        <time>2020-06-08T12:19:38Z</time>
      </trkpt>
      <trkpt lat="44.82668" lon="4.2211">
        <ele>1450</ele>
        <time>2020-06-08T12:20:13Z</time>
      </trkpt>
      <trkpt lat="44.82651" lon="4.22061">
        <ele>1449</ele>
        <time>2020-06-08T12:20:22Z</time>
      </trkpt>
      <trkpt lat="44.82602" lon="4.21967">
        <ele>1446</ele>
        <time>2020-06-08T12:20:42Z</time>
      </trkpt>
      <trkpt lat="44.82537" lon="4.21862">
        <ele>1444</ele>
        <time>2020-06-08T12:21:05Z</time>
      </trkpt>
      <trkpt lat="44.82531" lon="4.21739">
        <ele>1442</ele>
        <time>2020-06-08T12:21:25Z</time>
      </trkpt>
      <trkpt lat="44.82531" lon="4.2166">
        <ele>1438</ele>
        <time>2020-06-08T12:21:38Z</time>
      </trkpt>
      <trkpt lat="44.82419" lon="4.21592">
        <ele>1439</ele>
        <time>2020-06-08T12:22:07Z</time>
      </trkpt>
      <trkpt lat="44.82336" lon="4.21621">
        <ele>1440</ele>
        <time>2020-06-08T12:22:27Z</time>
      </trkpt>
      <trkpt lat="44.8232" lon="4.21658">
        <ele>1443</ele>
        <time>2020-06-08T12:22:34Z</time>
      </trkpt>
      <trkpt lat="44.82244" lon="4.2169">
        <ele>1451</ele>
        <time>2020-06-08T12:22:53Z</time>
      </trkpt>
      <trkpt lat="44.82141" lon="4.21603">
        <ele>1448</ele>
        <time>2020-06-08T12:23:21Z</time>
      </trkpt>
      <trkpt lat="44.82069" lon="4.21557">
        <ele>1447</ele>
        <time>2020-06-08T12:23:39Z</time>
      </trkpt>
      <trkpt lat="44.81964" lon="4.21515">
        <ele>1441</ele>
        <time>2020-06-08T12:24:05Z</time>
      </trkpt>
      <trkpt lat="44.8185" lon="4.2152">
        <ele>1433</ele>
        <time>2020-06-08T12:24:31Z</time>
      </trkpt>
      <trkpt lat="44.81608" lon="4.21632">
        <ele>1429</ele>
        <time>2020-06-08T12:25:31Z</time>
      </trkpt>
      <trkpt lat="44.81515" lon="4.2183">
        <ele>1442</ele>
        <time>2020-06-08T12:26:10Z</time>
      </trkpt>
      <trkpt lat="44.81435" lon="4.21977">
        <ele>1438</ele>
        <time>2020-06-08T12:26:41Z</time>
      </trkpt>
      <trkpt lat="44.81403" lon="4.22062">
        <ele>1433</ele>
        <time>2020-06-08T12:26:57Z</time>
      </trkpt>
      <trkpt lat="44.81393" lon="4.22157">
        <ele>1430</ele>
        <time>2020-06-08T12:27:13Z</time>
      </trkpt>
      <trkpt lat="44.8139" lon="4.22233">
        <ele>1424</ele>
        <time>2020-06-08T12:27:25Z</time>
      </trkpt>
      <trkpt lat="44.81495" lon="4.22359">
        <ele>1430</ele>
        <time>2020-06-08T12:27:57Z</time>
      </trkpt>
      <trkpt lat="44.81482" lon="4.22365">
        <ele>1428</ele>
        <time>2020-06-08T12:28:01Z</time>
      </trkpt>
      <trkpt lat="44.81455" lon="4.22365">
        <ele>1424</ele>
        <time>2020-06-08T12:28:07Z</time>
      </trkpt>
      <trkpt lat="44.81397" lon="4.2235">
        <ele>1418</ele>
        <time>2020-06-08T12:28:21Z</time>
      </trkpt>
      <trkpt lat="44.81372" lon="4.22333">
        <ele>1415</ele>
        <time>2020-06-08T12:28:27Z</time>
      </trkpt>
      <trkpt lat="44.81307" lon="4.223">
        <ele>1406</ele>
        <time>2020-06-08T12:28:43Z</time>
      </trkpt>
      <trkpt lat="44.81225" lon="4.22299">
        <ele>1392</ele>
        <time>2020-06-08T12:29:02Z</time>
      </trkpt>
      <trkpt lat="44.81175" lon="4.22308">
        <ele>1380</ele>
        <time>2020-06-08T12:29:14Z</time>
      </trkpt>
      <trkpt lat="44.81161" lon="4.22314">
        <ele>1377</ele>
        <time>2020-06-08T12:29:18Z</time>
      </trkpt>
      <trkpt lat="44.81139" lon="4.22307">
        <ele>1374</ele>
        <time>2020-06-08T12:29:23Z</time>
      </trkpt>
      <trkpt lat="44.81133" lon="4.22317">
        <ele>1372</ele>
        <time>2020-06-08T12:29:25Z</time>
      </trkpt>
      <trkpt lat="44.81129" lon="4.22319">
        <ele>1371</ele>
        <time>2020-06-08T12:29:26Z</time>
      </trkpt>
      <trkpt lat="44.81122" lon="4.22318">
        <ele>1370</ele>
        <time>2020-06-08T12:29:28Z</time>
      </trkpt>
      <trkpt lat="44.81064" lon="4.22353">
        <ele>1358</ele>
        <time>2020-06-08T12:29:42Z</time>
      </trkpt>
      <trkpt lat="44.81055" lon="4.22377">
        <ele>1355</ele>
        <time>2020-06-08T12:29:47Z</time>
      </trkpt>
      <trkpt lat="44.81037" lon="4.22395">
        <ele>1352</ele>
        <time>2020-06-08T12:29:52Z</time>
      </trkpt>
      <trkpt lat="44.81029" lon="4.22434">
        <ele>1347</ele>
        <time>2020-06-08T12:29:59Z</time>
      </trkpt>
      <trkpt lat="44.81011" lon="4.22477">
        <ele>1340</ele>
        <time>2020-06-08T12:30:07Z</time>
      </trkpt>
      <trkpt lat="44.80985" lon="4.22497">
        <ele>1335</ele>
        <time>2020-06-08T12:30:14Z</time>
      </trkpt>
      <trkpt lat="44.80977" lon="4.22507">
        <ele>1333</ele>
        <time>2020-06-08T12:30:16Z</time>
      </trkpt>
      <trkpt lat="44.80976" lon="4.22527">
        <ele>1331</ele>
        <time>2020-06-08T12:30:20Z</time>
      </trkpt>
      <trkpt lat="44.80965" lon="4.22566">
        <ele>1326</ele>
        <time>2020-06-08T12:30:27Z</time>
      </trkpt>
      <trkpt lat="44.80958" lon="4.22575">
        <ele>1325</ele>
        <time>2020-06-08T12:30:29Z</time>
      </trkpt>
      <trkpt lat="44.8095" lon="4.22578">
        <ele>1323</ele>
        <time>2020-06-08T12:30:31Z</time>
      </trkpt>
      <trkpt lat="44.80932" lon="4.22575">
        <ele>1321</ele>
        <time>2020-06-08T12:30:35Z</time>
      </trkpt>
      <trkpt lat="44.80911" lon="4.22604">
        <ele>1316</ele>
        <time>2020-06-08T12:30:42Z</time>
      </trkpt>
      <trkpt lat="44.80902" lon="4.22607">
        <ele>1315</ele>
        <time>2020-06-08T12:30:44Z</time>
      </trkpt>
      <trkpt lat="44.80888" lon="4.22598">
        <ele>1314</ele>
        <time>2020-06-08T12:30:48Z</time>
      </trkpt>
      <trkpt lat="44.80882" lon="4.22615">
        <ele>1312</ele>
        <time>2020-06-08T12:30:51Z</time>
      </trkpt>
      <trkpt lat="44.80741" lon="4.22714">
        <ele>1294</ele>
        <time>2020-06-08T12:31:28Z</time>
      </trkpt>
      <trkpt lat="44.80733" lon="4.22708">
        <ele>1294</ele>
        <time>2020-06-08T12:31:30Z</time>
      </trkpt>
      <trkpt lat="44.80724" lon="4.22709">
        <ele>1293</ele>
        <time>2020-06-08T12:31:32Z</time>
      </trkpt>
      <trkpt lat="44.80718" lon="4.22715">
        <ele>1292</ele>
        <time>2020-06-08T12:31:34Z</time>
      </trkpt>
      <trkpt lat="44.80687" lon="4.22731">
        <ele>1287</ele>
        <time>2020-06-08T12:31:41Z</time>
      </trkpt>
      <trkpt lat="44.80622" lon="4.22751">
        <ele>1279</ele>
        <time>2020-06-08T12:31:57Z</time>
      </trkpt>
      <trkpt lat="44.80581" lon="4.22771">
        <ele>1275</ele>
        <time>2020-06-08T12:32:07Z</time>
      </trkpt>
      <trkpt lat="44.80549" lon="4.22769">
        <ele>1272</ele>
        <time>2020-06-08T12:32:14Z</time>
      </trkpt>
      <trkpt lat="44.80544" lon="4.22776">
        <ele>1272</ele>
        <time>2020-06-08T12:32:16Z</time>
      </trkpt>
      <trkpt lat="44.80487" lon="4.22767">
        <ele>1267</ele>
        <time>2020-06-08T12:32:29Z</time>
      </trkpt>
      <trkpt lat="44.80462" lon="4.22758">
        <ele>1265</ele>
        <time>2020-06-08T12:32:36Z</time>
      </trkpt>
      <trkpt lat="44.8041" lon="4.22749">
        <ele>1262</ele>
        <time>2020-06-08T12:32:48Z</time>
      </trkpt>
      <trkpt lat="44.80358" lon="4.22734">
        <ele>1261</ele>
        <time>2020-06-08T12:33:00Z</time>
      </trkpt>
      <trkpt lat="44.80329" lon="4.2273">
        <ele>1260</ele>
        <time>2020-06-08T12:33:07Z</time>
      </trkpt>
      <trkpt lat="44.80305" lon="4.22721">
        <ele>1260</ele>
        <time>2020-06-08T12:33:13Z</time>
      </trkpt>
      <trkpt lat="44.80263" lon="4.22715">
        <ele>1259</ele>
        <time>2020-06-08T12:33:23Z</time>
      </trkpt>
      <trkpt lat="44.80218" lon="4.22703">
        <ele>1257</ele>
        <time>2020-06-08T12:33:33Z</time>
      </trkpt>
      <trkpt lat="44.80195" lon="4.2269">
        <ele>1255</ele>
        <time>2020-06-08T12:33:39Z</time>
      </trkpt>
      <trkpt lat="44.80108" lon="4.22659">
        <ele>1252</ele>
        <time>2020-06-08T12:34:00Z</time>
      </trkpt>
      <trkpt lat="44.80084" lon="4.22653">
        <ele>1251</ele>
        <time>2020-06-08T12:34:06Z</time>
      </trkpt>
      <trkpt lat="44.80035" lon="4.22663">
        <ele>1247</ele>
        <time>2020-06-08T12:34:17Z</time>
      </trkpt>
      <trkpt lat="44.80018" lon="4.2266">
        <ele>1245</ele>
        <time>2020-06-08T12:34:21Z</time>
      </trkpt>
      <trkpt lat="44.80016" lon="4.22652">
        <ele>1245</ele>
        <time>2020-06-08T12:34:23Z</time>
      </trkpt>
      <trkpt lat="44.79985" lon="4.22603">
        <ele>1242</ele>
        <time>2020-06-08T12:34:34Z</time>
      </trkpt>
      <trkpt lat="44.79955" lon="4.22567">
        <ele>1241</ele>
        <time>2020-06-08T12:34:43Z</time>
      </trkpt>
      <trkpt lat="44.79935" lon="4.22513">
        <ele>1242</ele>
        <time>2020-06-08T12:34:53Z</time>
      </trkpt>
      <trkpt lat="44.79881" lon="4.22397">
        <ele>1239</ele>
        <time>2020-06-08T12:35:16Z</time>
      </trkpt>
      <trkpt lat="44.79867" lon="4.22375">
        <ele>1239</ele>
        <time>2020-06-08T12:35:21Z</time>
      </trkpt>
      <trkpt lat="44.79748" lon="4.22259">
        <ele>1240</ele>
        <time>2020-06-08T12:35:55Z</time>
      </trkpt>
      <trkpt lat="44.7974" lon="4.22254">
        <ele>1239</ele>
        <time>2020-06-08T12:35:57Z</time>
      </trkpt>
      <trkpt lat="44.79727" lon="4.22253">
        <ele>1239</ele>
        <time>2020-06-08T12:36:00Z</time>
      </trkpt>
      <trkpt lat="44.797" lon="4.22259">
        <ele>1237</ele>
        <time>2020-06-08T12:36:06Z</time>
      </trkpt>
      <trkpt lat="44.79672" lon="4.22243">
        <ele>1235</ele>
        <time>2020-06-08T12:36:13Z</time>
      </trkpt>
      <trkpt lat="44.79651" lon="4.22203">
        <ele>1234</ele>
        <time>2020-06-08T12:36:21Z</time>
      </trkpt>
      <trkpt lat="44.79638" lon="4.22189">
        <ele>1234</ele>
        <time>2020-06-08T12:36:25Z</time>
      </trkpt>
      <trkpt lat="44.79623" lon="4.22164">
        <ele>1235</ele>
        <time>2020-06-08T12:36:31Z</time>
      </trkpt>
      <trkpt lat="44.79615" lon="4.22145">
        <ele>1236</ele>
        <time>2020-06-08T12:36:34Z</time>
      </trkpt>
      <trkpt lat="44.79598" lon="4.2214">
        <ele>1236</ele>
        <time>2020-06-08T12:36:38Z</time>
      </trkpt>
      <trkpt lat="44.79583" lon="4.22114">
        <ele>1238</ele>
        <time>2020-06-08T12:36:44Z</time>
      </trkpt>
      <trkpt lat="44.79553" lon="4.22096">
        <ele>1243</ele>
        <time>2020-06-08T12:36:51Z</time>
      </trkpt>
      <trkpt lat="44.79454" lon="4.22053">
        <ele>1253</ele>
        <time>2020-06-08T12:37:16Z</time>
      </trkpt>
      <trkpt lat="44.79376" lon="4.22006">
        <ele>1257</ele>
        <time>2020-06-08T12:37:35Z</time>
      </trkpt>
      <trkpt lat="44.79363" lon="4.22002">
        <ele>1257</ele>
        <time>2020-06-08T12:37:39Z</time>
      </trkpt>
      <trkpt lat="44.79336" lon="4.22016">
        <ele>1258</ele>
        <time>2020-06-08T12:37:45Z</time>
      </trkpt>
      <trkpt lat="44.79319" lon="4.22017">
        <ele>1257</ele>
        <time>2020-06-08T12:37:49Z</time>
      </trkpt>
      <trkpt lat="44.79294" lon="4.22005">
        <ele>1255</ele>
        <time>2020-06-08T12:37:55Z</time>
      </trkpt>
      <trkpt lat="44.79276" lon="4.22004">
        <ele>1254</ele>
        <time>2020-06-08T12:38:00Z</time>
      </trkpt>
      <trkpt lat="44.79238" lon="4.21965">
        <ele>1250</ele>
        <time>2020-06-08T12:38:11Z</time>
      </trkpt>
      <trkpt lat="44.79212" lon="4.21951">
        <ele>1248</ele>
        <time>2020-06-08T12:38:17Z</time>
      </trkpt>
      <trkpt lat="44.79202" lon="4.21941">
        <ele>1248</ele>
        <time>2020-06-08T12:38:20Z</time>
      </trkpt>
      <trkpt lat="44.79198" lon="4.21933">
        <ele>1247</ele>
        <time>2020-06-08T12:38:22Z</time>
      </trkpt>
      <trkpt lat="44.79188" lon="4.21933">
        <ele>1247</ele>
        <time>2020-06-08T12:38:24Z</time>
      </trkpt>
      <trkpt lat="44.79183" lon="4.21929">
        <ele>1246</ele>
        <time>2020-06-08T12:38:25Z</time>
      </trkpt>
      <trkpt lat="44.79173" lon="4.21904">
        <ele>1245</ele>
        <time>2020-06-08T12:38:30Z</time>
      </trkpt>
      <trkpt lat="44.79163" lon="4.21913">
        <ele>1245</ele>
        <time>2020-06-08T12:38:33Z</time>
      </trkpt>
      <trkpt lat="44.79152" lon="4.21916">
        <ele>1245</ele>
        <time>2020-06-08T12:38:35Z</time>
      </trkpt>
      <trkpt lat="44.79137" lon="4.21952">
        <ele>1245</ele>
        <time>2020-06-08T12:38:42Z</time>
      </trkpt>
      <trkpt lat="44.79072" lon="4.22029">
        <ele>1247</ele>
        <time>2020-06-08T12:39:02Z</time>
      </trkpt>
      <trkpt lat="44.79067" lon="4.22048">
        <ele>1248</ele>
        <time>2020-06-08T12:39:06Z</time>
      </trkpt>
      <trkpt lat="44.79042" lon="4.22044">
        <ele>1248</ele>
        <time>2020-06-08T12:39:11Z</time>
      </trkpt>
      <trkpt lat="44.79001" lon="4.2205">
        <ele>1247</ele>
        <time>2020-06-08T12:39:21Z</time>
      </trkpt>
      <trkpt lat="44.78978" lon="4.2206">
        <ele>1248</ele>
        <time>2020-06-08T12:39:27Z</time>
      </trkpt>
      <trkpt lat="44.78908" lon="4.22061">
        <ele>1249</ele>
        <time>2020-06-08T12:39:43Z</time>
      </trkpt>
      <trkpt lat="44.78886" lon="4.22056">
        <ele>1247</ele>
        <time>2020-06-08T12:39:48Z</time>
      </trkpt>
      <trkpt lat="44.78845" lon="4.22031">
        <ele>1245</ele>
        <time>2020-06-08T12:39:59Z</time>
      </trkpt>
      <trkpt lat="44.78813" lon="4.22005">
        <ele>1244</ele>
        <time>2020-06-08T12:40:07Z</time>
      </trkpt>
      <trkpt lat="44.78808" lon="4.21992">
        <ele>1244</ele>
        <time>2020-06-08T12:40:10Z</time>
      </trkpt>
      <trkpt lat="44.78785" lon="4.21972">
        <ele>1243</ele>
        <time>2020-06-08T12:40:16Z</time>
      </trkpt>
      <trkpt lat="44.78759" lon="4.21934">
        <ele>1244</ele>
        <time>2020-06-08T12:40:25Z</time>
      </trkpt>
      <trkpt lat="44.78744" lon="4.21922">
        <ele>1245</ele>
        <time>2020-06-08T12:40:29Z</time>
      </trkpt>
      <trkpt lat="44.78724" lon="4.21915">
        <ele>1246</ele>
        <time>2020-06-08T12:40:34Z</time>
      </trkpt>
      <trkpt lat="44.78684" lon="4.21894">
        <ele>1247</ele>
        <time>2020-06-08T12:40:44Z</time>
      </trkpt>
      <trkpt lat="44.78622" lon="4.21887">
        <ele>1249</ele>
        <time>2020-06-08T12:40:58Z</time>
      </trkpt>
      <trkpt lat="44.78622" lon="4.21906">
        <ele>1249</ele>
        <time>2020-06-08T12:41:01Z</time>
      </trkpt>
      <trkpt lat="44.78697" lon="4.21949">
        <ele>1245</ele>
        <time>2020-06-08T12:41:20Z</time>
      </trkpt>
      <trkpt lat="44.78704" lon="4.21956">
        <ele>1245</ele>
        <time>2020-06-08T12:41:22Z</time>
      </trkpt>
      <trkpt lat="44.78708" lon="4.21992">
        <ele>1243</ele>
        <time>2020-06-08T12:41:28Z</time>
      </trkpt>
      <trkpt lat="44.78731" lon="4.22038">
        <ele>1240</ele>
        <time>2020-06-08T12:41:38Z</time>
      </trkpt>
      <trkpt lat="44.78732" lon="4.22063">
        <ele>1238</ele>
        <time>2020-06-08T12:41:42Z</time>
      </trkpt>
      <trkpt lat="44.7874" lon="4.22072">
        <ele>1238</ele>
        <time>2020-06-08T12:41:44Z</time>
      </trkpt>
      <trkpt lat="44.7876" lon="4.22074">
        <ele>1239</ele>
        <time>2020-06-08T12:41:49Z</time>
      </trkpt>
      <trkpt lat="44.78843" lon="4.22202">
        <ele>1236</ele>
        <time>2020-06-08T12:42:18Z</time>
      </trkpt>
      <trkpt lat="44.78979" lon="4.22309">
        <ele>1224</ele>
        <time>2020-06-08T12:42:54Z</time>
      </trkpt>
      <trkpt lat="44.78997" lon="4.22326">
        <ele>1223</ele>
        <time>2020-06-08T12:42:59Z</time>
      </trkpt>
      <trkpt lat="44.79" lon="4.22333">
        <ele>1222</ele>
        <time>2020-06-08T12:43:00Z</time>
      </trkpt>
      <trkpt lat="44.79003" lon="4.22379">
        <ele>1220</ele>
        <time>2020-06-08T12:43:08Z</time>
      </trkpt>
      <trkpt lat="44.79013" lon="4.22401">
        <ele>1219</ele>
        <time>2020-06-08T12:43:12Z</time>
      </trkpt>
      <trkpt lat="44.79012" lon="4.22428">
        <ele>1220</ele>
        <time>2020-06-08T12:43:17Z</time>
      </trkpt>
      <trkpt lat="44.79009" lon="4.22436">
        <ele>1221</ele>
        <time>2020-06-08T12:43:18Z</time>
      </trkpt>
      <trkpt lat="44.78985" lon="4.22449">
        <ele>1221</ele>
        <time>2020-06-08T12:43:24Z</time>
      </trkpt>
      <trkpt lat="44.78977" lon="4.22461">
        <ele>1221</ele>
        <time>2020-06-08T12:43:27Z</time>
      </trkpt>
      <trkpt lat="44.78974" lon="4.22475">
        <ele>1223</ele>
        <time>2020-06-08T12:43:29Z</time>
      </trkpt>
      <trkpt lat="44.78976" lon="4.22487">
        <ele>1224</ele>
        <time>2020-06-08T12:43:31Z</time>
      </trkpt>
      <trkpt lat="44.78991" lon="4.22515">
        <ele>1228</ele>
        <time>2020-06-08T12:43:37Z</time>
      </trkpt>
      <trkpt lat="44.79" lon="4.22516">
        <ele>1230</ele>
        <time>2020-06-08T12:43:39Z</time>
      </trkpt>
      <trkpt lat="44.79003" lon="4.2252">
        <ele>1230</ele>
        <time>2020-06-08T12:43:40Z</time>
      </trkpt>
      <trkpt lat="44.78996" lon="4.22532">
        <ele>1230</ele>
        <time>2020-06-08T12:43:43Z</time>
      </trkpt>
      <trkpt lat="44.78992" lon="4.22552">
        <ele>1230</ele>
        <time>2020-06-08T12:43:46Z</time>
      </trkpt>
      <trkpt lat="44.78991" lon="4.22575">
        <ele>1231</ele>
        <time>2020-06-08T12:43:50Z</time>
      </trkpt>
      <trkpt lat="44.79005" lon="4.22649">
        <ele>1230</ele>
        <time>2020-06-08T12:44:03Z</time>
      </trkpt>
      <trkpt lat="44.79009" lon="4.22708">
        <ele>1230</ele>
        <time>2020-06-08T12:44:13Z</time>
      </trkpt>
      <trkpt lat="44.79006" lon="4.22728">
        <ele>1229</ele>
        <time>2020-06-08T12:44:16Z</time>
      </trkpt>
      <trkpt lat="44.78993" lon="4.22764">
        <ele>1228</ele>
        <time>2020-06-08T12:44:23Z</time>
      </trkpt>
      <trkpt lat="44.78987" lon="4.22805">
        <ele>1227</ele>
        <time>2020-06-08T12:44:30Z</time>
      </trkpt>
      <trkpt lat="44.78983" lon="4.22818">
        <ele>1227</ele>
        <time>2020-06-08T12:44:32Z</time>
      </trkpt>
      <trkpt lat="44.78969" lon="4.22839">
        <ele>1227</ele>
        <time>2020-06-08T12:44:37Z</time>
      </trkpt>
      <trkpt lat="44.78963" lon="4.22842">
        <ele>1227</ele>
        <time>2020-06-08T12:44:38Z</time>
      </trkpt>
      <trkpt lat="44.78959" lon="4.22861">
        <ele>1226</ele>
        <time>2020-06-08T12:44:42Z</time>
      </trkpt>
      <trkpt lat="44.78953" lon="4.22875">
        <ele>1226</ele>
        <time>2020-06-08T12:44:44Z</time>
      </trkpt>
      <trkpt lat="44.78925" lon="4.22888">
        <ele>1226</ele>
        <time>2020-06-08T12:44:51Z</time>
      </trkpt>
      <trkpt lat="44.78888" lon="4.22888">
        <ele>1230</ele>
        <time>2020-06-08T12:45:00Z</time>
      </trkpt>
      <trkpt lat="44.7888" lon="4.2289">
        <ele>1231</ele>
        <time>2020-06-08T12:45:02Z</time>
      </trkpt>
      <trkpt lat="44.78851" lon="4.22928">
        <ele>1234</ele>
        <time>2020-06-08T12:45:11Z</time>
      </trkpt>
      <trkpt lat="44.78867" lon="4.22904">
        <ele>1232</ele>
        <time>2020-06-08T12:45:16Z</time>
      </trkpt>
      <trkpt lat="44.78841" lon="4.22948">
        <ele>1234</ele>
        <time>2020-06-08T12:45:26Z</time>
      </trkpt>
      <trkpt lat="44.78805" lon="4.22955">
        <ele>1238</ele>
        <time>2020-06-08T12:45:34Z</time>
      </trkpt>
      <trkpt lat="44.78774" lon="4.22981">
        <ele>1241</ele>
        <time>2020-06-08T12:45:43Z</time>
      </trkpt>
      <trkpt lat="44.78715" lon="4.22992">
        <ele>1246</ele>
        <time>2020-06-08T12:45:57Z</time>
      </trkpt>
      <trkpt lat="44.78664" lon="4.2296">
        <ele>1248</ele>
        <time>2020-06-08T12:46:10Z</time>
      </trkpt>
      <trkpt lat="44.78636" lon="4.2295">
        <ele>1249</ele>
        <time>2020-06-08T12:46:17Z</time>
      </trkpt>
      <trkpt lat="44.7861" lon="4.2296">
        <ele>1250</ele>
        <time>2020-06-08T12:46:23Z</time>
      </trkpt>
      <trkpt lat="44.78584" lon="4.22965">
        <ele>1251</ele>
        <time>2020-06-08T12:46:29Z</time>
      </trkpt>
      <trkpt lat="44.78566" lon="4.22963">
        <ele>1253</ele>
        <time>2020-06-08T12:46:33Z</time>
      </trkpt>
      <trkpt lat="44.78523" lon="4.22967">
        <ele>1258</ele>
        <time>2020-06-08T12:46:43Z</time>
      </trkpt>
      <trkpt lat="44.78474" lon="4.22945">
        <ele>1266</ele>
        <time>2020-06-08T12:46:55Z</time>
      </trkpt>
      <trkpt lat="44.78427" lon="4.22939">
        <ele>1271</ele>
        <time>2020-06-08T12:47:06Z</time>
      </trkpt>
      <trkpt lat="44.78329" lon="4.2295">
        <ele>1276</ele>
        <time>2020-06-08T12:47:29Z</time>
      </trkpt>
      <trkpt lat="44.78271" lon="4.2297">
        <ele>1277</ele>
        <time>2020-06-08T12:47:43Z</time>
      </trkpt>
      <trkpt lat="44.7821" lon="4.22983">
        <ele>1280</ele>
        <time>2020-06-08T12:47:58Z</time>
      </trkpt>
      <trkpt lat="44.78114" lon="4.22972">
        <ele>1280</ele>
        <time>2020-06-08T12:48:20Z</time>
      </trkpt>
      <trkpt lat="44.78067" lon="4.22994">
        <ele>1281</ele>
        <time>2020-06-08T12:48:32Z</time>
      </trkpt>
      <trkpt lat="44.78012" lon="4.23006">
        <ele>1280</ele>
        <time>2020-06-08T12:48:45Z</time>
      </trkpt>
      <trkpt lat="44.77971" lon="4.23029">
        <ele>1281</ele>
        <time>2020-06-08T12:48:55Z</time>
      </trkpt>
      <trkpt lat="44.77941" lon="4.23055">
        <ele>1282</ele>
        <time>2020-06-08T12:49:03Z</time>
      </trkpt>
      <trkpt lat="44.77905" lon="4.23063">
        <ele>1281</ele>
        <time>2020-06-08T12:49:12Z</time>
      </trkpt>
      <trkpt lat="44.77878" lon="4.23063">
        <ele>1280</ele>
        <time>2020-06-08T12:49:18Z</time>
      </trkpt>
      <trkpt lat="44.77835" lon="4.23087">
        <ele>1281</ele>
        <time>2020-06-08T12:49:29Z</time>
      </trkpt>
      <trkpt lat="44.77799" lon="4.23069">
        <ele>1281</ele>
        <time>2020-06-08T12:49:38Z</time>
      </trkpt>
      <trkpt lat="44.77778" lon="4.23067">
        <ele>1281</ele>
        <time>2020-06-08T12:49:43Z</time>
      </trkpt>
      <trkpt lat="44.77731" lon="4.23029">
        <ele>1281</ele>
        <time>2020-06-08T12:49:55Z</time>
      </trkpt>
      <trkpt lat="44.77695" lon="4.23008">
        <ele>1284</ele>
        <time>2020-06-08T12:50:04Z</time>
      </trkpt>
      <trkpt lat="44.7767" lon="4.22965">
        <ele>1287</ele>
        <time>2020-06-08T12:50:14Z</time>
      </trkpt>
      <trkpt lat="44.77654" lon="4.22924">
        <ele>1289</ele>
        <time>2020-06-08T12:50:21Z</time>
      </trkpt>
      <trkpt lat="44.77642" lon="4.22915">
        <ele>1289</ele>
        <time>2020-06-08T12:50:25Z</time>
      </trkpt>
      <trkpt lat="44.7763" lon="4.22895">
        <ele>1288</ele>
        <time>2020-06-08T12:50:29Z</time>
      </trkpt>
      <trkpt lat="44.77596" lon="4.22855">
        <ele>1285</ele>
        <time>2020-06-08T12:50:39Z</time>
      </trkpt>
      <trkpt lat="44.77582" lon="4.22847">
        <ele>1283</ele>
        <time>2020-06-08T12:50:43Z</time>
      </trkpt>
      <trkpt lat="44.77529" lon="4.22826">
        <ele>1274</ele>
        <time>2020-06-08T12:50:56Z</time>
      </trkpt>
      <trkpt lat="44.77492" lon="4.2284">
        <ele>1271</ele>
        <time>2020-06-08T12:51:05Z</time>
      </trkpt>
      <trkpt lat="44.77456" lon="4.2284">
        <ele>1267</ele>
        <time>2020-06-08T12:51:13Z</time>
      </trkpt>
      <trkpt lat="44.77423" lon="4.2283">
        <ele>1264</ele>
        <time>2020-06-08T12:51:21Z</time>
      </trkpt>
      <trkpt lat="44.77366" lon="4.22792">
        <ele>1264</ele>
        <time>2020-06-08T12:51:36Z</time>
      </trkpt>
      <trkpt lat="44.77351" lon="4.22767">
        <ele>1264</ele>
        <time>2020-06-08T12:51:41Z</time>
      </trkpt>
      <trkpt lat="44.77325" lon="4.22736">
        <ele>1264</ele>
        <time>2020-06-08T12:51:49Z</time>
      </trkpt>
      <trkpt lat="44.77308" lon="4.22672">
        <ele>1263</ele>
        <time>2020-06-08T12:52:00Z</time>
      </trkpt>
      <trkpt lat="44.77287" lon="4.22659">
        <ele>1264</ele>
        <time>2020-06-08T12:52:06Z</time>
      </trkpt>
      <trkpt lat="44.77246" lon="4.22603">
        <ele>1266</ele>
        <time>2020-06-08T12:52:19Z</time>
      </trkpt>
      <trkpt lat="44.77235" lon="4.22595">
        <ele>1265</ele>
        <time>2020-06-08T12:52:22Z</time>
      </trkpt>
      <trkpt lat="44.77218" lon="4.22574">
        <ele>1265</ele>
        <time>2020-06-08T12:52:27Z</time>
      </trkpt>
      <trkpt lat="44.77216" lon="4.22564">
        <ele>1265</ele>
        <time>2020-06-08T12:52:29Z</time>
      </trkpt>
      <trkpt lat="44.77216" lon="4.22523">
        <ele>1269</ele>
        <time>2020-06-08T12:52:36Z</time>
      </trkpt>
      <trkpt lat="44.77225" lon="4.22463">
        <ele>1272</ele>
        <time>2020-06-08T12:52:46Z</time>
      </trkpt>
      <trkpt lat="44.77241" lon="4.22428">
        <ele>1274</ele>
        <time>2020-06-08T12:52:53Z</time>
      </trkpt>
      <trkpt lat="44.77223" lon="4.22369">
        <ele>1276</ele>
        <time>2020-06-08T12:53:03Z</time>
      </trkpt>
      <trkpt lat="44.7722" lon="4.22318">
        <ele>1278</ele>
        <time>2020-06-08T12:53:12Z</time>
      </trkpt>
      <trkpt lat="44.77245" lon="4.22262">
        <ele>1279</ele>
        <time>2020-06-08T12:53:23Z</time>
      </trkpt>
      <trkpt lat="44.7723" lon="4.22075">
        <ele>1270</ele>
        <time>2020-06-08T12:53:54Z</time>
      </trkpt>
      <trkpt lat="44.77228" lon="4.21921">
        <ele>1267</ele>
        <time>2020-06-08T12:54:20Z</time>
      </trkpt>
      <trkpt lat="44.77236" lon="4.21878">
        <ele>1266</ele>
        <time>2020-06-08T12:54:27Z</time>
      </trkpt>
      <trkpt lat="44.77198" lon="4.2175">
        <ele>1259</ele>
        <time>2020-06-08T12:54:50Z</time>
      </trkpt>
      <trkpt lat="44.77179" lon="4.21725">
        <ele>1259</ele>
        <time>2020-06-08T12:54:56Z</time>
      </trkpt>
      <trkpt lat="44.77157" lon="4.21702">
        <ele>1258</ele>
        <time>2020-06-08T12:55:02Z</time>
      </trkpt>
      <trkpt lat="44.7715" lon="4.21606">
        <ele>1257</ele>
        <time>2020-06-08T12:55:18Z</time>
      </trkpt>
      <trkpt lat="44.77128" lon="4.21562">
        <ele>1257</ele>
        <time>2020-06-08T12:55:27Z</time>
      </trkpt>
      <trkpt lat="44.77088" lon="4.21594">
        <ele>1257</ele>
        <time>2020-06-08T12:55:38Z</time>
      </trkpt>
      <trkpt lat="44.77073" lon="4.21597">
        <ele>1257</ele>
        <time>2020-06-08T12:55:42Z</time>
      </trkpt>
      <trkpt lat="44.77025" lon="4.21574">
        <ele>1255</ele>
        <time>2020-06-08T12:55:53Z</time>
      </trkpt>
      <trkpt lat="44.76975" lon="4.21572">
        <ele>1251</ele>
        <time>2020-06-08T12:56:05Z</time>
      </trkpt>
      <trkpt lat="44.76936" lon="4.21563">
        <ele>1245</ele>
        <time>2020-06-08T12:56:14Z</time>
      </trkpt>
      <trkpt lat="44.76896" lon="4.21559">
        <ele>1241</ele>
        <time>2020-06-08T12:56:24Z</time>
      </trkpt>
      <trkpt lat="44.76874" lon="4.21554">
        <ele>1239</ele>
        <time>2020-06-08T12:56:29Z</time>
      </trkpt>
      <trkpt lat="44.76866" lon="4.21572">
        <ele>1238</ele>
        <time>2020-06-08T12:56:32Z</time>
      </trkpt>
      <trkpt lat="44.76845" lon="4.21565">
        <ele>1236</ele>
        <time>2020-06-08T12:56:37Z</time>
      </trkpt>
      <trkpt lat="44.76833" lon="4.21547">
        <ele>1235</ele>
        <time>2020-06-08T12:56:42Z</time>
      </trkpt>
      <trkpt lat="44.76821" lon="4.21536">
        <ele>1235</ele>
        <time>2020-06-08T12:56:45Z</time>
      </trkpt>
      <trkpt lat="44.76827" lon="4.21522">
        <ele>1235</ele>
        <time>2020-06-08T12:56:48Z</time>
      </trkpt>
      <trkpt lat="44.76826" lon="4.2152">
        <ele>1235</ele>
        <time>2020-06-08T12:56:48Z</time>
      </trkpt>
      <trkpt lat="44.76813" lon="4.21512">
        <ele>1235</ele>
        <time>2020-06-08T12:56:51Z</time>
      </trkpt>
      <trkpt lat="44.76785" lon="4.21506">
        <ele>1236</ele>
        <time>2020-06-08T12:56:58Z</time>
      </trkpt>
      <trkpt lat="44.7673" lon="4.21476">
        <ele>1236</ele>
        <time>2020-06-08T12:57:12Z</time>
      </trkpt>
      <trkpt lat="44.76704" lon="4.21436">
        <ele>1237</ele>
        <time>2020-06-08T12:57:21Z</time>
      </trkpt>
      <trkpt lat="44.7665" lon="4.21406">
        <ele>1239</ele>
        <time>2020-06-08T12:57:34Z</time>
      </trkpt>
      <trkpt lat="44.76621" lon="4.21368">
        <ele>1237</ele>
        <time>2020-06-08T12:57:44Z</time>
      </trkpt>
      <trkpt lat="44.7657" lon="4.21324">
        <ele>1235</ele>
        <time>2020-06-08T12:57:57Z</time>
      </trkpt>
      <trkpt lat="44.76557" lon="4.21293">
        <ele>1233</ele>
        <time>2020-06-08T12:58:03Z</time>
      </trkpt>
      <trkpt lat="44.76528" lon="4.21249">
        <ele>1231</ele>
        <time>2020-06-08T12:58:13Z</time>
      </trkpt>
      <trkpt lat="44.76528" lon="4.21237">
        <ele>1231</ele>
        <time>2020-06-08T12:58:15Z</time>
      </trkpt>
      <trkpt lat="44.765" lon="4.21224">
        <ele>1230</ele>
        <time>2020-06-08T12:58:22Z</time>
      </trkpt>
      <trkpt lat="44.76487" lon="4.2121">
        <ele>1230</ele>
        <time>2020-06-08T12:58:26Z</time>
      </trkpt>
      <trkpt lat="44.76481" lon="4.21191">
        <ele>1230</ele>
        <time>2020-06-08T12:58:30Z</time>
      </trkpt>
      <trkpt lat="44.76482" lon="4.21148">
        <ele>1232</ele>
        <time>2020-06-08T12:58:37Z</time>
      </trkpt>
      <trkpt lat="44.76487" lon="4.21118">
        <ele>1234</ele>
        <time>2020-06-08T12:58:42Z</time>
      </trkpt>
      <trkpt lat="44.76494" lon="4.21103">
        <ele>1235</ele>
        <time>2020-06-08T12:58:45Z</time>
      </trkpt>
      <trkpt lat="44.76529" lon="4.2106">
        <ele>1235</ele>
        <time>2020-06-08T12:58:56Z</time>
      </trkpt>
      <trkpt lat="44.7654" lon="4.20998">
        <ele>1238</ele>
        <time>2020-06-08T12:59:06Z</time>
      </trkpt>
      <trkpt lat="44.76554" lon="4.20947">
        <ele>1240</ele>
        <time>2020-06-08T12:59:15Z</time>
      </trkpt>
      <trkpt lat="44.76557" lon="4.20882">
        <ele>1241</ele>
        <time>2020-06-08T12:59:26Z</time>
      </trkpt>
      <trkpt lat="44.76554" lon="4.20816">
        <ele>1242</ele>
        <time>2020-06-08T12:59:37Z</time>
      </trkpt>
      <trkpt lat="44.76548" lon="4.2076">
        <ele>1242</ele>
        <time>2020-06-08T12:59:46Z</time>
      </trkpt>
      <trkpt lat="44.76521" lon="4.20625">
        <ele>1250</ele>
        <time>2020-06-08T13:00:10Z</time>
      </trkpt>
      <trkpt lat="44.76533" lon="4.20552">
        <ele>1254</ele>
        <time>2020-06-08T13:00:22Z</time>
      </trkpt>
      <trkpt lat="44.76545" lon="4.20523">
        <ele>1256</ele>
        <time>2020-06-08T13:00:28Z</time>
      </trkpt>
      <trkpt lat="44.76548" lon="4.2046">
        <ele>1260</ele>
        <time>2020-06-08T13:00:38Z</time>
      </trkpt>
      <trkpt lat="44.76522" lon="4.20388">
        <ele>1265</ele>
        <time>2020-06-08T13:00:52Z</time>
      </trkpt>
      <trkpt lat="44.76513" lon="4.20374">
        <ele>1267</ele>
        <time>2020-06-08T13:00:55Z</time>
      </trkpt>
      <trkpt lat="44.76503" lon="4.20373">
        <ele>1267</ele>
        <time>2020-06-08T13:00:57Z</time>
      </trkpt>
      <trkpt lat="44.76486" lon="4.20364">
        <ele>1269</ele>
        <time>2020-06-08T13:01:01Z</time>
      </trkpt>
      <trkpt lat="44.7645" lon="4.20309">
        <ele>1276</ele>
        <time>2020-06-08T13:01:14Z</time>
      </trkpt>
      <trkpt lat="44.76399" lon="4.20221">
        <ele>1284</ele>
        <time>2020-06-08T13:01:33Z</time>
      </trkpt>
      <trkpt lat="44.76381" lon="4.20164">
        <ele>1287</ele>
        <time>2020-06-08T13:01:43Z</time>
      </trkpt>
      <trkpt lat="44.76376" lon="4.20157">
        <ele>1287</ele>
        <time>2020-06-08T13:01:44Z</time>
      </trkpt>
      <trkpt lat="44.76364" lon="4.20148">
        <ele>1288</ele>
        <time>2020-06-08T13:01:48Z</time>
      </trkpt>
      <trkpt lat="44.76331" lon="4.20135">
        <ele>1289</ele>
        <time>2020-06-08T13:01:56Z</time>
      </trkpt>
      <trkpt lat="44.76309" lon="4.2013">
        <ele>1289</ele>
        <time>2020-06-08T13:02:01Z</time>
      </trkpt>
      <trkpt lat="44.76288" lon="4.20131">
        <ele>1290</ele>
        <time>2020-06-08T13:02:06Z</time>
      </trkpt>
      <trkpt lat="44.76259" lon="4.20138">
        <ele>1289</ele>
        <time>2020-06-08T13:02:13Z</time>
      </trkpt>
      <trkpt lat="44.76188" lon="4.20145">
        <ele>1289</ele>
        <time>2020-06-08T13:02:29Z</time>
      </trkpt>
      <trkpt lat="44.76153" lon="4.20146">
        <ele>1289</ele>
        <time>2020-06-08T13:02:37Z</time>
      </trkpt>
      <trkpt lat="44.76119" lon="4.20136">
        <ele>1290</ele>
        <time>2020-06-08T13:02:46Z</time>
      </trkpt>
      <trkpt lat="44.76096" lon="4.20126">
        <ele>1291</ele>
        <time>2020-06-08T13:02:51Z</time>
      </trkpt>
      <trkpt lat="44.76052" lon="4.20101">
        <ele>1291</ele>
        <time>2020-06-08T13:03:02Z</time>
      </trkpt>
      <trkpt lat="44.76026" lon="4.20092">
        <ele>1290</ele>
        <time>2020-06-08T13:03:09Z</time>
      </trkpt>
      <trkpt lat="44.75987" lon="4.20091">
        <ele>1289</ele>
        <time>2020-06-08T13:03:18Z</time>
      </trkpt>
      <trkpt lat="44.75969" lon="4.20087">
        <ele>1289</ele>
        <time>2020-06-08T13:03:22Z</time>
      </trkpt>
      <trkpt lat="44.75953" lon="4.20087">
        <ele>1288</ele>
        <time>2020-06-08T13:03:26Z</time>
      </trkpt>
      <trkpt lat="44.75933" lon="4.20093">
        <ele>1287</ele>
        <time>2020-06-08T13:03:30Z</time>
      </trkpt>
      <trkpt lat="44.75869" lon="4.20118">
        <ele>1285</ele>
        <time>2020-06-08T13:03:46Z</time>
      </trkpt>
      <trkpt lat="44.75775" lon="4.20136">
        <ele>1285</ele>
        <time>2020-06-08T13:04:08Z</time>
      </trkpt>
      <trkpt lat="44.75718" lon="4.2014">
        <ele>1282</ele>
        <time>2020-06-08T13:04:21Z</time>
      </trkpt>
      <trkpt lat="44.75623" lon="4.20018">
        <ele>1275</ele>
        <time>2020-06-08T13:04:51Z</time>
      </trkpt>
      <trkpt lat="44.75637" lon="4.19939">
        <ele>1276</ele>
        <time>2020-06-08T13:05:05Z</time>
      </trkpt>
      <trkpt lat="44.75644" lon="4.19791">
        <ele>1275</ele>
        <time>2020-06-08T13:05:30Z</time>
      </trkpt>
      <trkpt lat="44.75643" lon="4.19756">
        <ele>1274</ele>
        <time>2020-06-08T13:05:35Z</time>
      </trkpt>
      <trkpt lat="44.75627" lon="4.19687">
        <ele>1273</ele>
        <time>2020-06-08T13:05:47Z</time>
      </trkpt>
      <trkpt lat="44.75619" lon="4.19618">
        <ele>1271</ele>
        <time>2020-06-08T13:05:59Z</time>
      </trkpt>
      <trkpt lat="44.75596" lon="4.19535">
        <ele>1271</ele>
        <time>2020-06-08T13:06:14Z</time>
      </trkpt>
      <trkpt lat="44.75573" lon="4.19478">
        <ele>1272</ele>
        <time>2020-06-08T13:06:25Z</time>
      </trkpt>
      <trkpt lat="44.7554" lon="4.19431">
        <ele>1274</ele>
        <time>2020-06-08T13:06:36Z</time>
      </trkpt>
      <trkpt lat="44.75537" lon="4.19407">
        <ele>1275</ele>
        <time>2020-06-08T13:06:40Z</time>
      </trkpt>
      <trkpt lat="44.75536" lon="4.19335">
        <ele>1275</ele>
        <time>2020-06-08T13:06:52Z</time>
      </trkpt>
      <trkpt lat="44.75529" lon="4.19258">
        <ele>1274</ele>
        <time>2020-06-08T13:07:04Z</time>
      </trkpt>
      <trkpt lat="44.75512" lon="4.19151">
        <ele>1268</ele>
        <time>2020-06-08T13:07:23Z</time>
      </trkpt>
      <trkpt lat="44.75477" lon="4.19036">
        <ele>1257</ele>
        <time>2020-06-08T13:07:43Z</time>
      </trkpt>
      <trkpt lat="44.75455" lon="4.18989">
        <ele>1252</ele>
        <time>2020-06-08T13:07:53Z</time>
      </trkpt>
      <trkpt lat="44.75423" lon="4.18965">
        <ele>1249</ele>
        <time>2020-06-08T13:08:01Z</time>
      </trkpt>
      <trkpt lat="44.75409" lon="4.18961">
        <ele>1249</ele>
        <time>2020-06-08T13:08:04Z</time>
      </trkpt>
      <trkpt lat="44.75391" lon="4.18938">
        <ele>1244</ele>
        <time>2020-06-08T13:08:10Z</time>
      </trkpt>
      <trkpt lat="44.75364" lon="4.18926">
        <ele>1241</ele>
        <time>2020-06-08T13:08:17Z</time>
      </trkpt>
      <trkpt lat="44.75336" lon="4.18908">
        <ele>1238</ele>
        <time>2020-06-08T13:08:24Z</time>
      </trkpt>
      <trkpt lat="44.7533" lon="4.18889">
        <ele>1238</ele>
        <time>2020-06-08T13:08:27Z</time>
      </trkpt>
      <trkpt lat="44.75328" lon="4.18866">
        <ele>1237</ele>
        <time>2020-06-08T13:08:31Z</time>
      </trkpt>
      <trkpt lat="44.75329" lon="4.18789">
        <ele>1235</ele>
        <time>2020-06-08T13:08:44Z</time>
      </trkpt>
      <trkpt lat="44.75318" lon="4.18762">
        <ele>1237</ele>
        <time>2020-06-08T13:08:49Z</time>
      </trkpt>
      <trkpt lat="44.75302" lon="4.18741">
        <ele>1238</ele>
        <time>2020-06-08T13:08:54Z</time>
      </trkpt>
      <trkpt lat="44.75246" lon="4.18701">
        <ele>1240</ele>
        <time>2020-06-08T13:09:09Z</time>
      </trkpt>
      <trkpt lat="44.75211" lon="4.18652">
        <ele>1237</ele>
        <time>2020-06-08T13:09:20Z</time>
      </trkpt>
      <trkpt lat="44.75178" lon="4.18627">
        <ele>1237</ele>
        <time>2020-06-08T13:09:29Z</time>
      </trkpt>
      <trkpt lat="44.75081" lon="4.18617">
        <ele>1244</ele>
        <time>2020-06-08T13:09:52Z</time>
      </trkpt>
      <trkpt lat="44.74994" lon="4.18587">
        <ele>1249</ele>
        <time>2020-06-08T13:10:13Z</time>
      </trkpt>
      <trkpt lat="44.7495" lon="4.18565">
        <ele>1253</ele>
        <time>2020-06-08T13:10:24Z</time>
      </trkpt>
      <trkpt lat="44.74935" lon="4.18561">
        <ele>1255</ele>
        <time>2020-06-08T13:10:27Z</time>
      </trkpt>
      <trkpt lat="44.74911" lon="4.1854">
        <ele>1258</ele>
        <time>2020-06-08T13:10:34Z</time>
      </trkpt>
      <trkpt lat="44.74895" lon="4.18509">
        <ele>1259</ele>
        <time>2020-06-08T13:10:40Z</time>
      </trkpt>
      <trkpt lat="44.74903" lon="4.18469">
        <ele>1260</ele>
        <time>2020-06-08T13:10:47Z</time>
      </trkpt>
      <trkpt lat="44.74923" lon="4.18442">
        <ele>1259</ele>
        <time>2020-06-08T13:10:54Z</time>
      </trkpt>
      <trkpt lat="44.74949" lon="4.18423">
        <ele>1259</ele>
        <time>2020-06-08T13:11:00Z</time>
      </trkpt>
      <trkpt lat="44.74977" lon="4.18387">
        <ele>1263</ele>
        <time>2020-06-08T13:11:09Z</time>
      </trkpt>
      <trkpt lat="44.75007" lon="4.1837">
        <ele>1264</ele>
        <time>2020-06-08T13:11:17Z</time>
      </trkpt>
      <trkpt lat="44.75047" lon="4.18353">
        <ele>1265</ele>
        <time>2020-06-08T13:11:27Z</time>
      </trkpt>
      <trkpt lat="44.75094" lon="4.18339">
        <ele>1266</ele>
        <time>2020-06-08T13:11:38Z</time>
      </trkpt>
      <trkpt lat="44.75118" lon="4.18316">
        <ele>1268</ele>
        <time>2020-06-08T13:11:45Z</time>
      </trkpt>
      <trkpt lat="44.75113" lon="4.18289">
        <ele>1271</ele>
        <time>2020-06-08T13:11:49Z</time>
      </trkpt>
      <trkpt lat="44.75014" lon="4.18196">
        <ele>1282</ele>
        <time>2020-06-08T13:12:17Z</time>
      </trkpt>
      <trkpt lat="44.74992" lon="4.18156">
        <ele>1281</ele>
        <time>2020-06-08T13:12:25Z</time>
      </trkpt>
      <trkpt lat="44.74965" lon="4.18088">
        <ele>1273</ele>
        <time>2020-06-08T13:12:38Z</time>
      </trkpt>
      <trkpt lat="44.74956" lon="4.18075">
        <ele>1271</ele>
        <time>2020-06-08T13:12:41Z</time>
      </trkpt>
      <trkpt lat="44.74942" lon="4.18062">
        <ele>1269</ele>
        <time>2020-06-08T13:12:45Z</time>
      </trkpt>
      <trkpt lat="44.7491" lon="4.1805">
        <ele>1264</ele>
        <time>2020-06-08T13:12:53Z</time>
      </trkpt>
      <trkpt lat="44.74897" lon="4.1804">
        <ele>1262</ele>
        <time>2020-06-08T13:12:57Z</time>
      </trkpt>
      <trkpt lat="44.74888" lon="4.18027">
        <ele>1261</ele>
        <time>2020-06-08T13:13:00Z</time>
      </trkpt>
      <trkpt lat="44.74882" lon="4.18005">
        <ele>1258</ele>
        <time>2020-06-08T13:13:03Z</time>
      </trkpt>
      <trkpt lat="44.74874" lon="4.17956">
        <ele>1254</ele>
        <time>2020-06-08T13:13:12Z</time>
      </trkpt>
      <trkpt lat="44.74867" lon="4.17945">
        <ele>1253</ele>
        <time>2020-06-08T13:13:14Z</time>
      </trkpt>
      <trkpt lat="44.74817" lon="4.17917">
        <ele>1242</ele>
        <time>2020-06-08T13:13:27Z</time>
      </trkpt>
      <trkpt lat="44.74805" lon="4.17906">
        <ele>1241</ele>
        <time>2020-06-08T13:13:30Z</time>
      </trkpt>
      <trkpt lat="44.74791" lon="4.17886">
        <ele>1240</ele>
        <time>2020-06-08T13:13:35Z</time>
      </trkpt>
      <trkpt lat="44.74782" lon="4.17862">
        <ele>1238</ele>
        <time>2020-06-08T13:13:39Z</time>
      </trkpt>
      <trkpt lat="44.74761" lon="4.1773">
        <ele>1235</ele>
        <time>2020-06-08T13:14:02Z</time>
      </trkpt>
      <trkpt lat="44.74756" lon="4.17678">
        <ele>1236</ele>
        <time>2020-06-08T13:14:10Z</time>
      </trkpt>
      <trkpt lat="44.74752" lon="4.17535">
        <ele>1233</ele>
        <time>2020-06-08T13:14:34Z</time>
      </trkpt>
      <trkpt lat="44.74746" lon="4.17479">
        <ele>1233</ele>
        <time>2020-06-08T13:14:44Z</time>
      </trkpt>
      <trkpt lat="44.74736" lon="4.17429">
        <ele>1234</ele>
        <time>2020-06-08T13:14:52Z</time>
      </trkpt>
      <trkpt lat="44.74723" lon="4.17386">
        <ele>1233</ele>
        <time>2020-06-08T13:15:00Z</time>
      </trkpt>
      <trkpt lat="44.74672" lon="4.17286">
        <ele>1225</ele>
        <time>2020-06-08T13:15:20Z</time>
      </trkpt>
      <trkpt lat="44.7464" lon="4.17244">
        <ele>1228</ele>
        <time>2020-06-08T13:15:31Z</time>
      </trkpt>
      <trkpt lat="44.74616" lon="4.17195">
        <ele>1230</ele>
        <time>2020-06-08T13:15:40Z</time>
      </trkpt>
      <trkpt lat="44.7456" lon="4.17116">
        <ele>1229</ele>
        <time>2020-06-08T13:15:59Z</time>
      </trkpt>
      <trkpt lat="44.74544" lon="4.17099">
        <ele>1227</ele>
        <time>2020-06-08T13:16:04Z</time>
      </trkpt>
      <trkpt lat="44.74497" lon="4.17064">
        <ele>1222</ele>
        <time>2020-06-08T13:16:16Z</time>
      </trkpt>
      <trkpt lat="44.74421" lon="4.17044">
        <ele>1215</ele>
        <time>2020-06-08T13:16:34Z</time>
      </trkpt>
      <trkpt lat="44.74405" lon="4.17005">
        <ele>1215</ele>
        <time>2020-06-08T13:16:42Z</time>
      </trkpt>
      <trkpt lat="44.74392" lon="4.16954">
        <ele>1221</ele>
        <time>2020-06-08T13:16:51Z</time>
      </trkpt>
      <trkpt lat="44.74388" lon="4.16908">
        <ele>1227</ele>
        <time>2020-06-08T13:16:58Z</time>
      </trkpt>
      <trkpt lat="44.74377" lon="4.16889">
        <ele>1230</ele>
        <time>2020-06-08T13:17:02Z</time>
      </trkpt>
      <trkpt lat="44.74369" lon="4.1688">
        <ele>1232</ele>
        <time>2020-06-08T13:17:05Z</time>
      </trkpt>
      <trkpt lat="44.74323" lon="4.16857">
        <ele>1233</ele>
        <time>2020-06-08T13:17:16Z</time>
      </trkpt>
      <trkpt lat="44.74234" lon="4.16818">
        <ele>1234</ele>
        <time>2020-06-08T13:17:38Z</time>
      </trkpt>
      <trkpt lat="44.74171" lon="4.16778">
        <ele>1239</ele>
        <time>2020-06-08T13:17:54Z</time>
      </trkpt>
      <trkpt lat="44.74155" lon="4.1675">
        <ele>1244</ele>
        <time>2020-06-08T13:18:00Z</time>
      </trkpt>
      <trkpt lat="44.74151" lon="4.16723">
        <ele>1247</ele>
        <time>2020-06-08T13:18:05Z</time>
      </trkpt>
      <trkpt lat="44.74156" lon="4.16678">
        <ele>1252</ele>
        <time>2020-06-08T13:18:12Z</time>
      </trkpt>
      <trkpt lat="44.74164" lon="4.16652">
        <ele>1254</ele>
        <time>2020-06-08T13:18:17Z</time>
      </trkpt>
      <trkpt lat="44.74167" lon="4.16633">
        <ele>1255</ele>
        <time>2020-06-08T13:18:20Z</time>
      </trkpt>
      <trkpt lat="44.74161" lon="4.16597">
        <ele>1257</ele>
        <time>2020-06-08T13:18:26Z</time>
      </trkpt>
      <trkpt lat="44.74159" lon="4.16563">
        <ele>1258</ele>
        <time>2020-06-08T13:18:32Z</time>
      </trkpt>
      <trkpt lat="44.74145" lon="4.1654">
        <ele>1259</ele>
        <time>2020-06-08T13:18:37Z</time>
      </trkpt>
      <trkpt lat="44.74165" lon="4.16476">
        <ele>1260</ele>
        <time>2020-06-08T13:18:48Z</time>
      </trkpt>
      <trkpt lat="44.74266" lon="4.16254">
        <ele>1260</ele>
        <time>2020-06-08T13:19:32Z</time>
      </trkpt>
      <trkpt lat="44.74287" lon="4.16095">
        <ele>1263</ele>
        <time>2020-06-08T13:19:59Z</time>
      </trkpt>
      <trkpt lat="44.74315" lon="4.15973">
        <ele>1267</ele>
        <time>2020-06-08T13:20:20Z</time>
      </trkpt>
      <trkpt lat="44.7434" lon="4.15919">
        <ele>1270</ele>
        <time>2020-06-08T13:20:31Z</time>
      </trkpt>
      <trkpt lat="44.74342" lon="4.15903">
        <ele>1271</ele>
        <time>2020-06-08T13:20:34Z</time>
      </trkpt>
      <trkpt lat="44.74341" lon="4.15884">
        <ele>1272</ele>
        <time>2020-06-08T13:20:37Z</time>
      </trkpt>
      <trkpt lat="44.74336" lon="4.15867">
        <ele>1272</ele>
        <time>2020-06-08T13:20:40Z</time>
      </trkpt>
      <trkpt lat="44.74315" lon="4.15819">
        <ele>1274</ele>
        <time>2020-06-08T13:20:49Z</time>
      </trkpt>
      <trkpt lat="44.74274" lon="4.15745">
        <ele>1279</ele>
        <time>2020-06-08T13:21:05Z</time>
      </trkpt>
      <trkpt lat="44.74267" lon="4.15717">
        <ele>1281</ele>
        <time>2020-06-08T13:21:10Z</time>
      </trkpt>
      <trkpt lat="44.74268" lon="4.15694">
        <ele>1282</ele>
        <time>2020-06-08T13:21:14Z</time>
      </trkpt>
      <trkpt lat="44.74294" lon="4.15542">
        <ele>1287</ele>
        <time>2020-06-08T13:21:39Z</time>
      </trkpt>
      <trkpt lat="44.74305" lon="4.15383">
        <ele>1288</ele>
        <time>2020-06-08T13:22:06Z</time>
      </trkpt>
      <trkpt lat="44.74304" lon="4.15344">
        <ele>1288</ele>
        <time>2020-06-08T13:22:12Z</time>
      </trkpt>
      <trkpt lat="44.74298" lon="4.15314">
        <ele>1288</ele>
        <time>2020-06-08T13:22:18Z</time>
      </trkpt>
      <trkpt lat="44.7429" lon="4.15294">
        <ele>1288</ele>
        <time>2020-06-08T13:22:21Z</time>
      </trkpt>
      <trkpt lat="44.74249" lon="4.15217">
        <ele>1286</ele>
        <time>2020-06-08T13:22:37Z</time>
      </trkpt>
      <trkpt lat="44.74234" lon="4.15162">
        <ele>1289</ele>
        <time>2020-06-08T13:22:47Z</time>
      </trkpt>
      <trkpt lat="44.74212" lon="4.15117">
        <ele>1292</ele>
        <time>2020-06-08T13:22:56Z</time>
      </trkpt>
      <trkpt lat="44.74193" lon="4.15086">
        <ele>1292</ele>
        <time>2020-06-08T13:23:03Z</time>
      </trkpt>
      <trkpt lat="44.74179" lon="4.15053">
        <ele>1292</ele>
        <time>2020-06-08T13:23:09Z</time>
      </trkpt>
      <trkpt lat="44.74174" lon="4.15022">
        <ele>1294</ele>
        <time>2020-06-08T13:23:15Z</time>
      </trkpt>
      <trkpt lat="44.74176" lon="4.14978">
        <ele>1298</ele>
        <time>2020-06-08T13:23:22Z</time>
      </trkpt>
      <trkpt lat="44.74187" lon="4.14871">
        <ele>1306</ele>
        <time>2020-06-08T13:23:40Z</time>
      </trkpt>
      <trkpt lat="44.74191" lon="4.14857">
        <ele>1306</ele>
        <time>2020-06-08T13:23:42Z</time>
      </trkpt>
      <trkpt lat="44.74203" lon="4.14834">
        <ele>1307</ele>
        <time>2020-06-08T13:23:47Z</time>
      </trkpt>
      <trkpt lat="44.74285" lon="4.14725">
        <ele>1302</ele>
        <time>2020-06-08T13:24:13Z</time>
      </trkpt>
      <trkpt lat="44.74311" lon="4.14685">
        <ele>1301</ele>
        <time>2020-06-08T13:24:22Z</time>
      </trkpt>
      <trkpt lat="44.74343" lon="4.14616">
        <ele>1298</ele>
        <time>2020-06-08T13:24:36Z</time>
      </trkpt>
      <trkpt lat="44.74354" lon="4.14579">
        <ele>1297</ele>
        <time>2020-06-08T13:24:43Z</time>
      </trkpt>
      <trkpt lat="44.74367" lon="4.14504">
        <ele>1292</ele>
        <time>2020-06-08T13:24:56Z</time>
      </trkpt>
      <trkpt lat="44.74371" lon="4.14467">
        <ele>1291</ele>
        <time>2020-06-08T13:25:02Z</time>
      </trkpt>
      <trkpt lat="44.7437" lon="4.14382">
        <ele>1288</ele>
        <time>2020-06-08T13:25:16Z</time>
      </trkpt>
      <trkpt lat="44.74377" lon="4.14316">
        <ele>1282</ele>
        <time>2020-06-08T13:25:27Z</time>
      </trkpt>
      <trkpt lat="44.7439" lon="4.14244">
        <ele>1281</ele>
        <time>2020-06-08T13:25:39Z</time>
      </trkpt>
      <trkpt lat="44.74453" lon="4.14041">
        <ele>1282</ele>
        <time>2020-06-08T13:26:16Z</time>
      </trkpt>
      <trkpt lat="44.74492" lon="4.1397">
        <ele>1278</ele>
        <time>2020-06-08T13:26:31Z</time>
      </trkpt>
      <trkpt lat="44.74521" lon="4.1391">
        <ele>1272</ele>
        <time>2020-06-08T13:26:43Z</time>
      </trkpt>
      <trkpt lat="44.74573" lon="4.13842">
        <ele>1268</ele>
        <time>2020-06-08T13:27:00Z</time>
      </trkpt>
      <trkpt lat="44.74577" lon="4.13826">
        <ele>1266</ele>
        <time>2020-06-08T13:27:02Z</time>
      </trkpt>
      <trkpt lat="44.74591" lon="4.13807">
        <ele>1265</ele>
        <time>2020-06-08T13:27:07Z</time>
      </trkpt>
      <trkpt lat="44.74595" lon="4.13794">
        <ele>1264</ele>
        <time>2020-06-08T13:27:09Z</time>
      </trkpt>
      <trkpt lat="44.74595" lon="4.13781">
        <ele>1264</ele>
        <time>2020-06-08T13:27:11Z</time>
      </trkpt>
      <trkpt lat="44.74607" lon="4.13768">
        <ele>1263</ele>
        <time>2020-06-08T13:27:15Z</time>
      </trkpt>
      <trkpt lat="44.74615" lon="4.13743">
        <ele>1263</ele>
        <time>2020-06-08T13:27:19Z</time>
      </trkpt>
      <trkpt lat="44.74721" lon="4.13577">
        <ele>1270</ele>
        <time>2020-06-08T13:27:56Z</time>
      </trkpt>
      <trkpt lat="44.74731" lon="4.13549">
        <ele>1270</ele>
        <time>2020-06-08T13:28:02Z</time>
      </trkpt>
      <trkpt lat="44.7477" lon="4.13482">
        <ele>1270</ele>
        <time>2020-06-08T13:28:16Z</time>
      </trkpt>
      <trkpt lat="44.74817" lon="4.13365">
        <ele>1267</ele>
        <time>2020-06-08T13:28:38Z</time>
      </trkpt>
      <trkpt lat="44.74898" lon="4.13211">
        <ele>1267</ele>
        <time>2020-06-08T13:29:10Z</time>
      </trkpt>
      <trkpt lat="44.74972" lon="4.13091">
        <ele>1260</ele>
        <time>2020-06-08T13:29:37Z</time>
      </trkpt>
      <trkpt lat="44.75083" lon="4.12932">
        <ele>1236</ele>
        <time>2020-06-08T13:30:13Z</time>
      </trkpt>
      <trkpt lat="44.75128" lon="4.1289">
        <ele>1231</ele>
        <time>2020-06-08T13:30:26Z</time>
      </trkpt>
      <trkpt lat="44.75178" lon="4.12814">
        <ele>1226</ele>
        <time>2020-06-08T13:30:43Z</time>
      </trkpt>
      <trkpt lat="44.75189" lon="4.12775">
        <ele>1224</ele>
        <time>2020-06-08T13:30:50Z</time>
      </trkpt>
      <trkpt lat="44.75203" lon="4.12738">
        <ele>1224</ele>
        <time>2020-06-08T13:30:57Z</time>
      </trkpt>
      <trkpt lat="44.75218" lon="4.12665">
        <ele>1226</ele>
        <time>2020-06-08T13:31:10Z</time>
      </trkpt>
      <trkpt lat="44.75225" lon="4.12546">
        <ele>1227</ele>
        <time>2020-06-08T13:31:30Z</time>
      </trkpt>
      <trkpt lat="44.75224" lon="4.1251">
        <ele>1225</ele>
        <time>2020-06-08T13:31:36Z</time>
      </trkpt>
      <trkpt lat="44.75219" lon="4.12481">
        <ele>1224</ele>
        <time>2020-06-08T13:31:41Z</time>
      </trkpt>
      <trkpt lat="44.75192" lon="4.12399">
        <ele>1223</ele>
        <time>2020-06-08T13:31:56Z</time>
      </trkpt>
      <trkpt lat="44.75142" lon="4.12298">
        <ele>1227</ele>
        <time>2020-06-08T13:32:16Z</time>
      </trkpt>
      <trkpt lat="44.75139" lon="4.12248">
        <ele>1228</ele>
        <time>2020-06-08T13:32:24Z</time>
      </trkpt>
      <trkpt lat="44.75129" lon="4.1216">
        <ele>1230</ele>
        <time>2020-06-08T13:32:39Z</time>
      </trkpt>
      <trkpt lat="44.75098" lon="4.12036">
        <ele>1239</ele>
        <time>2020-06-08T13:33:01Z</time>
      </trkpt>
      <trkpt lat="44.75094" lon="4.12007">
        <ele>1241</ele>
        <time>2020-06-08T13:33:06Z</time>
      </trkpt>
      <trkpt lat="44.75094" lon="4.11954">
        <ele>1245</ele>
        <time>2020-06-08T13:33:15Z</time>
      </trkpt>
      <trkpt lat="44.75104" lon="4.11862">
        <ele>1249</ele>
        <time>2020-06-08T13:33:30Z</time>
      </trkpt>
      <trkpt lat="44.75111" lon="4.11824">
        <ele>1251</ele>
        <time>2020-06-08T13:33:36Z</time>
      </trkpt>
      <trkpt lat="44.75123" lon="4.1179">
        <ele>1255</ele>
        <time>2020-06-08T13:33:43Z</time>
      </trkpt>
      <trkpt lat="44.75168" lon="4.11704">
        <ele>1264</ele>
        <time>2020-06-08T13:34:00Z</time>
      </trkpt>
      <trkpt lat="44.75192" lon="4.11665">
        <ele>1265</ele>
        <time>2020-06-08T13:34:09Z</time>
      </trkpt>
      <trkpt lat="44.75283" lon="4.11551">
        <ele>1264</ele>
        <time>2020-06-08T13:34:37Z</time>
      </trkpt>
      <trkpt lat="44.75331" lon="4.11514">
        <ele>1265</ele>
        <time>2020-06-08T13:34:50Z</time>
      </trkpt>
      <trkpt lat="44.75402" lon="4.1143">
        <ele>1265</ele>
        <time>2020-06-08T13:35:12Z</time>
      </trkpt>
      <trkpt lat="44.75427" lon="4.11409">
        <ele>1265</ele>
        <time>2020-06-08T13:35:19Z</time>
      </trkpt>
      <trkpt lat="44.75438" lon="4.11395">
        <ele>1264</ele>
        <time>2020-06-08T13:35:22Z</time>
      </trkpt>
      <trkpt lat="44.75496" lon="4.11348">
        <ele>1262</ele>
        <time>2020-06-08T13:35:38Z</time>
      </trkpt>
      <trkpt lat="44.75541" lon="4.11307">
        <ele>1260</ele>
        <time>2020-06-08T13:35:50Z</time>
      </trkpt>
      <trkpt lat="44.75556" lon="4.11288">
        <ele>1260</ele>
        <time>2020-06-08T13:35:55Z</time>
      </trkpt>
      <trkpt lat="44.75569" lon="4.11266">
        <ele>1260</ele>
        <time>2020-06-08T13:36:00Z</time>
      </trkpt>
      <trkpt lat="44.75598" lon="4.11191">
        <ele>1261</ele>
        <time>2020-06-08T13:36:14Z</time>
      </trkpt>
      <trkpt lat="44.75622" lon="4.111">
        <ele>1259</ele>
        <time>2020-06-08T13:36:30Z</time>
      </trkpt>
      <trkpt lat="44.75636" lon="4.11037">
        <ele>1258</ele>
        <time>2020-06-08T13:36:41Z</time>
      </trkpt>
      <trkpt lat="44.75661" lon="4.10961">
        <ele>1256</ele>
        <time>2020-06-08T13:36:55Z</time>
      </trkpt>
      <trkpt lat="44.7572" lon="4.10868">
        <ele>1253</ele>
        <time>2020-06-08T13:37:16Z</time>
      </trkpt>
      <trkpt lat="44.75784" lon="4.10774">
        <ele>1246</ele>
        <time>2020-06-08T13:37:37Z</time>
      </trkpt>
      <trkpt lat="44.75802" lon="4.10744">
        <ele>1244</ele>
        <time>2020-06-08T13:37:44Z</time>
      </trkpt>
      <trkpt lat="44.75808" lon="4.10718">
        <ele>1241</ele>
        <time>2020-06-08T13:37:48Z</time>
      </trkpt>
      <trkpt lat="44.75817" lon="4.10701">
        <ele>1240</ele>
        <time>2020-06-08T13:37:52Z</time>
      </trkpt>
      <trkpt lat="44.75856" lon="4.10646">
        <ele>1234</ele>
        <time>2020-06-08T13:38:05Z</time>
      </trkpt>
      <trkpt lat="44.75886" lon="4.10591">
        <ele>1229</ele>
        <time>2020-06-08T13:38:16Z</time>
      </trkpt>
      <trkpt lat="44.75898" lon="4.10563">
        <ele>1226</ele>
        <time>2020-06-08T13:38:22Z</time>
      </trkpt>
      <trkpt lat="44.7591" lon="4.10526">
        <ele>1223</ele>
        <time>2020-06-08T13:38:28Z</time>
      </trkpt>
      <trkpt lat="44.75923" lon="4.10454">
        <ele>1215</ele>
        <time>2020-06-08T13:38:41Z</time>
      </trkpt>
      <trkpt lat="44.75937" lon="4.1041">
        <ele>1210</ele>
        <time>2020-06-08T13:38:49Z</time>
      </trkpt>
      <trkpt lat="44.75953" lon="4.10306">
        <ele>1204</ele>
        <time>2020-06-08T13:39:06Z</time>
      </trkpt>
      <trkpt lat="44.75988" lon="4.10175">
        <ele>1208</ele>
        <time>2020-06-08T13:39:29Z</time>
      </trkpt>
      <trkpt lat="44.75985" lon="4.10155">
        <ele>1207</ele>
        <time>2020-06-08T13:39:33Z</time>
      </trkpt>
      <trkpt lat="44.75962" lon="4.10138">
        <ele>1203</ele>
        <time>2020-06-08T13:39:39Z</time>
      </trkpt>
      <trkpt lat="44.75965" lon="4.10124">
        <ele>1203</ele>
        <time>2020-06-08T13:39:41Z</time>
      </trkpt>
      <trkpt lat="44.75978" lon="4.1009">
        <ele>1204</ele>
        <time>2020-06-08T13:39:48Z</time>
      </trkpt>
      <trkpt lat="44.75975" lon="4.10081">
        <ele>1203</ele>
        <time>2020-06-08T13:39:49Z</time>
      </trkpt>
      <trkpt lat="44.7595" lon="4.10054">
        <ele>1196</ele>
        <time>2020-06-08T13:39:57Z</time>
      </trkpt>
      <trkpt lat="44.75941" lon="4.1004">
        <ele>1194</ele>
        <time>2020-06-08T13:40:00Z</time>
      </trkpt>
      <trkpt lat="44.75943" lon="4.10026">
        <ele>1193</ele>
        <time>2020-06-08T13:40:02Z</time>
      </trkpt>
      <trkpt lat="44.75956" lon="4.1">
        <ele>1192</ele>
        <time>2020-06-08T13:40:07Z</time>
      </trkpt>
      <trkpt lat="44.75956" lon="4.09986">
        <ele>1191</ele>
        <time>2020-06-08T13:40:10Z</time>
      </trkpt>
      <trkpt lat="44.75949" lon="4.09979">
        <ele>1189</ele>
        <time>2020-06-08T13:40:12Z</time>
      </trkpt>
      <trkpt lat="44.75924" lon="4.09989">
        <ele>1187</ele>
        <time>2020-06-08T13:40:18Z</time>
      </trkpt>
      <trkpt lat="44.75869" lon="4.10028">
        <ele>1179</ele>
        <time>2020-06-08T13:40:32Z</time>
      </trkpt>
      <trkpt lat="44.75826" lon="4.10067">
        <ele>1173</ele>
        <time>2020-06-08T13:40:44Z</time>
      </trkpt>
      <trkpt lat="44.7581" lon="4.10053">
        <ele>1167</ele>
        <time>2020-06-08T13:40:49Z</time>
      </trkpt>
      <trkpt lat="44.75806" lon="4.10021">
        <ele>1163</ele>
        <time>2020-06-08T13:40:54Z</time>
      </trkpt>
      <trkpt lat="44.7581" lon="4.09991">
        <ele>1161</ele>
        <time>2020-06-08T13:40:59Z</time>
      </trkpt>
      <trkpt lat="44.75848" lon="4.09837">
        <ele>1150</ele>
        <time>2020-06-08T13:41:26Z</time>
      </trkpt>
      <trkpt lat="44.75778" lon="4.09883">
        <ele>1137</ele>
        <time>2020-06-08T13:41:44Z</time>
      </trkpt>
      <trkpt lat="44.75758" lon="4.09942">
        <ele>1138</ele>
        <time>2020-06-08T13:41:55Z</time>
      </trkpt>
      <trkpt lat="44.75729" lon="4.09963">
        <ele>1132</ele>
        <time>2020-06-08T13:42:03Z</time>
      </trkpt>
      <trkpt lat="44.75712" lon="4.10014">
        <ele>1133</ele>
        <time>2020-06-08T13:42:12Z</time>
      </trkpt>
      <trkpt lat="44.75688" lon="4.10063">
        <ele>1134</ele>
        <time>2020-06-08T13:42:22Z</time>
      </trkpt>
      <trkpt lat="44.75655" lon="4.10056">
        <ele>1127</ele>
        <time>2020-06-08T13:42:30Z</time>
      </trkpt>
      <trkpt lat="44.75569" lon="4.10002">
        <ele>1116</ele>
        <time>2020-06-08T13:42:52Z</time>
      </trkpt>
      <trkpt lat="44.7554" lon="4.09989">
        <ele>1115</ele>
        <time>2020-06-08T13:42:59Z</time>
      </trkpt>
      <trkpt lat="44.75524" lon="4.09965">
        <ele>1113</ele>
        <time>2020-06-08T13:43:04Z</time>
      </trkpt>
      <trkpt lat="44.75502" lon="4.09951">
        <ele>1112</ele>
        <time>2020-06-08T13:43:10Z</time>
      </trkpt>
      <trkpt lat="44.75499" lon="4.0994">
        <ele>1110</ele>
        <time>2020-06-08T13:43:12Z</time>
      </trkpt>
      <trkpt lat="44.75493" lon="4.09936">
        <ele>1108</ele>
        <time>2020-06-08T13:43:13Z</time>
      </trkpt>
      <trkpt lat="44.75496" lon="4.09916">
        <ele>1106</ele>
        <time>2020-06-08T13:43:17Z</time>
      </trkpt>
      <trkpt lat="44.75495" lon="4.09868">
        <ele>1096</ele>
        <time>2020-06-08T13:43:25Z</time>
      </trkpt>
      <trkpt lat="44.755" lon="4.09853">
        <ele>1094</ele>
        <time>2020-06-08T13:43:27Z</time>
      </trkpt>
      <trkpt lat="44.75507" lon="4.09797">
        <ele>1085</ele>
        <time>2020-06-08T13:43:37Z</time>
      </trkpt>
      <trkpt lat="44.75518" lon="4.09783">
        <ele>1083</ele>
        <time>2020-06-08T13:43:40Z</time>
      </trkpt>
      <trkpt lat="44.75525" lon="4.09766">
        <ele>1080</ele>
        <time>2020-06-08T13:43:44Z</time>
      </trkpt>
      <trkpt lat="44.75537" lon="4.097">
        <ele>1072</ele>
        <time>2020-06-08T13:43:55Z</time>
      </trkpt>
      <trkpt lat="44.75541" lon="4.09652">
        <ele>1066</ele>
        <time>2020-06-08T13:44:03Z</time>
      </trkpt>
      <trkpt lat="44.75548" lon="4.0964">
        <ele>1065</ele>
        <time>2020-06-08T13:44:05Z</time>
      </trkpt>
      <trkpt lat="44.75554" lon="4.09635">
        <ele>1065</ele>
        <time>2020-06-08T13:44:07Z</time>
      </trkpt>
      <trkpt lat="44.75558" lon="4.09622">
        <ele>1064</ele>
        <time>2020-06-08T13:44:09Z</time>
      </trkpt>
      <trkpt lat="44.75566" lon="4.09611">
        <ele>1064</ele>
        <time>2020-06-08T13:44:12Z</time>
      </trkpt>
      <trkpt lat="44.75571" lon="4.0959">
        <ele>1062</ele>
        <time>2020-06-08T13:44:16Z</time>
      </trkpt>
      <trkpt lat="44.75571" lon="4.09566">
        <ele>1059</ele>
        <time>2020-06-08T13:44:20Z</time>
      </trkpt>
      <trkpt lat="44.75585" lon="4.09536">
        <ele>1057</ele>
        <time>2020-06-08T13:44:26Z</time>
      </trkpt>
      <trkpt lat="44.7561" lon="4.09532">
        <ele>1056</ele>
        <time>2020-06-08T13:44:32Z</time>
      </trkpt>
      <trkpt lat="44.75599" lon="4.0952">
        <ele>1055</ele>
        <time>2020-06-08T13:44:35Z</time>
      </trkpt>
      <trkpt lat="44.75581" lon="4.09514">
        <ele>1054</ele>
        <time>2020-06-08T13:44:39Z</time>
      </trkpt>
      <trkpt lat="44.75564" lon="4.09522">
        <ele>1054</ele>
        <time>2020-06-08T13:44:43Z</time>
      </trkpt>
      <trkpt lat="44.75479" lon="4.09633">
        <ele>1057</ele>
        <time>2020-06-08T13:45:10Z</time>
      </trkpt>
      <trkpt lat="44.75467" lon="4.09629">
        <ele>1055</ele>
        <time>2020-06-08T13:45:13Z</time>
      </trkpt>
      <trkpt lat="44.7542" lon="4.09713">
        <ele>1057</ele>
        <time>2020-06-08T13:45:31Z</time>
      </trkpt>
      <trkpt lat="44.75377" lon="4.09746">
        <ele>1059</ele>
        <time>2020-06-08T13:45:42Z</time>
      </trkpt>
      <trkpt lat="44.75316" lon="4.0982">
        <ele>1061</ele>
        <time>2020-06-08T13:46:01Z</time>
      </trkpt>
      <trkpt lat="44.75295" lon="4.09863">
        <ele>1063</ele>
        <time>2020-06-08T13:46:10Z</time>
      </trkpt>
      <trkpt lat="44.75222" lon="4.10081">
        <ele>1064</ele>
        <time>2020-06-08T13:46:50Z</time>
      </trkpt>
      <trkpt lat="44.75223" lon="4.10119">
        <ele>1063</ele>
        <time>2020-06-08T13:46:56Z</time>
      </trkpt>
      <trkpt lat="44.75217" lon="4.10145">
        <ele>1063</ele>
        <time>2020-06-08T13:47:01Z</time>
      </trkpt>
      <trkpt lat="44.75218" lon="4.10164">
        <ele>1062</ele>
        <time>2020-06-08T13:47:04Z</time>
      </trkpt>
      <trkpt lat="44.75225" lon="4.10173">
        <ele>1063</ele>
        <time>2020-06-08T13:47:06Z</time>
      </trkpt>
      <trkpt lat="44.75192" lon="4.10276">
        <ele>1063</ele>
        <time>2020-06-08T13:47:25Z</time>
      </trkpt>
      <trkpt lat="44.75179" lon="4.10245">
        <ele>1060</ele>
        <time>2020-06-08T13:47:31Z</time>
      </trkpt>
      <trkpt lat="44.75147" lon="4.10207">
        <ele>1069</ele>
        <time>2020-06-08T13:47:41Z</time>
      </trkpt>
      <trkpt lat="44.75147" lon="4.10172">
        <ele>1071</ele>
        <time>2020-06-08T13:47:46Z</time>
      </trkpt>
      <trkpt lat="44.75158" lon="4.10118">
        <ele>1071</ele>
        <time>2020-06-08T13:47:56Z</time>
      </trkpt>
      <trkpt lat="44.7517" lon="4.10083">
        <ele>1070</ele>
        <time>2020-06-08T13:48:02Z</time>
      </trkpt>
      <trkpt lat="44.75167" lon="4.10082">
        <ele>1070</ele>
        <time>2020-06-08T13:48:03Z</time>
      </trkpt>
      <trkpt lat="44.75159" lon="4.10092">
        <ele>1073</ele>
        <time>2020-06-08T13:48:05Z</time>
      </trkpt>
      <trkpt lat="44.75148" lon="4.10119">
        <ele>1076</ele>
        <time>2020-06-08T13:48:10Z</time>
      </trkpt>
      <trkpt lat="44.75107" lon="4.10228">
        <ele>1085</ele>
        <time>2020-06-08T13:48:31Z</time>
      </trkpt>
      <trkpt lat="44.75084" lon="4.10299">
        <ele>1084</ele>
        <time>2020-06-08T13:48:44Z</time>
      </trkpt>
      <trkpt lat="44.75068" lon="4.10333">
        <ele>1086</ele>
        <time>2020-06-08T13:48:51Z</time>
      </trkpt>
      <trkpt lat="44.75028" lon="4.10397">
        <ele>1092</ele>
        <time>2020-06-08T13:49:05Z</time>
      </trkpt>
      <trkpt lat="44.74985" lon="4.10443">
        <ele>1097</ele>
        <time>2020-06-08T13:49:17Z</time>
      </trkpt>
      <trkpt lat="44.74931" lon="4.10485">
        <ele>1103</ele>
        <time>2020-06-08T13:49:32Z</time>
      </trkpt>
      <trkpt lat="44.7493" lon="4.10465">
        <ele>1110</ele>
        <time>2020-06-08T13:49:35Z</time>
      </trkpt>
      <trkpt lat="44.74934" lon="4.10452">
        <ele>1112</ele>
        <time>2020-06-08T13:49:37Z</time>
      </trkpt>
      <trkpt lat="44.74972" lon="4.10402">
        <ele>1112</ele>
        <time>2020-06-08T13:49:50Z</time>
      </trkpt>
      <trkpt lat="44.74985" lon="4.10381">
        <ele>1112</ele>
        <time>2020-06-08T13:49:54Z</time>
      </trkpt>
      <trkpt lat="44.74995" lon="4.10355">
        <ele>1115</ele>
        <time>2020-06-08T13:49:59Z</time>
      </trkpt>
      <trkpt lat="44.75004" lon="4.10324">
        <ele>1117</ele>
        <time>2020-06-08T13:50:05Z</time>
      </trkpt>
      <trkpt lat="44.75013" lon="4.1028">
        <ele>1119</ele>
        <time>2020-06-08T13:50:12Z</time>
      </trkpt>
      <trkpt lat="44.75019" lon="4.10243">
        <ele>1121</ele>
        <time>2020-06-08T13:50:19Z</time>
      </trkpt>
      <trkpt lat="44.75018" lon="4.10238">
        <ele>1122</ele>
        <time>2020-06-08T13:50:19Z</time>
      </trkpt>
      <trkpt lat="44.75015" lon="4.1024">
        <ele>1124</ele>
        <time>2020-06-08T13:50:20Z</time>
      </trkpt>
      <trkpt lat="44.75006" lon="4.10274">
        <ele>1123</ele>
        <time>2020-06-08T13:50:26Z</time>
      </trkpt>
      <trkpt lat="44.74996" lon="4.10295">
        <ele>1124</ele>
        <time>2020-06-08T13:50:30Z</time>
      </trkpt>
      <trkpt lat="44.74982" lon="4.10316">
        <ele>1126</ele>
        <time>2020-06-08T13:50:35Z</time>
      </trkpt>
      <trkpt lat="44.74936" lon="4.10364">
        <ele>1133</ele>
        <time>2020-06-08T13:50:49Z</time>
      </trkpt>
      <trkpt lat="44.74907" lon="4.10388">
        <ele>1136</ele>
        <time>2020-06-08T13:50:56Z</time>
      </trkpt>
      <trkpt lat="44.74901" lon="4.10389">
        <ele>1137</ele>
        <time>2020-06-08T13:50:58Z</time>
      </trkpt>
      <trkpt lat="44.74898" lon="4.10386">
        <ele>1138</ele>
        <time>2020-06-08T13:50:59Z</time>
      </trkpt>
      <trkpt lat="44.74899" lon="4.10376">
        <ele>1140</ele>
        <time>2020-06-08T13:51:00Z</time>
      </trkpt>
      <trkpt lat="44.74919" lon="4.10342">
        <ele>1143</ele>
        <time>2020-06-08T13:51:08Z</time>
      </trkpt>
      <trkpt lat="44.7494" lon="4.10287">
        <ele>1143</ele>
        <time>2020-06-08T13:51:18Z</time>
      </trkpt>
      <trkpt lat="44.74953" lon="4.10229">
        <ele>1146</ele>
        <time>2020-06-08T13:51:28Z</time>
      </trkpt>
      <trkpt lat="44.74955" lon="4.10202">
        <ele>1149</ele>
        <time>2020-06-08T13:51:33Z</time>
      </trkpt>
      <trkpt lat="44.7495" lon="4.10195">
        <ele>1151</ele>
        <time>2020-06-08T13:51:34Z</time>
      </trkpt>
      <trkpt lat="44.74944" lon="4.10196">
        <ele>1153</ele>
        <time>2020-06-08T13:51:36Z</time>
      </trkpt>
      <trkpt lat="44.74935" lon="4.10205">
        <ele>1155</ele>
        <time>2020-06-08T13:51:38Z</time>
      </trkpt>
      <trkpt lat="44.74924" lon="4.10227">
        <ele>1155</ele>
        <time>2020-06-08T13:51:43Z</time>
      </trkpt>
      <trkpt lat="44.74906" lon="4.10252">
        <ele>1156</ele>
        <time>2020-06-08T13:51:49Z</time>
      </trkpt>
      <trkpt lat="44.7489" lon="4.10265">
        <ele>1157</ele>
        <time>2020-06-08T13:51:53Z</time>
      </trkpt>
      <trkpt lat="44.74838" lon="4.1028">
        <ele>1164</ele>
        <time>2020-06-08T13:52:05Z</time>
      </trkpt>
      <trkpt lat="44.74835" lon="4.10274">
        <ele>1165</ele>
        <time>2020-06-08T13:52:07Z</time>
      </trkpt>
      <trkpt lat="44.74843" lon="4.10219">
        <ele>1168</ele>
        <time>2020-06-08T13:52:16Z</time>
      </trkpt>
      <trkpt lat="44.74847" lon="4.10194">
        <ele>1170</ele>
        <time>2020-06-08T13:52:20Z</time>
      </trkpt>
      <trkpt lat="44.74864" lon="4.10134">
        <ele>1174</ele>
        <time>2020-06-08T13:52:31Z</time>
      </trkpt>
      <trkpt lat="44.74877" lon="4.10047">
        <ele>1181</ele>
        <time>2020-06-08T13:52:46Z</time>
      </trkpt>
      <trkpt lat="44.74878" lon="4.10019">
        <ele>1184</ele>
        <time>2020-06-08T13:52:50Z</time>
      </trkpt>
      <trkpt lat="44.74878" lon="4.09987">
        <ele>1186</ele>
        <time>2020-06-08T13:52:56Z</time>
      </trkpt>
      <trkpt lat="44.74874" lon="4.09938">
        <ele>1189</ele>
        <time>2020-06-08T13:53:04Z</time>
      </trkpt>
      <trkpt lat="44.74864" lon="4.09888">
        <ele>1193</ele>
        <time>2020-06-08T13:53:12Z</time>
      </trkpt>
      <trkpt lat="44.74854" lon="4.09817">
        <ele>1196</ele>
        <time>2020-06-08T13:53:24Z</time>
      </trkpt>
      <trkpt lat="44.74854" lon="4.09737">
        <ele>1198</ele>
        <time>2020-06-08T13:53:38Z</time>
      </trkpt>
      <trkpt lat="44.74847" lon="4.09698">
        <ele>1200</ele>
        <time>2020-06-08T13:53:44Z</time>
      </trkpt>
      <trkpt lat="44.74839" lon="4.09685">
        <ele>1202</ele>
        <time>2020-06-08T13:53:47Z</time>
      </trkpt>
      <trkpt lat="44.74827" lon="4.09684">
        <ele>1204</ele>
        <time>2020-06-08T13:53:50Z</time>
      </trkpt>
      <trkpt lat="44.74774" lon="4.09699">
        <ele>1208</ele>
        <time>2020-06-08T13:54:03Z</time>
      </trkpt>
      <trkpt lat="44.7471" lon="4.09725">
        <ele>1212</ele>
        <time>2020-06-08T13:54:18Z</time>
      </trkpt>
      <trkpt lat="44.74698" lon="4.09724">
        <ele>1213</ele>
        <time>2020-06-08T13:54:21Z</time>
      </trkpt>
      <trkpt lat="44.74656" lon="4.09679">
        <ele>1216</ele>
        <time>2020-06-08T13:54:33Z</time>
      </trkpt>
      <trkpt lat="44.74604" lon="4.09578">
        <ele>1220</ele>
        <time>2020-06-08T13:54:54Z</time>
      </trkpt>
      <trkpt lat="44.74565" lon="4.09495">
        <ele>1220</ele>
        <time>2020-06-08T13:55:10Z</time>
      </trkpt>
      <trkpt lat="44.74517" lon="4.09364">
        <ele>1224</ele>
        <time>2020-06-08T13:55:35Z</time>
      </trkpt>
      <trkpt lat="44.74514" lon="4.09339">
        <ele>1225</ele>
        <time>2020-06-08T13:55:39Z</time>
      </trkpt>
      <trkpt lat="44.74517" lon="4.09276">
        <ele>1228</ele>
        <time>2020-06-08T13:55:50Z</time>
      </trkpt>
      <trkpt lat="44.74533" lon="4.09125">
        <ele>1232</ele>
        <time>2020-06-08T13:56:15Z</time>
      </trkpt>
      <trkpt lat="44.74543" lon="4.09098">
        <ele>1232</ele>
        <time>2020-06-08T13:56:20Z</time>
      </trkpt>
      <trkpt lat="44.74551" lon="4.0904">
        <ele>1232</ele>
        <time>2020-06-08T13:56:30Z</time>
      </trkpt>
      <trkpt lat="44.74547" lon="4.09029">
        <ele>1232</ele>
        <time>2020-06-08T13:56:32Z</time>
      </trkpt>
      <trkpt lat="44.74489" lon="4.08992">
        <ele>1233</ele>
        <time>2020-06-08T13:56:47Z</time>
      </trkpt>
      <trkpt lat="44.74451" lon="4.0898">
        <ele>1233</ele>
        <time>2020-06-08T13:56:56Z</time>
      </trkpt>
      <trkpt lat="44.74349" lon="4.08955">
        <ele>1236</ele>
        <time>2020-06-08T13:57:20Z</time>
      </trkpt>
      <trkpt lat="44.74315" lon="4.08939">
        <ele>1238</ele>
        <time>2020-06-08T13:57:28Z</time>
      </trkpt>
      <trkpt lat="44.74244" lon="4.08888">
        <ele>1240</ele>
        <time>2020-06-08T13:57:47Z</time>
      </trkpt>
      <trkpt lat="44.74179" lon="4.08856">
        <ele>1238</ele>
        <time>2020-06-08T13:58:03Z</time>
      </trkpt>
      <trkpt lat="44.74164" lon="4.0884">
        <ele>1238</ele>
        <time>2020-06-08T13:58:07Z</time>
      </trkpt>
      <trkpt lat="44.74156" lon="4.08824">
        <ele>1238</ele>
        <time>2020-06-08T13:58:11Z</time>
      </trkpt>
      <trkpt lat="44.74146" lon="4.0878">
        <ele>1237</ele>
        <time>2020-06-08T13:58:18Z</time>
      </trkpt>
      <trkpt lat="44.74131" lon="4.08772">
        <ele>1237</ele>
        <time>2020-06-08T13:58:22Z</time>
      </trkpt>
      <trkpt lat="44.74114" lon="4.08777">
        <ele>1237</ele>
        <time>2020-06-08T13:58:26Z</time>
      </trkpt>
      <trkpt lat="44.74097" lon="4.08773">
        <ele>1238</ele>
        <time>2020-06-08T13:58:30Z</time>
      </trkpt>
      <trkpt lat="44.74084" lon="4.08763">
        <ele>1239</ele>
        <time>2020-06-08T13:58:34Z</time>
      </trkpt>
      <trkpt lat="44.7407" lon="4.08746">
        <ele>1240</ele>
        <time>2020-06-08T13:58:38Z</time>
      </trkpt>
      <trkpt lat="44.7406" lon="4.08741">
        <ele>1241</ele>
        <time>2020-06-08T13:58:40Z</time>
      </trkpt>
      <trkpt lat="44.7404" lon="4.08739">
        <ele>1242</ele>
        <time>2020-06-08T13:58:45Z</time>
      </trkpt>
      <trkpt lat="44.74016" lon="4.08743">
        <ele>1243</ele>
        <time>2020-06-08T13:58:51Z</time>
      </trkpt>
      <trkpt lat="44.73995" lon="4.08754">
        <ele>1243</ele>
        <time>2020-06-08T13:58:56Z</time>
      </trkpt>
      <trkpt lat="44.73957" lon="4.08789">
        <ele>1240</ele>
        <time>2020-06-08T13:59:07Z</time>
      </trkpt>
      <trkpt lat="44.73919" lon="4.08844">
        <ele>1238</ele>
        <time>2020-06-08T13:59:19Z</time>
      </trkpt>
      <trkpt lat="44.73908" lon="4.08854">
        <ele>1237</ele>
        <time>2020-06-08T13:59:22Z</time>
      </trkpt>
      <trkpt lat="44.73892" lon="4.08853">
        <ele>1235</ele>
        <time>2020-06-08T13:59:26Z</time>
      </trkpt>
      <trkpt lat="44.73885" lon="4.08844">
        <ele>1235</ele>
        <time>2020-06-08T13:59:28Z</time>
      </trkpt>
      <trkpt lat="44.73848" lon="4.0876">
        <ele>1231</ele>
        <time>2020-06-08T13:59:45Z</time>
      </trkpt>
      <trkpt lat="44.73839" lon="4.08753">
        <ele>1230</ele>
        <time>2020-06-08T13:59:47Z</time>
      </trkpt>
      <trkpt lat="44.73761" lon="4.08714">
        <ele>1220</ele>
        <time>2020-06-08T14:00:06Z</time>
      </trkpt>
      <trkpt lat="44.7375" lon="4.08702">
        <ele>1218</ele>
        <time>2020-06-08T14:00:10Z</time>
      </trkpt>
      <trkpt lat="44.73743" lon="4.08685">
        <ele>1217</ele>
        <time>2020-06-08T14:00:13Z</time>
      </trkpt>
      <trkpt lat="44.73738" lon="4.08662">
        <ele>1215</ele>
        <time>2020-06-08T14:00:17Z</time>
      </trkpt>
      <trkpt lat="44.73737" lon="4.08636">
        <ele>1215</ele>
        <time>2020-06-08T14:00:21Z</time>
      </trkpt>
      <trkpt lat="44.73746" lon="4.08573">
        <ele>1216</ele>
        <time>2020-06-08T14:00:32Z</time>
      </trkpt>
      <trkpt lat="44.73743" lon="4.08563">
        <ele>1216</ele>
        <time>2020-06-08T14:00:34Z</time>
      </trkpt>
      <trkpt lat="44.73737" lon="4.08559">
        <ele>1217</ele>
        <time>2020-06-08T14:00:35Z</time>
      </trkpt>
      <trkpt lat="44.73671" lon="4.08558">
        <ele>1217</ele>
        <time>2020-06-08T14:00:51Z</time>
      </trkpt>
      <trkpt lat="44.7366" lon="4.08566">
        <ele>1216</ele>
        <time>2020-06-08T14:00:54Z</time>
      </trkpt>
      <trkpt lat="44.73659" lon="4.08578">
        <ele>1213</ele>
        <time>2020-06-08T14:00:56Z</time>
      </trkpt>
      <trkpt lat="44.73652" lon="4.08587">
        <ele>1212</ele>
        <time>2020-06-08T14:00:58Z</time>
      </trkpt>
      <trkpt lat="44.73605" lon="4.08612">
        <ele>1210</ele>
        <time>2020-06-08T14:01:10Z</time>
      </trkpt>
      <trkpt lat="44.73588" lon="4.08627">
        <ele>1208</ele>
        <time>2020-06-08T14:01:14Z</time>
      </trkpt>
      <trkpt lat="44.73567" lon="4.08662">
        <ele>1202</ele>
        <time>2020-06-08T14:01:22Z</time>
      </trkpt>
      <trkpt lat="44.73552" lon="4.08698">
        <ele>1198</ele>
        <time>2020-06-08T14:01:29Z</time>
      </trkpt>
      <trkpt lat="44.73527" lon="4.08732">
        <ele>1193</ele>
        <time>2020-06-08T14:01:37Z</time>
      </trkpt>
      <trkpt lat="44.73504" lon="4.08751">
        <ele>1190</ele>
        <time>2020-06-08T14:01:43Z</time>
      </trkpt>
      <trkpt lat="44.7347" lon="4.08756">
        <ele>1186</ele>
        <time>2020-06-08T14:01:51Z</time>
      </trkpt>
      <trkpt lat="44.73426" lon="4.08749">
        <ele>1184</ele>
        <time>2020-06-08T14:02:01Z</time>
      </trkpt>
      <trkpt lat="44.73306" lon="4.08704">
        <ele>1174</ele>
        <time>2020-06-08T14:02:30Z</time>
      </trkpt>
      <trkpt lat="44.73253" lon="4.08678">
        <ele>1172</ele>
        <time>2020-06-08T14:02:44Z</time>
      </trkpt>
      <trkpt lat="44.73232" lon="4.08679">
        <ele>1171</ele>
        <time>2020-06-08T14:02:48Z</time>
      </trkpt>
      <trkpt lat="44.7321" lon="4.08686">
        <ele>1168</ele>
        <time>2020-06-08T14:02:54Z</time>
      </trkpt>
      <trkpt lat="44.73176" lon="4.08709">
        <ele>1162</ele>
        <time>2020-06-08T14:03:02Z</time>
      </trkpt>
      <trkpt lat="44.73148" lon="4.08723">
        <ele>1156</ele>
        <time>2020-06-08T14:03:09Z</time>
      </trkpt>
      <trkpt lat="44.73122" lon="4.08728">
        <ele>1151</ele>
        <time>2020-06-08T14:03:16Z</time>
      </trkpt>
      <trkpt lat="44.73103" lon="4.08725">
        <ele>1149</ele>
        <time>2020-06-08T14:03:20Z</time>
      </trkpt>
      <trkpt lat="44.73096" lon="4.08712">
        <ele>1150</ele>
        <time>2020-06-08T14:03:23Z</time>
      </trkpt>
      <trkpt lat="44.73097" lon="4.08679">
        <ele>1155</ele>
        <time>2020-06-08T14:03:28Z</time>
      </trkpt>
      <trkpt lat="44.7309" lon="4.08669">
        <ele>1156</ele>
        <time>2020-06-08T14:03:31Z</time>
      </trkpt>
      <trkpt lat="44.73068" lon="4.08657">
        <ele>1155</ele>
        <time>2020-06-08T14:03:36Z</time>
      </trkpt>
      <trkpt lat="44.73051" lon="4.08656">
        <ele>1153</ele>
        <time>2020-06-08T14:03:40Z</time>
      </trkpt>
      <trkpt lat="44.73036" lon="4.0866">
        <ele>1150</ele>
        <time>2020-06-08T14:03:44Z</time>
      </trkpt>
      <trkpt lat="44.73009" lon="4.08677">
        <ele>1144</ele>
        <time>2020-06-08T14:03:50Z</time>
      </trkpt>
      <trkpt lat="44.72996" lon="4.0868">
        <ele>1142</ele>
        <time>2020-06-08T14:03:54Z</time>
      </trkpt>
      <trkpt lat="44.72983" lon="4.08676">
        <ele>1142</ele>
        <time>2020-06-08T14:03:57Z</time>
      </trkpt>
      <trkpt lat="44.72971" lon="4.08666">
        <ele>1143</ele>
        <time>2020-06-08T14:04:00Z</time>
      </trkpt>
      <trkpt lat="44.72961" lon="4.08663">
        <ele>1142</ele>
        <time>2020-06-08T14:04:02Z</time>
      </trkpt>
      <trkpt lat="44.72949" lon="4.08668">
        <ele>1141</ele>
        <time>2020-06-08T14:04:05Z</time>
      </trkpt>
      <trkpt lat="44.72934" lon="4.08683">
        <ele>1138</ele>
        <time>2020-06-08T14:04:10Z</time>
      </trkpt>
      <trkpt lat="44.72929" lon="4.08704">
        <ele>1135</ele>
        <time>2020-06-08T14:04:13Z</time>
      </trkpt>
      <trkpt lat="44.72928" lon="4.08716">
        <ele>1134</ele>
        <time>2020-06-08T14:04:15Z</time>
      </trkpt>
      <trkpt lat="44.72932" lon="4.0872">
        <ele>1134</ele>
        <time>2020-06-08T14:04:16Z</time>
      </trkpt>
      <trkpt lat="44.72942" lon="4.0872">
        <ele>1134</ele>
        <time>2020-06-08T14:04:19Z</time>
      </trkpt>
      <trkpt lat="44.72947" lon="4.08724">
        <ele>1133</ele>
        <time>2020-06-08T14:04:20Z</time>
      </trkpt>
      <trkpt lat="44.72945" lon="4.08734">
        <ele>1132</ele>
        <time>2020-06-08T14:04:22Z</time>
      </trkpt>
      <trkpt lat="44.72908" lon="4.08759">
        <ele>1129</ele>
        <time>2020-06-08T14:04:31Z</time>
      </trkpt>
      <trkpt lat="44.7286" lon="4.08781">
        <ele>1125</ele>
        <time>2020-06-08T14:04:43Z</time>
      </trkpt>
      <trkpt lat="44.72857" lon="4.08792">
        <ele>1124</ele>
        <time>2020-06-08T14:04:45Z</time>
      </trkpt>
      <trkpt lat="44.72868" lon="4.08818">
        <ele>1123</ele>
        <time>2020-06-08T14:04:50Z</time>
      </trkpt>
      <trkpt lat="44.7287" lon="4.08834">
        <ele>1122</ele>
        <time>2020-06-08T14:04:53Z</time>
      </trkpt>
      <trkpt lat="44.72833" lon="4.08853">
        <ele>1123</ele>
        <time>2020-06-08T14:05:02Z</time>
      </trkpt>
      <trkpt lat="44.72829" lon="4.08865">
        <ele>1124</ele>
        <time>2020-06-08T14:05:04Z</time>
      </trkpt>
      <trkpt lat="44.72827" lon="4.08889">
        <ele>1125</ele>
        <time>2020-06-08T14:05:08Z</time>
      </trkpt>
      <trkpt lat="44.72785" lon="4.08894">
        <ele>1129</ele>
        <time>2020-06-08T14:05:18Z</time>
      </trkpt>
      <trkpt lat="44.72762" lon="4.08888">
        <ele>1131</ele>
        <time>2020-06-08T14:05:24Z</time>
      </trkpt>
      <trkpt lat="44.72731" lon="4.08864">
        <ele>1133</ele>
        <time>2020-06-08T14:05:32Z</time>
      </trkpt>
      <trkpt lat="44.72726" lon="4.08863">
        <ele>1134</ele>
        <time>2020-06-08T14:05:33Z</time>
      </trkpt>
      <trkpt lat="44.72726" lon="4.08868">
        <ele>1134</ele>
        <time>2020-06-08T14:05:34Z</time>
      </trkpt>
      <trkpt lat="44.72711" lon="4.08868">
        <ele>1137</ele>
        <time>2020-06-08T14:05:37Z</time>
      </trkpt>
      <trkpt lat="44.72695" lon="4.08861">
        <ele>1139</ele>
        <time>2020-06-08T14:05:41Z</time>
      </trkpt>
      <trkpt lat="44.72682" lon="4.08859">
        <ele>1141</ele>
        <time>2020-06-08T14:05:44Z</time>
      </trkpt>
      <trkpt lat="44.72666" lon="4.08869">
        <ele>1145</ele>
        <time>2020-06-08T14:05:48Z</time>
      </trkpt>
      <trkpt lat="44.72639" lon="4.08875">
        <ele>1153</ele>
        <time>2020-06-08T14:05:55Z</time>
      </trkpt>
      <trkpt lat="44.72618" lon="4.08876">
        <ele>1158</ele>
        <time>2020-06-08T14:06:00Z</time>
      </trkpt>
      <trkpt lat="44.72604" lon="4.08886">
        <ele>1164</ele>
        <time>2020-06-08T14:06:03Z</time>
      </trkpt>
      <trkpt lat="44.72575" lon="4.08901">
        <ele>1172</ele>
        <time>2020-06-08T14:06:11Z</time>
      </trkpt>
      <trkpt lat="44.72562" lon="4.0892">
        <ele>1177</ele>
        <time>2020-06-08T14:06:15Z</time>
      </trkpt>
      <trkpt lat="44.72516" lon="4.08956">
        <ele>1191</ele>
        <time>2020-06-08T14:06:27Z</time>
      </trkpt>
      <trkpt lat="44.72496" lon="4.0898">
        <ele>1202</ele>
        <time>2020-06-08T14:06:33Z</time>
      </trkpt>
      <trkpt lat="44.72466" lon="4.0903">
        <ele>1214</ele>
        <time>2020-06-08T14:06:44Z</time>
      </trkpt>
      <trkpt lat="44.7245" lon="4.09067">
        <ele>1220</ele>
        <time>2020-06-08T14:06:51Z</time>
      </trkpt>
      <trkpt lat="44.72437" lon="4.09081">
        <ele>1224</ele>
        <time>2020-06-08T14:06:55Z</time>
      </trkpt>
      <trkpt lat="44.72424" lon="4.0907">
        <ele>1225</ele>
        <time>2020-06-08T14:06:59Z</time>
      </trkpt>
      <trkpt lat="44.72415" lon="4.09068">
        <ele>1225</ele>
        <time>2020-06-08T14:07:01Z</time>
      </trkpt>
      <trkpt lat="44.72397" lon="4.09072">
        <ele>1226</ele>
        <time>2020-06-08T14:07:05Z</time>
      </trkpt>
      <trkpt lat="44.72358" lon="4.09087">
        <ele>1229</ele>
        <time>2020-06-08T14:07:15Z</time>
      </trkpt>
      <trkpt lat="44.72298" lon="4.09125">
        <ele>1237</ele>
        <time>2020-06-08T14:07:30Z</time>
      </trkpt>
      <trkpt lat="44.72277" lon="4.09141">
        <ele>1239</ele>
        <time>2020-06-08T14:07:36Z</time>
      </trkpt>
      <trkpt lat="44.72269" lon="4.09132">
        <ele>1238</ele>
        <time>2020-06-08T14:07:38Z</time>
      </trkpt>
      <trkpt lat="44.7226" lon="4.09096">
        <ele>1232</ele>
        <time>2020-06-08T14:07:44Z</time>
      </trkpt>
      <trkpt lat="44.72256" lon="4.09089">
        <ele>1231</ele>
        <time>2020-06-08T14:07:46Z</time>
      </trkpt>
      <trkpt lat="44.7225" lon="4.09089">
        <ele>1231</ele>
        <time>2020-06-08T14:07:47Z</time>
      </trkpt>
      <trkpt lat="44.72221" lon="4.09105">
        <ele>1235</ele>
        <time>2020-06-08T14:07:54Z</time>
      </trkpt>
      <trkpt lat="44.72133" lon="4.09128">
        <ele>1247</ele>
        <time>2020-06-08T14:08:15Z</time>
      </trkpt>
      <trkpt lat="44.72125" lon="4.09122">
        <ele>1247</ele>
        <time>2020-06-08T14:08:17Z</time>
      </trkpt>
      <trkpt lat="44.72121" lon="4.09106">
        <ele>1245</ele>
        <time>2020-06-08T14:08:20Z</time>
      </trkpt>
      <trkpt lat="44.72122" lon="4.09077">
        <ele>1240</ele>
        <time>2020-06-08T14:08:25Z</time>
      </trkpt>
      <trkpt lat="44.7211" lon="4.0904">
        <ele>1238</ele>
        <time>2020-06-08T14:08:32Z</time>
      </trkpt>
      <trkpt lat="44.72089" lon="4.09008">
        <ele>1239</ele>
        <time>2020-06-08T14:08:39Z</time>
      </trkpt>
      <trkpt lat="44.72079" lon="4.08999">
        <ele>1239</ele>
        <time>2020-06-08T14:08:42Z</time>
      </trkpt>
      <trkpt lat="44.7205" lon="4.08995">
        <ele>1239</ele>
        <time>2020-06-08T14:08:49Z</time>
      </trkpt>
      <trkpt lat="44.72034" lon="4.08998">
        <ele>1240</ele>
        <time>2020-06-08T14:08:52Z</time>
      </trkpt>
      <trkpt lat="44.72027" lon="4.09008">
        <ele>1242</ele>
        <time>2020-06-08T14:08:55Z</time>
      </trkpt>
      <trkpt lat="44.72026" lon="4.09016">
        <ele>1244</ele>
        <time>2020-06-08T14:08:56Z</time>
      </trkpt>
      <trkpt lat="44.71972" lon="4.0905">
        <ele>1253</ele>
        <time>2020-06-08T14:09:10Z</time>
      </trkpt>
      <trkpt lat="44.71914" lon="4.09063">
        <ele>1255</ele>
        <time>2020-06-08T14:09:24Z</time>
      </trkpt>
      <trkpt lat="44.71841" lon="4.09083">
        <ele>1255</ele>
        <time>2020-06-08T14:09:41Z</time>
      </trkpt>
      <trkpt lat="44.71813" lon="4.09097">
        <ele>1260</ele>
        <time>2020-06-08T14:09:48Z</time>
      </trkpt>
      <trkpt lat="44.71796" lon="4.09112">
        <ele>1264</ele>
        <time>2020-06-08T14:09:53Z</time>
      </trkpt>
      <trkpt lat="44.71783" lon="4.09128">
        <ele>1266</ele>
        <time>2020-06-08T14:09:57Z</time>
      </trkpt>
      <trkpt lat="44.71774" lon="4.09132">
        <ele>1267</ele>
        <time>2020-06-08T14:09:59Z</time>
      </trkpt>
      <trkpt lat="44.71765" lon="4.09127">
        <ele>1267</ele>
        <time>2020-06-08T14:10:01Z</time>
      </trkpt>
      <trkpt lat="44.71764" lon="4.09114">
        <ele>1266</ele>
        <time>2020-06-08T14:10:03Z</time>
      </trkpt>
      <trkpt lat="44.71767" lon="4.09097">
        <ele>1266</ele>
        <time>2020-06-08T14:10:06Z</time>
      </trkpt>
      <trkpt lat="44.71782" lon="4.0904">
        <ele>1266</ele>
        <time>2020-06-08T14:10:16Z</time>
      </trkpt>
      <trkpt lat="44.718" lon="4.08985">
        <ele>1264</ele>
        <time>2020-06-08T14:10:26Z</time>
      </trkpt>
      <trkpt lat="44.7184" lon="4.08822">
        <ele>1261</ele>
        <time>2020-06-08T14:10:55Z</time>
      </trkpt>
      <trkpt lat="44.71842" lon="4.08802">
        <ele>1259</ele>
        <time>2020-06-08T14:10:58Z</time>
      </trkpt>
      <trkpt lat="44.7184" lon="4.08781">
        <ele>1258</ele>
        <time>2020-06-08T14:11:02Z</time>
      </trkpt>
      <trkpt lat="44.71833" lon="4.08767">
        <ele>1259</ele>
        <time>2020-06-08T14:11:05Z</time>
      </trkpt>
      <trkpt lat="44.71813" lon="4.08744">
        <ele>1264</ele>
        <time>2020-06-08T14:11:11Z</time>
      </trkpt>
      <trkpt lat="44.71802" lon="4.0872">
        <ele>1265</ele>
        <time>2020-06-08T14:11:15Z</time>
      </trkpt>
      <trkpt lat="44.71787" lon="4.08667">
        <ele>1263</ele>
        <time>2020-06-08T14:11:25Z</time>
      </trkpt>
      <trkpt lat="44.71778" lon="4.08647">
        <ele>1263</ele>
        <time>2020-06-08T14:11:29Z</time>
      </trkpt>
      <trkpt lat="44.71712" lon="4.08576">
        <ele>1263</ele>
        <time>2020-06-08T14:11:48Z</time>
      </trkpt>
      <trkpt lat="44.71697" lon="4.08565">
        <ele>1263</ele>
        <time>2020-06-08T14:11:52Z</time>
      </trkpt>
      <trkpt lat="44.71682" lon="4.08559">
        <ele>1264</ele>
        <time>2020-06-08T14:11:56Z</time>
      </trkpt>
      <trkpt lat="44.71667" lon="4.08557">
        <ele>1267</ele>
        <time>2020-06-08T14:11:59Z</time>
      </trkpt>
      <trkpt lat="44.7165" lon="4.08559">
        <ele>1274</ele>
        <time>2020-06-08T14:12:03Z</time>
      </trkpt>
      <trkpt lat="44.71639" lon="4.08552">
        <ele>1276</ele>
        <time>2020-06-08T14:12:06Z</time>
      </trkpt>
      <trkpt lat="44.71632" lon="4.08542">
        <ele>1277</ele>
        <time>2020-06-08T14:12:08Z</time>
      </trkpt>
      <trkpt lat="44.71618" lon="4.0847">
        <ele>1272</ele>
        <time>2020-06-08T14:12:21Z</time>
      </trkpt>
      <trkpt lat="44.71615" lon="4.08273">
        <ele>1262</ele>
        <time>2020-06-08T14:12:54Z</time>
      </trkpt>
      <trkpt lat="44.71608" lon="4.08224">
        <ele>1260</ele>
        <time>2020-06-08T14:13:02Z</time>
      </trkpt>
      <trkpt lat="44.716" lon="4.08208">
        <ele>1260</ele>
        <time>2020-06-08T14:13:05Z</time>
      </trkpt>
      <trkpt lat="44.7159" lon="4.08202">
        <ele>1262</ele>
        <time>2020-06-08T14:13:08Z</time>
      </trkpt>
      <trkpt lat="44.71574" lon="4.08202">
        <ele>1264</ele>
        <time>2020-06-08T14:13:11Z</time>
      </trkpt>
      <trkpt lat="44.7154" lon="4.08213">
        <ele>1266</ele>
        <time>2020-06-08T14:13:19Z</time>
      </trkpt>
      <trkpt lat="44.71462" lon="4.08252">
        <ele>1277</ele>
        <time>2020-06-08T14:13:39Z</time>
      </trkpt>
      <trkpt lat="44.71444" lon="4.08252">
        <ele>1277</ele>
        <time>2020-06-08T14:13:43Z</time>
      </trkpt>
      <trkpt lat="44.71433" lon="4.08246">
        <ele>1276</ele>
        <time>2020-06-08T14:13:46Z</time>
      </trkpt>
      <trkpt lat="44.7142" lon="4.08233">
        <ele>1273</ele>
        <time>2020-06-08T14:13:49Z</time>
      </trkpt>
      <trkpt lat="44.71404" lon="4.08224">
        <ele>1272</ele>
        <time>2020-06-08T14:13:54Z</time>
      </trkpt>
      <trkpt lat="44.71331" lon="4.08199">
        <ele>1275</ele>
        <time>2020-06-08T14:14:11Z</time>
      </trkpt>
      <trkpt lat="44.71306" lon="4.08209">
        <ele>1276</ele>
        <time>2020-06-08T14:14:17Z</time>
      </trkpt>
      <trkpt lat="44.71255" lon="4.08252">
        <ele>1282</ele>
        <time>2020-06-08T14:14:31Z</time>
      </trkpt>
      <trkpt lat="44.71207" lon="4.08273">
        <ele>1289</ele>
        <time>2020-06-08T14:14:43Z</time>
      </trkpt>
      <trkpt lat="44.71187" lon="4.08279">
        <ele>1291</ele>
        <time>2020-06-08T14:14:48Z</time>
      </trkpt>
      <trkpt lat="44.71179" lon="4.08277">
        <ele>1292</ele>
        <time>2020-06-08T14:14:49Z</time>
      </trkpt>
      <trkpt lat="44.71165" lon="4.08263">
        <ele>1291</ele>
        <time>2020-06-08T14:14:53Z</time>
      </trkpt>
      <trkpt lat="44.71154" lon="4.08246">
        <ele>1291</ele>
        <time>2020-06-08T14:14:57Z</time>
      </trkpt>
      <trkpt lat="44.71152" lon="4.08236">
        <ele>1292</ele>
        <time>2020-06-08T14:14:59Z</time>
      </trkpt>
      <trkpt lat="44.71159" lon="4.08161">
        <ele>1289</ele>
        <time>2020-06-08T14:15:12Z</time>
      </trkpt>
      <trkpt lat="44.71159" lon="4.08081">
        <ele>1281</ele>
        <time>2020-06-08T14:15:25Z</time>
      </trkpt>
      <trkpt lat="44.71153" lon="4.08058">
        <ele>1277</ele>
        <time>2020-06-08T14:15:29Z</time>
      </trkpt>
      <trkpt lat="44.71145" lon="4.08046">
        <ele>1276</ele>
        <time>2020-06-08T14:15:32Z</time>
      </trkpt>
      <trkpt lat="44.71125" lon="4.08039">
        <ele>1277</ele>
        <time>2020-06-08T14:15:36Z</time>
      </trkpt>
      <trkpt lat="44.71106" lon="4.08036">
        <ele>1279</ele>
        <time>2020-06-08T14:15:41Z</time>
      </trkpt>
      <trkpt lat="44.71083" lon="4.08039">
        <ele>1282</ele>
        <time>2020-06-08T14:15:46Z</time>
      </trkpt>
      <trkpt lat="44.71064" lon="4.08045">
        <ele>1281</ele>
        <time>2020-06-08T14:15:51Z</time>
      </trkpt>
      <trkpt lat="44.71027" lon="4.08063">
        <ele>1278</ele>
        <time>2020-06-08T14:16:00Z</time>
      </trkpt>
      <trkpt lat="44.70996" lon="4.08094">
        <ele>1279</ele>
        <time>2020-06-08T14:16:09Z</time>
      </trkpt>
      <trkpt lat="44.70963" lon="4.08118">
        <ele>1277</ele>
        <time>2020-06-08T14:16:18Z</time>
      </trkpt>
      <trkpt lat="44.70956" lon="4.08138">
        <ele>1279</ele>
        <time>2020-06-08T14:16:21Z</time>
      </trkpt>
      <trkpt lat="44.70938" lon="4.08212">
        <ele>1288</ele>
        <time>2020-06-08T14:16:34Z</time>
      </trkpt>
      <trkpt lat="44.70931" lon="4.08227">
        <ele>1289</ele>
        <time>2020-06-08T14:16:37Z</time>
      </trkpt>
      <trkpt lat="44.70899" lon="4.08266">
        <ele>1292</ele>
        <time>2020-06-08T14:16:47Z</time>
      </trkpt>
      <trkpt lat="44.70904" lon="4.08287">
        <ele>1295</ele>
        <time>2020-06-08T14:16:51Z</time>
      </trkpt>
      <trkpt lat="44.70903" lon="4.08299">
        <ele>1296</ele>
        <time>2020-06-08T14:16:53Z</time>
      </trkpt>
      <trkpt lat="44.70897" lon="4.08308">
        <ele>1296</ele>
        <time>2020-06-08T14:16:55Z</time>
      </trkpt>
      <trkpt lat="44.70889" lon="4.08314">
        <ele>1296</ele>
        <time>2020-06-08T14:16:57Z</time>
      </trkpt>
      <trkpt lat="44.70857" lon="4.08326">
        <ele>1295</ele>
        <time>2020-06-08T14:17:05Z</time>
      </trkpt>
      <trkpt lat="44.70832" lon="4.08343">
        <ele>1294</ele>
        <time>2020-06-08T14:17:11Z</time>
      </trkpt>
      <trkpt lat="44.70815" lon="4.0836">
        <ele>1293</ele>
        <time>2020-06-08T14:17:16Z</time>
      </trkpt>
      <trkpt lat="44.70795" lon="4.08384">
        <ele>1293</ele>
        <time>2020-06-08T14:17:22Z</time>
      </trkpt>
      <trkpt lat="44.70779" lon="4.08424">
        <ele>1293</ele>
        <time>2020-06-08T14:17:30Z</time>
      </trkpt>
      <trkpt lat="44.70769" lon="4.08435">
        <ele>1292</ele>
        <time>2020-06-08T14:17:33Z</time>
      </trkpt>
      <trkpt lat="44.7076" lon="4.08403">
        <ele>1291</ele>
        <time>2020-06-08T14:17:38Z</time>
      </trkpt>
      <trkpt lat="44.70744" lon="4.08365">
        <ele>1289</ele>
        <time>2020-06-08T14:17:46Z</time>
      </trkpt>
      <trkpt lat="44.70697" lon="4.08292">
        <ele>1289</ele>
        <time>2020-06-08T14:18:02Z</time>
      </trkpt>
      <trkpt lat="44.70673" lon="4.0824">
        <ele>1290</ele>
        <time>2020-06-08T14:18:12Z</time>
      </trkpt>
      <trkpt lat="44.70665" lon="4.08145">
        <ele>1295</ele>
        <time>2020-06-08T14:18:28Z</time>
      </trkpt>
      <trkpt lat="44.70654" lon="4.0808">
        <ele>1298</ele>
        <time>2020-06-08T14:18:39Z</time>
      </trkpt>
      <trkpt lat="44.70597" lon="4.08016">
        <ele>1304</ele>
        <time>2020-06-08T14:18:56Z</time>
      </trkpt>
      <trkpt lat="44.70586" lon="4.07998">
        <ele>1306</ele>
        <time>2020-06-08T14:19:00Z</time>
      </trkpt>
      <trkpt lat="44.70549" lon="4.07973">
        <ele>1312</ele>
        <time>2020-06-08T14:19:10Z</time>
      </trkpt>
      <trkpt lat="44.70498" lon="4.07949">
        <ele>1319</ele>
        <time>2020-06-08T14:19:22Z</time>
      </trkpt>
      <trkpt lat="44.70485" lon="4.07948">
        <ele>1320</ele>
        <time>2020-06-08T14:19:26Z</time>
      </trkpt>
      <trkpt lat="44.70462" lon="4.07929">
        <ele>1323</ele>
        <time>2020-06-08T14:19:32Z</time>
      </trkpt>
      <trkpt lat="44.70369" lon="4.07794">
        <ele>1337</ele>
        <time>2020-06-08T14:20:03Z</time>
      </trkpt>
      <trkpt lat="44.70334" lon="4.07733">
        <ele>1340</ele>
        <time>2020-06-08T14:20:16Z</time>
      </trkpt>
      <trkpt lat="44.70315" lon="4.07673">
        <ele>1340</ele>
        <time>2020-06-08T14:20:27Z</time>
      </trkpt>
      <trkpt lat="44.70282" lon="4.076">
        <ele>1336</ele>
        <time>2020-06-08T14:20:41Z</time>
      </trkpt>
      <trkpt lat="44.70249" lon="4.07539">
        <ele>1334</ele>
        <time>2020-06-08T14:20:54Z</time>
      </trkpt>
      <trkpt lat="44.70217" lon="4.07486">
        <ele>1332</ele>
        <time>2020-06-08T14:21:06Z</time>
      </trkpt>
      <trkpt lat="44.70186" lon="4.07418">
        <ele>1329</ele>
        <time>2020-06-08T14:21:19Z</time>
      </trkpt>
      <trkpt lat="44.70078" lon="4.07201">
        <ele>1329</ele>
        <time>2020-06-08T14:22:03Z</time>
      </trkpt>
      <trkpt lat="44.69999" lon="4.07015">
        <ele>1337</ele>
        <time>2020-06-08T14:22:39Z</time>
      </trkpt>
      <trkpt lat="44.69937" lon="4.06903">
        <ele>1339</ele>
        <time>2020-06-08T14:23:02Z</time>
      </trkpt>
      <trkpt lat="44.69884" lon="4.06824">
        <ele>1338</ele>
        <time>2020-06-08T14:23:20Z</time>
      </trkpt>
      <trkpt lat="44.69865" lon="4.06777">
        <ele>1340</ele>
        <time>2020-06-08T14:23:29Z</time>
      </trkpt>
      <trkpt lat="44.69838" lon="4.06671">
        <ele>1344</ele>
        <time>2020-06-08T14:23:48Z</time>
      </trkpt>
      <trkpt lat="44.69827" lon="4.06648">
        <ele>1345</ele>
        <time>2020-06-08T14:23:53Z</time>
      </trkpt>
      <trkpt lat="44.69824" lon="4.0663">
        <ele>1346</ele>
        <time>2020-06-08T14:23:56Z</time>
      </trkpt>
      <trkpt lat="44.69811" lon="4.06595">
        <ele>1347</ele>
        <time>2020-06-08T14:24:02Z</time>
      </trkpt>
      <trkpt lat="44.69788" lon="4.06572">
        <ele>1348</ele>
        <time>2020-06-08T14:24:09Z</time>
      </trkpt>
      <trkpt lat="44.6976" lon="4.06505">
        <ele>1351</ele>
        <time>2020-06-08T14:24:22Z</time>
      </trkpt>
      <trkpt lat="44.69725" lon="4.06439">
        <ele>1350</ele>
        <time>2020-06-08T14:24:35Z</time>
      </trkpt>
      <trkpt lat="44.69723" lon="4.064">
        <ele>1350</ele>
        <time>2020-06-08T14:24:42Z</time>
      </trkpt>
      <trkpt lat="44.69741" lon="4.06242">
        <ele>1352</ele>
        <time>2020-06-08T14:25:09Z</time>
      </trkpt>
      <trkpt lat="44.69744" lon="4.06186">
        <ele>1353</ele>
        <time>2020-06-08T14:25:18Z</time>
      </trkpt>
      <trkpt lat="44.69764" lon="4.06087">
        <ele>1354</ele>
        <time>2020-06-08T14:25:35Z</time>
      </trkpt>
      <trkpt lat="44.69776" lon="4.06065">
        <ele>1354</ele>
        <time>2020-06-08T14:25:40Z</time>
      </trkpt>
      <trkpt lat="44.69796" lon="4.06039">
        <ele>1355</ele>
        <time>2020-06-08T14:25:46Z</time>
      </trkpt>
      <trkpt lat="44.69802" lon="4.05962">
        <ele>1356</ele>
        <time>2020-06-08T14:25:59Z</time>
      </trkpt>
      <trkpt lat="44.69802" lon="4.05925">
        <ele>1356</ele>
        <time>2020-06-08T14:26:05Z</time>
      </trkpt>
      <trkpt lat="44.69809" lon="4.05895">
        <ele>1356</ele>
        <time>2020-06-08T14:26:10Z</time>
      </trkpt>
      <trkpt lat="44.69811" lon="4.05865">
        <ele>1355</ele>
        <time>2020-06-08T14:26:15Z</time>
      </trkpt>
      <trkpt lat="44.69816" lon="4.05838">
        <ele>1355</ele>
        <time>2020-06-08T14:26:20Z</time>
      </trkpt>
      <trkpt lat="44.69812" lon="4.05783">
        <ele>1355</ele>
        <time>2020-06-08T14:26:29Z</time>
      </trkpt>
      <trkpt lat="44.6983" lon="4.05713">
        <ele>1354</ele>
        <time>2020-06-08T14:26:41Z</time>
      </trkpt>
      <trkpt lat="44.69859" lon="4.05653">
        <ele>1353</ele>
        <time>2020-06-08T14:26:53Z</time>
      </trkpt>
      <trkpt lat="44.69883" lon="4.05626">
        <ele>1352</ele>
        <time>2020-06-08T14:27:01Z</time>
      </trkpt>
      <trkpt lat="44.69901" lon="4.05595">
        <ele>1352</ele>
        <time>2020-06-08T14:27:07Z</time>
      </trkpt>
      <trkpt lat="44.69938" lon="4.05511">
        <ele>1353</ele>
        <time>2020-06-08T14:27:24Z</time>
      </trkpt>
      <trkpt lat="44.69956" lon="4.05466">
        <ele>1354</ele>
        <time>2020-06-08T14:27:32Z</time>
      </trkpt>
      <trkpt lat="44.69971" lon="4.05413">
        <ele>1356</ele>
        <time>2020-06-08T14:27:42Z</time>
      </trkpt>
      <trkpt lat="44.69974" lon="4.05392">
        <ele>1359</ele>
        <time>2020-06-08T14:27:45Z</time>
      </trkpt>
      <trkpt lat="44.69973" lon="4.0537">
        <ele>1361</ele>
        <time>2020-06-08T14:27:49Z</time>
      </trkpt>
      <trkpt lat="44.69965" lon="4.05348">
        <ele>1364</ele>
        <time>2020-06-08T14:27:53Z</time>
      </trkpt>
      <trkpt lat="44.69951" lon="4.05327">
        <ele>1367</ele>
        <time>2020-06-08T14:27:58Z</time>
      </trkpt>
      <trkpt lat="44.69925" lon="4.053">
        <ele>1371</ele>
        <time>2020-06-08T14:28:05Z</time>
      </trkpt>
      <trkpt lat="44.69913" lon="4.05274">
        <ele>1375</ele>
        <time>2020-06-08T14:28:10Z</time>
      </trkpt>
      <trkpt lat="44.69902" lon="4.05236">
        <ele>1379</ele>
        <time>2020-06-08T14:28:17Z</time>
      </trkpt>
      <trkpt lat="44.69895" lon="4.05231">
        <ele>1378</ele>
        <time>2020-06-08T14:28:19Z</time>
      </trkpt>
      <trkpt lat="44.69873" lon="4.05203">
        <ele>1379</ele>
        <time>2020-06-08T14:28:26Z</time>
      </trkpt>
      <trkpt lat="44.6985" lon="4.0516">
        <ele>1381</ele>
        <time>2020-06-08T14:28:35Z</time>
      </trkpt>
      <trkpt lat="44.69802" lon="4.05054">
        <ele>1385</ele>
        <time>2020-06-08T14:28:56Z</time>
      </trkpt>
      <trkpt lat="44.69745" lon="4.05003">
        <ele>1384</ele>
        <time>2020-06-08T14:29:12Z</time>
      </trkpt>
      <trkpt lat="44.6972" lon="4.04957">
        <ele>1386</ele>
        <time>2020-06-08T14:29:21Z</time>
      </trkpt>
      <trkpt lat="44.69659" lon="4.04863">
        <ele>1386</ele>
        <time>2020-06-08T14:29:42Z</time>
      </trkpt>
      <trkpt lat="44.6966" lon="4.04845">
        <ele>1388</ele>
        <time>2020-06-08T14:29:45Z</time>
      </trkpt>
      <trkpt lat="44.69654" lon="4.04814">
        <ele>1389</ele>
        <time>2020-06-08T14:29:51Z</time>
      </trkpt>
      <trkpt lat="44.69658" lon="4.04769">
        <ele>1394</ele>
        <time>2020-06-08T14:29:58Z</time>
      </trkpt>
      <trkpt lat="44.69645" lon="4.04646">
        <ele>1398</ele>
        <time>2020-06-08T14:30:19Z</time>
      </trkpt>
      <trkpt lat="44.69644" lon="4.04593">
        <ele>1400</ele>
        <time>2020-06-08T14:30:28Z</time>
      </trkpt>
      <trkpt lat="44.69648" lon="4.04578">
        <ele>1401</ele>
        <time>2020-06-08T14:30:30Z</time>
      </trkpt>
      <trkpt lat="44.69644" lon="4.04545">
        <ele>1400</ele>
        <time>2020-06-08T14:30:36Z</time>
      </trkpt>
      <trkpt lat="44.69647" lon="4.04521">
        <ele>1400</ele>
        <time>2020-06-08T14:30:40Z</time>
      </trkpt>
      <trkpt lat="44.69647" lon="4.04489">
        <ele>1400</ele>
        <time>2020-06-08T14:30:45Z</time>
      </trkpt>
      <trkpt lat="44.69637" lon="4.04443">
        <ele>1397</ele>
        <time>2020-06-08T14:30:53Z</time>
      </trkpt>
      <trkpt lat="44.69622" lon="4.04399">
        <ele>1394</ele>
        <time>2020-06-08T14:31:01Z</time>
      </trkpt>
      <trkpt lat="44.6962" lon="4.04383">
        <ele>1394</ele>
        <time>2020-06-08T14:31:04Z</time>
      </trkpt>
      <trkpt lat="44.69611" lon="4.0438">
        <ele>1393</ele>
        <time>2020-06-08T14:31:06Z</time>
      </trkpt>
      <trkpt lat="44.69604" lon="4.04362">
        <ele>1392</ele>
        <time>2020-06-08T14:31:10Z</time>
      </trkpt>
      <trkpt lat="44.69579" lon="4.04315">
        <ele>1390</ele>
        <time>2020-06-08T14:31:19Z</time>
      </trkpt>
      <trkpt lat="44.69577" lon="4.04293">
        <ele>1389</ele>
        <time>2020-06-08T14:31:23Z</time>
      </trkpt>
      <trkpt lat="44.6958" lon="4.0427">
        <ele>1387</ele>
        <time>2020-06-08T14:31:27Z</time>
      </trkpt>
      <trkpt lat="44.69593" lon="4.04217">
        <ele>1384</ele>
        <time>2020-06-08T14:31:36Z</time>
      </trkpt>
      <trkpt lat="44.69592" lon="4.04194">
        <ele>1383</ele>
        <time>2020-06-08T14:31:40Z</time>
      </trkpt>
      <trkpt lat="44.69568" lon="4.04051">
        <ele>1372</ele>
        <time>2020-06-08T14:32:04Z</time>
      </trkpt>
      <trkpt lat="44.69558" lon="4.03953">
        <ele>1362</ele>
        <time>2020-06-08T14:32:21Z</time>
      </trkpt>
      <trkpt lat="44.69559" lon="4.03922">
        <ele>1359</ele>
        <time>2020-06-08T14:32:26Z</time>
      </trkpt>
      <trkpt lat="44.69546" lon="4.03802">
        <ele>1353</ele>
        <time>2020-06-08T14:32:46Z</time>
      </trkpt>
      <trkpt lat="44.6954" lon="4.03641">
        <ele>1345</ele>
        <time>2020-06-08T14:33:13Z</time>
      </trkpt>
      <trkpt lat="44.69538" lon="4.03514">
        <ele>1338</ele>
        <time>2020-06-08T14:33:34Z</time>
      </trkpt>
      <trkpt lat="44.6952" lon="4.03356">
        <ele>1325</ele>
        <time>2020-06-08T14:34:01Z</time>
      </trkpt>
      <trkpt lat="44.69529" lon="4.03299">
        <ele>1319</ele>
        <time>2020-06-08T14:34:10Z</time>
      </trkpt>
      <trkpt lat="44.69533" lon="4.0329">
        <ele>1318</ele>
        <time>2020-06-08T14:34:12Z</time>
      </trkpt>
      <trkpt lat="44.69545" lon="4.03285">
        <ele>1317</ele>
        <time>2020-06-08T14:34:15Z</time>
      </trkpt>
      <trkpt lat="44.69572" lon="4.0329">
        <ele>1318</ele>
        <time>2020-06-08T14:34:21Z</time>
      </trkpt>
      <trkpt lat="44.69596" lon="4.03305">
        <ele>1322</ele>
        <time>2020-06-08T14:34:27Z</time>
      </trkpt>
      <trkpt lat="44.69622" lon="4.03327">
        <ele>1325</ele>
        <time>2020-06-08T14:34:34Z</time>
      </trkpt>
      <trkpt lat="44.69631" lon="4.03325">
        <ele>1324</ele>
        <time>2020-06-08T14:34:37Z</time>
      </trkpt>
      <trkpt lat="44.69639" lon="4.03315">
        <ele>1324</ele>
        <time>2020-06-08T14:34:39Z</time>
      </trkpt>
      <trkpt lat="44.69641" lon="4.03296">
        <ele>1323</ele>
        <time>2020-06-08T14:34:42Z</time>
      </trkpt>
      <trkpt lat="44.6963" lon="4.03262">
        <ele>1320</ele>
        <time>2020-06-08T14:34:49Z</time>
      </trkpt>
      <trkpt lat="44.69604" lon="4.03208">
        <ele>1312</ele>
        <time>2020-06-08T14:34:59Z</time>
      </trkpt>
      <trkpt lat="44.69597" lon="4.03176">
        <ele>1308</ele>
        <time>2020-06-08T14:35:05Z</time>
      </trkpt>
      <trkpt lat="44.69591" lon="4.03103">
        <ele>1302</ele>
        <time>2020-06-08T14:35:17Z</time>
      </trkpt>
      <trkpt lat="44.69595" lon="4.03066">
        <ele>1300</ele>
        <time>2020-06-08T14:35:23Z</time>
      </trkpt>
      <trkpt lat="44.69605" lon="4.03029">
        <ele>1299</ele>
        <time>2020-06-08T14:35:30Z</time>
      </trkpt>
      <trkpt lat="44.69697" lon="4.02816">
        <ele>1293</ele>
        <time>2020-06-08T14:36:11Z</time>
      </trkpt>
      <trkpt lat="44.69739" lon="4.02686">
        <ele>1291</ele>
        <time>2020-06-08T14:36:35Z</time>
      </trkpt>
      <trkpt lat="44.69766" lon="4.02612">
        <ele>1289</ele>
        <time>2020-06-08T14:36:49Z</time>
      </trkpt>
      <trkpt lat="44.6979" lon="4.0256">
        <ele>1289</ele>
        <time>2020-06-08T14:36:59Z</time>
      </trkpt>
      <trkpt lat="44.69801" lon="4.02475">
        <ele>1284</ele>
        <time>2020-06-08T14:37:13Z</time>
      </trkpt>
      <trkpt lat="44.69801" lon="4.02446">
        <ele>1282</ele>
        <time>2020-06-08T14:37:18Z</time>
      </trkpt>
      <trkpt lat="44.69797" lon="4.02424">
        <ele>1280</ele>
        <time>2020-06-08T14:37:22Z</time>
      </trkpt>
      <trkpt lat="44.69757" lon="4.02276">
        <ele>1270</ele>
        <time>2020-06-08T14:37:48Z</time>
      </trkpt>
      <trkpt lat="44.69749" lon="4.02218">
        <ele>1268</ele>
        <time>2020-06-08T14:37:58Z</time>
      </trkpt>
      <trkpt lat="44.69748" lon="4.02176">
        <ele>1267</ele>
        <time>2020-06-08T14:38:05Z</time>
      </trkpt>
      <trkpt lat="44.69765" lon="4.02118">
        <ele>1266</ele>
        <time>2020-06-08T14:38:15Z</time>
      </trkpt>
      <trkpt lat="44.69763" lon="4.02099">
        <ele>1264</ele>
        <time>2020-06-08T14:38:19Z</time>
      </trkpt>
      <trkpt lat="44.69758" lon="4.02089">
        <ele>1263</ele>
        <time>2020-06-08T14:38:21Z</time>
      </trkpt>
      <trkpt lat="44.69746" lon="4.02087">
        <ele>1262</ele>
        <time>2020-06-08T14:38:23Z</time>
      </trkpt>
      <trkpt lat="44.69732" lon="4.02089">
        <ele>1261</ele>
        <time>2020-06-08T14:38:27Z</time>
      </trkpt>
      <trkpt lat="44.69698" lon="4.02101">
        <ele>1260</ele>
        <time>2020-06-08T14:38:35Z</time>
      </trkpt>
      <trkpt lat="44.69643" lon="4.02067">
        <ele>1257</ele>
        <time>2020-06-08T14:38:49Z</time>
      </trkpt>
      <trkpt lat="44.6956" lon="4.01999">
        <ele>1258</ele>
        <time>2020-06-08T14:39:11Z</time>
      </trkpt>
      <trkpt lat="44.6952" lon="4.01989">
        <ele>1262</ele>
        <time>2020-06-08T14:39:21Z</time>
      </trkpt>
      <trkpt lat="44.69454" lon="4.01955">
        <ele>1269</ele>
        <time>2020-06-08T14:39:37Z</time>
      </trkpt>
      <trkpt lat="44.69439" lon="4.01964">
        <ele>1271</ele>
        <time>2020-06-08T14:39:41Z</time>
      </trkpt>
      <trkpt lat="44.69413" lon="4.01958">
        <ele>1273</ele>
        <time>2020-06-08T14:39:47Z</time>
      </trkpt>
      <trkpt lat="44.69376" lon="4.01986">
        <ele>1278</ele>
        <time>2020-06-08T14:39:57Z</time>
      </trkpt>
      <trkpt lat="44.69327" lon="4.01968">
        <ele>1282</ele>
        <time>2020-06-08T14:40:09Z</time>
      </trkpt>
      <trkpt lat="44.69276" lon="4.01954">
        <ele>1281</ele>
        <time>2020-06-08T14:40:21Z</time>
      </trkpt>
      <trkpt lat="44.69249" lon="4.01952">
        <ele>1280</ele>
        <time>2020-06-08T14:40:27Z</time>
      </trkpt>
      <trkpt lat="44.69211" lon="4.01968">
        <ele>1282</ele>
        <time>2020-06-08T14:40:37Z</time>
      </trkpt>
      <trkpt lat="44.69066" lon="4.02044">
        <ele>1290</ele>
        <time>2020-06-08T14:41:13Z</time>
      </trkpt>
      <trkpt lat="44.69017" lon="4.0206">
        <ele>1292</ele>
        <time>2020-06-08T14:41:25Z</time>
      </trkpt>
      <trkpt lat="44.69001" lon="4.02058">
        <ele>1293</ele>
        <time>2020-06-08T14:41:28Z</time>
      </trkpt>
      <trkpt lat="44.6896" lon="4.02074">
        <ele>1296</ele>
        <time>2020-06-08T14:41:38Z</time>
      </trkpt>
      <trkpt lat="44.68932" lon="4.02082">
        <ele>1298</ele>
        <time>2020-06-08T14:41:45Z</time>
      </trkpt>
      <trkpt lat="44.68892" lon="4.02087">
        <ele>1303</ele>
        <time>2020-06-08T14:41:54Z</time>
      </trkpt>
      <trkpt lat="44.68875" lon="4.02079">
        <ele>1306</ele>
        <time>2020-06-08T14:41:58Z</time>
      </trkpt>
      <trkpt lat="44.68852" lon="4.02077">
        <ele>1310</ele>
        <time>2020-06-08T14:42:04Z</time>
      </trkpt>
      <trkpt lat="44.68809" lon="4.02057">
        <ele>1317</ele>
        <time>2020-06-08T14:42:14Z</time>
      </trkpt>
      <trkpt lat="44.68779" lon="4.02054">
        <ele>1320</ele>
        <time>2020-06-08T14:42:21Z</time>
      </trkpt>
      <trkpt lat="44.68728" lon="4.02026">
        <ele>1324</ele>
        <time>2020-06-08T14:42:34Z</time>
      </trkpt>
      <trkpt lat="44.68657" lon="4.01958">
        <ele>1326</ele>
        <time>2020-06-08T14:42:54Z</time>
      </trkpt>
      <trkpt lat="44.68608" lon="4.01928">
        <ele>1328</ele>
        <time>2020-06-08T14:43:07Z</time>
      </trkpt>
      <trkpt lat="44.68587" lon="4.01924">
        <ele>1328</ele>
        <time>2020-06-08T14:43:12Z</time>
      </trkpt>
      <trkpt lat="44.68561" lon="4.0193">
        <ele>1330</ele>
        <time>2020-06-08T14:43:18Z</time>
      </trkpt>
      <trkpt lat="44.68537" lon="4.01942">
        <ele>1333</ele>
        <time>2020-06-08T14:43:24Z</time>
      </trkpt>
      <trkpt lat="44.68508" lon="4.01949">
        <ele>1336</ele>
        <time>2020-06-08T14:43:31Z</time>
      </trkpt>
      <trkpt lat="44.68495" lon="4.0196">
        <ele>1337</ele>
        <time>2020-06-08T14:43:34Z</time>
      </trkpt>
      <trkpt lat="44.68481" lon="4.01967">
        <ele>1339</ele>
        <time>2020-06-08T14:43:38Z</time>
      </trkpt>
      <trkpt lat="44.68476" lon="4.01981">
        <ele>1340</ele>
        <time>2020-06-08T14:43:40Z</time>
      </trkpt>
      <trkpt lat="44.68451" lon="4.02012">
        <ele>1343</ele>
        <time>2020-06-08T14:43:48Z</time>
      </trkpt>
      <trkpt lat="44.68352" lon="4.02103">
        <ele>1355</ele>
        <time>2020-06-08T14:44:16Z</time>
      </trkpt>
      <trkpt lat="44.68295" lon="4.02145">
        <ele>1359</ele>
        <time>2020-06-08T14:44:31Z</time>
      </trkpt>
      <trkpt lat="44.68262" lon="4.02162">
        <ele>1360</ele>
        <time>2020-06-08T14:44:39Z</time>
      </trkpt>
      <trkpt lat="44.68129" lon="4.02203">
        <ele>1369</ele>
        <time>2020-06-08T14:45:11Z</time>
      </trkpt>
      <trkpt lat="44.6811" lon="4.02214">
        <ele>1371</ele>
        <time>2020-06-08T14:45:16Z</time>
      </trkpt>
      <trkpt lat="44.6808" lon="4.02224">
        <ele>1375</ele>
        <time>2020-06-08T14:45:23Z</time>
      </trkpt>
      <trkpt lat="44.68067" lon="4.02234">
        <ele>1375</ele>
        <time>2020-06-08T14:45:26Z</time>
      </trkpt>
      <trkpt lat="44.68001" lon="4.023">
        <ele>1379</ele>
        <time>2020-06-08T14:45:45Z</time>
      </trkpt>
      <trkpt lat="44.67969" lon="4.02327">
        <ele>1379</ele>
        <time>2020-06-08T14:45:54Z</time>
      </trkpt>
      <trkpt lat="44.67958" lon="4.02331">
        <ele>1379</ele>
        <time>2020-06-08T14:45:56Z</time>
      </trkpt>
      <trkpt lat="44.67848" lon="4.02453">
        <ele>1381</ele>
        <time>2020-06-08T14:46:29Z</time>
      </trkpt>
      <trkpt lat="44.67737" lon="4.02542">
        <ele>1386</ele>
        <time>2020-06-08T14:46:59Z</time>
      </trkpt>
      <trkpt lat="44.67692" lon="4.02571">
        <ele>1393</ele>
        <time>2020-06-08T14:47:11Z</time>
      </trkpt>
      <trkpt lat="44.67675" lon="4.02589">
        <ele>1395</ele>
        <time>2020-06-08T14:47:16Z</time>
      </trkpt>
      <trkpt lat="44.67661" lon="4.0261">
        <ele>1397</ele>
        <time>2020-06-08T14:47:20Z</time>
      </trkpt>
      <trkpt lat="44.67641" lon="4.02622">
        <ele>1398</ele>
        <time>2020-06-08T14:47:25Z</time>
      </trkpt>
      <trkpt lat="44.67619" lon="4.02629">
        <ele>1401</ele>
        <time>2020-06-08T14:47:31Z</time>
      </trkpt>
      <trkpt lat="44.67527" lon="4.02622">
        <ele>1408</ele>
        <time>2020-06-08T14:47:52Z</time>
      </trkpt>
      <trkpt lat="44.67512" lon="4.02617">
        <ele>1409</ele>
        <time>2020-06-08T14:47:56Z</time>
      </trkpt>
      <trkpt lat="44.67455" lon="4.02575">
        <ele>1415</ele>
        <time>2020-06-08T14:48:11Z</time>
      </trkpt>
      <trkpt lat="44.6733" lon="4.02555">
        <ele>1420</ele>
        <time>2020-06-08T14:48:40Z</time>
      </trkpt>
      <trkpt lat="44.67292" lon="4.02545">
        <ele>1419</ele>
        <time>2020-06-08T14:48:49Z</time>
      </trkpt>
      <trkpt lat="44.67268" lon="4.02526">
        <ele>1417</ele>
        <time>2020-06-08T14:48:56Z</time>
      </trkpt>
      <trkpt lat="44.67253" lon="4.02459">
        <ele>1416</ele>
        <time>2020-06-08T14:49:07Z</time>
      </trkpt>
      <trkpt lat="44.67178" lon="4.02398">
        <ele>1412</ele>
        <time>2020-06-08T14:49:28Z</time>
      </trkpt>
      <trkpt lat="44.67163" lon="4.02401">
        <ele>1412</ele>
        <time>2020-06-08T14:49:31Z</time>
      </trkpt>
      <trkpt lat="44.67098" lon="4.02356">
        <ele>1411</ele>
        <time>2020-06-08T14:49:48Z</time>
      </trkpt>
      <trkpt lat="44.67069" lon="4.02346">
        <ele>1412</ele>
        <time>2020-06-08T14:49:55Z</time>
      </trkpt>
      <trkpt lat="44.67061" lon="4.02348">
        <ele>1413</ele>
        <time>2020-06-08T14:49:57Z</time>
      </trkpt>
      <trkpt lat="44.67054" lon="4.02341">
        <ele>1413</ele>
        <time>2020-06-08T14:49:59Z</time>
      </trkpt>
      <trkpt lat="44.67003" lon="4.02333">
        <ele>1415</ele>
        <time>2020-06-08T14:50:11Z</time>
      </trkpt>
      <trkpt lat="44.66951" lon="4.02299">
        <ele>1420</ele>
        <time>2020-06-08T14:50:24Z</time>
      </trkpt>
      <trkpt lat="44.66903" lon="4.0226">
        <ele>1427</ele>
        <time>2020-06-08T14:50:37Z</time>
      </trkpt>
      <trkpt lat="44.66836" lon="4.0223">
        <ele>1434</ele>
        <time>2020-06-08T14:50:54Z</time>
      </trkpt>
      <trkpt lat="44.66822" lon="4.02218">
        <ele>1435</ele>
        <time>2020-06-08T14:50:57Z</time>
      </trkpt>
      <trkpt lat="44.66781" lon="4.02163">
        <ele>1441</ele>
        <time>2020-06-08T14:51:11Z</time>
      </trkpt>
      <trkpt lat="44.66761" lon="4.02124">
        <ele>1441</ele>
        <time>2020-06-08T14:51:19Z</time>
      </trkpt>
      <trkpt lat="44.66733" lon="4.02051">
        <ele>1438</ele>
        <time>2020-06-08T14:51:32Z</time>
      </trkpt>
      <trkpt lat="44.66675" lon="4.01973">
        <ele>1439</ele>
        <time>2020-06-08T14:51:51Z</time>
      </trkpt>
      <trkpt lat="44.66614" lon="4.01909">
        <ele>1441</ele>
        <time>2020-06-08T14:52:09Z</time>
      </trkpt>
      <trkpt lat="44.66578" lon="4.01904">
        <ele>1441</ele>
        <time>2020-06-08T14:52:17Z</time>
      </trkpt>
      <trkpt lat="44.66565" lon="4.01908">
        <ele>1442</ele>
        <time>2020-06-08T14:52:21Z</time>
      </trkpt>
      <trkpt lat="44.66543" lon="4.01905">
        <ele>1443</ele>
        <time>2020-06-08T14:52:26Z</time>
      </trkpt>
      <trkpt lat="44.66528" lon="4.01892">
        <ele>1444</ele>
        <time>2020-06-08T14:52:30Z</time>
      </trkpt>
      <trkpt lat="44.66516" lon="4.01974">
        <ele>1443</ele>
        <time>2020-06-08T14:52:44Z</time>
      </trkpt>
      <trkpt lat="44.66498" lon="4.02046">
        <ele>1443</ele>
        <time>2020-06-08T14:52:56Z</time>
      </trkpt>
      <trkpt lat="44.66475" lon="4.02093">
        <ele>1441</ele>
        <time>2020-06-08T14:53:06Z</time>
      </trkpt>
      <trkpt lat="44.66442" lon="4.02119">
        <ele>1438</ele>
        <time>2020-06-08T14:53:15Z</time>
      </trkpt>
      <trkpt lat="44.66407" lon="4.02135">
        <ele>1435</ele>
        <time>2020-06-08T14:53:23Z</time>
      </trkpt>
      <trkpt lat="44.66374" lon="4.02131">
        <ele>1430</ele>
        <time>2020-06-08T14:53:31Z</time>
      </trkpt>
      <trkpt lat="44.66342" lon="4.02145">
        <ele>1426</ele>
        <time>2020-06-08T14:53:39Z</time>
      </trkpt>
      <trkpt lat="44.66217" lon="4.02233">
        <ele>1411</ele>
        <time>2020-06-08T14:54:12Z</time>
      </trkpt>
      <trkpt lat="44.662" lon="4.02251">
        <ele>1407</ele>
        <time>2020-06-08T14:54:16Z</time>
      </trkpt>
      <trkpt lat="44.66166" lon="4.02307">
        <ele>1402</ele>
        <time>2020-06-08T14:54:29Z</time>
      </trkpt>
      <trkpt lat="44.66137" lon="4.02378">
        <ele>1399</ele>
        <time>2020-06-08T14:54:42Z</time>
      </trkpt>
      <trkpt lat="44.66094" lon="4.02451">
        <ele>1389</ele>
        <time>2020-06-08T14:54:58Z</time>
      </trkpt>
      <trkpt lat="44.66078" lon="4.02463">
        <ele>1385</ele>
        <time>2020-06-08T14:55:02Z</time>
      </trkpt>
      <trkpt lat="44.66067" lon="4.0249">
        <ele>1383</ele>
        <time>2020-06-08T14:55:07Z</time>
      </trkpt>
      <trkpt lat="44.66046" lon="4.02526">
        <ele>1380</ele>
        <time>2020-06-08T14:55:15Z</time>
      </trkpt>
      <trkpt lat="44.65981" lon="4.0259">
        <ele>1373</ele>
        <time>2020-06-08T14:55:34Z</time>
      </trkpt>
      <trkpt lat="44.65961" lon="4.02603">
        <ele>1372</ele>
        <time>2020-06-08T14:55:39Z</time>
      </trkpt>
      <trkpt lat="44.65943" lon="4.02619">
        <ele>1371</ele>
        <time>2020-06-08T14:55:44Z</time>
      </trkpt>
      <trkpt lat="44.65918" lon="4.02652">
        <ele>1374</ele>
        <time>2020-06-08T14:55:52Z</time>
      </trkpt>
      <trkpt lat="44.65867" lon="4.0275">
        <ele>1384</ele>
        <time>2020-06-08T14:56:12Z</time>
      </trkpt>
      <trkpt lat="44.65848" lon="4.02777">
        <ele>1387</ele>
        <time>2020-06-08T14:56:18Z</time>
      </trkpt>
      <trkpt lat="44.65819" lon="4.02811">
        <ele>1390</ele>
        <time>2020-06-08T14:56:27Z</time>
      </trkpt>
      <trkpt lat="44.65762" lon="4.02843">
        <ele>1394</ele>
        <time>2020-06-08T14:56:41Z</time>
      </trkpt>
      <trkpt lat="44.65723" lon="4.02862">
        <ele>1392</ele>
        <time>2020-06-08T14:56:51Z</time>
      </trkpt>
      <trkpt lat="44.65663" lon="4.0288">
        <ele>1388</ele>
        <time>2020-06-08T14:57:05Z</time>
      </trkpt>
      <trkpt lat="44.65605" lon="4.02891">
        <ele>1388</ele>
        <time>2020-06-08T14:57:19Z</time>
      </trkpt>
      <trkpt lat="44.65552" lon="4.02917">
        <ele>1389</ele>
        <time>2020-06-08T14:57:32Z</time>
      </trkpt>
      <trkpt lat="44.65458" lon="4.02928">
        <ele>1393</ele>
        <time>2020-06-08T14:57:54Z</time>
      </trkpt>
      <trkpt lat="44.65421" lon="4.02943">
        <ele>1395</ele>
        <time>2020-06-08T14:58:03Z</time>
      </trkpt>
      <trkpt lat="44.65364" lon="4.0298">
        <ele>1399</ele>
        <time>2020-06-08T14:58:18Z</time>
      </trkpt>
      <trkpt lat="44.65311" lon="4.02997">
        <ele>1403</ele>
        <time>2020-06-08T14:58:31Z</time>
      </trkpt>
      <trkpt lat="44.65219" lon="4.03038">
        <ele>1402</ele>
        <time>2020-06-08T14:58:53Z</time>
      </trkpt>
      <trkpt lat="44.65199" lon="4.03053">
        <ele>1401</ele>
        <time>2020-06-08T14:58:58Z</time>
      </trkpt>
      <trkpt lat="44.65185" lon="4.03076">
        <ele>1401</ele>
        <time>2020-06-08T14:59:03Z</time>
      </trkpt>
      <trkpt lat="44.65173" lon="4.03152">
        <ele>1402</ele>
        <time>2020-06-08T14:59:16Z</time>
      </trkpt>
      <trkpt lat="44.65169" lon="4.03192">
        <ele>1404</ele>
        <time>2020-06-08T14:59:23Z</time>
      </trkpt>
      <trkpt lat="44.65171" lon="4.03223">
        <ele>1405</ele>
        <time>2020-06-08T14:59:28Z</time>
      </trkpt>
      <trkpt lat="44.65169" lon="4.03263">
        <ele>1408</ele>
        <time>2020-06-08T14:59:35Z</time>
      </trkpt>
      <trkpt lat="44.65178" lon="4.03341">
        <ele>1412</ele>
        <time>2020-06-08T14:59:48Z</time>
      </trkpt>
      <trkpt lat="44.6518" lon="4.03394">
        <ele>1411</ele>
        <time>2020-06-08T14:59:57Z</time>
      </trkpt>
      <trkpt lat="44.65162" lon="4.03584">
        <ele>1414</ele>
        <time>2020-06-08T15:00:29Z</time>
      </trkpt>
      <trkpt lat="44.65165" lon="4.03706">
        <ele>1416</ele>
        <time>2020-06-08T15:00:49Z</time>
      </trkpt>
      <trkpt lat="44.65162" lon="4.03782">
        <ele>1418</ele>
        <time>2020-06-08T15:01:02Z</time>
      </trkpt>
      <trkpt lat="44.65156" lon="4.03853">
        <ele>1422</ele>
        <time>2020-06-08T15:01:14Z</time>
      </trkpt>
      <trkpt lat="44.65144" lon="4.03892">
        <ele>1423</ele>
        <time>2020-06-08T15:01:21Z</time>
      </trkpt>
      <trkpt lat="44.65139" lon="4.03928">
        <ele>1424</ele>
        <time>2020-06-08T15:01:27Z</time>
      </trkpt>
      <trkpt lat="44.65113" lon="4.04012">
        <ele>1426</ele>
        <time>2020-06-08T15:01:42Z</time>
      </trkpt>
      <trkpt lat="44.65114" lon="4.04024">
        <ele>1427</ele>
        <time>2020-06-08T15:01:44Z</time>
      </trkpt>
      <trkpt lat="44.65068" lon="4.04145">
        <ele>1429</ele>
        <time>2020-06-08T15:02:07Z</time>
      </trkpt>
      <trkpt lat="44.64997" lon="4.0431">
        <ele>1428</ele>
        <time>2020-06-08T15:02:39Z</time>
      </trkpt>
      <trkpt lat="44.64968" lon="4.04387">
        <ele>1429</ele>
        <time>2020-06-08T15:02:53Z</time>
      </trkpt>
      <trkpt lat="44.64956" lon="4.04401">
        <ele>1428</ele>
        <time>2020-06-08T15:02:57Z</time>
      </trkpt>
      <trkpt lat="44.64817" lon="4.04509">
        <ele>1411</ele>
        <time>2020-06-08T15:03:34Z</time>
      </trkpt>
      <trkpt lat="44.64798" lon="4.04512">
        <ele>1406</ele>
        <time>2020-06-08T15:03:38Z</time>
      </trkpt>
      <trkpt lat="44.64774" lon="4.04527">
        <ele>1402</ele>
        <time>2020-06-08T15:03:45Z</time>
      </trkpt>
      <trkpt lat="44.64768" lon="4.04539">
        <ele>1403</ele>
        <time>2020-06-08T15:03:47Z</time>
      </trkpt>
      <trkpt lat="44.64709" lon="4.0457">
        <ele>1394</ele>
        <time>2020-06-08T15:04:02Z</time>
      </trkpt>
      <trkpt lat="44.64696" lon="4.04569">
        <ele>1391</ele>
        <time>2020-06-08T15:04:05Z</time>
      </trkpt>
      <trkpt lat="44.64681" lon="4.04561">
        <ele>1386</ele>
        <time>2020-06-08T15:04:08Z</time>
      </trkpt>
      <trkpt lat="44.64658" lon="4.04521">
        <ele>1375</ele>
        <time>2020-06-08T15:04:17Z</time>
      </trkpt>
      <trkpt lat="44.64639" lon="4.04475">
        <ele>1364</ele>
        <time>2020-06-08T15:04:26Z</time>
      </trkpt>
      <trkpt lat="44.64592" lon="4.0438">
        <ele>1343</ele>
        <time>2020-06-08T15:04:45Z</time>
      </trkpt>
      <trkpt lat="44.64593" lon="4.04365">
        <ele>1341</ele>
        <time>2020-06-08T15:04:48Z</time>
      </trkpt>
      <trkpt lat="44.64584" lon="4.04359">
        <ele>1339</ele>
        <time>2020-06-08T15:04:50Z</time>
      </trkpt>
      <trkpt lat="44.64589" lon="4.04355">
        <ele>1339</ele>
        <time>2020-06-08T15:04:51Z</time>
      </trkpt>
      <trkpt lat="44.64589" lon="4.04334">
        <ele>1337</ele>
        <time>2020-06-08T15:04:55Z</time>
      </trkpt>
      <trkpt lat="44.64582" lon="4.04314">
        <ele>1334</ele>
        <time>2020-06-08T15:04:58Z</time>
      </trkpt>
      <trkpt lat="44.64575" lon="4.04259">
        <ele>1329</ele>
        <time>2020-06-08T15:05:08Z</time>
      </trkpt>
      <trkpt lat="44.64566" lon="4.04227">
        <ele>1324</ele>
        <time>2020-06-08T15:05:13Z</time>
      </trkpt>
      <trkpt lat="44.64534" lon="4.04146">
        <ele>1313</ele>
        <time>2020-06-08T15:05:29Z</time>
      </trkpt>
      <trkpt lat="44.64515" lon="4.04125">
        <ele>1311</ele>
        <time>2020-06-08T15:05:34Z</time>
      </trkpt>
      <trkpt lat="44.64482" lon="4.0418">
        <ele>1307</ele>
        <time>2020-06-08T15:05:46Z</time>
      </trkpt>
      <trkpt lat="44.64461" lon="4.04245">
        <ele>1301</ele>
        <time>2020-06-08T15:05:58Z</time>
      </trkpt>
      <trkpt lat="44.64445" lon="4.04281">
        <ele>1298</ele>
        <time>2020-06-08T15:06:05Z</time>
      </trkpt>
      <trkpt lat="44.64428" lon="4.04331">
        <ele>1295</ele>
        <time>2020-06-08T15:06:15Z</time>
      </trkpt>
      <trkpt lat="44.64423" lon="4.04361">
        <ele>1297</ele>
        <time>2020-06-08T15:06:20Z</time>
      </trkpt>
      <trkpt lat="44.64415" lon="4.04379">
        <ele>1296</ele>
        <time>2020-06-08T15:06:23Z</time>
      </trkpt>
      <trkpt lat="44.64408" lon="4.04417">
        <ele>1298</ele>
        <time>2020-06-08T15:06:30Z</time>
      </trkpt>
      <trkpt lat="44.64399" lon="4.04443">
        <ele>1297</ele>
        <time>2020-06-08T15:06:35Z</time>
      </trkpt>
      <trkpt lat="44.64398" lon="4.0446">
        <ele>1298</ele>
        <time>2020-06-08T15:06:37Z</time>
      </trkpt>
      <trkpt lat="44.64385" lon="4.04493">
        <ele>1295</ele>
        <time>2020-06-08T15:06:44Z</time>
      </trkpt>
      <trkpt lat="44.64377" lon="4.04558">
        <ele>1296</ele>
        <time>2020-06-08T15:06:55Z</time>
      </trkpt>
      <trkpt lat="44.64373" lon="4.04567">
        <ele>1296</ele>
        <time>2020-06-08T15:06:56Z</time>
      </trkpt>
      <trkpt lat="44.64364" lon="4.04574">
        <ele>1294</ele>
        <time>2020-06-08T15:06:59Z</time>
      </trkpt>
      <trkpt lat="44.64356" lon="4.04591">
        <ele>1294</ele>
        <time>2020-06-08T15:07:02Z</time>
      </trkpt>
      <trkpt lat="44.64338" lon="4.04613">
        <ele>1294</ele>
        <time>2020-06-08T15:07:08Z</time>
      </trkpt>
      <trkpt lat="44.64252" lon="4.04659">
        <ele>1289</ele>
        <time>2020-06-08T15:07:29Z</time>
      </trkpt>
      <trkpt lat="44.64229" lon="4.04678">
        <ele>1287</ele>
        <time>2020-06-08T15:07:35Z</time>
      </trkpt>
      <trkpt lat="44.64206" lon="4.04741">
        <ele>1288</ele>
        <time>2020-06-08T15:07:47Z</time>
      </trkpt>
      <trkpt lat="44.64195" lon="4.04749">
        <ele>1286</ele>
        <time>2020-06-08T15:07:50Z</time>
      </trkpt>
      <trkpt lat="44.64171" lon="4.0479">
        <ele>1281</ele>
        <time>2020-06-08T15:07:59Z</time>
      </trkpt>
      <trkpt lat="44.64145" lon="4.04819">
        <ele>1275</ele>
        <time>2020-06-08T15:08:07Z</time>
      </trkpt>
      <trkpt lat="44.64135" lon="4.04849">
        <ele>1274</ele>
        <time>2020-06-08T15:08:12Z</time>
      </trkpt>
      <trkpt lat="44.64122" lon="4.04871">
        <ele>1273</ele>
        <time>2020-06-08T15:08:17Z</time>
      </trkpt>
      <trkpt lat="44.64105" lon="4.04931">
        <ele>1273</ele>
        <time>2020-06-08T15:08:28Z</time>
      </trkpt>
      <trkpt lat="44.64088" lon="4.04958">
        <ele>1271</ele>
        <time>2020-06-08T15:08:34Z</time>
      </trkpt>
      <trkpt lat="44.6407" lon="4.05014">
        <ele>1271</ele>
        <time>2020-06-08T15:08:44Z</time>
      </trkpt>
      <trkpt lat="44.64053" lon="4.05028">
        <ele>1267</ele>
        <time>2020-06-08T15:08:48Z</time>
      </trkpt>
      <trkpt lat="44.64025" lon="4.05064">
        <ele>1263</ele>
        <time>2020-06-08T15:08:57Z</time>
      </trkpt>
      <trkpt lat="44.64013" lon="4.05066">
        <ele>1260</ele>
        <time>2020-06-08T15:09:00Z</time>
      </trkpt>
      <trkpt lat="44.63985" lon="4.05081">
        <ele>1254</ele>
        <time>2020-06-08T15:09:07Z</time>
      </trkpt>
      <trkpt lat="44.63969" lon="4.051">
        <ele>1250</ele>
        <time>2020-06-08T15:09:12Z</time>
      </trkpt>
      <trkpt lat="44.63895" lon="4.05077">
        <ele>1235</ele>
        <time>2020-06-08T15:09:30Z</time>
      </trkpt>
      <trkpt lat="44.63884" lon="4.05066">
        <ele>1233</ele>
        <time>2020-06-08T15:09:33Z</time>
      </trkpt>
      <trkpt lat="44.63866" lon="4.05078">
        <ele>1233</ele>
        <time>2020-06-08T15:09:38Z</time>
      </trkpt>
      <trkpt lat="44.63855" lon="4.05076">
        <ele>1232</ele>
        <time>2020-06-08T15:09:40Z</time>
      </trkpt>
      <trkpt lat="44.63836" lon="4.05059">
        <ele>1229</ele>
        <time>2020-06-08T15:09:45Z</time>
      </trkpt>
      <trkpt lat="44.6382" lon="4.05058">
        <ele>1229</ele>
        <time>2020-06-08T15:09:49Z</time>
      </trkpt>
      <trkpt lat="44.63776" lon="4.05098">
        <ele>1230</ele>
        <time>2020-06-08T15:10:01Z</time>
      </trkpt>
      <trkpt lat="44.63728" lon="4.05132">
        <ele>1229</ele>
        <time>2020-06-08T15:10:14Z</time>
      </trkpt>
      <trkpt lat="44.63684" lon="4.05212">
        <ele>1224</ele>
        <time>2020-06-08T15:10:31Z</time>
      </trkpt>
      <trkpt lat="44.63669" lon="4.0523">
        <ele>1223</ele>
        <time>2020-06-08T15:10:35Z</time>
      </trkpt>
      <trkpt lat="44.63623" lon="4.05253">
        <ele>1223</ele>
        <time>2020-06-08T15:10:47Z</time>
      </trkpt>
      <trkpt lat="44.6357" lon="4.05289">
        <ele>1219</ele>
        <time>2020-06-08T15:11:00Z</time>
      </trkpt>
      <trkpt lat="44.63553" lon="4.05293">
        <ele>1217</ele>
        <time>2020-06-08T15:11:05Z</time>
      </trkpt>
      <trkpt lat="44.63535" lon="4.05293">
        <ele>1215</ele>
        <time>2020-06-08T15:11:09Z</time>
      </trkpt>
      <trkpt lat="44.63521" lon="4.05286">
        <ele>1215</ele>
        <time>2020-06-08T15:11:12Z</time>
      </trkpt>
      <trkpt lat="44.63502" lon="4.05274">
        <ele>1215</ele>
        <time>2020-06-08T15:11:17Z</time>
      </trkpt>
      <trkpt lat="44.63488" lon="4.05258">
        <ele>1214</ele>
        <time>2020-06-08T15:11:21Z</time>
      </trkpt>
      <trkpt lat="44.63476" lon="4.05235">
        <ele>1214</ele>
        <time>2020-06-08T15:11:26Z</time>
      </trkpt>
      <trkpt lat="44.63465" lon="4.05201">
        <ele>1213</ele>
        <time>2020-06-08T15:11:32Z</time>
      </trkpt>
      <trkpt lat="44.63459" lon="4.05176">
        <ele>1214</ele>
        <time>2020-06-08T15:11:37Z</time>
      </trkpt>
      <trkpt lat="44.63456" lon="4.05132">
        <ele>1216</ele>
        <time>2020-06-08T15:11:44Z</time>
      </trkpt>
      <trkpt lat="44.63427" lon="4.05039">
        <ele>1217</ele>
        <time>2020-06-08T15:12:01Z</time>
      </trkpt>
      <trkpt lat="44.63421" lon="4.05029">
        <ele>1217</ele>
        <time>2020-06-08T15:12:03Z</time>
      </trkpt>
      <trkpt lat="44.63398" lon="4.05007">
        <ele>1220</ele>
        <time>2020-06-08T15:12:09Z</time>
      </trkpt>
      <trkpt lat="44.6339" lon="4.05006">
        <ele>1221</ele>
        <time>2020-06-08T15:12:11Z</time>
      </trkpt>
      <trkpt lat="44.63385" lon="4.05012">
        <ele>1221</ele>
        <time>2020-06-08T15:12:13Z</time>
      </trkpt>
      <trkpt lat="44.63386" lon="4.05043">
        <ele>1217</ele>
        <time>2020-06-08T15:12:18Z</time>
      </trkpt>
      <trkpt lat="44.6338" lon="4.05063">
        <ele>1215</ele>
        <time>2020-06-08T15:12:22Z</time>
      </trkpt>
      <trkpt lat="44.6335" lon="4.05128">
        <ele>1208</ele>
        <time>2020-06-08T15:12:35Z</time>
      </trkpt>
      <trkpt lat="44.63317" lon="4.05178">
        <ele>1199</ele>
        <time>2020-06-08T15:12:46Z</time>
      </trkpt>
      <trkpt lat="44.63306" lon="4.05188">
        <ele>1196</ele>
        <time>2020-06-08T15:12:49Z</time>
      </trkpt>
      <trkpt lat="44.63284" lon="4.05195">
        <ele>1194</ele>
        <time>2020-06-08T15:12:54Z</time>
      </trkpt>
      <trkpt lat="44.63238" lon="4.05194">
        <ele>1191</ele>
        <time>2020-06-08T15:13:05Z</time>
      </trkpt>
      <trkpt lat="44.63177" lon="4.05209">
        <ele>1180</ele>
        <time>2020-06-08T15:13:19Z</time>
      </trkpt>
      <trkpt lat="44.63151" lon="4.05221">
        <ele>1175</ele>
        <time>2020-06-08T15:13:26Z</time>
      </trkpt>
      <trkpt lat="44.63135" lon="4.05224">
        <ele>1172</ele>
        <time>2020-06-08T15:13:30Z</time>
      </trkpt>
      <trkpt lat="44.63108" lon="4.05215">
        <ele>1171</ele>
        <time>2020-06-08T15:13:36Z</time>
      </trkpt>
      <trkpt lat="44.63093" lon="4.05225">
        <ele>1167</ele>
        <time>2020-06-08T15:13:40Z</time>
      </trkpt>
      <trkpt lat="44.63054" lon="4.05289">
        <ele>1161</ele>
        <time>2020-06-08T15:13:54Z</time>
      </trkpt>
      <trkpt lat="44.63034" lon="4.053">
        <ele>1161</ele>
        <time>2020-06-08T15:13:59Z</time>
      </trkpt>
      <trkpt lat="44.62981" lon="4.05317">
        <ele>1162</ele>
        <time>2020-06-08T15:14:12Z</time>
      </trkpt>
      <trkpt lat="44.62969" lon="4.05325">
        <ele>1162</ele>
        <time>2020-06-08T15:14:15Z</time>
      </trkpt>
      <trkpt lat="44.6291" lon="4.05309">
        <ele>1161</ele>
        <time>2020-06-08T15:14:29Z</time>
      </trkpt>
      <trkpt lat="44.62889" lon="4.05298">
        <ele>1161</ele>
        <time>2020-06-08T15:14:34Z</time>
      </trkpt>
      <trkpt lat="44.62841" lon="4.0529">
        <ele>1162</ele>
        <time>2020-06-08T15:14:45Z</time>
      </trkpt>
      <trkpt lat="44.62792" lon="4.05292">
        <ele>1164</ele>
        <time>2020-06-08T15:14:57Z</time>
      </trkpt>
      <trkpt lat="44.62753" lon="4.05288">
        <ele>1165</ele>
        <time>2020-06-08T15:15:06Z</time>
      </trkpt>
      <trkpt lat="44.62717" lon="4.05276">
        <ele>1165</ele>
        <time>2020-06-08T15:15:15Z</time>
      </trkpt>
      <trkpt lat="44.62685" lon="4.05254">
        <ele>1163</ele>
        <time>2020-06-08T15:15:23Z</time>
      </trkpt>
      <trkpt lat="44.62633" lon="4.05223">
        <ele>1165</ele>
        <time>2020-06-08T15:15:36Z</time>
      </trkpt>
      <trkpt lat="44.62608" lon="4.05215">
        <ele>1167</ele>
        <time>2020-06-08T15:15:42Z</time>
      </trkpt>
      <trkpt lat="44.62576" lon="4.05223">
        <ele>1171</ele>
        <time>2020-06-08T15:15:50Z</time>
      </trkpt>
      <trkpt lat="44.62547" lon="4.0524">
        <ele>1173</ele>
        <time>2020-06-08T15:15:57Z</time>
      </trkpt>
      <trkpt lat="44.62508" lon="4.05281">
        <ele>1177</ele>
        <time>2020-06-08T15:16:08Z</time>
      </trkpt>
      <trkpt lat="44.6247" lon="4.05308">
        <ele>1181</ele>
        <time>2020-06-08T15:16:18Z</time>
      </trkpt>
      <trkpt lat="44.62447" lon="4.05314">
        <ele>1181</ele>
        <time>2020-06-08T15:16:24Z</time>
      </trkpt>
      <trkpt lat="44.6239" lon="4.05312">
        <ele>1180</ele>
        <time>2020-06-08T15:16:37Z</time>
      </trkpt>
      <trkpt lat="44.62366" lon="4.05319">
        <ele>1182</ele>
        <time>2020-06-08T15:16:43Z</time>
      </trkpt>
      <trkpt lat="44.62336" lon="4.05308">
        <ele>1181</ele>
        <time>2020-06-08T15:16:50Z</time>
      </trkpt>
      <trkpt lat="44.62319" lon="4.05308">
        <ele>1180</ele>
        <time>2020-06-08T15:16:54Z</time>
      </trkpt>
      <trkpt lat="44.62293" lon="4.05319">
        <ele>1182</ele>
        <time>2020-06-08T15:17:00Z</time>
      </trkpt>
      <trkpt lat="44.62244" lon="4.05315">
        <ele>1178</ele>
        <time>2020-06-08T15:17:12Z</time>
      </trkpt>
      <trkpt lat="44.62225" lon="4.05326">
        <ele>1175</ele>
        <time>2020-06-08T15:17:17Z</time>
      </trkpt>
      <trkpt lat="44.62217" lon="4.05344">
        <ele>1175</ele>
        <time>2020-06-08T15:17:20Z</time>
      </trkpt>
      <trkpt lat="44.62213" lon="4.05409">
        <ele>1180</ele>
        <time>2020-06-08T15:17:31Z</time>
      </trkpt>
      <trkpt lat="44.62198" lon="4.05461">
        <ele>1180</ele>
        <time>2020-06-08T15:17:40Z</time>
      </trkpt>
      <trkpt lat="44.62187" lon="4.05515">
        <ele>1181</ele>
        <time>2020-06-08T15:17:50Z</time>
      </trkpt>
      <trkpt lat="44.62145" lon="4.05589">
        <ele>1180</ele>
        <time>2020-06-08T15:18:05Z</time>
      </trkpt>
      <trkpt lat="44.62106" lon="4.0564">
        <ele>1177</ele>
        <time>2020-06-08T15:18:18Z</time>
      </trkpt>
      <trkpt lat="44.62085" lon="4.05696">
        <ele>1176</ele>
        <time>2020-06-08T15:18:28Z</time>
      </trkpt>
      <trkpt lat="44.62077" lon="4.05702">
        <ele>1178</ele>
        <time>2020-06-08T15:18:30Z</time>
      </trkpt>
      <trkpt lat="44.62061" lon="4.05696">
        <ele>1182</ele>
        <time>2020-06-08T15:18:34Z</time>
      </trkpt>
      <trkpt lat="44.62054" lon="4.05688">
        <ele>1183</ele>
        <time>2020-06-08T15:18:36Z</time>
      </trkpt>
      <trkpt lat="44.62074" lon="4.05694">
        <ele>1178</ele>
        <time>2020-06-08T15:18:41Z</time>
      </trkpt>
      <trkpt lat="44.62069" lon="4.05684">
        <ele>1178</ele>
        <time>2020-06-08T15:18:43Z</time>
      </trkpt>
      <trkpt lat="44.6207" lon="4.05646">
        <ele>1177</ele>
        <time>2020-06-08T15:18:50Z</time>
      </trkpt>
      <trkpt lat="44.62066" lon="4.05622">
        <ele>1180</ele>
        <time>2020-06-08T15:18:54Z</time>
      </trkpt>
      <trkpt lat="44.6207" lon="4.05579">
        <ele>1179</ele>
        <time>2020-06-08T15:19:01Z</time>
      </trkpt>
      <trkpt lat="44.62086" lon="4.05541">
        <ele>1175</ele>
        <time>2020-06-08T15:19:08Z</time>
      </trkpt>
      <trkpt lat="44.6209" lon="4.05508">
        <ele>1176</ele>
        <time>2020-06-08T15:19:14Z</time>
      </trkpt>
      <trkpt lat="44.62092" lon="4.05451">
        <ele>1179</ele>
        <time>2020-06-08T15:19:23Z</time>
      </trkpt>
      <trkpt lat="44.62099" lon="4.05426">
        <ele>1179</ele>
        <time>2020-06-08T15:19:28Z</time>
      </trkpt>
      <trkpt lat="44.62119" lon="4.05405">
        <ele>1176</ele>
        <time>2020-06-08T15:19:34Z</time>
      </trkpt>
      <trkpt lat="44.62125" lon="4.05384">
        <ele>1176</ele>
        <time>2020-06-08T15:19:37Z</time>
      </trkpt>
      <trkpt lat="44.62127" lon="4.05363">
        <ele>1176</ele>
        <time>2020-06-08T15:19:41Z</time>
      </trkpt>
      <trkpt lat="44.62128" lon="4.05332">
        <ele>1176</ele>
        <time>2020-06-08T15:19:46Z</time>
      </trkpt>
      <trkpt lat="44.62125" lon="4.05284">
        <ele>1175</ele>
        <time>2020-06-08T15:19:54Z</time>
      </trkpt>
      <trkpt lat="44.62117" lon="4.05235">
        <ele>1175</ele>
        <time>2020-06-08T15:20:02Z</time>
      </trkpt>
      <trkpt lat="44.6211" lon="4.05167">
        <ele>1175</ele>
        <time>2020-06-08T15:20:14Z</time>
      </trkpt>
      <trkpt lat="44.62112" lon="4.05112">
        <ele>1179</ele>
        <time>2020-06-08T15:20:23Z</time>
      </trkpt>
      <trkpt lat="44.62116" lon="4.05086">
        <ele>1179</ele>
        <time>2020-06-08T15:20:27Z</time>
      </trkpt>
      <trkpt lat="44.62142" lon="4.05031">
        <ele>1169</ele>
        <time>2020-06-08T15:20:38Z</time>
      </trkpt>
      <trkpt lat="44.62145" lon="4.05009">
        <ele>1168</ele>
        <time>2020-06-08T15:20:42Z</time>
      </trkpt>
      <trkpt lat="44.62143" lon="4.04971">
        <ele>1174</ele>
        <time>2020-06-08T15:20:48Z</time>
      </trkpt>
      <trkpt lat="44.62154" lon="4.04905">
        <ele>1175</ele>
        <time>2020-06-08T15:21:00Z</time>
      </trkpt>
      <trkpt lat="44.62165" lon="4.04856">
        <ele>1172</ele>
        <time>2020-06-08T15:21:08Z</time>
      </trkpt>
      <trkpt lat="44.62171" lon="4.04805">
        <ele>1168</ele>
        <time>2020-06-08T15:21:17Z</time>
      </trkpt>
      <trkpt lat="44.6217" lon="4.04784">
        <ele>1167</ele>
        <time>2020-06-08T15:21:20Z</time>
      </trkpt>
      <trkpt lat="44.62143" lon="4.04755">
        <ele>1180</ele>
        <time>2020-06-08T15:21:28Z</time>
      </trkpt>
      <trkpt lat="44.62129" lon="4.0473">
        <ele>1180</ele>
        <time>2020-06-08T15:21:33Z</time>
      </trkpt>
      <trkpt lat="44.62105" lon="4.04706">
        <ele>1183</ele>
        <time>2020-06-08T15:21:40Z</time>
      </trkpt>
      <trkpt lat="44.62087" lon="4.04692">
        <ele>1186</ele>
        <time>2020-06-08T15:21:45Z</time>
      </trkpt>
      <trkpt lat="44.62079" lon="4.04655">
        <ele>1175</ele>
        <time>2020-06-08T15:21:52Z</time>
      </trkpt>
      <trkpt lat="44.62064" lon="4.04613">
        <ele>1168</ele>
        <time>2020-06-08T15:21:59Z</time>
      </trkpt>
      <trkpt lat="44.62054" lon="4.04598">
        <ele>1167</ele>
        <time>2020-06-08T15:22:03Z</time>
      </trkpt>
      <trkpt lat="44.62043" lon="4.04589">
        <ele>1168</ele>
        <time>2020-06-08T15:22:06Z</time>
      </trkpt>
      <trkpt lat="44.62028" lon="4.04586">
        <ele>1173</ele>
        <time>2020-06-08T15:22:09Z</time>
      </trkpt>
      <trkpt lat="44.62013" lon="4.04592">
        <ele>1181</ele>
        <time>2020-06-08T15:22:13Z</time>
      </trkpt>
      <trkpt lat="44.62" lon="4.04602">
        <ele>1190</ele>
        <time>2020-06-08T15:22:16Z</time>
      </trkpt>
      <trkpt lat="44.61979" lon="4.0461">
        <ele>1200</ele>
        <time>2020-06-08T15:22:21Z</time>
      </trkpt>
      <trkpt lat="44.61966" lon="4.04605">
        <ele>1202</ele>
        <time>2020-06-08T15:22:25Z</time>
      </trkpt>
      <trkpt lat="44.61959" lon="4.04597">
        <ele>1202</ele>
        <time>2020-06-08T15:22:27Z</time>
      </trkpt>
      <trkpt lat="44.61956" lon="4.04577">
        <ele>1197</ele>
        <time>2020-06-08T15:22:30Z</time>
      </trkpt>
      <trkpt lat="44.61963" lon="4.04511">
        <ele>1178</ele>
        <time>2020-06-08T15:22:41Z</time>
      </trkpt>
      <trkpt lat="44.6196" lon="4.04489">
        <ele>1175</ele>
        <time>2020-06-08T15:22:45Z</time>
      </trkpt>
      <trkpt lat="44.61916" lon="4.04383">
        <ele>1175</ele>
        <time>2020-06-08T15:23:05Z</time>
      </trkpt>
      <trkpt lat="44.61898" lon="4.04357">
        <ele>1178</ele>
        <time>2020-06-08T15:23:11Z</time>
      </trkpt>
      <trkpt lat="44.61878" lon="4.04306">
        <ele>1171</ele>
        <time>2020-06-08T15:23:21Z</time>
      </trkpt>
      <trkpt lat="44.61864" lon="4.04285">
        <ele>1169</ele>
        <time>2020-06-08T15:23:26Z</time>
      </trkpt>
      <trkpt lat="44.61822" lon="4.04255">
        <ele>1170</ele>
        <time>2020-06-08T15:23:37Z</time>
      </trkpt>
      <trkpt lat="44.61773" lon="4.04244">
        <ele>1186</ele>
        <time>2020-06-08T15:23:48Z</time>
      </trkpt>
      <trkpt lat="44.61765" lon="4.04225">
        <ele>1186</ele>
        <time>2020-06-08T15:23:52Z</time>
      </trkpt>
      <trkpt lat="44.61765" lon="4.04201">
        <ele>1181</ele>
        <time>2020-06-08T15:23:56Z</time>
      </trkpt>
      <trkpt lat="44.61779" lon="4.04151">
        <ele>1164</ele>
        <time>2020-06-08T15:24:05Z</time>
      </trkpt>
      <trkpt lat="44.61779" lon="4.04109">
        <ele>1158</ele>
        <time>2020-06-08T15:24:12Z</time>
      </trkpt>
      <trkpt lat="44.61771" lon="4.04073">
        <ele>1156</ele>
        <time>2020-06-08T15:24:18Z</time>
      </trkpt>
      <trkpt lat="44.61751" lon="4.04047">
        <ele>1160</ele>
        <time>2020-06-08T15:24:25Z</time>
      </trkpt>
      <trkpt lat="44.61726" lon="4.04031">
        <ele>1166</ele>
        <time>2020-06-08T15:24:31Z</time>
      </trkpt>
      <trkpt lat="44.61652" lon="4.03991">
        <ele>1179</ele>
        <time>2020-06-08T15:24:50Z</time>
      </trkpt>
      <trkpt lat="44.61597" lon="4.03928">
        <ele>1171</ele>
        <time>2020-06-08T15:25:06Z</time>
      </trkpt>
      <trkpt lat="44.61573" lon="4.0391">
        <ele>1167</ele>
        <time>2020-06-08T15:25:13Z</time>
      </trkpt>
      <trkpt lat="44.61555" lon="4.03904">
        <ele>1164</ele>
        <time>2020-06-08T15:25:17Z</time>
      </trkpt>
      <trkpt lat="44.61543" lon="4.03905">
        <ele>1164</ele>
        <time>2020-06-08T15:25:20Z</time>
      </trkpt>
      <trkpt lat="44.61532" lon="4.03911">
        <ele>1165</ele>
        <time>2020-06-08T15:25:22Z</time>
      </trkpt>
      <trkpt lat="44.6151" lon="4.03944">
        <ele>1173</ele>
        <time>2020-06-08T15:25:30Z</time>
      </trkpt>
      <trkpt lat="44.61496" lon="4.03978">
        <ele>1181</ele>
        <time>2020-06-08T15:25:36Z</time>
      </trkpt>
      <trkpt lat="44.61475" lon="4.04056">
        <ele>1199</ele>
        <time>2020-06-08T15:25:50Z</time>
      </trkpt>
      <trkpt lat="44.61465" lon="4.04068">
        <ele>1200</ele>
        <time>2020-06-08T15:25:53Z</time>
      </trkpt>
      <trkpt lat="44.61445" lon="4.04077">
        <ele>1199</ele>
        <time>2020-06-08T15:25:58Z</time>
      </trkpt>
      <trkpt lat="44.61431" lon="4.04064">
        <ele>1195</ele>
        <time>2020-06-08T15:26:02Z</time>
      </trkpt>
      <trkpt lat="44.61426" lon="4.0401">
        <ele>1187</ele>
        <time>2020-06-08T15:26:11Z</time>
      </trkpt>
      <trkpt lat="44.61419" lon="4.0398">
        <ele>1184</ele>
        <time>2020-06-08T15:26:16Z</time>
      </trkpt>
      <trkpt lat="44.61415" lon="4.0393">
        <ele>1179</ele>
        <time>2020-06-08T15:26:25Z</time>
      </trkpt>
      <trkpt lat="44.61397" lon="4.03789">
        <ele>1174</ele>
        <time>2020-06-08T15:26:49Z</time>
      </trkpt>
      <trkpt lat="44.61397" lon="4.03777">
        <ele>1173</ele>
        <time>2020-06-08T15:26:51Z</time>
      </trkpt>
      <trkpt lat="44.61402" lon="4.0376">
        <ele>1169</ele>
        <time>2020-06-08T15:26:54Z</time>
      </trkpt>
      <trkpt lat="44.61402" lon="4.03723">
        <ele>1170</ele>
        <time>2020-06-08T15:27:00Z</time>
      </trkpt>
      <trkpt lat="44.61392" lon="4.03701">
        <ele>1175</ele>
        <time>2020-06-08T15:27:04Z</time>
      </trkpt>
      <trkpt lat="44.61377" lon="4.03676">
        <ele>1183</ele>
        <time>2020-06-08T15:27:10Z</time>
      </trkpt>
      <trkpt lat="44.61377" lon="4.03662">
        <ele>1184</ele>
        <time>2020-06-08T15:27:12Z</time>
      </trkpt>
      <trkpt lat="44.61385" lon="4.03646">
        <ele>1185</ele>
        <time>2020-06-08T15:27:15Z</time>
      </trkpt>
      <trkpt lat="44.614" lon="4.03634">
        <ele>1182</ele>
        <time>2020-06-08T15:27:19Z</time>
      </trkpt>
      <trkpt lat="44.61413" lon="4.03609">
        <ele>1186</ele>
        <time>2020-06-08T15:27:24Z</time>
      </trkpt>
      <trkpt lat="44.61434" lon="4.03586">
        <ele>1186</ele>
        <time>2020-06-08T15:27:31Z</time>
      </trkpt>
      <trkpt lat="44.61446" lon="4.03576">
        <ele>1185</ele>
        <time>2020-06-08T15:27:34Z</time>
      </trkpt>
      <trkpt lat="44.61468" lon="4.03566">
        <ele>1181</ele>
        <time>2020-06-08T15:27:39Z</time>
      </trkpt>
      <trkpt lat="44.61498" lon="4.03541">
        <ele>1180</ele>
        <time>2020-06-08T15:27:47Z</time>
      </trkpt>
      <trkpt lat="44.61529" lon="4.0353">
        <ele>1170</ele>
        <time>2020-06-08T15:27:55Z</time>
      </trkpt>
      <trkpt lat="44.61536" lon="4.03516">
        <ele>1170</ele>
        <time>2020-06-08T15:27:58Z</time>
      </trkpt>
      <trkpt lat="44.6153" lon="4.03473">
        <ele>1176</ele>
        <time>2020-06-08T15:28:05Z</time>
      </trkpt>
      <trkpt lat="44.61511" lon="4.03408">
        <ele>1188</ele>
        <time>2020-06-08T15:28:17Z</time>
      </trkpt>
      <trkpt lat="44.61504" lon="4.03376">
        <ele>1190</ele>
        <time>2020-06-08T15:28:22Z</time>
      </trkpt>
      <trkpt lat="44.61508" lon="4.03326">
        <ele>1183</ele>
        <time>2020-06-08T15:28:31Z</time>
      </trkpt>
      <trkpt lat="44.61503" lon="4.033">
        <ele>1187</ele>
        <time>2020-06-08T15:28:35Z</time>
      </trkpt>
      <trkpt lat="44.61496" lon="4.03282">
        <ele>1192</ele>
        <time>2020-06-08T15:28:39Z</time>
      </trkpt>
      <trkpt lat="44.61495" lon="4.03266">
        <ele>1193</ele>
        <time>2020-06-08T15:28:41Z</time>
      </trkpt>
      <trkpt lat="44.615" lon="4.03239">
        <ele>1191</ele>
        <time>2020-06-08T15:28:46Z</time>
      </trkpt>
      <trkpt lat="44.61495" lon="4.03216">
        <ele>1196</ele>
        <time>2020-06-08T15:28:50Z</time>
      </trkpt>
      <trkpt lat="44.61494" lon="4.03197">
        <ele>1199</ele>
        <time>2020-06-08T15:28:53Z</time>
      </trkpt>
      <trkpt lat="44.61505" lon="4.03169">
        <ele>1196</ele>
        <time>2020-06-08T15:28:58Z</time>
      </trkpt>
      <trkpt lat="44.61513" lon="4.03158">
        <ele>1193</ele>
        <time>2020-06-08T15:29:01Z</time>
      </trkpt>
      <trkpt lat="44.61514" lon="4.03132">
        <ele>1195</ele>
        <time>2020-06-08T15:29:05Z</time>
      </trkpt>
      <trkpt lat="44.61504" lon="4.03084">
        <ele>1206</ele>
        <time>2020-06-08T15:29:14Z</time>
      </trkpt>
      <trkpt lat="44.61507" lon="4.03054">
        <ele>1207</ele>
        <time>2020-06-08T15:29:19Z</time>
      </trkpt>
      <trkpt lat="44.61521" lon="4.02988">
        <ele>1208</ele>
        <time>2020-06-08T15:29:30Z</time>
      </trkpt>
      <trkpt lat="44.61539" lon="4.02939">
        <ele>1205</ele>
        <time>2020-06-08T15:29:39Z</time>
      </trkpt>
      <trkpt lat="44.61535" lon="4.02914">
        <ele>1209</ele>
        <time>2020-06-08T15:29:43Z</time>
      </trkpt>
      <trkpt lat="44.61525" lon="4.02916">
        <ele>1213</ele>
        <time>2020-06-08T15:29:46Z</time>
      </trkpt>
      <trkpt lat="44.6148" lon="4.0298">
        <ele>1223</ele>
        <time>2020-06-08T15:30:01Z</time>
      </trkpt>
      <trkpt lat="44.6145" lon="4.03047">
        <ele>1229</ele>
        <time>2020-06-08T15:30:14Z</time>
      </trkpt>
      <trkpt lat="44.61436" lon="4.03098">
        <ele>1232</ele>
        <time>2020-06-08T15:30:23Z</time>
      </trkpt>
      <trkpt lat="44.61403" lon="4.03193">
        <ele>1246</ele>
        <time>2020-06-08T15:30:41Z</time>
      </trkpt>
      <trkpt lat="44.61401" lon="4.03212">
        <ele>1246</ele>
        <time>2020-06-08T15:30:44Z</time>
      </trkpt>
      <trkpt lat="44.61405" lon="4.03233">
        <ele>1244</ele>
        <time>2020-06-08T15:30:47Z</time>
      </trkpt>
      <trkpt lat="44.61406" lon="4.03332">
        <ele>1249</ele>
        <time>2020-06-08T15:31:04Z</time>
      </trkpt>
      <trkpt lat="44.61416" lon="4.03397">
        <ele>1246</ele>
        <time>2020-06-08T15:31:15Z</time>
      </trkpt>
      <trkpt lat="44.61413" lon="4.0341">
        <ele>1247</ele>
        <time>2020-06-08T15:31:17Z</time>
      </trkpt>
      <trkpt lat="44.61405" lon="4.03422">
        <ele>1248</ele>
        <time>2020-06-08T15:31:20Z</time>
      </trkpt>
      <trkpt lat="44.61384" lon="4.03434">
        <ele>1252</ele>
        <time>2020-06-08T15:31:25Z</time>
      </trkpt>
      <trkpt lat="44.61345" lon="4.03426">
        <ele>1265</ele>
        <time>2020-06-08T15:31:34Z</time>
      </trkpt>
      <trkpt lat="44.61327" lon="4.03427">
        <ele>1270</ele>
        <time>2020-06-08T15:31:39Z</time>
      </trkpt>
      <trkpt lat="44.61296" lon="4.03439">
        <ele>1273</ele>
        <time>2020-06-08T15:31:46Z</time>
      </trkpt>
      <trkpt lat="44.61236" lon="4.0344">
        <ele>1285</ele>
        <time>2020-06-08T15:32:00Z</time>
      </trkpt>
      <trkpt lat="44.61165" lon="4.03462">
        <ele>1292</ele>
        <time>2020-06-08T15:32:17Z</time>
      </trkpt>
      <trkpt lat="44.61155" lon="4.03488">
        <ele>1289</ele>
        <time>2020-06-08T15:32:22Z</time>
      </trkpt>
      <trkpt lat="44.61151" lon="4.03511">
        <ele>1287</ele>
        <time>2020-06-08T15:32:26Z</time>
      </trkpt>
      <trkpt lat="44.61148" lon="4.03558">
        <ele>1283</ele>
        <time>2020-06-08T15:32:34Z</time>
      </trkpt>
      <trkpt lat="44.61141" lon="4.03562">
        <ele>1285</ele>
        <time>2020-06-08T15:32:36Z</time>
      </trkpt>
      <trkpt lat="44.61136" lon="4.03536">
        <ele>1289</ele>
        <time>2020-06-08T15:32:40Z</time>
      </trkpt>
      <trkpt lat="44.61135" lon="4.03509">
        <ele>1293</ele>
        <time>2020-06-08T15:32:45Z</time>
      </trkpt>
      <trkpt lat="44.61137" lon="4.03489">
        <ele>1295</ele>
        <time>2020-06-08T15:32:48Z</time>
      </trkpt>
      <trkpt lat="44.6115" lon="4.03453">
        <ele>1298</ele>
        <time>2020-06-08T15:32:55Z</time>
      </trkpt>
      <trkpt lat="44.61152" lon="4.03439">
        <ele>1301</ele>
        <time>2020-06-08T15:32:57Z</time>
      </trkpt>
      <trkpt lat="44.61158" lon="4.03427">
        <ele>1302</ele>
        <time>2020-06-08T15:32:59Z</time>
      </trkpt>
      <trkpt lat="44.61172" lon="4.03412">
        <ele>1302</ele>
        <time>2020-06-08T15:33:04Z</time>
      </trkpt>
      <trkpt lat="44.61239" lon="4.0337">
        <ele>1302</ele>
        <time>2020-06-08T15:33:21Z</time>
      </trkpt>
      <trkpt lat="44.61281" lon="4.03356">
        <ele>1296</ele>
        <time>2020-06-08T15:33:31Z</time>
      </trkpt>
      <trkpt lat="44.61295" lon="4.03348">
        <ele>1294</ele>
        <time>2020-06-08T15:33:34Z</time>
      </trkpt>
      <trkpt lat="44.61305" lon="4.03329">
        <ele>1294</ele>
        <time>2020-06-08T15:33:38Z</time>
      </trkpt>
      <trkpt lat="44.6131" lon="4.03302">
        <ele>1292</ele>
        <time>2020-06-08T15:33:43Z</time>
      </trkpt>
      <trkpt lat="44.61308" lon="4.03245">
        <ele>1290</ele>
        <time>2020-06-08T15:33:52Z</time>
      </trkpt>
      <trkpt lat="44.61314" lon="4.03162">
        <ele>1285</ele>
        <time>2020-06-08T15:34:06Z</time>
      </trkpt>
      <trkpt lat="44.61313" lon="4.03134">
        <ele>1283</ele>
        <time>2020-06-08T15:34:11Z</time>
      </trkpt>
      <trkpt lat="44.61276" lon="4.03039">
        <ele>1281</ele>
        <time>2020-06-08T15:34:29Z</time>
      </trkpt>
      <trkpt lat="44.61269" lon="4.03032">
        <ele>1281</ele>
        <time>2020-06-08T15:34:31Z</time>
      </trkpt>
      <trkpt lat="44.61256" lon="4.03009">
        <ele>1281</ele>
        <time>2020-06-08T15:34:36Z</time>
      </trkpt>
      <trkpt lat="44.61203" lon="4.02961">
        <ele>1285</ele>
        <time>2020-06-08T15:34:51Z</time>
      </trkpt>
      <trkpt lat="44.61177" lon="4.02921">
        <ele>1283</ele>
        <time>2020-06-08T15:35:00Z</time>
      </trkpt>
      <trkpt lat="44.61161" lon="4.02911">
        <ele>1285</ele>
        <time>2020-06-08T15:35:04Z</time>
      </trkpt>
      <trkpt lat="44.61109" lon="4.02902">
        <ele>1290</ele>
        <time>2020-06-08T15:35:16Z</time>
      </trkpt>
      <trkpt lat="44.61056" lon="4.02906">
        <ele>1288</ele>
        <time>2020-06-08T15:35:28Z</time>
      </trkpt>
      <trkpt lat="44.61051" lon="4.02914">
        <ele>1288</ele>
        <time>2020-06-08T15:35:30Z</time>
      </trkpt>
      <trkpt lat="44.61056" lon="4.02923">
        <ele>1291</ele>
        <time>2020-06-08T15:35:32Z</time>
      </trkpt>
      <trkpt lat="44.61083" lon="4.02925">
        <ele>1298</ele>
        <time>2020-06-08T15:35:38Z</time>
      </trkpt>
      <trkpt lat="44.61108" lon="4.02948">
        <ele>1299</ele>
        <time>2020-06-08T15:35:45Z</time>
      </trkpt>
      <trkpt lat="44.61129" lon="4.02982">
        <ele>1302</ele>
        <time>2020-06-08T15:35:53Z</time>
      </trkpt>
      <trkpt lat="44.61156" lon="4.03051">
        <ele>1311</ele>
        <time>2020-06-08T15:36:06Z</time>
      </trkpt>
      <trkpt lat="44.61185" lon="4.03111">
        <ele>1315</ele>
        <time>2020-06-08T15:36:18Z</time>
      </trkpt>
      <trkpt lat="44.61196" lon="4.03153">
        <ele>1317</ele>
        <time>2020-06-08T15:36:25Z</time>
      </trkpt>
      <trkpt lat="44.61202" lon="4.03195">
        <ele>1319</ele>
        <time>2020-06-08T15:36:32Z</time>
      </trkpt>
      <trkpt lat="44.61196" lon="4.0324">
        <ele>1321</ele>
        <time>2020-06-08T15:36:40Z</time>
      </trkpt>
      <trkpt lat="44.61187" lon="4.03254">
        <ele>1323</ele>
        <time>2020-06-08T15:36:43Z</time>
      </trkpt>
      <trkpt lat="44.61174" lon="4.03265">
        <ele>1325</ele>
        <time>2020-06-08T15:36:47Z</time>
      </trkpt>
      <trkpt lat="44.61111" lon="4.03285">
        <ele>1329</ele>
        <time>2020-06-08T15:37:02Z</time>
      </trkpt>
      <trkpt lat="44.61067" lon="4.03289">
        <ele>1329</ele>
        <time>2020-06-08T15:37:12Z</time>
      </trkpt>
      <trkpt lat="44.61038" lon="4.03298">
        <ele>1325</ele>
        <time>2020-06-08T15:37:19Z</time>
      </trkpt>
      <trkpt lat="44.61016" lon="4.03308">
        <ele>1323</ele>
        <time>2020-06-08T15:37:24Z</time>
      </trkpt>
      <trkpt lat="44.60998" lon="4.03318">
        <ele>1323</ele>
        <time>2020-06-08T15:37:29Z</time>
      </trkpt>
      <trkpt lat="44.60979" lon="4.0334">
        <ele>1325</ele>
        <time>2020-06-08T15:37:35Z</time>
      </trkpt>
      <trkpt lat="44.60941" lon="4.0337">
        <ele>1325</ele>
        <time>2020-06-08T15:37:45Z</time>
      </trkpt>
      <trkpt lat="44.60886" lon="4.03406">
        <ele>1323</ele>
        <time>2020-06-08T15:37:59Z</time>
      </trkpt>
      <trkpt lat="44.60871" lon="4.03435">
        <ele>1327</ele>
        <time>2020-06-08T15:38:05Z</time>
      </trkpt>
      <trkpt lat="44.60865" lon="4.03458">
        <ele>1331</ele>
        <time>2020-06-08T15:38:09Z</time>
      </trkpt>
      <trkpt lat="44.60815" lon="4.03579">
        <ele>1344</ele>
        <time>2020-06-08T15:38:32Z</time>
      </trkpt>
      <trkpt lat="44.60779" lon="4.03683">
        <ele>1348</ele>
        <time>2020-06-08T15:38:52Z</time>
      </trkpt>
      <trkpt lat="44.60774" lon="4.03712">
        <ele>1350</ele>
        <time>2020-06-08T15:38:56Z</time>
      </trkpt>
      <trkpt lat="44.60774" lon="4.03734">
        <ele>1351</ele>
        <time>2020-06-08T15:39:00Z</time>
      </trkpt>
      <trkpt lat="44.60785" lon="4.03794">
        <ele>1356</ele>
        <time>2020-06-08T15:39:10Z</time>
      </trkpt>
      <trkpt lat="44.6079" lon="4.04121">
        <ele>1367</ele>
        <time>2020-06-08T15:40:05Z</time>
      </trkpt>
      <trkpt lat="44.60795" lon="4.04141">
        <ele>1368</ele>
        <time>2020-06-08T15:40:08Z</time>
      </trkpt>
      <trkpt lat="44.60837" lon="4.04256">
        <ele>1374</ele>
        <time>2020-06-08T15:40:30Z</time>
      </trkpt>
      <trkpt lat="44.60855" lon="4.04284">
        <ele>1374</ele>
        <time>2020-06-08T15:40:36Z</time>
      </trkpt>
      <trkpt lat="44.60878" lon="4.04299">
        <ele>1375</ele>
        <time>2020-06-08T15:40:42Z</time>
      </trkpt>
      <trkpt lat="44.60918" lon="4.04352">
        <ele>1381</ele>
        <time>2020-06-08T15:40:55Z</time>
      </trkpt>
      <trkpt lat="44.60921" lon="4.04363">
        <ele>1382</ele>
        <time>2020-06-08T15:40:57Z</time>
      </trkpt>
      <trkpt lat="44.60895" lon="4.04429">
        <ele>1384</ele>
        <time>2020-06-08T15:41:09Z</time>
      </trkpt>
      <trkpt lat="44.60893" lon="4.04445">
        <ele>1386</ele>
        <time>2020-06-08T15:41:12Z</time>
      </trkpt>
      <trkpt lat="44.60896" lon="4.04472">
        <ele>1389</ele>
        <time>2020-06-08T15:41:17Z</time>
      </trkpt>
      <trkpt lat="44.60894" lon="4.04483">
        <ele>1390</ele>
        <time>2020-06-08T15:41:19Z</time>
      </trkpt>
      <trkpt lat="44.60849" lon="4.0455">
        <ele>1393</ele>
        <time>2020-06-08T15:41:34Z</time>
      </trkpt>
      <trkpt lat="44.60817" lon="4.04636">
        <ele>1400</ele>
        <time>2020-06-08T15:41:50Z</time>
      </trkpt>
      <trkpt lat="44.60798" lon="4.047">
        <ele>1403</ele>
        <time>2020-06-08T15:42:01Z</time>
      </trkpt>
      <trkpt lat="44.60797" lon="4.04718">
        <ele>1404</ele>
        <time>2020-06-08T15:42:04Z</time>
      </trkpt>
      <trkpt lat="44.60805" lon="4.04779">
        <ele>1408</ele>
        <time>2020-06-08T15:42:15Z</time>
      </trkpt>
      <trkpt lat="44.60807" lon="4.04823">
        <ele>1410</ele>
        <time>2020-06-08T15:42:22Z</time>
      </trkpt>
      <trkpt lat="44.60804" lon="4.04835">
        <ele>1410</ele>
        <time>2020-06-08T15:42:24Z</time>
      </trkpt>
      <trkpt lat="44.60789" lon="4.04863">
        <ele>1409</ele>
        <time>2020-06-08T15:42:30Z</time>
      </trkpt>
      <trkpt lat="44.60775" lon="4.04904">
        <ele>1411</ele>
        <time>2020-06-08T15:42:38Z</time>
      </trkpt>
      <trkpt lat="44.6076" lon="4.05026">
        <ele>1412</ele>
        <time>2020-06-08T15:42:58Z</time>
      </trkpt>
      <trkpt lat="44.60763" lon="4.05074">
        <ele>1413</ele>
        <time>2020-06-08T15:43:06Z</time>
      </trkpt>
      <trkpt lat="44.60767" lon="4.05098">
        <ele>1413</ele>
        <time>2020-06-08T15:43:10Z</time>
      </trkpt>
      <trkpt lat="44.60781" lon="4.05145">
        <ele>1412</ele>
        <time>2020-06-08T15:43:19Z</time>
      </trkpt>
      <trkpt lat="44.608" lon="4.05242">
        <ele>1413</ele>
        <time>2020-06-08T15:43:36Z</time>
      </trkpt>
      <trkpt lat="44.60821" lon="4.05317">
        <ele>1413</ele>
        <time>2020-06-08T15:43:49Z</time>
      </trkpt>
      <trkpt lat="44.60822" lon="4.05335">
        <ele>1413</ele>
        <time>2020-06-08T15:43:52Z</time>
      </trkpt>
      <trkpt lat="44.60842" lon="4.05385">
        <ele>1409</ele>
        <time>2020-06-08T15:44:01Z</time>
      </trkpt>
      <trkpt lat="44.60848" lon="4.05414">
        <ele>1407</ele>
        <time>2020-06-08T15:44:06Z</time>
      </trkpt>
      <trkpt lat="44.60875" lon="4.05493">
        <ele>1396</ele>
        <time>2020-06-08T15:44:21Z</time>
      </trkpt>
      <trkpt lat="44.60887" lon="4.05499">
        <ele>1396</ele>
        <time>2020-06-08T15:44:24Z</time>
      </trkpt>
      <trkpt lat="44.60915" lon="4.055">
        <ele>1396</ele>
        <time>2020-06-08T15:44:31Z</time>
      </trkpt>
      <trkpt lat="44.60928" lon="4.05498">
        <ele>1395</ele>
        <time>2020-06-08T15:44:34Z</time>
      </trkpt>
      <trkpt lat="44.6094" lon="4.05501">
        <ele>1395</ele>
        <time>2020-06-08T15:44:36Z</time>
      </trkpt>
      <trkpt lat="44.60951" lon="4.05508">
        <ele>1393</ele>
        <time>2020-06-08T15:44:39Z</time>
      </trkpt>
      <trkpt lat="44.60965" lon="4.05529">
        <ele>1391</ele>
        <time>2020-06-08T15:44:44Z</time>
      </trkpt>
      <trkpt lat="44.60981" lon="4.05599">
        <ele>1387</ele>
        <time>2020-06-08T15:44:56Z</time>
      </trkpt>
      <trkpt lat="44.6098" lon="4.05644">
        <ele>1383</ele>
        <time>2020-06-08T15:45:04Z</time>
      </trkpt>
      <trkpt lat="44.60967" lon="4.05697">
        <ele>1378</ele>
        <time>2020-06-08T15:45:13Z</time>
      </trkpt>
      <trkpt lat="44.60951" lon="4.0572">
        <ele>1376</ele>
        <time>2020-06-08T15:45:18Z</time>
      </trkpt>
      <trkpt lat="44.60907" lon="4.05761">
        <ele>1372</ele>
        <time>2020-06-08T15:45:31Z</time>
      </trkpt>
      <trkpt lat="44.60883" lon="4.05791">
        <ele>1369</ele>
        <time>2020-06-08T15:45:38Z</time>
      </trkpt>
      <trkpt lat="44.60881" lon="4.05808">
        <ele>1369</ele>
        <time>2020-06-08T15:45:41Z</time>
      </trkpt>
      <trkpt lat="44.60863" lon="4.05834">
        <ele>1368</ele>
        <time>2020-06-08T15:45:47Z</time>
      </trkpt>
      <trkpt lat="44.60833" lon="4.05869">
        <ele>1368</ele>
        <time>2020-06-08T15:45:56Z</time>
      </trkpt>
      <trkpt lat="44.60811" lon="4.059">
        <ele>1364</ele>
        <time>2020-06-08T15:46:04Z</time>
      </trkpt>
      <trkpt lat="44.60753" lon="4.05972">
        <ele>1362</ele>
        <time>2020-06-08T15:46:22Z</time>
      </trkpt>
      <trkpt lat="44.60715" lon="4.06005">
        <ele>1357</ele>
        <time>2020-06-08T15:46:32Z</time>
      </trkpt>
      <trkpt lat="44.60634" lon="4.06093">
        <ele>1355</ele>
        <time>2020-06-08T15:46:56Z</time>
      </trkpt>
      <trkpt lat="44.60581" lon="4.0614">
        <ele>1352</ele>
        <time>2020-06-08T15:47:11Z</time>
      </trkpt>
      <trkpt lat="44.60559" lon="4.06153">
        <ele>1350</ele>
        <time>2020-06-08T15:47:16Z</time>
      </trkpt>
      <trkpt lat="44.60509" lon="4.06194">
        <ele>1346</ele>
        <time>2020-06-08T15:47:30Z</time>
      </trkpt>
      <trkpt lat="44.60449" lon="4.06221">
        <ele>1338</ele>
        <time>2020-06-08T15:47:44Z</time>
      </trkpt>
      <trkpt lat="44.6044" lon="4.06227">
        <ele>1336</ele>
        <time>2020-06-08T15:47:47Z</time>
      </trkpt>
      <trkpt lat="44.60435" lon="4.0624">
        <ele>1336</ele>
        <time>2020-06-08T15:47:49Z</time>
      </trkpt>
      <trkpt lat="44.60433" lon="4.06255">
        <ele>1336</ele>
        <time>2020-06-08T15:47:52Z</time>
      </trkpt>
      <trkpt lat="44.60433" lon="4.06298">
        <ele>1335</ele>
        <time>2020-06-08T15:47:59Z</time>
      </trkpt>
      <trkpt lat="44.60441" lon="4.06433">
        <ele>1330</ele>
        <time>2020-06-08T15:48:21Z</time>
      </trkpt>
      <trkpt lat="44.60445" lon="4.06454">
        <ele>1331</ele>
        <time>2020-06-08T15:48:25Z</time>
      </trkpt>
      <trkpt lat="44.6044" lon="4.06505">
        <ele>1324</ele>
        <time>2020-06-08T15:48:34Z</time>
      </trkpt>
      <trkpt lat="44.60441" lon="4.06526">
        <ele>1322</ele>
        <time>2020-06-08T15:48:37Z</time>
      </trkpt>
      <trkpt lat="44.60447" lon="4.0656">
        <ele>1323</ele>
        <time>2020-06-08T15:48:43Z</time>
      </trkpt>
      <trkpt lat="44.6044" lon="4.06554">
        <ele>1319</ele>
        <time>2020-06-08T15:48:45Z</time>
      </trkpt>
      <trkpt lat="44.60429" lon="4.06519">
        <ele>1316</ele>
        <time>2020-06-08T15:48:51Z</time>
      </trkpt>
      <trkpt lat="44.60417" lon="4.0644">
        <ele>1318</ele>
        <time>2020-06-08T15:49:05Z</time>
      </trkpt>
      <trkpt lat="44.60407" lon="4.06406">
        <ele>1315</ele>
        <time>2020-06-08T15:49:11Z</time>
      </trkpt>
      <trkpt lat="44.60387" lon="4.06358">
        <ele>1309</ele>
        <time>2020-06-08T15:49:20Z</time>
      </trkpt>
      <trkpt lat="44.60351" lon="4.06291">
        <ele>1299</ele>
        <time>2020-06-08T15:49:34Z</time>
      </trkpt>
      <trkpt lat="44.60346" lon="4.06273">
        <ele>1299</ele>
        <time>2020-06-08T15:49:37Z</time>
      </trkpt>
      <trkpt lat="44.60332" lon="4.06167">
        <ele>1295</ele>
        <time>2020-06-08T15:49:55Z</time>
      </trkpt>
      <trkpt lat="44.60332" lon="4.06143">
        <ele>1292</ele>
        <time>2020-06-08T15:49:59Z</time>
      </trkpt>
      <trkpt lat="44.60336" lon="4.06123">
        <ele>1290</ele>
        <time>2020-06-08T15:50:03Z</time>
      </trkpt>
      <trkpt lat="44.60346" lon="4.06102">
        <ele>1290</ele>
        <time>2020-06-08T15:50:07Z</time>
      </trkpt>
      <trkpt lat="44.60362" lon="4.06084">
        <ele>1290</ele>
        <time>2020-06-08T15:50:12Z</time>
      </trkpt>
      <trkpt lat="44.60399" lon="4.06055">
        <ele>1292</ele>
        <time>2020-06-08T15:50:21Z</time>
      </trkpt>
      <trkpt lat="44.60456" lon="4.05999">
        <ele>1289</ele>
        <time>2020-06-08T15:50:38Z</time>
      </trkpt>
      <trkpt lat="44.6047" lon="4.05977">
        <ele>1287</ele>
        <time>2020-06-08T15:50:43Z</time>
      </trkpt>
      <trkpt lat="44.60524" lon="4.05873">
        <ele>1279</ele>
        <time>2020-06-08T15:51:04Z</time>
      </trkpt>
      <trkpt lat="44.60565" lon="4.05818">
        <ele>1281</ele>
        <time>2020-06-08T15:51:17Z</time>
      </trkpt>
      <trkpt lat="44.6057" lon="4.05801">
        <ele>1283</ele>
        <time>2020-06-08T15:51:20Z</time>
      </trkpt>
      <trkpt lat="44.6057" lon="4.05788">
        <ele>1283</ele>
        <time>2020-06-08T15:51:22Z</time>
      </trkpt>
      <trkpt lat="44.60564" lon="4.0577">
        <ele>1281</ele>
        <time>2020-06-08T15:51:26Z</time>
      </trkpt>
      <trkpt lat="44.60535" lon="4.05739">
        <ele>1275</ele>
        <time>2020-06-08T15:51:34Z</time>
      </trkpt>
      <trkpt lat="44.6052" lon="4.05731">
        <ele>1272</ele>
        <time>2020-06-08T15:51:38Z</time>
      </trkpt>
      <trkpt lat="44.60463" lon="4.05718">
        <ele>1262</ele>
        <time>2020-06-08T15:51:51Z</time>
      </trkpt>
      <trkpt lat="44.60349" lon="4.05662">
        <ele>1253</ele>
        <time>2020-06-08T15:52:20Z</time>
      </trkpt>
      <trkpt lat="44.60331" lon="4.05647">
        <ele>1250</ele>
        <time>2020-06-08T15:52:25Z</time>
      </trkpt>
      <trkpt lat="44.6032" lon="4.05629">
        <ele>1249</ele>
        <time>2020-06-08T15:52:28Z</time>
      </trkpt>
      <trkpt lat="44.60313" lon="4.05611">
        <ele>1249</ele>
        <time>2020-06-08T15:52:32Z</time>
      </trkpt>
      <trkpt lat="44.60284" lon="4.05474">
        <ele>1247</ele>
        <time>2020-06-08T15:52:56Z</time>
      </trkpt>
      <trkpt lat="44.60275" lon="4.05419">
        <ele>1244</ele>
        <time>2020-06-08T15:53:05Z</time>
      </trkpt>
      <trkpt lat="44.60272" lon="4.05373">
        <ele>1242</ele>
        <time>2020-06-08T15:53:13Z</time>
      </trkpt>
      <trkpt lat="44.60272" lon="4.05319">
        <ele>1242</ele>
        <time>2020-06-08T15:53:22Z</time>
      </trkpt>
      <trkpt lat="44.60261" lon="4.053">
        <ele>1240</ele>
        <time>2020-06-08T15:53:26Z</time>
      </trkpt>
      <trkpt lat="44.60216" lon="4.05278">
        <ele>1233</ele>
        <time>2020-06-08T15:53:37Z</time>
      </trkpt>
      <trkpt lat="44.60189" lon="4.05257">
        <ele>1230</ele>
        <time>2020-06-08T15:53:44Z</time>
      </trkpt>
      <trkpt lat="44.60175" lon="4.05239">
        <ele>1229</ele>
        <time>2020-06-08T15:53:49Z</time>
      </trkpt>
      <trkpt lat="44.60102" lon="4.05107">
        <ele>1222</ele>
        <time>2020-06-08T15:54:16Z</time>
      </trkpt>
      <trkpt lat="44.60092" lon="4.05108">
        <ele>1220</ele>
        <time>2020-06-08T15:54:19Z</time>
      </trkpt>
      <trkpt lat="44.60086" lon="4.05101">
        <ele>1220</ele>
        <time>2020-06-08T15:54:21Z</time>
      </trkpt>
      <trkpt lat="44.60077" lon="4.05081">
        <ele>1219</ele>
        <time>2020-06-08T15:54:24Z</time>
      </trkpt>
      <trkpt lat="44.60072" lon="4.05041">
        <ele>1218</ele>
        <time>2020-06-08T15:54:31Z</time>
      </trkpt>
      <trkpt lat="44.60066" lon="4.05029">
        <ele>1216</ele>
        <time>2020-06-08T15:54:34Z</time>
      </trkpt>
      <trkpt lat="44.60062" lon="4.05031">
        <ele>1216</ele>
        <time>2020-06-08T15:54:35Z</time>
      </trkpt>
      <trkpt lat="44.60043" lon="4.05062">
        <ele>1215</ele>
        <time>2020-06-08T15:54:41Z</time>
      </trkpt>
      <trkpt lat="44.60025" lon="4.05055">
        <ele>1213</ele>
        <time>2020-06-08T15:54:46Z</time>
      </trkpt>
      <trkpt lat="44.60018" lon="4.05042">
        <ele>1211</ele>
        <time>2020-06-08T15:54:49Z</time>
      </trkpt>
      <trkpt lat="44.60018" lon="4.05033">
        <ele>1210</ele>
        <time>2020-06-08T15:54:50Z</time>
      </trkpt>
      <trkpt lat="44.60023" lon="4.05025">
        <ele>1210</ele>
        <time>2020-06-08T15:54:52Z</time>
      </trkpt>
      <trkpt lat="44.60034" lon="4.0496">
        <ele>1207</ele>
        <time>2020-06-08T15:55:03Z</time>
      </trkpt>
      <trkpt lat="44.60041" lon="4.04935">
        <ele>1207</ele>
        <time>2020-06-08T15:55:07Z</time>
      </trkpt>
      <trkpt lat="44.60039" lon="4.04931">
        <ele>1206</ele>
        <time>2020-06-08T15:55:08Z</time>
      </trkpt>
      <trkpt lat="44.60034" lon="4.0493">
        <ele>1205</ele>
        <time>2020-06-08T15:55:09Z</time>
      </trkpt>
      <trkpt lat="44.60027" lon="4.04936">
        <ele>1204</ele>
        <time>2020-06-08T15:55:11Z</time>
      </trkpt>
      <trkpt lat="44.60014" lon="4.04956">
        <ele>1204</ele>
        <time>2020-06-08T15:55:16Z</time>
      </trkpt>
      <trkpt lat="44.59998" lon="4.04991">
        <ele>1204</ele>
        <time>2020-06-08T15:55:23Z</time>
      </trkpt>
      <trkpt lat="44.59983" lon="4.04993">
        <ele>1202</ele>
        <time>2020-06-08T15:55:26Z</time>
      </trkpt>
      <trkpt lat="44.59969" lon="4.05003">
        <ele>1201</ele>
        <time>2020-06-08T15:55:30Z</time>
      </trkpt>
      <trkpt lat="44.59955" lon="4.04998">
        <ele>1198</ele>
        <time>2020-06-08T15:55:33Z</time>
      </trkpt>
      <trkpt lat="44.59912" lon="4.05006">
        <ele>1192</ele>
        <time>2020-06-08T15:55:43Z</time>
      </trkpt>
      <trkpt lat="44.59868" lon="4.05018">
        <ele>1187</ele>
        <time>2020-06-08T15:55:54Z</time>
      </trkpt>
      <trkpt lat="44.59844" lon="4.0501">
        <ele>1185</ele>
        <time>2020-06-08T15:56:00Z</time>
      </trkpt>
      <trkpt lat="44.59799" lon="4.05006">
        <ele>1179</ele>
        <time>2020-06-08T15:56:10Z</time>
      </trkpt>
      <trkpt lat="44.59777" lon="4.05044">
        <ele>1176</ele>
        <time>2020-06-08T15:56:18Z</time>
      </trkpt>
      <trkpt lat="44.59756" lon="4.05098">
        <ele>1172</ele>
        <time>2020-06-08T15:56:28Z</time>
      </trkpt>
      <trkpt lat="44.59734" lon="4.05186">
        <ele>1160</ele>
        <time>2020-06-08T15:56:44Z</time>
      </trkpt>
      <trkpt lat="44.59721" lon="4.05215">
        <ele>1154</ele>
        <time>2020-06-08T15:56:50Z</time>
      </trkpt>
      <trkpt lat="44.59702" lon="4.05238">
        <ele>1152</ele>
        <time>2020-06-08T15:56:56Z</time>
      </trkpt>
      <trkpt lat="44.59678" lon="4.05247">
        <ele>1152</ele>
        <time>2020-06-08T15:57:01Z</time>
      </trkpt>
      <trkpt lat="44.59633" lon="4.05302">
        <ele>1145</ele>
        <time>2020-06-08T15:57:15Z</time>
      </trkpt>
      <trkpt lat="44.59625" lon="4.05306">
        <ele>1143</ele>
        <time>2020-06-08T15:57:17Z</time>
      </trkpt>
      <trkpt lat="44.59609" lon="4.05476">
        <ele>1138</ele>
        <time>2020-06-08T15:57:46Z</time>
      </trkpt>
      <trkpt lat="44.59577" lon="4.05559">
        <ele>1139</ele>
        <time>2020-06-08T15:58:01Z</time>
      </trkpt>
      <trkpt lat="44.59573" lon="4.05587">
        <ele>1137</ele>
        <time>2020-06-08T15:58:06Z</time>
      </trkpt>
      <trkpt lat="44.59554" lon="4.05654">
        <ele>1140</ele>
        <time>2020-06-08T15:58:18Z</time>
      </trkpt>
      <trkpt lat="44.59536" lon="4.05695">
        <ele>1143</ele>
        <time>2020-06-08T15:58:26Z</time>
      </trkpt>
      <trkpt lat="44.59531" lon="4.0573">
        <ele>1145</ele>
        <time>2020-06-08T15:58:32Z</time>
      </trkpt>
      <trkpt lat="44.59507" lon="4.05795">
        <ele>1153</ele>
        <time>2020-06-08T15:58:44Z</time>
      </trkpt>
      <trkpt lat="44.59487" lon="4.05875">
        <ele>1154</ele>
        <time>2020-06-08T15:58:58Z</time>
      </trkpt>
      <trkpt lat="44.59471" lon="4.05893">
        <ele>1157</ele>
        <time>2020-06-08T15:59:03Z</time>
      </trkpt>
      <trkpt lat="44.59454" lon="4.05902">
        <ele>1162</ele>
        <time>2020-06-08T15:59:07Z</time>
      </trkpt>
      <trkpt lat="44.59404" lon="4.05972">
        <ele>1169</ele>
        <time>2020-06-08T15:59:24Z</time>
      </trkpt>
      <trkpt lat="44.5939" lon="4.06011">
        <ele>1168</ele>
        <time>2020-06-08T15:59:31Z</time>
      </trkpt>
      <trkpt lat="44.59381" lon="4.06022">
        <ele>1170</ele>
        <time>2020-06-08T15:59:34Z</time>
      </trkpt>
      <trkpt lat="44.5935" lon="4.06039">
        <ele>1176</ele>
        <time>2020-06-08T15:59:42Z</time>
      </trkpt>
      <trkpt lat="44.59341" lon="4.06053">
        <ele>1179</ele>
        <time>2020-06-08T15:59:45Z</time>
      </trkpt>
      <trkpt lat="44.59299" lon="4.06097">
        <ele>1185</ele>
        <time>2020-06-08T15:59:57Z</time>
      </trkpt>
      <trkpt lat="44.59279" lon="4.0613">
        <ele>1189</ele>
        <time>2020-06-08T16:00:04Z</time>
      </trkpt>
      <trkpt lat="44.59268" lon="4.06137">
        <ele>1190</ele>
        <time>2020-06-08T16:00:07Z</time>
      </trkpt>
      <trkpt lat="44.59162" lon="4.06182">
        <ele>1199</ele>
        <time>2020-06-08T16:00:33Z</time>
      </trkpt>
      <trkpt lat="44.59084" lon="4.06245">
        <ele>1209</ele>
        <time>2020-06-08T16:00:54Z</time>
      </trkpt>
      <trkpt lat="44.59044" lon="4.06268">
        <ele>1214</ele>
        <time>2020-06-08T16:01:04Z</time>
      </trkpt>
      <trkpt lat="44.59022" lon="4.06273">
        <ele>1215</ele>
        <time>2020-06-08T16:01:09Z</time>
      </trkpt>
      <trkpt lat="44.58996" lon="4.063">
        <ele>1218</ele>
        <time>2020-06-08T16:01:17Z</time>
      </trkpt>
      <trkpt lat="44.5898" lon="4.06358">
        <ele>1218</ele>
        <time>2020-06-08T16:01:27Z</time>
      </trkpt>
      <trkpt lat="44.5898" lon="4.06432">
        <ele>1215</ele>
        <time>2020-06-08T16:01:40Z</time>
      </trkpt>
      <trkpt lat="44.58974" lon="4.06464">
        <ele>1214</ele>
        <time>2020-06-08T16:01:45Z</time>
      </trkpt>
      <trkpt lat="44.58965" lon="4.06491">
        <ele>1212</ele>
        <time>2020-06-08T16:01:50Z</time>
      </trkpt>
      <trkpt lat="44.58922" lon="4.06584">
        <ele>1206</ele>
        <time>2020-06-08T16:02:08Z</time>
      </trkpt>
      <trkpt lat="44.58911" lon="4.06582">
        <ele>1204</ele>
        <time>2020-06-08T16:02:11Z</time>
      </trkpt>
      <trkpt lat="44.58909" lon="4.06517">
        <ele>1200</ele>
        <time>2020-06-08T16:02:22Z</time>
      </trkpt>
      <trkpt lat="44.58907" lon="4.06511">
        <ele>1199</ele>
        <time>2020-06-08T16:02:23Z</time>
      </trkpt>
      <trkpt lat="44.58898" lon="4.06508">
        <ele>1197</ele>
        <time>2020-06-08T16:02:25Z</time>
      </trkpt>
      <trkpt lat="44.5887" lon="4.06535">
        <ele>1193</ele>
        <time>2020-06-08T16:02:33Z</time>
      </trkpt>
      <trkpt lat="44.58795" lon="4.06583">
        <ele>1183</ele>
        <time>2020-06-08T16:02:52Z</time>
      </trkpt>
      <trkpt lat="44.58747" lon="4.06595">
        <ele>1175</ele>
        <time>2020-06-08T16:03:04Z</time>
      </trkpt>
      <trkpt lat="44.58715" lon="4.06586">
        <ele>1173</ele>
        <time>2020-06-08T16:03:11Z</time>
      </trkpt>
      <trkpt lat="44.58687" lon="4.06572">
        <ele>1172</ele>
        <time>2020-06-08T16:03:18Z</time>
      </trkpt>
      <trkpt lat="44.5866" lon="4.06533">
        <ele>1169</ele>
        <time>2020-06-08T16:03:27Z</time>
      </trkpt>
      <trkpt lat="44.58607" lon="4.06486">
        <ele>1162</ele>
        <time>2020-06-08T16:03:42Z</time>
      </trkpt>
      <trkpt lat="44.58589" lon="4.06475">
        <ele>1160</ele>
        <time>2020-06-08T16:03:47Z</time>
      </trkpt>
      <trkpt lat="44.58553" lon="4.06465">
        <ele>1153</ele>
        <time>2020-06-08T16:03:55Z</time>
      </trkpt>
      <trkpt lat="44.58537" lon="4.06469">
        <ele>1150</ele>
        <time>2020-06-08T16:03:59Z</time>
      </trkpt>
      <trkpt lat="44.58523" lon="4.06478">
        <ele>1148</ele>
        <time>2020-06-08T16:04:02Z</time>
      </trkpt>
      <trkpt lat="44.58513" lon="4.06491">
        <ele>1148</ele>
        <time>2020-06-08T16:04:06Z</time>
      </trkpt>
      <trkpt lat="44.58503" lon="4.06508">
        <ele>1147</ele>
        <time>2020-06-08T16:04:09Z</time>
      </trkpt>
      <trkpt lat="44.58499" lon="4.06539">
        <ele>1144</ele>
        <time>2020-06-08T16:04:15Z</time>
      </trkpt>
      <trkpt lat="44.58502" lon="4.06553">
        <ele>1143</ele>
        <time>2020-06-08T16:04:17Z</time>
      </trkpt>
      <trkpt lat="44.58533" lon="4.06618">
        <ele>1145</ele>
        <time>2020-06-08T16:04:30Z</time>
      </trkpt>
      <trkpt lat="44.58594" lon="4.06726">
        <ele>1144</ele>
        <time>2020-06-08T16:04:53Z</time>
      </trkpt>
      <trkpt lat="44.58601" lon="4.06742">
        <ele>1143</ele>
        <time>2020-06-08T16:04:56Z</time>
      </trkpt>
      <trkpt lat="44.58611" lon="4.06755">
        <ele>1144</ele>
        <time>2020-06-08T16:04:59Z</time>
      </trkpt>
      <trkpt lat="44.58642" lon="4.06784">
        <ele>1146</ele>
        <time>2020-06-08T16:05:08Z</time>
      </trkpt>
      <trkpt lat="44.58648" lon="4.06795">
        <ele>1145</ele>
        <time>2020-06-08T16:05:10Z</time>
      </trkpt>
      <trkpt lat="44.58654" lon="4.0681">
        <ele>1144</ele>
        <time>2020-06-08T16:05:13Z</time>
      </trkpt>
      <trkpt lat="44.58649" lon="4.06823">
        <ele>1143</ele>
        <time>2020-06-08T16:05:16Z</time>
      </trkpt>
      <trkpt lat="44.58644" lon="4.06828">
        <ele>1143</ele>
        <time>2020-06-08T16:05:17Z</time>
      </trkpt>
      <trkpt lat="44.58625" lon="4.06823">
        <ele>1143</ele>
        <time>2020-06-08T16:05:22Z</time>
      </trkpt>
      <trkpt lat="44.58601" lon="4.06809">
        <ele>1144</ele>
        <time>2020-06-08T16:05:28Z</time>
      </trkpt>
      <trkpt lat="44.5859" lon="4.06809">
        <ele>1144</ele>
        <time>2020-06-08T16:05:30Z</time>
      </trkpt>
      <trkpt lat="44.58576" lon="4.06805">
        <ele>1144</ele>
        <time>2020-06-08T16:05:34Z</time>
      </trkpt>
      <trkpt lat="44.58561" lon="4.06796">
        <ele>1146</ele>
        <time>2020-06-08T16:05:37Z</time>
      </trkpt>
      <trkpt lat="44.5854" lon="4.06788">
        <ele>1148</ele>
        <time>2020-06-08T16:05:42Z</time>
      </trkpt>
      <trkpt lat="44.58526" lon="4.06777">
        <ele>1149</ele>
        <time>2020-06-08T16:05:46Z</time>
      </trkpt>
      <trkpt lat="44.58476" lon="4.06765">
        <ele>1153</ele>
        <time>2020-06-08T16:05:58Z</time>
      </trkpt>
      <trkpt lat="44.58422" lon="4.06744">
        <ele>1155</ele>
        <time>2020-06-08T16:06:11Z</time>
      </trkpt>
      <trkpt lat="44.58369" lon="4.06733">
        <ele>1160</ele>
        <time>2020-06-08T16:06:24Z</time>
      </trkpt>
      <trkpt lat="44.58339" lon="4.06737">
        <ele>1164</ele>
        <time>2020-06-08T16:06:31Z</time>
      </trkpt>
      <trkpt lat="44.58305" lon="4.0672">
        <ele>1169</ele>
        <time>2020-06-08T16:06:39Z</time>
      </trkpt>
      <trkpt lat="44.58284" lon="4.06697">
        <ele>1171</ele>
        <time>2020-06-08T16:06:45Z</time>
      </trkpt>
      <trkpt lat="44.58273" lon="4.06701">
        <ele>1174</ele>
        <time>2020-06-08T16:06:48Z</time>
      </trkpt>
      <trkpt lat="44.58266" lon="4.067">
        <ele>1175</ele>
        <time>2020-06-08T16:06:50Z</time>
      </trkpt>
      <trkpt lat="44.58257" lon="4.06693">
        <ele>1176</ele>
        <time>2020-06-08T16:06:52Z</time>
      </trkpt>
      <trkpt lat="44.58243" lon="4.06674">
        <ele>1177</ele>
        <time>2020-06-08T16:06:57Z</time>
      </trkpt>
      <trkpt lat="44.5821" lon="4.06589">
        <ele>1178</ele>
        <time>2020-06-08T16:07:13Z</time>
      </trkpt>
      <trkpt lat="44.58192" lon="4.06526">
        <ele>1180</ele>
        <time>2020-06-08T16:07:24Z</time>
      </trkpt>
      <trkpt lat="44.58179" lon="4.06494">
        <ele>1182</ele>
        <time>2020-06-08T16:07:30Z</time>
      </trkpt>
      <trkpt lat="44.5816" lon="4.06462">
        <ele>1187</ele>
        <time>2020-06-08T16:07:37Z</time>
      </trkpt>
      <trkpt lat="44.58138" lon="4.0644">
        <ele>1191</ele>
        <time>2020-06-08T16:07:43Z</time>
      </trkpt>
      <trkpt lat="44.5811" lon="4.06423">
        <ele>1195</ele>
        <time>2020-06-08T16:07:50Z</time>
      </trkpt>
      <trkpt lat="44.58079" lon="4.06409">
        <ele>1197</ele>
        <time>2020-06-08T16:07:58Z</time>
      </trkpt>
      <trkpt lat="44.5806" lon="4.06409">
        <ele>1197</ele>
        <time>2020-06-08T16:08:02Z</time>
      </trkpt>
      <trkpt lat="44.58036" lon="4.06418">
        <ele>1197</ele>
        <time>2020-06-08T16:08:08Z</time>
      </trkpt>
      <trkpt lat="44.57909" lon="4.06521">
        <ele>1199</ele>
        <time>2020-06-08T16:08:42Z</time>
      </trkpt>
      <trkpt lat="44.57882" lon="4.06556">
        <ele>1201</ele>
        <time>2020-06-08T16:08:51Z</time>
      </trkpt>
      <trkpt lat="44.57877" lon="4.06554">
        <ele>1200</ele>
        <time>2020-06-08T16:08:52Z</time>
      </trkpt>
      <trkpt lat="44.57886" lon="4.06533">
        <ele>1198</ele>
        <time>2020-06-08T16:08:56Z</time>
      </trkpt>
      <trkpt lat="44.5792" lon="4.06482">
        <ele>1194</ele>
        <time>2020-06-08T16:09:08Z</time>
      </trkpt>
      <trkpt lat="44.57948" lon="4.06423">
        <ele>1187</ele>
        <time>2020-06-08T16:09:20Z</time>
      </trkpt>
      <trkpt lat="44.57961" lon="4.0638">
        <ele>1183</ele>
        <time>2020-06-08T16:09:28Z</time>
      </trkpt>
      <trkpt lat="44.57965" lon="4.06352">
        <ele>1180</ele>
        <time>2020-06-08T16:09:32Z</time>
      </trkpt>
      <trkpt lat="44.57986" lon="4.06292">
        <ele>1175</ele>
        <time>2020-06-08T16:09:43Z</time>
      </trkpt>
      <trkpt lat="44.58004" lon="4.06257">
        <ele>1173</ele>
        <time>2020-06-08T16:09:51Z</time>
      </trkpt>
      <trkpt lat="44.58034" lon="4.06208">
        <ele>1167</ele>
        <time>2020-06-08T16:10:01Z</time>
      </trkpt>
      <trkpt lat="44.58068" lon="4.06183">
        <ele>1166</ele>
        <time>2020-06-08T16:10:10Z</time>
      </trkpt>
      <trkpt lat="44.58098" lon="4.06152">
        <ele>1161</ele>
        <time>2020-06-08T16:10:19Z</time>
      </trkpt>
      <trkpt lat="44.58127" lon="4.0614">
        <ele>1157</ele>
        <time>2020-06-08T16:10:26Z</time>
      </trkpt>
      <trkpt lat="44.58151" lon="4.0614">
        <ele>1157</ele>
        <time>2020-06-08T16:10:32Z</time>
      </trkpt>
      <trkpt lat="44.58178" lon="4.06158">
        <ele>1159</ele>
        <time>2020-06-08T16:10:39Z</time>
      </trkpt>
      <trkpt lat="44.58291" lon="4.06249">
        <ele>1151</ele>
        <time>2020-06-08T16:11:09Z</time>
      </trkpt>
      <trkpt lat="44.58306" lon="4.06268">
        <ele>1148</ele>
        <time>2020-06-08T16:11:14Z</time>
      </trkpt>
      <trkpt lat="44.58322" lon="4.06303">
        <ele>1146</ele>
        <time>2020-06-08T16:11:21Z</time>
      </trkpt>
      <trkpt lat="44.58327" lon="4.06338">
        <ele>1145</ele>
        <time>2020-06-08T16:11:27Z</time>
      </trkpt>
      <trkpt lat="44.58333" lon="4.0645">
        <ele>1141</ele>
        <time>2020-06-08T16:11:45Z</time>
      </trkpt>
      <trkpt lat="44.58342" lon="4.06449">
        <ele>1140</ele>
        <time>2020-06-08T16:11:47Z</time>
      </trkpt>
      <trkpt lat="44.58356" lon="4.06366">
        <ele>1137</ele>
        <time>2020-06-08T16:12:02Z</time>
      </trkpt>
      <trkpt lat="44.58362" lon="4.06315">
        <ele>1136</ele>
        <time>2020-06-08T16:12:10Z</time>
      </trkpt>
      <trkpt lat="44.58367" lon="4.06218">
        <ele>1130</ele>
        <time>2020-06-08T16:12:26Z</time>
      </trkpt>
      <trkpt lat="44.58364" lon="4.06194">
        <ele>1127</ele>
        <time>2020-06-08T16:12:30Z</time>
      </trkpt>
      <trkpt lat="44.58335" lon="4.06158">
        <ele>1125</ele>
        <time>2020-06-08T16:12:39Z</time>
      </trkpt>
      <trkpt lat="44.58285" lon="4.06118">
        <ele>1126</ele>
        <time>2020-06-08T16:12:53Z</time>
      </trkpt>
      <trkpt lat="44.58262" lon="4.06085">
        <ele>1123</ele>
        <time>2020-06-08T16:13:01Z</time>
      </trkpt>
      <trkpt lat="44.58197" lon="4.0597">
        <ele>1114</ele>
        <time>2020-06-08T16:13:25Z</time>
      </trkpt>
      <trkpt lat="44.58172" lon="4.05914">
        <ele>1108</ele>
        <time>2020-06-08T16:13:36Z</time>
      </trkpt>
      <trkpt lat="44.58146" lon="4.05871">
        <ele>1099</ele>
        <time>2020-06-08T16:13:45Z</time>
      </trkpt>
      <trkpt lat="44.58128" lon="4.05853">
        <ele>1094</ele>
        <time>2020-06-08T16:13:51Z</time>
      </trkpt>
      <trkpt lat="44.58103" lon="4.05858">
        <ele>1094</ele>
        <time>2020-06-08T16:13:56Z</time>
      </trkpt>
      <trkpt lat="44.58075" lon="4.05897">
        <ele>1100</ele>
        <time>2020-06-08T16:14:06Z</time>
      </trkpt>
      <trkpt lat="44.58055" lon="4.05914">
        <ele>1102</ele>
        <time>2020-06-08T16:14:11Z</time>
      </trkpt>
      <trkpt lat="44.58049" lon="4.0591">
        <ele>1101</ele>
        <time>2020-06-08T16:14:13Z</time>
      </trkpt>
      <trkpt lat="44.58051" lon="4.05896">
        <ele>1100</ele>
        <time>2020-06-08T16:14:15Z</time>
      </trkpt>
      <trkpt lat="44.58068" lon="4.05883">
        <ele>1098</ele>
        <time>2020-06-08T16:14:20Z</time>
      </trkpt>
      <trkpt lat="44.581" lon="4.05822">
        <ele>1089</ele>
        <time>2020-06-08T16:14:32Z</time>
      </trkpt>
      <trkpt lat="44.58114" lon="4.05813">
        <ele>1089</ele>
        <time>2020-06-08T16:14:36Z</time>
      </trkpt>
      <trkpt lat="44.58131" lon="4.05808">
        <ele>1089</ele>
        <time>2020-06-08T16:14:40Z</time>
      </trkpt>
      <trkpt lat="44.58141" lon="4.05809">
        <ele>1090</ele>
        <time>2020-06-08T16:14:42Z</time>
      </trkpt>
      <trkpt lat="44.58148" lon="4.05802">
        <ele>1090</ele>
        <time>2020-06-08T16:14:44Z</time>
      </trkpt>
      <trkpt lat="44.58145" lon="4.05789">
        <ele>1089</ele>
        <time>2020-06-08T16:14:46Z</time>
      </trkpt>
      <trkpt lat="44.58127" lon="4.05785">
        <ele>1088</ele>
        <time>2020-06-08T16:14:51Z</time>
      </trkpt>
      <trkpt lat="44.58107" lon="4.05773">
        <ele>1086</ele>
        <time>2020-06-08T16:14:56Z</time>
      </trkpt>
      <trkpt lat="44.58095" lon="4.05752">
        <ele>1085</ele>
        <time>2020-06-08T16:15:00Z</time>
      </trkpt>
      <trkpt lat="44.58097" lon="4.05726">
        <ele>1086</ele>
        <time>2020-06-08T16:15:05Z</time>
      </trkpt>
      <trkpt lat="44.58107" lon="4.05697">
        <ele>1086</ele>
        <time>2020-06-08T16:15:10Z</time>
      </trkpt>
      <trkpt lat="44.58114" lon="4.05689">
        <ele>1086</ele>
        <time>2020-06-08T16:15:12Z</time>
      </trkpt>
      <trkpt lat="44.58128" lon="4.0568">
        <ele>1085</ele>
        <time>2020-06-08T16:15:16Z</time>
      </trkpt>
      <trkpt lat="44.58158" lon="4.05634">
        <ele>1086</ele>
        <time>2020-06-08T16:15:26Z</time>
      </trkpt>
      <trkpt lat="44.58164" lon="4.05618">
        <ele>1087</ele>
        <time>2020-06-08T16:15:29Z</time>
      </trkpt>
      <trkpt lat="44.58183" lon="4.05592">
        <ele>1089</ele>
        <time>2020-06-08T16:15:35Z</time>
      </trkpt>
      <trkpt lat="44.58269" lon="4.05501">
        <ele>1092</ele>
        <time>2020-06-08T16:16:00Z</time>
      </trkpt>
      <trkpt lat="44.58287" lon="4.0549">
        <ele>1090</ele>
        <time>2020-06-08T16:16:05Z</time>
      </trkpt>
      <trkpt lat="44.58317" lon="4.05481">
        <ele>1084</ele>
        <time>2020-06-08T16:16:12Z</time>
      </trkpt>
      <trkpt lat="44.58326" lon="4.05474">
        <ele>1083</ele>
        <time>2020-06-08T16:16:15Z</time>
      </trkpt>
      <trkpt lat="44.58333" lon="4.05455">
        <ele>1084</ele>
        <time>2020-06-08T16:16:18Z</time>
      </trkpt>
      <trkpt lat="44.58335" lon="4.05435">
        <ele>1087</ele>
        <time>2020-06-08T16:16:21Z</time>
      </trkpt>
      <trkpt lat="44.58324" lon="4.05358">
        <ele>1095</ele>
        <time>2020-06-08T16:16:35Z</time>
      </trkpt>
      <trkpt lat="44.58323" lon="4.05335">
        <ele>1097</ele>
        <time>2020-06-08T16:16:38Z</time>
      </trkpt>
      <trkpt lat="44.58341" lon="4.05271">
        <ele>1093</ele>
        <time>2020-06-08T16:16:50Z</time>
      </trkpt>
      <trkpt lat="44.58342" lon="4.05257">
        <ele>1093</ele>
        <time>2020-06-08T16:16:52Z</time>
      </trkpt>
      <trkpt lat="44.5833" lon="4.05243">
        <ele>1093</ele>
        <time>2020-06-08T16:16:56Z</time>
      </trkpt>
      <trkpt lat="44.58289" lon="4.05239">
        <ele>1094</ele>
        <time>2020-06-08T16:17:05Z</time>
      </trkpt>
      <trkpt lat="44.5824" lon="4.05239">
        <ele>1095</ele>
        <time>2020-06-08T16:17:17Z</time>
      </trkpt>
      <trkpt lat="44.58209" lon="4.05251">
        <ele>1100</ele>
        <time>2020-06-08T16:17:24Z</time>
      </trkpt>
      <trkpt lat="44.58177" lon="4.05271">
        <ele>1105</ele>
        <time>2020-06-08T16:17:33Z</time>
      </trkpt>
      <trkpt lat="44.58152" lon="4.0528">
        <ele>1108</ele>
        <time>2020-06-08T16:17:39Z</time>
      </trkpt>
      <trkpt lat="44.58125" lon="4.05285">
        <ele>1111</ele>
        <time>2020-06-08T16:17:45Z</time>
      </trkpt>
      <trkpt lat="44.58097" lon="4.05279">
        <ele>1111</ele>
        <time>2020-06-08T16:17:52Z</time>
      </trkpt>
      <trkpt lat="44.58067" lon="4.0526">
        <ele>1111</ele>
        <time>2020-06-08T16:17:59Z</time>
      </trkpt>
      <trkpt lat="44.58067" lon="4.05268">
        <ele>1113</ele>
        <time>2020-06-08T16:18:01Z</time>
      </trkpt>
      <trkpt lat="44.58071" lon="4.05276">
        <ele>1114</ele>
        <time>2020-06-08T16:18:02Z</time>
      </trkpt>
      <trkpt lat="44.58106" lon="4.05308">
        <ele>1118</ele>
        <time>2020-06-08T16:18:12Z</time>
      </trkpt>
      <trkpt lat="44.58125" lon="4.05312">
        <ele>1117</ele>
        <time>2020-06-08T16:18:16Z</time>
      </trkpt>
      <trkpt lat="44.58234" lon="4.05318">
        <ele>1114</ele>
        <time>2020-06-08T16:18:42Z</time>
      </trkpt>
      <trkpt lat="44.58238" lon="4.05323">
        <ele>1115</ele>
        <time>2020-06-08T16:18:43Z</time>
      </trkpt>
      <trkpt lat="44.58238" lon="4.05334">
        <ele>1117</ele>
        <time>2020-06-08T16:18:45Z</time>
      </trkpt>
      <trkpt lat="44.58235" lon="4.05344">
        <ele>1118</ele>
        <time>2020-06-08T16:18:47Z</time>
      </trkpt>
      <trkpt lat="44.58204" lon="4.05389">
        <ele>1122</ele>
        <time>2020-06-08T16:18:57Z</time>
      </trkpt>
      <trkpt lat="44.58191" lon="4.05401">
        <ele>1125</ele>
        <time>2020-06-08T16:19:01Z</time>
      </trkpt>
      <trkpt lat="44.58178" lon="4.05408">
        <ele>1128</ele>
        <time>2020-06-08T16:19:04Z</time>
      </trkpt>
      <trkpt lat="44.58137" lon="4.05418">
        <ele>1135</ele>
        <time>2020-06-08T16:19:14Z</time>
      </trkpt>
      <trkpt lat="44.58107" lon="4.05449">
        <ele>1136</ele>
        <time>2020-06-08T16:19:22Z</time>
      </trkpt>
      <trkpt lat="44.58065" lon="4.05475">
        <ele>1140</ele>
        <time>2020-06-08T16:19:33Z</time>
      </trkpt>
      <trkpt lat="44.58035" lon="4.05484">
        <ele>1143</ele>
        <time>2020-06-08T16:19:40Z</time>
      </trkpt>
      <trkpt lat="44.58021" lon="4.05485">
        <ele>1144</ele>
        <time>2020-06-08T16:19:44Z</time>
      </trkpt>
      <trkpt lat="44.57962" lon="4.05473">
        <ele>1153</ele>
        <time>2020-06-08T16:19:58Z</time>
      </trkpt>
      <trkpt lat="44.57925" lon="4.0547">
        <ele>1158</ele>
        <time>2020-06-08T16:20:06Z</time>
      </trkpt>
      <trkpt lat="44.57936" lon="4.05462">
        <ele>1158</ele>
        <time>2020-06-08T16:20:09Z</time>
      </trkpt>
      <trkpt lat="44.57949" lon="4.05462">
        <ele>1156</ele>
        <time>2020-06-08T16:20:12Z</time>
      </trkpt>
      <trkpt lat="44.57955" lon="4.05452">
        <ele>1157</ele>
        <time>2020-06-08T16:20:14Z</time>
      </trkpt>
      <trkpt lat="44.57966" lon="4.05445">
        <ele>1157</ele>
        <time>2020-06-08T16:20:17Z</time>
      </trkpt>
      <trkpt lat="44.57971" lon="4.05432">
        <ele>1159</ele>
        <time>2020-06-08T16:20:20Z</time>
      </trkpt>
      <trkpt lat="44.57973" lon="4.05415">
        <ele>1161</ele>
        <time>2020-06-08T16:20:22Z</time>
      </trkpt>
      <trkpt lat="44.57974" lon="4.054">
        <ele>1159</ele>
        <time>2020-06-08T16:20:25Z</time>
      </trkpt>
      <trkpt lat="44.5797" lon="4.05385">
        <ele>1159</ele>
        <time>2020-06-08T16:20:28Z</time>
      </trkpt>
      <trkpt lat="44.57961" lon="4.05375">
        <ele>1159</ele>
        <time>2020-06-08T16:20:30Z</time>
      </trkpt>
      <trkpt lat="44.57935" lon="4.05369">
        <ele>1163</ele>
        <time>2020-06-08T16:20:36Z</time>
      </trkpt>
      <trkpt lat="44.578" lon="4.05296">
        <ele>1176</ele>
        <time>2020-06-08T16:21:10Z</time>
      </trkpt>
      <trkpt lat="44.57702" lon="4.05217">
        <ele>1178</ele>
        <time>2020-06-08T16:21:37Z</time>
      </trkpt>
      <trkpt lat="44.57678" lon="4.05203">
        <ele>1180</ele>
        <time>2020-06-08T16:21:43Z</time>
      </trkpt>
      <trkpt lat="44.57657" lon="4.05177">
        <ele>1181</ele>
        <time>2020-06-08T16:21:49Z</time>
      </trkpt>
      <trkpt lat="44.57629" lon="4.05133">
        <ele>1183</ele>
        <time>2020-06-08T16:21:59Z</time>
      </trkpt>
      <trkpt lat="44.57587" lon="4.05053">
        <ele>1187</ele>
        <time>2020-06-08T16:22:16Z</time>
      </trkpt>
      <trkpt lat="44.57568" lon="4.05011">
        <ele>1187</ele>
        <time>2020-06-08T16:22:24Z</time>
      </trkpt>
      <trkpt lat="44.57538" lon="4.04958">
        <ele>1185</ele>
        <time>2020-06-08T16:22:35Z</time>
      </trkpt>
      <trkpt lat="44.5753" lon="4.04953">
        <ele>1184</ele>
        <time>2020-06-08T16:22:37Z</time>
      </trkpt>
      <trkpt lat="44.57511" lon="4.0495">
        <ele>1182</ele>
        <time>2020-06-08T16:22:42Z</time>
      </trkpt>
      <trkpt lat="44.57513" lon="4.04908">
        <ele>1181</ele>
        <time>2020-06-08T16:22:49Z</time>
      </trkpt>
      <trkpt lat="44.57495" lon="4.04784">
        <ele>1182</ele>
        <time>2020-06-08T16:23:10Z</time>
      </trkpt>
      <trkpt lat="44.57502" lon="4.04713">
        <ele>1185</ele>
        <time>2020-06-08T16:23:22Z</time>
      </trkpt>
      <trkpt lat="44.57503" lon="4.04634">
        <ele>1184</ele>
        <time>2020-06-08T16:23:35Z</time>
      </trkpt>
      <trkpt lat="44.57516" lon="4.04491">
        <ele>1181</ele>
        <time>2020-06-08T16:23:59Z</time>
      </trkpt>
      <trkpt lat="44.57531" lon="4.04398">
        <ele>1184</ele>
        <time>2020-06-08T16:24:15Z</time>
      </trkpt>
      <trkpt lat="44.57556" lon="4.04319">
        <ele>1185</ele>
        <time>2020-06-08T16:24:29Z</time>
      </trkpt>
      <trkpt lat="44.57544" lon="4.04245">
        <ele>1187</ele>
        <time>2020-06-08T16:24:42Z</time>
      </trkpt>
      <trkpt lat="44.57528" lon="4.04203">
        <ele>1189</ele>
        <time>2020-06-08T16:24:50Z</time>
      </trkpt>
      <trkpt lat="44.57523" lon="4.04183">
        <ele>1190</ele>
        <time>2020-06-08T16:24:53Z</time>
      </trkpt>
      <trkpt lat="44.57523" lon="4.04167">
        <ele>1191</ele>
        <time>2020-06-08T16:24:56Z</time>
      </trkpt>
      <trkpt lat="44.57524" lon="4.04153">
        <ele>1191</ele>
        <time>2020-06-08T16:24:58Z</time>
      </trkpt>
      <trkpt lat="44.57547" lon="4.0408">
        <ele>1193</ele>
        <time>2020-06-08T16:25:11Z</time>
      </trkpt>
      <trkpt lat="44.57582" lon="4.03986">
        <ele>1193</ele>
        <time>2020-06-08T16:25:29Z</time>
      </trkpt>
      <trkpt lat="44.57572" lon="4.03873">
        <ele>1188</ele>
        <time>2020-06-08T16:25:48Z</time>
      </trkpt>
      <trkpt lat="44.57578" lon="4.0377">
        <ele>1189</ele>
        <time>2020-06-08T16:26:05Z</time>
      </trkpt>
      <trkpt lat="44.57578" lon="4.03745">
        <ele>1189</ele>
        <time>2020-06-08T16:26:09Z</time>
      </trkpt>
      <trkpt lat="44.57575" lon="4.03734">
        <ele>1190</ele>
        <time>2020-06-08T16:26:11Z</time>
      </trkpt>
      <trkpt lat="44.57486" lon="4.03645">
        <ele>1189</ele>
        <time>2020-06-08T16:26:37Z</time>
      </trkpt>
      <trkpt lat="44.57398" lon="4.03598">
        <ele>1186</ele>
        <time>2020-06-08T16:26:59Z</time>
      </trkpt>
      <trkpt lat="44.57371" lon="4.03574">
        <ele>1187</ele>
        <time>2020-06-08T16:27:06Z</time>
      </trkpt>
      <trkpt lat="44.57328" lon="4.03554">
        <ele>1185</ele>
        <time>2020-06-08T16:27:17Z</time>
      </trkpt>
      <trkpt lat="44.57273" lon="4.03487">
        <ele>1186</ele>
        <time>2020-06-08T16:27:34Z</time>
      </trkpt>
      <trkpt lat="44.57246" lon="4.03439">
        <ele>1184</ele>
        <time>2020-06-08T16:27:44Z</time>
      </trkpt>
      <trkpt lat="44.57212" lon="4.0339">
        <ele>1185</ele>
        <time>2020-06-08T16:27:55Z</time>
      </trkpt>
      <trkpt lat="44.57181" lon="4.03354">
        <ele>1187</ele>
        <time>2020-06-08T16:28:05Z</time>
      </trkpt>
      <trkpt lat="44.57154" lon="4.03332">
        <ele>1188</ele>
        <time>2020-06-08T16:28:12Z</time>
      </trkpt>
      <trkpt lat="44.57137" lon="4.03307">
        <ele>1186</ele>
        <time>2020-06-08T16:28:18Z</time>
      </trkpt>
      <trkpt lat="44.57116" lon="4.03282">
        <ele>1184</ele>
        <time>2020-06-08T16:28:24Z</time>
      </trkpt>
      <trkpt lat="44.57097" lon="4.03266">
        <ele>1184</ele>
        <time>2020-06-08T16:28:29Z</time>
      </trkpt>
      <trkpt lat="44.57095" lon="4.03258">
        <ele>1183</ele>
        <time>2020-06-08T16:28:31Z</time>
      </trkpt>
      <trkpt lat="44.57071" lon="4.03256">
        <ele>1184</ele>
        <time>2020-06-08T16:28:36Z</time>
      </trkpt>
      <trkpt lat="44.57042" lon="4.03237">
        <ele>1184</ele>
        <time>2020-06-08T16:28:44Z</time>
      </trkpt>
      <trkpt lat="44.57035" lon="4.03229">
        <ele>1184</ele>
        <time>2020-06-08T16:28:46Z</time>
      </trkpt>
      <trkpt lat="44.57006" lon="4.03215">
        <ele>1184</ele>
        <time>2020-06-08T16:28:53Z</time>
      </trkpt>
      <trkpt lat="44.56924" lon="4.03233">
        <ele>1180</ele>
        <time>2020-06-08T16:29:13Z</time>
      </trkpt>
      <trkpt lat="44.56866" lon="4.03235">
        <ele>1175</ele>
        <time>2020-06-08T16:29:26Z</time>
      </trkpt>
      <trkpt lat="44.56824" lon="4.03226">
        <ele>1170</ele>
        <time>2020-06-08T16:29:36Z</time>
      </trkpt>
      <trkpt lat="44.56786" lon="4.03194">
        <ele>1165</ele>
        <time>2020-06-08T16:29:46Z</time>
      </trkpt>
      <trkpt lat="44.56676" lon="4.03129">
        <ele>1151</ele>
        <time>2020-06-08T16:30:14Z</time>
      </trkpt>
      <trkpt lat="44.56645" lon="4.03107">
        <ele>1147</ele>
        <time>2020-06-08T16:30:22Z</time>
      </trkpt>
      <trkpt lat="44.56609" lon="4.03073">
        <ele>1144</ele>
        <time>2020-06-08T16:30:32Z</time>
      </trkpt>
      <trkpt lat="44.56573" lon="4.03044">
        <ele>1142</ele>
        <time>2020-06-08T16:30:42Z</time>
      </trkpt>
      <trkpt lat="44.56449" lon="4.02882">
        <ele>1127</ele>
        <time>2020-06-08T16:31:22Z</time>
      </trkpt>
      <trkpt lat="44.56431" lon="4.02867">
        <ele>1125</ele>
        <time>2020-06-08T16:31:27Z</time>
      </trkpt>
      <trkpt lat="44.56385" lon="4.02843">
        <ele>1123</ele>
        <time>2020-06-08T16:31:38Z</time>
      </trkpt>
      <trkpt lat="44.56335" lon="4.02778">
        <ele>1124</ele>
        <time>2020-06-08T16:31:54Z</time>
      </trkpt>
      <trkpt lat="44.56315" lon="4.02773">
        <ele>1124</ele>
        <time>2020-06-08T16:31:59Z</time>
      </trkpt>
      <trkpt lat="44.56302" lon="4.02748">
        <ele>1124</ele>
        <time>2020-06-08T16:32:04Z</time>
      </trkpt>
      <trkpt lat="44.56282" lon="4.02724">
        <ele>1125</ele>
        <time>2020-06-08T16:32:10Z</time>
      </trkpt>
      <trkpt lat="44.56243" lon="4.02696">
        <ele>1123</ele>
        <time>2020-06-08T16:32:20Z</time>
      </trkpt>
      <trkpt lat="44.56183" lon="4.02637">
        <ele>1120</ele>
        <time>2020-06-08T16:32:37Z</time>
      </trkpt>
      <trkpt lat="44.56175" lon="4.0262">
        <ele>1121</ele>
        <time>2020-06-08T16:32:41Z</time>
      </trkpt>
      <trkpt lat="44.5617" lon="4.02595">
        <ele>1122</ele>
        <time>2020-06-08T16:32:45Z</time>
      </trkpt>
      <trkpt lat="44.56171" lon="4.02554">
        <ele>1126</ele>
        <time>2020-06-08T16:32:52Z</time>
      </trkpt>
      <trkpt lat="44.56165" lon="4.02536">
        <ele>1127</ele>
        <time>2020-06-08T16:32:55Z</time>
      </trkpt>
      <trkpt lat="44.56122" lon="4.02484">
        <ele>1130</ele>
        <time>2020-06-08T16:33:08Z</time>
      </trkpt>
      <trkpt lat="44.56087" lon="4.02428">
        <ele>1128</ele>
        <time>2020-06-08T16:33:21Z</time>
      </trkpt>
      <trkpt lat="44.56058" lon="4.02351">
        <ele>1124</ele>
        <time>2020-06-08T16:33:35Z</time>
      </trkpt>
      <trkpt lat="44.56063" lon="4.02295">
        <ele>1122</ele>
        <time>2020-06-08T16:33:45Z</time>
      </trkpt>
      <trkpt lat="44.56068" lon="4.02285">
        <ele>1122</ele>
        <time>2020-06-08T16:33:47Z</time>
      </trkpt>
      <trkpt lat="44.56081" lon="4.02282">
        <ele>1123</ele>
        <time>2020-06-08T16:33:50Z</time>
      </trkpt>
      <trkpt lat="44.56084" lon="4.02269">
        <ele>1123</ele>
        <time>2020-06-08T16:33:52Z</time>
      </trkpt>
      <trkpt lat="44.56084" lon="4.02256">
        <ele>1122</ele>
        <time>2020-06-08T16:33:54Z</time>
      </trkpt>
      <trkpt lat="44.56074" lon="4.02239">
        <ele>1119</ele>
        <time>2020-06-08T16:33:58Z</time>
      </trkpt>
      <trkpt lat="44.56018" lon="4.02235">
        <ele>1110</ele>
        <time>2020-06-08T16:34:11Z</time>
      </trkpt>
      <trkpt lat="44.56009" lon="4.02228">
        <ele>1109</ele>
        <time>2020-06-08T16:34:13Z</time>
      </trkpt>
      <trkpt lat="44.56002" lon="4.02214">
        <ele>1107</ele>
        <time>2020-06-08T16:34:16Z</time>
      </trkpt>
      <trkpt lat="44.56001" lon="4.02181">
        <ele>1106</ele>
        <time>2020-06-08T16:34:22Z</time>
      </trkpt>
      <trkpt lat="44.55997" lon="4.02167">
        <ele>1106</ele>
        <time>2020-06-08T16:34:24Z</time>
      </trkpt>
      <trkpt lat="44.55991" lon="4.02157">
        <ele>1107</ele>
        <time>2020-06-08T16:34:26Z</time>
      </trkpt>
      <trkpt lat="44.55955" lon="4.02156">
        <ele>1107</ele>
        <time>2020-06-08T16:34:35Z</time>
      </trkpt>
      <trkpt lat="44.55924" lon="4.02141">
        <ele>1110</ele>
        <time>2020-06-08T16:34:43Z</time>
      </trkpt>
      <trkpt lat="44.55902" lon="4.02136">
        <ele>1112</ele>
        <time>2020-06-08T16:34:48Z</time>
      </trkpt>
      <trkpt lat="44.55902" lon="4.02129">
        <ele>1113</ele>
        <time>2020-06-08T16:34:49Z</time>
      </trkpt>
      <trkpt lat="44.55893" lon="4.02119">
        <ele>1115</ele>
        <time>2020-06-08T16:34:52Z</time>
      </trkpt>
      <trkpt lat="44.55806" lon="4.0196">
        <ele>1137</ele>
        <time>2020-06-08T16:35:25Z</time>
      </trkpt>
      <trkpt lat="44.55788" lon="4.0195">
        <ele>1137</ele>
        <time>2020-06-08T16:35:29Z</time>
      </trkpt>
      <trkpt lat="44.55785" lon="4.01939">
        <ele>1138</ele>
        <time>2020-06-08T16:35:31Z</time>
      </trkpt>
      <trkpt lat="44.55764" lon="4.01934">
        <ele>1138</ele>
        <time>2020-06-08T16:35:36Z</time>
      </trkpt>
      <trkpt lat="44.55746" lon="4.01919">
        <ele>1138</ele>
        <time>2020-06-08T16:35:41Z</time>
      </trkpt>
      <trkpt lat="44.55714" lon="4.01871">
        <ele>1141</ele>
        <time>2020-06-08T16:35:52Z</time>
      </trkpt>
      <trkpt lat="44.55708" lon="4.01854">
        <ele>1141</ele>
        <time>2020-06-08T16:35:55Z</time>
      </trkpt>
      <trkpt lat="44.55637" lon="4.01725">
        <ele>1143</ele>
        <time>2020-06-08T16:36:23Z</time>
      </trkpt>
      <trkpt lat="44.55608" lon="4.01695">
        <ele>1142</ele>
        <time>2020-06-08T16:36:31Z</time>
      </trkpt>
      <trkpt lat="44.5558" lon="4.01656">
        <ele>1141</ele>
        <time>2020-06-08T16:36:40Z</time>
      </trkpt>
      <trkpt lat="44.55534" lon="4.01615">
        <ele>1138</ele>
        <time>2020-06-08T16:36:53Z</time>
      </trkpt>
      <trkpt lat="44.55507" lon="4.01582">
        <ele>1136</ele>
        <time>2020-06-08T16:37:01Z</time>
      </trkpt>
      <trkpt lat="44.55488" lon="4.01549">
        <ele>1135</ele>
        <time>2020-06-08T16:37:08Z</time>
      </trkpt>
      <trkpt lat="44.55457" lon="4.01466">
        <ele>1131</ele>
        <time>2020-06-08T16:37:24Z</time>
      </trkpt>
      <trkpt lat="44.55443" lon="4.01438">
        <ele>1130</ele>
        <time>2020-06-08T16:37:30Z</time>
      </trkpt>
      <trkpt lat="44.55383" lon="4.01351">
        <ele>1126</ele>
        <time>2020-06-08T16:37:50Z</time>
      </trkpt>
      <trkpt lat="44.55309" lon="4.01279">
        <ele>1118</ele>
        <time>2020-06-08T16:38:11Z</time>
      </trkpt>
      <trkpt lat="44.55287" lon="4.01249">
        <ele>1116</ele>
        <time>2020-06-08T16:38:18Z</time>
      </trkpt>
      <trkpt lat="44.55255" lon="4.01198">
        <ele>1118</ele>
        <time>2020-06-08T16:38:29Z</time>
      </trkpt>
      <trkpt lat="44.55205" lon="4.01106">
        <ele>1123</ele>
        <time>2020-06-08T16:38:49Z</time>
      </trkpt>
      <trkpt lat="44.55176" lon="4.01075">
        <ele>1126</ele>
        <time>2020-06-08T16:38:57Z</time>
      </trkpt>
      <trkpt lat="44.55162" lon="4.01049">
        <ele>1128</ele>
        <time>2020-06-08T16:39:02Z</time>
      </trkpt>
      <trkpt lat="44.55126" lon="4.01001">
        <ele>1131</ele>
        <time>2020-06-08T16:39:14Z</time>
      </trkpt>
      <trkpt lat="44.55107" lon="4.00985">
        <ele>1132</ele>
        <time>2020-06-08T16:39:19Z</time>
      </trkpt>
      <trkpt lat="44.55091" lon="4.00975">
        <ele>1133</ele>
        <time>2020-06-08T16:39:23Z</time>
      </trkpt>
      <trkpt lat="44.54996" lon="4.00934">
        <ele>1138</ele>
        <time>2020-06-08T16:39:47Z</time>
      </trkpt>
      <trkpt lat="44.5486" lon="4.00893">
        <ele>1142</ele>
        <time>2020-06-08T16:40:19Z</time>
      </trkpt>
      <trkpt lat="44.54719" lon="4.00884">
        <ele>1140</ele>
        <time>2020-06-08T16:40:52Z</time>
      </trkpt>
      <trkpt lat="44.54684" lon="4.0089">
        <ele>1139</ele>
        <time>2020-06-08T16:41:00Z</time>
      </trkpt>
      <trkpt lat="44.54607" lon="4.00894">
        <ele>1138</ele>
        <time>2020-06-08T16:41:18Z</time>
      </trkpt>
      <trkpt lat="44.54526" lon="4.00923">
        <ele>1139</ele>
        <time>2020-06-08T16:41:38Z</time>
      </trkpt>
      <trkpt lat="44.54471" lon="4.00929">
        <ele>1139</ele>
        <time>2020-06-08T16:41:51Z</time>
      </trkpt>
      <trkpt lat="44.54356" lon="4.00979">
        <ele>1134</ele>
        <time>2020-06-08T16:42:19Z</time>
      </trkpt>
      <trkpt lat="44.5426" lon="4.01014">
        <ele>1131</ele>
        <time>2020-06-08T16:42:42Z</time>
      </trkpt>
      <trkpt lat="44.54228" lon="4.01019">
        <ele>1129</ele>
        <time>2020-06-08T16:42:49Z</time>
      </trkpt>
      <trkpt lat="44.54176" lon="4.00992">
        <ele>1127</ele>
        <time>2020-06-08T16:43:02Z</time>
      </trkpt>
      <trkpt lat="44.54109" lon="4.00943">
        <ele>1126</ele>
        <time>2020-06-08T16:43:20Z</time>
      </trkpt>
      <trkpt lat="44.54044" lon="4.0089">
        <ele>1119</ele>
        <time>2020-06-08T16:43:38Z</time>
      </trkpt>
      <trkpt lat="44.53925" lon="4.00785">
        <ele>1113</ele>
        <time>2020-06-08T16:44:10Z</time>
      </trkpt>
      <trkpt lat="44.539" lon="4.00756">
        <ele>1112</ele>
        <time>2020-06-08T16:44:18Z</time>
      </trkpt>
      <trkpt lat="44.53882" lon="4.00743">
        <ele>1110</ele>
        <time>2020-06-08T16:44:23Z</time>
      </trkpt>
      <trkpt lat="44.53865" lon="4.00726">
        <ele>1109</ele>
        <time>2020-06-08T16:44:28Z</time>
      </trkpt>
      <trkpt lat="44.53844" lon="4.00718">
        <ele>1108</ele>
        <time>2020-06-08T16:44:33Z</time>
      </trkpt>
      <trkpt lat="44.53804" lon="4.00667">
        <ele>1106</ele>
        <time>2020-06-08T16:44:45Z</time>
      </trkpt>
      <trkpt lat="44.53761" lon="4.00627">
        <ele>1105</ele>
        <time>2020-06-08T16:44:57Z</time>
      </trkpt>
      <trkpt lat="44.53735" lon="4.00593">
        <ele>1106</ele>
        <time>2020-06-08T16:45:06Z</time>
      </trkpt>
      <trkpt lat="44.5369" lon="4.00573">
        <ele>1104</ele>
        <time>2020-06-08T16:45:17Z</time>
      </trkpt>
      <trkpt lat="44.53663" lon="4.00573">
        <ele>1103</ele>
        <time>2020-06-08T16:45:23Z</time>
      </trkpt>
      <trkpt lat="44.53625" lon="4.00581">
        <ele>1104</ele>
        <time>2020-06-08T16:45:32Z</time>
      </trkpt>
      <trkpt lat="44.53593" lon="4.00591">
        <ele>1104</ele>
        <time>2020-06-08T16:45:40Z</time>
      </trkpt>
      <trkpt lat="44.53524" lon="4.00531">
        <ele>1095</ele>
        <time>2020-06-08T16:45:59Z</time>
      </trkpt>
      <trkpt lat="44.53504" lon="4.0049">
        <ele>1090</ele>
        <time>2020-06-08T16:46:07Z</time>
      </trkpt>
      <trkpt lat="44.53485" lon="4.00402">
        <ele>1083</ele>
        <time>2020-06-08T16:46:22Z</time>
      </trkpt>
      <trkpt lat="44.53487" lon="4.00388">
        <ele>1082</ele>
        <time>2020-06-08T16:46:24Z</time>
      </trkpt>
      <trkpt lat="44.53515" lon="4.00391">
        <ele>1083</ele>
        <time>2020-06-08T16:46:31Z</time>
      </trkpt>
      <trkpt lat="44.53521" lon="4.00377">
        <ele>1082</ele>
        <time>2020-06-08T16:46:34Z</time>
      </trkpt>
      <trkpt lat="44.53525" lon="4.00337">
        <ele>1079</ele>
        <time>2020-06-08T16:46:40Z</time>
      </trkpt>
      <trkpt lat="44.53527" lon="4.00254">
        <ele>1080</ele>
        <time>2020-06-08T16:46:54Z</time>
      </trkpt>
      <trkpt lat="44.53537" lon="4.00176">
        <ele>1081</ele>
        <time>2020-06-08T16:47:07Z</time>
      </trkpt>
      <trkpt lat="44.53553" lon="4.0008">
        <ele>1082</ele>
        <time>2020-06-08T16:47:24Z</time>
      </trkpt>
      <trkpt lat="44.53557" lon="3.99993">
        <ele>1082</ele>
        <time>2020-06-08T16:47:38Z</time>
      </trkpt>
      <trkpt lat="44.53551" lon="3.99961">
        <ele>1080</ele>
        <time>2020-06-08T16:47:44Z</time>
      </trkpt>
      <trkpt lat="44.53529" lon="3.99925">
        <ele>1080</ele>
        <time>2020-06-08T16:47:52Z</time>
      </trkpt>
      <trkpt lat="44.53459" lon="3.99876">
        <ele>1081</ele>
        <time>2020-06-08T16:48:10Z</time>
      </trkpt>
      <trkpt lat="44.53442" lon="3.99857">
        <ele>1081</ele>
        <time>2020-06-08T16:48:15Z</time>
      </trkpt>
      <trkpt lat="44.53422" lon="3.99828">
        <ele>1081</ele>
        <time>2020-06-08T16:48:22Z</time>
      </trkpt>
      <trkpt lat="44.53398" lon="3.99803">
        <ele>1080</ele>
        <time>2020-06-08T16:48:29Z</time>
      </trkpt>
      <trkpt lat="44.53385" lon="3.99797">
        <ele>1079</ele>
        <time>2020-06-08T16:48:32Z</time>
      </trkpt>
      <trkpt lat="44.53348" lon="3.99788">
        <ele>1080</ele>
        <time>2020-06-08T16:48:41Z</time>
      </trkpt>
      <trkpt lat="44.53319" lon="3.99778">
        <ele>1080</ele>
        <time>2020-06-08T16:48:48Z</time>
      </trkpt>
      <trkpt lat="44.53298" lon="3.99779">
        <ele>1080</ele>
        <time>2020-06-08T16:48:53Z</time>
      </trkpt>
      <trkpt lat="44.53287" lon="3.99784">
        <ele>1080</ele>
        <time>2020-06-08T16:48:55Z</time>
      </trkpt>
      <trkpt lat="44.53259" lon="3.99809">
        <ele>1083</ele>
        <time>2020-06-08T16:49:03Z</time>
      </trkpt>
      <trkpt lat="44.53213" lon="3.99868">
        <ele>1084</ele>
        <time>2020-06-08T16:49:18Z</time>
      </trkpt>
      <trkpt lat="44.53193" lon="3.99887">
        <ele>1085</ele>
        <time>2020-06-08T16:49:23Z</time>
      </trkpt>
      <trkpt lat="44.53173" lon="3.99894">
        <ele>1085</ele>
        <time>2020-06-08T16:49:28Z</time>
      </trkpt>
      <trkpt lat="44.53126" lon="3.99886">
        <ele>1086</ele>
        <time>2020-06-08T16:49:39Z</time>
      </trkpt>
      <trkpt lat="44.5307" lon="3.99882">
        <ele>1087</ele>
        <time>2020-06-08T16:49:52Z</time>
      </trkpt>
      <trkpt lat="44.52877" lon="3.999">
        <ele>1088</ele>
        <time>2020-06-08T16:50:37Z</time>
      </trkpt>
      <trkpt lat="44.52799" lon="3.99861">
        <ele>1082</ele>
        <time>2020-06-08T16:50:57Z</time>
      </trkpt>
      <trkpt lat="44.52771" lon="3.99852">
        <ele>1080</ele>
        <time>2020-06-08T16:51:04Z</time>
      </trkpt>
      <trkpt lat="44.52742" lon="3.99853">
        <ele>1080</ele>
        <time>2020-06-08T16:51:10Z</time>
      </trkpt>
      <trkpt lat="44.5271" lon="3.99858">
        <ele>1082</ele>
        <time>2020-06-08T16:51:18Z</time>
      </trkpt>
      <trkpt lat="44.52672" lon="3.99848">
        <ele>1081</ele>
        <time>2020-06-08T16:51:27Z</time>
      </trkpt>
      <trkpt lat="44.52593" lon="3.99812">
        <ele>1077</ele>
        <time>2020-06-08T16:51:46Z</time>
      </trkpt>
      <trkpt lat="44.52573" lon="3.99807">
        <ele>1076</ele>
        <time>2020-06-08T16:51:51Z</time>
      </trkpt>
      <trkpt lat="44.52522" lon="3.99788">
        <ele>1075</ele>
        <time>2020-06-08T16:52:03Z</time>
      </trkpt>
      <trkpt lat="44.52496" lon="3.99786">
        <ele>1075</ele>
        <time>2020-06-08T16:52:09Z</time>
      </trkpt>
      <trkpt lat="44.52422" lon="3.99793">
        <ele>1071</ele>
        <time>2020-06-08T16:52:27Z</time>
      </trkpt>
      <trkpt lat="44.52374" lon="3.99809">
        <ele>1069</ele>
        <time>2020-06-08T16:52:38Z</time>
      </trkpt>
      <trkpt lat="44.52329" lon="3.99834">
        <ele>1068</ele>
        <time>2020-06-08T16:52:50Z</time>
      </trkpt>
      <trkpt lat="44.52267" lon="3.99837">
        <ele>1063</ele>
        <time>2020-06-08T16:53:04Z</time>
      </trkpt>
      <trkpt lat="44.52148" lon="3.99885">
        <ele>1057</ele>
        <time>2020-06-08T16:53:33Z</time>
      </trkpt>
      <trkpt lat="44.52099" lon="3.99921">
        <ele>1053</ele>
        <time>2020-06-08T16:53:46Z</time>
      </trkpt>
      <trkpt lat="44.5208" lon="3.99947">
        <ele>1051</ele>
        <time>2020-06-08T16:53:52Z</time>
      </trkpt>
      <trkpt lat="44.52061" lon="3.99984">
        <ele>1050</ele>
        <time>2020-06-08T16:54:00Z</time>
      </trkpt>
      <trkpt lat="44.52042" lon="4.00041">
        <ele>1049</ele>
        <time>2020-06-08T16:54:10Z</time>
      </trkpt>
      <trkpt lat="44.52031" lon="4.00097">
        <ele>1048</ele>
        <time>2020-06-08T16:54:20Z</time>
      </trkpt>
      <trkpt lat="44.52014" lon="4.00148">
        <ele>1045</ele>
        <time>2020-06-08T16:54:29Z</time>
      </trkpt>
      <trkpt lat="44.51957" lon="4.0019">
        <ele>1041</ele>
        <time>2020-06-08T16:54:44Z</time>
      </trkpt>
      <trkpt lat="44.5194" lon="4.00209">
        <ele>1041</ele>
        <time>2020-06-08T16:54:49Z</time>
      </trkpt>
      <trkpt lat="44.51915" lon="4.00251">
        <ele>1040</ele>
        <time>2020-06-08T16:54:58Z</time>
      </trkpt>
      <trkpt lat="44.51906" lon="4.00252">
        <ele>1040</ele>
        <time>2020-06-08T16:55:01Z</time>
      </trkpt>
      <trkpt lat="44.51914" lon="4.00262">
        <ele>1040</ele>
        <time>2020-06-08T16:55:03Z</time>
      </trkpt>
      <trkpt lat="44.51943" lon="4.00287">
        <ele>1040</ele>
        <time>2020-06-08T16:55:11Z</time>
      </trkpt>
      <trkpt lat="44.51968" lon="4.00303">
        <ele>1040</ele>
        <time>2020-06-08T16:55:17Z</time>
      </trkpt>
      <trkpt lat="44.51992" lon="4.00312">
        <ele>1041</ele>
        <time>2020-06-08T16:55:23Z</time>
      </trkpt>
      <trkpt lat="44.52006" lon="4.00323">
        <ele>1041</ele>
        <time>2020-06-08T16:55:27Z</time>
      </trkpt>
      <trkpt lat="44.52027" lon="4.00345">
        <ele>1041</ele>
        <time>2020-06-08T16:55:33Z</time>
      </trkpt>
      <trkpt lat="44.52142" lon="4.00499">
        <ele>1037</ele>
        <time>2020-06-08T16:56:10Z</time>
      </trkpt>
      <trkpt lat="44.52153" lon="4.00506">
        <ele>1036</ele>
        <time>2020-06-08T16:56:13Z</time>
      </trkpt>
      <trkpt lat="44.52173" lon="4.00505">
        <ele>1036</ele>
        <time>2020-06-08T16:56:18Z</time>
      </trkpt>
      <trkpt lat="44.52204" lon="4.00496">
        <ele>1036</ele>
        <time>2020-06-08T16:56:25Z</time>
      </trkpt>
      <trkpt lat="44.52224" lon="4.00496">
        <ele>1035</ele>
        <time>2020-06-08T16:56:30Z</time>
      </trkpt>
      <trkpt lat="44.52256" lon="4.00507">
        <ele>1033</ele>
        <time>2020-06-08T16:56:37Z</time>
      </trkpt>
      <trkpt lat="44.52265" lon="4.00515">
        <ele>1032</ele>
        <time>2020-06-08T16:56:40Z</time>
      </trkpt>
      <trkpt lat="44.5229" lon="4.00518">
        <ele>1031</ele>
        <time>2020-06-08T16:56:46Z</time>
      </trkpt>
      <trkpt lat="44.52311" lon="4.00514">
        <ele>1030</ele>
        <time>2020-06-08T16:56:51Z</time>
      </trkpt>
      <trkpt lat="44.52319" lon="4.00524">
        <ele>1029</ele>
        <time>2020-06-08T16:56:53Z</time>
      </trkpt>
      <trkpt lat="44.52338" lon="4.00535">
        <ele>1028</ele>
        <time>2020-06-08T16:56:58Z</time>
      </trkpt>
      <trkpt lat="44.52344" lon="4.00567">
        <ele>1026</ele>
        <time>2020-06-08T16:57:04Z</time>
      </trkpt>
      <trkpt lat="44.52352" lon="4.00582">
        <ele>1025</ele>
        <time>2020-06-08T16:57:07Z</time>
      </trkpt>
      <trkpt lat="44.52362" lon="4.00587">
        <ele>1025</ele>
        <time>2020-06-08T16:57:09Z</time>
      </trkpt>
      <trkpt lat="44.52399" lon="4.00586">
        <ele>1025</ele>
        <time>2020-06-08T16:57:18Z</time>
      </trkpt>
      <trkpt lat="44.52442" lon="4.00595">
        <ele>1027</ele>
        <time>2020-06-08T16:57:28Z</time>
      </trkpt>
      <trkpt lat="44.52448" lon="4.00608">
        <ele>1027</ele>
        <time>2020-06-08T16:57:31Z</time>
      </trkpt>
      <trkpt lat="44.52467" lon="4.00619">
        <ele>1027</ele>
        <time>2020-06-08T16:57:35Z</time>
      </trkpt>
      <trkpt lat="44.52483" lon="4.00642">
        <ele>1027</ele>
        <time>2020-06-08T16:57:41Z</time>
      </trkpt>
      <trkpt lat="44.52499" lon="4.0066">
        <ele>1026</ele>
        <time>2020-06-08T16:57:45Z</time>
      </trkpt>
      <trkpt lat="44.52507" lon="4.00683">
        <ele>1027</ele>
        <time>2020-06-08T16:57:50Z</time>
      </trkpt>
      <trkpt lat="44.52529" lon="4.00717">
        <ele>1031</ele>
        <time>2020-06-08T16:57:57Z</time>
      </trkpt>
      <trkpt lat="44.52538" lon="4.00749">
        <ele>1033</ele>
        <time>2020-06-08T16:58:03Z</time>
      </trkpt>
      <trkpt lat="44.52557" lon="4.00771">
        <ele>1037</ele>
        <time>2020-06-08T16:58:09Z</time>
      </trkpt>
      <trkpt lat="44.52535" lon="4.00788">
        <ele>1038</ele>
        <time>2020-06-08T16:58:15Z</time>
      </trkpt>
      <trkpt lat="44.52518" lon="4.0079">
        <ele>1038</ele>
        <time>2020-06-08T16:58:19Z</time>
      </trkpt>
      <trkpt lat="44.52515" lon="4.00818">
        <ele>1042</ele>
        <time>2020-06-08T16:58:23Z</time>
      </trkpt>
      <trkpt lat="44.52486" lon="4.00904">
        <ele>1050</ele>
        <time>2020-06-08T16:58:39Z</time>
      </trkpt>
      <trkpt lat="44.52479" lon="4.00918">
        <ele>1051</ele>
        <time>2020-06-08T16:58:42Z</time>
      </trkpt>
      <trkpt lat="44.52499" lon="4.01063">
        <ele>1063</ele>
        <time>2020-06-08T16:59:07Z</time>
      </trkpt>
      <trkpt lat="44.52532" lon="4.01082">
        <ele>1067</ele>
        <time>2020-06-08T16:59:15Z</time>
      </trkpt>
      <trkpt lat="44.52609" lon="4.01104">
        <ele>1071</ele>
        <time>2020-06-08T16:59:33Z</time>
      </trkpt>
      <trkpt lat="44.5271" lon="4.01125">
        <ele>1075</ele>
        <time>2020-06-08T16:59:57Z</time>
      </trkpt>
      <trkpt lat="44.52724" lon="4.0114">
        <ele>1077</ele>
        <time>2020-06-08T17:00:01Z</time>
      </trkpt>
      <trkpt lat="44.52744" lon="4.01175">
        <ele>1078</ele>
        <time>2020-06-08T17:00:09Z</time>
      </trkpt>
      <trkpt lat="44.52777" lon="4.01202">
        <ele>1076</ele>
        <time>2020-06-08T17:00:18Z</time>
      </trkpt>
      <trkpt lat="44.52811" lon="4.01223">
        <ele>1072</ele>
        <time>2020-06-08T17:00:26Z</time>
      </trkpt>
      <trkpt lat="44.52844" lon="4.01227">
        <ele>1069</ele>
        <time>2020-06-08T17:00:34Z</time>
      </trkpt>
      <trkpt lat="44.52892" lon="4.01221">
        <ele>1064</ele>
        <time>2020-06-08T17:00:45Z</time>
      </trkpt>
      <trkpt lat="44.52971" lon="4.01229">
        <ele>1057</ele>
        <time>2020-06-08T17:01:04Z</time>
      </trkpt>
      <trkpt lat="44.53001" lon="4.0125">
        <ele>1052</ele>
        <time>2020-06-08T17:01:12Z</time>
      </trkpt>
      <trkpt lat="44.53028" lon="4.01287">
        <ele>1049</ele>
        <time>2020-06-08T17:01:21Z</time>
      </trkpt>
      <trkpt lat="44.53063" lon="4.01318">
        <ele>1047</ele>
        <time>2020-06-08T17:01:30Z</time>
      </trkpt>
      <trkpt lat="44.53079" lon="4.01341">
        <ele>1045</ele>
        <time>2020-06-08T17:01:36Z</time>
      </trkpt>
      <trkpt lat="44.53094" lon="4.01393">
        <ele>1043</ele>
        <time>2020-06-08T17:01:45Z</time>
      </trkpt>
      <trkpt lat="44.53077" lon="4.01484">
        <ele>1033</ele>
        <time>2020-06-08T17:02:01Z</time>
      </trkpt>
      <trkpt lat="44.53091" lon="4.01543">
        <ele>1029</ele>
        <time>2020-06-08T17:02:11Z</time>
      </trkpt>
      <trkpt lat="44.53152" lon="4.01558">
        <ele>1027</ele>
        <time>2020-06-08T17:02:25Z</time>
      </trkpt>
      <trkpt lat="44.53191" lon="4.01555">
        <ele>1028</ele>
        <time>2020-06-08T17:02:34Z</time>
      </trkpt>
      <trkpt lat="44.53261" lon="4.0159">
        <ele>1021</ele>
        <time>2020-06-08T17:02:52Z</time>
      </trkpt>
      <trkpt lat="44.53277" lon="4.01611">
        <ele>1018</ele>
        <time>2020-06-08T17:02:57Z</time>
      </trkpt>
      <trkpt lat="44.53283" lon="4.01664">
        <ele>1008</ele>
        <time>2020-06-08T17:03:06Z</time>
      </trkpt>
      <trkpt lat="44.53298" lon="4.01677">
        <ele>1007</ele>
        <time>2020-06-08T17:03:10Z</time>
      </trkpt>
      <trkpt lat="44.53374" lon="4.01694">
        <ele>1006</ele>
        <time>2020-06-08T17:03:28Z</time>
      </trkpt>
      <trkpt lat="44.53402" lon="4.0171">
        <ele>1003</ele>
        <time>2020-06-08T17:03:35Z</time>
      </trkpt>
      <trkpt lat="44.53438" lon="4.01788">
        <ele>992</ele>
        <time>2020-06-08T17:03:51Z</time>
      </trkpt>
      <trkpt lat="44.53463" lon="4.01801">
        <ele>991</ele>
        <time>2020-06-08T17:03:57Z</time>
      </trkpt>
      <trkpt lat="44.53498" lon="4.01809">
        <ele>989</ele>
        <time>2020-06-08T17:04:05Z</time>
      </trkpt>
      <trkpt lat="44.53533" lon="4.01828">
        <ele>985</ele>
        <time>2020-06-08T17:04:14Z</time>
      </trkpt>
      <trkpt lat="44.53548" lon="4.01851">
        <ele>983</ele>
        <time>2020-06-08T17:04:19Z</time>
      </trkpt>
      <trkpt lat="44.53586" lon="4.01978">
        <ele>988</ele>
        <time>2020-06-08T17:04:42Z</time>
      </trkpt>
      <trkpt lat="44.53599" lon="4.01993">
        <ele>990</ele>
        <time>2020-06-08T17:04:46Z</time>
      </trkpt>
      <trkpt lat="44.53618" lon="4.01998">
        <ele>991</ele>
        <time>2020-06-08T17:04:50Z</time>
      </trkpt>
      <trkpt lat="44.53672" lon="4.01999">
        <ele>995</ele>
        <time>2020-06-08T17:05:03Z</time>
      </trkpt>
      <trkpt lat="44.53705" lon="4.01985">
        <ele>998</ele>
        <time>2020-06-08T17:05:11Z</time>
      </trkpt>
      <trkpt lat="44.5368" lon="4.02041">
        <ele>994</ele>
        <time>2020-06-08T17:05:22Z</time>
      </trkpt>
      <trkpt lat="44.53621" lon="4.0215">
        <ele>996</ele>
        <time>2020-06-08T17:05:45Z</time>
      </trkpt>
      <trkpt lat="44.53605" lon="4.02163">
        <ele>997</ele>
        <time>2020-06-08T17:05:49Z</time>
      </trkpt>
      <trkpt lat="44.5359" lon="4.02161">
        <ele>997</ele>
        <time>2020-06-08T17:05:53Z</time>
      </trkpt>
      <trkpt lat="44.53569" lon="4.02139">
        <ele>998</ele>
        <time>2020-06-08T17:05:59Z</time>
      </trkpt>
      <trkpt lat="44.53543" lon="4.02117">
        <ele>999</ele>
        <time>2020-06-08T17:06:06Z</time>
      </trkpt>
      <trkpt lat="44.5344" lon="4.02067">
        <ele>1003</ele>
        <time>2020-06-08T17:06:31Z</time>
      </trkpt>
      <trkpt lat="44.53432" lon="4.02066">
        <ele>1003</ele>
        <time>2020-06-08T17:06:33Z</time>
      </trkpt>
      <trkpt lat="44.53428" lon="4.02071">
        <ele>1004</ele>
        <time>2020-06-08T17:06:34Z</time>
      </trkpt>
      <trkpt lat="44.53497" lon="4.02114">
        <ele>1005</ele>
        <time>2020-06-08T17:06:52Z</time>
      </trkpt>
      <trkpt lat="44.53514" lon="4.02131">
        <ele>1005</ele>
        <time>2020-06-08T17:06:57Z</time>
      </trkpt>
      <trkpt lat="44.5353" lon="4.02158">
        <ele>1006</ele>
        <time>2020-06-08T17:07:03Z</time>
      </trkpt>
      <trkpt lat="44.53545" lon="4.02208">
        <ele>1008</ele>
        <time>2020-06-08T17:07:12Z</time>
      </trkpt>
      <trkpt lat="44.5352" lon="4.02204">
        <ele>1011</ele>
        <time>2020-06-08T17:07:18Z</time>
      </trkpt>
      <trkpt lat="44.53501" lon="4.02235">
        <ele>1016</ele>
        <time>2020-06-08T17:07:24Z</time>
      </trkpt>
      <trkpt lat="44.53476" lon="4.02266">
        <ele>1023</ele>
        <time>2020-06-08T17:07:32Z</time>
      </trkpt>
      <trkpt lat="44.53453" lon="4.023">
        <ele>1029</ele>
        <time>2020-06-08T17:07:40Z</time>
      </trkpt>
      <trkpt lat="44.53421" lon="4.0233">
        <ele>1035</ele>
        <time>2020-06-08T17:07:49Z</time>
      </trkpt>
      <trkpt lat="44.534" lon="4.02336">
        <ele>1037</ele>
        <time>2020-06-08T17:07:54Z</time>
      </trkpt>
      <trkpt lat="44.53375" lon="4.02367">
        <ele>1039</ele>
        <time>2020-06-08T17:08:02Z</time>
      </trkpt>
      <trkpt lat="44.53315" lon="4.02354">
        <ele>1044</ele>
        <time>2020-06-08T17:08:16Z</time>
      </trkpt>
      <trkpt lat="44.53285" lon="4.02368">
        <ele>1046</ele>
        <time>2020-06-08T17:08:23Z</time>
      </trkpt>
      <trkpt lat="44.53183" lon="4.02443">
        <ele>1051</ele>
        <time>2020-06-08T17:08:50Z</time>
      </trkpt>
      <trkpt lat="44.53051" lon="4.02505">
        <ele>1052</ele>
        <time>2020-06-08T17:09:23Z</time>
      </trkpt>
      <trkpt lat="44.52922" lon="4.02629">
        <ele>1053</ele>
        <time>2020-06-08T17:09:59Z</time>
      </trkpt>
      <trkpt lat="44.52677" lon="4.02732">
        <ele>1050</ele>
        <time>2020-06-08T17:10:59Z</time>
      </trkpt>
      <trkpt lat="44.52638" lon="4.02755">
        <ele>1050</ele>
        <time>2020-06-08T17:11:09Z</time>
      </trkpt>
      <trkpt lat="44.52548" lon="4.02831">
        <ele>1053</ele>
        <time>2020-06-08T17:11:33Z</time>
      </trkpt>
      <trkpt lat="44.52445" lon="4.02911">
        <ele>1053</ele>
        <time>2020-06-08T17:12:01Z</time>
      </trkpt>
      <trkpt lat="44.52336" lon="4.03043">
        <ele>1056</ele>
        <time>2020-06-08T17:12:35Z</time>
      </trkpt>
      <trkpt lat="44.52273" lon="4.03098">
        <ele>1053</ele>
        <time>2020-06-08T17:12:52Z</time>
      </trkpt>
      <trkpt lat="44.52015" lon="4.03368">
        <ele>1031</ele>
        <time>2020-06-08T17:14:07Z</time>
      </trkpt>
      <trkpt lat="44.51791" lon="4.03659">
        <ele>1020</ele>
        <time>2020-06-08T17:15:18Z</time>
      </trkpt>
      <trkpt lat="44.51705" lon="4.03736">
        <ele>1011</ele>
        <time>2020-06-08T17:15:42Z</time>
      </trkpt>
      <trkpt lat="44.51654" lon="4.03809">
        <ele>1005</ele>
        <time>2020-06-08T17:15:59Z</time>
      </trkpt>
      <trkpt lat="44.51621" lon="4.0385">
        <ele>1000</ele>
        <time>2020-06-08T17:16:10Z</time>
      </trkpt>
      <trkpt lat="44.51601" lon="4.03867">
        <ele>998</ele>
        <time>2020-06-08T17:16:15Z</time>
      </trkpt>
      <trkpt lat="44.51568" lon="4.03857">
        <ele>996</ele>
        <time>2020-06-08T17:16:23Z</time>
      </trkpt>
      <trkpt lat="44.51556" lon="4.03843">
        <ele>995</ele>
        <time>2020-06-08T17:16:27Z</time>
      </trkpt>
      <trkpt lat="44.51537" lon="4.03802">
        <ele>992</ele>
        <time>2020-06-08T17:16:35Z</time>
      </trkpt>
      <trkpt lat="44.51524" lon="4.03793">
        <ele>990</ele>
        <time>2020-06-08T17:16:38Z</time>
      </trkpt>
      <trkpt lat="44.51496" lon="4.03789">
        <ele>986</ele>
        <time>2020-06-08T17:16:45Z</time>
      </trkpt>
      <trkpt lat="44.51464" lon="4.03821">
        <ele>983</ele>
        <time>2020-06-08T17:16:54Z</time>
      </trkpt>
      <trkpt lat="44.51412" lon="4.03887">
        <ele>980</ele>
        <time>2020-06-08T17:17:10Z</time>
      </trkpt>
      <trkpt lat="44.51373" lon="4.03921">
        <ele>980</ele>
        <time>2020-06-08T17:17:21Z</time>
      </trkpt>
      <trkpt lat="44.51348" lon="4.03999">
        <ele>981</ele>
        <time>2020-06-08T17:17:35Z</time>
      </trkpt>
      <trkpt lat="44.5133" lon="4.04029">
        <ele>980</ele>
        <time>2020-06-08T17:17:42Z</time>
      </trkpt>
      <trkpt lat="44.51305" lon="4.0405">
        <ele>977</ele>
        <time>2020-06-08T17:17:49Z</time>
      </trkpt>
      <trkpt lat="44.51261" lon="4.04104">
        <ele>975</ele>
        <time>2020-06-08T17:18:02Z</time>
      </trkpt>
      <trkpt lat="44.51243" lon="4.04146">
        <ele>974</ele>
        <time>2020-06-08T17:18:10Z</time>
      </trkpt>
      <trkpt lat="44.51242" lon="4.04166">
        <ele>975</ele>
        <time>2020-06-08T17:18:14Z</time>
      </trkpt>
      <trkpt lat="44.51256" lon="4.04206">
        <ele>976</ele>
        <time>2020-06-08T17:18:21Z</time>
      </trkpt>
      <trkpt lat="44.51267" lon="4.04263">
        <ele>977</ele>
        <time>2020-06-08T17:18:31Z</time>
      </trkpt>
      <trkpt lat="44.51279" lon="4.04391">
        <ele>976</ele>
        <time>2020-06-08T17:18:52Z</time>
      </trkpt>
      <trkpt lat="44.5123" lon="4.04504">
        <ele>968</ele>
        <time>2020-06-08T17:19:14Z</time>
      </trkpt>
      <trkpt lat="44.51162" lon="4.04577">
        <ele>959</ele>
        <time>2020-06-08T17:19:34Z</time>
      </trkpt>
      <trkpt lat="44.51096" lon="4.04607">
        <ele>951</ele>
        <time>2020-06-08T17:19:51Z</time>
      </trkpt>
      <trkpt lat="44.5106" lon="4.04633">
        <ele>942</ele>
        <time>2020-06-08T17:20:00Z</time>
      </trkpt>
      <trkpt lat="44.51047" lon="4.0466">
        <ele>935</ele>
        <time>2020-06-08T17:20:06Z</time>
      </trkpt>
      <trkpt lat="44.51042" lon="4.04709">
        <ele>931</ele>
        <time>2020-06-08T17:20:14Z</time>
      </trkpt>
      <trkpt lat="44.51042" lon="4.04757">
        <ele>929</ele>
        <time>2020-06-08T17:20:22Z</time>
      </trkpt>
      <trkpt lat="44.51052" lon="4.04813">
        <ele>929</ele>
        <time>2020-06-08T17:20:31Z</time>
      </trkpt>
      <trkpt lat="44.51074" lon="4.04822">
        <ele>932</ele>
        <time>2020-06-08T17:20:37Z</time>
      </trkpt>
      <trkpt lat="44.51099" lon="4.04849">
        <ele>932</ele>
        <time>2020-06-08T17:20:44Z</time>
      </trkpt>
      <trkpt lat="44.51138" lon="4.04925">
        <ele>926</ele>
        <time>2020-06-08T17:21:00Z</time>
      </trkpt>
      <trkpt lat="44.51149" lon="4.04956">
        <ele>924</ele>
        <time>2020-06-08T17:21:05Z</time>
      </trkpt>
      <trkpt lat="44.51152" lon="4.04987">
        <ele>922</ele>
        <time>2020-06-08T17:21:11Z</time>
      </trkpt>
      <trkpt lat="44.51149" lon="4.05025">
        <ele>920</ele>
        <time>2020-06-08T17:21:17Z</time>
      </trkpt>
      <trkpt lat="44.51125" lon="4.05084">
        <ele>913</ele>
        <time>2020-06-08T17:21:28Z</time>
      </trkpt>
      <trkpt lat="44.51119" lon="4.05108">
        <ele>913</ele>
        <time>2020-06-08T17:21:33Z</time>
      </trkpt>
      <trkpt lat="44.51125" lon="4.05117">
        <ele>913</ele>
        <time>2020-06-08T17:21:35Z</time>
      </trkpt>
      <trkpt lat="44.51126" lon="4.05129">
        <ele>913</ele>
        <time>2020-06-08T17:21:37Z</time>
      </trkpt>
      <trkpt lat="44.51059" lon="4.05308">
        <ele>898</ele>
        <time>2020-06-08T17:22:10Z</time>
      </trkpt>
      <trkpt lat="44.5105" lon="4.05341">
        <ele>896</ele>
        <time>2020-06-08T17:22:16Z</time>
      </trkpt>
      <trkpt lat="44.51054" lon="4.05363">
        <ele>895</ele>
        <time>2020-06-08T17:22:20Z</time>
      </trkpt>
      <trkpt lat="44.51071" lon="4.05371">
        <ele>897</ele>
        <time>2020-06-08T17:22:24Z</time>
      </trkpt>
      <trkpt lat="44.511" lon="4.05367">
        <ele>899</ele>
        <time>2020-06-08T17:22:31Z</time>
      </trkpt>
      <trkpt lat="44.51136" lon="4.05352">
        <ele>901</ele>
        <time>2020-06-08T17:22:40Z</time>
      </trkpt>
      <trkpt lat="44.51141" lon="4.05353">
        <ele>901</ele>
        <time>2020-06-08T17:22:41Z</time>
      </trkpt>
      <trkpt lat="44.51101" lon="4.05405">
        <ele>892</ele>
        <time>2020-06-08T17:22:54Z</time>
      </trkpt>
      <trkpt lat="44.51073" lon="4.05457">
        <ele>880</ele>
        <time>2020-06-08T17:23:05Z</time>
      </trkpt>
      <trkpt lat="44.51054" lon="4.05477">
        <ele>872</ele>
        <time>2020-06-08T17:23:10Z</time>
      </trkpt>
      <trkpt lat="44.51016" lon="4.05472">
        <ele>871</ele>
        <time>2020-06-08T17:23:19Z</time>
      </trkpt>
      <trkpt lat="44.50973" lon="4.05422">
        <ele>874</ele>
        <time>2020-06-08T17:23:32Z</time>
      </trkpt>
      <trkpt lat="44.50936" lon="4.0539">
        <ele>863</ele>
        <time>2020-06-08T17:23:42Z</time>
      </trkpt>
      <trkpt lat="44.50911" lon="4.05381">
        <ele>855</ele>
        <time>2020-06-08T17:23:48Z</time>
      </trkpt>
      <trkpt lat="44.5088" lon="4.05413">
        <ele>850</ele>
        <time>2020-06-08T17:23:57Z</time>
      </trkpt>
      <trkpt lat="44.50858" lon="4.05458">
        <ele>843</ele>
        <time>2020-06-08T17:24:06Z</time>
      </trkpt>
      <trkpt lat="44.50836" lon="4.05523">
        <ele>839</ele>
        <time>2020-06-08T17:24:18Z</time>
      </trkpt>
      <trkpt lat="44.50829" lon="4.05532">
        <ele>838</ele>
        <time>2020-06-08T17:24:20Z</time>
      </trkpt>
      <trkpt lat="44.50816" lon="4.05614">
        <ele>834</ele>
        <time>2020-06-08T17:24:34Z</time>
      </trkpt>
      <trkpt lat="44.50793" lon="4.05657">
        <ele>834</ele>
        <time>2020-06-08T17:24:43Z</time>
      </trkpt>
      <trkpt lat="44.50748" lon="4.05681">
        <ele>838</ele>
        <time>2020-06-08T17:24:55Z</time>
      </trkpt>
      <trkpt lat="44.50732" lon="4.05702">
        <ele>833</ele>
        <time>2020-06-08T17:25:00Z</time>
      </trkpt>
      <trkpt lat="44.50712" lon="4.05739">
        <ele>826</ele>
        <time>2020-06-08T17:25:07Z</time>
      </trkpt>
      <trkpt lat="44.50697" lon="4.05755">
        <ele>825</ele>
        <time>2020-06-08T17:25:12Z</time>
      </trkpt>
      <trkpt lat="44.50686" lon="4.05793">
        <ele>827</ele>
        <time>2020-06-08T17:25:19Z</time>
      </trkpt>
      <trkpt lat="44.50686" lon="4.05838">
        <ele>830</ele>
        <time>2020-06-08T17:25:26Z</time>
      </trkpt>
      <trkpt lat="44.50692" lon="4.0587">
        <ele>832</ele>
        <time>2020-06-08T17:25:32Z</time>
      </trkpt>
      <trkpt lat="44.5069" lon="4.0592">
        <ele>839</ele>
        <time>2020-06-08T17:25:40Z</time>
      </trkpt>
      <trkpt lat="44.50676" lon="4.05947">
        <ele>845</ele>
        <time>2020-06-08T17:25:46Z</time>
      </trkpt>
      <trkpt lat="44.50668" lon="4.06009">
        <ele>851</ele>
        <time>2020-06-08T17:25:56Z</time>
      </trkpt>
      <trkpt lat="44.50689" lon="4.06084">
        <ele>849</ele>
        <time>2020-06-08T17:26:10Z</time>
      </trkpt>
      <trkpt lat="44.50689" lon="4.06095">
        <ele>849</ele>
        <time>2020-06-08T17:26:11Z</time>
      </trkpt>
      <trkpt lat="44.50686" lon="4.06105">
        <ele>850</ele>
        <time>2020-06-08T17:26:13Z</time>
      </trkpt>
      <trkpt lat="44.50615" lon="4.06042">
        <ele>862</ele>
        <time>2020-06-08T17:26:33Z</time>
      </trkpt>
      <trkpt lat="44.50595" lon="4.06043">
        <ele>865</ele>
        <time>2020-06-08T17:26:37Z</time>
      </trkpt>
      <trkpt lat="44.50583" lon="4.06053">
        <ele>868</ele>
        <time>2020-06-08T17:26:41Z</time>
      </trkpt>
      <trkpt lat="44.50566" lon="4.06135">
        <ele>871</ele>
        <time>2020-06-08T17:26:55Z</time>
      </trkpt>
      <trkpt lat="44.50549" lon="4.06168">
        <ele>870</ele>
        <time>2020-06-08T17:27:02Z</time>
      </trkpt>
      <trkpt lat="44.50341" lon="4.06479">
        <ele>880</ele>
        <time>2020-06-08T17:28:13Z</time>
      </trkpt>
      <trkpt lat="44.50308" lon="4.06564">
        <ele>882</ele>
        <time>2020-06-08T17:28:29Z</time>
      </trkpt>
      <trkpt lat="44.50288" lon="4.06651">
        <ele>881</ele>
        <time>2020-06-08T17:28:44Z</time>
      </trkpt>
      <trkpt lat="44.50274" lon="4.0682">
        <ele>872</ele>
        <time>2020-06-08T17:29:12Z</time>
      </trkpt>
      <trkpt lat="44.50275" lon="4.06871">
        <ele>872</ele>
        <time>2020-06-08T17:29:21Z</time>
      </trkpt>
      <trkpt lat="44.50269" lon="4.06887">
        <ele>871</ele>
        <time>2020-06-08T17:29:24Z</time>
      </trkpt>
      <trkpt lat="44.50256" lon="4.06907">
        <ele>867</ele>
        <time>2020-06-08T17:29:28Z</time>
      </trkpt>
      <trkpt lat="44.50246" lon="4.06935">
        <ele>864</ele>
        <time>2020-06-08T17:29:34Z</time>
      </trkpt>
      <trkpt lat="44.50242" lon="4.06967">
        <ele>862</ele>
        <time>2020-06-08T17:29:39Z</time>
      </trkpt>
      <trkpt lat="44.50246" lon="4.06988">
        <ele>863</ele>
        <time>2020-06-08T17:29:43Z</time>
      </trkpt>
      <trkpt lat="44.50257" lon="4.07005">
        <ele>866</ele>
        <time>2020-06-08T17:29:47Z</time>
      </trkpt>
      <trkpt lat="44.50259" lon="4.07027">
        <ele>867</ele>
        <time>2020-06-08T17:29:50Z</time>
      </trkpt>
      <trkpt lat="44.50235" lon="4.07082">
        <ele>863</ele>
        <time>2020-06-08T17:30:01Z</time>
      </trkpt>
      <trkpt lat="44.50218" lon="4.07106">
        <ele>861</ele>
        <time>2020-06-08T17:30:07Z</time>
      </trkpt>
      <trkpt lat="44.50219" lon="4.0712">
        <ele>863</ele>
        <time>2020-06-08T17:30:09Z</time>
      </trkpt>
      <trkpt lat="44.5021" lon="4.07142">
        <ele>864</ele>
        <time>2020-06-08T17:30:13Z</time>
      </trkpt>
      <trkpt lat="44.5006" lon="4.07266">
        <ele>855</ele>
        <time>2020-06-08T17:30:54Z</time>
      </trkpt>
      <trkpt lat="44.49958" lon="4.07324">
        <ele>848</ele>
        <time>2020-06-08T17:31:20Z</time>
      </trkpt>
      <trkpt lat="44.49866" lon="4.074">
        <ele>845</ele>
        <time>2020-06-08T17:31:44Z</time>
      </trkpt>
      <trkpt lat="44.49778" lon="4.07547">
        <ele>838</ele>
        <time>2020-06-08T17:32:16Z</time>
      </trkpt>
      <trkpt lat="44.49761" lon="4.07585">
        <ele>837</ele>
        <time>2020-06-08T17:32:24Z</time>
      </trkpt>
      <trkpt lat="44.4974" lon="4.07613">
        <ele>838</ele>
        <time>2020-06-08T17:32:31Z</time>
      </trkpt>
      <trkpt lat="44.49704" lon="4.0768">
        <ele>838</ele>
        <time>2020-06-08T17:32:45Z</time>
      </trkpt>
      <trkpt lat="44.49672" lon="4.07724">
        <ele>841</ele>
        <time>2020-06-08T17:32:55Z</time>
      </trkpt>
      <trkpt lat="44.49656" lon="4.0774">
        <ele>841</ele>
        <time>2020-06-08T17:33:00Z</time>
      </trkpt>
      <trkpt lat="44.49628" lon="4.07751">
        <ele>840</ele>
        <time>2020-06-08T17:33:06Z</time>
      </trkpt>
      <trkpt lat="44.49598" lon="4.07754">
        <ele>837</ele>
        <time>2020-06-08T17:33:14Z</time>
      </trkpt>
      <trkpt lat="44.49574" lon="4.07748">
        <ele>835</ele>
        <time>2020-06-08T17:33:19Z</time>
      </trkpt>
      <trkpt lat="44.4956" lon="4.07748">
        <ele>833</ele>
        <time>2020-06-08T17:33:22Z</time>
      </trkpt>
      <trkpt lat="44.49414" lon="4.07712">
        <ele>817</ele>
        <time>2020-06-08T17:33:57Z</time>
      </trkpt>
      <trkpt lat="44.49391" lon="4.07732">
        <ele>816</ele>
        <time>2020-06-08T17:34:03Z</time>
      </trkpt>
      <trkpt lat="44.49378" lon="4.07761">
        <ele>815</ele>
        <time>2020-06-08T17:34:09Z</time>
      </trkpt>
      <trkpt lat="44.49349" lon="4.07789">
        <ele>811</ele>
        <time>2020-06-08T17:34:17Z</time>
      </trkpt>
      <trkpt lat="44.49313" lon="4.07799">
        <ele>809</ele>
        <time>2020-06-08T17:34:26Z</time>
      </trkpt>
      <trkpt lat="44.49296" lon="4.07848">
        <ele>805</ele>
        <time>2020-06-08T17:34:35Z</time>
      </trkpt>
      <trkpt lat="44.49289" lon="4.07879">
        <ele>802</ele>
        <time>2020-06-08T17:34:40Z</time>
      </trkpt>
      <trkpt lat="44.49268" lon="4.07919">
        <ele>799</ele>
        <time>2020-06-08T17:34:49Z</time>
      </trkpt>
      <trkpt lat="44.49262" lon="4.07951">
        <ele>794</ele>
        <time>2020-06-08T17:34:54Z</time>
      </trkpt>
      <trkpt lat="44.49254" lon="4.07956">
        <ele>794</ele>
        <time>2020-06-08T17:34:56Z</time>
      </trkpt>
      <trkpt lat="44.49247" lon="4.07974">
        <ele>792</ele>
        <time>2020-06-08T17:35:00Z</time>
      </trkpt>
      <trkpt lat="44.49253" lon="4.08038">
        <ele>777</ele>
        <time>2020-06-08T17:35:10Z</time>
      </trkpt>
      <trkpt lat="44.49252" lon="4.08054">
        <ele>773</ele>
        <time>2020-06-08T17:35:13Z</time>
      </trkpt>
      <trkpt lat="44.49224" lon="4.0806">
        <ele>776</ele>
        <time>2020-06-08T17:35:20Z</time>
      </trkpt>
      <trkpt lat="44.49159" lon="4.08327">
        <ele>735</ele>
        <time>2020-06-08T17:36:07Z</time>
      </trkpt>
      <trkpt lat="44.49097" lon="4.0853">
        <ele>720</ele>
        <time>2020-06-08T17:36:43Z</time>
      </trkpt>
      <trkpt lat="44.4909" lon="4.08568">
        <ele>716</ele>
        <time>2020-06-08T17:36:50Z</time>
      </trkpt>
      <trkpt lat="44.49089" lon="4.08653">
        <ele>699</ele>
        <time>2020-06-08T17:37:04Z</time>
      </trkpt>
      <trkpt lat="44.49071" lon="4.08722">
        <ele>692</ele>
        <time>2020-06-08T17:37:16Z</time>
      </trkpt>
      <trkpt lat="44.49051" lon="4.08769">
        <ele>685</ele>
        <time>2020-06-08T17:37:26Z</time>
      </trkpt>
      <trkpt lat="44.4903" lon="4.0881">
        <ele>680</ele>
        <time>2020-06-08T17:37:34Z</time>
      </trkpt>
      <trkpt lat="44.49007" lon="4.08848">
        <ele>675</ele>
        <time>2020-06-08T17:37:42Z</time>
      </trkpt>
      <trkpt lat="44.48981" lon="4.089">
        <ele>666</ele>
        <time>2020-06-08T17:37:53Z</time>
      </trkpt>
      <trkpt lat="44.48947" lon="4.09006">
        <ele>642</ele>
        <time>2020-06-08T17:38:12Z</time>
      </trkpt>
      <trkpt lat="44.48872" lon="4.09073">
        <ele>611</ele>
        <time>2020-06-08T17:38:33Z</time>
      </trkpt>
      <trkpt lat="44.48847" lon="4.09109">
        <ele>597</ele>
        <time>2020-06-08T17:38:41Z</time>
      </trkpt>
      <trkpt lat="44.48881" lon="4.09131">
        <ele>596</ele>
        <time>2020-06-08T17:38:50Z</time>
      </trkpt>
      <trkpt lat="44.48917" lon="4.09134">
        <ele>600</ele>
        <time>2020-06-08T17:38:59Z</time>
      </trkpt>
      <trkpt lat="44.48968" lon="4.09181">
        <ele>589</ele>
        <time>2020-06-08T17:39:13Z</time>
      </trkpt>
      <trkpt lat="44.48982" lon="4.09188">
        <ele>587</ele>
        <time>2020-06-08T17:39:16Z</time>
      </trkpt>
      <trkpt lat="44.49021" lon="4.09193">
        <ele>583</ele>
        <time>2020-06-08T17:39:25Z</time>
      </trkpt>
      <trkpt lat="44.4898" lon="4.09202">
        <ele>582</ele>
        <time>2020-06-08T17:39:35Z</time>
      </trkpt>
      <trkpt lat="44.48947" lon="4.09196">
        <ele>581</ele>
        <time>2020-06-08T17:39:43Z</time>
      </trkpt>
      <trkpt lat="44.48941" lon="4.09185">
        <ele>584</ele>
        <time>2020-06-08T17:39:45Z</time>
      </trkpt>
      <trkpt lat="44.48927" lon="4.09176">
        <ele>586</ele>
        <time>2020-06-08T17:39:49Z</time>
      </trkpt>
      <trkpt lat="44.48888" lon="4.0919">
        <ele>577</ele>
        <time>2020-06-08T17:39:58Z</time>
      </trkpt>
      <trkpt lat="44.48869" lon="4.09192">
        <ele>574</ele>
        <time>2020-06-08T17:40:03Z</time>
      </trkpt>
      <trkpt lat="44.48852" lon="4.09199">
        <ele>570</ele>
        <time>2020-06-08T17:40:07Z</time>
      </trkpt>
      <trkpt lat="44.48787" lon="4.09218">
        <ele>550</ele>
        <time>2020-06-08T17:40:22Z</time>
      </trkpt>
      <trkpt lat="44.48775" lon="4.09196">
        <ele>553</ele>
        <time>2020-06-08T17:40:27Z</time>
      </trkpt>
      <trkpt lat="44.48758" lon="4.09149">
        <ele>558</ele>
        <time>2020-06-08T17:40:36Z</time>
      </trkpt>
      <trkpt lat="44.48752" lon="4.09122">
        <ele>559</ele>
        <time>2020-06-08T17:40:40Z</time>
      </trkpt>
      <trkpt lat="44.48751" lon="4.09092">
        <ele>562</ele>
        <time>2020-06-08T17:40:45Z</time>
      </trkpt>
      <trkpt lat="44.48754" lon="4.09049">
        <ele>569</ele>
        <time>2020-06-08T17:40:53Z</time>
      </trkpt>
      <trkpt lat="44.48759" lon="4.09022">
        <ele>575</ele>
        <time>2020-06-08T17:40:57Z</time>
      </trkpt>
      <trkpt lat="44.48756" lon="4.09007">
        <ele>576</ele>
        <time>2020-06-08T17:41:00Z</time>
      </trkpt>
      <trkpt lat="44.48731" lon="4.08949">
        <ele>587</ele>
        <time>2020-06-08T17:41:11Z</time>
      </trkpt>
      <trkpt lat="44.48724" lon="4.08941">
        <ele>589</ele>
        <time>2020-06-08T17:41:13Z</time>
      </trkpt>
      <trkpt lat="44.48718" lon="4.0894">
        <ele>590</ele>
        <time>2020-06-08T17:41:15Z</time>
      </trkpt>
      <trkpt lat="44.48709" lon="4.08948">
        <ele>589</ele>
        <time>2020-06-08T17:41:17Z</time>
      </trkpt>
      <trkpt lat="44.48698" lon="4.0898">
        <ele>583</ele>
        <time>2020-06-08T17:41:23Z</time>
      </trkpt>
      <trkpt lat="44.48691" lon="4.0902">
        <ele>575</ele>
        <time>2020-06-08T17:41:30Z</time>
      </trkpt>
      <trkpt lat="44.48681" lon="4.09038">
        <ele>570</ele>
        <time>2020-06-08T17:41:34Z</time>
      </trkpt>
      <trkpt lat="44.48664" lon="4.09052">
        <ele>567</ele>
        <time>2020-06-08T17:41:38Z</time>
      </trkpt>
      <trkpt lat="44.48636" lon="4.09062">
        <ele>569</ele>
        <time>2020-06-08T17:41:45Z</time>
      </trkpt>
      <trkpt lat="44.48595" lon="4.09061">
        <ele>577</ele>
        <time>2020-06-08T17:41:55Z</time>
      </trkpt>
      <trkpt lat="44.48557" lon="4.0907">
        <ele>581</ele>
        <time>2020-06-08T17:42:04Z</time>
      </trkpt>
      <trkpt lat="44.48515" lon="4.09089">
        <ele>582</ele>
        <time>2020-06-08T17:42:14Z</time>
      </trkpt>
      <trkpt lat="44.48477" lon="4.09097">
        <ele>586</ele>
        <time>2020-06-08T17:42:23Z</time>
      </trkpt>
      <trkpt lat="44.48453" lon="4.09108">
        <ele>586</ele>
        <time>2020-06-08T17:42:29Z</time>
      </trkpt>
      <trkpt lat="44.48434" lon="4.09122">
        <ele>585</ele>
        <time>2020-06-08T17:42:34Z</time>
      </trkpt>
      <trkpt lat="44.48423" lon="4.09127">
        <ele>585</ele>
        <time>2020-06-08T17:42:36Z</time>
      </trkpt>
      <trkpt lat="44.48367" lon="4.09145">
        <ele>585</ele>
        <time>2020-06-08T17:42:50Z</time>
      </trkpt>
      <trkpt lat="44.4833" lon="4.09132">
        <ele>594</ele>
        <time>2020-06-08T17:42:59Z</time>
      </trkpt>
      <trkpt lat="44.48269" lon="4.09125">
        <ele>608</ele>
        <time>2020-06-08T17:43:13Z</time>
      </trkpt>
      <trkpt lat="44.4826" lon="4.09129">
        <ele>609</ele>
        <time>2020-06-08T17:43:15Z</time>
      </trkpt>
      <trkpt lat="44.48232" lon="4.09162">
        <ele>601</ele>
        <time>2020-06-08T17:43:24Z</time>
      </trkpt>
      <trkpt lat="44.48224" lon="4.09165">
        <ele>600</ele>
        <time>2020-06-08T17:43:26Z</time>
      </trkpt>
      <trkpt lat="44.48133" lon="4.09168">
        <ele>597</ele>
        <time>2020-06-08T17:43:47Z</time>
      </trkpt>
      <trkpt lat="44.4812" lon="4.09159">
        <ele>596</ele>
        <time>2020-06-08T17:43:50Z</time>
      </trkpt>
      <trkpt lat="44.48108" lon="4.09093">
        <ele>607</ele>
        <time>2020-06-08T17:44:02Z</time>
      </trkpt>
      <trkpt lat="44.48102" lon="4.09076">
        <ele>609</ele>
        <time>2020-06-08T17:44:05Z</time>
      </trkpt>
      <trkpt lat="44.48075" lon="4.09023">
        <ele>611</ele>
        <time>2020-06-08T17:44:16Z</time>
      </trkpt>
      <trkpt lat="44.48071" lon="4.09001">
        <ele>615</ele>
        <time>2020-06-08T17:44:20Z</time>
      </trkpt>
      <trkpt lat="44.48072" lon="4.08974">
        <ele>620</ele>
        <time>2020-06-08T17:44:24Z</time>
      </trkpt>
      <trkpt lat="44.48068" lon="4.08968">
        <ele>619</ele>
        <time>2020-06-08T17:44:25Z</time>
      </trkpt>
      <trkpt lat="44.48023" lon="4.08932">
        <ele>609</ele>
        <time>2020-06-08T17:44:38Z</time>
      </trkpt>
      <trkpt lat="44.48015" lon="4.0891">
        <ele>608</ele>
        <time>2020-06-08T17:44:42Z</time>
      </trkpt>
      <trkpt lat="44.48016" lon="4.08759">
        <ele>627</ele>
        <time>2020-06-08T17:45:07Z</time>
      </trkpt>
      <trkpt lat="44.4801" lon="4.08727">
        <ele>628</ele>
        <time>2020-06-08T17:45:12Z</time>
      </trkpt>
      <trkpt lat="44.4801" lon="4.08707">
        <ele>631</ele>
        <time>2020-06-08T17:45:16Z</time>
      </trkpt>
      <trkpt lat="44.48015" lon="4.08686">
        <ele>635</ele>
        <time>2020-06-08T17:45:19Z</time>
      </trkpt>
      <trkpt lat="44.48014" lon="4.08666">
        <ele>638</ele>
        <time>2020-06-08T17:45:23Z</time>
      </trkpt>
      <trkpt lat="44.4801" lon="4.08662">
        <ele>637</ele>
        <time>2020-06-08T17:45:24Z</time>
      </trkpt>
      <trkpt lat="44.47995" lon="4.08663">
        <ele>634</ele>
        <time>2020-06-08T17:45:27Z</time>
      </trkpt>
      <trkpt lat="44.4797" lon="4.08694">
        <ele>634</ele>
        <time>2020-06-08T17:45:35Z</time>
      </trkpt>
      <trkpt lat="44.47958" lon="4.08731">
        <ele>627</ele>
        <time>2020-06-08T17:45:42Z</time>
      </trkpt>
      <trkpt lat="44.47952" lon="4.08737">
        <ele>626</ele>
        <time>2020-06-08T17:45:44Z</time>
      </trkpt>
      <trkpt lat="44.47914" lon="4.0874">
        <ele>627</ele>
        <time>2020-06-08T17:45:53Z</time>
      </trkpt>
      <trkpt lat="44.47884" lon="4.08729">
        <ele>629</ele>
        <time>2020-06-08T17:46:00Z</time>
      </trkpt>
      <trkpt lat="44.47872" lon="4.0872">
        <ele>631</ele>
        <time>2020-06-08T17:46:03Z</time>
      </trkpt>
      <trkpt lat="44.47824" lon="4.08664">
        <ele>643</ele>
        <time>2020-06-08T17:46:18Z</time>
      </trkpt>
      <trkpt lat="44.47802" lon="4.08612">
        <ele>653</ele>
        <time>2020-06-08T17:46:28Z</time>
      </trkpt>
      <trkpt lat="44.47796" lon="4.08609">
        <ele>653</ele>
        <time>2020-06-08T17:46:29Z</time>
      </trkpt>
      <trkpt lat="44.47784" lon="4.0861">
        <ele>654</ele>
        <time>2020-06-08T17:46:32Z</time>
      </trkpt>
      <trkpt lat="44.47778" lon="4.08619">
        <ele>653</ele>
        <time>2020-06-08T17:46:34Z</time>
      </trkpt>
      <trkpt lat="44.47767" lon="4.08668">
        <ele>649</ele>
        <time>2020-06-08T17:46:43Z</time>
      </trkpt>
      <trkpt lat="44.4776" lon="4.08682">
        <ele>650</ele>
        <time>2020-06-08T17:46:45Z</time>
      </trkpt>
      <trkpt lat="44.47759" lon="4.08689">
        <ele>650</ele>
        <time>2020-06-08T17:46:47Z</time>
      </trkpt>
      <trkpt lat="44.47774" lon="4.08715">
        <ele>647</ele>
        <time>2020-06-08T17:46:52Z</time>
      </trkpt>
      <trkpt lat="44.47777" lon="4.0874">
        <ele>645</ele>
        <time>2020-06-08T17:46:56Z</time>
      </trkpt>
      <trkpt lat="44.47758" lon="4.08795">
        <ele>648</ele>
        <time>2020-06-08T17:47:07Z</time>
      </trkpt>
      <trkpt lat="44.47734" lon="4.08825">
        <ele>655</ele>
        <time>2020-06-08T17:47:14Z</time>
      </trkpt>
      <trkpt lat="44.47708" lon="4.0885">
        <ele>661</ele>
        <time>2020-06-08T17:47:21Z</time>
      </trkpt>
      <trkpt lat="44.47692" lon="4.08878">
        <ele>661</ele>
        <time>2020-06-08T17:47:27Z</time>
      </trkpt>
      <trkpt lat="44.47634" lon="4.09013">
        <ele>665</ele>
        <time>2020-06-08T17:47:54Z</time>
      </trkpt>
      <trkpt lat="44.4764" lon="4.09061">
        <ele>659</ele>
        <time>2020-06-08T17:48:02Z</time>
      </trkpt>
      <trkpt lat="44.47632" lon="4.09073">
        <ele>660</ele>
        <time>2020-06-08T17:48:04Z</time>
      </trkpt>
      <trkpt lat="44.47614" lon="4.09076">
        <ele>664</ele>
        <time>2020-06-08T17:48:09Z</time>
      </trkpt>
      <trkpt lat="44.4757" lon="4.0907">
        <ele>673</ele>
        <time>2020-06-08T17:48:19Z</time>
      </trkpt>
      <trkpt lat="44.4746" lon="4.09073">
        <ele>680</ele>
        <time>2020-06-08T17:48:45Z</time>
      </trkpt>
      <trkpt lat="44.47448" lon="4.09063">
        <ele>681</ele>
        <time>2020-06-08T17:48:48Z</time>
      </trkpt>
      <trkpt lat="44.474" lon="4.09132">
        <ele>683</ele>
        <time>2020-06-08T17:49:04Z</time>
      </trkpt>
      <trkpt lat="44.47396" lon="4.0915">
        <ele>683</ele>
        <time>2020-06-08T17:49:07Z</time>
      </trkpt>
      <trkpt lat="44.4738" lon="4.09187">
        <ele>683</ele>
        <time>2020-06-08T17:49:14Z</time>
      </trkpt>
      <trkpt lat="44.4736" lon="4.09221">
        <ele>683</ele>
        <time>2020-06-08T17:49:22Z</time>
      </trkpt>
      <trkpt lat="44.47334" lon="4.09255">
        <ele>683</ele>
        <time>2020-06-08T17:49:30Z</time>
      </trkpt>
      <trkpt lat="44.47279" lon="4.09306">
        <ele>680</ele>
        <time>2020-06-08T17:49:45Z</time>
      </trkpt>
      <trkpt lat="44.47259" lon="4.09335">
        <ele>680</ele>
        <time>2020-06-08T17:49:52Z</time>
      </trkpt>
      <trkpt lat="44.47198" lon="4.0939">
        <ele>673</ele>
        <time>2020-06-08T17:50:09Z</time>
      </trkpt>
      <trkpt lat="44.47174" lon="4.094">
        <ele>672</ele>
        <time>2020-06-08T17:50:15Z</time>
      </trkpt>
      <trkpt lat="44.47148" lon="4.09406">
        <ele>671</ele>
        <time>2020-06-08T17:50:21Z</time>
      </trkpt>
      <trkpt lat="44.47121" lon="4.0943">
        <ele>670</ele>
        <time>2020-06-08T17:50:29Z</time>
      </trkpt>
      <trkpt lat="44.47037" lon="4.09463">
        <ele>666</ele>
        <time>2020-06-08T17:50:49Z</time>
      </trkpt>
      <trkpt lat="44.46935" lon="4.09524">
        <ele>661</ele>
        <time>2020-06-08T17:51:15Z</time>
      </trkpt>
      <trkpt lat="44.46924" lon="4.09525">
        <ele>661</ele>
        <time>2020-06-08T17:51:17Z</time>
      </trkpt>
      <trkpt lat="44.46885" lon="4.09519">
        <ele>659</ele>
        <time>2020-06-08T17:51:27Z</time>
      </trkpt>
      <trkpt lat="44.46866" lon="4.09519">
        <ele>658</ele>
        <time>2020-06-08T17:51:31Z</time>
      </trkpt>
      <trkpt lat="44.46809" lon="4.09569">
        <ele>653</ele>
        <time>2020-06-08T17:51:47Z</time>
      </trkpt>
      <trkpt lat="44.46709" lon="4.09644">
        <ele>642</ele>
        <time>2020-06-08T17:52:13Z</time>
      </trkpt>
      <trkpt lat="44.46696" lon="4.09656">
        <ele>642</ele>
        <time>2020-06-08T17:52:17Z</time>
      </trkpt>
      <trkpt lat="44.46678" lon="4.09683">
        <ele>642</ele>
        <time>2020-06-08T17:52:23Z</time>
      </trkpt>
      <trkpt lat="44.46654" lon="4.09732">
        <ele>643</ele>
        <time>2020-06-08T17:52:33Z</time>
      </trkpt>
      <trkpt lat="44.4661" lon="4.09772">
        <ele>640</ele>
        <time>2020-06-08T17:52:45Z</time>
      </trkpt>
      <trkpt lat="44.46581" lon="4.09794">
        <ele>639</ele>
        <time>2020-06-08T17:52:53Z</time>
      </trkpt>
      <trkpt lat="44.46565" lon="4.09801">
        <ele>637</ele>
        <time>2020-06-08T17:52:57Z</time>
      </trkpt>
      <trkpt lat="44.465" lon="4.09801">
        <ele>630</ele>
        <time>2020-06-08T17:53:12Z</time>
      </trkpt>
      <trkpt lat="44.4641" lon="4.0976">
        <ele>625</ele>
        <time>2020-06-08T17:53:34Z</time>
      </trkpt>
      <trkpt lat="44.46346" lon="4.09708">
        <ele>617</ele>
        <time>2020-06-08T17:53:51Z</time>
      </trkpt>
      <trkpt lat="44.4633" lon="4.09705">
        <ele>616</ele>
        <time>2020-06-08T17:53:55Z</time>
      </trkpt>
      <trkpt lat="44.46208" lon="4.09724">
        <ele>603</ele>
        <time>2020-06-08T17:54:24Z</time>
      </trkpt>
      <trkpt lat="44.46135" lon="4.09726">
        <ele>598</ele>
        <time>2020-06-08T17:54:41Z</time>
      </trkpt>
      <trkpt lat="44.46054" lon="4.0976">
        <ele>593</ele>
        <time>2020-06-08T17:55:01Z</time>
      </trkpt>
      <trkpt lat="44.46037" lon="4.09772">
        <ele>591</ele>
        <time>2020-06-08T17:55:05Z</time>
      </trkpt>
      <trkpt lat="44.45988" lon="4.09838">
        <ele>586</ele>
        <time>2020-06-08T17:55:21Z</time>
      </trkpt>
      <trkpt lat="44.45977" lon="4.09843">
        <ele>585</ele>
        <time>2020-06-08T17:55:24Z</time>
      </trkpt>
      <trkpt lat="44.45951" lon="4.09843">
        <ele>583</ele>
        <time>2020-06-08T17:55:30Z</time>
      </trkpt>
      <trkpt lat="44.45916" lon="4.09833">
        <ele>580</ele>
        <time>2020-06-08T17:55:38Z</time>
      </trkpt>
      <trkpt lat="44.45885" lon="4.09819">
        <ele>575</ele>
        <time>2020-06-08T17:55:46Z</time>
      </trkpt>
      <trkpt lat="44.45849" lon="4.09794">
        <ele>570</ele>
        <time>2020-06-08T17:55:55Z</time>
      </trkpt>
      <trkpt lat="44.45822" lon="4.09771">
        <ele>567</ele>
        <time>2020-06-08T17:56:02Z</time>
      </trkpt>
      <trkpt lat="44.45804" lon="4.0975">
        <ele>565</ele>
        <time>2020-06-08T17:56:08Z</time>
      </trkpt>
      <trkpt lat="44.45793" lon="4.09743">
        <ele>562</ele>
        <time>2020-06-08T17:56:11Z</time>
      </trkpt>
      <trkpt lat="44.45781" lon="4.09752">
        <ele>563</ele>
        <time>2020-06-08T17:56:14Z</time>
      </trkpt>
      <trkpt lat="44.45775" lon="4.09769">
        <ele>563</ele>
        <time>2020-06-08T17:56:17Z</time>
      </trkpt>
      <trkpt lat="44.45774" lon="4.09789">
        <ele>564</ele>
        <time>2020-06-08T17:56:20Z</time>
      </trkpt>
      <trkpt lat="44.45777" lon="4.09801">
        <ele>565</ele>
        <time>2020-06-08T17:56:22Z</time>
      </trkpt>
      <trkpt lat="44.45817" lon="4.09893">
        <ele>563</ele>
        <time>2020-06-08T17:56:40Z</time>
      </trkpt>
      <trkpt lat="44.45822" lon="4.0995">
        <ele>558</ele>
        <time>2020-06-08T17:56:50Z</time>
      </trkpt>
      <trkpt lat="44.45826" lon="4.0997">
        <ele>556</ele>
        <time>2020-06-08T17:56:53Z</time>
      </trkpt>
      <trkpt lat="44.45861" lon="4.10059">
        <ele>550</ele>
        <time>2020-06-08T17:57:10Z</time>
      </trkpt>
      <trkpt lat="44.45887" lon="4.102">
        <ele>541</ele>
        <time>2020-06-08T17:57:35Z</time>
      </trkpt>
      <trkpt lat="44.45895" lon="4.10231">
        <ele>542</ele>
        <time>2020-06-08T17:57:40Z</time>
      </trkpt>
      <trkpt lat="44.45907" lon="4.10262">
        <ele>543</ele>
        <time>2020-06-08T17:57:46Z</time>
      </trkpt>
      <trkpt lat="44.45923" lon="4.10342">
        <ele>535</ele>
        <time>2020-06-08T17:58:00Z</time>
      </trkpt>
      <trkpt lat="44.45925" lon="4.10409">
        <ele>527</ele>
        <time>2020-06-08T17:58:11Z</time>
      </trkpt>
      <trkpt lat="44.45928" lon="4.10425">
        <ele>525</ele>
        <time>2020-06-08T17:58:14Z</time>
      </trkpt>
      <trkpt lat="44.45936" lon="4.10439">
        <ele>524</ele>
        <time>2020-06-08T17:58:17Z</time>
      </trkpt>
      <trkpt lat="44.4595" lon="4.10451">
        <ele>522</ele>
        <time>2020-06-08T17:58:21Z</time>
      </trkpt>
      <trkpt lat="44.45972" lon="4.10449">
        <ele>521</ele>
        <time>2020-06-08T17:58:26Z</time>
      </trkpt>
      <trkpt lat="44.45997" lon="4.10427">
        <ele>525</ele>
        <time>2020-06-08T17:58:33Z</time>
      </trkpt>
      <trkpt lat="44.46008" lon="4.10406">
        <ele>525</ele>
        <time>2020-06-08T17:58:37Z</time>
      </trkpt>
      <trkpt lat="44.46014" lon="4.10387">
        <ele>525</ele>
        <time>2020-06-08T17:58:41Z</time>
      </trkpt>
      <trkpt lat="44.4602" lon="4.10388">
        <ele>522</ele>
        <time>2020-06-08T17:58:42Z</time>
      </trkpt>
      <trkpt lat="44.4602" lon="4.10397">
        <ele>521</ele>
        <time>2020-06-08T17:58:43Z</time>
      </trkpt>
      <trkpt lat="44.46002" lon="4.1044">
        <ele>521</ele>
        <time>2020-06-08T17:58:52Z</time>
      </trkpt>
      <trkpt lat="44.4597" lon="4.10494">
        <ele>514</ele>
        <time>2020-06-08T17:59:03Z</time>
      </trkpt>
      <trkpt lat="44.4595" lon="4.10516">
        <ele>512</ele>
        <time>2020-06-08T17:59:09Z</time>
      </trkpt>
      <trkpt lat="44.45925" lon="4.10517">
        <ele>515</ele>
        <time>2020-06-08T17:59:15Z</time>
      </trkpt>
      <trkpt lat="44.45909" lon="4.10513">
        <ele>514</ele>
        <time>2020-06-08T17:59:19Z</time>
      </trkpt>
      <trkpt lat="44.45899" lon="4.10507">
        <ele>511</ele>
        <time>2020-06-08T17:59:22Z</time>
      </trkpt>
      <trkpt lat="44.45891" lon="4.10491">
        <ele>510</ele>
        <time>2020-06-08T17:59:25Z</time>
      </trkpt>
      <trkpt lat="44.45878" lon="4.10435">
        <ele>509</ele>
        <time>2020-06-08T17:59:35Z</time>
      </trkpt>
      <trkpt lat="44.45873" lon="4.10434">
        <ele>507</ele>
        <time>2020-06-08T17:59:36Z</time>
      </trkpt>
      <trkpt lat="44.45871" lon="4.1044">
        <ele>506</ele>
        <time>2020-06-08T17:59:37Z</time>
      </trkpt>
      <trkpt lat="44.45877" lon="4.10508">
        <ele>503</ele>
        <time>2020-06-08T17:59:48Z</time>
      </trkpt>
      <trkpt lat="44.45895" lon="4.10553">
        <ele>501</ele>
        <time>2020-06-08T17:59:57Z</time>
      </trkpt>
      <trkpt lat="44.45912" lon="4.10573">
        <ele>503</ele>
        <time>2020-06-08T18:00:02Z</time>
      </trkpt>
      <trkpt lat="44.45933" lon="4.10579">
        <ele>500</ele>
        <time>2020-06-08T18:00:07Z</time>
      </trkpt>
      <trkpt lat="44.45958" lon="4.10579">
        <ele>496</ele>
        <time>2020-06-08T18:00:13Z</time>
      </trkpt>
      <trkpt lat="44.45982" lon="4.10569">
        <ele>495</ele>
        <time>2020-06-08T18:00:19Z</time>
      </trkpt>
      <trkpt lat="44.46001" lon="4.10554">
        <ele>495</ele>
        <time>2020-06-08T18:00:24Z</time>
      </trkpt>
      <trkpt lat="44.46013" lon="4.10541">
        <ele>493</ele>
        <time>2020-06-08T18:00:27Z</time>
      </trkpt>
      <trkpt lat="44.46004" lon="4.10562">
        <ele>492</ele>
        <time>2020-06-08T18:00:32Z</time>
      </trkpt>
      <trkpt lat="44.45979" lon="4.10606">
        <ele>483</ele>
        <time>2020-06-08T18:00:41Z</time>
      </trkpt>
      <trkpt lat="44.4594" lon="4.10645">
        <ele>473</ele>
        <time>2020-06-08T18:00:52Z</time>
      </trkpt>
      <trkpt lat="44.45899" lon="4.10653">
        <ele>469</ele>
        <time>2020-06-08T18:01:02Z</time>
      </trkpt>
      <trkpt lat="44.45872" lon="4.10653">
        <ele>465</ele>
        <time>2020-06-08T18:01:08Z</time>
      </trkpt>
      <trkpt lat="44.4587" lon="4.10659">
        <ele>462</ele>
        <time>2020-06-08T18:01:09Z</time>
      </trkpt>
      <trkpt lat="44.45872" lon="4.10664">
        <ele>461</ele>
        <time>2020-06-08T18:01:10Z</time>
      </trkpt>
      <trkpt lat="44.45892" lon="4.10679">
        <ele>459</ele>
        <time>2020-06-08T18:01:15Z</time>
      </trkpt>
      <trkpt lat="44.45864" lon="4.10682">
        <ele>456</ele>
        <time>2020-06-08T18:01:22Z</time>
      </trkpt>
      <trkpt lat="44.45854" lon="4.1068">
        <ele>455</ele>
        <time>2020-06-08T18:01:24Z</time>
      </trkpt>
      <trkpt lat="44.45846" lon="4.10685">
        <ele>453</ele>
        <time>2020-06-08T18:01:26Z</time>
      </trkpt>
      <trkpt lat="44.45838" lon="4.10682">
        <ele>453</ele>
        <time>2020-06-08T18:01:28Z</time>
      </trkpt>
      <trkpt lat="44.45832" lon="4.10672">
        <ele>455</ele>
        <time>2020-06-08T18:01:30Z</time>
      </trkpt>
      <trkpt lat="44.45829" lon="4.1068">
        <ele>452</ele>
        <time>2020-06-08T18:01:32Z</time>
      </trkpt>
      <trkpt lat="44.45823" lon="4.10721">
        <ele>444</ele>
        <time>2020-06-08T18:01:39Z</time>
      </trkpt>
      <trkpt lat="44.45797" lon="4.10728">
        <ele>439</ele>
        <time>2020-06-08T18:01:45Z</time>
      </trkpt>
      <trkpt lat="44.45793" lon="4.10766">
        <ele>434</ele>
        <time>2020-06-08T18:01:52Z</time>
      </trkpt>
      <trkpt lat="44.45798" lon="4.10823">
        <ele>430</ele>
        <time>2020-06-08T18:02:01Z</time>
      </trkpt>
      <trkpt lat="44.45791" lon="4.10871">
        <ele>429</ele>
        <time>2020-06-08T18:02:09Z</time>
      </trkpt>
      <trkpt lat="44.45755" lon="4.10877">
        <ele>429</ele>
        <time>2020-06-08T18:02:18Z</time>
      </trkpt>
      <trkpt lat="44.45705" lon="4.10915">
        <ele>426</ele>
        <time>2020-06-08T18:02:31Z</time>
      </trkpt>
      <trkpt lat="44.45652" lon="4.1096">
        <ele>425</ele>
        <time>2020-06-08T18:02:45Z</time>
      </trkpt>
      <trkpt lat="44.45615" lon="4.11007">
        <ele>423</ele>
        <time>2020-06-08T18:02:57Z</time>
      </trkpt>
      <trkpt lat="44.45595" lon="4.11045">
        <ele>425</ele>
        <time>2020-06-08T18:03:05Z</time>
      </trkpt>
      <trkpt lat="44.4558" lon="4.11062">
        <ele>425</ele>
        <time>2020-06-08T18:03:10Z</time>
      </trkpt>
      <trkpt lat="44.45528" lon="4.11103">
        <ele>421</ele>
        <time>2020-06-08T18:03:23Z</time>
      </trkpt>
      <trkpt lat="44.45503" lon="4.11116">
        <ele>420</ele>
        <time>2020-06-08T18:03:30Z</time>
      </trkpt>
      <trkpt lat="44.45456" lon="4.11125">
        <ele>418</ele>
        <time>2020-06-08T18:03:41Z</time>
      </trkpt>
      <trkpt lat="44.45417" lon="4.11128">
        <ele>416</ele>
        <time>2020-06-08T18:03:50Z</time>
      </trkpt>
      <trkpt lat="44.45389" lon="4.11136">
        <ele>413</ele>
        <time>2020-06-08T18:03:57Z</time>
      </trkpt>
      <trkpt lat="44.45365" lon="4.11147">
        <ele>411</ele>
        <time>2020-06-08T18:04:02Z</time>
      </trkpt>
      <trkpt lat="44.45299" lon="4.11143">
        <ele>399</ele>
        <time>2020-06-08T18:04:18Z</time>
      </trkpt>
      <trkpt lat="44.45265" lon="4.11164">
        <ele>395</ele>
        <time>2020-06-08T18:04:27Z</time>
      </trkpt>
      <trkpt lat="44.452" lon="4.11234">
        <ele>389</ele>
        <time>2020-06-08T18:04:46Z</time>
      </trkpt>
      <trkpt lat="44.45204" lon="4.11203">
        <ele>386</ele>
        <time>2020-06-08T18:04:51Z</time>
      </trkpt>
      <trkpt lat="44.4521" lon="4.11192">
        <ele>386</ele>
        <time>2020-06-08T18:04:53Z</time>
      </trkpt>
      <trkpt lat="44.45251" lon="4.1115">
        <ele>389</ele>
        <time>2020-06-08T18:05:05Z</time>
      </trkpt>
      <trkpt lat="44.45318" lon="4.11008">
        <ele>380</ele>
        <time>2020-06-08T18:05:34Z</time>
      </trkpt>
      <trkpt lat="44.45368" lon="4.10981">
        <ele>379</ele>
        <time>2020-06-08T18:05:46Z</time>
      </trkpt>
      <trkpt lat="44.45392" lon="4.10972">
        <ele>379</ele>
        <time>2020-06-08T18:05:52Z</time>
      </trkpt>
      <trkpt lat="44.45437" lon="4.10947">
        <ele>380</ele>
        <time>2020-06-08T18:06:03Z</time>
      </trkpt>
      <trkpt lat="44.45452" lon="4.10932">
        <ele>379</ele>
        <time>2020-06-08T18:06:07Z</time>
      </trkpt>
      <trkpt lat="44.45463" lon="4.10927">
        <ele>380</ele>
        <time>2020-06-08T18:06:10Z</time>
      </trkpt>
      <trkpt lat="44.4549" lon="4.10906">
        <ele>382</ele>
        <time>2020-06-08T18:06:17Z</time>
      </trkpt>
      <trkpt lat="44.45501" lon="4.10892">
        <ele>382</ele>
        <time>2020-06-08T18:06:21Z</time>
      </trkpt>
      <trkpt lat="44.45529" lon="4.10833">
        <ele>381</ele>
        <time>2020-06-08T18:06:33Z</time>
      </trkpt>
      <trkpt lat="44.45545" lon="4.10808">
        <ele>383</ele>
        <time>2020-06-08T18:06:38Z</time>
      </trkpt>
      <trkpt lat="44.45579" lon="4.10667">
        <ele>383</ele>
        <time>2020-06-08T18:07:03Z</time>
      </trkpt>
      <trkpt lat="44.45585" lon="4.10632">
        <ele>383</ele>
        <time>2020-06-08T18:07:09Z</time>
      </trkpt>
      <trkpt lat="44.45594" lon="4.10609">
        <ele>386</ele>
        <time>2020-06-08T18:07:13Z</time>
      </trkpt>
      <trkpt lat="44.45604" lon="4.10567">
        <ele>388</ele>
        <time>2020-06-08T18:07:21Z</time>
      </trkpt>
      <trkpt lat="44.45607" lon="4.10478">
        <ele>389</ele>
        <time>2020-06-08T18:07:36Z</time>
      </trkpt>
      <trkpt lat="44.45614" lon="4.10415">
        <ele>394</ele>
        <time>2020-06-08T18:07:46Z</time>
      </trkpt>
      <trkpt lat="44.45608" lon="4.10398">
        <ele>396</ele>
        <time>2020-06-08T18:07:49Z</time>
      </trkpt>
      <trkpt lat="44.45602" lon="4.10393">
        <ele>395</ele>
        <time>2020-06-08T18:07:51Z</time>
      </trkpt>
      <trkpt lat="44.45598" lon="4.10394">
        <ele>394</ele>
        <time>2020-06-08T18:07:52Z</time>
      </trkpt>
      <trkpt lat="44.45581" lon="4.10413">
        <ele>384</ele>
        <time>2020-06-08T18:07:57Z</time>
      </trkpt>
      <trkpt lat="44.45511" lon="4.10434">
        <ele>380</ele>
        <time>2020-06-08T18:08:14Z</time>
      </trkpt>
      <trkpt lat="44.45489" lon="4.10447">
        <ele>377</ele>
        <time>2020-06-08T18:08:19Z</time>
      </trkpt>
      <trkpt lat="44.45438" lon="4.10459">
        <ele>375</ele>
        <time>2020-06-08T18:08:31Z</time>
      </trkpt>
      <trkpt lat="44.45424" lon="4.10468">
        <ele>373</ele>
        <time>2020-06-08T18:08:35Z</time>
      </trkpt>
      <trkpt lat="44.45389" lon="4.10469">
        <ele>370</ele>
        <time>2020-06-08T18:08:43Z</time>
      </trkpt>
      <trkpt lat="44.45374" lon="4.10474">
        <ele>367</ele>
        <time>2020-06-08T18:08:47Z</time>
      </trkpt>
      <trkpt lat="44.45365" lon="4.10474">
        <ele>366</ele>
        <time>2020-06-08T18:08:49Z</time>
      </trkpt>
      <trkpt lat="44.45333" lon="4.10457">
        <ele>365</ele>
        <time>2020-06-08T18:08:57Z</time>
      </trkpt>
      <trkpt lat="44.45314" lon="4.10453">
        <ele>363</ele>
        <time>2020-06-08T18:09:01Z</time>
      </trkpt>
      <trkpt lat="44.45225" lon="4.1042">
        <ele>357</ele>
        <time>2020-06-08T18:09:23Z</time>
      </trkpt>
      <trkpt lat="44.45213" lon="4.10413">
        <ele>357</ele>
        <time>2020-06-08T18:09:26Z</time>
      </trkpt>
      <trkpt lat="44.4516" lon="4.10341">
        <ele>358</ele>
        <time>2020-06-08T18:09:43Z</time>
      </trkpt>
      <trkpt lat="44.45146" lon="4.10268">
        <ele>360</ele>
        <time>2020-06-08T18:09:56Z</time>
      </trkpt>
      <trkpt lat="44.45147" lon="4.10257">
        <ele>360</ele>
        <time>2020-06-08T18:09:58Z</time>
      </trkpt>
      <trkpt lat="44.45168" lon="4.10223">
        <ele>364</ele>
        <time>2020-06-08T18:10:05Z</time>
      </trkpt>
      <trkpt lat="44.45172" lon="4.10202">
        <ele>365</ele>
        <time>2020-06-08T18:10:09Z</time>
      </trkpt>
      <trkpt lat="44.45172" lon="4.10188">
        <ele>366</ele>
        <time>2020-06-08T18:10:11Z</time>
      </trkpt>
      <trkpt lat="44.45166" lon="4.10178">
        <ele>365</ele>
        <time>2020-06-08T18:10:13Z</time>
      </trkpt>
      <trkpt lat="44.45145" lon="4.10169">
        <ele>360</ele>
        <time>2020-06-08T18:10:18Z</time>
      </trkpt>
      <trkpt lat="44.45129" lon="4.10157">
        <ele>356</ele>
        <time>2020-06-08T18:10:23Z</time>
      </trkpt>
      <trkpt lat="44.45122" lon="4.10148">
        <ele>354</ele>
        <time>2020-06-08T18:10:25Z</time>
      </trkpt>
      <trkpt lat="44.45121" lon="4.10129">
        <ele>353</ele>
        <time>2020-06-08T18:10:28Z</time>
      </trkpt>
      <trkpt lat="44.45124" lon="4.10109">
        <ele>354</ele>
        <time>2020-06-08T18:10:31Z</time>
      </trkpt>
      <trkpt lat="44.45162" lon="4.10015">
        <ele>362</ele>
        <time>2020-06-08T18:10:49Z</time>
      </trkpt>
      <trkpt lat="44.45161" lon="4.09999">
        <ele>361</ele>
        <time>2020-06-08T18:10:52Z</time>
      </trkpt>
      <trkpt lat="44.45136" lon="4.09961">
        <ele>352</ele>
        <time>2020-06-08T18:11:01Z</time>
      </trkpt>
      <trkpt lat="44.45136" lon="4.09938">
        <ele>352</ele>
        <time>2020-06-08T18:11:05Z</time>
      </trkpt>
      <trkpt lat="44.4514" lon="4.0992">
        <ele>354</ele>
        <time>2020-06-08T18:11:08Z</time>
      </trkpt>
      <trkpt lat="44.45152" lon="4.09899">
        <ele>356</ele>
        <time>2020-06-08T18:11:12Z</time>
      </trkpt>
      <trkpt lat="44.45189" lon="4.09857">
        <ele>358</ele>
        <time>2020-06-08T18:11:23Z</time>
      </trkpt>
      <trkpt lat="44.45205" lon="4.09842">
        <ele>358</ele>
        <time>2020-06-08T18:11:28Z</time>
      </trkpt>
      <trkpt lat="44.45217" lon="4.09836">
        <ele>360</ele>
        <time>2020-06-08T18:11:31Z</time>
      </trkpt>
      <trkpt lat="44.45239" lon="4.09838">
        <ele>365</ele>
        <time>2020-06-08T18:11:36Z</time>
      </trkpt>
      <trkpt lat="44.45272" lon="4.09861">
        <ele>377</ele>
        <time>2020-06-08T18:11:45Z</time>
      </trkpt>
      <trkpt lat="44.45298" lon="4.09895">
        <ele>384</ele>
        <time>2020-06-08T18:11:53Z</time>
      </trkpt>
      <trkpt lat="44.45306" lon="4.099">
        <ele>385</ele>
        <time>2020-06-08T18:11:55Z</time>
      </trkpt>
      <trkpt lat="44.45312" lon="4.099">
        <ele>386</ele>
        <time>2020-06-08T18:11:56Z</time>
      </trkpt>
      <trkpt lat="44.45313" lon="4.09886">
        <ele>386</ele>
        <time>2020-06-08T18:11:59Z</time>
      </trkpt>
      <trkpt lat="44.45272" lon="4.09752">
        <ele>373</ele>
        <time>2020-06-08T18:12:23Z</time>
      </trkpt>
      <trkpt lat="44.45271" lon="4.09742">
        <ele>372</ele>
        <time>2020-06-08T18:12:25Z</time>
      </trkpt>
      <trkpt lat="44.45279" lon="4.09716">
        <ele>374</ele>
        <time>2020-06-08T18:12:29Z</time>
      </trkpt>
      <trkpt lat="44.45293" lon="4.09683">
        <ele>377</ele>
        <time>2020-06-08T18:12:36Z</time>
      </trkpt>
      <trkpt lat="44.45345" lon="4.09599">
        <ele>377</ele>
        <time>2020-06-08T18:12:54Z</time>
      </trkpt>
      <trkpt lat="44.45352" lon="4.09592">
        <ele>377</ele>
        <time>2020-06-08T18:12:56Z</time>
      </trkpt>
      <trkpt lat="44.45362" lon="4.09591">
        <ele>379</ele>
        <time>2020-06-08T18:12:59Z</time>
      </trkpt>
      <trkpt lat="44.45394" lon="4.09605">
        <ele>391</ele>
        <time>2020-06-08T18:13:06Z</time>
      </trkpt>
      <trkpt lat="44.45403" lon="4.09604">
        <ele>392</ele>
        <time>2020-06-08T18:13:09Z</time>
      </trkpt>
      <trkpt lat="44.45422" lon="4.09593">
        <ele>393</ele>
        <time>2020-06-08T18:13:13Z</time>
      </trkpt>
      <trkpt lat="44.45439" lon="4.09577">
        <ele>394</ele>
        <time>2020-06-08T18:13:18Z</time>
      </trkpt>
      <trkpt lat="44.45468" lon="4.09536">
        <ele>393</ele>
        <time>2020-06-08T18:13:28Z</time>
      </trkpt>
      <trkpt lat="44.4548" lon="4.09525">
        <ele>395</ele>
        <time>2020-06-08T18:13:31Z</time>
      </trkpt>
      <trkpt lat="44.4549" lon="4.09505">
        <ele>393</ele>
        <time>2020-06-08T18:13:35Z</time>
      </trkpt>
      <trkpt lat="44.45501" lon="4.09495">
        <ele>395</ele>
        <time>2020-06-08T18:13:38Z</time>
      </trkpt>
      <trkpt lat="44.45527" lon="4.09482">
        <ele>403</ele>
        <time>2020-06-08T18:13:45Z</time>
      </trkpt>
      <trkpt lat="44.45575" lon="4.09435">
        <ele>407</ele>
        <time>2020-06-08T18:13:58Z</time>
      </trkpt>
      <trkpt lat="44.45586" lon="4.09427">
        <ele>407</ele>
        <time>2020-06-08T18:14:01Z</time>
      </trkpt>
      <trkpt lat="44.45609" lon="4.09389">
        <ele>412</ele>
        <time>2020-06-08T18:14:10Z</time>
      </trkpt>
      <trkpt lat="44.45616" lon="4.09385">
        <ele>413</ele>
        <time>2020-06-08T18:14:11Z</time>
      </trkpt>
      <trkpt lat="44.4563" lon="4.09385">
        <ele>415</ele>
        <time>2020-06-08T18:14:15Z</time>
      </trkpt>
      <trkpt lat="44.45647" lon="4.09394">
        <ele>417</ele>
        <time>2020-06-08T18:14:19Z</time>
      </trkpt>
      <trkpt lat="44.45661" lon="4.09397">
        <ele>420</ele>
        <time>2020-06-08T18:14:22Z</time>
      </trkpt>
      <trkpt lat="44.45673" lon="4.09394">
        <ele>422</ele>
        <time>2020-06-08T18:14:25Z</time>
      </trkpt>
      <trkpt lat="44.45679" lon="4.09385">
        <ele>422</ele>
        <time>2020-06-08T18:14:27Z</time>
      </trkpt>
      <trkpt lat="44.45691" lon="4.09346">
        <ele>421</ele>
        <time>2020-06-08T18:14:34Z</time>
      </trkpt>
      <trkpt lat="44.45691" lon="4.09339">
        <ele>420</ele>
        <time>2020-06-08T18:14:35Z</time>
      </trkpt>
      <trkpt lat="44.45687" lon="4.09331">
        <ele>420</ele>
        <time>2020-06-08T18:14:37Z</time>
      </trkpt>
      <trkpt lat="44.4568" lon="4.09332">
        <ele>419</ele>
        <time>2020-06-08T18:14:39Z</time>
      </trkpt>
      <trkpt lat="44.45666" lon="4.09345">
        <ele>418</ele>
        <time>2020-06-08T18:14:43Z</time>
      </trkpt>
      <trkpt lat="44.45655" lon="4.09341">
        <ele>417</ele>
        <time>2020-06-08T18:14:45Z</time>
      </trkpt>
      <trkpt lat="44.4564" lon="4.09325">
        <ele>420</ele>
        <time>2020-06-08T18:14:50Z</time>
      </trkpt>
      <trkpt lat="44.45594" lon="4.09313">
        <ele>425</ele>
        <time>2020-06-08T18:15:01Z</time>
      </trkpt>
      <trkpt lat="44.45576" lon="4.0932">
        <ele>422</ele>
        <time>2020-06-08T18:15:05Z</time>
      </trkpt>
      <trkpt lat="44.4556" lon="4.09335">
        <ele>416</ele>
        <time>2020-06-08T18:15:09Z</time>
      </trkpt>
      <trkpt lat="44.4551" lon="4.09354">
        <ele>410</ele>
        <time>2020-06-08T18:15:21Z</time>
      </trkpt>
      <trkpt lat="44.45493" lon="4.09354">
        <ele>409</ele>
        <time>2020-06-08T18:15:25Z</time>
      </trkpt>
      <trkpt lat="44.45468" lon="4.09345">
        <ele>412</ele>
        <time>2020-06-08T18:15:31Z</time>
      </trkpt>
      <trkpt lat="44.45445" lon="4.09327">
        <ele>419</ele>
        <time>2020-06-08T18:15:38Z</time>
      </trkpt>
      <trkpt lat="44.45432" lon="4.0932">
        <ele>422</ele>
        <time>2020-06-08T18:15:41Z</time>
      </trkpt>
      <trkpt lat="44.45425" lon="4.09325">
        <ele>420</ele>
        <time>2020-06-08T18:15:43Z</time>
      </trkpt>
      <trkpt lat="44.4541" lon="4.09354">
        <ele>409</ele>
        <time>2020-06-08T18:15:49Z</time>
      </trkpt>
      <trkpt lat="44.45393" lon="4.09378">
        <ele>401</ele>
        <time>2020-06-08T18:15:54Z</time>
      </trkpt>
      <trkpt lat="44.4538" lon="4.09389">
        <ele>398</ele>
        <time>2020-06-08T18:15:58Z</time>
      </trkpt>
      <trkpt lat="44.45372" lon="4.09387">
        <ele>399</ele>
        <time>2020-06-08T18:16:00Z</time>
      </trkpt>
      <trkpt lat="44.4535" lon="4.09367">
        <ele>408</ele>
        <time>2020-06-08T18:16:06Z</time>
      </trkpt>
      <trkpt lat="44.45327" lon="4.09363">
        <ele>412</ele>
        <time>2020-06-08T18:16:11Z</time>
      </trkpt>
      <trkpt lat="44.45315" lon="4.09366">
        <ele>413</ele>
        <time>2020-06-08T18:16:14Z</time>
      </trkpt>
      <trkpt lat="44.45295" lon="4.09395">
        <ele>408</ele>
        <time>2020-06-08T18:16:21Z</time>
      </trkpt>
      <trkpt lat="44.45286" lon="4.094">
        <ele>408</ele>
        <time>2020-06-08T18:16:23Z</time>
      </trkpt>
      <trkpt lat="44.45272" lon="4.09399">
        <ele>411</ele>
        <time>2020-06-08T18:16:26Z</time>
      </trkpt>
      <trkpt lat="44.45256" lon="4.09408">
        <ele>412</ele>
        <time>2020-06-08T18:16:30Z</time>
      </trkpt>
      <trkpt lat="44.45248" lon="4.09418">
        <ele>411</ele>
        <time>2020-06-08T18:16:33Z</time>
      </trkpt>
      <trkpt lat="44.45231" lon="4.09463">
        <ele>401</ele>
        <time>2020-06-08T18:16:41Z</time>
      </trkpt>
      <trkpt lat="44.45208" lon="4.09495">
        <ele>398</ele>
        <time>2020-06-08T18:16:49Z</time>
      </trkpt>
      <trkpt lat="44.45178" lon="4.09523">
        <ele>398</ele>
        <time>2020-06-08T18:16:57Z</time>
      </trkpt>
      <trkpt lat="44.45163" lon="4.09531">
        <ele>399</ele>
        <time>2020-06-08T18:17:01Z</time>
      </trkpt>
      <trkpt lat="44.45148" lon="4.09532">
        <ele>400</ele>
        <time>2020-06-08T18:17:05Z</time>
      </trkpt>
      <trkpt lat="44.45127" lon="4.09516">
        <ele>406</ele>
        <time>2020-06-08T18:17:10Z</time>
      </trkpt>
      <trkpt lat="44.45117" lon="4.09515">
        <ele>407</ele>
        <time>2020-06-08T18:17:13Z</time>
      </trkpt>
      <trkpt lat="44.45099" lon="4.09554">
        <ele>398</ele>
        <time>2020-06-08T18:17:20Z</time>
      </trkpt>
      <trkpt lat="44.45082" lon="4.09581">
        <ele>393</ele>
        <time>2020-06-08T18:17:26Z</time>
      </trkpt>
      <trkpt lat="44.45074" lon="4.09582">
        <ele>392</ele>
        <time>2020-06-08T18:17:28Z</time>
      </trkpt>
      <trkpt lat="44.45064" lon="4.09576">
        <ele>394</ele>
        <time>2020-06-08T18:17:31Z</time>
      </trkpt>
      <trkpt lat="44.45033" lon="4.09536">
        <ele>402</ele>
        <time>2020-06-08T18:17:41Z</time>
      </trkpt>
      <trkpt lat="44.45025" lon="4.09517">
        <ele>406</ele>
        <time>2020-06-08T18:17:44Z</time>
      </trkpt>
      <trkpt lat="44.45014" lon="4.09458">
        <ele>417</ele>
        <time>2020-06-08T18:17:54Z</time>
      </trkpt>
      <trkpt lat="44.45007" lon="4.09455">
        <ele>417</ele>
        <time>2020-06-08T18:17:56Z</time>
      </trkpt>
      <trkpt lat="44.45001" lon="4.09458">
        <ele>416</ele>
        <time>2020-06-08T18:17:58Z</time>
      </trkpt>
      <trkpt lat="44.44988" lon="4.09525">
        <ele>405</ele>
        <time>2020-06-08T18:18:09Z</time>
      </trkpt>
      <trkpt lat="44.44976" lon="4.09546">
        <ele>404</ele>
        <time>2020-06-08T18:18:14Z</time>
      </trkpt>
      <trkpt lat="44.4496" lon="4.09589">
        <ele>401</ele>
        <time>2020-06-08T18:18:22Z</time>
      </trkpt>
      <trkpt lat="44.44925" lon="4.09645">
        <ele>403</ele>
        <time>2020-06-08T18:18:34Z</time>
      </trkpt>
      <trkpt lat="44.44916" lon="4.09667">
        <ele>403</ele>
        <time>2020-06-08T18:18:38Z</time>
      </trkpt>
      <trkpt lat="44.449" lon="4.09689">
        <ele>405</ele>
        <time>2020-06-08T18:18:44Z</time>
      </trkpt>
      <trkpt lat="44.44872" lon="4.09744">
        <ele>404</ele>
        <time>2020-06-08T18:18:55Z</time>
      </trkpt>
      <trkpt lat="44.44862" lon="4.09786">
        <ele>403</ele>
        <time>2020-06-08T18:19:02Z</time>
      </trkpt>
      <trkpt lat="44.4485" lon="4.09803">
        <ele>404</ele>
        <time>2020-06-08T18:19:06Z</time>
      </trkpt>
      <trkpt lat="44.44837" lon="4.0983">
        <ele>404</ele>
        <time>2020-06-08T18:19:12Z</time>
      </trkpt>
      <trkpt lat="44.44828" lon="4.09841">
        <ele>404</ele>
        <time>2020-06-08T18:19:14Z</time>
      </trkpt>
      <trkpt lat="44.44781" lon="4.09865">
        <ele>407</ele>
        <time>2020-06-08T18:19:26Z</time>
      </trkpt>
      <trkpt lat="44.4473" lon="4.09916">
        <ele>412</ele>
        <time>2020-06-08T18:19:41Z</time>
      </trkpt>
      <trkpt lat="44.44715" lon="4.09954">
        <ele>413</ele>
        <time>2020-06-08T18:19:48Z</time>
      </trkpt>
      <trkpt lat="44.44698" lon="4.10016">
        <ele>415</ele>
        <time>2020-06-08T18:19:59Z</time>
      </trkpt>
      <trkpt lat="44.44683" lon="4.10041">
        <ele>417</ele>
        <time>2020-06-08T18:20:05Z</time>
      </trkpt>
      <trkpt lat="44.4468" lon="4.10063">
        <ele>417</ele>
        <time>2020-06-08T18:20:08Z</time>
      </trkpt>
      <trkpt lat="44.44682" lon="4.10088">
        <ele>415</ele>
        <time>2020-06-08T18:20:12Z</time>
      </trkpt>
      <trkpt lat="44.4468" lon="4.10105">
        <ele>414</ele>
        <time>2020-06-08T18:20:15Z</time>
      </trkpt>
      <trkpt lat="44.44672" lon="4.10128">
        <ele>414</ele>
        <time>2020-06-08T18:20:20Z</time>
      </trkpt>
      <trkpt lat="44.44659" lon="4.10144">
        <ele>413</ele>
        <time>2020-06-08T18:20:24Z</time>
      </trkpt>
      <trkpt lat="44.44653" lon="4.10144">
        <ele>413</ele>
        <time>2020-06-08T18:20:25Z</time>
      </trkpt>
      <trkpt lat="44.44629" lon="4.10123">
        <ele>413</ele>
        <time>2020-06-08T18:20:32Z</time>
      </trkpt>
      <trkpt lat="44.44617" lon="4.10106">
        <ele>414</ele>
        <time>2020-06-08T18:20:36Z</time>
      </trkpt>
      <trkpt lat="44.44607" lon="4.10081">
        <ele>415</ele>
        <time>2020-06-08T18:20:40Z</time>
      </trkpt>
      <trkpt lat="44.44609" lon="4.10068">
        <ele>416</ele>
        <time>2020-06-08T18:20:43Z</time>
      </trkpt>
      <trkpt lat="44.44608" lon="4.10051">
        <ele>417</ele>
        <time>2020-06-08T18:20:45Z</time>
      </trkpt>
      <trkpt lat="44.44603" lon="4.1003">
        <ele>418</ele>
        <time>2020-06-08T18:20:49Z</time>
      </trkpt>
      <trkpt lat="44.44593" lon="4.10007">
        <ele>418</ele>
        <time>2020-06-08T18:20:54Z</time>
      </trkpt>
      <trkpt lat="44.44591" lon="4.0998">
        <ele>418</ele>
        <time>2020-06-08T18:20:58Z</time>
      </trkpt>
      <trkpt lat="44.44612" lon="4.09869">
        <ele>418</ele>
        <time>2020-06-08T18:21:17Z</time>
      </trkpt>
      <trkpt lat="44.44654" lon="4.09806">
        <ele>419</ele>
        <time>2020-06-08T18:21:32Z</time>
      </trkpt>
      <trkpt lat="44.44683" lon="4.09754">
        <ele>418</ele>
        <time>2020-06-08T18:21:43Z</time>
      </trkpt>
      <trkpt lat="44.44686" lon="4.09738">
        <ele>418</ele>
        <time>2020-06-08T18:21:45Z</time>
      </trkpt>
      <trkpt lat="44.44682" lon="4.09732">
        <ele>418</ele>
        <time>2020-06-08T18:21:47Z</time>
      </trkpt>
      <trkpt lat="44.44654" lon="4.09708">
        <ele>416</ele>
        <time>2020-06-08T18:21:55Z</time>
      </trkpt>
      <trkpt lat="44.44648" lon="4.09678">
        <ele>415</ele>
        <time>2020-06-08T18:22:00Z</time>
      </trkpt>
      <trkpt lat="44.44648" lon="4.09643">
        <ele>415</ele>
        <time>2020-06-08T18:22:06Z</time>
      </trkpt>
      <trkpt lat="44.44645" lon="4.09632">
        <ele>415</ele>
        <time>2020-06-08T18:22:07Z</time>
      </trkpt>
      <trkpt lat="44.44638" lon="4.09629">
        <ele>414</ele>
        <time>2020-06-08T18:22:09Z</time>
      </trkpt>
      <trkpt lat="44.44631" lon="4.09629">
        <ele>413</ele>
        <time>2020-06-08T18:22:11Z</time>
      </trkpt>
      <trkpt lat="44.44557" lon="4.0965">
        <ele>404</ele>
        <time>2020-06-08T18:22:28Z</time>
      </trkpt>
      <trkpt lat="44.4452" lon="4.09654">
        <ele>401</ele>
        <time>2020-06-08T18:22:37Z</time>
      </trkpt>
      <trkpt lat="44.44503" lon="4.09659">
        <ele>400</ele>
        <time>2020-06-08T18:22:41Z</time>
      </trkpt>
      <trkpt lat="44.44375" lon="4.09736">
        <ele>391</ele>
        <time>2020-06-08T18:23:14Z</time>
      </trkpt>
      <trkpt lat="44.4436" lon="4.09743">
        <ele>391</ele>
        <time>2020-06-08T18:23:17Z</time>
      </trkpt>
      <trkpt lat="44.44335" lon="4.09742">
        <ele>391</ele>
        <time>2020-06-08T18:23:23Z</time>
      </trkpt>
      <trkpt lat="44.44319" lon="4.09745">
        <ele>392</ele>
        <time>2020-06-08T18:23:27Z</time>
      </trkpt>
      <trkpt lat="44.44248" lon="4.09773">
        <ele>396</ele>
        <time>2020-06-08T18:23:44Z</time>
      </trkpt>
      <trkpt lat="44.44234" lon="4.09782">
        <ele>397</ele>
        <time>2020-06-08T18:23:48Z</time>
      </trkpt>
      <trkpt lat="44.44095" lon="4.09921">
        <ele>405</ele>
        <time>2020-06-08T18:24:28Z</time>
      </trkpt>
      <trkpt lat="44.44074" lon="4.09932">
        <ele>405</ele>
        <time>2020-06-08T18:24:33Z</time>
      </trkpt>
      <trkpt lat="44.44054" lon="4.09932">
        <ele>404</ele>
        <time>2020-06-08T18:24:38Z</time>
      </trkpt>
      <trkpt lat="44.44034" lon="4.09921">
        <ele>405</ele>
        <time>2020-06-08T18:24:43Z</time>
      </trkpt>
      <trkpt lat="44.44023" lon="4.09912">
        <ele>405</ele>
        <time>2020-06-08T18:24:46Z</time>
      </trkpt>
      <trkpt lat="44.43975" lon="4.09832">
        <ele>403</ele>
        <time>2020-06-08T18:25:03Z</time>
      </trkpt>
      <trkpt lat="44.43963" lon="4.09816">
        <ele>402</ele>
        <time>2020-06-08T18:25:07Z</time>
      </trkpt>
      <trkpt lat="44.43832" lon="4.09788">
        <ele>400</ele>
        <time>2020-06-08T18:25:38Z</time>
      </trkpt>
      <trkpt lat="44.43808" lon="4.09793">
        <ele>398</ele>
        <time>2020-06-08T18:25:44Z</time>
      </trkpt>
      <trkpt lat="44.43786" lon="4.09806">
        <ele>396</ele>
        <time>2020-06-08T18:25:49Z</time>
      </trkpt>
      <trkpt lat="44.4374" lon="4.0985">
        <ele>393</ele>
        <time>2020-06-08T18:26:02Z</time>
      </trkpt>
      <trkpt lat="44.43664" lon="4.09942">
        <ele>397</ele>
        <time>2020-06-08T18:26:26Z</time>
      </trkpt>
      <trkpt lat="44.43623" lon="4.10003">
        <ele>396</ele>
        <time>2020-06-08T18:26:40Z</time>
      </trkpt>
      <trkpt lat="44.43614" lon="4.10022">
        <ele>395</ele>
        <time>2020-06-08T18:26:43Z</time>
      </trkpt>
      <trkpt lat="44.43555" lon="4.10217">
        <ele>392</ele>
        <time>2020-06-08T18:27:19Z</time>
      </trkpt>
      <trkpt lat="44.43525" lon="4.10272">
        <ele>393</ele>
        <time>2020-06-08T18:27:30Z</time>
      </trkpt>
      <trkpt lat="44.43509" lon="4.1031">
        <ele>393</ele>
        <time>2020-06-08T18:27:38Z</time>
      </trkpt>
      <trkpt lat="44.43499" lon="4.10351">
        <ele>393</ele>
        <time>2020-06-08T18:27:45Z</time>
      </trkpt>
      <trkpt lat="44.4345" lon="4.10661">
        <ele>381</ele>
        <time>2020-06-08T18:28:38Z</time>
      </trkpt>
      <trkpt lat="44.43323" lon="4.11131">
        <ele>360</ele>
        <time>2020-06-08T18:30:02Z</time>
      </trkpt>
      <trkpt lat="44.43296" lon="4.11179">
        <ele>360</ele>
        <time>2020-06-08T18:30:12Z</time>
      </trkpt>
      <trkpt lat="44.43253" lon="4.11222">
        <ele>360</ele>
        <time>2020-06-08T18:30:24Z</time>
      </trkpt>
      <trkpt lat="44.43279" lon="4.11259">
        <ele>361</ele>
        <time>2020-06-08T18:30:33Z</time>
      </trkpt>
      <trkpt lat="44.43288" lon="4.11282">
        <ele>360</ele>
        <time>2020-06-08T18:30:37Z</time>
      </trkpt>
      <trkpt lat="44.43282" lon="4.11337">
        <ele>358</ele>
        <time>2020-06-08T18:30:46Z</time>
      </trkpt>
      <trkpt lat="44.43278" lon="4.11354">
        <ele>356</ele>
        <time>2020-06-08T18:30:49Z</time>
      </trkpt>
      <trkpt lat="44.43261" lon="4.11386">
        <ele>356</ele>
        <time>2020-06-08T18:30:56Z</time>
      </trkpt>
      <trkpt lat="44.43258" lon="4.11454">
        <ele>352</ele>
        <time>2020-06-08T18:31:07Z</time>
      </trkpt>
      <trkpt lat="44.43268" lon="4.11509">
        <ele>347</ele>
        <time>2020-06-08T18:31:17Z</time>
      </trkpt>
      <trkpt lat="44.43267" lon="4.11525">
        <ele>347</ele>
        <time>2020-06-08T18:31:20Z</time>
      </trkpt>
      <trkpt lat="44.43246" lon="4.11637">
        <ele>345</ele>
        <time>2020-06-08T18:31:39Z</time>
      </trkpt>
      <trkpt lat="44.4325" lon="4.11655">
        <ele>344</ele>
        <time>2020-06-08T18:31:42Z</time>
      </trkpt>
      <trkpt lat="44.43248" lon="4.11681">
        <ele>342</ele>
        <time>2020-06-08T18:31:46Z</time>
      </trkpt>
      <trkpt lat="44.43218" lon="4.11789">
        <ele>338</ele>
        <time>2020-06-08T18:32:06Z</time>
      </trkpt>
      <trkpt lat="44.43192" lon="4.1187">
        <ele>338</ele>
        <time>2020-06-08T18:32:20Z</time>
      </trkpt>
      <trkpt lat="44.43167" lon="4.11915">
        <ele>339</ele>
        <time>2020-06-08T18:32:30Z</time>
      </trkpt>
      <trkpt lat="44.43154" lon="4.11929">
        <ele>338</ele>
        <time>2020-06-08T18:32:34Z</time>
      </trkpt>
      <trkpt lat="44.43101" lon="4.11961">
        <ele>334</ele>
        <time>2020-06-08T18:32:47Z</time>
      </trkpt>
      <trkpt lat="44.43087" lon="4.12013">
        <ele>332</ele>
        <time>2020-06-08T18:32:57Z</time>
      </trkpt>
      <trkpt lat="44.43081" lon="4.12048">
        <ele>329</ele>
        <time>2020-06-08T18:33:03Z</time>
      </trkpt>
      <trkpt lat="44.43074" lon="4.12064">
        <ele>328</ele>
        <time>2020-06-08T18:33:06Z</time>
      </trkpt>
      <trkpt lat="44.43051" lon="4.12099">
        <ele>324</ele>
        <time>2020-06-08T18:33:14Z</time>
      </trkpt>
      <trkpt lat="44.43009" lon="4.1221">
        <ele>318</ele>
        <time>2020-06-08T18:33:35Z</time>
      </trkpt>
      <trkpt lat="44.42957" lon="4.12318">
        <ele>311</ele>
        <time>2020-06-08T18:33:56Z</time>
      </trkpt>
      <trkpt lat="44.4295" lon="4.1236">
        <ele>310</ele>
        <time>2020-06-08T18:34:03Z</time>
      </trkpt>
      <trkpt lat="44.4294" lon="4.124">
        <ele>310</ele>
        <time>2020-06-08T18:34:11Z</time>
      </trkpt>
      <trkpt lat="44.42939" lon="4.12455">
        <ele>306</ele>
        <time>2020-06-08T18:34:20Z</time>
      </trkpt>
      <trkpt lat="44.42935" lon="4.12471">
        <ele>305</ele>
        <time>2020-06-08T18:34:23Z</time>
      </trkpt>
      <trkpt lat="44.42887" lon="4.12571">
        <ele>303</ele>
        <time>2020-06-08T18:34:43Z</time>
      </trkpt>
      <trkpt lat="44.42883" lon="4.12589">
        <ele>302</ele>
        <time>2020-06-08T18:34:46Z</time>
      </trkpt>
      <trkpt lat="44.4288" lon="4.12678">
        <ele>301</ele>
        <time>2020-06-08T18:35:01Z</time>
      </trkpt>
      <trkpt lat="44.42878" lon="4.1269">
        <ele>300</ele>
        <time>2020-06-08T18:35:03Z</time>
      </trkpt>
      <trkpt lat="44.42874" lon="4.12696">
        <ele>300</ele>
        <time>2020-06-08T18:35:04Z</time>
      </trkpt>
      <trkpt lat="44.42865" lon="4.12691">
        <ele>301</ele>
        <time>2020-06-08T18:35:06Z</time>
      </trkpt>
      <trkpt lat="44.42838" lon="4.12628">
        <ele>304</ele>
        <time>2020-06-08T18:35:19Z</time>
      </trkpt>
      <trkpt lat="44.4283" lon="4.12617">
        <ele>304</ele>
        <time>2020-06-08T18:35:21Z</time>
      </trkpt>
      <trkpt lat="44.42807" lon="4.12621">
        <ele>302</ele>
        <time>2020-06-08T18:35:27Z</time>
      </trkpt>
      <trkpt lat="44.42801" lon="4.12574">
        <ele>301</ele>
        <time>2020-06-08T18:35:35Z</time>
      </trkpt>
      <trkpt lat="44.42812" lon="4.12458">
        <ele>304</ele>
        <time>2020-06-08T18:35:54Z</time>
      </trkpt>
      <trkpt lat="44.42821" lon="4.12414">
        <ele>306</ele>
        <time>2020-06-08T18:36:02Z</time>
      </trkpt>
      <trkpt lat="44.42898" lon="4.12213">
        <ele>307</ele>
        <time>2020-06-08T18:36:40Z</time>
      </trkpt>
      <trkpt lat="44.42901" lon="4.12157">
        <ele>305</ele>
        <time>2020-06-08T18:36:49Z</time>
      </trkpt>
      <trkpt lat="44.42945" lon="4.12032">
        <ele>309</ele>
        <time>2020-06-08T18:37:12Z</time>
      </trkpt>
      <trkpt lat="44.42928" lon="4.12031">
        <ele>305</ele>
        <time>2020-06-08T18:37:16Z</time>
      </trkpt>
      <trkpt lat="44.42906" lon="4.12093">
        <ele>302</ele>
        <time>2020-06-08T18:37:28Z</time>
      </trkpt>
      <trkpt lat="44.42869" lon="4.12179">
        <ele>299</ele>
        <time>2020-06-08T18:37:45Z</time>
      </trkpt>
      <trkpt lat="44.42787" lon="4.12326">
        <ele>297</ele>
        <time>2020-06-08T18:38:16Z</time>
      </trkpt>
      <trkpt lat="44.42743" lon="4.12384">
        <ele>294</ele>
        <time>2020-06-08T18:38:30Z</time>
      </trkpt>
      <trkpt lat="44.42706" lon="4.12417">
        <ele>290</ele>
        <time>2020-06-08T18:38:40Z</time>
      </trkpt>
      <trkpt lat="44.4269" lon="4.12423">
        <ele>286</ele>
        <time>2020-06-08T18:38:44Z</time>
      </trkpt>
      <trkpt lat="44.42653" lon="4.12474">
        <ele>280</ele>
        <time>2020-06-08T18:38:56Z</time>
      </trkpt>
      <trkpt lat="44.42547" lon="4.12577">
        <ele>268</ele>
        <time>2020-06-08T18:39:26Z</time>
      </trkpt>
      <trkpt lat="44.42533" lon="4.12655">
        <ele>266</ele>
        <time>2020-06-08T18:39:40Z</time>
      </trkpt>
      <trkpt lat="44.42538" lon="4.1271">
        <ele>263</ele>
        <time>2020-06-08T18:39:49Z</time>
      </trkpt>
      <trkpt lat="44.42515" lon="4.12706">
        <ele>257</ele>
        <time>2020-06-08T18:39:54Z</time>
      </trkpt>
      <trkpt lat="44.42518" lon="4.12722">
        <ele>256</ele>
        <time>2020-06-08T18:39:57Z</time>
      </trkpt>
      <trkpt lat="44.42447" lon="4.12718">
        <ele>241</ele>
        <time>2020-06-08T18:40:14Z</time>
      </trkpt>
      <trkpt lat="44.42434" lon="4.12726">
        <ele>237</ele>
        <time>2020-06-08T18:40:17Z</time>
      </trkpt>
      <trkpt lat="44.4241" lon="4.12729">
        <ele>233</ele>
        <time>2020-06-08T18:40:23Z</time>
      </trkpt>
      <trkpt lat="44.42372" lon="4.12725">
        <ele>227</ele>
        <time>2020-06-08T18:40:31Z</time>
      </trkpt>
      <trkpt lat="44.42346" lon="4.12734">
        <ele>222</ele>
        <time>2020-06-08T18:40:38Z</time>
      </trkpt>
      <trkpt lat="44.42317" lon="4.12716">
        <ele>217</ele>
        <time>2020-06-08T18:40:45Z</time>
      </trkpt>
      <trkpt lat="44.42276" lon="4.12742">
        <ele>206</ele>
        <time>2020-06-08T18:40:56Z</time>
      </trkpt>
      <trkpt lat="44.42243" lon="4.12759">
        <ele>199</ele>
        <time>2020-06-08T18:41:04Z</time>
      </trkpt>
      <trkpt lat="44.42239" lon="4.12694">
        <ele>201</ele>
        <time>2020-06-08T18:41:15Z</time>
      </trkpt>
      <trkpt lat="44.42232" lon="4.12688">
        <ele>200</ele>
        <time>2020-06-08T18:41:17Z</time>
      </trkpt>
      <trkpt lat="44.42226" lon="4.12691">
        <ele>200</ele>
        <time>2020-06-08T18:41:18Z</time>
      </trkpt>
      <trkpt lat="44.42219" lon="4.12757">
        <ele>197</ele>
        <time>2020-06-08T18:41:29Z</time>
      </trkpt>
      <trkpt lat="44.4222" lon="4.12793">
        <ele>197</ele>
        <time>2020-06-08T18:41:35Z</time>
      </trkpt>
      <trkpt lat="44.42213" lon="4.12818">
        <ele>196</ele>
        <time>2020-06-08T18:41:40Z</time>
      </trkpt>
      <trkpt lat="44.42203" lon="4.12819">
        <ele>195</ele>
        <time>2020-06-08T18:41:42Z</time>
      </trkpt>
      <trkpt lat="44.42197" lon="4.12807">
        <ele>194</ele>
        <time>2020-06-08T18:41:45Z</time>
      </trkpt>
      <trkpt lat="44.42194" lon="4.12781">
        <ele>194</ele>
        <time>2020-06-08T18:41:49Z</time>
      </trkpt>
      <trkpt lat="44.42184" lon="4.12756">
        <ele>193</ele>
        <time>2020-06-08T18:41:54Z</time>
      </trkpt>
      <trkpt lat="44.42166" lon="4.12751">
        <ele>191</ele>
        <time>2020-06-08T18:41:58Z</time>
      </trkpt>
      <trkpt lat="44.42161" lon="4.12752">
        <ele>192</ele>
        <time>2020-06-08T18:41:59Z</time>
      </trkpt>
      <trkpt lat="44.42158" lon="4.1276">
        <ele>193</ele>
        <time>2020-06-08T18:42:01Z</time>
      </trkpt>
      <trkpt lat="44.4215" lon="4.12796">
        <ele>193</ele>
        <time>2020-06-08T18:42:07Z</time>
      </trkpt>
      <trkpt lat="44.42126" lon="4.12829">
        <ele>197</ele>
        <time>2020-06-08T18:42:15Z</time>
      </trkpt>
      <trkpt lat="44.42129" lon="4.1281">
        <ele>197</ele>
        <time>2020-06-08T18:42:18Z</time>
      </trkpt>
      <trkpt lat="44.42124" lon="4.12765">
        <ele>199</ele>
        <time>2020-06-08T18:42:26Z</time>
      </trkpt>
      <trkpt lat="44.42127" lon="4.12715">
        <ele>202</ele>
        <time>2020-06-08T18:42:34Z</time>
      </trkpt>
      <trkpt lat="44.42121" lon="4.12713">
        <ele>203</ele>
        <time>2020-06-08T18:42:36Z</time>
      </trkpt>
      <trkpt lat="44.42099" lon="4.12758">
        <ele>205</ele>
        <time>2020-06-08T18:42:45Z</time>
      </trkpt>
      <trkpt lat="44.42091" lon="4.12804">
        <ele>205</ele>
        <time>2020-06-08T18:42:52Z</time>
      </trkpt>
      <trkpt lat="44.42075" lon="4.12824">
        <ele>205</ele>
        <time>2020-06-08T18:42:58Z</time>
      </trkpt>
      <trkpt lat="44.42006" lon="4.12717">
        <ele>212</ele>
        <time>2020-06-08T18:43:22Z</time>
      </trkpt>
      <trkpt lat="44.41989" lon="4.12678">
        <ele>216</ele>
        <time>2020-06-08T18:43:29Z</time>
      </trkpt>
      <trkpt lat="44.41948" lon="4.12687">
        <ele>215</ele>
        <time>2020-06-08T18:43:39Z</time>
      </trkpt>
      <trkpt lat="44.41929" lon="4.12727">
        <ele>212</ele>
        <time>2020-06-08T18:43:47Z</time>
      </trkpt>
      <trkpt lat="44.41887" lon="4.12729">
        <ele>209</ele>
        <time>2020-06-08T18:43:57Z</time>
      </trkpt>
      <trkpt lat="44.41872" lon="4.12689">
        <ele>210</ele>
        <time>2020-06-08T18:44:04Z</time>
      </trkpt>
      <trkpt lat="44.41846" lon="4.12648">
        <ele>209</ele>
        <time>2020-06-08T18:44:13Z</time>
      </trkpt>
      <trkpt lat="44.41835" lon="4.12614">
        <ele>208</ele>
        <time>2020-06-08T18:44:20Z</time>
      </trkpt>
      <trkpt lat="44.4184" lon="4.12553">
        <ele>208</ele>
        <time>2020-06-08T18:44:30Z</time>
      </trkpt>
      <trkpt lat="44.41862" lon="4.12524">
        <ele>211</ele>
        <time>2020-06-08T18:44:37Z</time>
      </trkpt>
      <trkpt lat="44.41871" lon="4.12497">
        <ele>212</ele>
        <time>2020-06-08T18:44:42Z</time>
      </trkpt>
      <trkpt lat="44.41906" lon="4.12425">
        <ele>214</ele>
        <time>2020-06-08T18:44:56Z</time>
      </trkpt>
      <trkpt lat="44.41909" lon="4.12406">
        <ele>214</ele>
        <time>2020-06-08T18:45:00Z</time>
      </trkpt>
      <trkpt lat="44.41909" lon="4.12378">
        <ele>212</ele>
        <time>2020-06-08T18:45:04Z</time>
      </trkpt>
      <trkpt lat="44.41917" lon="4.12338">
        <ele>211</ele>
        <time>2020-06-08T18:45:11Z</time>
      </trkpt>
      <trkpt lat="44.41935" lon="4.12311">
        <ele>213</ele>
        <time>2020-06-08T18:45:17Z</time>
      </trkpt>
      <trkpt lat="44.41947" lon="4.12288">
        <ele>215</ele>
        <time>2020-06-08T18:45:22Z</time>
      </trkpt>
      <trkpt lat="44.41974" lon="4.1228">
        <ele>218</ele>
        <time>2020-06-08T18:45:29Z</time>
      </trkpt>
      <trkpt lat="44.42011" lon="4.12221">
        <ele>219</ele>
        <time>2020-06-08T18:45:42Z</time>
      </trkpt>
      <trkpt lat="44.41962" lon="4.12233">
        <ele>215</ele>
        <time>2020-06-08T18:45:53Z</time>
      </trkpt>
      <trkpt lat="44.41824" lon="4.1225">
        <ele>197</ele>
        <time>2020-06-08T18:46:26Z</time>
      </trkpt>
      <trkpt lat="44.4178" lon="4.12264">
        <ele>190</ele>
        <time>2020-06-08T18:46:36Z</time>
      </trkpt>
      <trkpt lat="44.41774" lon="4.12282">
        <ele>190</ele>
        <time>2020-06-08T18:46:40Z</time>
      </trkpt>
      <trkpt lat="44.41778" lon="4.123">
        <ele>190</ele>
        <time>2020-06-08T18:46:43Z</time>
      </trkpt>
      <trkpt lat="44.41792" lon="4.12331">
        <ele>193</ele>
        <time>2020-06-08T18:46:49Z</time>
      </trkpt>
      <trkpt lat="44.41807" lon="4.12333">
        <ele>195</ele>
        <time>2020-06-08T18:46:52Z</time>
      </trkpt>
      <trkpt lat="44.41816" lon="4.12351">
        <ele>196</ele>
        <time>2020-06-08T18:46:56Z</time>
      </trkpt>
      <trkpt lat="44.41811" lon="4.12397">
        <ele>195</ele>
        <time>2020-06-08T18:47:04Z</time>
      </trkpt>
      <trkpt lat="44.41791" lon="4.12431">
        <ele>193</ele>
        <time>2020-06-08T18:47:11Z</time>
      </trkpt>
      <trkpt lat="44.41778" lon="4.12474">
        <ele>194</ele>
        <time>2020-06-08T18:47:19Z</time>
      </trkpt>
      <trkpt lat="44.41763" lon="4.12565">
        <ele>195</ele>
        <time>2020-06-08T18:47:34Z</time>
      </trkpt>
      <trkpt lat="44.4176" lon="4.12603">
        <ele>194</ele>
        <time>2020-06-08T18:47:41Z</time>
      </trkpt>
      <trkpt lat="44.41763" lon="4.12635">
        <ele>194</ele>
        <time>2020-06-08T18:47:46Z</time>
      </trkpt>
      <trkpt lat="44.41775" lon="4.12692">
        <ele>194</ele>
        <time>2020-06-08T18:47:56Z</time>
      </trkpt>
      <trkpt lat="44.41771" lon="4.12722">
        <ele>191</ele>
        <time>2020-06-08T18:48:01Z</time>
      </trkpt>
      <trkpt lat="44.4175" lon="4.12772">
        <ele>183</ele>
        <time>2020-06-08T18:48:11Z</time>
      </trkpt>
      <trkpt lat="44.41732" lon="4.12784">
        <ele>180</ele>
        <time>2020-06-08T18:48:16Z</time>
      </trkpt>
      <trkpt lat="44.41717" lon="4.12781">
        <ele>177</ele>
        <time>2020-06-08T18:48:19Z</time>
      </trkpt>
      <trkpt lat="44.41632" lon="4.12741">
        <ele>167</ele>
        <time>2020-06-08T18:48:40Z</time>
      </trkpt>
      <trkpt lat="44.41611" lon="4.12744">
        <ele>165</ele>
        <time>2020-06-08T18:48:45Z</time>
      </trkpt>
      <trkpt lat="44.41595" lon="4.12763">
        <ele>163</ele>
        <time>2020-06-08T18:48:50Z</time>
      </trkpt>
      <trkpt lat="44.41587" lon="4.12754">
        <ele>162</ele>
        <time>2020-06-08T18:48:52Z</time>
      </trkpt>
      <trkpt lat="44.41432" lon="4.12672">
        <ele>149</ele>
        <time>2020-06-08T18:49:31Z</time>
      </trkpt>
      <trkpt lat="44.4132" lon="4.12625">
        <ele>165</ele>
        <time>2020-06-08T18:49:58Z</time>
      </trkpt>
      <trkpt lat="44.41305" lon="4.12625">
        <ele>174</ele>
        <time>2020-06-08T18:50:02Z</time>
      </trkpt>
      <trkpt lat="44.41295" lon="4.12715">
        <ele>175</ele>
        <time>2020-06-08T18:50:17Z</time>
      </trkpt>
      <trkpt lat="44.41235" lon="4.13116">
        <ele>177</ele>
        <time>2020-06-08T18:51:25Z</time>
      </trkpt>
      <trkpt lat="44.41227" lon="4.13158">
        <ele>176</ele>
        <time>2020-06-08T18:51:33Z</time>
      </trkpt>
      <trkpt lat="44.41219" lon="4.13184">
        <ele>176</ele>
        <time>2020-06-08T18:51:37Z</time>
      </trkpt>
      <trkpt lat="44.41201" lon="4.13199">
        <ele>178</ele>
        <time>2020-06-08T18:51:42Z</time>
      </trkpt>
      <trkpt lat="44.41067" lon="4.13168">
        <ele>189</ele>
        <time>2020-06-08T18:52:14Z</time>
      </trkpt>
      <trkpt lat="44.41003" lon="4.13174">
        <ele>191</ele>
        <time>2020-06-08T18:52:29Z</time>
      </trkpt>
      <trkpt lat="44.4096" lon="4.13197">
        <ele>191</ele>
        <time>2020-06-08T18:52:40Z</time>
      </trkpt>
      <trkpt lat="44.40906" lon="4.1317">
        <ele>189</ele>
        <time>2020-06-08T18:52:53Z</time>
      </trkpt>
      <trkpt lat="44.40839" lon="4.13128">
        <ele>186</ele>
        <time>2020-06-08T18:53:10Z</time>
      </trkpt>
      <trkpt lat="44.40766" lon="4.13096">
        <ele>187</ele>
        <time>2020-06-08T18:53:28Z</time>
      </trkpt>
      <trkpt lat="44.40716" lon="4.13085">
        <ele>186</ele>
        <time>2020-06-08T18:53:40Z</time>
      </trkpt>
      <trkpt lat="44.40669" lon="4.13086">
        <ele>184</ele>
        <time>2020-06-08T18:53:51Z</time>
      </trkpt>
      <trkpt lat="44.40636" lon="4.131">
        <ele>182</ele>
        <time>2020-06-08T18:53:59Z</time>
      </trkpt>
      <trkpt lat="44.4059" lon="4.13151">
        <ele>177</ele>
        <time>2020-06-08T18:54:13Z</time>
      </trkpt>
      <trkpt lat="44.40613" lon="4.13243">
        <ele>175</ele>
        <time>2020-06-08T18:54:29Z</time>
      </trkpt>
      <trkpt lat="44.40609" lon="4.13271">
        <ele>174</ele>
        <time>2020-06-08T18:54:34Z</time>
      </trkpt>
      <trkpt lat="44.40595" lon="4.13458">
        <ele>168</ele>
        <time>2020-06-08T18:55:05Z</time>
      </trkpt>
      <trkpt lat="44.40605" lon="4.13481">
        <ele>168</ele>
        <time>2020-06-08T18:55:09Z</time>
      </trkpt>
      <trkpt lat="44.40642" lon="4.13534">
        <ele>169</ele>
        <time>2020-06-08T18:55:22Z</time>
      </trkpt>
      <trkpt lat="44.4065" lon="4.13555">
        <ele>169</ele>
        <time>2020-06-08T18:55:26Z</time>
      </trkpt>
      <trkpt lat="44.40645" lon="4.13603">
        <ele>168</ele>
        <time>2020-06-08T18:55:34Z</time>
      </trkpt>
      <trkpt lat="44.40631" lon="4.13625">
        <ele>167</ele>
        <time>2020-06-08T18:55:39Z</time>
      </trkpt>
      <trkpt lat="44.40607" lon="4.13635">
        <ele>166</ele>
        <time>2020-06-08T18:55:45Z</time>
      </trkpt>
      <trkpt lat="44.40587" lon="4.13636">
        <ele>166</ele>
        <time>2020-06-08T18:55:49Z</time>
      </trkpt>
      <trkpt lat="44.40534" lon="4.13661">
        <ele>170</ele>
        <time>2020-06-08T18:56:02Z</time>
      </trkpt>
      <trkpt lat="44.40501" lon="4.1369">
        <ele>172</ele>
        <time>2020-06-08T18:56:11Z</time>
      </trkpt>
      <trkpt lat="44.40482" lon="4.13713">
        <ele>174</ele>
        <time>2020-06-08T18:56:17Z</time>
      </trkpt>
      <trkpt lat="44.40457" lon="4.13757">
        <ele>177</ele>
        <time>2020-06-08T18:56:27Z</time>
      </trkpt>
      <trkpt lat="44.40442" lon="4.13768">
        <ele>179</ele>
        <time>2020-06-08T18:56:31Z</time>
      </trkpt>
      <trkpt lat="44.40429" lon="4.1377">
        <ele>181</ele>
        <time>2020-06-08T18:56:34Z</time>
      </trkpt>
      <trkpt lat="44.40421" lon="4.13781">
        <ele>182</ele>
        <time>2020-06-08T18:56:36Z</time>
      </trkpt>
      <trkpt lat="44.4042" lon="4.13796">
        <ele>184</ele>
        <time>2020-06-08T18:56:39Z</time>
      </trkpt>
      <trkpt lat="44.40431" lon="4.13846">
        <ele>185</ele>
        <time>2020-06-08T18:56:48Z</time>
      </trkpt>
      <trkpt lat="44.40428" lon="4.1387">
        <ele>185</ele>
        <time>2020-06-08T18:56:52Z</time>
      </trkpt>
      <trkpt lat="44.40418" lon="4.13916">
        <ele>185</ele>
        <time>2020-06-08T18:57:00Z</time>
      </trkpt>
      <trkpt lat="44.40373" lon="4.14089">
        <ele>186</ele>
        <time>2020-06-08T18:57:30Z</time>
      </trkpt>
      <trkpt lat="44.40373" lon="4.14111">
        <ele>186</ele>
        <time>2020-06-08T18:57:34Z</time>
      </trkpt>
      <trkpt lat="44.40378" lon="4.1413">
        <ele>186</ele>
        <time>2020-06-08T18:57:37Z</time>
      </trkpt>
      <trkpt lat="44.40391" lon="4.14143">
        <ele>186</ele>
        <time>2020-06-08T18:57:41Z</time>
      </trkpt>
      <trkpt lat="44.40406" lon="4.14147">
        <ele>186</ele>
        <time>2020-06-08T18:57:45Z</time>
      </trkpt>
      <trkpt lat="44.4042" lon="4.14143">
        <ele>185</ele>
        <time>2020-06-08T18:57:48Z</time>
      </trkpt>
      <trkpt lat="44.40437" lon="4.14131">
        <ele>186</ele>
        <time>2020-06-08T18:57:52Z</time>
      </trkpt>
      <trkpt lat="44.40459" lon="4.14126">
        <ele>187</ele>
        <time>2020-06-08T18:57:58Z</time>
      </trkpt>
      <trkpt lat="44.40502" lon="4.14107">
        <ele>189</ele>
        <time>2020-06-08T18:58:08Z</time>
      </trkpt>
      <trkpt lat="44.40544" lon="4.14093">
        <ele>192</ele>
        <time>2020-06-08T18:58:18Z</time>
      </trkpt>
      <trkpt lat="44.40592" lon="4.14087">
        <ele>194</ele>
        <time>2020-06-08T18:58:30Z</time>
      </trkpt>
      <trkpt lat="44.40657" lon="4.141">
        <ele>195</ele>
        <time>2020-06-08T18:58:45Z</time>
      </trkpt>
      <trkpt lat="44.40688" lon="4.14112">
        <ele>195</ele>
        <time>2020-06-08T18:58:52Z</time>
      </trkpt>
      <trkpt lat="44.40701" lon="4.14124">
        <ele>195</ele>
        <time>2020-06-08T18:58:56Z</time>
      </trkpt>
      <trkpt lat="44.40703" lon="4.14141">
        <ele>198</ele>
        <time>2020-06-08T18:58:59Z</time>
      </trkpt>
      <trkpt lat="44.40697" lon="4.14152">
        <ele>200</ele>
        <time>2020-06-08T18:59:01Z</time>
      </trkpt>
      <trkpt lat="44.40641" lon="4.14157">
        <ele>204</ele>
        <time>2020-06-08T18:59:14Z</time>
      </trkpt>
      <trkpt lat="44.40605" lon="4.14171">
        <ele>206</ele>
        <time>2020-06-08T18:59:23Z</time>
      </trkpt>
      <trkpt lat="44.4057" lon="4.14198">
        <ele>210</ele>
        <time>2020-06-08T18:59:32Z</time>
      </trkpt>
      <trkpt lat="44.40533" lon="4.1425">
        <ele>214</ele>
        <time>2020-06-08T18:59:45Z</time>
      </trkpt>
      <trkpt lat="44.40464" lon="4.14388">
        <ele>228</ele>
        <time>2020-06-08T19:00:13Z</time>
      </trkpt>
      <trkpt lat="44.40445" lon="4.14431">
        <ele>229</ele>
        <time>2020-06-08T19:00:21Z</time>
      </trkpt>
      <trkpt lat="44.40435" lon="4.14487">
        <ele>236</ele>
        <time>2020-06-08T19:00:31Z</time>
      </trkpt>
      <trkpt lat="44.40408" lon="4.14558">
        <ele>235</ele>
        <time>2020-06-08T19:00:44Z</time>
      </trkpt>
      <trkpt lat="44.40391" lon="4.14652">
        <ele>243</ele>
        <time>2020-06-08T19:01:00Z</time>
      </trkpt>
      <trkpt lat="44.40379" lon="4.14686">
        <ele>246</ele>
        <time>2020-06-08T19:01:07Z</time>
      </trkpt>
      <trkpt lat="44.40327" lon="4.14749">
        <ele>247</ele>
        <time>2020-06-08T19:01:23Z</time>
      </trkpt>
      <trkpt lat="44.40308" lon="4.14754">
        <ele>246</ele>
        <time>2020-06-08T19:01:27Z</time>
      </trkpt>
      <trkpt lat="44.40281" lon="4.14747">
        <ele>241</ele>
        <time>2020-06-08T19:01:34Z</time>
      </trkpt>
      <trkpt lat="44.4025" lon="4.14748">
        <ele>238</ele>
        <time>2020-06-08T19:01:41Z</time>
      </trkpt>
      <trkpt lat="44.40219" lon="4.14762">
        <ele>240</ele>
        <time>2020-06-08T19:01:49Z</time>
      </trkpt>
      <trkpt lat="44.40187" lon="4.14799">
        <ele>246</ele>
        <time>2020-06-08T19:01:58Z</time>
      </trkpt>
      <trkpt lat="44.4018" lon="4.1481">
        <ele>248</ele>
        <time>2020-06-08T19:02:01Z</time>
      </trkpt>
      <trkpt lat="44.40166" lon="4.14809">
        <ele>248</ele>
        <time>2020-06-08T19:02:04Z</time>
      </trkpt>
      <trkpt lat="44.40157" lon="4.14798">
        <ele>246</ele>
        <time>2020-06-08T19:02:07Z</time>
      </trkpt>
      <trkpt lat="44.40146" lon="4.1477">
        <ele>243</ele>
        <time>2020-06-08T19:02:12Z</time>
      </trkpt>
      <trkpt lat="44.40136" lon="4.14755">
        <ele>242</ele>
        <time>2020-06-08T19:02:16Z</time>
      </trkpt>
      <trkpt lat="44.40124" lon="4.1475">
        <ele>245</ele>
        <time>2020-06-08T19:02:18Z</time>
      </trkpt>
      <trkpt lat="44.40116" lon="4.14754">
        <ele>247</ele>
        <time>2020-06-08T19:02:20Z</time>
      </trkpt>
      <trkpt lat="44.40113" lon="4.14764">
        <ele>249</ele>
        <time>2020-06-08T19:02:22Z</time>
      </trkpt>
      <trkpt lat="44.40128" lon="4.14782">
        <ele>248</ele>
        <time>2020-06-08T19:02:27Z</time>
      </trkpt>
      <trkpt lat="44.40162" lon="4.14856">
        <ele>255</ele>
        <time>2020-06-08T19:02:42Z</time>
      </trkpt>
      <trkpt lat="44.40168" lon="4.14875">
        <ele>256</ele>
        <time>2020-06-08T19:02:45Z</time>
      </trkpt>
      <trkpt lat="44.40169" lon="4.14887">
        <ele>257</ele>
        <time>2020-06-08T19:02:47Z</time>
      </trkpt>
      <trkpt lat="44.40145" lon="4.14912">
        <ele>258</ele>
        <time>2020-06-08T19:02:54Z</time>
      </trkpt>
      <trkpt lat="44.40144" lon="4.14926">
        <ele>258</ele>
        <time>2020-06-08T19:02:56Z</time>
      </trkpt>
      <trkpt lat="44.40134" lon="4.14961">
        <ele>259</ele>
        <time>2020-06-08T19:03:03Z</time>
      </trkpt>
      <trkpt lat="44.40133" lon="4.14984">
        <ele>259</ele>
        <time>2020-06-08T19:03:06Z</time>
      </trkpt>
      <trkpt lat="44.40126" lon="4.15007">
        <ele>259</ele>
        <time>2020-06-08T19:03:11Z</time>
      </trkpt>
      <trkpt lat="44.40116" lon="4.15074">
        <ele>258</ele>
        <time>2020-06-08T19:03:22Z</time>
      </trkpt>
      <trkpt lat="44.40111" lon="4.15134">
        <ele>257</ele>
        <time>2020-06-08T19:03:32Z</time>
      </trkpt>
      <trkpt lat="44.40102" lon="4.15172">
        <ele>256</ele>
        <time>2020-06-08T19:03:39Z</time>
      </trkpt>
      <trkpt lat="44.40099" lon="4.15207">
        <ele>255</ele>
        <time>2020-06-08T19:03:45Z</time>
      </trkpt>
      <trkpt lat="44.40084" lon="4.153">
        <ele>253</ele>
        <time>2020-06-08T19:04:01Z</time>
      </trkpt>
      <trkpt lat="44.40077" lon="4.15435">
        <ele>251</ele>
        <time>2020-06-08T19:04:23Z</time>
      </trkpt>
      <trkpt lat="44.40077" lon="4.15498">
        <ele>251</ele>
        <time>2020-06-08T19:04:34Z</time>
      </trkpt>
      <trkpt lat="44.40072" lon="4.15513">
        <ele>250</ele>
        <time>2020-06-08T19:04:36Z</time>
      </trkpt>
      <trkpt lat="44.40059" lon="4.15595">
        <ele>250</ele>
        <time>2020-06-08T19:04:51Z</time>
      </trkpt>
      <trkpt lat="44.4006" lon="4.15617">
        <ele>250</ele>
        <time>2020-06-08T19:04:54Z</time>
      </trkpt>
      <trkpt lat="44.40074" lon="4.15675">
        <ele>251</ele>
        <time>2020-06-08T19:05:04Z</time>
      </trkpt>
      <trkpt lat="44.40084" lon="4.15745">
        <ele>252</ele>
        <time>2020-06-08T19:05:16Z</time>
      </trkpt>
      <trkpt lat="44.40096" lon="4.15801">
        <ele>252</ele>
        <time>2020-06-08T19:05:26Z</time>
      </trkpt>
      <trkpt lat="44.40115" lon="4.15859">
        <ele>253</ele>
        <time>2020-06-08T19:05:37Z</time>
      </trkpt>
      <trkpt lat="44.40167" lon="4.1606">
        <ele>251</ele>
        <time>2020-06-08T19:06:12Z</time>
      </trkpt>
      <trkpt lat="44.40168" lon="4.16076">
        <ele>250</ele>
        <time>2020-06-08T19:06:15Z</time>
      </trkpt>
      <trkpt lat="44.40165" lon="4.16091">
        <ele>250</ele>
        <time>2020-06-08T19:06:18Z</time>
      </trkpt>
      <trkpt lat="44.40139" lon="4.16156">
        <ele>248</ele>
        <time>2020-06-08T19:06:30Z</time>
      </trkpt>
      <trkpt lat="44.40116" lon="4.16278">
        <ele>245</ele>
        <time>2020-06-08T19:06:51Z</time>
      </trkpt>
      <trkpt lat="44.40123" lon="4.16347">
        <ele>244</ele>
        <time>2020-06-08T19:07:03Z</time>
      </trkpt>
      <trkpt lat="44.40129" lon="4.16361">
        <ele>244</ele>
        <time>2020-06-08T19:07:05Z</time>
      </trkpt>
      <trkpt lat="44.40126" lon="4.16395">
        <ele>243</ele>
        <time>2020-06-08T19:07:11Z</time>
      </trkpt>
      <trkpt lat="44.40127" lon="4.16424">
        <ele>243</ele>
        <time>2020-06-08T19:07:16Z</time>
      </trkpt>
      <trkpt lat="44.40119" lon="4.16517">
        <ele>244</ele>
        <time>2020-06-08T19:07:32Z</time>
      </trkpt>
      <trkpt lat="44.40122" lon="4.16535">
        <ele>244</ele>
        <time>2020-06-08T19:07:35Z</time>
      </trkpt>
      <trkpt lat="44.40159" lon="4.16611">
        <ele>245</ele>
        <time>2020-06-08T19:07:50Z</time>
      </trkpt>
      <trkpt lat="44.40172" lon="4.16649">
        <ele>243</ele>
        <time>2020-06-08T19:07:57Z</time>
      </trkpt>
      <trkpt lat="44.40182" lon="4.16738">
        <ele>240</ele>
        <time>2020-06-08T19:08:12Z</time>
      </trkpt>
      <trkpt lat="44.40188" lon="4.1676">
        <ele>239</ele>
        <time>2020-06-08T19:08:16Z</time>
      </trkpt>
      <trkpt lat="44.40194" lon="4.16823">
        <ele>240</ele>
        <time>2020-06-08T19:08:27Z</time>
      </trkpt>
      <trkpt lat="44.40201" lon="4.16858">
        <ele>238</ele>
        <time>2020-06-08T19:08:33Z</time>
      </trkpt>
      <trkpt lat="44.40201" lon="4.16881">
        <ele>238</ele>
        <time>2020-06-08T19:08:37Z</time>
      </trkpt>
      <trkpt lat="44.40182" lon="4.17008">
        <ele>227</ele>
        <time>2020-06-08T19:08:58Z</time>
      </trkpt>
      <trkpt lat="44.40168" lon="4.17055">
        <ele>225</ele>
        <time>2020-06-08T19:09:07Z</time>
      </trkpt>
      <trkpt lat="44.40162" lon="4.17066">
        <ele>224</ele>
        <time>2020-06-08T19:09:09Z</time>
      </trkpt>
      <trkpt lat="44.40142" lon="4.1709">
        <ele>223</ele>
        <time>2020-06-08T19:09:15Z</time>
      </trkpt>
      <trkpt lat="44.4013" lon="4.17113">
        <ele>221</ele>
        <time>2020-06-08T19:09:20Z</time>
      </trkpt>
      <trkpt lat="44.40112" lon="4.1713">
        <ele>222</ele>
        <time>2020-06-08T19:09:25Z</time>
      </trkpt>
      <trkpt lat="44.40109" lon="4.17137">
        <ele>222</ele>
        <time>2020-06-08T19:09:26Z</time>
      </trkpt>
      <trkpt lat="44.40109" lon="4.17147">
        <ele>221</ele>
        <time>2020-06-08T19:09:28Z</time>
      </trkpt>
      <trkpt lat="44.40102" lon="4.17146">
        <ele>222</ele>
        <time>2020-06-08T19:09:30Z</time>
      </trkpt>
      <trkpt lat="44.40125" lon="4.17167">
        <ele>216</ele>
        <time>2020-06-08T19:09:36Z</time>
      </trkpt>
      <trkpt lat="44.40121" lon="4.17256">
        <ele>221</ele>
        <time>2020-06-08T19:09:51Z</time>
      </trkpt>
      <trkpt lat="44.40121" lon="4.17398">
        <ele>233</ele>
        <time>2020-06-08T19:10:15Z</time>
      </trkpt>
      <trkpt lat="44.40125" lon="4.17422">
        <ele>234</ele>
        <time>2020-06-08T19:10:19Z</time>
      </trkpt>
      <trkpt lat="44.40034" lon="4.17458">
        <ele>234</ele>
        <time>2020-06-08T19:10:41Z</time>
      </trkpt>
      <trkpt lat="44.3986" lon="4.17535">
        <ele>233</ele>
        <time>2020-06-08T19:11:24Z</time>
      </trkpt>
      <trkpt lat="44.39836" lon="4.17574">
        <ele>230</ele>
        <time>2020-06-08T19:11:32Z</time>
      </trkpt>
      <trkpt lat="44.39809" lon="4.17649">
        <ele>227</ele>
        <time>2020-06-08T19:11:46Z</time>
      </trkpt>
      <trkpt lat="44.39774" lon="4.17726">
        <ele>225</ele>
        <time>2020-06-08T19:12:01Z</time>
      </trkpt>
      <trkpt lat="44.39739" lon="4.17778">
        <ele>222</ele>
        <time>2020-06-08T19:12:13Z</time>
      </trkpt>
      <trkpt lat="44.39708" lon="4.17876">
        <ele>218</ele>
        <time>2020-06-08T19:12:31Z</time>
      </trkpt>
      <trkpt lat="44.3969" lon="4.18034">
        <ele>216</ele>
        <time>2020-06-08T19:12:58Z</time>
      </trkpt>
      <trkpt lat="44.39681" lon="4.18139">
        <ele>220</ele>
        <time>2020-06-08T19:13:15Z</time>
      </trkpt>
      <trkpt lat="44.39647" lon="4.18257">
        <ele>219</ele>
        <time>2020-06-08T19:13:37Z</time>
      </trkpt>
      <trkpt lat="44.39615" lon="4.18387">
        <ele>216</ele>
        <time>2020-06-08T19:14:00Z</time>
      </trkpt>
      <trkpt lat="44.396" lon="4.18486">
        <ele>215</ele>
        <time>2020-06-08T19:14:17Z</time>
      </trkpt>
      <trkpt lat="44.39588" lon="4.18587">
        <ele>211</ele>
        <time>2020-06-08T19:14:34Z</time>
      </trkpt>
      <trkpt lat="44.39574" lon="4.1865">
        <ele>211</ele>
        <time>2020-06-08T19:14:45Z</time>
      </trkpt>
      <trkpt lat="44.39578" lon="4.18705">
        <ele>211</ele>
        <time>2020-06-08T19:14:54Z</time>
      </trkpt>
      <trkpt lat="44.39567" lon="4.18759">
        <ele>211</ele>
        <time>2020-06-08T19:15:03Z</time>
      </trkpt>
      <trkpt lat="44.39536" lon="4.18819">
        <ele>211</ele>
        <time>2020-06-08T19:15:16Z</time>
      </trkpt>
      <trkpt lat="44.39565" lon="4.18954">
        <ele>208</ele>
        <time>2020-06-08T19:15:39Z</time>
      </trkpt>
      <trkpt lat="44.39584" lon="4.19057">
        <ele>204</ele>
        <time>2020-06-08T19:15:57Z</time>
      </trkpt>
      <trkpt lat="44.39593" lon="4.19136">
        <ele>194</ele>
        <time>2020-06-08T19:16:10Z</time>
      </trkpt>
      <trkpt lat="44.39541" lon="4.19168">
        <ele>191</ele>
        <time>2020-06-08T19:16:23Z</time>
      </trkpt>
      <trkpt lat="44.39515" lon="4.19175">
        <ele>191</ele>
        <time>2020-06-08T19:16:30Z</time>
      </trkpt>
      <trkpt lat="44.39489" lon="4.19194">
        <ele>189</ele>
        <time>2020-06-08T19:16:36Z</time>
      </trkpt>
      <trkpt lat="44.39468" lon="4.19217">
        <ele>187</ele>
        <time>2020-06-08T19:16:43Z</time>
      </trkpt>
      <trkpt lat="44.39427" lon="4.19233">
        <ele>188</ele>
        <time>2020-06-08T19:16:53Z</time>
      </trkpt>
      <trkpt lat="44.39405" lon="4.19238">
        <ele>189</ele>
        <time>2020-06-08T19:16:58Z</time>
      </trkpt>
      <trkpt lat="44.39382" lon="4.19233">
        <ele>190</ele>
        <time>2020-06-08T19:17:03Z</time>
      </trkpt>
      <trkpt lat="44.39366" lon="4.19208">
        <ele>191</ele>
        <time>2020-06-08T19:17:09Z</time>
      </trkpt>
      <trkpt lat="44.39344" lon="4.19193">
        <ele>191</ele>
        <time>2020-06-08T19:17:15Z</time>
      </trkpt>
      <trkpt lat="44.39339" lon="4.19213">
        <ele>192</ele>
        <time>2020-06-08T19:17:18Z</time>
      </trkpt>
      <trkpt lat="44.39332" lon="4.19225">
        <ele>193</ele>
        <time>2020-06-08T19:17:21Z</time>
      </trkpt>
      <trkpt lat="44.39303" lon="4.19252">
        <ele>195</ele>
        <time>2020-06-08T19:17:29Z</time>
      </trkpt>
      <trkpt lat="44.3929" lon="4.1926">
        <ele>196</ele>
        <time>2020-06-08T19:17:32Z</time>
      </trkpt>
      <trkpt lat="44.39278" lon="4.19278">
        <ele>196</ele>
        <time>2020-06-08T19:17:36Z</time>
      </trkpt>
      <trkpt lat="44.39258" lon="4.19301">
        <ele>196</ele>
        <time>2020-06-08T19:17:42Z</time>
      </trkpt>
      <trkpt lat="44.39247" lon="4.19308">
        <ele>196</ele>
        <time>2020-06-08T19:17:45Z</time>
      </trkpt>
      <trkpt lat="44.39241" lon="4.19315">
        <ele>195</ele>
        <time>2020-06-08T19:17:47Z</time>
      </trkpt>
      <trkpt lat="44.39237" lon="4.19325">
        <ele>194</ele>
        <time>2020-06-08T19:17:49Z</time>
      </trkpt>
      <trkpt lat="44.39131" lon="4.19479">
        <ele>176</ele>
        <time>2020-06-08T19:18:25Z</time>
      </trkpt>
      <trkpt lat="44.39114" lon="4.19527">
        <ele>176</ele>
        <time>2020-06-08T19:18:34Z</time>
      </trkpt>
      <trkpt lat="44.39101" lon="4.19578">
        <ele>178</ele>
        <time>2020-06-08T19:18:43Z</time>
      </trkpt>
      <trkpt lat="44.39084" lon="4.19606">
        <ele>180</ele>
        <time>2020-06-08T19:18:49Z</time>
      </trkpt>
      <trkpt lat="44.39066" lon="4.19678">
        <ele>182</ele>
        <time>2020-06-08T19:19:01Z</time>
      </trkpt>
      <trkpt lat="44.39061" lon="4.19737">
        <ele>183</ele>
        <time>2020-06-08T19:19:11Z</time>
      </trkpt>
      <trkpt lat="44.39008" lon="4.1981">
        <ele>180</ele>
        <time>2020-06-08T19:19:29Z</time>
      </trkpt>
      <trkpt lat="44.38973" lon="4.19854">
        <ele>176</ele>
        <time>2020-06-08T19:19:40Z</time>
      </trkpt>
      <trkpt lat="44.3896" lon="4.19888">
        <ele>175</ele>
        <time>2020-06-08T19:19:46Z</time>
      </trkpt>
      <trkpt lat="44.38873" lon="4.19986">
        <ele>168</ele>
        <time>2020-06-08T19:20:12Z</time>
      </trkpt>
      <trkpt lat="44.38851" lon="4.20006">
        <ele>166</ele>
        <time>2020-06-08T19:20:18Z</time>
      </trkpt>
      <trkpt lat="44.38818" lon="4.20049">
        <ele>164</ele>
        <time>2020-06-08T19:20:29Z</time>
      </trkpt>
      <trkpt lat="44.38803" lon="4.20061">
        <ele>163</ele>
        <time>2020-06-08T19:20:33Z</time>
      </trkpt>
      <trkpt lat="44.38702" lon="4.20088">
        <ele>159</ele>
        <time>2020-06-08T19:20:57Z</time>
      </trkpt>
      <trkpt lat="44.38631" lon="4.20086">
        <ele>157</ele>
        <time>2020-06-08T19:21:14Z</time>
      </trkpt>
      <trkpt lat="44.38591" lon="4.20068">
        <ele>155</ele>
        <time>2020-06-08T19:21:23Z</time>
      </trkpt>
      <trkpt lat="44.38544" lon="4.2006">
        <ele>154</ele>
        <time>2020-06-08T19:21:34Z</time>
      </trkpt>
      <trkpt lat="44.38467" lon="4.20054">
        <ele>151</ele>
        <time>2020-06-08T19:21:52Z</time>
      </trkpt>
      <trkpt lat="44.38421" lon="4.20045">
        <ele>150</ele>
        <time>2020-06-08T19:22:03Z</time>
      </trkpt>
      <trkpt lat="44.38412" lon="4.20037">
        <ele>149</ele>
        <time>2020-06-08T19:22:06Z</time>
      </trkpt>
      <trkpt lat="44.38394" lon="4.20009">
        <ele>149</ele>
        <time>2020-06-08T19:22:12Z</time>
      </trkpt>
      <trkpt lat="44.38316" lon="4.20033">
        <ele>147</ele>
        <time>2020-06-08T19:22:31Z</time>
      </trkpt>
      <trkpt lat="44.3825" lon="4.20022">
        <ele>148</ele>
        <time>2020-06-08T19:22:46Z</time>
      </trkpt>
      <trkpt lat="44.38129" lon="4.19944">
        <ele>146</ele>
        <time>2020-06-08T19:23:17Z</time>
      </trkpt>
      <trkpt lat="44.38067" lon="4.19937">
        <ele>143</ele>
        <time>2020-06-08T19:23:32Z</time>
      </trkpt>
      <trkpt lat="44.38035" lon="4.1996">
        <ele>141</ele>
        <time>2020-06-08T19:23:40Z</time>
      </trkpt>
      <trkpt lat="44.37999" lon="4.19978">
        <ele>139</ele>
        <time>2020-06-08T19:23:49Z</time>
      </trkpt>
      <trkpt lat="44.37897" lon="4.19995">
        <ele>135</ele>
        <time>2020-06-08T19:24:13Z</time>
      </trkpt>
      <trkpt lat="44.37833" lon="4.20002">
        <ele>134</ele>
        <time>2020-06-08T19:24:28Z</time>
      </trkpt>
      <trkpt lat="44.37773" lon="4.19999">
        <ele>133</ele>
        <time>2020-06-08T19:24:42Z</time>
      </trkpt>
      <trkpt lat="44.37712" lon="4.2">
        <ele>133</ele>
        <time>2020-06-08T19:24:56Z</time>
      </trkpt>
      <trkpt lat="44.37667" lon="4.20008">
        <ele>134</ele>
        <time>2020-06-08T19:25:07Z</time>
      </trkpt>
      <trkpt lat="44.37623" lon="4.20036">
        <ele>132</ele>
        <time>2020-06-08T19:25:18Z</time>
      </trkpt>
      <trkpt lat="44.37573" lon="4.20057">
        <ele>131</ele>
        <time>2020-06-08T19:25:30Z</time>
      </trkpt>
      <trkpt lat="44.37508" lon="4.20098">
        <ele>131</ele>
        <time>2020-06-08T19:25:47Z</time>
      </trkpt>
      <trkpt lat="44.37504" lon="4.20118">
        <ele>131</ele>
        <time>2020-06-08T19:25:51Z</time>
      </trkpt>
      <trkpt lat="44.37476" lon="4.20116">
        <ele>130</ele>
        <time>2020-06-08T19:25:57Z</time>
      </trkpt>
      <trkpt lat="44.37467" lon="4.20143">
        <ele>130</ele>
        <time>2020-06-08T19:26:02Z</time>
      </trkpt>
      <trkpt lat="44.37469" lon="4.20156">
        <ele>129</ele>
        <time>2020-06-08T19:26:04Z</time>
      </trkpt>
      <trkpt lat="44.37466" lon="4.202">
        <ele>128</ele>
        <time>2020-06-08T19:26:12Z</time>
      </trkpt>
      <trkpt lat="44.37467" lon="4.20307">
        <ele>127</ele>
        <time>2020-06-08T19:26:30Z</time>
      </trkpt>
      <trkpt lat="44.37479" lon="4.20398">
        <ele>125</ele>
        <time>2020-06-08T19:26:45Z</time>
      </trkpt>
      <trkpt lat="44.37482" lon="4.20467">
        <ele>125</ele>
        <time>2020-06-08T19:26:57Z</time>
      </trkpt>
      <trkpt lat="44.37481" lon="4.206">
        <ele>127</ele>
        <time>2020-06-08T19:27:19Z</time>
      </trkpt>
      <trkpt lat="44.37472" lon="4.20727">
        <ele>125</ele>
        <time>2020-06-08T19:27:40Z</time>
      </trkpt>
      <trkpt lat="44.37473" lon="4.20761">
        <ele>124</ele>
        <time>2020-06-08T19:27:46Z</time>
      </trkpt>
      <trkpt lat="44.37478" lon="4.20795">
        <ele>124</ele>
        <time>2020-06-08T19:27:52Z</time>
      </trkpt>
      <trkpt lat="44.37475" lon="4.20867">
        <ele>124</ele>
        <time>2020-06-08T19:28:04Z</time>
      </trkpt>
      <trkpt lat="44.37477" lon="4.20906">
        <ele>124</ele>
        <time>2020-06-08T19:28:10Z</time>
      </trkpt>
      <trkpt lat="44.37549" lon="4.21033">
        <ele>122</ele>
        <time>2020-06-08T19:28:37Z</time>
      </trkpt>
      <trkpt lat="44.37594" lon="4.21092">
        <ele>124</ele>
        <time>2020-06-08T19:28:52Z</time>
      </trkpt>
      <trkpt lat="44.37643" lon="4.21119">
        <ele>123</ele>
        <time>2020-06-08T19:29:04Z</time>
      </trkpt>
      <trkpt lat="44.37692" lon="4.21192">
        <ele>122</ele>
        <time>2020-06-08T19:29:21Z</time>
      </trkpt>
      <trkpt lat="44.37723" lon="4.21251">
        <ele>123</ele>
        <time>2020-06-08T19:29:33Z</time>
      </trkpt>
      <trkpt lat="44.37763" lon="4.21373">
        <ele>123</ele>
        <time>2020-06-08T19:29:55Z</time>
      </trkpt>
      <trkpt lat="44.37769" lon="4.21382">
        <ele>123</ele>
        <time>2020-06-08T19:29:57Z</time>
      </trkpt>
      <trkpt lat="44.37789" lon="4.21393">
        <ele>123</ele>
        <time>2020-06-08T19:30:02Z</time>
      </trkpt>
      <trkpt lat="44.37791" lon="4.21433">
        <ele>122</ele>
        <time>2020-06-08T19:30:09Z</time>
      </trkpt>
      <trkpt lat="44.37788" lon="4.21508">
        <ele>122</ele>
        <time>2020-06-08T19:30:21Z</time>
      </trkpt>
      <trkpt lat="44.3778" lon="4.21516">
        <ele>122</ele>
        <time>2020-06-08T19:30:24Z</time>
      </trkpt>
      <trkpt lat="44.37772" lon="4.21538">
        <ele>121</ele>
        <time>2020-06-08T19:30:28Z</time>
      </trkpt>
      <trkpt lat="44.37801" lon="4.21567">
        <ele>121</ele>
        <time>2020-06-08T19:30:36Z</time>
      </trkpt>
      <trkpt lat="44.37818" lon="4.21579">
        <ele>121</ele>
        <time>2020-06-08T19:30:41Z</time>
      </trkpt>
      <trkpt lat="44.37829" lon="4.21582">
        <ele>121</ele>
        <time>2020-06-08T19:30:43Z</time>
      </trkpt>
      <trkpt lat="44.37915" lon="4.2158">
        <ele>119</ele>
        <time>2020-06-08T19:31:03Z</time>
      </trkpt>
      <trkpt lat="44.37927" lon="4.21587">
        <ele>119</ele>
        <time>2020-06-08T19:31:06Z</time>
      </trkpt>
      <trkpt lat="44.37934" lon="4.21603">
        <ele>119</ele>
        <time>2020-06-08T19:31:10Z</time>
      </trkpt>
      <trkpt lat="44.37955" lon="4.21683">
        <ele>118</ele>
        <time>2020-06-08T19:31:24Z</time>
      </trkpt>
      <trkpt lat="44.38018" lon="4.21795">
        <ele>118</ele>
        <time>2020-06-08T19:31:48Z</time>
      </trkpt>
      <trkpt lat="44.38032" lon="4.21815">
        <ele>118</ele>
        <time>2020-06-08T19:31:52Z</time>
      </trkpt>
      <trkpt lat="44.38081" lon="4.2186">
        <ele>119</ele>
        <time>2020-06-08T19:32:06Z</time>
      </trkpt>
      <trkpt lat="44.38089" lon="4.21871">
        <ele>119</ele>
        <time>2020-06-08T19:32:09Z</time>
      </trkpt>
      <trkpt lat="44.38095" lon="4.21884">
        <ele>119</ele>
        <time>2020-06-08T19:32:11Z</time>
      </trkpt>
      <trkpt lat="44.38109" lon="4.21946">
        <ele>120</ele>
        <time>2020-06-08T19:32:22Z</time>
      </trkpt>
      <trkpt lat="44.38119" lon="4.21974">
        <ele>121</ele>
        <time>2020-06-08T19:32:27Z</time>
      </trkpt>
      <trkpt lat="44.38131" lon="4.21993">
        <ele>121</ele>
        <time>2020-06-08T19:32:31Z</time>
      </trkpt>
      <trkpt lat="44.38177" lon="4.22043">
        <ele>121</ele>
        <time>2020-06-08T19:32:45Z</time>
      </trkpt>
      <trkpt lat="44.3822" lon="4.22104">
        <ele>123</ele>
        <time>2020-06-08T19:32:59Z</time>
      </trkpt>
      <trkpt lat="44.38232" lon="4.22137">
        <ele>124</ele>
        <time>2020-06-08T19:33:06Z</time>
      </trkpt>
      <trkpt lat="44.38241" lon="4.22151">
        <ele>125</ele>
        <time>2020-06-08T19:33:09Z</time>
      </trkpt>
      <trkpt lat="44.38273" lon="4.22178">
        <ele>123</ele>
        <time>2020-06-08T19:33:17Z</time>
      </trkpt>
      <trkpt lat="44.38308" lon="4.22235">
        <ele>119</ele>
        <time>2020-06-08T19:33:30Z</time>
      </trkpt>
      <trkpt lat="44.38349" lon="4.22288">
        <ele>119</ele>
        <time>2020-06-08T19:33:43Z</time>
      </trkpt>
      <trkpt lat="44.38418" lon="4.22325">
        <ele>120</ele>
        <time>2020-06-08T19:34:00Z</time>
      </trkpt>
      <trkpt lat="44.38444" lon="4.2235">
        <ele>120</ele>
        <time>2020-06-08T19:34:08Z</time>
      </trkpt>
      <trkpt lat="44.38477" lon="4.22391">
        <ele>118</ele>
        <time>2020-06-08T19:34:18Z</time>
      </trkpt>
      <trkpt lat="44.385" lon="4.22413">
        <ele>116</ele>
        <time>2020-06-08T19:34:24Z</time>
      </trkpt>
      <trkpt lat="44.38513" lon="4.22416">
        <ele>116</ele>
        <time>2020-06-08T19:34:27Z</time>
      </trkpt>
      <trkpt lat="44.38532" lon="4.22416">
        <ele>115</ele>
        <time>2020-06-08T19:34:32Z</time>
      </trkpt>
      <trkpt lat="44.38545" lon="4.22424">
        <ele>115</ele>
        <time>2020-06-08T19:34:35Z</time>
      </trkpt>
      <trkpt lat="44.3857" lon="4.22503">
        <ele>114</ele>
        <time>2020-06-08T19:34:50Z</time>
      </trkpt>
      <trkpt lat="44.38564" lon="4.22524">
        <ele>114</ele>
        <time>2020-06-08T19:34:53Z</time>
      </trkpt>
      <trkpt lat="44.38568" lon="4.22692">
        <ele>115</ele>
        <time>2020-06-08T19:35:21Z</time>
      </trkpt>
      <trkpt lat="44.38591" lon="4.228">
        <ele>114</ele>
        <time>2020-06-08T19:35:40Z</time>
      </trkpt>
      <trkpt lat="44.38598" lon="4.22975">
        <ele>114</ele>
        <time>2020-06-08T19:36:10Z</time>
      </trkpt>
      <trkpt lat="44.386" lon="4.23102">
        <ele>113</ele>
        <time>2020-06-08T19:36:31Z</time>
      </trkpt>
      <trkpt lat="44.38607" lon="4.2313">
        <ele>113</ele>
        <time>2020-06-08T19:36:36Z</time>
      </trkpt>
      <trkpt lat="44.38619" lon="4.23161">
        <ele>113</ele>
        <time>2020-06-08T19:36:42Z</time>
      </trkpt>
      <trkpt lat="44.38646" lon="4.23201">
        <ele>113</ele>
        <time>2020-06-08T19:36:51Z</time>
      </trkpt>
      <trkpt lat="44.38744" lon="4.23328">
        <ele>114</ele>
        <time>2020-06-08T19:37:22Z</time>
      </trkpt>
      <trkpt lat="44.38953" lon="4.2336">
        <ele>116</ele>
        <time>2020-06-08T19:38:11Z</time>
      </trkpt>
      <trkpt lat="44.38969" lon="4.23357">
        <ele>117</ele>
        <time>2020-06-08T19:38:15Z</time>
      </trkpt>
      <trkpt lat="44.38968" lon="4.23383">
        <ele>116</ele>
        <time>2020-06-08T19:38:19Z</time>
      </trkpt>
      <trkpt lat="44.39004" lon="4.23391">
        <ele>117</ele>
        <time>2020-06-08T19:38:28Z</time>
      </trkpt>
      <trkpt lat="44.38984" lon="4.23515">
        <ele>118</ele>
        <time>2020-06-08T19:38:49Z</time>
      </trkpt>
      <trkpt lat="44.39014" lon="4.23528">
        <ele>118</ele>
        <time>2020-06-08T19:38:56Z</time>
      </trkpt>
      <trkpt lat="44.39035" lon="4.23521">
        <ele>118</ele>
        <time>2020-06-08T19:39:01Z</time>
      </trkpt>
      <trkpt lat="44.39048" lon="4.23525">
        <ele>117</ele>
        <time>2020-06-08T19:39:04Z</time>
      </trkpt>
      <trkpt lat="44.39057" lon="4.23547">
        <ele>117</ele>
        <time>2020-06-08T19:39:09Z</time>
      </trkpt>
      <trkpt lat="44.39023" lon="4.23593">
        <ele>118</ele>
        <time>2020-06-08T19:39:20Z</time>
      </trkpt>
      <trkpt lat="44.38967" lon="4.23631">
        <ele>119</ele>
        <time>2020-06-08T19:39:34Z</time>
      </trkpt>
      <trkpt lat="44.38895" lon="4.23729">
        <ele>115</ele>
        <time>2020-06-08T19:39:58Z</time>
      </trkpt>
      <trkpt lat="44.38836" lon="4.23779">
        <ele>115</ele>
        <time>2020-06-08T19:40:14Z</time>
      </trkpt>
      <trkpt lat="44.38805" lon="4.2384">
        <ele>114</ele>
        <time>2020-06-08T19:40:26Z</time>
      </trkpt>
      <trkpt lat="44.38775" lon="4.23886">
        <ele>114</ele>
        <time>2020-06-08T19:40:37Z</time>
      </trkpt>
      <trkpt lat="44.38761" lon="4.23946">
        <ele>113</ele>
        <time>2020-06-08T19:40:47Z</time>
      </trkpt>
      <trkpt lat="44.38719" lon="4.23925">
        <ele>114</ele>
        <time>2020-06-08T19:40:58Z</time>
      </trkpt>
      <trkpt lat="44.3862" lon="4.2406">
        <ele>114</ele>
        <time>2020-06-08T19:41:30Z</time>
      </trkpt>
      <trkpt lat="44.3878" lon="4.2431">
        <ele>111</ele>
        <time>2020-06-08T19:42:26Z</time>
      </trkpt>
      <trkpt lat="44.38814" lon="4.24395">
        <ele>113</ele>
        <time>2020-06-08T19:42:42Z</time>
      </trkpt>
      <trkpt lat="44.38864" lon="4.24575">
        <ele>111</ele>
        <time>2020-06-08T19:43:14Z</time>
      </trkpt>
      <trkpt lat="44.38887" lon="4.24736">
        <ele>113</ele>
        <time>2020-06-08T19:43:42Z</time>
      </trkpt>
      <trkpt lat="44.38907" lon="4.24941">
        <ele>111</ele>
        <time>2020-06-08T19:44:16Z</time>
      </trkpt>
      <trkpt lat="44.3893" lon="4.2512">
        <ele>112</ele>
        <time>2020-06-08T19:44:47Z</time>
      </trkpt>
      <trkpt lat="44.38956" lon="4.25273">
        <ele>111</ele>
        <time>2020-06-08T19:45:13Z</time>
      </trkpt>
      <trkpt lat="44.38971" lon="4.25448">
        <ele>113</ele>
        <time>2020-06-08T19:45:42Z</time>
      </trkpt>
      <trkpt lat="44.38972" lon="4.25504">
        <ele>112</ele>
        <time>2020-06-08T19:45:52Z</time>
      </trkpt>
      <trkpt lat="44.38964" lon="4.25552">
        <ele>114</ele>
        <time>2020-06-08T19:46:00Z</time>
      </trkpt>
      <trkpt lat="44.3897" lon="4.25581">
        <ele>114</ele>
        <time>2020-06-08T19:46:05Z</time>
      </trkpt>
      <trkpt lat="44.38958" lon="4.25595">
        <ele>115</ele>
        <time>2020-06-08T19:46:09Z</time>
      </trkpt>
      <trkpt lat="44.38938" lon="4.25611">
        <ele>115</ele>
        <time>2020-06-08T19:46:14Z</time>
      </trkpt>
      <trkpt lat="44.38935" lon="4.25635">
        <ele>115</ele>
        <time>2020-06-08T19:46:18Z</time>
      </trkpt>
      <trkpt lat="44.38962" lon="4.25697">
        <ele>114</ele>
        <time>2020-06-08T19:46:30Z</time>
      </trkpt>
      <trkpt lat="44.38975" lon="4.25758">
        <ele>115</ele>
        <time>2020-06-08T19:46:41Z</time>
      </trkpt>
      <trkpt lat="44.38974" lon="4.2586">
        <ele>116</ele>
        <time>2020-06-08T19:46:58Z</time>
      </trkpt>
      <trkpt lat="44.38962" lon="4.25973">
        <ele>120</ele>
        <time>2020-06-08T19:47:17Z</time>
      </trkpt>
      <trkpt lat="44.38965" lon="4.26054">
        <ele>124</ele>
        <time>2020-06-08T19:47:30Z</time>
      </trkpt>
      <trkpt lat="44.38954" lon="4.26146">
        <ele>132</ele>
        <time>2020-06-08T19:47:46Z</time>
      </trkpt>
      <trkpt lat="44.38943" lon="4.26206">
        <ele>134</ele>
        <time>2020-06-08T19:47:56Z</time>
      </trkpt>
      <trkpt lat="44.38966" lon="4.26206">
        <ele>137</ele>
        <time>2020-06-08T19:48:02Z</time>
      </trkpt>
      <trkpt lat="44.38987" lon="4.26279">
        <ele>141</ele>
        <time>2020-06-08T19:48:15Z</time>
      </trkpt>
      <trkpt lat="44.39006" lon="4.26287">
        <ele>142</ele>
        <time>2020-06-08T19:48:19Z</time>
      </trkpt>
      <trkpt lat="44.39019" lon="4.26316">
        <ele>141</ele>
        <time>2020-06-08T19:48:25Z</time>
      </trkpt>
      <trkpt lat="44.39021" lon="4.26384">
        <ele>140</ele>
        <time>2020-06-08T19:48:36Z</time>
      </trkpt>
      <trkpt lat="44.38977" lon="4.26547">
        <ele>137</ele>
        <time>2020-06-08T19:49:06Z</time>
      </trkpt>
      <trkpt lat="44.38935" lon="4.26684">
        <ele>137</ele>
        <time>2020-06-08T19:49:30Z</time>
      </trkpt>
      <trkpt lat="44.38913" lon="4.26692">
        <ele>137</ele>
        <time>2020-06-08T19:49:36Z</time>
      </trkpt>
      <trkpt lat="44.389" lon="4.26716">
        <ele>136</ele>
        <time>2020-06-08T19:49:41Z</time>
      </trkpt>
      <trkpt lat="44.38865" lon="4.26876">
        <ele>138</ele>
        <time>2020-06-08T19:50:09Z</time>
      </trkpt>
      <trkpt lat="44.38828" lon="4.2699">
        <ele>141</ele>
        <time>2020-06-08T19:50:30Z</time>
      </trkpt>
      <trkpt lat="44.38793" lon="4.27061">
        <ele>143</ele>
        <time>2020-06-08T19:50:44Z</time>
      </trkpt>
      <trkpt lat="44.38754" lon="4.27106">
        <ele>146</ele>
        <time>2020-06-08T19:50:56Z</time>
      </trkpt>
      <trkpt lat="44.38715" lon="4.27287">
        <ele>150</ele>
        <time>2020-06-08T19:51:27Z</time>
      </trkpt>
      <trkpt lat="44.38695" lon="4.27369">
        <ele>153</ele>
        <time>2020-06-08T19:51:42Z</time>
      </trkpt>
      <trkpt lat="44.38634" lon="4.2745">
        <ele>154</ele>
        <time>2020-06-08T19:52:01Z</time>
      </trkpt>
      <trkpt lat="44.38554" lon="4.27567">
        <ele>160</ele>
        <time>2020-06-08T19:52:28Z</time>
      </trkpt>
      <trkpt lat="44.38496" lon="4.27684">
        <ele>164</ele>
        <time>2020-06-08T19:52:52Z</time>
      </trkpt>
      <trkpt lat="44.38431" lon="4.27759">
        <ele>169</ele>
        <time>2020-06-08T19:53:12Z</time>
      </trkpt>
      <trkpt lat="44.38383" lon="4.27935">
        <ele>176</ele>
        <time>2020-06-08T19:53:43Z</time>
      </trkpt>
      <trkpt lat="44.38509" lon="4.28019">
        <ele>175</ele>
        <time>2020-06-08T19:54:16Z</time>
      </trkpt>
      <trkpt lat="44.38611" lon="4.28097">
        <ele>162</ele>
        <time>2020-06-08T19:54:43Z</time>
      </trkpt>
      <trkpt lat="44.38669" lon="4.28112">
        <ele>155</ele>
        <time>2020-06-08T19:54:57Z</time>
      </trkpt>
      <trkpt lat="44.38741" lon="4.28047">
        <ele>146</ele>
        <time>2020-06-08T19:55:17Z</time>
      </trkpt>
      <trkpt lat="44.38787" lon="4.28119">
        <ele>145</ele>
        <time>2020-06-08T19:55:33Z</time>
      </trkpt>
      <trkpt lat="44.38878" lon="4.28138">
        <ele>148</ele>
        <time>2020-06-08T19:55:54Z</time>
      </trkpt>
      <trkpt lat="44.38891" lon="4.28175">
        <ele>150</ele>
        <time>2020-06-08T19:56:01Z</time>
      </trkpt>
      <trkpt lat="44.38856" lon="4.28223">
        <ele>148</ele>
        <time>2020-06-08T19:56:13Z</time>
      </trkpt>
      <trkpt lat="44.38833" lon="4.28325">
        <ele>149</ele>
        <time>2020-06-08T19:56:31Z</time>
      </trkpt>
      <trkpt lat="44.38797" lon="4.28367">
        <ele>152</ele>
        <time>2020-06-08T19:56:42Z</time>
      </trkpt>
      <trkpt lat="44.38721" lon="4.28418">
        <ele>154</ele>
        <time>2020-06-08T19:57:01Z</time>
      </trkpt>
      <trkpt lat="44.38676" lon="4.28488">
        <ele>158</ele>
        <time>2020-06-08T19:57:17Z</time>
      </trkpt>
      <trkpt lat="44.38639" lon="4.28582">
        <ele>162</ele>
        <time>2020-06-08T19:57:35Z</time>
      </trkpt>
      <trkpt lat="44.38753" lon="4.28571">
        <ele>179</ele>
        <time>2020-06-08T19:58:02Z</time>
      </trkpt>
      <trkpt lat="44.38803" lon="4.28614">
        <ele>185</ele>
        <time>2020-06-08T19:58:15Z</time>
      </trkpt>
      <trkpt lat="44.38846" lon="4.28656">
        <ele>189</ele>
        <time>2020-06-08T19:58:28Z</time>
      </trkpt>
      <trkpt lat="44.38874" lon="4.28762">
        <ele>192</ele>
        <time>2020-06-08T19:58:46Z</time>
      </trkpt>
      <trkpt lat="44.38858" lon="4.28811">
        <ele>194</ele>
        <time>2020-06-08T19:58:55Z</time>
      </trkpt>
      <trkpt lat="44.38801" lon="4.2885">
        <ele>202</ele>
        <time>2020-06-08T19:59:10Z</time>
      </trkpt>
      <trkpt lat="44.38693" lon="4.28838">
        <ele>212</ele>
        <time>2020-06-08T19:59:35Z</time>
      </trkpt>
      <trkpt lat="44.38654" lon="4.28872">
        <ele>225</ele>
        <time>2020-06-08T19:59:46Z</time>
      </trkpt>
      <trkpt lat="44.38706" lon="4.28907">
        <ele>229</ele>
        <time>2020-06-08T20:00:00Z</time>
      </trkpt>
      <trkpt lat="44.38705" lon="4.28971">
        <ele>234</ele>
        <time>2020-06-08T20:00:10Z</time>
      </trkpt>
      <trkpt lat="44.38673" lon="4.29019">
        <ele>248</ele>
        <time>2020-06-08T20:00:21Z</time>
      </trkpt>
      <trkpt lat="44.38613" lon="4.29079">
        <ele>258</ele>
        <time>2020-06-08T20:00:39Z</time>
      </trkpt>
      <trkpt lat="44.3855" lon="4.29106">
        <ele>272</ele>
        <time>2020-06-08T20:00:54Z</time>
      </trkpt>
      <trkpt lat="44.3852" lon="4.2916">
        <ele>281</ele>
        <time>2020-06-08T20:01:05Z</time>
      </trkpt>
      <trkpt lat="44.38527" lon="4.29245">
        <ele>282</ele>
        <time>2020-06-08T20:01:20Z</time>
      </trkpt>
      <trkpt lat="44.38474" lon="4.29351">
        <ele>299</ele>
        <time>2020-06-08T20:01:41Z</time>
      </trkpt>
      <trkpt lat="44.38448" lon="4.2942">
        <ele>306</ele>
        <time>2020-06-08T20:01:54Z</time>
      </trkpt>
      <trkpt lat="44.38364" lon="4.295">
        <ele>310</ele>
        <time>2020-06-08T20:02:18Z</time>
      </trkpt>
      <trkpt lat="44.3828" lon="4.29573">
        <ele>312</ele>
        <time>2020-06-08T20:02:41Z</time>
      </trkpt>
      <trkpt lat="44.38253" lon="4.29648">
        <ele>316</ele>
        <time>2020-06-08T20:02:55Z</time>
      </trkpt>
      <trkpt lat="44.38236" lon="4.29711">
        <ele>320</ele>
        <time>2020-06-08T20:03:06Z</time>
      </trkpt>
      <trkpt lat="44.38241" lon="4.29768">
        <ele>323</ele>
        <time>2020-06-08T20:03:16Z</time>
      </trkpt>
      <trkpt lat="44.38291" lon="4.29814">
        <ele>325</ele>
        <time>2020-06-08T20:03:30Z</time>
      </trkpt>
      <trkpt lat="44.3838" lon="4.29955">
        <ele>326</ele>
        <time>2020-06-08T20:04:01Z</time>
      </trkpt>
      <trkpt lat="44.38492" lon="4.30204">
        <ele>331</ele>
        <time>2020-06-08T20:04:50Z</time>
      </trkpt>
      <trkpt lat="44.38528" lon="4.30302">
        <ele>334</ele>
        <time>2020-06-08T20:05:09Z</time>
      </trkpt>
      <trkpt lat="44.38546" lon="4.30407">
        <ele>336</ele>
        <time>2020-06-08T20:05:27Z</time>
      </trkpt>
      <trkpt lat="44.38548" lon="4.30523">
        <ele>339</ele>
        <time>2020-06-08T20:05:46Z</time>
      </trkpt>
      <trkpt lat="44.38583" lon="4.30768">
        <ele>348</ele>
        <time>2020-06-08T20:06:28Z</time>
      </trkpt>
      <trkpt lat="44.386" lon="4.30848">
        <ele>353</ele>
        <time>2020-06-08T20:06:42Z</time>
      </trkpt>
      <trkpt lat="44.386" lon="4.3089">
        <ele>357</ele>
        <time>2020-06-08T20:06:49Z</time>
      </trkpt>
      <trkpt lat="44.38593" lon="4.30921">
        <ele>360</ele>
        <time>2020-06-08T20:06:54Z</time>
      </trkpt>
      <trkpt lat="44.38639" lon="4.30971">
        <ele>362</ele>
        <time>2020-06-08T20:07:08Z</time>
      </trkpt>
      <trkpt lat="44.38679" lon="4.31007">
        <ele>361</ele>
        <time>2020-06-08T20:07:19Z</time>
      </trkpt>
      <trkpt lat="44.38676" lon="4.31045">
        <ele>363</ele>
        <time>2020-06-08T20:07:25Z</time>
      </trkpt>
      <trkpt lat="44.38725" lon="4.31116">
        <ele>362</ele>
        <time>2020-06-08T20:07:42Z</time>
      </trkpt>
      <trkpt lat="44.3875" lon="4.31183">
        <ele>366</ele>
        <time>2020-06-08T20:07:54Z</time>
      </trkpt>
      <trkpt lat="44.3879" lon="4.31234">
        <ele>367</ele>
        <time>2020-06-08T20:08:07Z</time>
      </trkpt>
      <trkpt lat="44.38845" lon="4.31267">
        <ele>365</ele>
        <time>2020-06-08T20:08:21Z</time>
      </trkpt>
      <trkpt lat="44.38856" lon="4.31219">
        <ele>359</ele>
        <time>2020-06-08T20:08:29Z</time>
      </trkpt>
      <trkpt lat="44.38878" lon="4.31188">
        <ele>356</ele>
        <time>2020-06-08T20:08:37Z</time>
      </trkpt>
      <trkpt lat="44.38937" lon="4.31218">
        <ele>359</ele>
        <time>2020-06-08T20:08:51Z</time>
      </trkpt>
      <trkpt lat="44.38985" lon="4.31251">
        <ele>360</ele>
        <time>2020-06-08T20:09:04Z</time>
      </trkpt>
      <trkpt lat="44.39046" lon="4.3126">
        <ele>358</ele>
        <time>2020-06-08T20:09:18Z</time>
      </trkpt>
      <trkpt lat="44.39109" lon="4.3128">
        <ele>357</ele>
        <time>2020-06-08T20:09:33Z</time>
      </trkpt>
      <trkpt lat="44.39144" lon="4.31297">
        <ele>357</ele>
        <time>2020-06-08T20:09:42Z</time>
      </trkpt>
      <trkpt lat="44.39016" lon="4.31428">
        <ele>373</ele>
        <time>2020-06-08T20:10:19Z</time>
      </trkpt>
      <trkpt lat="44.38965" lon="4.31443">
        <ele>380</ele>
        <time>2020-06-08T20:10:31Z</time>
      </trkpt>
      <trkpt lat="44.38937" lon="4.31465">
        <ele>385</ele>
        <time>2020-06-08T20:10:39Z</time>
      </trkpt>
      <trkpt lat="44.38908" lon="4.31461">
        <ele>388</ele>
        <time>2020-06-08T20:10:45Z</time>
      </trkpt>
      <trkpt lat="44.38896" lon="4.31466">
        <ele>389</ele>
        <time>2020-06-08T20:10:48Z</time>
      </trkpt>
      <trkpt lat="44.38871" lon="4.3151">
        <ele>396</ele>
        <time>2020-06-08T20:10:58Z</time>
      </trkpt>
      <trkpt lat="44.38859" lon="4.31513">
        <ele>398</ele>
        <time>2020-06-08T20:11:01Z</time>
      </trkpt>
      <trkpt lat="44.38828" lon="4.31461">
        <ele>394</ele>
        <time>2020-06-08T20:11:12Z</time>
      </trkpt>
      <trkpt lat="44.38797" lon="4.3143">
        <ele>396</ele>
        <time>2020-06-08T20:11:21Z</time>
      </trkpt>
      <trkpt lat="44.38704" lon="4.31371">
        <ele>407</ele>
        <time>2020-06-08T20:11:45Z</time>
      </trkpt>
      <trkpt lat="44.38674" lon="4.31339">
        <ele>408</ele>
        <time>2020-06-08T20:11:53Z</time>
      </trkpt>
      <trkpt lat="44.38632" lon="4.31285">
        <ele>410</ele>
        <time>2020-06-08T20:12:07Z</time>
      </trkpt>
      <trkpt lat="44.38572" lon="4.31261">
        <ele>419</ele>
        <time>2020-06-08T20:12:21Z</time>
      </trkpt>
      <trkpt lat="44.38531" lon="4.3126">
        <ele>422</ele>
        <time>2020-06-08T20:12:31Z</time>
      </trkpt>
      <trkpt lat="44.38507" lon="4.31277">
        <ele>429</ele>
        <time>2020-06-08T20:12:37Z</time>
      </trkpt>
      <trkpt lat="44.38459" lon="4.31249">
        <ele>430</ele>
        <time>2020-06-08T20:12:49Z</time>
      </trkpt>
      <trkpt lat="44.3841" lon="4.31242">
        <ele>436</ele>
        <time>2020-06-08T20:13:01Z</time>
      </trkpt>
      <trkpt lat="44.38399" lon="4.31216">
        <ele>432</ele>
        <time>2020-06-08T20:13:06Z</time>
      </trkpt>
      <trkpt lat="44.38343" lon="4.31193">
        <ele>435</ele>
        <time>2020-06-08T20:13:20Z</time>
      </trkpt>
      <trkpt lat="44.38204" lon="4.31211">
        <ele>454</ele>
        <time>2020-06-08T20:13:52Z</time>
      </trkpt>
      <trkpt lat="44.38161" lon="4.31212">
        <ele>461</ele>
        <time>2020-06-08T20:14:02Z</time>
      </trkpt>
      <trkpt lat="44.3808" lon="4.31146">
        <ele>465</ele>
        <time>2020-06-08T20:14:24Z</time>
      </trkpt>
      <trkpt lat="44.38054" lon="4.31181">
        <ele>460</ele>
        <time>2020-06-08T20:14:32Z</time>
      </trkpt>
      <trkpt lat="44.38011" lon="4.31251">
        <ele>464</ele>
        <time>2020-06-08T20:14:48Z</time>
      </trkpt>
      <trkpt lat="44.37957" lon="4.31295">
        <ele>461</ele>
        <time>2020-06-08T20:15:02Z</time>
      </trkpt>
      <trkpt lat="44.37868" lon="4.31293">
        <ele>442</ele>
        <time>2020-06-08T20:15:23Z</time>
      </trkpt>
      <trkpt lat="44.37763" lon="4.31309">
        <ele>423</ele>
        <time>2020-06-08T20:15:48Z</time>
      </trkpt>
      <trkpt lat="44.37755" lon="4.31331">
        <ele>422</ele>
        <time>2020-06-08T20:15:52Z</time>
      </trkpt>
      <trkpt lat="44.37795" lon="4.31362">
        <ele>424</ele>
        <time>2020-06-08T20:16:03Z</time>
      </trkpt>
      <trkpt lat="44.37841" lon="4.31369">
        <ele>432</ele>
        <time>2020-06-08T20:16:14Z</time>
      </trkpt>
      <trkpt lat="44.37896" lon="4.31408">
        <ele>440</ele>
        <time>2020-06-08T20:16:28Z</time>
      </trkpt>
      <trkpt lat="44.37898" lon="4.31556">
        <ele>421</ele>
        <time>2020-06-08T20:16:53Z</time>
      </trkpt>
      <trkpt lat="44.37891" lon="4.31584">
        <ele>415</ele>
        <time>2020-06-08T20:16:58Z</time>
      </trkpt>
      <trkpt lat="44.379" lon="4.31609">
        <ele>414</ele>
        <time>2020-06-08T20:17:02Z</time>
      </trkpt>
      <trkpt lat="44.37912" lon="4.31633">
        <ele>414</ele>
        <time>2020-06-08T20:17:07Z</time>
      </trkpt>
      <trkpt lat="44.37989" lon="4.31624">
        <ele>429</ele>
        <time>2020-06-08T20:17:25Z</time>
      </trkpt>
      <trkpt lat="44.38007" lon="4.31674">
        <ele>420</ele>
        <time>2020-06-08T20:17:35Z</time>
      </trkpt>
      <trkpt lat="44.38028" lon="4.31713">
        <ele>417</ele>
        <time>2020-06-08T20:17:43Z</time>
      </trkpt>
      <trkpt lat="44.38087" lon="4.31744">
        <ele>419</ele>
        <time>2020-06-08T20:17:57Z</time>
      </trkpt>
      <trkpt lat="44.37951" lon="4.3183">
        <ele>387</ele>
        <time>2020-06-08T20:18:32Z</time>
      </trkpt>
      <trkpt lat="44.37881" lon="4.31883">
        <ele>375</ele>
        <time>2020-06-08T20:18:51Z</time>
      </trkpt>
      <trkpt lat="44.37906" lon="4.31904">
        <ele>375</ele>
        <time>2020-06-08T20:18:58Z</time>
      </trkpt>
      <trkpt lat="44.37958" lon="4.31891">
        <ele>379</ele>
        <time>2020-06-08T20:19:10Z</time>
      </trkpt>
      <trkpt lat="44.38002" lon="4.31902">
        <ele>378</ele>
        <time>2020-06-08T20:19:20Z</time>
      </trkpt>
      <trkpt lat="44.37964" lon="4.31933">
        <ele>373</ele>
        <time>2020-06-08T20:19:31Z</time>
      </trkpt>
      <trkpt lat="44.37919" lon="4.31984">
        <ele>361</ele>
        <time>2020-06-08T20:19:44Z</time>
      </trkpt>
      <trkpt lat="44.37862" lon="4.32026">
        <ele>349</ele>
        <time>2020-06-08T20:19:59Z</time>
      </trkpt>
      <trkpt lat="44.37806" lon="4.32038">
        <ele>343</ele>
        <time>2020-06-08T20:20:13Z</time>
      </trkpt>
      <trkpt lat="44.37738" lon="4.32045">
        <ele>338</ele>
        <time>2020-06-08T20:20:28Z</time>
      </trkpt>
      <trkpt lat="44.37727" lon="4.32053">
        <ele>336</ele>
        <time>2020-06-08T20:20:31Z</time>
      </trkpt>
      <trkpt lat="44.37707" lon="4.32105">
        <ele>328</ele>
        <time>2020-06-08T20:20:41Z</time>
      </trkpt>
      <trkpt lat="44.37689" lon="4.32164">
        <ele>317</ele>
        <time>2020-06-08T20:20:52Z</time>
      </trkpt>
      <trkpt lat="44.37697" lon="4.32199">
        <ele>313</ele>
        <time>2020-06-08T20:20:58Z</time>
      </trkpt>
      <trkpt lat="44.37731" lon="4.32212">
        <ele>313</ele>
        <time>2020-06-08T20:21:06Z</time>
      </trkpt>
      <trkpt lat="44.3774" lon="4.32254">
        <ele>308</ele>
        <time>2020-06-08T20:21:14Z</time>
      </trkpt>
      <trkpt lat="44.3773" lon="4.32291">
        <ele>305</ele>
        <time>2020-06-08T20:21:20Z</time>
      </trkpt>
      <trkpt lat="44.37698" lon="4.32324">
        <ele>301</ele>
        <time>2020-06-08T20:21:29Z</time>
      </trkpt>
      <trkpt lat="44.37674" lon="4.3239">
        <ele>294</ele>
        <time>2020-06-08T20:21:42Z</time>
      </trkpt>
      <trkpt lat="44.37648" lon="4.32405">
        <ele>292</ele>
        <time>2020-06-08T20:21:48Z</time>
      </trkpt>
      <trkpt lat="44.37658" lon="4.32415">
        <ele>292</ele>
        <time>2020-06-08T20:21:51Z</time>
      </trkpt>
      <trkpt lat="44.37667" lon="4.32416">
        <ele>292</ele>
        <time>2020-06-08T20:21:53Z</time>
      </trkpt>
      <trkpt lat="44.37684" lon="4.32409">
        <ele>294</ele>
        <time>2020-06-08T20:21:58Z</time>
      </trkpt>
      <trkpt lat="44.37692" lon="4.32427">
        <ele>294</ele>
        <time>2020-06-08T20:22:01Z</time>
      </trkpt>
      <trkpt lat="44.37656" lon="4.32503">
        <ele>288</ele>
        <time>2020-06-08T20:22:16Z</time>
      </trkpt>
      <trkpt lat="44.37647" lon="4.32556">
        <ele>284</ele>
        <time>2020-06-08T20:22:25Z</time>
      </trkpt>
      <trkpt lat="44.37627" lon="4.32606">
        <ele>281</ele>
        <time>2020-06-08T20:22:35Z</time>
      </trkpt>
      <trkpt lat="44.37599" lon="4.32657">
        <ele>277</ele>
        <time>2020-06-08T20:22:46Z</time>
      </trkpt>
      <trkpt lat="44.37575" lon="4.32692">
        <ele>276</ele>
        <time>2020-06-08T20:22:54Z</time>
      </trkpt>
      <trkpt lat="44.37561" lon="4.32737">
        <ele>275</ele>
        <time>2020-06-08T20:23:02Z</time>
      </trkpt>
      <trkpt lat="44.37506" lon="4.32797">
        <ele>270</ele>
        <time>2020-06-08T20:23:18Z</time>
      </trkpt>
      <trkpt lat="44.37473" lon="4.32849">
        <ele>268</ele>
        <time>2020-06-08T20:23:30Z</time>
      </trkpt>
      <trkpt lat="44.37398" lon="4.32919">
        <ele>263</ele>
        <time>2020-06-08T20:23:51Z</time>
      </trkpt>
      <trkpt lat="44.37371" lon="4.3294">
        <ele>260</ele>
        <time>2020-06-08T20:23:58Z</time>
      </trkpt>
      <trkpt lat="44.3737" lon="4.32975">
        <ele>261</ele>
        <time>2020-06-08T20:24:04Z</time>
      </trkpt>
      <trkpt lat="44.37363" lon="4.32995">
        <ele>262</ele>
        <time>2020-06-08T20:24:08Z</time>
      </trkpt>
      <trkpt lat="44.37335" lon="4.33035">
        <ele>261</ele>
        <time>2020-06-08T20:24:17Z</time>
      </trkpt>
      <trkpt lat="44.37328" lon="4.33053">
        <ele>261</ele>
        <time>2020-06-08T20:24:20Z</time>
      </trkpt>
      <trkpt lat="44.37411" lon="4.33134">
        <ele>258</ele>
        <time>2020-06-08T20:24:44Z</time>
      </trkpt>
      <trkpt lat="44.3746" lon="4.33195">
        <ele>256</ele>
        <time>2020-06-08T20:24:59Z</time>
      </trkpt>
      <trkpt lat="44.37515" lon="4.33281">
        <ele>253</ele>
        <time>2020-06-08T20:25:19Z</time>
      </trkpt>
      <trkpt lat="44.37537" lon="4.33305">
        <ele>251</ele>
        <time>2020-06-08T20:25:25Z</time>
      </trkpt>
      <trkpt lat="44.3754" lon="4.33336">
        <ele>250</ele>
        <time>2020-06-08T20:25:30Z</time>
      </trkpt>
      <trkpt lat="44.37522" lon="4.33396">
        <ele>249</ele>
        <time>2020-06-08T20:25:41Z</time>
      </trkpt>
      <trkpt lat="44.37557" lon="4.33435">
        <ele>252</ele>
        <time>2020-06-08T20:25:52Z</time>
      </trkpt>
      <trkpt lat="44.37603" lon="4.33474">
        <ele>259</ele>
        <time>2020-06-08T20:26:04Z</time>
      </trkpt>
      <trkpt lat="44.37663" lon="4.33531">
        <ele>263</ele>
        <time>2020-06-08T20:26:21Z</time>
      </trkpt>
      <trkpt lat="44.37703" lon="4.33561">
        <ele>267</ele>
        <time>2020-06-08T20:26:32Z</time>
      </trkpt>
      <trkpt lat="44.37735" lon="4.3362">
        <ele>269</ele>
        <time>2020-06-08T20:26:44Z</time>
      </trkpt>
      <trkpt lat="44.37736" lon="4.33644">
        <ele>269</ele>
        <time>2020-06-08T20:26:48Z</time>
      </trkpt>
      <trkpt lat="44.37712" lon="4.33684">
        <ele>267</ele>
        <time>2020-06-08T20:26:57Z</time>
      </trkpt>
      <trkpt lat="44.37662" lon="4.33756">
        <ele>270</ele>
        <time>2020-06-08T20:27:14Z</time>
      </trkpt>
      <trkpt lat="44.37622" lon="4.33845">
        <ele>270</ele>
        <time>2020-06-08T20:27:31Z</time>
      </trkpt>
      <trkpt lat="44.37636" lon="4.33884">
        <ele>270</ele>
        <time>2020-06-08T20:27:38Z</time>
      </trkpt>
      <trkpt lat="44.37652" lon="4.33907">
        <ele>269</ele>
        <time>2020-06-08T20:27:44Z</time>
      </trkpt>
      <trkpt lat="44.37648" lon="4.33948">
        <ele>267</ele>
        <time>2020-06-08T20:27:51Z</time>
      </trkpt>
      <trkpt lat="44.37659" lon="4.34002">
        <ele>264</ele>
        <time>2020-06-08T20:28:00Z</time>
      </trkpt>
      <trkpt lat="44.37689" lon="4.34049">
        <ele>263</ele>
        <time>2020-06-08T20:28:11Z</time>
      </trkpt>
      <trkpt lat="44.37667" lon="4.34063">
        <ele>265</ele>
        <time>2020-06-08T20:28:16Z</time>
      </trkpt>
      <trkpt lat="44.37602" lon="4.34075">
        <ele>263</ele>
        <time>2020-06-08T20:28:32Z</time>
      </trkpt>
      <trkpt lat="44.37558" lon="4.34086">
        <ele>261</ele>
        <time>2020-06-08T20:28:42Z</time>
      </trkpt>
      <trkpt lat="44.37511" lon="4.34134">
        <ele>260</ele>
        <time>2020-06-08T20:28:56Z</time>
      </trkpt>
      <trkpt lat="44.3747" lon="4.34192">
        <ele>261</ele>
        <time>2020-06-08T20:29:09Z</time>
      </trkpt>
      <trkpt lat="44.37421" lon="4.34218">
        <ele>265</ele>
        <time>2020-06-08T20:29:21Z</time>
      </trkpt>
      <trkpt lat="44.37412" lon="4.3424">
        <ele>266</ele>
        <time>2020-06-08T20:29:26Z</time>
      </trkpt>
      <trkpt lat="44.37426" lon="4.34282">
        <ele>266</ele>
        <time>2020-06-08T20:29:33Z</time>
      </trkpt>
      <trkpt lat="44.37434" lon="4.3434">
        <ele>266</ele>
        <time>2020-06-08T20:29:43Z</time>
      </trkpt>
      <trkpt lat="44.37394" lon="4.34394">
        <ele>264</ele>
        <time>2020-06-08T20:29:56Z</time>
      </trkpt>
      <trkpt lat="44.37363" lon="4.34446">
        <ele>258</ele>
        <time>2020-06-08T20:30:08Z</time>
      </trkpt>
      <trkpt lat="44.37283" lon="4.34508">
        <ele>249</ele>
        <time>2020-06-08T20:30:29Z</time>
      </trkpt>
      <trkpt lat="44.37218" lon="4.34548">
        <ele>244</ele>
        <time>2020-06-08T20:30:46Z</time>
      </trkpt>
      <trkpt lat="44.3719" lon="4.3453">
        <ele>244</ele>
        <time>2020-06-08T20:30:53Z</time>
      </trkpt>
      <trkpt lat="44.3713" lon="4.34578">
        <ele>241</ele>
        <time>2020-06-08T20:31:09Z</time>
      </trkpt>
      <trkpt lat="44.37103" lon="4.34607">
        <ele>241</ele>
        <time>2020-06-08T20:31:17Z</time>
      </trkpt>
      <trkpt lat="44.3706" lon="4.34642">
        <ele>243</ele>
        <time>2020-06-08T20:31:28Z</time>
      </trkpt>
      <trkpt lat="44.37061" lon="4.3466">
        <ele>245</ele>
        <time>2020-06-08T20:31:31Z</time>
      </trkpt>
      <trkpt lat="44.37132" lon="4.34736">
        <ele>244</ele>
        <time>2020-06-08T20:31:52Z</time>
      </trkpt>
      <trkpt lat="44.3718" lon="4.34769">
        <ele>242</ele>
        <time>2020-06-08T20:32:05Z</time>
      </trkpt>
      <trkpt lat="44.37257" lon="4.34801">
        <ele>239</ele>
        <time>2020-06-08T20:32:24Z</time>
      </trkpt>
      <trkpt lat="44.37317" lon="4.34833">
        <ele>237</ele>
        <time>2020-06-08T20:32:39Z</time>
      </trkpt>
      <trkpt lat="44.3738" lon="4.34903">
        <ele>231</ele>
        <time>2020-06-08T20:32:57Z</time>
      </trkpt>
      <trkpt lat="44.3741" lon="4.34991">
        <ele>228</ele>
        <time>2020-06-08T20:33:14Z</time>
      </trkpt>
      <trkpt lat="44.37445" lon="4.35025">
        <ele>221</ele>
        <time>2020-06-08T20:33:24Z</time>
      </trkpt>
      <trkpt lat="44.37471" lon="4.35118">
        <ele>213</ele>
        <time>2020-06-08T20:33:40Z</time>
      </trkpt>
      <trkpt lat="44.37451" lon="4.35167">
        <ele>215</ele>
        <time>2020-06-08T20:33:50Z</time>
      </trkpt>
      <trkpt lat="44.37461" lon="4.35203">
        <ele>211</ele>
        <time>2020-06-08T20:33:56Z</time>
      </trkpt>
      <trkpt lat="44.37466" lon="4.35272">
        <ele>207</ele>
        <time>2020-06-08T20:34:08Z</time>
      </trkpt>
      <trkpt lat="44.37454" lon="4.35329">
        <ele>205</ele>
        <time>2020-06-08T20:34:18Z</time>
      </trkpt>
      <trkpt lat="44.37458" lon="4.35407">
        <ele>202</ele>
        <time>2020-06-08T20:34:31Z</time>
      </trkpt>
      <trkpt lat="44.375" lon="4.35445">
        <ele>196</ele>
        <time>2020-06-08T20:34:42Z</time>
      </trkpt>
      <trkpt lat="44.37554" lon="4.35418">
        <ele>201</ele>
        <time>2020-06-08T20:34:56Z</time>
      </trkpt>
      <trkpt lat="44.37678" lon="4.35268">
        <ele>212</ele>
        <time>2020-06-08T20:35:34Z</time>
      </trkpt>
      <trkpt lat="44.37678" lon="4.35116">
        <ele>218</ele>
        <time>2020-06-08T20:35:59Z</time>
      </trkpt>
      <trkpt lat="44.37779" lon="4.34898">
        <ele>238</ele>
        <time>2020-06-08T20:36:43Z</time>
      </trkpt>
      <trkpt lat="44.37862" lon="4.34899">
        <ele>244</ele>
        <time>2020-06-08T20:37:02Z</time>
      </trkpt>
      <trkpt lat="44.37964" lon="4.34936">
        <ele>241</ele>
        <time>2020-06-08T20:37:27Z</time>
      </trkpt>
      <trkpt lat="44.38012" lon="4.34977">
        <ele>240</ele>
        <time>2020-06-08T20:37:40Z</time>
      </trkpt>
      <trkpt lat="44.38051" lon="4.35039">
        <ele>243</ele>
        <time>2020-06-08T20:37:54Z</time>
      </trkpt>
      <trkpt lat="44.38122" lon="4.35099">
        <ele>244</ele>
        <time>2020-06-08T20:38:13Z</time>
      </trkpt>
      <trkpt lat="44.38171" lon="4.35105">
        <ele>245</ele>
        <time>2020-06-08T20:38:25Z</time>
      </trkpt>
      <trkpt lat="44.38278" lon="4.35188">
        <ele>247</ele>
        <time>2020-06-08T20:38:53Z</time>
      </trkpt>
      <trkpt lat="44.38345" lon="4.35236">
        <ele>247</ele>
        <time>2020-06-08T20:39:11Z</time>
      </trkpt>
      <trkpt lat="44.38373" lon="4.3524">
        <ele>244</ele>
        <time>2020-06-08T20:39:17Z</time>
      </trkpt>
      <trkpt lat="44.3836" lon="4.35159">
        <ele>237</ele>
        <time>2020-06-08T20:39:31Z</time>
      </trkpt>
      <trkpt lat="44.38312" lon="4.35082">
        <ele>234</ele>
        <time>2020-06-08T20:39:48Z</time>
      </trkpt>
      <trkpt lat="44.38273" lon="4.3505">
        <ele>232</ele>
        <time>2020-06-08T20:39:59Z</time>
      </trkpt>
      <trkpt lat="44.38231" lon="4.35006">
        <ele>227</ele>
        <time>2020-06-08T20:40:11Z</time>
      </trkpt>
      <trkpt lat="44.38212" lon="4.35002">
        <ele>231</ele>
        <time>2020-06-08T20:40:15Z</time>
      </trkpt>
      <trkpt lat="44.38135" lon="4.349">
        <ele>225</ele>
        <time>2020-06-08T20:40:40Z</time>
      </trkpt>
      <trkpt lat="44.38146" lon="4.34902">
        <ele>224</ele>
        <time>2020-06-08T20:40:43Z</time>
      </trkpt>
      <trkpt lat="44.38206" lon="4.34957">
        <ele>222</ele>
        <time>2020-06-08T20:41:00Z</time>
      </trkpt>
      <trkpt lat="44.38252" lon="4.34995">
        <ele>220</ele>
        <time>2020-06-08T20:41:12Z</time>
      </trkpt>
      <trkpt lat="44.38294" lon="4.34989">
        <ele>214</ele>
        <time>2020-06-08T20:41:22Z</time>
      </trkpt>
      <trkpt lat="44.3836" lon="4.34992">
        <ele>205</ele>
        <time>2020-06-08T20:41:37Z</time>
      </trkpt>
      <trkpt lat="44.38451" lon="4.35132">
        <ele>205</ele>
        <time>2020-06-08T20:42:09Z</time>
      </trkpt>
      <trkpt lat="44.38516" lon="4.35178">
        <ele>196</ele>
        <time>2020-06-08T20:42:26Z</time>
      </trkpt>
      <trkpt lat="44.38583" lon="4.35202">
        <ele>188</ele>
        <time>2020-06-08T20:42:42Z</time>
      </trkpt>
      <trkpt lat="44.38616" lon="4.35245">
        <ele>192</ele>
        <time>2020-06-08T20:42:53Z</time>
      </trkpt>
      <trkpt lat="44.38649" lon="4.35269">
        <ele>189</ele>
        <time>2020-06-08T20:43:01Z</time>
      </trkpt>
      <trkpt lat="44.38693" lon="4.35316">
        <ele>186</ele>
        <time>2020-06-08T20:43:14Z</time>
      </trkpt>
      <trkpt lat="44.38762" lon="4.35368">
        <ele>176</ele>
        <time>2020-06-08T20:43:32Z</time>
      </trkpt>
      <trkpt lat="44.38835" lon="4.35446">
        <ele>173</ele>
        <time>2020-06-08T20:43:54Z</time>
      </trkpt>
      <trkpt lat="44.38911" lon="4.35519">
        <ele>166</ele>
        <time>2020-06-08T20:44:15Z</time>
      </trkpt>
      <trkpt lat="44.38912" lon="4.35566">
        <ele>175</ele>
        <time>2020-06-08T20:44:23Z</time>
      </trkpt>
      <trkpt lat="44.38948" lon="4.35584">
        <ele>165</ele>
        <time>2020-06-08T20:44:32Z</time>
      </trkpt>
      <trkpt lat="44.38996" lon="4.35645">
        <ele>159</ele>
        <time>2020-06-08T20:44:47Z</time>
      </trkpt>
      <trkpt lat="44.39033" lon="4.35766">
        <ele>155</ele>
        <time>2020-06-08T20:45:09Z</time>
      </trkpt>
      <trkpt lat="44.39054" lon="4.35844">
        <ele>151</ele>
        <time>2020-06-08T20:45:23Z</time>
      </trkpt>
      <trkpt lat="44.39005" lon="4.35974">
        <ele>170</ele>
        <time>2020-06-08T20:45:48Z</time>
      </trkpt>
      <trkpt lat="44.39031" lon="4.35981">
        <ele>167</ele>
        <time>2020-06-08T20:45:54Z</time>
      </trkpt>
      <trkpt lat="44.39092" lon="4.35962">
        <ele>155</ele>
        <time>2020-06-08T20:46:09Z</time>
      </trkpt>
      <trkpt lat="44.39142" lon="4.35959">
        <ele>148</ele>
        <time>2020-06-08T20:46:20Z</time>
      </trkpt>
      <trkpt lat="44.39194" lon="4.35992">
        <ele>146</ele>
        <time>2020-06-08T20:46:34Z</time>
      </trkpt>
      <trkpt lat="44.39257" lon="4.36061">
        <ele>143</ele>
        <time>2020-06-08T20:46:52Z</time>
      </trkpt>
      <trkpt lat="44.393" lon="4.36133">
        <ele>140</ele>
        <time>2020-06-08T20:47:08Z</time>
      </trkpt>
      <trkpt lat="44.39353" lon="4.36234">
        <ele>144</ele>
        <time>2020-06-08T20:47:29Z</time>
      </trkpt>
      <trkpt lat="44.39385" lon="4.36247">
        <ele>138</ele>
        <time>2020-06-08T20:47:37Z</time>
      </trkpt>
      <trkpt lat="44.39473" lon="4.36346">
        <ele>135</ele>
        <time>2020-06-08T20:48:03Z</time>
      </trkpt>
      <trkpt lat="44.3953" lon="4.36436">
        <ele>134</ele>
        <time>2020-06-08T20:48:23Z</time>
      </trkpt>
      <trkpt lat="44.39548" lon="4.36453">
        <ele>132</ele>
        <time>2020-06-08T20:48:28Z</time>
      </trkpt>
      <trkpt lat="44.39617" lon="4.36552">
        <ele>126</ele>
        <time>2020-06-08T20:48:51Z</time>
      </trkpt>
      <trkpt lat="44.39675" lon="4.36672">
        <ele>122</ele>
        <time>2020-06-08T20:49:15Z</time>
      </trkpt>
      <trkpt lat="44.397" lon="4.3673">
        <ele>122</ele>
        <time>2020-06-08T20:49:27Z</time>
      </trkpt>
      <trkpt lat="44.39713" lon="4.36791">
        <ele>120</ele>
        <time>2020-06-08T20:49:37Z</time>
      </trkpt>
      <trkpt lat="44.39718" lon="4.36852">
        <ele>117</ele>
        <time>2020-06-08T20:49:48Z</time>
      </trkpt>
      <trkpt lat="44.39708" lon="4.36907">
        <ele>118</ele>
        <time>2020-06-08T20:49:57Z</time>
      </trkpt>
      <trkpt lat="44.39737" lon="4.36945">
        <ele>113</ele>
        <time>2020-06-08T20:50:06Z</time>
      </trkpt>
      <trkpt lat="44.39757" lon="4.36977">
        <ele>112</ele>
        <time>2020-06-08T20:50:13Z</time>
      </trkpt>
      <trkpt lat="44.39773" lon="4.36991">
        <ele>111</ele>
        <time>2020-06-08T20:50:18Z</time>
      </trkpt>
      <trkpt lat="44.39779" lon="4.37006">
        <ele>112</ele>
        <time>2020-06-08T20:50:21Z</time>
      </trkpt>
      <trkpt lat="44.39792" lon="4.37025">
        <ele>112</ele>
        <time>2020-06-08T20:50:25Z</time>
      </trkpt>
      <trkpt lat="44.39812" lon="4.37047">
        <ele>109</ele>
        <time>2020-06-08T20:50:31Z</time>
      </trkpt>
      <trkpt lat="44.39824" lon="4.37068">
        <ele>107</ele>
        <time>2020-06-08T20:50:35Z</time>
      </trkpt>
      <trkpt lat="44.3983" lon="4.37086">
        <ele>107</ele>
        <time>2020-06-08T20:50:39Z</time>
      </trkpt>
      <trkpt lat="44.39837" lon="4.37209">
        <ele>116</ele>
        <time>2020-06-08T20:50:59Z</time>
      </trkpt>
      <trkpt lat="44.39838" lon="4.37283">
        <ele>116</ele>
        <time>2020-06-08T20:51:12Z</time>
      </trkpt>
      <trkpt lat="44.39835" lon="4.37344">
        <ele>114</ele>
        <time>2020-06-08T20:51:22Z</time>
      </trkpt>
      <trkpt lat="44.39804" lon="4.37499">
        <ele>108</ele>
        <time>2020-06-08T20:51:49Z</time>
      </trkpt>
      <trkpt lat="44.39818" lon="4.37542">
        <ele>102</ele>
        <time>2020-06-08T20:51:57Z</time>
      </trkpt>
      <trkpt lat="44.39822" lon="4.37577">
        <ele>98</ele>
        <time>2020-06-08T20:52:03Z</time>
      </trkpt>
      <trkpt lat="44.39822" lon="4.37734">
        <ele>91</ele>
        <time>2020-06-08T20:52:29Z</time>
      </trkpt>
      <trkpt lat="44.39815" lon="4.37767">
        <ele>91</ele>
        <time>2020-06-08T20:52:35Z</time>
      </trkpt>
      <trkpt lat="44.39805" lon="4.37787">
        <ele>91</ele>
        <time>2020-06-08T20:52:39Z</time>
      </trkpt>
      <trkpt lat="44.3952" lon="4.37886">
        <ele>98</ele>
        <time>2020-06-08T20:53:47Z</time>
      </trkpt>
      <trkpt lat="44.39482" lon="4.37873">
        <ele>99</ele>
        <time>2020-06-08T20:53:56Z</time>
      </trkpt>
      <trkpt lat="44.39429" lon="4.37874">
        <ele>98</ele>
        <time>2020-06-08T20:54:09Z</time>
      </trkpt>
      <trkpt lat="44.39388" lon="4.37884">
        <ele>99</ele>
        <time>2020-06-08T20:54:18Z</time>
      </trkpt>
      <trkpt lat="44.39363" lon="4.37893">
        <ele>99</ele>
        <time>2020-06-08T20:54:24Z</time>
      </trkpt>
      <trkpt lat="44.39383" lon="4.3793">
        <ele>100</ele>
        <time>2020-06-08T20:54:32Z</time>
      </trkpt>
      <trkpt lat="44.39319" lon="4.38069">
        <ele>108</ele>
        <time>2020-06-08T20:55:00Z</time>
      </trkpt>
      <trkpt lat="44.39309" lon="4.3806">
        <ele>109</ele>
        <time>2020-06-08T20:55:03Z</time>
      </trkpt>
      <trkpt lat="44.39305" lon="4.38046">
        <ele>109</ele>
        <time>2020-06-08T20:55:05Z</time>
      </trkpt>
      <trkpt lat="44.39293" lon="4.38049">
        <ele>110</ele>
        <time>2020-06-08T20:55:08Z</time>
      </trkpt>
      <trkpt lat="44.39284" lon="4.38025">
        <ele>111</ele>
        <time>2020-06-08T20:55:12Z</time>
      </trkpt>
      <trkpt lat="44.39269" lon="4.38024">
        <ele>113</ele>
        <time>2020-06-08T20:55:16Z</time>
      </trkpt>
      <trkpt lat="44.39246" lon="4.38008">
        <ele>116</ele>
        <time>2020-06-08T20:55:22Z</time>
      </trkpt>
      <trkpt lat="44.39226" lon="4.3799">
        <ele>119</ele>
        <time>2020-06-08T20:55:27Z</time>
      </trkpt>
      <trkpt lat="44.39201" lon="4.37988">
        <ele>123</ele>
        <time>2020-06-08T20:55:33Z</time>
      </trkpt>
      <trkpt lat="44.39193" lon="4.37978">
        <ele>125</ele>
        <time>2020-06-08T20:55:36Z</time>
      </trkpt>
      <trkpt lat="44.39183" lon="4.37947">
        <ele>127</ele>
        <time>2020-06-08T20:55:42Z</time>
      </trkpt>
      <trkpt lat="44.39114" lon="4.37911">
        <ele>136</ele>
        <time>2020-06-08T20:55:59Z</time>
      </trkpt>
      <trkpt lat="44.39115" lon="4.37983">
        <ele>138</ele>
        <time>2020-06-08T20:56:11Z</time>
      </trkpt>
      <trkpt lat="44.39134" lon="4.38025">
        <ele>136</ele>
        <time>2020-06-08T20:56:19Z</time>
      </trkpt>
      <trkpt lat="44.39134" lon="4.38088">
        <ele>140</ele>
        <time>2020-06-08T20:56:30Z</time>
      </trkpt>
      <trkpt lat="44.39139" lon="4.38136">
        <ele>142</ele>
        <time>2020-06-08T20:56:38Z</time>
      </trkpt>
      <trkpt lat="44.39127" lon="4.38149">
        <ele>145</ele>
        <time>2020-06-08T20:56:41Z</time>
      </trkpt>
      <trkpt lat="44.39102" lon="4.38159">
        <ele>151</ele>
        <time>2020-06-08T20:56:47Z</time>
      </trkpt>
      <trkpt lat="44.39069" lon="4.38169">
        <ele>157</ele>
        <time>2020-06-08T20:56:55Z</time>
      </trkpt>
      <trkpt lat="44.38995" lon="4.38128">
        <ele>163</ele>
        <time>2020-06-08T20:57:14Z</time>
      </trkpt>
      <trkpt lat="44.38984" lon="4.38118">
        <ele>164</ele>
        <time>2020-06-08T20:57:17Z</time>
      </trkpt>
      <trkpt lat="44.38961" lon="4.3811">
        <ele>165</ele>
        <time>2020-06-08T20:57:22Z</time>
      </trkpt>
      <trkpt lat="44.3895" lon="4.38108">
        <ele>166</ele>
        <time>2020-06-08T20:57:25Z</time>
      </trkpt>
      <trkpt lat="44.38905" lon="4.38115">
        <ele>168</ele>
        <time>2020-06-08T20:57:35Z</time>
      </trkpt>
      <trkpt lat="44.38894" lon="4.38113">
        <ele>167</ele>
        <time>2020-06-08T20:57:38Z</time>
      </trkpt>
      <trkpt lat="44.38865" lon="4.38099">
        <ele>166</ele>
        <time>2020-06-08T20:57:45Z</time>
      </trkpt>
      <trkpt lat="44.38811" lon="4.38132">
        <ele>163</ele>
        <time>2020-06-08T20:57:59Z</time>
      </trkpt>
      <trkpt lat="44.38783" lon="4.38173">
        <ele>160</ele>
        <time>2020-06-08T20:58:08Z</time>
      </trkpt>
      <trkpt lat="44.38745" lon="4.3822">
        <ele>158</ele>
        <time>2020-06-08T20:58:20Z</time>
      </trkpt>
      <trkpt lat="44.38724" lon="4.38257">
        <ele>159</ele>
        <time>2020-06-08T20:58:28Z</time>
      </trkpt>
      <trkpt lat="44.38711" lon="4.38352">
        <ele>161</ele>
        <time>2020-06-08T20:58:44Z</time>
      </trkpt>
      <trkpt lat="44.38706" lon="4.38362">
        <ele>162</ele>
        <time>2020-06-08T20:58:46Z</time>
      </trkpt>
      <trkpt lat="44.38687" lon="4.38361">
        <ele>163</ele>
        <time>2020-06-08T20:58:51Z</time>
      </trkpt>
      <trkpt lat="44.38674" lon="4.38367">
        <ele>163</ele>
        <time>2020-06-08T20:58:54Z</time>
      </trkpt>
      <trkpt lat="44.38657" lon="4.38395">
        <ele>164</ele>
        <time>2020-06-08T20:59:00Z</time>
      </trkpt>
      <trkpt lat="44.38638" lon="4.38396">
        <ele>164</ele>
        <time>2020-06-08T20:59:05Z</time>
      </trkpt>
      <trkpt lat="44.3858" lon="4.38361">
        <ele>163</ele>
        <time>2020-06-08T20:59:19Z</time>
      </trkpt>
      <trkpt lat="44.38563" lon="4.3836">
        <ele>162</ele>
        <time>2020-06-08T20:59:23Z</time>
      </trkpt>
      <trkpt lat="44.3861" lon="4.38435">
        <ele>161</ele>
        <time>2020-06-08T20:59:40Z</time>
      </trkpt>
      <trkpt lat="44.38644" lon="4.38495">
        <ele>155</ele>
        <time>2020-06-08T20:59:53Z</time>
      </trkpt>
      <trkpt lat="44.38614" lon="4.38542">
        <ele>150</ele>
        <time>2020-06-08T21:00:03Z</time>
      </trkpt>
      <trkpt lat="44.38578" lon="4.3854">
        <ele>151</ele>
        <time>2020-06-08T21:00:12Z</time>
      </trkpt>
      <trkpt lat="44.38563" lon="4.38603">
        <ele>153</ele>
        <time>2020-06-08T21:00:23Z</time>
      </trkpt>
      <trkpt lat="44.38487" lon="4.3865">
        <ele>165</ele>
        <time>2020-06-08T21:00:42Z</time>
      </trkpt>
      <trkpt lat="44.38407" lon="4.38743">
        <ele>174</ele>
        <time>2020-06-08T21:01:06Z</time>
      </trkpt>
      <trkpt lat="44.38335" lon="4.38817">
        <ele>178</ele>
        <time>2020-06-08T21:01:27Z</time>
      </trkpt>
      <trkpt lat="44.38302" lon="4.38875">
        <ele>181</ele>
        <time>2020-06-08T21:01:40Z</time>
      </trkpt>
      <trkpt lat="44.38233" lon="4.38959">
        <ele>181</ele>
        <time>2020-06-08T21:02:01Z</time>
      </trkpt>
      <trkpt lat="44.38205" lon="4.39005">
        <ele>184</ele>
        <time>2020-06-08T21:02:11Z</time>
      </trkpt>
      <trkpt lat="44.38175" lon="4.39064">
        <ele>174</ele>
        <time>2020-06-08T21:02:23Z</time>
      </trkpt>
      <trkpt lat="44.38088" lon="4.39095">
        <ele>171</ele>
        <time>2020-06-08T21:02:44Z</time>
      </trkpt>
      <trkpt lat="44.38045" lon="4.39142">
        <ele>168</ele>
        <time>2020-06-08T21:02:57Z</time>
      </trkpt>
      <trkpt lat="44.38011" lon="4.39201">
        <ele>164</ele>
        <time>2020-06-08T21:03:10Z</time>
      </trkpt>
      <trkpt lat="44.37976" lon="4.39255">
        <ele>158</ele>
        <time>2020-06-08T21:03:22Z</time>
      </trkpt>
      <trkpt lat="44.37944" lon="4.39227">
        <ele>162</ele>
        <time>2020-06-08T21:03:31Z</time>
      </trkpt>
      <trkpt lat="44.37929" lon="4.39189">
        <ele>168</ele>
        <time>2020-06-08T21:03:38Z</time>
      </trkpt>
      <trkpt lat="44.37865" lon="4.3919">
        <ele>168</ele>
        <time>2020-06-08T21:03:53Z</time>
      </trkpt>
      <trkpt lat="44.37809" lon="4.39184">
        <ele>170</ele>
        <time>2020-06-08T21:04:06Z</time>
      </trkpt>
      <trkpt lat="44.37765" lon="4.39161">
        <ele>172</ele>
        <time>2020-06-08T21:04:17Z</time>
      </trkpt>
      <trkpt lat="44.3768" lon="4.39137">
        <ele>184</ele>
        <time>2020-06-08T21:04:37Z</time>
      </trkpt>
      <trkpt lat="44.37663" lon="4.39128">
        <ele>186</ele>
        <time>2020-06-08T21:04:41Z</time>
      </trkpt>
      <trkpt lat="44.37571" lon="4.39113">
        <ele>186</ele>
        <time>2020-06-08T21:05:03Z</time>
      </trkpt>
      <trkpt lat="44.37524" lon="4.39046">
        <ele>189</ele>
        <time>2020-06-08T21:05:19Z</time>
      </trkpt>
      <trkpt lat="44.37465" lon="4.39085">
        <ele>186</ele>
        <time>2020-06-08T21:05:34Z</time>
      </trkpt>
      <trkpt lat="44.3746" lon="4.39149">
        <ele>186</ele>
        <time>2020-06-08T21:05:45Z</time>
      </trkpt>
      <trkpt lat="44.37486" lon="4.39229">
        <ele>189</ele>
        <time>2020-06-08T21:05:59Z</time>
      </trkpt>
      <trkpt lat="44.37446" lon="4.39266">
        <ele>190</ele>
        <time>2020-06-08T21:06:10Z</time>
      </trkpt>
      <trkpt lat="44.37397" lon="4.39269">
        <ele>192</ele>
        <time>2020-06-08T21:06:22Z</time>
      </trkpt>
      <trkpt lat="44.37328" lon="4.39238">
        <ele>196</ele>
        <time>2020-06-08T21:06:39Z</time>
      </trkpt>
      <trkpt lat="44.37269" lon="4.39216">
        <ele>200</ele>
        <time>2020-06-08T21:06:53Z</time>
      </trkpt>
      <trkpt lat="44.37228" lon="4.39209">
        <ele>203</ele>
        <time>2020-06-08T21:07:03Z</time>
      </trkpt>
      <trkpt lat="44.37199" lon="4.39227">
        <ele>209</ele>
        <time>2020-06-08T21:07:10Z</time>
      </trkpt>
      <trkpt lat="44.37177" lon="4.39257">
        <ele>215</ele>
        <time>2020-06-08T21:07:17Z</time>
      </trkpt>
      <trkpt lat="44.37176" lon="4.3931">
        <ele>220</ele>
        <time>2020-06-08T21:07:26Z</time>
      </trkpt>
      <trkpt lat="44.37102" lon="4.3938">
        <ele>229</ele>
        <time>2020-06-08T21:07:47Z</time>
      </trkpt>
      <trkpt lat="44.36964" lon="4.39484">
        <ele>240</ele>
        <time>2020-06-08T21:08:24Z</time>
      </trkpt>
      <trkpt lat="44.36943" lon="4.39563">
        <ele>244</ele>
        <time>2020-06-08T21:08:38Z</time>
      </trkpt>
      <trkpt lat="44.36894" lon="4.39609">
        <ele>248</ele>
        <time>2020-06-08T21:08:52Z</time>
      </trkpt>
      <trkpt lat="44.36821" lon="4.39662">
        <ele>251</ele>
        <time>2020-06-08T21:09:11Z</time>
      </trkpt>
      <trkpt lat="44.36706" lon="4.396">
        <ele>258</ele>
        <time>2020-06-08T21:09:40Z</time>
      </trkpt>
      <trkpt lat="44.36627" lon="4.39622">
        <ele>262</ele>
        <time>2020-06-08T21:09:58Z</time>
      </trkpt>
      <trkpt lat="44.36589" lon="4.3968">
        <ele>265</ele>
        <time>2020-06-08T21:10:11Z</time>
      </trkpt>
      <trkpt lat="44.36544" lon="4.39723">
        <ele>267</ele>
        <time>2020-06-08T21:10:24Z</time>
      </trkpt>
      <trkpt lat="44.36497" lon="4.39747">
        <ele>267</ele>
        <time>2020-06-08T21:10:36Z</time>
      </trkpt>
      <trkpt lat="44.36462" lon="4.3978">
        <ele>265</ele>
        <time>2020-06-08T21:10:46Z</time>
      </trkpt>
      <trkpt lat="44.36455" lon="4.39854">
        <ele>263</ele>
        <time>2020-06-08T21:10:58Z</time>
      </trkpt>
      <trkpt lat="44.36495" lon="4.39945">
        <ele>262</ele>
        <time>2020-06-08T21:11:16Z</time>
      </trkpt>
      <trkpt lat="44.3647" lon="4.39983">
        <ele>259</ele>
        <time>2020-06-08T21:11:25Z</time>
      </trkpt>
      <trkpt lat="44.36392" lon="4.40055">
        <ele>262</ele>
        <time>2020-06-08T21:11:46Z</time>
      </trkpt>
      <trkpt lat="44.36393" lon="4.40111">
        <ele>265</ele>
        <time>2020-06-08T21:11:56Z</time>
      </trkpt>
      <trkpt lat="44.36415" lon="4.40223">
        <ele>269</ele>
        <time>2020-06-08T21:12:15Z</time>
      </trkpt>
      <trkpt lat="44.36363" lon="4.40183">
        <ele>272</ele>
        <time>2020-06-08T21:12:29Z</time>
      </trkpt>
      <trkpt lat="44.3635" lon="4.40254">
        <ele>276</ele>
        <time>2020-06-08T21:12:41Z</time>
      </trkpt>
      <trkpt lat="44.36304" lon="4.40339">
        <ele>276</ele>
        <time>2020-06-08T21:12:59Z</time>
      </trkpt>
      <trkpt lat="44.36282" lon="4.40393">
        <ele>276</ele>
        <time>2020-06-08T21:13:09Z</time>
      </trkpt>
      <trkpt lat="44.36189" lon="4.40452">
        <ele>273</ele>
        <time>2020-06-08T21:13:33Z</time>
      </trkpt>
      <trkpt lat="44.36073" lon="4.40506">
        <ele>270</ele>
        <time>2020-06-08T21:14:02Z</time>
      </trkpt>
      <trkpt lat="44.36057" lon="4.4051">
        <ele>270</ele>
        <time>2020-06-08T21:14:06Z</time>
      </trkpt>
      <trkpt lat="44.35988" lon="4.4044">
        <ele>271</ele>
        <time>2020-06-08T21:14:26Z</time>
      </trkpt>
      <trkpt lat="44.35884" lon="4.4037">
        <ele>271</ele>
        <time>2020-06-08T21:14:53Z</time>
      </trkpt>
      <trkpt lat="44.3579" lon="4.40353">
        <ele>271</ele>
        <time>2020-06-08T21:15:15Z</time>
      </trkpt>
      <trkpt lat="44.3576" lon="4.4034">
        <ele>271</ele>
        <time>2020-06-08T21:15:22Z</time>
      </trkpt>
      <trkpt lat="44.35699" lon="4.40295">
        <ele>269</ele>
        <time>2020-06-08T21:15:38Z</time>
      </trkpt>
      <trkpt lat="44.35672" lon="4.40264">
        <ele>268</ele>
        <time>2020-06-08T21:15:46Z</time>
      </trkpt>
      <trkpt lat="44.35663" lon="4.40208">
        <ele>266</ele>
        <time>2020-06-08T21:15:56Z</time>
      </trkpt>
      <trkpt lat="44.35647" lon="4.40207">
        <ele>264</ele>
        <time>2020-06-08T21:16:00Z</time>
      </trkpt>
      <trkpt lat="44.3562" lon="4.40274">
        <ele>260</ele>
        <time>2020-06-08T21:16:12Z</time>
      </trkpt>
      <trkpt lat="44.35587" lon="4.40315">
        <ele>259</ele>
        <time>2020-06-08T21:16:23Z</time>
      </trkpt>
      <trkpt lat="44.35578" lon="4.40301">
        <ele>256</ele>
        <time>2020-06-08T21:16:26Z</time>
      </trkpt>
      <trkpt lat="44.35586" lon="4.40241">
        <ele>253</ele>
        <time>2020-06-08T21:16:36Z</time>
      </trkpt>
      <trkpt lat="44.3558" lon="4.40209">
        <ele>253</ele>
        <time>2020-06-08T21:16:42Z</time>
      </trkpt>
      <trkpt lat="44.35481" lon="4.40179">
        <ele>240</ele>
        <time>2020-06-08T21:17:05Z</time>
      </trkpt>
      <trkpt lat="44.35425" lon="4.40139">
        <ele>234</ele>
        <time>2020-06-08T21:17:20Z</time>
      </trkpt>
      <trkpt lat="44.35393" lon="4.40131">
        <ele>232</ele>
        <time>2020-06-08T21:17:28Z</time>
      </trkpt>
      <trkpt lat="44.35352" lon="4.40139">
        <ele>232</ele>
        <time>2020-06-08T21:17:37Z</time>
      </trkpt>
      <trkpt lat="44.35199" lon="4.40047">
        <ele>244</ele>
        <time>2020-06-08T21:18:16Z</time>
      </trkpt>
      <trkpt lat="44.35181" lon="4.40058">
        <ele>246</ele>
        <time>2020-06-08T21:18:21Z</time>
      </trkpt>
      <trkpt lat="44.35156" lon="4.40067">
        <ele>247</ele>
        <time>2020-06-08T21:18:27Z</time>
      </trkpt>
      <trkpt lat="44.35131" lon="4.4016">
        <ele>255</ele>
        <time>2020-06-08T21:18:43Z</time>
      </trkpt>
      <trkpt lat="44.35103" lon="4.4021">
        <ele>256</ele>
        <time>2020-06-08T21:18:54Z</time>
      </trkpt>
      <trkpt lat="44.35082" lon="4.40238">
        <ele>258</ele>
        <time>2020-06-08T21:19:01Z</time>
      </trkpt>
      <trkpt lat="44.3503" lon="4.40227">
        <ele>259</ele>
        <time>2020-06-08T21:19:13Z</time>
      </trkpt>
      <trkpt lat="44.35006" lon="4.40267">
        <ele>264</ele>
        <time>2020-06-08T21:19:22Z</time>
      </trkpt>
      <trkpt lat="44.3497" lon="4.40383">
        <ele>268</ele>
        <time>2020-06-08T21:19:43Z</time>
      </trkpt>
      <trkpt lat="44.34957" lon="4.40441">
        <ele>267</ele>
        <time>2020-06-08T21:19:53Z</time>
      </trkpt>
      <trkpt lat="44.3495" lon="4.40502">
        <ele>264</ele>
        <time>2020-06-08T21:20:03Z</time>
      </trkpt>
      <trkpt lat="44.34958" lon="4.40528">
        <ele>264</ele>
        <time>2020-06-08T21:20:08Z</time>
      </trkpt>
      <trkpt lat="44.34906" lon="4.40604">
        <ele>265</ele>
        <time>2020-06-08T21:20:26Z</time>
      </trkpt>
      <trkpt lat="44.34706" lon="4.40667">
        <ele>272</ele>
        <time>2020-06-08T21:21:13Z</time>
      </trkpt>
      <trkpt lat="44.34694" lon="4.40649">
        <ele>274</ele>
        <time>2020-06-08T21:21:18Z</time>
      </trkpt>
      <trkpt lat="44.34673" lon="4.40645">
        <ele>276</ele>
        <time>2020-06-08T21:21:22Z</time>
      </trkpt>
      <trkpt lat="44.34572" lon="4.4066">
        <ele>285</ele>
        <time>2020-06-08T21:21:46Z</time>
      </trkpt>
      <trkpt lat="44.34479" lon="4.40655">
        <ele>291</ele>
        <time>2020-06-08T21:22:08Z</time>
      </trkpt>
      <trkpt lat="44.34407" lon="4.40635">
        <ele>291</ele>
        <time>2020-06-08T21:22:25Z</time>
      </trkpt>
      <trkpt lat="44.34338" lon="4.40598">
        <ele>290</ele>
        <time>2020-06-08T21:22:42Z</time>
      </trkpt>
      <trkpt lat="44.3427" lon="4.40566">
        <ele>294</ele>
        <time>2020-06-08T21:22:59Z</time>
      </trkpt>
      <trkpt lat="44.34229" lon="4.4054">
        <ele>297</ele>
        <time>2020-06-08T21:23:10Z</time>
      </trkpt>
      <trkpt lat="44.34176" lon="4.40501">
        <ele>298</ele>
        <time>2020-06-08T21:23:24Z</time>
      </trkpt>
      <trkpt lat="44.34169" lon="4.40493">
        <ele>299</ele>
        <time>2020-06-08T21:23:26Z</time>
      </trkpt>
      <trkpt lat="44.34199" lon="4.40459">
        <ele>298</ele>
        <time>2020-06-08T21:23:35Z</time>
      </trkpt>
      <trkpt lat="44.34209" lon="4.40438">
        <ele>299</ele>
        <time>2020-06-08T21:23:39Z</time>
      </trkpt>
      <trkpt lat="44.34215" lon="4.40396">
        <ele>304</ele>
        <time>2020-06-08T21:23:46Z</time>
      </trkpt>
      <trkpt lat="44.34232" lon="4.4039">
        <ele>304</ele>
        <time>2020-06-08T21:23:50Z</time>
      </trkpt>
      <trkpt lat="44.34252" lon="4.40377">
        <ele>305</ele>
        <time>2020-06-08T21:23:55Z</time>
      </trkpt>
      <trkpt lat="44.34311" lon="4.40285">
        <ele>308</ele>
        <time>2020-06-08T21:24:16Z</time>
      </trkpt>
      <trkpt lat="44.34321" lon="4.402">
        <ele>311</ele>
        <time>2020-06-08T21:24:30Z</time>
      </trkpt>
      <trkpt lat="44.34336" lon="4.40102">
        <ele>307</ele>
        <time>2020-06-08T21:24:47Z</time>
      </trkpt>
      <trkpt lat="44.34329" lon="4.40047">
        <ele>307</ele>
        <time>2020-06-08T21:24:56Z</time>
      </trkpt>
      <trkpt lat="44.34312" lon="4.39988">
        <ele>308</ele>
        <time>2020-06-08T21:25:07Z</time>
      </trkpt>
      <trkpt lat="44.34286" lon="4.39948">
        <ele>309</ele>
        <time>2020-06-08T21:25:16Z</time>
      </trkpt>
      <trkpt lat="44.34246" lon="4.39924">
        <ele>313</ele>
        <time>2020-06-08T21:25:26Z</time>
      </trkpt>
      <trkpt lat="44.34194" lon="4.39909">
        <ele>318</ele>
        <time>2020-06-08T21:25:39Z</time>
      </trkpt>
      <trkpt lat="44.34146" lon="4.3991">
        <ele>322</ele>
        <time>2020-06-08T21:25:50Z</time>
      </trkpt>
      <trkpt lat="44.34108" lon="4.39925">
        <ele>327</ele>
        <time>2020-06-08T21:25:59Z</time>
      </trkpt>
      <trkpt lat="44.34082" lon="4.39941">
        <ele>331</ele>
        <time>2020-06-08T21:26:06Z</time>
      </trkpt>
      <trkpt lat="44.34019" lon="4.39987">
        <ele>336</ele>
        <time>2020-06-08T21:26:22Z</time>
      </trkpt>
      <trkpt lat="44.33945" lon="4.40004">
        <ele>339</ele>
        <time>2020-06-08T21:26:40Z</time>
      </trkpt>
      <trkpt lat="44.33897" lon="4.40003">
        <ele>341</ele>
        <time>2020-06-08T21:26:51Z</time>
      </trkpt>
      <trkpt lat="44.33891" lon="4.40058">
        <ele>342</ele>
        <time>2020-06-08T21:27:00Z</time>
      </trkpt>
      <trkpt lat="44.33882" lon="4.40071">
        <ele>343</ele>
        <time>2020-06-08T21:27:03Z</time>
      </trkpt>
      <trkpt lat="44.33871" lon="4.40074">
        <ele>343</ele>
        <time>2020-06-08T21:27:06Z</time>
      </trkpt>
      <trkpt lat="44.33832" lon="4.40042">
        <ele>345</ele>
        <time>2020-06-08T21:27:17Z</time>
      </trkpt>
      <trkpt lat="44.33813" lon="4.40041">
        <ele>346</ele>
        <time>2020-06-08T21:27:21Z</time>
      </trkpt>
      <trkpt lat="44.33795" lon="4.40096">
        <ele>346</ele>
        <time>2020-06-08T21:27:31Z</time>
      </trkpt>
      <trkpt lat="44.33757" lon="4.40086">
        <ele>349</ele>
        <time>2020-06-08T21:27:40Z</time>
      </trkpt>
      <trkpt lat="44.33728" lon="4.40112">
        <ele>351</ele>
        <time>2020-06-08T21:27:48Z</time>
      </trkpt>
      <trkpt lat="44.33712" lon="4.40123">
        <ele>352</ele>
        <time>2020-06-08T21:27:52Z</time>
      </trkpt>
      <trkpt lat="44.33694" lon="4.40127">
        <ele>354</ele>
        <time>2020-06-08T21:27:57Z</time>
      </trkpt>
      <trkpt lat="44.33679" lon="4.40166">
        <ele>356</ele>
        <time>2020-06-08T21:28:04Z</time>
      </trkpt>
      <trkpt lat="44.33668" lon="4.40205">
        <ele>357</ele>
        <time>2020-06-08T21:28:11Z</time>
      </trkpt>
      <trkpt lat="44.33652" lon="4.40216">
        <ele>359</ele>
        <time>2020-06-08T21:28:15Z</time>
      </trkpt>
      <trkpt lat="44.33621" lon="4.4021">
        <ele>362</ele>
        <time>2020-06-08T21:28:22Z</time>
      </trkpt>
      <trkpt lat="44.33602" lon="4.40238">
        <ele>364</ele>
        <time>2020-06-08T21:28:29Z</time>
      </trkpt>
      <trkpt lat="44.33578" lon="4.40264">
        <ele>366</ele>
        <time>2020-06-08T21:28:36Z</time>
      </trkpt>
      <trkpt lat="44.33564" lon="4.40302">
        <ele>366</ele>
        <time>2020-06-08T21:28:43Z</time>
      </trkpt>
      <trkpt lat="44.33541" lon="4.40319">
        <ele>366</ele>
        <time>2020-06-08T21:28:49Z</time>
      </trkpt>
      <trkpt lat="44.3352" lon="4.4032">
        <ele>367</ele>
        <time>2020-06-08T21:28:54Z</time>
      </trkpt>
      <trkpt lat="44.33495" lon="4.4034">
        <ele>367</ele>
        <time>2020-06-08T21:29:01Z</time>
      </trkpt>
      <trkpt lat="44.33463" lon="4.40347">
        <ele>368</ele>
        <time>2020-06-08T21:29:08Z</time>
      </trkpt>
      <trkpt lat="44.33435" lon="4.4034">
        <ele>369</ele>
        <time>2020-06-08T21:29:15Z</time>
      </trkpt>
      <trkpt lat="44.3341" lon="4.40339">
        <ele>369</ele>
        <time>2020-06-08T21:29:21Z</time>
      </trkpt>
      <trkpt lat="44.33354" lon="4.40348">
        <ele>368</ele>
        <time>2020-06-08T21:29:34Z</time>
      </trkpt>
      <trkpt lat="44.33342" lon="4.40347">
        <ele>368</ele>
        <time>2020-06-08T21:29:37Z</time>
      </trkpt>
      <trkpt lat="44.33322" lon="4.4034">
        <ele>368</ele>
        <time>2020-06-08T21:29:42Z</time>
      </trkpt>
      <trkpt lat="44.33304" lon="4.40325">
        <ele>367</ele>
        <time>2020-06-08T21:29:47Z</time>
      </trkpt>
      <trkpt lat="44.33251" lon="4.40332">
        <ele>365</ele>
        <time>2020-06-08T21:29:59Z</time>
      </trkpt>
      <trkpt lat="44.33222" lon="4.40327">
        <ele>364</ele>
        <time>2020-06-08T21:30:06Z</time>
      </trkpt>
      <trkpt lat="44.33192" lon="4.40338">
        <ele>362</ele>
        <time>2020-06-08T21:30:13Z</time>
      </trkpt>
      <trkpt lat="44.33164" lon="4.40345">
        <ele>361</ele>
        <time>2020-06-08T21:30:20Z</time>
      </trkpt>
      <trkpt lat="44.33145" lon="4.40362">
        <ele>362</ele>
        <time>2020-06-08T21:30:25Z</time>
      </trkpt>
      <trkpt lat="44.33129" lon="4.40385">
        <ele>363</ele>
        <time>2020-06-08T21:30:30Z</time>
      </trkpt>
      <trkpt lat="44.33077" lon="4.40439">
        <ele>365</ele>
        <time>2020-06-08T21:30:45Z</time>
      </trkpt>
      <trkpt lat="44.3305" lon="4.40415">
        <ele>366</ele>
        <time>2020-06-08T21:30:53Z</time>
      </trkpt>
      <trkpt lat="44.33007" lon="4.4035">
        <ele>365</ele>
        <time>2020-06-08T21:31:08Z</time>
      </trkpt>
      <trkpt lat="44.3297" lon="4.40315">
        <ele>364</ele>
        <time>2020-06-08T21:31:18Z</time>
      </trkpt>
      <trkpt lat="44.32942" lon="4.40304">
        <ele>364</ele>
        <time>2020-06-08T21:31:25Z</time>
      </trkpt>
      <trkpt lat="44.32864" lon="4.40291">
        <ele>364</ele>
        <time>2020-06-08T21:31:43Z</time>
      </trkpt>
      <trkpt lat="44.3285" lon="4.40236">
        <ele>361</ele>
        <time>2020-06-08T21:31:53Z</time>
      </trkpt>
      <trkpt lat="44.32824" lon="4.40184">
        <ele>359</ele>
        <time>2020-06-08T21:32:04Z</time>
      </trkpt>
      <trkpt lat="44.32811" lon="4.40151">
        <ele>357</ele>
        <time>2020-06-08T21:32:10Z</time>
      </trkpt>
      <trkpt lat="44.32774" lon="4.4012">
        <ele>356</ele>
        <time>2020-06-08T21:32:20Z</time>
      </trkpt>
      <trkpt lat="44.32736" lon="4.40097">
        <ele>355</ele>
        <time>2020-06-08T21:32:30Z</time>
      </trkpt>
      <trkpt lat="44.32696" lon="4.40012">
        <ele>353</ele>
        <time>2020-06-08T21:32:47Z</time>
      </trkpt>
      <trkpt lat="44.32652" lon="4.39951">
        <ele>353</ele>
        <time>2020-06-08T21:33:01Z</time>
      </trkpt>
      <trkpt lat="44.32557" lon="4.39952">
        <ele>353</ele>
        <time>2020-06-08T21:33:23Z</time>
      </trkpt>
      <trkpt lat="44.32438" lon="4.40015">
        <ele>344</ele>
        <time>2020-06-08T21:33:53Z</time>
      </trkpt>
      <trkpt lat="44.3237" lon="4.40029">
        <ele>340</ele>
        <time>2020-06-08T21:34:09Z</time>
      </trkpt>
      <trkpt lat="44.3232" lon="4.39999">
        <ele>341</ele>
        <time>2020-06-08T21:34:22Z</time>
      </trkpt>
      <trkpt lat="44.32264" lon="4.39961">
        <ele>344</ele>
        <time>2020-06-08T21:34:36Z</time>
      </trkpt>
      <trkpt lat="44.32227" lon="4.40031">
        <ele>341</ele>
        <time>2020-06-08T21:34:51Z</time>
      </trkpt>
      <trkpt lat="44.32196" lon="4.4008">
        <ele>338</ele>
        <time>2020-06-08T21:35:02Z</time>
      </trkpt>
      <trkpt lat="44.32156" lon="4.40128">
        <ele>335</ele>
        <time>2020-06-08T21:35:14Z</time>
      </trkpt>
      <trkpt lat="44.3212" lon="4.40147">
        <ele>333</ele>
        <time>2020-06-08T21:35:23Z</time>
      </trkpt>
      <trkpt lat="44.32109" lon="4.40211">
        <ele>329</ele>
        <time>2020-06-08T21:35:34Z</time>
      </trkpt>
      <trkpt lat="44.32083" lon="4.40289">
        <ele>325</ele>
        <time>2020-06-08T21:35:48Z</time>
      </trkpt>
      <trkpt lat="44.3198" lon="4.40355">
        <ele>317</ele>
        <time>2020-06-08T21:36:15Z</time>
      </trkpt>
      <trkpt lat="44.31901" lon="4.40392">
        <ele>310</ele>
        <time>2020-06-08T21:36:34Z</time>
      </trkpt>
      <trkpt lat="44.31915" lon="4.40474">
        <ele>307</ele>
        <time>2020-06-08T21:36:48Z</time>
      </trkpt>
      <trkpt lat="44.31787" lon="4.40551">
        <ele>290</ele>
        <time>2020-06-08T21:37:21Z</time>
      </trkpt>
      <trkpt lat="44.31782" lon="4.40631">
        <ele>285</ele>
        <time>2020-06-08T21:37:34Z</time>
      </trkpt>
      <trkpt lat="44.31989" lon="4.40721">
        <ele>296</ele>
        <time>2020-06-08T21:38:25Z</time>
      </trkpt>
      <trkpt lat="44.31899" lon="4.40812">
        <ele>297</ele>
        <time>2020-06-08T21:38:51Z</time>
      </trkpt>
      <trkpt lat="44.31838" lon="4.40923">
        <ele>303</ele>
        <time>2020-06-08T21:39:14Z</time>
      </trkpt>
      <trkpt lat="44.31786" lon="4.41079">
        <ele>301</ele>
        <time>2020-06-08T21:39:43Z</time>
      </trkpt>
      <trkpt lat="44.31974" lon="4.41122">
        <ele>312</ele>
        <time>2020-06-08T21:40:28Z</time>
      </trkpt>
      <trkpt lat="44.31978" lon="4.4114">
        <ele>312</ele>
        <time>2020-06-08T21:40:31Z</time>
      </trkpt>
      <trkpt lat="44.31935" lon="4.41163">
        <ele>310</ele>
        <time>2020-06-08T21:40:42Z</time>
      </trkpt>
      <trkpt lat="44.31832" lon="4.41211">
        <ele>303</ele>
        <time>2020-06-08T21:41:07Z</time>
      </trkpt>
      <trkpt lat="44.31858" lon="4.41272">
        <ele>304</ele>
        <time>2020-06-08T21:41:19Z</time>
      </trkpt>
      <trkpt lat="44.31847" lon="4.41341">
        <ele>306</ele>
        <time>2020-06-08T21:41:31Z</time>
      </trkpt>
      <trkpt lat="44.3189" lon="4.41385">
        <ele>309</ele>
        <time>2020-06-08T21:41:43Z</time>
      </trkpt>
      <trkpt lat="44.31937" lon="4.41407">
        <ele>313</ele>
        <time>2020-06-08T21:41:55Z</time>
      </trkpt>
      <trkpt lat="44.31968" lon="4.41401">
        <ele>315</ele>
        <time>2020-06-08T21:42:02Z</time>
      </trkpt>
      <trkpt lat="44.32068" lon="4.4145">
        <ele>316</ele>
        <time>2020-06-08T21:42:27Z</time>
      </trkpt>
      <trkpt lat="44.32147" lon="4.41457">
        <ele>316</ele>
        <time>2020-06-08T21:42:45Z</time>
      </trkpt>
      <trkpt lat="44.3215" lon="4.41477">
        <ele>316</ele>
        <time>2020-06-08T21:42:49Z</time>
      </trkpt>
      <trkpt lat="44.3217" lon="4.41491">
        <ele>316</ele>
        <time>2020-06-08T21:42:54Z</time>
      </trkpt>
      <trkpt lat="44.32157" lon="4.41519">
        <ele>315</ele>
        <time>2020-06-08T21:42:59Z</time>
      </trkpt>
      <trkpt lat="44.32099" lon="4.41575">
        <ele>313</ele>
        <time>2020-06-08T21:43:16Z</time>
      </trkpt>
      <trkpt lat="44.32068" lon="4.41664">
        <ele>311</ele>
        <time>2020-06-08T21:43:32Z</time>
      </trkpt>
      <trkpt lat="44.32029" lon="4.4174">
        <ele>307</ele>
        <time>2020-06-08T21:43:48Z</time>
      </trkpt>
      <trkpt lat="44.3202" lon="4.41797">
        <ele>305</ele>
        <time>2020-06-08T21:43:58Z</time>
      </trkpt>
      <trkpt lat="44.31757" lon="4.41836">
        <ele>302</ele>
        <time>2020-06-08T21:44:59Z</time>
      </trkpt>
      <trkpt lat="44.31716" lon="4.41874">
        <ele>304</ele>
        <time>2020-06-08T21:45:11Z</time>
      </trkpt>
      <trkpt lat="44.31642" lon="4.41891">
        <ele>302</ele>
        <time>2020-06-08T21:45:28Z</time>
      </trkpt>
      <trkpt lat="44.31651" lon="4.41908">
        <ele>304</ele>
        <time>2020-06-08T21:45:32Z</time>
      </trkpt>
      <trkpt lat="44.31676" lon="4.41929">
        <ele>306</ele>
        <time>2020-06-08T21:45:39Z</time>
      </trkpt>
      <trkpt lat="44.31658" lon="4.41955">
        <ele>307</ele>
        <time>2020-06-08T21:45:45Z</time>
      </trkpt>
      <trkpt lat="44.31649" lon="4.42005">
        <ele>308</ele>
        <time>2020-06-08T21:45:53Z</time>
      </trkpt>
      <trkpt lat="44.31644" lon="4.42017">
        <ele>307</ele>
        <time>2020-06-08T21:45:56Z</time>
      </trkpt>
      <trkpt lat="44.31631" lon="4.42008">
        <ele>307</ele>
        <time>2020-06-08T21:45:59Z</time>
      </trkpt>
      <trkpt lat="44.31611" lon="4.42026">
        <ele>305</ele>
        <time>2020-06-08T21:46:05Z</time>
      </trkpt>
      <trkpt lat="44.31561" lon="4.42077">
        <ele>302</ele>
        <time>2020-06-08T21:46:19Z</time>
      </trkpt>
      <trkpt lat="44.3149" lon="4.42144">
        <ele>295</ele>
        <time>2020-06-08T21:46:39Z</time>
      </trkpt>
      <trkpt lat="44.31432" lon="4.42205">
        <ele>295</ele>
        <time>2020-06-08T21:46:56Z</time>
      </trkpt>
      <trkpt lat="44.31384" lon="4.4226">
        <ele>297</ele>
        <time>2020-06-08T21:47:11Z</time>
      </trkpt>
      <trkpt lat="44.31384" lon="4.42305">
        <ele>298</ele>
        <time>2020-06-08T21:47:18Z</time>
      </trkpt>
      <trkpt lat="44.31395" lon="4.42337">
        <ele>298</ele>
        <time>2020-06-08T21:47:24Z</time>
      </trkpt>
      <trkpt lat="44.31406" lon="4.42358">
        <ele>299</ele>
        <time>2020-06-08T21:47:28Z</time>
      </trkpt>
      <trkpt lat="44.31506" lon="4.42437">
        <ele>303</ele>
        <time>2020-06-08T21:47:55Z</time>
      </trkpt>
      <trkpt lat="44.31513" lon="4.42532">
        <ele>308</ele>
        <time>2020-06-08T21:48:11Z</time>
      </trkpt>
      <trkpt lat="44.31604" lon="4.42588">
        <ele>313</ele>
        <time>2020-06-08T21:48:34Z</time>
      </trkpt>
      <trkpt lat="44.31639" lon="4.42631">
        <ele>314</ele>
        <time>2020-06-08T21:48:45Z</time>
      </trkpt>
      <trkpt lat="44.31627" lon="4.42677">
        <ele>315</ele>
        <time>2020-06-08T21:48:54Z</time>
      </trkpt>
      <trkpt lat="44.31624" lon="4.4272">
        <ele>315</ele>
        <time>2020-06-08T21:49:01Z</time>
      </trkpt>
      <trkpt lat="44.31642" lon="4.42756">
        <ele>316</ele>
        <time>2020-06-08T21:49:08Z</time>
      </trkpt>
      <trkpt lat="44.31639" lon="4.42774">
        <ele>317</ele>
        <time>2020-06-08T21:49:11Z</time>
      </trkpt>
      <trkpt lat="44.31516" lon="4.42805">
        <ele>312</ele>
        <time>2020-06-08T21:49:40Z</time>
      </trkpt>
      <trkpt lat="44.31502" lon="4.42862">
        <ele>313</ele>
        <time>2020-06-08T21:49:50Z</time>
      </trkpt>
      <trkpt lat="44.31548" lon="4.42952">
        <ele>314</ele>
        <time>2020-06-08T21:50:09Z</time>
      </trkpt>
      <trkpt lat="44.31472" lon="4.4302">
        <ele>312</ele>
        <time>2020-06-08T21:50:30Z</time>
      </trkpt>
      <trkpt lat="44.31408" lon="4.43056">
        <ele>310</ele>
        <time>2020-06-08T21:50:46Z</time>
      </trkpt>
      <trkpt lat="44.31346" lon="4.43103">
        <ele>310</ele>
        <time>2020-06-08T21:51:03Z</time>
      </trkpt>
      <trkpt lat="44.31279" lon="4.43149">
        <ele>308</ele>
        <time>2020-06-08T21:51:20Z</time>
      </trkpt>
      <trkpt lat="44.31319" lon="4.43201">
        <ele>308</ele>
        <time>2020-06-08T21:51:33Z</time>
      </trkpt>
      <trkpt lat="44.31395" lon="4.43176">
        <ele>310</ele>
        <time>2020-06-08T21:51:51Z</time>
      </trkpt>
      <trkpt lat="44.31455" lon="4.43142">
        <ele>312</ele>
        <time>2020-06-08T21:52:06Z</time>
      </trkpt>
      <trkpt lat="44.31627" lon="4.43114">
        <ele>318</ele>
        <time>2020-06-08T21:52:47Z</time>
      </trkpt>
      <trkpt lat="44.31716" lon="4.43043">
        <ele>324</ele>
        <time>2020-06-08T21:53:10Z</time>
      </trkpt>
      <trkpt lat="44.31787" lon="4.43">
        <ele>329</ele>
        <time>2020-06-08T21:53:29Z</time>
      </trkpt>
      <trkpt lat="44.31934" lon="4.42991">
        <ele>337</ele>
        <time>2020-06-08T21:54:03Z</time>
      </trkpt>
      <trkpt lat="44.32052" lon="4.43079">
        <ele>350</ele>
        <time>2020-06-08T21:54:34Z</time>
      </trkpt>
      <trkpt lat="44.32118" lon="4.43085">
        <ele>352</ele>
        <time>2020-06-08T21:54:50Z</time>
      </trkpt>
      <trkpt lat="44.32164" lon="4.43002">
        <ele>359</ele>
        <time>2020-06-08T21:55:07Z</time>
      </trkpt>
      <trkpt lat="44.32208" lon="4.42961">
        <ele>362</ele>
        <time>2020-06-08T21:55:19Z</time>
      </trkpt>
      <trkpt lat="44.32293" lon="4.42925">
        <ele>369</ele>
        <time>2020-06-08T21:55:40Z</time>
      </trkpt>
      <trkpt lat="44.32363" lon="4.42887">
        <ele>374</ele>
        <time>2020-06-08T21:55:58Z</time>
      </trkpt>
      <trkpt lat="44.32423" lon="4.42873">
        <ele>379</ele>
        <time>2020-06-08T21:56:12Z</time>
      </trkpt>
      <trkpt lat="44.32612" lon="4.42924">
        <ele>385</ele>
        <time>2020-06-08T21:56:57Z</time>
      </trkpt>
      <trkpt lat="44.32647" lon="4.43151">
        <ele>386</ele>
        <time>2020-06-08T21:57:36Z</time>
      </trkpt>
      <trkpt lat="44.32601" lon="4.43305">
        <ele>386</ele>
        <time>2020-06-08T21:58:04Z</time>
      </trkpt>
      <trkpt lat="44.32599" lon="4.43363">
        <ele>386</ele>
        <time>2020-06-08T21:58:13Z</time>
      </trkpt>
      <trkpt lat="44.32582" lon="4.43411">
        <ele>384</ele>
        <time>2020-06-08T21:58:22Z</time>
      </trkpt>
      <trkpt lat="44.32609" lon="4.43495">
        <ele>383</ele>
        <time>2020-06-08T21:58:38Z</time>
      </trkpt>
      <trkpt lat="44.32604" lon="4.43527">
        <ele>383</ele>
        <time>2020-06-08T21:58:43Z</time>
      </trkpt>
      <trkpt lat="44.32649" lon="4.43586">
        <ele>384</ele>
        <time>2020-06-08T21:58:58Z</time>
      </trkpt>
      <trkpt lat="44.3265" lon="4.43693">
        <ele>388</ele>
        <time>2020-06-08T21:59:15Z</time>
      </trkpt>
      <trkpt lat="44.32565" lon="4.44459">
        <ele>368</ele>
        <time>2020-06-08T22:01:25Z</time>
      </trkpt>
      <trkpt lat="44.3263" lon="4.44496">
        <ele>372</ele>
        <time>2020-06-08T22:01:41Z</time>
      </trkpt>
      <trkpt lat="44.32675" lon="4.4449">
        <ele>373</ele>
        <time>2020-06-08T22:01:52Z</time>
      </trkpt>
      <trkpt lat="44.32765" lon="4.44529">
        <ele>376</ele>
        <time>2020-06-08T22:02:14Z</time>
      </trkpt>
      <trkpt lat="44.32804" lon="4.44596">
        <ele>377</ele>
        <time>2020-06-08T22:02:28Z</time>
      </trkpt>
      <trkpt lat="44.32846" lon="4.44615">
        <ele>378</ele>
        <time>2020-06-08T22:02:39Z</time>
      </trkpt>
      <trkpt lat="44.32912" lon="4.44592">
        <ele>379</ele>
        <time>2020-06-08T22:02:54Z</time>
      </trkpt>
      <trkpt lat="44.32965" lon="4.44566">
        <ele>379</ele>
        <time>2020-06-08T22:03:08Z</time>
      </trkpt>
      <trkpt lat="44.33001" lon="4.44574">
        <ele>379</ele>
        <time>2020-06-08T22:03:16Z</time>
      </trkpt>
      <trkpt lat="44.3304" lon="4.44623">
        <ele>376</ele>
        <time>2020-06-08T22:03:28Z</time>
      </trkpt>
      <trkpt lat="44.33182" lon="4.44594">
        <ele>375</ele>
        <time>2020-06-08T22:04:02Z</time>
      </trkpt>
      <trkpt lat="44.33219" lon="4.446">
        <ele>376</ele>
        <time>2020-06-08T22:04:11Z</time>
      </trkpt>
      <trkpt lat="44.3324" lon="4.44682">
        <ele>376</ele>
        <time>2020-06-08T22:04:25Z</time>
      </trkpt>
      <trkpt lat="44.33302" lon="4.44749">
        <ele>380</ele>
        <time>2020-06-08T22:04:43Z</time>
      </trkpt>
      <trkpt lat="44.33355" lon="4.44746">
        <ele>383</ele>
        <time>2020-06-08T22:04:56Z</time>
      </trkpt>
      <trkpt lat="44.33375" lon="4.4478">
        <ele>385</ele>
        <time>2020-06-08T22:05:03Z</time>
      </trkpt>
      <trkpt lat="44.33388" lon="4.44888">
        <ele>386</ele>
        <time>2020-06-08T22:05:21Z</time>
      </trkpt>
      <trkpt lat="44.33387" lon="4.44944">
        <ele>387</ele>
        <time>2020-06-08T22:05:31Z</time>
      </trkpt>
      <trkpt lat="44.33435" lon="4.45028">
        <ele>390</ele>
        <time>2020-06-08T22:05:49Z</time>
      </trkpt>
      <trkpt lat="44.33422" lon="4.45056">
        <ele>391</ele>
        <time>2020-06-08T22:05:54Z</time>
      </trkpt>
      <trkpt lat="44.3342" lon="4.4508">
        <ele>391</ele>
        <time>2020-06-08T22:05:58Z</time>
      </trkpt>
      <trkpt lat="44.33388" lon="4.45268">
        <ele>394</ele>
        <time>2020-06-08T22:06:31Z</time>
      </trkpt>
      <trkpt lat="44.33378" lon="4.45314">
        <ele>395</ele>
        <time>2020-06-08T22:06:39Z</time>
      </trkpt>
      <trkpt lat="44.33353" lon="4.45372">
        <ele>394</ele>
        <time>2020-06-08T22:06:50Z</time>
      </trkpt>
      <trkpt lat="44.3333" lon="4.45453">
        <ele>391</ele>
        <time>2020-06-08T22:07:05Z</time>
      </trkpt>
      <trkpt lat="44.33219" lon="4.45574">
        <ele>393</ele>
        <time>2020-06-08T22:07:37Z</time>
      </trkpt>
      <trkpt lat="44.33213" lon="4.45596">
        <ele>393</ele>
        <time>2020-06-08T22:07:41Z</time>
      </trkpt>
      <trkpt lat="44.3314" lon="4.45687">
        <ele>393</ele>
        <time>2020-06-08T22:08:04Z</time>
      </trkpt>
      <trkpt lat="44.33073" lon="4.45761">
        <ele>394</ele>
        <time>2020-06-08T22:08:24Z</time>
      </trkpt>
      <trkpt lat="44.33005" lon="4.45816">
        <ele>396</ele>
        <time>2020-06-08T22:08:42Z</time>
      </trkpt>
      <trkpt lat="44.32983" lon="4.45825">
        <ele>396</ele>
        <time>2020-06-08T22:08:48Z</time>
      </trkpt>
      <trkpt lat="44.32947" lon="4.45834">
        <ele>397</ele>
        <time>2020-06-08T22:08:56Z</time>
      </trkpt>
      <trkpt lat="44.32868" lon="4.45888">
        <ele>401</ele>
        <time>2020-06-08T22:09:17Z</time>
      </trkpt>
      <trkpt lat="44.32821" lon="4.45959">
        <ele>403</ele>
        <time>2020-06-08T22:09:33Z</time>
      </trkpt>
      <trkpt lat="44.32802" lon="4.46024">
        <ele>403</ele>
        <time>2020-06-08T22:09:45Z</time>
      </trkpt>
      <trkpt lat="44.32783" lon="4.46132">
        <ele>402</ele>
        <time>2020-06-08T22:10:03Z</time>
      </trkpt>
      <trkpt lat="44.32769" lon="4.46426">
        <ele>400</ele>
        <time>2020-06-08T22:10:53Z</time>
      </trkpt>
      <trkpt lat="44.32779" lon="4.46511">
        <ele>398</ele>
        <time>2020-06-08T22:11:07Z</time>
      </trkpt>
      <trkpt lat="44.32822" lon="4.46663">
        <ele>391</ele>
        <time>2020-06-08T22:11:34Z</time>
      </trkpt>
      <trkpt lat="44.32829" lon="4.46711">
        <ele>390</ele>
        <time>2020-06-08T22:11:42Z</time>
      </trkpt>
      <trkpt lat="44.3283" lon="4.46773">
        <ele>389</ele>
        <time>2020-06-08T22:11:53Z</time>
      </trkpt>
      <trkpt lat="44.32815" lon="4.46842">
        <ele>388</ele>
        <time>2020-06-08T22:12:05Z</time>
      </trkpt>
      <trkpt lat="44.32819" lon="4.46937">
        <ele>389</ele>
        <time>2020-06-08T22:12:21Z</time>
      </trkpt>
      <trkpt lat="44.32812" lon="4.47084">
        <ele>391</ele>
        <time>2020-06-08T22:12:45Z</time>
      </trkpt>
      <trkpt lat="44.32797" lon="4.47166">
        <ele>390</ele>
        <time>2020-06-08T22:13:00Z</time>
      </trkpt>
      <trkpt lat="44.32801" lon="4.47262">
        <ele>391</ele>
        <time>2020-06-08T22:13:16Z</time>
      </trkpt>
      <trkpt lat="44.32798" lon="4.47285">
        <ele>392</ele>
        <time>2020-06-08T22:13:20Z</time>
      </trkpt>
      <trkpt lat="44.32753" lon="4.47332">
        <ele>392</ele>
        <time>2020-06-08T22:13:33Z</time>
      </trkpt>
      <trkpt lat="44.32708" lon="4.47387">
        <ele>393</ele>
        <time>2020-06-08T22:13:47Z</time>
      </trkpt>
      <trkpt lat="44.32683" lon="4.47427">
        <ele>393</ele>
        <time>2020-06-08T22:13:55Z</time>
      </trkpt>
      <trkpt lat="44.32613" lon="4.4759">
        <ele>391</ele>
        <time>2020-06-08T22:14:27Z</time>
      </trkpt>
      <trkpt lat="44.32594" lon="4.47647">
        <ele>390</ele>
        <time>2020-06-08T22:14:38Z</time>
      </trkpt>
      <trkpt lat="44.32574" lon="4.47675">
        <ele>390</ele>
        <time>2020-06-08T22:14:44Z</time>
      </trkpt>
      <trkpt lat="44.32564" lon="4.47705">
        <ele>390</ele>
        <time>2020-06-08T22:14:50Z</time>
      </trkpt>
      <trkpt lat="44.32549" lon="4.47779">
        <ele>391</ele>
        <time>2020-06-08T22:15:03Z</time>
      </trkpt>
      <trkpt lat="44.32536" lon="4.4787">
        <ele>389</ele>
        <time>2020-06-08T22:15:18Z</time>
      </trkpt>
      <trkpt lat="44.32524" lon="4.47921">
        <ele>386</ele>
        <time>2020-06-08T22:15:27Z</time>
      </trkpt>
      <trkpt lat="44.32489" lon="4.47982">
        <ele>381</ele>
        <time>2020-06-08T22:15:40Z</time>
      </trkpt>
      <trkpt lat="44.32447" lon="4.48036">
        <ele>378</ele>
        <time>2020-06-08T22:15:54Z</time>
      </trkpt>
      <trkpt lat="44.32432" lon="4.48081">
        <ele>374</ele>
        <time>2020-06-08T22:16:02Z</time>
      </trkpt>
      <trkpt lat="44.32407" lon="4.48116">
        <ele>372</ele>
        <time>2020-06-08T22:16:10Z</time>
      </trkpt>
      <trkpt lat="44.32357" lon="4.48156">
        <ele>368</ele>
        <time>2020-06-08T22:16:24Z</time>
      </trkpt>
      <trkpt lat="44.32337" lon="4.48176">
        <ele>366</ele>
        <time>2020-06-08T22:16:29Z</time>
      </trkpt>
      <trkpt lat="44.32314" lon="4.48242">
        <ele>365</ele>
        <time>2020-06-08T22:16:42Z</time>
      </trkpt>
      <trkpt lat="44.32301" lon="4.48304">
        <ele>362</ele>
        <time>2020-06-08T22:16:52Z</time>
      </trkpt>
      <trkpt lat="44.3229" lon="4.48326">
        <ele>361</ele>
        <time>2020-06-08T22:16:57Z</time>
      </trkpt>
      <trkpt lat="44.32274" lon="4.48341">
        <ele>360</ele>
        <time>2020-06-08T22:17:01Z</time>
      </trkpt>
      <trkpt lat="44.32254" lon="4.48349">
        <ele>359</ele>
        <time>2020-06-08T22:17:06Z</time>
      </trkpt>
      <trkpt lat="44.32241" lon="4.48362">
        <ele>359</ele>
        <time>2020-06-08T22:17:10Z</time>
      </trkpt>
      <trkpt lat="44.32224" lon="4.48436">
        <ele>360</ele>
        <time>2020-06-08T22:17:23Z</time>
      </trkpt>
      <trkpt lat="44.32202" lon="4.48502">
        <ele>360</ele>
        <time>2020-06-08T22:17:35Z</time>
      </trkpt>
      <trkpt lat="44.32174" lon="4.4855">
        <ele>360</ele>
        <time>2020-06-08T22:17:45Z</time>
      </trkpt>
      <trkpt lat="44.32152" lon="4.48574">
        <ele>360</ele>
        <time>2020-06-08T22:17:52Z</time>
      </trkpt>
      <trkpt lat="44.32122" lon="4.48598">
        <ele>360</ele>
        <time>2020-06-08T22:18:00Z</time>
      </trkpt>
      <trkpt lat="44.32108" lon="4.48661">
        <ele>358</ele>
        <time>2020-06-08T22:18:11Z</time>
      </trkpt>
      <trkpt lat="44.3209" lon="4.48721">
        <ele>355</ele>
        <time>2020-06-08T22:18:22Z</time>
      </trkpt>
      <trkpt lat="44.32047" lon="4.48798">
        <ele>355</ele>
        <time>2020-06-08T22:18:38Z</time>
      </trkpt>
      <trkpt lat="44.32017" lon="4.48886">
        <ele>358</ele>
        <time>2020-06-08T22:18:55Z</time>
      </trkpt>
      <trkpt lat="44.32031" lon="4.48972">
        <ele>359</ele>
        <time>2020-06-08T22:19:09Z</time>
      </trkpt>
      <trkpt lat="44.32028" lon="4.49008">
        <ele>360</ele>
        <time>2020-06-08T22:19:15Z</time>
      </trkpt>
      <trkpt lat="44.31996" lon="4.49079">
        <ele>360</ele>
        <time>2020-06-08T22:19:29Z</time>
      </trkpt>
      <trkpt lat="44.31973" lon="4.49121">
        <ele>359</ele>
        <time>2020-06-08T22:19:38Z</time>
      </trkpt>
      <trkpt lat="44.31955" lon="4.49165">
        <ele>358</ele>
        <time>2020-06-08T22:19:47Z</time>
      </trkpt>
      <trkpt lat="44.31948" lon="4.49207">
        <ele>356</ele>
        <time>2020-06-08T22:19:54Z</time>
      </trkpt>
      <trkpt lat="44.31948" lon="4.49253">
        <ele>354</ele>
        <time>2020-06-08T22:20:02Z</time>
      </trkpt>
      <trkpt lat="44.31939" lon="4.49295">
        <ele>353</ele>
        <time>2020-06-08T22:20:09Z</time>
      </trkpt>
      <trkpt lat="44.31933" lon="4.49356">
        <ele>351</ele>
        <time>2020-06-08T22:20:19Z</time>
      </trkpt>
      <trkpt lat="44.31942" lon="4.49416">
        <ele>349</ele>
        <time>2020-06-08T22:20:29Z</time>
      </trkpt>
      <trkpt lat="44.3199" lon="4.49531">
        <ele>346</ele>
        <time>2020-06-08T22:20:52Z</time>
      </trkpt>
      <trkpt lat="44.31993" lon="4.49576">
        <ele>346</ele>
        <time>2020-06-08T22:20:59Z</time>
      </trkpt>
      <trkpt lat="44.31989" lon="4.49626">
        <ele>345</ele>
        <time>2020-06-08T22:21:08Z</time>
      </trkpt>
      <trkpt lat="44.31976" lon="4.49671">
        <ele>344</ele>
        <time>2020-06-08T22:21:16Z</time>
      </trkpt>
      <trkpt lat="44.31986" lon="4.49698">
        <ele>342</ele>
        <time>2020-06-08T22:21:21Z</time>
      </trkpt>
      <trkpt lat="44.31999" lon="4.49718">
        <ele>341</ele>
        <time>2020-06-08T22:21:25Z</time>
      </trkpt>
      <trkpt lat="44.32036" lon="4.49731">
        <ele>340</ele>
        <time>2020-06-08T22:21:34Z</time>
      </trkpt>
      <trkpt lat="44.32065" lon="4.49746">
        <ele>338</ele>
        <time>2020-06-08T22:21:41Z</time>
      </trkpt>
      <trkpt lat="44.32096" lon="4.49806">
        <ele>334</ele>
        <time>2020-06-08T22:21:54Z</time>
      </trkpt>
      <trkpt lat="44.32122" lon="4.49839">
        <ele>333</ele>
        <time>2020-06-08T22:22:02Z</time>
      </trkpt>
      <trkpt lat="44.32102" lon="4.49891">
        <ele>333</ele>
        <time>2020-06-08T22:22:12Z</time>
      </trkpt>
      <trkpt lat="44.32057" lon="4.49916">
        <ele>332</ele>
        <time>2020-06-08T22:22:23Z</time>
      </trkpt>
      <trkpt lat="44.32009" lon="4.49925">
        <ele>331</ele>
        <time>2020-06-08T22:22:34Z</time>
      </trkpt>
      <trkpt lat="44.31907" lon="4.49955">
        <ele>328</ele>
        <time>2020-06-08T22:22:59Z</time>
      </trkpt>
      <trkpt lat="44.31823" lon="4.49942">
        <ele>322</ele>
        <time>2020-06-08T22:23:19Z</time>
      </trkpt>
      <trkpt lat="44.31774" lon="4.49949">
        <ele>319</ele>
        <time>2020-06-08T22:23:30Z</time>
      </trkpt>
      <trkpt lat="44.31727" lon="4.49973">
        <ele>318</ele>
        <time>2020-06-08T22:23:42Z</time>
      </trkpt>
      <trkpt lat="44.31714" lon="4.49981">
        <ele>318</ele>
        <time>2020-06-08T22:23:45Z</time>
      </trkpt>
      <trkpt lat="44.31702" lon="4.49995">
        <ele>318</ele>
        <time>2020-06-08T22:23:49Z</time>
      </trkpt>
      <trkpt lat="44.31694" lon="4.50033">
        <ele>320</ele>
        <time>2020-06-08T22:23:55Z</time>
      </trkpt>
      <trkpt lat="44.31694" lon="4.50078">
        <ele>325</ele>
        <time>2020-06-08T22:24:03Z</time>
      </trkpt>
      <trkpt lat="44.31679" lon="4.50075">
        <ele>323</ele>
        <time>2020-06-08T22:24:06Z</time>
      </trkpt>
      <trkpt lat="44.31649" lon="4.50051">
        <ele>317</ele>
        <time>2020-06-08T22:24:14Z</time>
      </trkpt>
      <trkpt lat="44.31627" lon="4.50043">
        <ele>314</ele>
        <time>2020-06-08T22:24:20Z</time>
      </trkpt>
      <trkpt lat="44.31568" lon="4.50075">
        <ele>315</ele>
        <time>2020-06-08T22:24:35Z</time>
      </trkpt>
      <trkpt lat="44.31516" lon="4.50089">
        <ele>314</ele>
        <time>2020-06-08T22:24:47Z</time>
      </trkpt>
      <trkpt lat="44.31473" lon="4.50086">
        <ele>311</ele>
        <time>2020-06-08T22:24:57Z</time>
      </trkpt>
      <trkpt lat="44.31427" lon="4.50122">
        <ele>313</ele>
        <time>2020-06-08T22:25:09Z</time>
      </trkpt>
      <trkpt lat="44.31413" lon="4.50164">
        <ele>316</ele>
        <time>2020-06-08T22:25:17Z</time>
      </trkpt>
      <trkpt lat="44.31378" lon="4.50218">
        <ele>314</ele>
        <time>2020-06-08T22:25:29Z</time>
      </trkpt>
      <trkpt lat="44.31376" lon="4.50266">
        <ele>314</ele>
        <time>2020-06-08T22:25:37Z</time>
      </trkpt>
      <trkpt lat="44.31383" lon="4.50337">
        <ele>314</ele>
        <time>2020-06-08T22:25:49Z</time>
      </trkpt>
      <trkpt lat="44.31343" lon="4.50413">
        <ele>312</ele>
        <time>2020-06-08T22:26:05Z</time>
      </trkpt>
      <trkpt lat="44.31341" lon="4.50458">
        <ele>313</ele>
        <time>2020-06-08T22:26:13Z</time>
      </trkpt>
      <trkpt lat="44.31346" lon="4.50511">
        <ele>316</ele>
        <time>2020-06-08T22:26:21Z</time>
      </trkpt>
      <trkpt lat="44.31312" lon="4.50555">
        <ele>314</ele>
        <time>2020-06-08T22:26:32Z</time>
      </trkpt>
      <trkpt lat="44.31287" lon="4.50667">
        <ele>315</ele>
        <time>2020-06-08T22:26:52Z</time>
      </trkpt>
      <trkpt lat="44.3129" lon="4.50793">
        <ele>310</ele>
        <time>2020-06-08T22:27:13Z</time>
      </trkpt>
      <trkpt lat="44.31288" lon="4.50842">
        <ele>308</ele>
        <time>2020-06-08T22:27:21Z</time>
      </trkpt>
      <trkpt lat="44.31223" lon="4.50991">
        <ele>303</ele>
        <time>2020-06-08T22:27:50Z</time>
      </trkpt>
      <trkpt lat="44.31219" lon="4.51026">
        <ele>302</ele>
        <time>2020-06-08T22:27:56Z</time>
      </trkpt>
      <trkpt lat="44.31209" lon="4.51045">
        <ele>302</ele>
        <time>2020-06-08T22:28:00Z</time>
      </trkpt>
      <trkpt lat="44.31164" lon="4.5107">
        <ele>300</ele>
        <time>2020-06-08T22:28:11Z</time>
      </trkpt>
      <trkpt lat="44.31132" lon="4.51113">
        <ele>298</ele>
        <time>2020-06-08T22:28:22Z</time>
      </trkpt>
      <trkpt lat="44.31099" lon="4.5114">
        <ele>297</ele>
        <time>2020-06-08T22:28:31Z</time>
      </trkpt>
      <trkpt lat="44.31087" lon="4.51175">
        <ele>297</ele>
        <time>2020-06-08T22:28:37Z</time>
      </trkpt>
      <trkpt lat="44.31054" lon="4.51223">
        <ele>294</ele>
        <time>2020-06-08T22:28:48Z</time>
      </trkpt>
      <trkpt lat="44.31044" lon="4.51273">
        <ele>293</ele>
        <time>2020-06-08T22:28:57Z</time>
      </trkpt>
      <trkpt lat="44.3105" lon="4.51308">
        <ele>293</ele>
        <time>2020-06-08T22:29:03Z</time>
      </trkpt>
      <trkpt lat="44.31092" lon="4.5135">
        <ele>292</ele>
        <time>2020-06-08T22:29:15Z</time>
      </trkpt>
      <trkpt lat="44.311" lon="4.51374">
        <ele>292</ele>
        <time>2020-06-08T22:29:20Z</time>
      </trkpt>
      <trkpt lat="44.31098" lon="4.5144">
        <ele>291</ele>
        <time>2020-06-08T22:29:31Z</time>
      </trkpt>
      <trkpt lat="44.31107" lon="4.51497">
        <ele>292</ele>
        <time>2020-06-08T22:29:40Z</time>
      </trkpt>
      <trkpt lat="44.31125" lon="4.51531">
        <ele>292</ele>
        <time>2020-06-08T22:29:47Z</time>
      </trkpt>
      <trkpt lat="44.31214" lon="4.51628">
        <ele>293</ele>
        <time>2020-06-08T22:30:14Z</time>
      </trkpt>
      <trkpt lat="44.31239" lon="4.5166">
        <ele>295</ele>
        <time>2020-06-08T22:30:22Z</time>
      </trkpt>
      <trkpt lat="44.31243" lon="4.51697">
        <ele>296</ele>
        <time>2020-06-08T22:30:28Z</time>
      </trkpt>
      <trkpt lat="44.3124" lon="4.51841">
        <ele>297</ele>
        <time>2020-06-08T22:30:52Z</time>
      </trkpt>
      <trkpt lat="44.31246" lon="4.51908">
        <ele>296</ele>
        <time>2020-06-08T22:31:03Z</time>
      </trkpt>
      <trkpt lat="44.31275" lon="4.52002">
        <ele>294</ele>
        <time>2020-06-08T22:31:20Z</time>
      </trkpt>
      <trkpt lat="44.31319" lon="4.52069">
        <ele>291</ele>
        <time>2020-06-08T22:31:36Z</time>
      </trkpt>
      <trkpt lat="44.31368" lon="4.52106">
        <ele>292</ele>
        <time>2020-06-08T22:31:49Z</time>
      </trkpt>
      <trkpt lat="44.31389" lon="4.5213">
        <ele>292</ele>
        <time>2020-06-08T22:31:55Z</time>
      </trkpt>
      <trkpt lat="44.31397" lon="4.52162">
        <ele>290</ele>
        <time>2020-06-08T22:32:01Z</time>
      </trkpt>
      <trkpt lat="44.31392" lon="4.52207">
        <ele>289</ele>
        <time>2020-06-08T22:32:08Z</time>
      </trkpt>
      <trkpt lat="44.31378" lon="4.52257">
        <ele>289</ele>
        <time>2020-06-08T22:32:17Z</time>
      </trkpt>
      <trkpt lat="44.31375" lon="4.52289">
        <ele>288</ele>
        <time>2020-06-08T22:32:23Z</time>
      </trkpt>
      <trkpt lat="44.31413" lon="4.52375">
        <ele>287</ele>
        <time>2020-06-08T22:32:39Z</time>
      </trkpt>
      <trkpt lat="44.31436" lon="4.52454">
        <ele>286</ele>
        <time>2020-06-08T22:32:54Z</time>
      </trkpt>
      <trkpt lat="44.31484" lon="4.5258">
        <ele>283</ele>
        <time>2020-06-08T22:33:18Z</time>
      </trkpt>
      <trkpt lat="44.31506" lon="4.52654">
        <ele>283</ele>
        <time>2020-06-08T22:33:31Z</time>
      </trkpt>
      <trkpt lat="44.31511" lon="4.52727">
        <ele>283</ele>
        <time>2020-06-08T22:33:43Z</time>
      </trkpt>
      <trkpt lat="44.31531" lon="4.52894">
        <ele>275</ele>
        <time>2020-06-08T22:34:12Z</time>
      </trkpt>
      <trkpt lat="44.31518" lon="4.52952">
        <ele>273</ele>
        <time>2020-06-08T22:34:22Z</time>
      </trkpt>
      <trkpt lat="44.31481" lon="4.53056">
        <ele>268</ele>
        <time>2020-06-08T22:34:41Z</time>
      </trkpt>
      <trkpt lat="44.3149" lon="4.53061">
        <ele>269</ele>
        <time>2020-06-08T22:34:43Z</time>
      </trkpt>
      <trkpt lat="44.3148" lon="4.53091">
        <ele>267</ele>
        <time>2020-06-08T22:34:49Z</time>
      </trkpt>
      <trkpt lat="44.31463" lon="4.53119">
        <ele>265</ele>
        <time>2020-06-08T22:34:55Z</time>
      </trkpt>
      <trkpt lat="44.31444" lon="4.53166">
        <ele>262</ele>
        <time>2020-06-08T22:35:04Z</time>
      </trkpt>
      <trkpt lat="44.31432" lon="4.53219">
        <ele>259</ele>
        <time>2020-06-08T22:35:13Z</time>
      </trkpt>
      <trkpt lat="44.31395" lon="4.53326">
        <ele>257</ele>
        <time>2020-06-08T22:35:33Z</time>
      </trkpt>
      <trkpt lat="44.31385" lon="4.53457">
        <ele>253</ele>
        <time>2020-06-08T22:35:55Z</time>
      </trkpt>
      <trkpt lat="44.3137" lon="4.53492">
        <ele>251</ele>
        <time>2020-06-08T22:36:02Z</time>
      </trkpt>
      <trkpt lat="44.31353" lon="4.53519">
        <ele>248</ele>
        <time>2020-06-08T22:36:08Z</time>
      </trkpt>
      <trkpt lat="44.31352" lon="4.53548">
        <ele>247</ele>
        <time>2020-06-08T22:36:13Z</time>
      </trkpt>
      <trkpt lat="44.31346" lon="4.53598">
        <ele>245</ele>
        <time>2020-06-08T22:36:21Z</time>
      </trkpt>
      <trkpt lat="44.31345" lon="4.53645">
        <ele>242</ele>
        <time>2020-06-08T22:36:29Z</time>
      </trkpt>
      <trkpt lat="44.31354" lon="4.53689">
        <ele>240</ele>
        <time>2020-06-08T22:36:37Z</time>
      </trkpt>
      <trkpt lat="44.31382" lon="4.53759">
        <ele>240</ele>
        <time>2020-06-08T22:36:50Z</time>
      </trkpt>
      <trkpt lat="44.31409" lon="4.53802">
        <ele>241</ele>
        <time>2020-06-08T22:37:00Z</time>
      </trkpt>
      <trkpt lat="44.31485" lon="4.53874">
        <ele>244</ele>
        <time>2020-06-08T22:37:21Z</time>
      </trkpt>
      <trkpt lat="44.31514" lon="4.53927">
        <ele>246</ele>
        <time>2020-06-08T22:37:32Z</time>
      </trkpt>
      <trkpt lat="44.31519" lon="4.53946">
        <ele>246</ele>
        <time>2020-06-08T22:37:36Z</time>
      </trkpt>
      <trkpt lat="44.31517" lon="4.53976">
        <ele>247</ele>
        <time>2020-06-08T22:37:41Z</time>
      </trkpt>
      <trkpt lat="44.31495" lon="4.5411">
        <ele>252</ele>
        <time>2020-06-08T22:38:04Z</time>
      </trkpt>
      <trkpt lat="44.31491" lon="4.54157">
        <ele>254</ele>
        <time>2020-06-08T22:38:12Z</time>
      </trkpt>
      <trkpt lat="44.31496" lon="4.54207">
        <ele>252</ele>
        <time>2020-06-08T22:38:20Z</time>
      </trkpt>
      <trkpt lat="44.31494" lon="4.54215">
        <ele>252</ele>
        <time>2020-06-08T22:38:22Z</time>
      </trkpt>
      <trkpt lat="44.31435" lon="4.54245">
        <ele>246</ele>
        <time>2020-06-08T22:38:36Z</time>
      </trkpt>
      <trkpt lat="44.31402" lon="4.54283">
        <ele>241</ele>
        <time>2020-06-08T22:38:46Z</time>
      </trkpt>
      <trkpt lat="44.31378" lon="4.5432">
        <ele>239</ele>
        <time>2020-06-08T22:38:55Z</time>
      </trkpt>
      <trkpt lat="44.31355" lon="4.54343">
        <ele>240</ele>
        <time>2020-06-08T22:39:01Z</time>
      </trkpt>
      <trkpt lat="44.31347" lon="4.54357">
        <ele>241</ele>
        <time>2020-06-08T22:39:04Z</time>
      </trkpt>
      <trkpt lat="44.31328" lon="4.54366">
        <ele>243</ele>
        <time>2020-06-08T22:39:09Z</time>
      </trkpt>
      <trkpt lat="44.31321" lon="4.54373">
        <ele>243</ele>
        <time>2020-06-08T22:39:11Z</time>
      </trkpt>
      <trkpt lat="44.31295" lon="4.54388">
        <ele>242</ele>
        <time>2020-06-08T22:39:17Z</time>
      </trkpt>
      <trkpt lat="44.31287" lon="4.54403">
        <ele>243</ele>
        <time>2020-06-08T22:39:21Z</time>
      </trkpt>
      <trkpt lat="44.31277" lon="4.54415">
        <ele>243</ele>
        <time>2020-06-08T22:39:24Z</time>
      </trkpt>
      <trkpt lat="44.31271" lon="4.54429">
        <ele>242</ele>
        <time>2020-06-08T22:39:26Z</time>
      </trkpt>
      <trkpt lat="44.3126" lon="4.54438">
        <ele>241</ele>
        <time>2020-06-08T22:39:29Z</time>
      </trkpt>
      <trkpt lat="44.31258" lon="4.54447">
        <ele>241</ele>
        <time>2020-06-08T22:39:31Z</time>
      </trkpt>
      <trkpt lat="44.31239" lon="4.54477">
        <ele>238</ele>
        <time>2020-06-08T22:39:38Z</time>
      </trkpt>
      <trkpt lat="44.31215" lon="4.545">
        <ele>237</ele>
        <time>2020-06-08T22:39:44Z</time>
      </trkpt>
      <trkpt lat="44.31206" lon="4.54515">
        <ele>234</ele>
        <time>2020-06-08T22:39:48Z</time>
      </trkpt>
      <trkpt lat="44.31198" lon="4.54517">
        <ele>233</ele>
        <time>2020-06-08T22:39:50Z</time>
      </trkpt>
      <trkpt lat="44.31183" lon="4.54544">
        <ele>229</ele>
        <time>2020-06-08T22:39:55Z</time>
      </trkpt>
      <trkpt lat="44.31173" lon="4.54555">
        <ele>228</ele>
        <time>2020-06-08T22:39:58Z</time>
      </trkpt>
      <trkpt lat="44.31154" lon="4.54587">
        <ele>224</ele>
        <time>2020-06-08T22:40:05Z</time>
      </trkpt>
      <trkpt lat="44.31094" lon="4.54642">
        <ele>211</ele>
        <time>2020-06-08T22:40:22Z</time>
      </trkpt>
      <trkpt lat="44.31068" lon="4.54662">
        <ele>208</ele>
        <time>2020-06-08T22:40:29Z</time>
      </trkpt>
      <trkpt lat="44.31048" lon="4.54704">
        <ele>201</ele>
        <time>2020-06-08T22:40:37Z</time>
      </trkpt>
      <trkpt lat="44.31038" lon="4.54735">
        <ele>196</ele>
        <time>2020-06-08T22:40:43Z</time>
      </trkpt>
      <trkpt lat="44.31024" lon="4.54758">
        <ele>195</ele>
        <time>2020-06-08T22:40:48Z</time>
      </trkpt>
      <trkpt lat="44.31002" lon="4.5485">
        <ele>185</ele>
        <time>2020-06-08T22:41:04Z</time>
      </trkpt>
      <trkpt lat="44.30985" lon="4.54885">
        <ele>180</ele>
        <time>2020-06-08T22:41:11Z</time>
      </trkpt>
      <trkpt lat="44.30955" lon="4.54925">
        <ele>175</ele>
        <time>2020-06-08T22:41:21Z</time>
      </trkpt>
      <trkpt lat="44.30947" lon="4.54939">
        <ele>173</ele>
        <time>2020-06-08T22:41:24Z</time>
      </trkpt>
      <trkpt lat="44.3093" lon="4.54953">
        <ele>171</ele>
        <time>2020-06-08T22:41:29Z</time>
      </trkpt>
      <trkpt lat="44.30918" lon="4.54958">
        <ele>172</ele>
        <time>2020-06-08T22:41:32Z</time>
      </trkpt>
      <trkpt lat="44.30913" lon="4.54968">
        <ele>170</ele>
        <time>2020-06-08T22:41:34Z</time>
      </trkpt>
      <trkpt lat="44.30896" lon="4.54977">
        <ele>169</ele>
        <time>2020-06-08T22:41:38Z</time>
      </trkpt>
      <trkpt lat="44.30892" lon="4.54983">
        <ele>168</ele>
        <time>2020-06-08T22:41:39Z</time>
      </trkpt>
      <trkpt lat="44.30872" lon="4.54988">
        <ele>167</ele>
        <time>2020-06-08T22:41:44Z</time>
      </trkpt>
      <trkpt lat="44.3085" lon="4.55017">
        <ele>163</ele>
        <time>2020-06-08T22:41:51Z</time>
      </trkpt>
      <trkpt lat="44.30857" lon="4.5505">
        <ele>158</ele>
        <time>2020-06-08T22:41:57Z</time>
      </trkpt>
      <trkpt lat="44.30855" lon="4.55069">
        <ele>156</ele>
        <time>2020-06-08T22:42:00Z</time>
      </trkpt>
      <trkpt lat="44.3085" lon="4.55087">
        <ele>155</ele>
        <time>2020-06-08T22:42:03Z</time>
      </trkpt>
      <trkpt lat="44.30839" lon="4.55086">
        <ele>157</ele>
        <time>2020-06-08T22:42:06Z</time>
      </trkpt>
      <trkpt lat="44.30842" lon="4.55103">
        <ele>154</ele>
        <time>2020-06-08T22:42:09Z</time>
      </trkpt>
      <trkpt lat="44.30841" lon="4.55114">
        <ele>153</ele>
        <time>2020-06-08T22:42:11Z</time>
      </trkpt>
      <trkpt lat="44.30845" lon="4.55129">
        <ele>151</ele>
        <time>2020-06-08T22:42:13Z</time>
      </trkpt>
      <trkpt lat="44.30841" lon="4.55144">
        <ele>150</ele>
        <time>2020-06-08T22:42:16Z</time>
      </trkpt>
      <trkpt lat="44.30842" lon="4.55156">
        <ele>149</ele>
        <time>2020-06-08T22:42:18Z</time>
      </trkpt>
      <trkpt lat="44.30833" lon="4.55175">
        <ele>147</ele>
        <time>2020-06-08T22:42:22Z</time>
      </trkpt>
      <trkpt lat="44.30802" lon="4.55209">
        <ele>136</ele>
        <time>2020-06-08T22:42:31Z</time>
      </trkpt>
      <trkpt lat="44.30787" lon="4.55231">
        <ele>134</ele>
        <time>2020-06-08T22:42:36Z</time>
      </trkpt>
      <trkpt lat="44.30772" lon="4.55243">
        <ele>136</ele>
        <time>2020-06-08T22:42:40Z</time>
      </trkpt>
      <trkpt lat="44.30764" lon="4.55257">
        <ele>134</ele>
        <time>2020-06-08T22:42:43Z</time>
      </trkpt>
      <trkpt lat="44.30753" lon="4.55258">
        <ele>138</ele>
        <time>2020-06-08T22:42:46Z</time>
      </trkpt>
      <trkpt lat="44.30745" lon="4.55265">
        <ele>135</ele>
        <time>2020-06-08T22:42:48Z</time>
      </trkpt>
      <trkpt lat="44.30737" lon="4.55265">
        <ele>135</ele>
        <time>2020-06-08T22:42:50Z</time>
      </trkpt>
      <trkpt lat="44.30723" lon="4.55282">
        <ele>130</ele>
        <time>2020-06-08T22:42:54Z</time>
      </trkpt>
      <trkpt lat="44.30712" lon="4.55274">
        <ele>132</ele>
        <time>2020-06-08T22:42:57Z</time>
      </trkpt>
      <trkpt lat="44.30706" lon="4.55283">
        <ele>130</ele>
        <time>2020-06-08T22:42:59Z</time>
      </trkpt>
      <trkpt lat="44.30694" lon="4.55294">
        <ele>128</ele>
        <time>2020-06-08T22:43:02Z</time>
      </trkpt>
      <trkpt lat="44.30682" lon="4.55321">
        <ele>126</ele>
        <time>2020-06-08T22:43:08Z</time>
      </trkpt>
      <trkpt lat="44.30671" lon="4.55338">
        <ele>126</ele>
        <time>2020-06-08T22:43:11Z</time>
      </trkpt>
      <trkpt lat="44.30658" lon="4.55354">
        <ele>120</ele>
        <time>2020-06-08T22:43:15Z</time>
      </trkpt>
      <trkpt lat="44.30653" lon="4.55356">
        <ele>119</ele>
        <time>2020-06-08T22:43:17Z</time>
      </trkpt>
      <trkpt lat="44.3065" lon="4.55361">
        <ele>118</ele>
        <time>2020-06-08T22:43:18Z</time>
      </trkpt>
      <trkpt lat="44.30649" lon="4.55372">
        <ele>114</ele>
        <time>2020-06-08T22:43:20Z</time>
      </trkpt>
      <trkpt lat="44.3064" lon="4.55383">
        <ele>111</ele>
        <time>2020-06-08T22:43:22Z</time>
      </trkpt>
      <trkpt lat="44.30638" lon="4.55392">
        <ele>108</ele>
        <time>2020-06-08T22:43:24Z</time>
      </trkpt>
      <trkpt lat="44.30624" lon="4.55393">
        <ele>109</ele>
        <time>2020-06-08T22:43:27Z</time>
      </trkpt>
      <trkpt lat="44.3062" lon="4.55399">
        <ele>108</ele>
        <time>2020-06-08T22:43:29Z</time>
      </trkpt>
      <trkpt lat="44.30612" lon="4.55402">
        <ele>109</ele>
        <time>2020-06-08T22:43:31Z</time>
      </trkpt>
      <trkpt lat="44.30586" lon="4.5542">
        <ele>109</ele>
        <time>2020-06-08T22:43:37Z</time>
      </trkpt>
      <trkpt lat="44.30574" lon="4.55425">
        <ele>107</ele>
        <time>2020-06-08T22:43:40Z</time>
      </trkpt>
      <trkpt lat="44.3056" lon="4.55452">
        <ele>98</ele>
        <time>2020-06-08T22:43:46Z</time>
      </trkpt>
      <trkpt lat="44.3055" lon="4.55454">
        <ele>97</ele>
        <time>2020-06-08T22:43:48Z</time>
      </trkpt>
      <trkpt lat="44.30546" lon="4.55459">
        <ele>96</ele>
        <time>2020-06-08T22:43:49Z</time>
      </trkpt>
      <trkpt lat="44.30526" lon="4.55469">
        <ele>94</ele>
        <time>2020-06-08T22:43:54Z</time>
      </trkpt>
      <trkpt lat="44.30519" lon="4.55481">
        <ele>92</ele>
        <time>2020-06-08T22:43:57Z</time>
      </trkpt>
      <trkpt lat="44.30475" lon="4.55513">
        <ele>90</ele>
        <time>2020-06-08T22:44:09Z</time>
      </trkpt>
      <trkpt lat="44.3047" lon="4.55514">
        <ele>90</ele>
        <time>2020-06-08T22:44:10Z</time>
      </trkpt>
      <trkpt lat="44.30467" lon="4.55528">
        <ele>88</ele>
        <time>2020-06-08T22:44:12Z</time>
      </trkpt>
      <trkpt lat="44.30457" lon="4.55535">
        <ele>88</ele>
        <time>2020-06-08T22:44:15Z</time>
      </trkpt>
      <trkpt lat="44.30444" lon="4.55534">
        <ele>90</ele>
        <time>2020-06-08T22:44:18Z</time>
      </trkpt>
      <trkpt lat="44.30426" lon="4.55525">
        <ele>93</ele>
        <time>2020-06-08T22:44:22Z</time>
      </trkpt>
      <trkpt lat="44.3042" lon="4.55553">
        <ele>91</ele>
        <time>2020-06-08T22:44:27Z</time>
      </trkpt>
      <trkpt lat="44.30416" lon="4.55557">
        <ele>92</ele>
        <time>2020-06-08T22:44:28Z</time>
      </trkpt>
      <trkpt lat="44.30415" lon="4.55573">
        <ele>91</ele>
        <time>2020-06-08T22:44:31Z</time>
      </trkpt>
      <trkpt lat="44.30396" lon="4.55574">
        <ele>92</ele>
        <time>2020-06-08T22:44:35Z</time>
      </trkpt>
      <trkpt lat="44.30363" lon="4.55585">
        <ele>93</ele>
        <time>2020-06-08T22:44:43Z</time>
      </trkpt>
      <trkpt lat="44.30319" lon="4.55607">
        <ele>93</ele>
        <time>2020-06-08T22:44:54Z</time>
      </trkpt>
      <trkpt lat="44.30304" lon="4.55609">
        <ele>93</ele>
        <time>2020-06-08T22:44:58Z</time>
      </trkpt>
      <trkpt lat="44.30288" lon="4.55601">
        <ele>93</ele>
        <time>2020-06-08T22:45:02Z</time>
      </trkpt>
      <trkpt lat="44.30269" lon="4.55669">
        <ele>91</ele>
        <time>2020-06-08T22:45:14Z</time>
      </trkpt>
      <trkpt lat="44.30257" lon="4.55674">
        <ele>90</ele>
        <time>2020-06-08T22:45:17Z</time>
      </trkpt>
      <trkpt lat="44.30242" lon="4.55703">
        <ele>85</ele>
        <time>2020-06-08T22:45:23Z</time>
      </trkpt>
      <trkpt lat="44.30225" lon="4.55721">
        <ele>84</ele>
        <time>2020-06-08T22:45:28Z</time>
      </trkpt>
      <trkpt lat="44.30224" lon="4.55743">
        <ele>81</ele>
        <time>2020-06-08T22:45:32Z</time>
      </trkpt>
      <trkpt lat="44.302" lon="4.55791">
        <ele>81</ele>
        <time>2020-06-08T22:45:41Z</time>
      </trkpt>
      <trkpt lat="44.30193" lon="4.55792">
        <ele>83</ele>
        <time>2020-06-08T22:45:43Z</time>
      </trkpt>
      <trkpt lat="44.30186" lon="4.55808">
        <ele>84</ele>
        <time>2020-06-08T22:45:46Z</time>
      </trkpt>
      <trkpt lat="44.30183" lon="4.5581">
        <ele>85</ele>
        <time>2020-06-08T22:45:47Z</time>
      </trkpt>
      <trkpt lat="44.30184" lon="4.55802">
        <ele>85</ele>
        <time>2020-06-08T22:45:48Z</time>
      </trkpt>
      <trkpt lat="44.30152" lon="4.55827">
        <ele>92</ele>
        <time>2020-06-08T22:45:57Z</time>
      </trkpt>
      <trkpt lat="44.30142" lon="4.55845">
        <ele>92</ele>
        <time>2020-06-08T22:46:01Z</time>
      </trkpt>
      <trkpt lat="44.30142" lon="4.55861">
        <ele>91</ele>
        <time>2020-06-08T22:46:03Z</time>
      </trkpt>
      <trkpt lat="44.30151" lon="4.55868">
        <ele>88</ele>
        <time>2020-06-08T22:46:06Z</time>
      </trkpt>
      <trkpt lat="44.30142" lon="4.55883">
        <ele>89</ele>
        <time>2020-06-08T22:46:09Z</time>
      </trkpt>
      <trkpt lat="44.30058" lon="4.56098">
        <ele>82</ele>
        <time>2020-06-08T22:46:50Z</time>
      </trkpt>
      <trkpt lat="44.30037" lon="4.56157">
        <ele>78</ele>
        <time>2020-06-08T22:47:01Z</time>
      </trkpt>
      <trkpt lat="44.30015" lon="4.56336">
        <ele>70</ele>
        <time>2020-06-08T22:47:31Z</time>
      </trkpt>
      <trkpt lat="44.30006" lon="4.56363">
        <ele>70</ele>
        <time>2020-06-08T22:47:36Z</time>
      </trkpt>
      <trkpt lat="44.29961" lon="4.56537">
        <ele>56</ele>
        <time>2020-06-08T22:48:07Z</time>
      </trkpt>
      <trkpt lat="44.29927" lon="4.56636">
        <ele>56</ele>
        <time>2020-06-08T22:48:26Z</time>
      </trkpt>
      <trkpt lat="44.29913" lon="4.5665">
        <ele>57</ele>
        <time>2020-06-08T22:48:30Z</time>
      </trkpt>
      <trkpt lat="44.301" lon="4.56743">
        <ele>55</ele>
        <time>2020-06-08T22:49:16Z</time>
      </trkpt>
      <trkpt lat="44.3013" lon="4.56668">
        <ele>54</ele>
        <time>2020-06-08T22:49:30Z</time>
      </trkpt>
      <trkpt lat="44.30139" lon="4.56638">
        <ele>53</ele>
        <time>2020-06-08T22:49:36Z</time>
      </trkpt>
      <trkpt lat="44.30141" lon="4.56616">
        <ele>53</ele>
        <time>2020-06-08T22:49:39Z</time>
      </trkpt>
      <trkpt lat="44.30172" lon="4.56618">
        <ele>55</ele>
        <time>2020-06-08T22:49:47Z</time>
      </trkpt>
      <trkpt lat="44.30185" lon="4.56608">
        <ele>55</ele>
        <time>2020-06-08T22:49:50Z</time>
      </trkpt>
      <trkpt lat="44.30222" lon="4.56615">
        <ele>56</ele>
        <time>2020-06-08T22:49:59Z</time>
      </trkpt>
      <trkpt lat="44.3026" lon="4.56647">
        <ele>58</ele>
        <time>2020-06-08T22:50:09Z</time>
      </trkpt>
      <trkpt lat="44.30267" lon="4.56708">
        <ele>59</ele>
        <time>2020-06-08T22:50:20Z</time>
      </trkpt>
      <trkpt lat="44.30276" lon="4.5673">
        <ele>60</ele>
        <time>2020-06-08T22:50:24Z</time>
      </trkpt>
      <trkpt lat="44.30294" lon="4.56755">
        <ele>61</ele>
        <time>2020-06-08T22:50:30Z</time>
      </trkpt>
      <trkpt lat="44.3034" lon="4.56734">
        <ele>62</ele>
        <time>2020-06-08T22:50:41Z</time>
      </trkpt>
      <trkpt lat="44.30387" lon="4.56707">
        <ele>65</ele>
        <time>2020-06-08T22:50:53Z</time>
      </trkpt>
      <trkpt lat="44.30403" lon="4.5672">
        <ele>67</ele>
        <time>2020-06-08T22:50:57Z</time>
      </trkpt>
      <trkpt lat="44.30502" lon="4.56712">
        <ele>73</ele>
        <time>2020-06-08T22:51:20Z</time>
      </trkpt>
      <trkpt lat="44.30592" lon="4.56725">
        <ele>84</ele>
        <time>2020-06-08T22:51:42Z</time>
      </trkpt>
      <trkpt lat="44.30598" lon="4.56751">
        <ele>86</ele>
        <time>2020-06-08T22:51:46Z</time>
      </trkpt>
      <trkpt lat="44.3061" lon="4.56768">
        <ele>88</ele>
        <time>2020-06-08T22:51:50Z</time>
      </trkpt>
      <trkpt lat="44.30704" lon="4.56774">
        <ele>101</ele>
        <time>2020-06-08T22:52:12Z</time>
      </trkpt>
      <trkpt lat="44.307" lon="4.5672">
        <ele>104</ele>
        <time>2020-06-08T22:52:21Z</time>
      </trkpt>
      <trkpt lat="44.30803" lon="4.56625">
        <ele>127</ele>
        <time>2020-06-08T22:52:50Z</time>
      </trkpt>
      <trkpt lat="44.30809" lon="4.56605">
        <ele>128</ele>
        <time>2020-06-08T22:52:54Z</time>
      </trkpt>
      <trkpt lat="44.30825" lon="4.566">
        <ele>132</ele>
        <time>2020-06-08T22:52:57Z</time>
      </trkpt>
      <trkpt lat="44.30832" lon="4.56621">
        <ele>133</ele>
        <time>2020-06-08T22:53:01Z</time>
      </trkpt>
      <trkpt lat="44.30891" lon="4.56552">
        <ele>145</ele>
        <time>2020-06-08T22:53:19Z</time>
      </trkpt>
      <trkpt lat="44.30918" lon="4.56572">
        <ele>151</ele>
        <time>2020-06-08T22:53:26Z</time>
      </trkpt>
      <trkpt lat="44.30958" lon="4.56562">
        <ele>156</ele>
        <time>2020-06-08T22:53:36Z</time>
      </trkpt>
      <trkpt lat="44.30994" lon="4.56517">
        <ele>161</ele>
        <time>2020-06-08T22:53:47Z</time>
      </trkpt>
      <trkpt lat="44.31045" lon="4.56519">
        <ele>161</ele>
        <time>2020-06-08T22:53:59Z</time>
      </trkpt>
      <trkpt lat="44.31085" lon="4.56472">
        <ele>165</ele>
        <time>2020-06-08T22:54:11Z</time>
      </trkpt>
      <trkpt lat="44.31156" lon="4.56449">
        <ele>168</ele>
        <time>2020-06-08T22:54:28Z</time>
      </trkpt>
      <trkpt lat="44.31235" lon="4.56501">
        <ele>169</ele>
        <time>2020-06-08T22:54:49Z</time>
      </trkpt>
      <trkpt lat="44.31299" lon="4.56492">
        <ele>174</ele>
        <time>2020-06-08T22:55:04Z</time>
      </trkpt>
      <trkpt lat="44.31336" lon="4.56471">
        <ele>176</ele>
        <time>2020-06-08T22:55:13Z</time>
      </trkpt>
      <trkpt lat="44.3144" lon="4.56586">
        <ele>181</ele>
        <time>2020-06-08T22:55:44Z</time>
      </trkpt>
      <trkpt lat="44.31539" lon="4.56616">
        <ele>187</ele>
        <time>2020-06-08T22:56:08Z</time>
      </trkpt>
      <trkpt lat="44.31563" lon="4.56493">
        <ele>191</ele>
        <time>2020-06-08T22:56:29Z</time>
      </trkpt>
      <trkpt lat="44.31659" lon="4.56315">
        <ele>196</ele>
        <time>2020-06-08T22:57:06Z</time>
      </trkpt>
      <trkpt lat="44.31712" lon="4.56239">
        <ele>201</ele>
        <time>2020-06-08T22:57:24Z</time>
      </trkpt>
      <trkpt lat="44.31767" lon="4.56174">
        <ele>200</ele>
        <time>2020-06-08T22:57:41Z</time>
      </trkpt>
      <trkpt lat="44.31824" lon="4.5631">
        <ele>206</ele>
        <time>2020-06-08T22:58:07Z</time>
      </trkpt>
      <trkpt lat="44.31923" lon="4.56394">
        <ele>209</ele>
        <time>2020-06-08T22:58:34Z</time>
      </trkpt>
      <trkpt lat="44.32084" lon="4.56645">
        <ele>215</ele>
        <time>2020-06-08T22:59:30Z</time>
      </trkpt>
      <trkpt lat="44.3213" lon="4.56736">
        <ele>214</ele>
        <time>2020-06-08T22:59:49Z</time>
      </trkpt>
      <trkpt lat="44.32165" lon="4.56773">
        <ele>215</ele>
        <time>2020-06-08T22:59:59Z</time>
      </trkpt>
      <trkpt lat="44.32218" lon="4.56878">
        <ele>219</ele>
        <time>2020-06-08T23:00:21Z</time>
      </trkpt>
      <trkpt lat="44.32326" lon="4.5704">
        <ele>218</ele>
        <time>2020-06-08T23:00:58Z</time>
      </trkpt>
      <trkpt lat="44.32473" lon="4.57176">
        <ele>215</ele>
        <time>2020-06-08T23:01:39Z</time>
      </trkpt>
      <trkpt lat="44.32654" lon="4.57363">
        <ele>218</ele>
        <time>2020-06-08T23:02:31Z</time>
      </trkpt>
      <trkpt lat="44.32774" lon="4.57404">
        <ele>214</ele>
        <time>2020-06-08T23:03:00Z</time>
      </trkpt>
      <trkpt lat="44.3279" lon="4.57481">
        <ele>211</ele>
        <time>2020-06-08T23:03:14Z</time>
      </trkpt>
      <trkpt lat="44.32747" lon="4.57526">
        <ele>209</ele>
        <time>2020-06-08T23:03:26Z</time>
      </trkpt>
      <trkpt lat="44.32713" lon="4.57605">
        <ele>205</ele>
        <time>2020-06-08T23:03:42Z</time>
      </trkpt>
      <trkpt lat="44.32687" lon="4.57701">
        <ele>202</ele>
        <time>2020-06-08T23:03:59Z</time>
      </trkpt>
      <trkpt lat="44.32583" lon="4.57855">
        <ele>190</ele>
        <time>2020-06-08T23:04:34Z</time>
      </trkpt>
      <trkpt lat="44.32506" lon="4.5791">
        <ele>181</ele>
        <time>2020-06-08T23:04:54Z</time>
      </trkpt>
      <trkpt lat="44.32542" lon="4.58002">
        <ele>177</ele>
        <time>2020-06-08T23:05:12Z</time>
      </trkpt>
      <trkpt lat="44.32584" lon="4.57977">
        <ele>181</ele>
        <time>2020-06-08T23:05:23Z</time>
      </trkpt>
      <trkpt lat="44.32601" lon="4.58013">
        <ele>179</ele>
        <time>2020-06-08T23:05:30Z</time>
      </trkpt>
      <trkpt lat="44.32625" lon="4.5811">
        <ele>175</ele>
        <time>2020-06-08T23:05:47Z</time>
      </trkpt>
      <trkpt lat="44.32546" lon="4.58158">
        <ele>170</ele>
        <time>2020-06-08T23:06:07Z</time>
      </trkpt>
      <trkpt lat="44.32363" lon="4.58232">
        <ele>161</ele>
        <time>2020-06-08T23:06:52Z</time>
      </trkpt>
      <trkpt lat="44.32339" lon="4.58229">
        <ele>160</ele>
        <time>2020-06-08T23:06:57Z</time>
      </trkpt>
      <trkpt lat="44.32316" lon="4.583">
        <ele>161</ele>
        <time>2020-06-08T23:07:10Z</time>
      </trkpt>
      <trkpt lat="44.32333" lon="4.58359">
        <ele>157</ele>
        <time>2020-06-08T23:07:21Z</time>
      </trkpt>
      <trkpt lat="44.32288" lon="4.58605">
        <ele>149</ele>
        <time>2020-06-08T23:08:03Z</time>
      </trkpt>
      <trkpt lat="44.32096" lon="4.58755">
        <ele>131</ele>
        <time>2020-06-08T23:08:55Z</time>
      </trkpt>
      <trkpt lat="44.31965" lon="4.58787">
        <ele>122</ele>
        <time>2020-06-08T23:09:26Z</time>
      </trkpt>
      <trkpt lat="44.31944" lon="4.58834">
        <ele>118</ele>
        <time>2020-06-08T23:09:35Z</time>
      </trkpt>
      <trkpt lat="44.32009" lon="4.58807">
        <ele>123</ele>
        <time>2020-06-08T23:09:51Z</time>
      </trkpt>
      <trkpt lat="44.32042" lon="4.5882">
        <ele>124</ele>
        <time>2020-06-08T23:09:59Z</time>
      </trkpt>
      <trkpt lat="44.32104" lon="4.58811">
        <ele>129</ele>
        <time>2020-06-08T23:10:13Z</time>
      </trkpt>
      <trkpt lat="44.32117" lon="4.58819">
        <ele>130</ele>
        <time>2020-06-08T23:10:17Z</time>
      </trkpt>
      <trkpt lat="44.32043" lon="4.58854">
        <ele>124</ele>
        <time>2020-06-08T23:10:35Z</time>
      </trkpt>
      <trkpt lat="44.3203" lon="4.58882">
        <ele>125</ele>
        <time>2020-06-08T23:10:40Z</time>
      </trkpt>
      <trkpt lat="44.31886" lon="4.59">
        <ele>123</ele>
        <time>2020-06-08T23:11:19Z</time>
      </trkpt>
      <trkpt lat="44.31825" lon="4.59015">
        <ele>120</ele>
        <time>2020-06-08T23:11:34Z</time>
      </trkpt>
      <trkpt lat="44.31788" lon="4.5898">
        <ele>117</ele>
        <time>2020-06-08T23:11:44Z</time>
      </trkpt>
      <trkpt lat="44.31723" lon="4.59061">
        <ele>113</ele>
        <time>2020-06-08T23:12:05Z</time>
      </trkpt>
      <trkpt lat="44.31754" lon="4.59243">
        <ele>102</ele>
        <time>2020-06-08T23:12:36Z</time>
      </trkpt>
      <trkpt lat="44.31759" lon="4.59486">
        <ele>89</ele>
        <time>2020-06-08T23:13:17Z</time>
      </trkpt>
      <trkpt lat="44.31848" lon="4.5971">
        <ele>101</ele>
        <time>2020-06-08T23:13:59Z</time>
      </trkpt>
      <trkpt lat="44.31795" lon="4.59792">
        <ele>111</ele>
        <time>2020-06-08T23:14:18Z</time>
      </trkpt>
      <trkpt lat="44.31893" lon="4.59852">
        <ele>114</ele>
        <time>2020-06-08T23:14:43Z</time>
      </trkpt>
      <trkpt lat="44.31973" lon="4.59911">
        <ele>115</ele>
        <time>2020-06-08T23:15:04Z</time>
      </trkpt>
      <trkpt lat="44.31975" lon="4.59923">
        <ele>117</ele>
        <time>2020-06-08T23:15:06Z</time>
      </trkpt>
      <trkpt lat="44.31971" lon="4.5996">
        <ele>123</ele>
        <time>2020-06-08T23:15:12Z</time>
      </trkpt>
      <trkpt lat="44.31988" lon="4.59987">
        <ele>125</ele>
        <time>2020-06-08T23:15:18Z</time>
      </trkpt>
      <trkpt lat="44.32016" lon="4.60043">
        <ele>131</ele>
        <time>2020-06-08T23:15:30Z</time>
      </trkpt>
      <trkpt lat="44.32054" lon="4.60153">
        <ele>143</ele>
        <time>2020-06-08T23:15:50Z</time>
      </trkpt>
      <trkpt lat="44.32057" lon="4.60176">
        <ele>146</ele>
        <time>2020-06-08T23:15:54Z</time>
      </trkpt>
      <trkpt lat="44.32065" lon="4.60196">
        <ele>147</ele>
        <time>2020-06-08T23:15:58Z</time>
      </trkpt>
      <trkpt lat="44.32106" lon="4.60282">
        <ele>154</ele>
        <time>2020-06-08T23:16:15Z</time>
      </trkpt>
      <trkpt lat="44.32156" lon="4.60338">
        <ele>159</ele>
        <time>2020-06-08T23:16:30Z</time>
      </trkpt>
      <trkpt lat="44.32161" lon="4.60366">
        <ele>161</ele>
        <time>2020-06-08T23:16:35Z</time>
      </trkpt>
      <trkpt lat="44.32115" lon="4.60529">
        <ele>165</ele>
        <time>2020-06-08T23:17:04Z</time>
      </trkpt>
      <trkpt lat="44.32163" lon="4.60581">
        <ele>165</ele>
        <time>2020-06-08T23:17:18Z</time>
      </trkpt>
      <trkpt lat="44.3221" lon="4.60638">
        <ele>163</ele>
        <time>2020-06-08T23:17:33Z</time>
      </trkpt>
      <trkpt lat="44.32232" lon="4.60705">
        <ele>159</ele>
        <time>2020-06-08T23:17:45Z</time>
      </trkpt>
      <trkpt lat="44.32298" lon="4.608">
        <ele>148</ele>
        <time>2020-06-08T23:18:07Z</time>
      </trkpt>
      <trkpt lat="44.32358" lon="4.6091">
        <ele>134</ele>
        <time>2020-06-08T23:18:30Z</time>
      </trkpt>
      <trkpt lat="44.32412" lon="4.60931">
        <ele>135</ele>
        <time>2020-06-08T23:18:43Z</time>
      </trkpt>
      <trkpt lat="44.32438" lon="4.6107">
        <ele>125</ele>
        <time>2020-06-08T23:19:08Z</time>
      </trkpt>
      <trkpt lat="44.32536" lon="4.61157">
        <ele>132</ele>
        <time>2020-06-08T23:19:35Z</time>
      </trkpt>
      <trkpt lat="44.32531" lon="4.61295">
        <ele>134</ele>
        <time>2020-06-08T23:19:58Z</time>
      </trkpt>
      <trkpt lat="44.32539" lon="4.61421">
        <ele>134</ele>
        <time>2020-06-08T23:20:19Z</time>
      </trkpt>
      <trkpt lat="44.3256" lon="4.61521">
        <ele>129</ele>
        <time>2020-06-08T23:20:36Z</time>
      </trkpt>
      <trkpt lat="44.32655" lon="4.61641">
        <ele>129</ele>
        <time>2020-06-08T23:21:06Z</time>
      </trkpt>
      <trkpt lat="44.32668" lon="4.61699">
        <ele>130</ele>
        <time>2020-06-08T23:21:16Z</time>
      </trkpt>
      <trkpt lat="44.32691" lon="4.61686">
        <ele>131</ele>
        <time>2020-06-08T23:21:22Z</time>
      </trkpt>
      <trkpt lat="44.32698" lon="4.61716">
        <ele>132</ele>
        <time>2020-06-08T23:21:27Z</time>
      </trkpt>
      <trkpt lat="44.32759" lon="4.61733">
        <ele>136</ele>
        <time>2020-06-08T23:21:42Z</time>
      </trkpt>
      <trkpt lat="44.32819" lon="4.61772">
        <ele>139</ele>
        <time>2020-06-08T23:21:57Z</time>
      </trkpt>
      <trkpt lat="44.32886" lon="4.61687">
        <ele>139</ele>
        <time>2020-06-08T23:22:18Z</time>
      </trkpt>
      <trkpt lat="44.32915" lon="4.61656">
        <ele>140</ele>
        <time>2020-06-08T23:22:27Z</time>
      </trkpt>
      <trkpt lat="44.32937" lon="4.61604">
        <ele>141</ele>
        <time>2020-06-08T23:22:37Z</time>
      </trkpt>
      <trkpt lat="44.32988" lon="4.61537">
        <ele>143</ele>
        <time>2020-06-08T23:22:53Z</time>
      </trkpt>
      <trkpt lat="44.33002" lon="4.61514">
        <ele>143</ele>
        <time>2020-06-08T23:22:58Z</time>
      </trkpt>
      <trkpt lat="44.33014" lon="4.61475">
        <ele>144</ele>
        <time>2020-06-08T23:23:06Z</time>
      </trkpt>
      <trkpt lat="44.33039" lon="4.61274">
        <ele>162</ele>
        <time>2020-06-08T23:23:40Z</time>
      </trkpt>
      <trkpt lat="44.3305" lon="4.61268">
        <ele>163</ele>
        <time>2020-06-08T23:23:42Z</time>
      </trkpt>
      <trkpt lat="44.3309" lon="4.61273">
        <ele>164</ele>
        <time>2020-06-08T23:23:52Z</time>
      </trkpt>
      <trkpt lat="44.33099" lon="4.61261">
        <ele>165</ele>
        <time>2020-06-08T23:23:55Z</time>
      </trkpt>
      <trkpt lat="44.33125" lon="4.61084">
        <ele>168</ele>
        <time>2020-06-08T23:24:25Z</time>
      </trkpt>
      <trkpt lat="44.33149" lon="4.60992">
        <ele>169</ele>
        <time>2020-06-08T23:24:41Z</time>
      </trkpt>
      <trkpt lat="44.33168" lon="4.60972">
        <ele>168</ele>
        <time>2020-06-08T23:24:47Z</time>
      </trkpt>
      <trkpt lat="44.33184" lon="4.60972">
        <ele>168</ele>
        <time>2020-06-08T23:24:51Z</time>
      </trkpt>
      <trkpt lat="44.33202" lon="4.60956">
        <ele>166</ele>
        <time>2020-06-08T23:24:56Z</time>
      </trkpt>
      <trkpt lat="44.33226" lon="4.60941">
        <ele>164</ele>
        <time>2020-06-08T23:25:02Z</time>
      </trkpt>
      <trkpt lat="44.33256" lon="4.60927">
        <ele>161</ele>
        <time>2020-06-08T23:25:09Z</time>
      </trkpt>
      <trkpt lat="44.33269" lon="4.60887">
        <ele>155</ele>
        <time>2020-06-08T23:25:16Z</time>
      </trkpt>
      <trkpt lat="44.33292" lon="4.60864">
        <ele>151</ele>
        <time>2020-06-08T23:25:23Z</time>
      </trkpt>
      <trkpt lat="44.33347" lon="4.60843">
        <ele>148</ele>
        <time>2020-06-08T23:25:36Z</time>
      </trkpt>
      <trkpt lat="44.33363" lon="4.60821">
        <ele>144</ele>
        <time>2020-06-08T23:25:42Z</time>
      </trkpt>
      <trkpt lat="44.33391" lon="4.60809">
        <ele>142</ele>
        <time>2020-06-08T23:25:48Z</time>
      </trkpt>
      <trkpt lat="44.3343" lon="4.60738">
        <ele>138</ele>
        <time>2020-06-08T23:26:03Z</time>
      </trkpt>
      <trkpt lat="44.33471" lon="4.60695">
        <ele>138</ele>
        <time>2020-06-08T23:26:15Z</time>
      </trkpt>
      <trkpt lat="44.33498" lon="4.60644">
        <ele>138</ele>
        <time>2020-06-08T23:26:26Z</time>
      </trkpt>
      <trkpt lat="44.33553" lon="4.60683">
        <ele>138</ele>
        <time>2020-06-08T23:26:40Z</time>
      </trkpt>
      <trkpt lat="44.33622" lon="4.60716">
        <ele>140</ele>
        <time>2020-06-08T23:26:57Z</time>
      </trkpt>
      <trkpt lat="44.33788" lon="4.6083">
        <ele>151</ele>
        <time>2020-06-08T23:27:41Z</time>
      </trkpt>
      <trkpt lat="44.33844" lon="4.60859">
        <ele>155</ele>
        <time>2020-06-08T23:27:54Z</time>
      </trkpt>
      <trkpt lat="44.33884" lon="4.60887">
        <ele>156</ele>
        <time>2020-06-08T23:28:05Z</time>
      </trkpt>
      <trkpt lat="44.33922" lon="4.60839">
        <ele>157</ele>
        <time>2020-06-08T23:28:17Z</time>
      </trkpt>
      <trkpt lat="44.34007" lon="4.60822">
        <ele>152</ele>
        <time>2020-06-08T23:28:37Z</time>
      </trkpt>
      <trkpt lat="44.3412" lon="4.60813">
        <ele>148</ele>
        <time>2020-06-08T23:29:03Z</time>
      </trkpt>
      <trkpt lat="44.3418" lon="4.608">
        <ele>147</ele>
        <time>2020-06-08T23:29:18Z</time>
      </trkpt>
      <trkpt lat="44.34319" lon="4.60793">
        <ele>143</ele>
        <time>2020-06-08T23:29:50Z</time>
      </trkpt>
      <trkpt lat="44.3448" lon="4.60791">
        <ele>141</ele>
        <time>2020-06-08T23:30:28Z</time>
      </trkpt>
      <trkpt lat="44.34675" lon="4.60921">
        <ele>138</ele>
        <time>2020-06-08T23:31:18Z</time>
      </trkpt>
      <trkpt lat="44.3465" lon="4.60993">
        <ele>139</ele>
        <time>2020-06-08T23:31:31Z</time>
      </trkpt>
      <trkpt lat="44.34628" lon="4.61066">
        <ele>146</ele>
        <time>2020-06-08T23:31:45Z</time>
      </trkpt>
      <trkpt lat="44.34579" lon="4.61147">
        <ele>153</ele>
        <time>2020-06-08T23:32:02Z</time>
      </trkpt>
      <trkpt lat="44.3455" lon="4.61281">
        <ele>167</ele>
        <time>2020-06-08T23:32:26Z</time>
      </trkpt>
      <trkpt lat="44.34522" lon="4.61279">
        <ele>167</ele>
        <time>2020-06-08T23:32:32Z</time>
      </trkpt>
      <trkpt lat="44.3451" lon="4.61299">
        <ele>169</ele>
        <time>2020-06-08T23:32:37Z</time>
      </trkpt>
      <trkpt lat="44.34446" lon="4.61291">
        <ele>167</ele>
        <time>2020-06-08T23:32:52Z</time>
      </trkpt>
      <trkpt lat="44.34427" lon="4.61444">
        <ele>177</ele>
        <time>2020-06-08T23:33:18Z</time>
      </trkpt>
      <trkpt lat="44.34423" lon="4.61626">
        <ele>177</ele>
        <time>2020-06-08T23:33:48Z</time>
      </trkpt>
      <trkpt lat="44.34399" lon="4.61651">
        <ele>175</ele>
        <time>2020-06-08T23:33:55Z</time>
      </trkpt>
      <trkpt lat="44.34373" lon="4.61662">
        <ele>174</ele>
        <time>2020-06-08T23:34:01Z</time>
      </trkpt>
      <trkpt lat="44.34368" lon="4.61692">
        <ele>173</ele>
        <time>2020-06-08T23:34:06Z</time>
      </trkpt>
      <trkpt lat="44.34358" lon="4.61807">
        <ele>166</ele>
        <time>2020-06-08T23:34:26Z</time>
      </trkpt>
      <trkpt lat="44.34441" lon="4.61853">
        <ele>162</ele>
        <time>2020-06-08T23:34:47Z</time>
      </trkpt>
      <trkpt lat="44.34477" lon="4.61859">
        <ele>161</ele>
        <time>2020-06-08T23:34:55Z</time>
      </trkpt>
      <trkpt lat="44.34493" lon="4.61871">
        <ele>160</ele>
        <time>2020-06-08T23:34:59Z</time>
      </trkpt>
      <trkpt lat="44.34516" lon="4.61917">
        <ele>156</ele>
        <time>2020-06-08T23:35:09Z</time>
      </trkpt>
      <trkpt lat="44.34547" lon="4.61946">
        <ele>154</ele>
        <time>2020-06-08T23:35:17Z</time>
      </trkpt>
      <trkpt lat="44.346" lon="4.61987">
        <ele>149</ele>
        <time>2020-06-08T23:35:32Z</time>
      </trkpt>
      <trkpt lat="44.34645" lon="4.62015">
        <ele>147</ele>
        <time>2020-06-08T23:35:43Z</time>
      </trkpt>
      <trkpt lat="44.34698" lon="4.62061">
        <ele>139</ele>
        <time>2020-06-08T23:35:58Z</time>
      </trkpt>
      <trkpt lat="44.34766" lon="4.62146">
        <ele>124</ele>
        <time>2020-06-08T23:36:19Z</time>
      </trkpt>
      <trkpt lat="44.34886" lon="4.62233">
        <ele>108</ele>
        <time>2020-06-08T23:36:51Z</time>
      </trkpt>
      <trkpt lat="44.34918" lon="4.62246">
        <ele>107</ele>
        <time>2020-06-08T23:36:58Z</time>
      </trkpt>
      <trkpt lat="44.34923" lon="4.62259">
        <ele>105</ele>
        <time>2020-06-08T23:37:01Z</time>
      </trkpt>
      <trkpt lat="44.34918" lon="4.62281">
        <ele>103</ele>
        <time>2020-06-08T23:37:05Z</time>
      </trkpt>
      <trkpt lat="44.34897" lon="4.6231">
        <ele>100</ele>
        <time>2020-06-08T23:37:12Z</time>
      </trkpt>
      <trkpt lat="44.34878" lon="4.62358">
        <ele>98</ele>
        <time>2020-06-08T23:37:21Z</time>
      </trkpt>
      <trkpt lat="44.34878" lon="4.62392">
        <ele>97</ele>
        <time>2020-06-08T23:37:26Z</time>
      </trkpt>
      <trkpt lat="44.34918" lon="4.62431">
        <ele>94</ele>
        <time>2020-06-08T23:37:38Z</time>
      </trkpt>
      <trkpt lat="44.34935" lon="4.62435">
        <ele>92</ele>
        <time>2020-06-08T23:37:42Z</time>
      </trkpt>
      <trkpt lat="44.3499" lon="4.62405">
        <ele>86</ele>
        <time>2020-06-08T23:37:56Z</time>
      </trkpt>
      <trkpt lat="44.35018" lon="4.62399">
        <ele>86</ele>
        <time>2020-06-08T23:38:02Z</time>
      </trkpt>
      <trkpt lat="44.35052" lon="4.62378">
        <ele>87</ele>
        <time>2020-06-08T23:38:11Z</time>
      </trkpt>
      <trkpt lat="44.35054" lon="4.62392">
        <ele>87</ele>
        <time>2020-06-08T23:38:13Z</time>
      </trkpt>
      <trkpt lat="44.35044" lon="4.6241">
        <ele>86</ele>
        <time>2020-06-08T23:38:17Z</time>
      </trkpt>
      <trkpt lat="44.35021" lon="4.62435">
        <ele>84</ele>
        <time>2020-06-08T23:38:24Z</time>
      </trkpt>
      <trkpt lat="44.35021" lon="4.62451">
        <ele>83</ele>
        <time>2020-06-08T23:38:27Z</time>
      </trkpt>
      <trkpt lat="44.35048" lon="4.62498">
        <ele>84</ele>
        <time>2020-06-08T23:38:37Z</time>
      </trkpt>
      <trkpt lat="44.3507" lon="4.62515">
        <ele>88</ele>
        <time>2020-06-08T23:38:42Z</time>
      </trkpt>
      <trkpt lat="44.35102" lon="4.62523">
        <ele>91</ele>
        <time>2020-06-08T23:38:50Z</time>
      </trkpt>
      <trkpt lat="44.3515" lon="4.62512">
        <ele>94</ele>
        <time>2020-06-08T23:39:01Z</time>
      </trkpt>
      <trkpt lat="44.35169" lon="4.62533">
        <ele>96</ele>
        <time>2020-06-08T23:39:07Z</time>
      </trkpt>
      <trkpt lat="44.35178" lon="4.62548">
        <ele>98</ele>
        <time>2020-06-08T23:39:10Z</time>
      </trkpt>
      <trkpt lat="44.3523" lon="4.62609">
        <ele>102</ele>
        <time>2020-06-08T23:39:26Z</time>
      </trkpt>
      <trkpt lat="44.35399" lon="4.6285">
        <ele>110</ele>
        <time>2020-06-08T23:40:23Z</time>
      </trkpt>
      <trkpt lat="44.35485" lon="4.62999">
        <ele>118</ele>
        <time>2020-06-08T23:40:55Z</time>
      </trkpt>
      <trkpt lat="44.35512" lon="4.63032">
        <ele>118</ele>
        <time>2020-06-08T23:41:03Z</time>
      </trkpt>
      <trkpt lat="44.35569" lon="4.63074">
        <ele>117</ele>
        <time>2020-06-08T23:41:18Z</time>
      </trkpt>
      <trkpt lat="44.35627" lon="4.63132">
        <ele>114</ele>
        <time>2020-06-08T23:41:35Z</time>
      </trkpt>
      <trkpt lat="44.3569" lon="4.63205">
        <ele>113</ele>
        <time>2020-06-08T23:41:54Z</time>
      </trkpt>
      <trkpt lat="44.35722" lon="4.63255">
        <ele>110</ele>
        <time>2020-06-08T23:42:05Z</time>
      </trkpt>
      <trkpt lat="44.35808" lon="4.63403">
        <ele>104</ele>
        <time>2020-06-08T23:42:37Z</time>
      </trkpt>
      <trkpt lat="44.35846" lon="4.63484">
        <ele>101</ele>
        <time>2020-06-08T23:42:53Z</time>
      </trkpt>
      <trkpt lat="44.35874" lon="4.63526">
        <ele>98</ele>
        <time>2020-06-08T23:43:03Z</time>
      </trkpt>
      <trkpt lat="44.35917" lon="4.63553">
        <ele>95</ele>
        <time>2020-06-08T23:43:14Z</time>
      </trkpt>
      <trkpt lat="44.35956" lon="4.63602">
        <ele>93</ele>
        <time>2020-06-08T23:43:26Z</time>
      </trkpt>
      <trkpt lat="44.35976" lon="4.63613">
        <ele>93</ele>
        <time>2020-06-08T23:43:31Z</time>
      </trkpt>
      <trkpt lat="44.36103" lon="4.637">
        <ele>86</ele>
        <time>2020-06-08T23:44:04Z</time>
      </trkpt>
      <trkpt lat="44.36125" lon="4.63699">
        <ele>84</ele>
        <time>2020-06-08T23:44:09Z</time>
      </trkpt>
      <trkpt lat="44.36174" lon="4.63665">
        <ele>81</ele>
        <time>2020-06-08T23:44:22Z</time>
      </trkpt>
      <trkpt lat="44.36215" lon="4.63723">
        <ele>80</ele>
        <time>2020-06-08T23:44:35Z</time>
      </trkpt>
      <trkpt lat="44.36218" lon="4.63742">
        <ele>80</ele>
        <time>2020-06-08T23:44:39Z</time>
      </trkpt>
      <trkpt lat="44.36216" lon="4.63804">
        <ele>79</ele>
        <time>2020-06-08T23:44:49Z</time>
      </trkpt>
      <trkpt lat="44.36223" lon="4.63853">
        <ele>78</ele>
        <time>2020-06-08T23:44:57Z</time>
      </trkpt>
      <trkpt lat="44.36235" lon="4.63887">
        <ele>78</ele>
        <time>2020-06-08T23:45:04Z</time>
      </trkpt>
      <trkpt lat="44.36249" lon="4.63909">
        <ele>79</ele>
        <time>2020-06-08T23:45:09Z</time>
      </trkpt>
      <trkpt lat="44.36272" lon="4.63924">
        <ele>80</ele>
        <time>2020-06-08T23:45:15Z</time>
      </trkpt>
      <trkpt lat="44.36337" lon="4.63983">
        <ele>82</ele>
        <time>2020-06-08T23:45:33Z</time>
      </trkpt>
      <trkpt lat="44.36408" lon="4.64041">
        <ele>84</ele>
        <time>2020-06-08T23:45:52Z</time>
      </trkpt>
      <trkpt lat="44.36451" lon="4.64089">
        <ele>81</ele>
        <time>2020-06-08T23:46:05Z</time>
      </trkpt>
      <trkpt lat="44.36478" lon="4.64098">
        <ele>81</ele>
        <time>2020-06-08T23:46:11Z</time>
      </trkpt>
      <trkpt lat="44.36482" lon="4.64127">
        <ele>78</ele>
        <time>2020-06-08T23:46:16Z</time>
      </trkpt>
      <trkpt lat="44.36495" lon="4.64151">
        <ele>76</ele>
        <time>2020-06-08T23:46:21Z</time>
      </trkpt>
      <trkpt lat="44.36514" lon="4.64196">
        <ele>72</ele>
        <time>2020-06-08T23:46:30Z</time>
      </trkpt>
      <trkpt lat="44.36504" lon="4.64199">
        <ele>72</ele>
        <time>2020-06-08T23:46:32Z</time>
      </trkpt>
      <trkpt lat="44.36505" lon="4.6424">
        <ele>68</ele>
        <time>2020-06-08T23:46:39Z</time>
      </trkpt>
      <trkpt lat="44.36509" lon="4.64248">
        <ele>67</ele>
        <time>2020-06-08T23:46:41Z</time>
      </trkpt>
      <trkpt lat="44.36556" lon="4.64254">
        <ele>67</ele>
        <time>2020-06-08T23:46:52Z</time>
      </trkpt>
      <trkpt lat="44.36569" lon="4.64264">
        <ele>66</ele>
        <time>2020-06-08T23:46:55Z</time>
      </trkpt>
      <trkpt lat="44.3659" lon="4.64292">
        <ele>65</ele>
        <time>2020-06-08T23:47:02Z</time>
      </trkpt>
      <trkpt lat="44.36669" lon="4.64361">
        <ele>60</ele>
        <time>2020-06-08T23:47:24Z</time>
      </trkpt>
      <trkpt lat="44.36682" lon="4.64376">
        <ele>59</ele>
        <time>2020-06-08T23:47:28Z</time>
      </trkpt>
      <trkpt lat="44.3677" lon="4.64342">
        <ele>59</ele>
        <time>2020-06-08T23:47:49Z</time>
      </trkpt>
      <trkpt lat="44.36793" lon="4.64353">
        <ele>59</ele>
        <time>2020-06-08T23:47:55Z</time>
      </trkpt>
      <trkpt lat="44.36814" lon="4.64378">
        <ele>59</ele>
        <time>2020-06-08T23:48:01Z</time>
      </trkpt>
      <trkpt lat="44.36857" lon="4.64446">
        <ele>62</ele>
        <time>2020-06-08T23:48:16Z</time>
      </trkpt>
      <trkpt lat="44.36873" lon="4.64466">
        <ele>63</ele>
        <time>2020-06-08T23:48:21Z</time>
      </trkpt>
      <trkpt lat="44.36875" lon="4.64421">
        <ele>63</ele>
        <time>2020-06-08T23:48:29Z</time>
      </trkpt>
      <trkpt lat="44.36884" lon="4.64369">
        <ele>63</ele>
        <time>2020-06-08T23:48:38Z</time>
      </trkpt>
      <trkpt lat="44.36915" lon="4.64238">
        <ele>63</ele>
        <time>2020-06-08T23:49:01Z</time>
      </trkpt>
      <trkpt lat="44.36935" lon="4.64198">
        <ele>63</ele>
        <time>2020-06-08T23:49:09Z</time>
      </trkpt>
      <trkpt lat="44.3699" lon="4.64182">
        <ele>65</ele>
        <time>2020-06-08T23:49:22Z</time>
      </trkpt>
      <trkpt lat="44.37035" lon="4.64126">
        <ele>69</ele>
        <time>2020-06-08T23:49:36Z</time>
      </trkpt>
      <trkpt lat="44.37053" lon="4.64097">
        <ele>71</ele>
        <time>2020-06-08T23:49:42Z</time>
      </trkpt>
      <trkpt lat="44.37073" lon="4.64088">
        <ele>71</ele>
        <time>2020-06-08T23:49:47Z</time>
      </trkpt>
      <trkpt lat="44.37087" lon="4.64037">
        <ele>76</ele>
        <time>2020-06-08T23:49:56Z</time>
      </trkpt>
      <trkpt lat="44.37111" lon="4.64001">
        <ele>78</ele>
        <time>2020-06-08T23:50:05Z</time>
      </trkpt>
      <trkpt lat="44.37156" lon="4.63961">
        <ele>79</ele>
        <time>2020-06-08T23:50:17Z</time>
      </trkpt>
      <trkpt lat="44.37204" lon="4.63923">
        <ele>82</ele>
        <time>2020-06-08T23:50:30Z</time>
      </trkpt>
      <trkpt lat="44.37229" lon="4.63922">
        <ele>82</ele>
        <time>2020-06-08T23:50:36Z</time>
      </trkpt>
      <trkpt lat="44.37234" lon="4.63947">
        <ele>81</ele>
        <time>2020-06-08T23:50:40Z</time>
      </trkpt>
      <trkpt lat="44.37218" lon="4.63968">
        <ele>80</ele>
        <time>2020-06-08T23:50:45Z</time>
      </trkpt>
      <trkpt lat="44.37206" lon="4.63989">
        <ele>78</ele>
        <time>2020-06-08T23:50:50Z</time>
      </trkpt>
      <trkpt lat="44.37207" lon="4.64016">
        <ele>77</ele>
        <time>2020-06-08T23:50:54Z</time>
      </trkpt>
      <trkpt lat="44.37168" lon="4.64087">
        <ele>75</ele>
        <time>2020-06-08T23:51:09Z</time>
      </trkpt>
      <trkpt lat="44.37141" lon="4.64155">
        <ele>74</ele>
        <time>2020-06-08T23:51:22Z</time>
      </trkpt>
      <trkpt lat="44.37073" lon="4.64299">
        <ele>72</ele>
        <time>2020-06-08T23:51:51Z</time>
      </trkpt>
      <trkpt lat="44.3712" lon="4.64372">
        <ele>72</ele>
        <time>2020-06-08T23:52:07Z</time>
      </trkpt>
      <trkpt lat="44.37143" lon="4.64385">
        <ele>72</ele>
        <time>2020-06-08T23:52:13Z</time>
      </trkpt>
      <trkpt lat="44.37147" lon="4.64382">
        <ele>72</ele>
        <time>2020-06-08T23:52:14Z</time>
      </trkpt>
    </trkseg>
  </trk>
</gpx>